<?xml version="1.0" encoding="UTF-8" standalone="no" ?>
<gpx xmlns="http://www.topografix.com/GPX/1/1" xmlns:xsi="http://www.w3.org/2001/XMLSchema-instance" xsi:schemaLocation="http://www.topografix.com/GPX/1/1 http://www.topografix.com/GPX/1/1/gpx.xsd" version="1.1" creator="VisuGPX - https://www.visugpx.com">
  <metadata>
    <name>Castelnau Sabine 19 12 2023</name>
    <desc><![CDATA[

]]></desc>
  </metadata>
  <trk>
    <name><![CDATA[Castelnau Sabine 19 12 2023_1]]></name>
    <desc><![CDATA[

]]></desc>
    <extensions>
      <line xmlns="http://www.topografix.com/GPX/gpx_style/0/2">
        <color>ff000d</color>
        <width>4</width>
          <extensions>
            <sens>1</sens>
          </extensions>
      </line>
    </extensions>
    <trkseg>
      <trkpt lat="43.43451" lon="3.44053">
        <ele>44.400001525879</ele>
        <time>2023-12-19T12:46:52Z</time>
        <extensions>
          <visugpx:TrkExtension xmlns:visugpx="https://www.visugpx.com/editgpx/">
            <visugpx:node>1</visugpx:node>
            </visugpx:TrkExtension>
        </extensions>
      </trkpt>
      <trkpt lat="43.43449" lon="3.44057">
        <ele>44.400001525879</ele>
        <time>2023-12-19T12:46:53Z</time>
      </trkpt>
      <trkpt lat="43.43448" lon="3.44063">
        <ele>44.400001525879</ele>
        <time>2023-12-19T12:46:54Z</time>
      </trkpt>
      <trkpt lat="43.43448" lon="3.44069">
        <ele>44.200000762939</ele>
        <time>2023-12-19T12:46:55Z</time>
      </trkpt>
      <trkpt lat="43.43449" lon="3.44074">
        <ele>44</ele>
        <time>2023-12-19T12:46:56Z</time>
      </trkpt>
      <trkpt lat="43.43452" lon="3.44079">
        <ele>43.799999237061</ele>
        <time>2023-12-19T12:46:57Z</time>
      </trkpt>
      <trkpt lat="43.43454" lon="3.44082">
        <ele>43.599998474121</ele>
        <time>2023-12-19T12:46:58Z</time>
      </trkpt>
      <trkpt lat="43.43455" lon="3.44085">
        <ele>43.200000762939</ele>
        <time>2023-12-19T12:46:59Z</time>
      </trkpt>
      <trkpt lat="43.43457" lon="3.44087">
        <ele>43.200000762939</ele>
        <time>2023-12-19T12:47:00Z</time>
      </trkpt>
      <trkpt lat="43.43457" lon="3.44089">
        <ele>43.200000762939</ele>
        <time>2023-12-19T12:47:01Z</time>
      </trkpt>
      <trkpt lat="43.43458" lon="3.44091">
        <ele>43.200000762939</ele>
        <time>2023-12-19T12:47:02Z</time>
      </trkpt>
      <trkpt lat="43.43459" lon="3.44093">
        <ele>43.400001525879</ele>
        <time>2023-12-19T12:47:03Z</time>
      </trkpt>
      <trkpt lat="43.43459" lon="3.44095">
        <ele>43.400001525879</ele>
        <time>2023-12-19T12:47:04Z</time>
      </trkpt>
      <trkpt lat="43.43459" lon="3.44097">
        <ele>43.400001525879</ele>
        <time>2023-12-19T12:47:05Z</time>
      </trkpt>
      <trkpt lat="43.43459" lon="3.441">
        <ele>43.400001525879</ele>
        <time>2023-12-19T12:47:06Z</time>
      </trkpt>
      <trkpt lat="43.43459" lon="3.44103">
        <ele>43.400001525879</ele>
        <time>2023-12-19T12:47:07Z</time>
      </trkpt>
      <trkpt lat="43.43458" lon="3.44106">
        <ele>43.400001525879</ele>
        <time>2023-12-19T12:47:08Z</time>
      </trkpt>
      <trkpt lat="43.43458" lon="3.4411">
        <ele>43.400001525879</ele>
        <time>2023-12-19T12:47:09Z</time>
      </trkpt>
      <trkpt lat="43.43458" lon="3.44114">
        <ele>43.400001525879</ele>
        <time>2023-12-19T12:47:10Z</time>
      </trkpt>
      <trkpt lat="43.43457" lon="3.44118">
        <ele>43.200000762939</ele>
        <time>2023-12-19T12:47:11Z</time>
      </trkpt>
      <trkpt lat="43.43456" lon="3.44122">
        <ele>43</ele>
        <time>2023-12-19T12:47:12Z</time>
      </trkpt>
      <trkpt lat="43.43456" lon="3.44126">
        <ele>42.799999237061</ele>
        <time>2023-12-19T12:47:13Z</time>
      </trkpt>
      <trkpt lat="43.43455" lon="3.4413">
        <ele>42.799999237061</ele>
        <time>2023-12-19T12:47:14Z</time>
      </trkpt>
      <trkpt lat="43.43455" lon="3.44135">
        <ele>42.599998474121</ele>
        <time>2023-12-19T12:47:15Z</time>
      </trkpt>
      <trkpt lat="43.43454" lon="3.44137">
        <ele>42.200000762939</ele>
        <time>2023-12-19T12:47:16Z</time>
      </trkpt>
      <trkpt lat="43.43453" lon="3.4414">
        <ele>42</ele>
        <time>2023-12-19T12:47:17Z</time>
      </trkpt>
      <trkpt lat="43.43453" lon="3.44143">
        <ele>41.599998474121</ele>
        <time>2023-12-19T12:47:18Z</time>
      </trkpt>
      <trkpt lat="43.43452" lon="3.44146">
        <ele>41.400001525879</ele>
        <time>2023-12-19T12:47:19Z</time>
      </trkpt>
      <trkpt lat="43.43452" lon="3.44149">
        <ele>41.200000762939</ele>
        <time>2023-12-19T12:47:20Z</time>
      </trkpt>
      <trkpt lat="43.43452" lon="3.44153">
        <ele>41</ele>
        <time>2023-12-19T12:47:21Z</time>
      </trkpt>
      <trkpt lat="43.43452" lon="3.44158">
        <ele>40.799999237061</ele>
        <time>2023-12-19T12:47:22Z</time>
      </trkpt>
      <trkpt lat="43.43452" lon="3.44162">
        <ele>40.599998474121</ele>
        <time>2023-12-19T12:47:23Z</time>
      </trkpt>
      <trkpt lat="43.43451" lon="3.44166">
        <ele>40.400001525879</ele>
        <time>2023-12-19T12:47:24Z</time>
      </trkpt>
      <trkpt lat="43.4345" lon="3.4417">
        <ele>40.200000762939</ele>
        <time>2023-12-19T12:47:25Z</time>
      </trkpt>
      <trkpt lat="43.43448" lon="3.44173">
        <ele>40</ele>
        <time>2023-12-19T12:47:26Z</time>
      </trkpt>
      <trkpt lat="43.43447" lon="3.44176">
        <ele>39.599998474121</ele>
        <time>2023-12-19T12:47:27Z</time>
      </trkpt>
      <trkpt lat="43.43446" lon="3.44179">
        <ele>39.200000762939</ele>
        <time>2023-12-19T12:47:28Z</time>
      </trkpt>
      <trkpt lat="43.43446" lon="3.44181">
        <ele>38.400001525879</ele>
        <time>2023-12-19T12:47:29Z</time>
      </trkpt>
      <trkpt lat="43.43445" lon="3.44184">
        <ele>37.599998474121</ele>
        <time>2023-12-19T12:47:30Z</time>
      </trkpt>
      <trkpt lat="43.43445" lon="3.44188">
        <ele>37</ele>
        <time>2023-12-19T12:47:31Z</time>
      </trkpt>
      <trkpt lat="43.43444" lon="3.44191">
        <ele>36.599998474121</ele>
        <time>2023-12-19T12:47:32Z</time>
      </trkpt>
      <trkpt lat="43.43445" lon="3.44194">
        <ele>36.200000762939</ele>
        <time>2023-12-19T12:47:33Z</time>
      </trkpt>
      <trkpt lat="43.43445" lon="3.44197">
        <ele>35.599998474121</ele>
        <time>2023-12-19T12:47:34Z</time>
      </trkpt>
      <trkpt lat="43.43446" lon="3.44201">
        <ele>35.200000762939</ele>
        <time>2023-12-19T12:47:35Z</time>
      </trkpt>
      <trkpt lat="43.43448" lon="3.44203">
        <ele>34.799999237061</ele>
        <time>2023-12-19T12:47:36Z</time>
      </trkpt>
      <trkpt lat="43.4345" lon="3.44204">
        <ele>34.599998474121</ele>
        <time>2023-12-19T12:47:37Z</time>
      </trkpt>
      <trkpt lat="43.43453" lon="3.44206">
        <ele>34.200000762939</ele>
        <time>2023-12-19T12:47:38Z</time>
      </trkpt>
      <trkpt lat="43.43454" lon="3.44209">
        <ele>34</ele>
        <time>2023-12-19T12:47:39Z</time>
      </trkpt>
      <trkpt lat="43.43455" lon="3.44211">
        <ele>33.599998474121</ele>
        <time>2023-12-19T12:47:40Z</time>
      </trkpt>
      <trkpt lat="43.43457" lon="3.44215">
        <ele>33</ele>
        <time>2023-12-19T12:47:41Z</time>
      </trkpt>
      <trkpt lat="43.43458" lon="3.44218">
        <ele>32.599998474121</ele>
        <time>2023-12-19T12:47:42Z</time>
      </trkpt>
      <trkpt lat="43.43458" lon="3.4422">
        <ele>32</ele>
        <time>2023-12-19T12:47:43Z</time>
      </trkpt>
      <trkpt lat="43.43458" lon="3.44224">
        <ele>31.60000038147</ele>
        <time>2023-12-19T12:47:44Z</time>
      </trkpt>
      <trkpt lat="43.43459" lon="3.44228">
        <ele>31.200000762939</ele>
        <time>2023-12-19T12:47:45Z</time>
      </trkpt>
      <trkpt lat="43.43461" lon="3.44231">
        <ele>30.60000038147</ele>
        <time>2023-12-19T12:47:46Z</time>
      </trkpt>
      <trkpt lat="43.43463" lon="3.44234">
        <ele>30</ele>
        <time>2023-12-19T12:47:47Z</time>
      </trkpt>
      <trkpt lat="43.43463" lon="3.44237">
        <ele>29.60000038147</ele>
        <time>2023-12-19T12:47:48Z</time>
      </trkpt>
      <trkpt lat="43.43463" lon="3.4424">
        <ele>29</ele>
        <time>2023-12-19T12:47:49Z</time>
      </trkpt>
      <trkpt lat="43.43463" lon="3.44244">
        <ele>28.60000038147</ele>
        <time>2023-12-19T12:47:50Z</time>
      </trkpt>
      <trkpt lat="43.43464" lon="3.44248">
        <ele>28</ele>
        <time>2023-12-19T12:47:51Z</time>
      </trkpt>
      <trkpt lat="43.43464" lon="3.44251">
        <ele>27.60000038147</ele>
        <time>2023-12-19T12:47:52Z</time>
      </trkpt>
      <trkpt lat="43.43462" lon="3.44256">
        <ele>27</ele>
        <time>2023-12-19T12:47:53Z</time>
      </trkpt>
      <trkpt lat="43.43461" lon="3.44263">
        <ele>26.200000762939</ele>
        <time>2023-12-19T12:47:54Z</time>
      </trkpt>
      <trkpt lat="43.4346" lon="3.44269">
        <ele>25.799999237061</ele>
        <time>2023-12-19T12:47:55Z</time>
      </trkpt>
      <trkpt lat="43.43458" lon="3.44273">
        <ele>25.200000762939</ele>
        <time>2023-12-19T12:47:56Z</time>
      </trkpt>
      <trkpt lat="43.43457" lon="3.44278">
        <ele>24.39999961853</ele>
        <time>2023-12-19T12:47:57Z</time>
      </trkpt>
      <trkpt lat="43.43456" lon="3.44281">
        <ele>24</ele>
        <time>2023-12-19T12:47:58Z</time>
      </trkpt>
      <trkpt lat="43.43457" lon="3.44286">
        <ele>24</ele>
        <time>2023-12-19T12:47:59Z</time>
      </trkpt>
      <trkpt lat="43.43457" lon="3.44291">
        <ele>24</ele>
        <time>2023-12-19T12:48:00Z</time>
      </trkpt>
      <trkpt lat="43.43458" lon="3.44296">
        <ele>24</ele>
        <time>2023-12-19T12:48:01Z</time>
      </trkpt>
      <trkpt lat="43.4346" lon="3.44301">
        <ele>24.200000762939</ele>
        <time>2023-12-19T12:48:02Z</time>
      </trkpt>
      <trkpt lat="43.43461" lon="3.44306">
        <ele>24.39999961853</ele>
        <time>2023-12-19T12:48:03Z</time>
      </trkpt>
      <trkpt lat="43.43461" lon="3.44309">
        <ele>24.799999237061</ele>
        <time>2023-12-19T12:48:04Z</time>
      </trkpt>
      <trkpt lat="43.4346" lon="3.44312">
        <ele>25</ele>
        <time>2023-12-19T12:48:05Z</time>
      </trkpt>
      <trkpt lat="43.43459" lon="3.44315">
        <ele>25.39999961853</ele>
        <time>2023-12-19T12:48:06Z</time>
      </trkpt>
      <trkpt lat="43.4346" lon="3.44318">
        <ele>25.799999237061</ele>
        <time>2023-12-19T12:48:07Z</time>
      </trkpt>
      <trkpt lat="43.4346" lon="3.44322">
        <ele>26.200000762939</ele>
        <time>2023-12-19T12:48:08Z</time>
      </trkpt>
      <trkpt lat="43.4346" lon="3.44326">
        <ele>26.39999961853</ele>
        <time>2023-12-19T12:48:09Z</time>
      </trkpt>
      <trkpt lat="43.43461" lon="3.4433">
        <ele>26.799999237061</ele>
        <time>2023-12-19T12:48:10Z</time>
      </trkpt>
      <trkpt lat="43.43461" lon="3.44334">
        <ele>27</ele>
        <time>2023-12-19T12:48:11Z</time>
      </trkpt>
      <trkpt lat="43.43462" lon="3.44337">
        <ele>27.200000762939</ele>
        <time>2023-12-19T12:48:12Z</time>
      </trkpt>
      <trkpt lat="43.43462" lon="3.44341">
        <ele>27.60000038147</ele>
        <time>2023-12-19T12:48:13Z</time>
      </trkpt>
      <trkpt lat="43.43462" lon="3.44345">
        <ele>27.799999237061</ele>
        <time>2023-12-19T12:48:14Z</time>
      </trkpt>
      <trkpt lat="43.43464" lon="3.44349">
        <ele>28.200000762939</ele>
        <time>2023-12-19T12:48:15Z</time>
      </trkpt>
      <trkpt lat="43.43465" lon="3.44354">
        <ele>28.39999961853</ele>
        <time>2023-12-19T12:48:16Z</time>
      </trkpt>
      <trkpt lat="43.43466" lon="3.44358">
        <ele>28.799999237061</ele>
        <time>2023-12-19T12:48:17Z</time>
      </trkpt>
      <trkpt lat="43.43466" lon="3.44361">
        <ele>29</ele>
        <time>2023-12-19T12:48:18Z</time>
      </trkpt>
      <trkpt lat="43.43465" lon="3.44365">
        <ele>29.200000762939</ele>
        <time>2023-12-19T12:48:19Z</time>
      </trkpt>
      <trkpt lat="43.43465" lon="3.4437">
        <ele>29.39999961853</ele>
        <time>2023-12-19T12:48:20Z</time>
      </trkpt>
      <trkpt lat="43.43465" lon="3.44374">
        <ele>29.60000038147</ele>
        <time>2023-12-19T12:48:21Z</time>
      </trkpt>
      <trkpt lat="43.43466" lon="3.44378">
        <ele>30</ele>
        <time>2023-12-19T12:48:22Z</time>
      </trkpt>
      <trkpt lat="43.43466" lon="3.44381">
        <ele>30.60000038147</ele>
        <time>2023-12-19T12:48:23Z</time>
      </trkpt>
      <trkpt lat="43.43467" lon="3.44384">
        <ele>31</ele>
        <time>2023-12-19T12:48:24Z</time>
      </trkpt>
      <trkpt lat="43.43468" lon="3.44387">
        <ele>31.39999961853</ele>
        <time>2023-12-19T12:48:25Z</time>
      </trkpt>
      <trkpt lat="43.43469" lon="3.4439">
        <ele>31.799999237061</ele>
        <time>2023-12-19T12:48:26Z</time>
      </trkpt>
      <trkpt lat="43.43469" lon="3.44393">
        <ele>32.200000762939</ele>
        <time>2023-12-19T12:48:27Z</time>
      </trkpt>
      <trkpt lat="43.43469" lon="3.44396">
        <ele>32.599998474121</ele>
        <time>2023-12-19T12:48:28Z</time>
      </trkpt>
      <trkpt lat="43.4347" lon="3.444">
        <ele>32.799999237061</ele>
        <time>2023-12-19T12:48:29Z</time>
      </trkpt>
      <trkpt lat="43.4347" lon="3.44404">
        <ele>32.799999237061</ele>
        <time>2023-12-19T12:48:30Z</time>
      </trkpt>
      <trkpt lat="43.4347" lon="3.44409">
        <ele>32.799999237061</ele>
        <time>2023-12-19T12:48:31Z</time>
      </trkpt>
      <trkpt lat="43.4347" lon="3.44413">
        <ele>32.799999237061</ele>
        <time>2023-12-19T12:48:32Z</time>
      </trkpt>
      <trkpt lat="43.43472" lon="3.44417">
        <ele>32.799999237061</ele>
        <time>2023-12-19T12:48:33Z</time>
      </trkpt>
      <trkpt lat="43.43473" lon="3.44422">
        <ele>32.400001525879</ele>
        <time>2023-12-19T12:48:34Z</time>
      </trkpt>
      <trkpt lat="43.43474" lon="3.44426">
        <ele>32.200000762939</ele>
        <time>2023-12-19T12:48:35Z</time>
      </trkpt>
      <trkpt lat="43.43475" lon="3.4443">
        <ele>32</ele>
        <time>2023-12-19T12:48:36Z</time>
      </trkpt>
      <trkpt lat="43.43476" lon="3.44434">
        <ele>31.799999237061</ele>
        <time>2023-12-19T12:48:37Z</time>
      </trkpt>
      <trkpt lat="43.43476" lon="3.44437">
        <ele>31.60000038147</ele>
        <time>2023-12-19T12:48:38Z</time>
      </trkpt>
      <trkpt lat="43.43477" lon="3.44441">
        <ele>31.60000038147</ele>
        <time>2023-12-19T12:48:39Z</time>
      </trkpt>
      <trkpt lat="43.43478" lon="3.44443">
        <ele>31.39999961853</ele>
        <time>2023-12-19T12:48:40Z</time>
      </trkpt>
      <trkpt lat="43.43478" lon="3.44446">
        <ele>31.39999961853</ele>
        <time>2023-12-19T12:48:41Z</time>
      </trkpt>
      <trkpt lat="43.4348" lon="3.44448">
        <ele>31.39999961853</ele>
        <time>2023-12-19T12:48:42Z</time>
      </trkpt>
      <trkpt lat="43.43481" lon="3.4445">
        <ele>31.39999961853</ele>
        <time>2023-12-19T12:48:43Z</time>
      </trkpt>
      <trkpt lat="43.43482" lon="3.44453">
        <ele>31.39999961853</ele>
        <time>2023-12-19T12:48:44Z</time>
      </trkpt>
      <trkpt lat="43.43484" lon="3.44456">
        <ele>31.60000038147</ele>
        <time>2023-12-19T12:48:45Z</time>
      </trkpt>
      <trkpt lat="43.43484" lon="3.44459">
        <ele>31.799999237061</ele>
        <time>2023-12-19T12:48:46Z</time>
      </trkpt>
      <trkpt lat="43.43485" lon="3.44462">
        <ele>31.799999237061</ele>
        <time>2023-12-19T12:48:47Z</time>
      </trkpt>
      <trkpt lat="43.43486" lon="3.44467">
        <ele>32</ele>
        <time>2023-12-19T12:48:48Z</time>
      </trkpt>
      <trkpt lat="43.43488" lon="3.44472">
        <ele>32.200000762939</ele>
        <time>2023-12-19T12:48:49Z</time>
      </trkpt>
      <trkpt lat="43.4349" lon="3.44476">
        <ele>32.200000762939</ele>
        <time>2023-12-19T12:48:50Z</time>
      </trkpt>
      <trkpt lat="43.43491" lon="3.4448">
        <ele>32.599998474121</ele>
        <time>2023-12-19T12:48:51Z</time>
      </trkpt>
      <trkpt lat="43.43492" lon="3.44483">
        <ele>32.799999237061</ele>
        <time>2023-12-19T12:48:52Z</time>
      </trkpt>
      <trkpt lat="43.43493" lon="3.44486">
        <ele>33.599998474121</ele>
        <time>2023-12-19T12:48:53Z</time>
      </trkpt>
      <trkpt lat="43.43494" lon="3.44488">
        <ele>34</ele>
        <time>2023-12-19T12:48:54Z</time>
      </trkpt>
      <trkpt lat="43.43495" lon="3.44489">
        <ele>34.400001525879</ele>
        <time>2023-12-19T12:48:55Z</time>
      </trkpt>
      <trkpt lat="43.43497" lon="3.44492">
        <ele>34.599998474121</ele>
        <time>2023-12-19T12:48:56Z</time>
      </trkpt>
      <trkpt lat="43.43497" lon="3.44494">
        <ele>35</ele>
        <time>2023-12-19T12:48:57Z</time>
      </trkpt>
      <trkpt lat="43.43499" lon="3.44496">
        <ele>35</ele>
        <time>2023-12-19T12:48:58Z</time>
      </trkpt>
      <trkpt lat="43.435" lon="3.44498">
        <ele>35</ele>
        <time>2023-12-19T12:48:59Z</time>
      </trkpt>
      <trkpt lat="43.43503" lon="3.445">
        <ele>35</ele>
        <time>2023-12-19T12:49:00Z</time>
      </trkpt>
      <trkpt lat="43.43505" lon="3.44501">
        <ele>35</ele>
        <time>2023-12-19T12:49:01Z</time>
      </trkpt>
      <trkpt lat="43.43508" lon="3.44501">
        <ele>34.599998474121</ele>
        <time>2023-12-19T12:49:02Z</time>
      </trkpt>
      <trkpt lat="43.4351" lon="3.44504">
        <ele>34</ele>
        <time>2023-12-19T12:49:03Z</time>
      </trkpt>
      <trkpt lat="43.43512" lon="3.44505">
        <ele>33.799999237061</ele>
        <time>2023-12-19T12:49:04Z</time>
      </trkpt>
      <trkpt lat="43.43514" lon="3.44506">
        <ele>33.799999237061</ele>
        <time>2023-12-19T12:49:05Z</time>
      </trkpt>
      <trkpt lat="43.43516" lon="3.44506">
        <ele>33.799999237061</ele>
        <time>2023-12-19T12:49:06Z</time>
      </trkpt>
      <trkpt lat="43.43518" lon="3.44506">
        <ele>33.799999237061</ele>
        <time>2023-12-19T12:49:07Z</time>
      </trkpt>
      <trkpt lat="43.4352" lon="3.44507">
        <ele>33.799999237061</ele>
        <time>2023-12-19T12:49:08Z</time>
      </trkpt>
      <trkpt lat="43.43522" lon="3.44509">
        <ele>34</ele>
        <time>2023-12-19T12:49:09Z</time>
      </trkpt>
      <trkpt lat="43.43524" lon="3.44512">
        <ele>34</ele>
        <time>2023-12-19T12:49:10Z</time>
      </trkpt>
      <trkpt lat="43.43526" lon="3.44514">
        <ele>34.200000762939</ele>
        <time>2023-12-19T12:49:11Z</time>
      </trkpt>
      <trkpt lat="43.43528" lon="3.44516">
        <ele>34.400001525879</ele>
        <time>2023-12-19T12:49:12Z</time>
      </trkpt>
      <trkpt lat="43.43531" lon="3.4452">
        <ele>34.400001525879</ele>
        <time>2023-12-19T12:49:13Z</time>
      </trkpt>
      <trkpt lat="43.43533" lon="3.44523">
        <ele>34.400001525879</ele>
        <time>2023-12-19T12:49:14Z</time>
      </trkpt>
      <trkpt lat="43.43536" lon="3.44526">
        <ele>34.599998474121</ele>
        <time>2023-12-19T12:49:15Z</time>
      </trkpt>
      <trkpt lat="43.43538" lon="3.44528">
        <ele>34.799999237061</ele>
        <time>2023-12-19T12:49:16Z</time>
      </trkpt>
      <trkpt lat="43.4354" lon="3.4453">
        <ele>34.799999237061</ele>
        <time>2023-12-19T12:49:17Z</time>
      </trkpt>
      <trkpt lat="43.43542" lon="3.44533">
        <ele>35.200000762939</ele>
        <time>2023-12-19T12:49:18Z</time>
      </trkpt>
      <trkpt lat="43.43544" lon="3.44536">
        <ele>35.400001525879</ele>
        <time>2023-12-19T12:49:19Z</time>
      </trkpt>
      <trkpt lat="43.43543" lon="3.44539">
        <ele>35.599998474121</ele>
        <time>2023-12-19T12:49:20Z</time>
      </trkpt>
      <trkpt lat="43.43543" lon="3.44542">
        <ele>36</ele>
        <time>2023-12-19T12:49:21Z</time>
      </trkpt>
      <trkpt lat="43.43543" lon="3.44545">
        <ele>36.200000762939</ele>
        <time>2023-12-19T12:49:22Z</time>
      </trkpt>
      <trkpt lat="43.43544" lon="3.44547">
        <ele>36.400001525879</ele>
        <time>2023-12-19T12:49:23Z</time>
      </trkpt>
      <trkpt lat="43.43546" lon="3.4455">
        <ele>36.599998474121</ele>
        <time>2023-12-19T12:49:24Z</time>
      </trkpt>
      <trkpt lat="43.43548" lon="3.44553">
        <ele>36.799999237061</ele>
        <time>2023-12-19T12:49:25Z</time>
      </trkpt>
      <trkpt lat="43.43549" lon="3.44555">
        <ele>37</ele>
        <time>2023-12-19T12:49:26Z</time>
      </trkpt>
      <trkpt lat="43.4355" lon="3.44559">
        <ele>37.400001525879</ele>
        <time>2023-12-19T12:49:27Z</time>
      </trkpt>
      <trkpt lat="43.4355" lon="3.44562">
        <ele>37.599998474121</ele>
        <time>2023-12-19T12:49:28Z</time>
      </trkpt>
      <trkpt lat="43.43551" lon="3.44566">
        <ele>37.799999237061</ele>
        <time>2023-12-19T12:49:29Z</time>
      </trkpt>
      <trkpt lat="43.43553" lon="3.4457">
        <ele>37.799999237061</ele>
        <time>2023-12-19T12:49:30Z</time>
      </trkpt>
      <trkpt lat="43.43554" lon="3.44574">
        <ele>38</ele>
        <time>2023-12-19T12:49:31Z</time>
      </trkpt>
      <trkpt lat="43.43556" lon="3.44578">
        <ele>38</ele>
        <time>2023-12-19T12:49:32Z</time>
      </trkpt>
      <trkpt lat="43.43557" lon="3.44583">
        <ele>38</ele>
        <time>2023-12-19T12:49:33Z</time>
      </trkpt>
      <trkpt lat="43.43557" lon="3.44588">
        <ele>38</ele>
        <time>2023-12-19T12:49:34Z</time>
      </trkpt>
      <trkpt lat="43.43558" lon="3.44593">
        <ele>37.799999237061</ele>
        <time>2023-12-19T12:49:35Z</time>
      </trkpt>
      <trkpt lat="43.43558" lon="3.44598">
        <ele>37.599998474121</ele>
        <time>2023-12-19T12:49:36Z</time>
      </trkpt>
      <trkpt lat="43.43558" lon="3.44602">
        <ele>37.599998474121</ele>
        <time>2023-12-19T12:49:37Z</time>
      </trkpt>
      <trkpt lat="43.43559" lon="3.44606">
        <ele>37.400001525879</ele>
        <time>2023-12-19T12:49:38Z</time>
      </trkpt>
      <trkpt lat="43.4356" lon="3.44611">
        <ele>37.200000762939</ele>
        <time>2023-12-19T12:49:39Z</time>
      </trkpt>
      <trkpt lat="43.4356" lon="3.44615">
        <ele>37</ele>
        <time>2023-12-19T12:49:40Z</time>
      </trkpt>
      <trkpt lat="43.4356" lon="3.4462">
        <ele>36.799999237061</ele>
        <time>2023-12-19T12:49:41Z</time>
      </trkpt>
      <trkpt lat="43.43559" lon="3.44625">
        <ele>36.599998474121</ele>
        <time>2023-12-19T12:49:42Z</time>
      </trkpt>
      <trkpt lat="43.43558" lon="3.4463">
        <ele>36.400001525879</ele>
        <time>2023-12-19T12:49:43Z</time>
      </trkpt>
      <trkpt lat="43.43556" lon="3.44635">
        <ele>36.200000762939</ele>
        <time>2023-12-19T12:49:44Z</time>
      </trkpt>
      <trkpt lat="43.43555" lon="3.4464">
        <ele>36</ele>
        <time>2023-12-19T12:49:45Z</time>
      </trkpt>
      <trkpt lat="43.43554" lon="3.44645">
        <ele>35.799999237061</ele>
        <time>2023-12-19T12:49:46Z</time>
      </trkpt>
      <trkpt lat="43.43554" lon="3.44649">
        <ele>35.799999237061</ele>
        <time>2023-12-19T12:49:47Z</time>
      </trkpt>
      <trkpt lat="43.43553" lon="3.44652">
        <ele>35.599998474121</ele>
        <time>2023-12-19T12:49:48Z</time>
      </trkpt>
      <trkpt lat="43.43551" lon="3.44654">
        <ele>35.400001525879</ele>
        <time>2023-12-19T12:49:49Z</time>
      </trkpt>
      <trkpt lat="43.4355" lon="3.44657">
        <ele>35.400001525879</ele>
        <time>2023-12-19T12:49:50Z</time>
      </trkpt>
      <trkpt lat="43.43549" lon="3.4466">
        <ele>35.400001525879</ele>
        <time>2023-12-19T12:49:51Z</time>
      </trkpt>
      <trkpt lat="43.43548" lon="3.44665">
        <ele>35.200000762939</ele>
        <time>2023-12-19T12:49:52Z</time>
      </trkpt>
      <trkpt lat="43.43549" lon="3.44669">
        <ele>35</ele>
        <time>2023-12-19T12:49:53Z</time>
      </trkpt>
      <trkpt lat="43.43548" lon="3.44674">
        <ele>34.799999237061</ele>
        <time>2023-12-19T12:49:54Z</time>
      </trkpt>
      <trkpt lat="43.43547" lon="3.44677">
        <ele>34.400001525879</ele>
        <time>2023-12-19T12:49:55Z</time>
      </trkpt>
      <trkpt lat="43.43545" lon="3.4468">
        <ele>33.799999237061</ele>
        <time>2023-12-19T12:49:56Z</time>
      </trkpt>
      <trkpt lat="43.43544" lon="3.44684">
        <ele>33.599998474121</ele>
        <time>2023-12-19T12:49:57Z</time>
      </trkpt>
      <trkpt lat="43.43544" lon="3.44689">
        <ele>33.400001525879</ele>
        <time>2023-12-19T12:49:58Z</time>
      </trkpt>
      <trkpt lat="43.43543" lon="3.44694">
        <ele>33.400001525879</ele>
        <time>2023-12-19T12:49:59Z</time>
      </trkpt>
      <trkpt lat="43.43542" lon="3.44699">
        <ele>33.400001525879</ele>
        <time>2023-12-19T12:50:00Z</time>
      </trkpt>
      <trkpt lat="43.43541" lon="3.44704">
        <ele>33.200000762939</ele>
        <time>2023-12-19T12:50:01Z</time>
      </trkpt>
      <trkpt lat="43.4354" lon="3.44708">
        <ele>33.200000762939</ele>
        <time>2023-12-19T12:50:02Z</time>
      </trkpt>
      <trkpt lat="43.43539" lon="3.44712">
        <ele>33.200000762939</ele>
        <time>2023-12-19T12:50:03Z</time>
      </trkpt>
      <trkpt lat="43.43538" lon="3.44717">
        <ele>33.200000762939</ele>
        <time>2023-12-19T12:50:04Z</time>
      </trkpt>
      <trkpt lat="43.43538" lon="3.44721">
        <ele>33.200000762939</ele>
        <time>2023-12-19T12:50:05Z</time>
      </trkpt>
      <trkpt lat="43.43537" lon="3.44725">
        <ele>33.400001525879</ele>
        <time>2023-12-19T12:50:06Z</time>
      </trkpt>
      <trkpt lat="43.43536" lon="3.44729">
        <ele>33.400001525879</ele>
        <time>2023-12-19T12:50:07Z</time>
      </trkpt>
      <trkpt lat="43.43535" lon="3.44734">
        <ele>33.599998474121</ele>
        <time>2023-12-19T12:50:08Z</time>
      </trkpt>
      <trkpt lat="43.43535" lon="3.44738">
        <ele>33.599998474121</ele>
        <time>2023-12-19T12:50:09Z</time>
      </trkpt>
      <trkpt lat="43.43536" lon="3.44742">
        <ele>33.799999237061</ele>
        <time>2023-12-19T12:50:10Z</time>
      </trkpt>
      <trkpt lat="43.43539" lon="3.44745">
        <ele>33.799999237061</ele>
        <time>2023-12-19T12:50:11Z</time>
      </trkpt>
      <trkpt lat="43.43542" lon="3.44746">
        <ele>34</ele>
        <time>2023-12-19T12:50:12Z</time>
      </trkpt>
      <trkpt lat="43.43544" lon="3.44746">
        <ele>34.200000762939</ele>
        <time>2023-12-19T12:50:13Z</time>
      </trkpt>
      <trkpt lat="43.43545" lon="3.44748">
        <ele>34.200000762939</ele>
        <time>2023-12-19T12:50:14Z</time>
      </trkpt>
      <trkpt lat="43.43547" lon="3.44751">
        <ele>34.200000762939</ele>
        <time>2023-12-19T12:50:15Z</time>
      </trkpt>
      <trkpt lat="43.43548" lon="3.44755">
        <ele>34.200000762939</ele>
        <time>2023-12-19T12:50:16Z</time>
      </trkpt>
      <trkpt lat="43.4355" lon="3.44757">
        <ele>34.200000762939</ele>
        <time>2023-12-19T12:50:17Z</time>
      </trkpt>
      <trkpt lat="43.43552" lon="3.4476">
        <ele>34.200000762939</ele>
        <time>2023-12-19T12:50:18Z</time>
      </trkpt>
      <trkpt lat="43.43554" lon="3.44763">
        <ele>34.200000762939</ele>
        <time>2023-12-19T12:50:19Z</time>
      </trkpt>
      <trkpt lat="43.43554" lon="3.44767">
        <ele>34.200000762939</ele>
        <time>2023-12-19T12:50:20Z</time>
      </trkpt>
      <trkpt lat="43.43554" lon="3.44771">
        <ele>34.400001525879</ele>
        <time>2023-12-19T12:50:21Z</time>
      </trkpt>
      <trkpt lat="43.43554" lon="3.44775">
        <ele>34.599998474121</ele>
        <time>2023-12-19T12:50:22Z</time>
      </trkpt>
      <trkpt lat="43.43553" lon="3.44779">
        <ele>35</ele>
        <time>2023-12-19T12:50:23Z</time>
      </trkpt>
      <trkpt lat="43.43552" lon="3.44783">
        <ele>35.400001525879</ele>
        <time>2023-12-19T12:50:24Z</time>
      </trkpt>
      <trkpt lat="43.43551" lon="3.44787">
        <ele>35.599998474121</ele>
        <time>2023-12-19T12:50:25Z</time>
      </trkpt>
      <trkpt lat="43.43551" lon="3.44791">
        <ele>35.799999237061</ele>
        <time>2023-12-19T12:50:26Z</time>
      </trkpt>
      <trkpt lat="43.4355" lon="3.44796">
        <ele>35.799999237061</ele>
        <time>2023-12-19T12:50:27Z</time>
      </trkpt>
      <trkpt lat="43.43551" lon="3.44801">
        <ele>35.799999237061</ele>
        <time>2023-12-19T12:50:28Z</time>
      </trkpt>
      <trkpt lat="43.43551" lon="3.44805">
        <ele>36</ele>
        <time>2023-12-19T12:50:29Z</time>
      </trkpt>
      <trkpt lat="43.4355" lon="3.4481">
        <ele>36</ele>
        <time>2023-12-19T12:50:30Z</time>
      </trkpt>
      <trkpt lat="43.43549" lon="3.44814">
        <ele>36</ele>
        <time>2023-12-19T12:50:31Z</time>
      </trkpt>
      <trkpt lat="43.43548" lon="3.44817">
        <ele>36.200000762939</ele>
        <time>2023-12-19T12:50:32Z</time>
      </trkpt>
      <trkpt lat="43.43547" lon="3.4482">
        <ele>36.200000762939</ele>
        <time>2023-12-19T12:50:33Z</time>
      </trkpt>
      <trkpt lat="43.43546" lon="3.44824">
        <ele>36.200000762939</ele>
        <time>2023-12-19T12:50:34Z</time>
      </trkpt>
      <trkpt lat="43.43546" lon="3.44828">
        <ele>36.200000762939</ele>
        <time>2023-12-19T12:50:35Z</time>
      </trkpt>
      <trkpt lat="43.43545" lon="3.44831">
        <ele>36.200000762939</ele>
        <time>2023-12-19T12:50:36Z</time>
      </trkpt>
      <trkpt lat="43.43545" lon="3.44835">
        <ele>36.400001525879</ele>
        <time>2023-12-19T12:50:37Z</time>
      </trkpt>
      <trkpt lat="43.43545" lon="3.44839">
        <ele>36.599998474121</ele>
        <time>2023-12-19T12:50:38Z</time>
      </trkpt>
      <trkpt lat="43.43545" lon="3.44843">
        <ele>36.599998474121</ele>
        <time>2023-12-19T12:50:39Z</time>
      </trkpt>
      <trkpt lat="43.43543" lon="3.44847">
        <ele>36.799999237061</ele>
        <time>2023-12-19T12:50:40Z</time>
      </trkpt>
      <trkpt lat="43.43542" lon="3.44851">
        <ele>37</ele>
        <time>2023-12-19T12:50:41Z</time>
      </trkpt>
      <trkpt lat="43.4354" lon="3.44856">
        <ele>37.200000762939</ele>
        <time>2023-12-19T12:50:42Z</time>
      </trkpt>
      <trkpt lat="43.4354" lon="3.44861">
        <ele>37.200000762939</ele>
        <time>2023-12-19T12:50:43Z</time>
      </trkpt>
      <trkpt lat="43.43539" lon="3.44865">
        <ele>37.400001525879</ele>
        <time>2023-12-19T12:50:44Z</time>
      </trkpt>
      <trkpt lat="43.43538" lon="3.4487">
        <ele>37.400001525879</ele>
        <time>2023-12-19T12:50:45Z</time>
      </trkpt>
      <trkpt lat="43.43538" lon="3.44875">
        <ele>37.599998474121</ele>
        <time>2023-12-19T12:50:46Z</time>
      </trkpt>
      <trkpt lat="43.43537" lon="3.44879">
        <ele>37.599998474121</ele>
        <time>2023-12-19T12:50:47Z</time>
      </trkpt>
      <trkpt lat="43.43537" lon="3.44884">
        <ele>37.599998474121</ele>
        <time>2023-12-19T12:50:48Z</time>
      </trkpt>
      <trkpt lat="43.43536" lon="3.44889">
        <ele>37.599998474121</ele>
        <time>2023-12-19T12:50:49Z</time>
      </trkpt>
      <trkpt lat="43.43536" lon="3.44894">
        <ele>37.599998474121</ele>
        <time>2023-12-19T12:50:50Z</time>
      </trkpt>
      <trkpt lat="43.43536" lon="3.44899">
        <ele>37.599998474121</ele>
        <time>2023-12-19T12:50:51Z</time>
      </trkpt>
      <trkpt lat="43.43536" lon="3.44904">
        <ele>37.599998474121</ele>
        <time>2023-12-19T12:50:52Z</time>
      </trkpt>
      <trkpt lat="43.43536" lon="3.44908">
        <ele>37.799999237061</ele>
        <time>2023-12-19T12:50:53Z</time>
      </trkpt>
      <trkpt lat="43.43535" lon="3.44913">
        <ele>37.799999237061</ele>
        <time>2023-12-19T12:50:54Z</time>
      </trkpt>
      <trkpt lat="43.43535" lon="3.44918">
        <ele>37.799999237061</ele>
        <time>2023-12-19T12:50:55Z</time>
      </trkpt>
      <trkpt lat="43.43535" lon="3.44923">
        <ele>38</ele>
        <time>2023-12-19T12:50:56Z</time>
      </trkpt>
      <trkpt lat="43.43535" lon="3.44929">
        <ele>38</ele>
        <time>2023-12-19T12:50:57Z</time>
      </trkpt>
      <trkpt lat="43.43535" lon="3.44933">
        <ele>38</ele>
        <time>2023-12-19T12:50:58Z</time>
      </trkpt>
      <trkpt lat="43.43535" lon="3.44938">
        <ele>38</ele>
        <time>2023-12-19T12:50:59Z</time>
      </trkpt>
      <trkpt lat="43.43535" lon="3.44943">
        <ele>38.200000762939</ele>
        <time>2023-12-19T12:51:00Z</time>
      </trkpt>
      <trkpt lat="43.43535" lon="3.44948">
        <ele>38.200000762939</ele>
        <time>2023-12-19T12:51:01Z</time>
      </trkpt>
      <trkpt lat="43.43535" lon="3.44953">
        <ele>38.200000762939</ele>
        <time>2023-12-19T12:51:02Z</time>
      </trkpt>
      <trkpt lat="43.43535" lon="3.44958">
        <ele>38.200000762939</ele>
        <time>2023-12-19T12:51:03Z</time>
      </trkpt>
      <trkpt lat="43.43535" lon="3.44962">
        <ele>38.400001525879</ele>
        <time>2023-12-19T12:51:04Z</time>
      </trkpt>
      <trkpt lat="43.43535" lon="3.44967">
        <ele>38.400001525879</ele>
        <time>2023-12-19T12:51:05Z</time>
      </trkpt>
      <trkpt lat="43.43535" lon="3.44972">
        <ele>38.400001525879</ele>
        <time>2023-12-19T12:51:06Z</time>
      </trkpt>
      <trkpt lat="43.43535" lon="3.44977">
        <ele>38.599998474121</ele>
        <time>2023-12-19T12:51:07Z</time>
      </trkpt>
      <trkpt lat="43.43535" lon="3.44981">
        <ele>38.599998474121</ele>
        <time>2023-12-19T12:51:08Z</time>
      </trkpt>
      <trkpt lat="43.43535" lon="3.44986">
        <ele>38.799999237061</ele>
        <time>2023-12-19T12:51:09Z</time>
      </trkpt>
      <trkpt lat="43.43535" lon="3.44991">
        <ele>38.799999237061</ele>
        <time>2023-12-19T12:51:10Z</time>
      </trkpt>
      <trkpt lat="43.43534" lon="3.44996">
        <ele>38.799999237061</ele>
        <time>2023-12-19T12:51:11Z</time>
      </trkpt>
      <trkpt lat="43.43534" lon="3.45">
        <ele>39</ele>
        <time>2023-12-19T12:51:12Z</time>
      </trkpt>
      <trkpt lat="43.43534" lon="3.45004">
        <ele>39</ele>
        <time>2023-12-19T12:51:13Z</time>
      </trkpt>
      <trkpt lat="43.43533" lon="3.45009">
        <ele>39.200000762939</ele>
        <time>2023-12-19T12:51:14Z</time>
      </trkpt>
      <trkpt lat="43.43532" lon="3.45013">
        <ele>39.200000762939</ele>
        <time>2023-12-19T12:51:15Z</time>
      </trkpt>
      <trkpt lat="43.43532" lon="3.45017">
        <ele>39.400001525879</ele>
        <time>2023-12-19T12:51:16Z</time>
      </trkpt>
      <trkpt lat="43.43531" lon="3.45022">
        <ele>39.400001525879</ele>
        <time>2023-12-19T12:51:17Z</time>
      </trkpt>
      <trkpt lat="43.43532" lon="3.45027">
        <ele>39.400001525879</ele>
        <time>2023-12-19T12:51:18Z</time>
      </trkpt>
      <trkpt lat="43.43533" lon="3.45031">
        <ele>39.599998474121</ele>
        <time>2023-12-19T12:51:19Z</time>
      </trkpt>
      <trkpt lat="43.43534" lon="3.45034">
        <ele>39.599998474121</ele>
        <time>2023-12-19T12:51:20Z</time>
      </trkpt>
      <trkpt lat="43.43537" lon="3.45037">
        <ele>39.799999237061</ele>
        <time>2023-12-19T12:51:21Z</time>
      </trkpt>
      <trkpt lat="43.4354" lon="3.45038">
        <ele>39.799999237061</ele>
        <time>2023-12-19T12:51:22Z</time>
      </trkpt>
      <trkpt lat="43.43544" lon="3.4504">
        <ele>40</ele>
        <time>2023-12-19T12:51:23Z</time>
      </trkpt>
      <trkpt lat="43.43546" lon="3.45042">
        <ele>40</ele>
        <time>2023-12-19T12:51:24Z</time>
      </trkpt>
      <trkpt lat="43.43549" lon="3.45044">
        <ele>40.200000762939</ele>
        <time>2023-12-19T12:51:25Z</time>
      </trkpt>
      <trkpt lat="43.43552" lon="3.45045">
        <ele>40.599998474121</ele>
        <time>2023-12-19T12:51:26Z</time>
      </trkpt>
      <trkpt lat="43.43555" lon="3.45047">
        <ele>40.799999237061</ele>
        <time>2023-12-19T12:51:27Z</time>
      </trkpt>
      <trkpt lat="43.43558" lon="3.45049">
        <ele>41.200000762939</ele>
        <time>2023-12-19T12:51:28Z</time>
      </trkpt>
      <trkpt lat="43.43561" lon="3.45051">
        <ele>41.400001525879</ele>
        <time>2023-12-19T12:51:29Z</time>
      </trkpt>
      <trkpt lat="43.43563" lon="3.45054">
        <ele>42</ele>
        <time>2023-12-19T12:51:30Z</time>
      </trkpt>
      <trkpt lat="43.43566" lon="3.45057">
        <ele>42.400001525879</ele>
        <time>2023-12-19T12:51:31Z</time>
      </trkpt>
      <trkpt lat="43.43568" lon="3.4506">
        <ele>42.599998474121</ele>
        <time>2023-12-19T12:51:32Z</time>
      </trkpt>
      <trkpt lat="43.43571" lon="3.45062">
        <ele>42.799999237061</ele>
        <time>2023-12-19T12:51:33Z</time>
      </trkpt>
      <trkpt lat="43.43573" lon="3.45065">
        <ele>43</ele>
        <time>2023-12-19T12:51:34Z</time>
      </trkpt>
      <trkpt lat="43.43576" lon="3.45067">
        <ele>43.200000762939</ele>
        <time>2023-12-19T12:51:35Z</time>
      </trkpt>
      <trkpt lat="43.43579" lon="3.45069">
        <ele>43.400001525879</ele>
        <time>2023-12-19T12:51:36Z</time>
      </trkpt>
      <trkpt lat="43.43581" lon="3.45071">
        <ele>43.599998474121</ele>
        <time>2023-12-19T12:51:37Z</time>
      </trkpt>
      <trkpt lat="43.43584" lon="3.45074">
        <ele>44</ele>
        <time>2023-12-19T12:51:38Z</time>
      </trkpt>
      <trkpt lat="43.43586" lon="3.45077">
        <ele>44.400001525879</ele>
        <time>2023-12-19T12:51:39Z</time>
      </trkpt>
      <trkpt lat="43.43589" lon="3.4508">
        <ele>44.799999237061</ele>
        <time>2023-12-19T12:51:40Z</time>
      </trkpt>
      <trkpt lat="43.43591" lon="3.45083">
        <ele>45.200000762939</ele>
        <time>2023-12-19T12:51:41Z</time>
      </trkpt>
      <trkpt lat="43.43593" lon="3.45086">
        <ele>45.599998474121</ele>
        <time>2023-12-19T12:51:42Z</time>
      </trkpt>
      <trkpt lat="43.43595" lon="3.45088">
        <ele>46</ele>
        <time>2023-12-19T12:51:43Z</time>
      </trkpt>
      <trkpt lat="43.43597" lon="3.45091">
        <ele>46.400001525879</ele>
        <time>2023-12-19T12:51:44Z</time>
      </trkpt>
      <trkpt lat="43.43599" lon="3.45095">
        <ele>46.400001525879</ele>
        <time>2023-12-19T12:51:45Z</time>
      </trkpt>
      <trkpt lat="43.436" lon="3.45098">
        <ele>46.599998474121</ele>
        <time>2023-12-19T12:51:46Z</time>
      </trkpt>
      <trkpt lat="43.436" lon="3.45101">
        <ele>46.599998474121</ele>
        <time>2023-12-19T12:51:47Z</time>
      </trkpt>
      <trkpt lat="43.43601" lon="3.45105">
        <ele>46.599998474121</ele>
        <time>2023-12-19T12:51:48Z</time>
      </trkpt>
      <trkpt lat="43.43602" lon="3.45108">
        <ele>46.799999237061</ele>
        <time>2023-12-19T12:51:49Z</time>
      </trkpt>
      <trkpt lat="43.43603" lon="3.45109">
        <ele>46.799999237061</ele>
        <time>2023-12-19T12:51:50Z</time>
      </trkpt>
      <trkpt lat="43.43605" lon="3.45112">
        <ele>47</ele>
        <time>2023-12-19T12:51:51Z</time>
      </trkpt>
      <trkpt lat="43.43607" lon="3.45112">
        <ele>47</ele>
        <time>2023-12-19T12:51:52Z</time>
      </trkpt>
      <trkpt lat="43.4361" lon="3.45113">
        <ele>47</ele>
        <time>2023-12-19T12:51:53Z</time>
      </trkpt>
      <trkpt lat="43.43613" lon="3.45112">
        <ele>47</ele>
        <time>2023-12-19T12:51:54Z</time>
      </trkpt>
      <trkpt lat="43.43616" lon="3.4511">
        <ele>46.799999237061</ele>
        <time>2023-12-19T12:51:55Z</time>
      </trkpt>
      <trkpt lat="43.43619" lon="3.45108">
        <ele>46.799999237061</ele>
        <time>2023-12-19T12:51:56Z</time>
      </trkpt>
      <trkpt lat="43.4362" lon="3.45108">
        <ele>46.599998474121</ele>
        <time>2023-12-19T12:51:57Z</time>
      </trkpt>
      <trkpt lat="43.43621" lon="3.45107">
        <ele>46.200000762939</ele>
        <time>2023-12-19T12:51:58Z</time>
      </trkpt>
      <trkpt lat="43.43621" lon="3.45107">
        <ele>46</ele>
        <time>2023-12-19T12:51:59Z</time>
      </trkpt>
      <trkpt lat="43.43624" lon="3.45105">
        <ele>45.200000762939</ele>
        <time>2023-12-19T12:53:45Z</time>
      </trkpt>
      <trkpt lat="43.43627" lon="3.45106">
        <ele>45.200000762939</ele>
        <time>2023-12-19T12:53:46Z</time>
      </trkpt>
      <trkpt lat="43.43631" lon="3.45106">
        <ele>45.200000762939</ele>
        <time>2023-12-19T12:53:47Z</time>
      </trkpt>
      <trkpt lat="43.43635" lon="3.45106">
        <ele>45.200000762939</ele>
        <time>2023-12-19T12:53:48Z</time>
      </trkpt>
      <trkpt lat="43.4364" lon="3.45106">
        <ele>45.200000762939</ele>
        <time>2023-12-19T12:53:49Z</time>
      </trkpt>
      <trkpt lat="43.43644" lon="3.45106">
        <ele>45</ele>
        <time>2023-12-19T12:53:50Z</time>
      </trkpt>
      <trkpt lat="43.43649" lon="3.45107">
        <ele>44.799999237061</ele>
        <time>2023-12-19T12:53:51Z</time>
      </trkpt>
      <trkpt lat="43.43654" lon="3.45108">
        <ele>44.599998474121</ele>
        <time>2023-12-19T12:53:52Z</time>
      </trkpt>
      <trkpt lat="43.43659" lon="3.4511">
        <ele>44.200000762939</ele>
        <time>2023-12-19T12:53:53Z</time>
      </trkpt>
      <trkpt lat="43.43664" lon="3.45112">
        <ele>44</ele>
        <time>2023-12-19T12:53:54Z</time>
      </trkpt>
      <trkpt lat="43.43668" lon="3.45115">
        <ele>43.599998474121</ele>
        <time>2023-12-19T12:53:55Z</time>
      </trkpt>
      <trkpt lat="43.43671" lon="3.45119">
        <ele>43.200000762939</ele>
        <time>2023-12-19T12:53:56Z</time>
      </trkpt>
      <trkpt lat="43.43675" lon="3.45122">
        <ele>42.799999237061</ele>
        <time>2023-12-19T12:53:57Z</time>
      </trkpt>
      <trkpt lat="43.43677" lon="3.45126">
        <ele>42.400001525879</ele>
        <time>2023-12-19T12:53:58Z</time>
      </trkpt>
      <trkpt lat="43.4368" lon="3.45132">
        <ele>42.200000762939</ele>
        <time>2023-12-19T12:53:59Z</time>
      </trkpt>
      <trkpt lat="43.43682" lon="3.45137">
        <ele>42</ele>
        <time>2023-12-19T12:54:00Z</time>
      </trkpt>
      <trkpt lat="43.43684" lon="3.45143">
        <ele>41.599998474121</ele>
        <time>2023-12-19T12:54:01Z</time>
      </trkpt>
      <trkpt lat="43.43688" lon="3.45149">
        <ele>41.200000762939</ele>
        <time>2023-12-19T12:54:02Z</time>
      </trkpt>
      <trkpt lat="43.43692" lon="3.45156">
        <ele>40.799999237061</ele>
        <time>2023-12-19T12:54:03Z</time>
      </trkpt>
      <trkpt lat="43.43694" lon="3.45163">
        <ele>40.400001525879</ele>
        <time>2023-12-19T12:54:04Z</time>
      </trkpt>
      <trkpt lat="43.43697" lon="3.4517">
        <ele>39.799999237061</ele>
        <time>2023-12-19T12:54:05Z</time>
      </trkpt>
      <trkpt lat="43.43699" lon="3.45177">
        <ele>39.200000762939</ele>
        <time>2023-12-19T12:54:06Z</time>
      </trkpt>
      <trkpt lat="43.437" lon="3.45185">
        <ele>38.599998474121</ele>
        <time>2023-12-19T12:54:07Z</time>
      </trkpt>
      <trkpt lat="43.43701" lon="3.45193">
        <ele>38</ele>
        <time>2023-12-19T12:54:08Z</time>
      </trkpt>
      <trkpt lat="43.43701" lon="3.45201">
        <ele>37.400001525879</ele>
        <time>2023-12-19T12:54:09Z</time>
      </trkpt>
      <trkpt lat="43.43702" lon="3.45206">
        <ele>36.799999237061</ele>
        <time>2023-12-19T12:54:10Z</time>
      </trkpt>
      <trkpt lat="43.43705" lon="3.4521">
        <ele>36.400001525879</ele>
        <time>2023-12-19T12:54:11Z</time>
      </trkpt>
      <trkpt lat="43.43709" lon="3.45211">
        <ele>36.200000762939</ele>
        <time>2023-12-19T12:54:12Z</time>
      </trkpt>
      <trkpt lat="43.43713" lon="3.45211">
        <ele>36</ele>
        <time>2023-12-19T12:54:13Z</time>
      </trkpt>
      <trkpt lat="43.43717" lon="3.45211">
        <ele>35.799999237061</ele>
        <time>2023-12-19T12:54:14Z</time>
      </trkpt>
      <trkpt lat="43.43721" lon="3.45209">
        <ele>35.599998474121</ele>
        <time>2023-12-19T12:54:15Z</time>
      </trkpt>
      <trkpt lat="43.43725" lon="3.45208">
        <ele>35.200000762939</ele>
        <time>2023-12-19T12:54:16Z</time>
      </trkpt>
      <trkpt lat="43.43729" lon="3.45207">
        <ele>35</ele>
        <time>2023-12-19T12:54:17Z</time>
      </trkpt>
      <trkpt lat="43.43732" lon="3.45207">
        <ele>34.400001525879</ele>
        <time>2023-12-19T12:54:18Z</time>
      </trkpt>
      <trkpt lat="43.43734" lon="3.45207">
        <ele>34</ele>
        <time>2023-12-19T12:54:19Z</time>
      </trkpt>
      <trkpt lat="43.43736" lon="3.45206">
        <ele>34</ele>
        <time>2023-12-19T12:54:20Z</time>
      </trkpt>
      <trkpt lat="43.43737" lon="3.45206">
        <ele>34</ele>
        <time>2023-12-19T12:54:21Z</time>
      </trkpt>
      <trkpt lat="43.43738" lon="3.45206">
        <ele>34</ele>
        <time>2023-12-19T12:54:22Z</time>
      </trkpt>
      <trkpt lat="43.4374" lon="3.45206">
        <ele>34</ele>
        <time>2023-12-19T12:54:23Z</time>
      </trkpt>
      <trkpt lat="43.43741" lon="3.45206">
        <ele>34.200000762939</ele>
        <time>2023-12-19T12:54:24Z</time>
      </trkpt>
      <trkpt lat="43.43744" lon="3.45207">
        <ele>34.400001525879</ele>
        <time>2023-12-19T12:54:25Z</time>
      </trkpt>
      <trkpt lat="43.43746" lon="3.4521">
        <ele>34.599998474121</ele>
        <time>2023-12-19T12:54:26Z</time>
      </trkpt>
      <trkpt lat="43.43747" lon="3.45216">
        <ele>34.599998474121</ele>
        <time>2023-12-19T12:54:27Z</time>
      </trkpt>
      <trkpt lat="43.43747" lon="3.4522">
        <ele>34.799999237061</ele>
        <time>2023-12-19T12:54:28Z</time>
      </trkpt>
      <trkpt lat="43.43747" lon="3.45223">
        <ele>34.799999237061</ele>
        <time>2023-12-19T12:54:29Z</time>
      </trkpt>
      <trkpt lat="43.43748" lon="3.45226">
        <ele>34.799999237061</ele>
        <time>2023-12-19T12:54:30Z</time>
      </trkpt>
      <trkpt lat="43.4375" lon="3.45229">
        <ele>34.799999237061</ele>
        <time>2023-12-19T12:54:31Z</time>
      </trkpt>
      <trkpt lat="43.43752" lon="3.45231">
        <ele>35.200000762939</ele>
        <time>2023-12-19T12:54:32Z</time>
      </trkpt>
      <trkpt lat="43.43755" lon="3.45233">
        <ele>36</ele>
        <time>2023-12-19T12:54:33Z</time>
      </trkpt>
      <trkpt lat="43.43758" lon="3.45234">
        <ele>36.400001525879</ele>
        <time>2023-12-19T12:54:34Z</time>
      </trkpt>
      <trkpt lat="43.4376" lon="3.45235">
        <ele>36.799999237061</ele>
        <time>2023-12-19T12:54:35Z</time>
      </trkpt>
      <trkpt lat="43.43763" lon="3.45236">
        <ele>37</ele>
        <time>2023-12-19T12:54:36Z</time>
      </trkpt>
      <trkpt lat="43.43765" lon="3.45236">
        <ele>37.400001525879</ele>
        <time>2023-12-19T12:54:37Z</time>
      </trkpt>
      <trkpt lat="43.43767" lon="3.45237">
        <ele>37.799999237061</ele>
        <time>2023-12-19T12:54:38Z</time>
      </trkpt>
      <trkpt lat="43.4377" lon="3.45238">
        <ele>38.400001525879</ele>
        <time>2023-12-19T12:54:39Z</time>
      </trkpt>
      <trkpt lat="43.43774" lon="3.45238">
        <ele>38.799999237061</ele>
        <time>2023-12-19T12:54:40Z</time>
      </trkpt>
      <trkpt lat="43.43776" lon="3.45238">
        <ele>39.400001525879</ele>
        <time>2023-12-19T12:54:41Z</time>
      </trkpt>
      <trkpt lat="43.43778" lon="3.45238">
        <ele>39.799999237061</ele>
        <time>2023-12-19T12:54:42Z</time>
      </trkpt>
      <trkpt lat="43.43779" lon="3.45239">
        <ele>40.400001525879</ele>
        <time>2023-12-19T12:54:43Z</time>
      </trkpt>
      <trkpt lat="43.43781" lon="3.4524">
        <ele>41.599998474121</ele>
        <time>2023-12-19T12:54:44Z</time>
      </trkpt>
      <trkpt lat="43.43782" lon="3.45242">
        <ele>42</ele>
        <time>2023-12-19T12:54:45Z</time>
      </trkpt>
      <trkpt lat="43.43784" lon="3.45243">
        <ele>42.400001525879</ele>
        <time>2023-12-19T12:54:46Z</time>
      </trkpt>
      <trkpt lat="43.43785" lon="3.45246">
        <ele>42.799999237061</ele>
        <time>2023-12-19T12:54:47Z</time>
      </trkpt>
      <trkpt lat="43.43786" lon="3.45249">
        <ele>43</ele>
        <time>2023-12-19T12:54:48Z</time>
      </trkpt>
      <trkpt lat="43.43787" lon="3.45252">
        <ele>43.200000762939</ele>
        <time>2023-12-19T12:54:49Z</time>
      </trkpt>
      <trkpt lat="43.43788" lon="3.45253">
        <ele>43.400001525879</ele>
        <time>2023-12-19T12:54:50Z</time>
      </trkpt>
      <trkpt lat="43.4379" lon="3.45255">
        <ele>43.400001525879</ele>
        <time>2023-12-19T12:54:51Z</time>
      </trkpt>
      <trkpt lat="43.43792" lon="3.45257">
        <ele>43.599998474121</ele>
        <time>2023-12-19T12:54:52Z</time>
      </trkpt>
      <trkpt lat="43.43794" lon="3.45259">
        <ele>43.599998474121</ele>
        <time>2023-12-19T12:54:53Z</time>
      </trkpt>
      <trkpt lat="43.43795" lon="3.45262">
        <ele>43.799999237061</ele>
        <time>2023-12-19T12:54:54Z</time>
      </trkpt>
      <trkpt lat="43.43796" lon="3.45265">
        <ele>44</ele>
        <time>2023-12-19T12:54:55Z</time>
      </trkpt>
      <trkpt lat="43.43798" lon="3.45268">
        <ele>44.200000762939</ele>
        <time>2023-12-19T12:54:56Z</time>
      </trkpt>
      <trkpt lat="43.43799" lon="3.45271">
        <ele>44.200000762939</ele>
        <time>2023-12-19T12:54:57Z</time>
      </trkpt>
      <trkpt lat="43.43801" lon="3.45273">
        <ele>44.400001525879</ele>
        <time>2023-12-19T12:54:58Z</time>
      </trkpt>
      <trkpt lat="43.43804" lon="3.45275">
        <ele>44.599998474121</ele>
        <time>2023-12-19T12:54:59Z</time>
      </trkpt>
      <trkpt lat="43.43806" lon="3.45276">
        <ele>44.599998474121</ele>
        <time>2023-12-19T12:55:00Z</time>
      </trkpt>
      <trkpt lat="43.43809" lon="3.45278">
        <ele>44.799999237061</ele>
        <time>2023-12-19T12:55:01Z</time>
      </trkpt>
      <trkpt lat="43.43811" lon="3.45279">
        <ele>44.799999237061</ele>
        <time>2023-12-19T12:55:02Z</time>
      </trkpt>
      <trkpt lat="43.43814" lon="3.45282">
        <ele>45</ele>
        <time>2023-12-19T12:55:03Z</time>
      </trkpt>
      <trkpt lat="43.43816" lon="3.45284">
        <ele>45.200000762939</ele>
        <time>2023-12-19T12:55:04Z</time>
      </trkpt>
      <trkpt lat="43.43818" lon="3.45285">
        <ele>45.599998474121</ele>
        <time>2023-12-19T12:55:05Z</time>
      </trkpt>
      <trkpt lat="43.4382" lon="3.45287">
        <ele>45.799999237061</ele>
        <time>2023-12-19T12:55:06Z</time>
      </trkpt>
      <trkpt lat="43.43823" lon="3.45289">
        <ele>46</ele>
        <time>2023-12-19T12:55:07Z</time>
      </trkpt>
      <trkpt lat="43.43825" lon="3.4529">
        <ele>46.400001525879</ele>
        <time>2023-12-19T12:55:08Z</time>
      </trkpt>
      <trkpt lat="43.43828" lon="3.45292">
        <ele>46.599998474121</ele>
        <time>2023-12-19T12:55:09Z</time>
      </trkpt>
      <trkpt lat="43.4383" lon="3.45294">
        <ele>47</ele>
        <time>2023-12-19T12:55:10Z</time>
      </trkpt>
      <trkpt lat="43.43832" lon="3.45295">
        <ele>47.400001525879</ele>
        <time>2023-12-19T12:55:11Z</time>
      </trkpt>
      <trkpt lat="43.43835" lon="3.45296">
        <ele>47.799999237061</ele>
        <time>2023-12-19T12:55:12Z</time>
      </trkpt>
      <trkpt lat="43.43837" lon="3.45297">
        <ele>48</ele>
        <time>2023-12-19T12:55:13Z</time>
      </trkpt>
      <trkpt lat="43.43839" lon="3.45299">
        <ele>48.400001525879</ele>
        <time>2023-12-19T12:55:14Z</time>
      </trkpt>
      <trkpt lat="43.43841" lon="3.45301">
        <ele>48.799999237061</ele>
        <time>2023-12-19T12:55:15Z</time>
      </trkpt>
      <trkpt lat="43.43843" lon="3.45302">
        <ele>49</ele>
        <time>2023-12-19T12:55:16Z</time>
      </trkpt>
      <trkpt lat="43.43844" lon="3.45304">
        <ele>49.200000762939</ele>
        <time>2023-12-19T12:55:17Z</time>
      </trkpt>
      <trkpt lat="43.43846" lon="3.45305">
        <ele>49.400001525879</ele>
        <time>2023-12-19T12:55:18Z</time>
      </trkpt>
      <trkpt lat="43.43848" lon="3.45307">
        <ele>49.599998474121</ele>
        <time>2023-12-19T12:55:19Z</time>
      </trkpt>
      <trkpt lat="43.4385" lon="3.45308">
        <ele>50</ele>
        <time>2023-12-19T12:55:20Z</time>
      </trkpt>
      <trkpt lat="43.43852" lon="3.45309">
        <ele>50.200000762939</ele>
        <time>2023-12-19T12:55:21Z</time>
      </trkpt>
      <trkpt lat="43.43854" lon="3.4531">
        <ele>50.400001525879</ele>
        <time>2023-12-19T12:55:22Z</time>
      </trkpt>
      <trkpt lat="43.43856" lon="3.45311">
        <ele>50.599998474121</ele>
        <time>2023-12-19T12:55:23Z</time>
      </trkpt>
      <trkpt lat="43.43858" lon="3.45312">
        <ele>50.799999237061</ele>
        <time>2023-12-19T12:55:24Z</time>
      </trkpt>
      <trkpt lat="43.43861" lon="3.45312">
        <ele>51</ele>
        <time>2023-12-19T12:55:25Z</time>
      </trkpt>
      <trkpt lat="43.43863" lon="3.45311">
        <ele>51.400001525879</ele>
        <time>2023-12-19T12:55:26Z</time>
      </trkpt>
      <trkpt lat="43.43865" lon="3.4531">
        <ele>51.599998474121</ele>
        <time>2023-12-19T12:55:27Z</time>
      </trkpt>
      <trkpt lat="43.43867" lon="3.45309">
        <ele>52</ele>
        <time>2023-12-19T12:55:28Z</time>
      </trkpt>
      <trkpt lat="43.43868" lon="3.45309">
        <ele>52.400001525879</ele>
        <time>2023-12-19T12:55:29Z</time>
      </trkpt>
      <trkpt lat="43.4387" lon="3.45309">
        <ele>52.599998474121</ele>
        <time>2023-12-19T12:55:30Z</time>
      </trkpt>
      <trkpt lat="43.43872" lon="3.4531">
        <ele>52.799999237061</ele>
        <time>2023-12-19T12:55:31Z</time>
      </trkpt>
      <trkpt lat="43.43874" lon="3.45312">
        <ele>53.200000762939</ele>
        <time>2023-12-19T12:55:32Z</time>
      </trkpt>
      <trkpt lat="43.43876" lon="3.45312">
        <ele>53.400001525879</ele>
        <time>2023-12-19T12:55:33Z</time>
      </trkpt>
      <trkpt lat="43.43877" lon="3.45313">
        <ele>53.799999237061</ele>
        <time>2023-12-19T12:55:34Z</time>
      </trkpt>
      <trkpt lat="43.43879" lon="3.45314">
        <ele>54</ele>
        <time>2023-12-19T12:55:35Z</time>
      </trkpt>
      <trkpt lat="43.4388" lon="3.45316">
        <ele>54.200000762939</ele>
        <time>2023-12-19T12:55:36Z</time>
      </trkpt>
      <trkpt lat="43.43882" lon="3.45319">
        <ele>54.400001525879</ele>
        <time>2023-12-19T12:55:37Z</time>
      </trkpt>
      <trkpt lat="43.43883" lon="3.4532">
        <ele>54.599998474121</ele>
        <time>2023-12-19T12:55:38Z</time>
      </trkpt>
      <trkpt lat="43.43885" lon="3.45323">
        <ele>55</ele>
        <time>2023-12-19T12:55:39Z</time>
      </trkpt>
      <trkpt lat="43.43887" lon="3.45325">
        <ele>55.200000762939</ele>
        <time>2023-12-19T12:55:40Z</time>
      </trkpt>
      <trkpt lat="43.43889" lon="3.45327">
        <ele>55.400001525879</ele>
        <time>2023-12-19T12:55:41Z</time>
      </trkpt>
      <trkpt lat="43.4389" lon="3.45329">
        <ele>55.799999237061</ele>
        <time>2023-12-19T12:55:42Z</time>
      </trkpt>
      <trkpt lat="43.43892" lon="3.45332">
        <ele>56</ele>
        <time>2023-12-19T12:55:43Z</time>
      </trkpt>
      <trkpt lat="43.43893" lon="3.45334">
        <ele>56.200000762939</ele>
        <time>2023-12-19T12:55:44Z</time>
      </trkpt>
      <trkpt lat="43.43895" lon="3.45336">
        <ele>56.400001525879</ele>
        <time>2023-12-19T12:55:45Z</time>
      </trkpt>
      <trkpt lat="43.43897" lon="3.45337">
        <ele>56.599998474121</ele>
        <time>2023-12-19T12:55:46Z</time>
      </trkpt>
      <trkpt lat="43.43899" lon="3.45337">
        <ele>56.799999237061</ele>
        <time>2023-12-19T12:55:47Z</time>
      </trkpt>
      <trkpt lat="43.43901" lon="3.45338">
        <ele>57</ele>
        <time>2023-12-19T12:55:48Z</time>
      </trkpt>
      <trkpt lat="43.43902" lon="3.45338">
        <ele>57</ele>
        <time>2023-12-19T12:55:49Z</time>
      </trkpt>
      <trkpt lat="43.43905" lon="3.4534">
        <ele>57.200000762939</ele>
        <time>2023-12-19T12:55:50Z</time>
      </trkpt>
      <trkpt lat="43.43906" lon="3.45342">
        <ele>57.400001525879</ele>
        <time>2023-12-19T12:55:51Z</time>
      </trkpt>
      <trkpt lat="43.43908" lon="3.45343">
        <ele>57.799999237061</ele>
        <time>2023-12-19T12:55:52Z</time>
      </trkpt>
      <trkpt lat="43.4391" lon="3.45344">
        <ele>58</ele>
        <time>2023-12-19T12:55:53Z</time>
      </trkpt>
      <trkpt lat="43.43912" lon="3.45346">
        <ele>58.200000762939</ele>
        <time>2023-12-19T12:55:54Z</time>
      </trkpt>
      <trkpt lat="43.43913" lon="3.45346">
        <ele>58.400001525879</ele>
        <time>2023-12-19T12:55:55Z</time>
      </trkpt>
      <trkpt lat="43.43915" lon="3.45347">
        <ele>58.599998474121</ele>
        <time>2023-12-19T12:55:56Z</time>
      </trkpt>
      <trkpt lat="43.43916" lon="3.4535">
        <ele>58.799999237061</ele>
        <time>2023-12-19T12:55:57Z</time>
      </trkpt>
      <trkpt lat="43.43918" lon="3.45352">
        <ele>58.799999237061</ele>
        <time>2023-12-19T12:55:58Z</time>
      </trkpt>
      <trkpt lat="43.43919" lon="3.45354">
        <ele>59</ele>
        <time>2023-12-19T12:55:59Z</time>
      </trkpt>
      <trkpt lat="43.43921" lon="3.45356">
        <ele>59.200000762939</ele>
        <time>2023-12-19T12:56:00Z</time>
      </trkpt>
      <trkpt lat="43.43922" lon="3.45358">
        <ele>59.400001525879</ele>
        <time>2023-12-19T12:56:01Z</time>
      </trkpt>
      <trkpt lat="43.43923" lon="3.45361">
        <ele>59.599998474121</ele>
        <time>2023-12-19T12:56:02Z</time>
      </trkpt>
      <trkpt lat="43.43923" lon="3.45364">
        <ele>59.799999237061</ele>
        <time>2023-12-19T12:56:03Z</time>
      </trkpt>
      <trkpt lat="43.43924" lon="3.45366">
        <ele>59.799999237061</ele>
        <time>2023-12-19T12:56:04Z</time>
      </trkpt>
      <trkpt lat="43.43926" lon="3.45368">
        <ele>60</ele>
        <time>2023-12-19T12:56:05Z</time>
      </trkpt>
      <trkpt lat="43.43927" lon="3.45369">
        <ele>60</ele>
        <time>2023-12-19T12:56:06Z</time>
      </trkpt>
      <trkpt lat="43.43929" lon="3.45371">
        <ele>60.200000762939</ele>
        <time>2023-12-19T12:56:07Z</time>
      </trkpt>
      <trkpt lat="43.43931" lon="3.45372">
        <ele>60.400001525879</ele>
        <time>2023-12-19T12:56:08Z</time>
      </trkpt>
      <trkpt lat="43.43933" lon="3.45372">
        <ele>60.400001525879</ele>
        <time>2023-12-19T12:56:09Z</time>
      </trkpt>
      <trkpt lat="43.43935" lon="3.45372">
        <ele>60.400001525879</ele>
        <time>2023-12-19T12:56:10Z</time>
      </trkpt>
      <trkpt lat="43.43937" lon="3.45372">
        <ele>60.599998474121</ele>
        <time>2023-12-19T12:56:11Z</time>
      </trkpt>
      <trkpt lat="43.43939" lon="3.45372">
        <ele>61</ele>
        <time>2023-12-19T12:56:12Z</time>
      </trkpt>
      <trkpt lat="43.43941" lon="3.45373">
        <ele>61.200000762939</ele>
        <time>2023-12-19T12:56:13Z</time>
      </trkpt>
      <trkpt lat="43.43943" lon="3.45374">
        <ele>61.400001525879</ele>
        <time>2023-12-19T12:56:14Z</time>
      </trkpt>
      <trkpt lat="43.43945" lon="3.45375">
        <ele>61.599998474121</ele>
        <time>2023-12-19T12:56:15Z</time>
      </trkpt>
      <trkpt lat="43.43947" lon="3.45376">
        <ele>62</ele>
        <time>2023-12-19T12:56:16Z</time>
      </trkpt>
      <trkpt lat="43.43949" lon="3.45378">
        <ele>62.200000762939</ele>
        <time>2023-12-19T12:56:17Z</time>
      </trkpt>
      <trkpt lat="43.4395" lon="3.45379">
        <ele>62.400001525879</ele>
        <time>2023-12-19T12:56:18Z</time>
      </trkpt>
      <trkpt lat="43.43952" lon="3.45381">
        <ele>62.799999237061</ele>
        <time>2023-12-19T12:56:19Z</time>
      </trkpt>
      <trkpt lat="43.43954" lon="3.45383">
        <ele>63</ele>
        <time>2023-12-19T12:56:20Z</time>
      </trkpt>
      <trkpt lat="43.43955" lon="3.45384">
        <ele>63.200000762939</ele>
        <time>2023-12-19T12:56:21Z</time>
      </trkpt>
      <trkpt lat="43.43957" lon="3.45386">
        <ele>63.599998474121</ele>
        <time>2023-12-19T12:56:22Z</time>
      </trkpt>
      <trkpt lat="43.43959" lon="3.45387">
        <ele>63.799999237061</ele>
        <time>2023-12-19T12:56:23Z</time>
      </trkpt>
      <trkpt lat="43.4396" lon="3.45389">
        <ele>63.799999237061</ele>
        <time>2023-12-19T12:56:24Z</time>
      </trkpt>
      <trkpt lat="43.43961" lon="3.45391">
        <ele>64</ele>
        <time>2023-12-19T12:56:25Z</time>
      </trkpt>
      <trkpt lat="43.43963" lon="3.45392">
        <ele>64.199996948242</ele>
        <time>2023-12-19T12:56:26Z</time>
      </trkpt>
      <trkpt lat="43.43964" lon="3.45394">
        <ele>64.199996948242</ele>
        <time>2023-12-19T12:56:27Z</time>
      </trkpt>
      <trkpt lat="43.43965" lon="3.45395">
        <ele>64.199996948242</ele>
        <time>2023-12-19T12:56:28Z</time>
      </trkpt>
      <trkpt lat="43.43967" lon="3.45396">
        <ele>64.400001525879</ele>
        <time>2023-12-19T12:56:29Z</time>
      </trkpt>
      <trkpt lat="43.43969" lon="3.45398">
        <ele>64.599998474121</ele>
        <time>2023-12-19T12:56:30Z</time>
      </trkpt>
      <trkpt lat="43.4397" lon="3.45399">
        <ele>64.599998474121</ele>
        <time>2023-12-19T12:56:31Z</time>
      </trkpt>
      <trkpt lat="43.43972" lon="3.45401">
        <ele>64.599998474121</ele>
        <time>2023-12-19T12:56:32Z</time>
      </trkpt>
      <trkpt lat="43.43973" lon="3.45404">
        <ele>64.800003051758</ele>
        <time>2023-12-19T12:56:33Z</time>
      </trkpt>
      <trkpt lat="43.43974" lon="3.45406">
        <ele>64.800003051758</ele>
        <time>2023-12-19T12:56:34Z</time>
      </trkpt>
      <trkpt lat="43.43974" lon="3.45408">
        <ele>65</ele>
        <time>2023-12-19T12:56:35Z</time>
      </trkpt>
      <trkpt lat="43.43974" lon="3.45411">
        <ele>65</ele>
        <time>2023-12-19T12:56:36Z</time>
      </trkpt>
      <trkpt lat="43.43975" lon="3.45414">
        <ele>65</ele>
        <time>2023-12-19T12:56:37Z</time>
      </trkpt>
      <trkpt lat="43.43976" lon="3.45416">
        <ele>65.199996948242</ele>
        <time>2023-12-19T12:56:38Z</time>
      </trkpt>
      <trkpt lat="43.43977" lon="3.45419">
        <ele>65.199996948242</ele>
        <time>2023-12-19T12:56:39Z</time>
      </trkpt>
      <trkpt lat="43.43978" lon="3.45422">
        <ele>65.199996948242</ele>
        <time>2023-12-19T12:56:40Z</time>
      </trkpt>
      <trkpt lat="43.4398" lon="3.45424">
        <ele>65.199996948242</ele>
        <time>2023-12-19T12:56:41Z</time>
      </trkpt>
      <trkpt lat="43.43982" lon="3.45426">
        <ele>65.199996948242</ele>
        <time>2023-12-19T12:56:42Z</time>
      </trkpt>
      <trkpt lat="43.43984" lon="3.45427">
        <ele>65.199996948242</ele>
        <time>2023-12-19T12:56:43Z</time>
      </trkpt>
      <trkpt lat="43.43985" lon="3.45428">
        <ele>65.199996948242</ele>
        <time>2023-12-19T12:56:44Z</time>
      </trkpt>
      <trkpt lat="43.43987" lon="3.45429">
        <ele>65.199996948242</ele>
        <time>2023-12-19T12:56:45Z</time>
      </trkpt>
      <trkpt lat="43.43989" lon="3.4543">
        <ele>65.199996948242</ele>
        <time>2023-12-19T12:56:46Z</time>
      </trkpt>
      <trkpt lat="43.4399" lon="3.45432">
        <ele>65.400001525879</ele>
        <time>2023-12-19T12:56:47Z</time>
      </trkpt>
      <trkpt lat="43.43992" lon="3.45433">
        <ele>65.599998474121</ele>
        <time>2023-12-19T12:56:48Z</time>
      </trkpt>
      <trkpt lat="43.43993" lon="3.45436">
        <ele>65.800003051758</ele>
        <time>2023-12-19T12:56:49Z</time>
      </trkpt>
      <trkpt lat="43.43995" lon="3.45437">
        <ele>66</ele>
        <time>2023-12-19T12:56:50Z</time>
      </trkpt>
      <trkpt lat="43.43996" lon="3.45439">
        <ele>66.400001525879</ele>
        <time>2023-12-19T12:56:51Z</time>
      </trkpt>
      <trkpt lat="43.43998" lon="3.45442">
        <ele>66.599998474121</ele>
        <time>2023-12-19T12:56:52Z</time>
      </trkpt>
      <trkpt lat="43.43999" lon="3.45445">
        <ele>67</ele>
        <time>2023-12-19T12:56:53Z</time>
      </trkpt>
      <trkpt lat="43.43999" lon="3.45448">
        <ele>67.199996948242</ele>
        <time>2023-12-19T12:56:54Z</time>
      </trkpt>
      <trkpt lat="43.43999" lon="3.4545">
        <ele>67.400001525879</ele>
        <time>2023-12-19T12:56:55Z</time>
      </trkpt>
      <trkpt lat="43.44001" lon="3.45452">
        <ele>67.400001525879</ele>
        <time>2023-12-19T12:56:56Z</time>
      </trkpt>
      <trkpt lat="43.44003" lon="3.45453">
        <ele>67.599998474121</ele>
        <time>2023-12-19T12:56:57Z</time>
      </trkpt>
      <trkpt lat="43.44005" lon="3.45454">
        <ele>67.599998474121</ele>
        <time>2023-12-19T12:56:58Z</time>
      </trkpt>
      <trkpt lat="43.44007" lon="3.45454">
        <ele>67.800003051758</ele>
        <time>2023-12-19T12:56:59Z</time>
      </trkpt>
      <trkpt lat="43.44009" lon="3.45456">
        <ele>68</ele>
        <time>2023-12-19T12:57:00Z</time>
      </trkpt>
      <trkpt lat="43.44011" lon="3.45458">
        <ele>68.199996948242</ele>
        <time>2023-12-19T12:57:01Z</time>
      </trkpt>
      <trkpt lat="43.44013" lon="3.4546">
        <ele>68.199996948242</ele>
        <time>2023-12-19T12:57:02Z</time>
      </trkpt>
      <trkpt lat="43.44014" lon="3.4546">
        <ele>68.400001525879</ele>
        <time>2023-12-19T12:57:03Z</time>
      </trkpt>
      <trkpt lat="43.44016" lon="3.45462">
        <ele>68.599998474121</ele>
        <time>2023-12-19T12:57:04Z</time>
      </trkpt>
      <trkpt lat="43.44016" lon="3.45464">
        <ele>68.800003051758</ele>
        <time>2023-12-19T12:57:05Z</time>
      </trkpt>
      <trkpt lat="43.44017" lon="3.45466">
        <ele>69</ele>
        <time>2023-12-19T12:57:06Z</time>
      </trkpt>
      <trkpt lat="43.44018" lon="3.45468">
        <ele>69.199996948242</ele>
        <time>2023-12-19T12:57:07Z</time>
      </trkpt>
      <trkpt lat="43.4402" lon="3.4547">
        <ele>69.400001525879</ele>
        <time>2023-12-19T12:57:08Z</time>
      </trkpt>
      <trkpt lat="43.44022" lon="3.4547">
        <ele>69.599998474121</ele>
        <time>2023-12-19T12:57:09Z</time>
      </trkpt>
      <trkpt lat="43.44024" lon="3.45471">
        <ele>69.800003051758</ele>
        <time>2023-12-19T12:57:10Z</time>
      </trkpt>
      <trkpt lat="43.44026" lon="3.45473">
        <ele>70</ele>
        <time>2023-12-19T12:57:11Z</time>
      </trkpt>
      <trkpt lat="43.44028" lon="3.45475">
        <ele>70.199996948242</ele>
        <time>2023-12-19T12:57:12Z</time>
      </trkpt>
      <trkpt lat="43.44029" lon="3.45477">
        <ele>70.199996948242</ele>
        <time>2023-12-19T12:57:13Z</time>
      </trkpt>
      <trkpt lat="43.4403" lon="3.45479">
        <ele>70.599998474121</ele>
        <time>2023-12-19T12:57:14Z</time>
      </trkpt>
      <trkpt lat="43.44031" lon="3.45481">
        <ele>70.800003051758</ele>
        <time>2023-12-19T12:57:15Z</time>
      </trkpt>
      <trkpt lat="43.44032" lon="3.45483">
        <ele>71.199996948242</ele>
        <time>2023-12-19T12:57:16Z</time>
      </trkpt>
      <trkpt lat="43.44034" lon="3.45485">
        <ele>71.599998474121</ele>
        <time>2023-12-19T12:57:17Z</time>
      </trkpt>
      <trkpt lat="43.44036" lon="3.45487">
        <ele>72</ele>
        <time>2023-12-19T12:57:18Z</time>
      </trkpt>
      <trkpt lat="43.44037" lon="3.4549">
        <ele>72.199996948242</ele>
        <time>2023-12-19T12:57:19Z</time>
      </trkpt>
      <trkpt lat="43.44038" lon="3.45492">
        <ele>72.400001525879</ele>
        <time>2023-12-19T12:57:20Z</time>
      </trkpt>
      <trkpt lat="43.44039" lon="3.45495">
        <ele>72.599998474121</ele>
        <time>2023-12-19T12:57:21Z</time>
      </trkpt>
      <trkpt lat="43.44041" lon="3.45497">
        <ele>72.599998474121</ele>
        <time>2023-12-19T12:57:22Z</time>
      </trkpt>
      <trkpt lat="43.44042" lon="3.45501">
        <ele>72.599998474121</ele>
        <time>2023-12-19T12:57:23Z</time>
      </trkpt>
      <trkpt lat="43.44042" lon="3.45504">
        <ele>72.599998474121</ele>
        <time>2023-12-19T12:57:24Z</time>
      </trkpt>
      <trkpt lat="43.44043" lon="3.45508">
        <ele>72.599998474121</ele>
        <time>2023-12-19T12:57:25Z</time>
      </trkpt>
      <trkpt lat="43.44043" lon="3.45512">
        <ele>72.400001525879</ele>
        <time>2023-12-19T12:57:26Z</time>
      </trkpt>
      <trkpt lat="43.44044" lon="3.45516">
        <ele>72.199996948242</ele>
        <time>2023-12-19T12:57:27Z</time>
      </trkpt>
      <trkpt lat="43.44044" lon="3.4552">
        <ele>71.800003051758</ele>
        <time>2023-12-19T12:57:28Z</time>
      </trkpt>
      <trkpt lat="43.44045" lon="3.45524">
        <ele>71.400001525879</ele>
        <time>2023-12-19T12:57:29Z</time>
      </trkpt>
      <trkpt lat="43.44046" lon="3.45528">
        <ele>71</ele>
        <time>2023-12-19T12:57:30Z</time>
      </trkpt>
      <trkpt lat="43.44046" lon="3.45532">
        <ele>70.599998474121</ele>
        <time>2023-12-19T12:57:31Z</time>
      </trkpt>
      <trkpt lat="43.44047" lon="3.45535">
        <ele>70.199996948242</ele>
        <time>2023-12-19T12:57:32Z</time>
      </trkpt>
      <trkpt lat="43.44048" lon="3.45538">
        <ele>69.599998474121</ele>
        <time>2023-12-19T12:57:33Z</time>
      </trkpt>
      <trkpt lat="43.44048" lon="3.45543">
        <ele>69.199996948242</ele>
        <time>2023-12-19T12:57:34Z</time>
      </trkpt>
      <trkpt lat="43.4405" lon="3.45549">
        <ele>68.800003051758</ele>
        <time>2023-12-19T12:57:35Z</time>
      </trkpt>
      <trkpt lat="43.44052" lon="3.45556">
        <ele>68.400001525879</ele>
        <time>2023-12-19T12:57:36Z</time>
      </trkpt>
      <trkpt lat="43.44053" lon="3.45562">
        <ele>67.800003051758</ele>
        <time>2023-12-19T12:57:37Z</time>
      </trkpt>
      <trkpt lat="43.44054" lon="3.45569">
        <ele>67.199996948242</ele>
        <time>2023-12-19T12:57:38Z</time>
      </trkpt>
      <trkpt lat="43.44055" lon="3.45574">
        <ele>66.400001525879</ele>
        <time>2023-12-19T12:57:39Z</time>
      </trkpt>
      <trkpt lat="43.44055" lon="3.45579">
        <ele>65.800003051758</ele>
        <time>2023-12-19T12:57:40Z</time>
      </trkpt>
      <trkpt lat="43.44057" lon="3.45582">
        <ele>65</ele>
        <time>2023-12-19T12:57:41Z</time>
      </trkpt>
      <trkpt lat="43.44058" lon="3.45587">
        <ele>64.400001525879</ele>
        <time>2023-12-19T12:57:42Z</time>
      </trkpt>
      <trkpt lat="43.4406" lon="3.45591">
        <ele>63.799999237061</ele>
        <time>2023-12-19T12:57:43Z</time>
      </trkpt>
      <trkpt lat="43.44061" lon="3.45595">
        <ele>63.400001525879</ele>
        <time>2023-12-19T12:57:44Z</time>
      </trkpt>
      <trkpt lat="43.44062" lon="3.45598">
        <ele>63</ele>
        <time>2023-12-19T12:57:45Z</time>
      </trkpt>
      <trkpt lat="43.44063" lon="3.45602">
        <ele>62.400001525879</ele>
        <time>2023-12-19T12:57:46Z</time>
      </trkpt>
      <trkpt lat="43.44064" lon="3.45606">
        <ele>62</ele>
        <time>2023-12-19T12:57:47Z</time>
      </trkpt>
      <trkpt lat="43.44065" lon="3.4561">
        <ele>61.400001525879</ele>
        <time>2023-12-19T12:57:48Z</time>
      </trkpt>
      <trkpt lat="43.44067" lon="3.45613">
        <ele>60.799999237061</ele>
        <time>2023-12-19T12:57:49Z</time>
      </trkpt>
      <trkpt lat="43.44069" lon="3.45616">
        <ele>60.400001525879</ele>
        <time>2023-12-19T12:57:50Z</time>
      </trkpt>
      <trkpt lat="43.44071" lon="3.4562">
        <ele>59.799999237061</ele>
        <time>2023-12-19T12:57:51Z</time>
      </trkpt>
      <trkpt lat="43.44072" lon="3.45622">
        <ele>59.400001525879</ele>
        <time>2023-12-19T12:57:52Z</time>
      </trkpt>
      <trkpt lat="43.44072" lon="3.45625">
        <ele>58.799999237061</ele>
        <time>2023-12-19T12:57:53Z</time>
      </trkpt>
      <trkpt lat="43.44073" lon="3.45628">
        <ele>58.400001525879</ele>
        <time>2023-12-19T12:57:54Z</time>
      </trkpt>
      <trkpt lat="43.44074" lon="3.4563">
        <ele>58</ele>
        <time>2023-12-19T12:57:55Z</time>
      </trkpt>
      <trkpt lat="43.44075" lon="3.45632">
        <ele>57.599998474121</ele>
        <time>2023-12-19T12:57:56Z</time>
      </trkpt>
      <trkpt lat="43.44076" lon="3.45633">
        <ele>57.200000762939</ele>
        <time>2023-12-19T12:57:57Z</time>
      </trkpt>
      <trkpt lat="43.44078" lon="3.45633">
        <ele>57</ele>
        <time>2023-12-19T12:57:58Z</time>
      </trkpt>
      <trkpt lat="43.4408" lon="3.45631">
        <ele>56.799999237061</ele>
        <time>2023-12-19T12:57:59Z</time>
      </trkpt>
      <trkpt lat="43.44081" lon="3.4563">
        <ele>56.599998474121</ele>
        <time>2023-12-19T12:58:00Z</time>
      </trkpt>
      <trkpt lat="43.44082" lon="3.45628">
        <ele>56.400001525879</ele>
        <time>2023-12-19T12:58:01Z</time>
      </trkpt>
      <trkpt lat="43.44083" lon="3.45626">
        <ele>56.200000762939</ele>
        <time>2023-12-19T12:58:02Z</time>
      </trkpt>
      <trkpt lat="43.44084" lon="3.45624">
        <ele>56</ele>
        <time>2023-12-19T12:58:03Z</time>
      </trkpt>
      <trkpt lat="43.44086" lon="3.45622">
        <ele>55.799999237061</ele>
        <time>2023-12-19T12:58:04Z</time>
      </trkpt>
      <trkpt lat="43.44088" lon="3.45619">
        <ele>55.599998474121</ele>
        <time>2023-12-19T12:58:05Z</time>
      </trkpt>
      <trkpt lat="43.44089" lon="3.45617">
        <ele>55.599998474121</ele>
        <time>2023-12-19T12:58:06Z</time>
      </trkpt>
      <trkpt lat="43.44091" lon="3.45614">
        <ele>55.400001525879</ele>
        <time>2023-12-19T12:58:07Z</time>
      </trkpt>
      <trkpt lat="43.44093" lon="3.45611">
        <ele>55.200000762939</ele>
        <time>2023-12-19T12:58:08Z</time>
      </trkpt>
      <trkpt lat="43.44094" lon="3.4561">
        <ele>55</ele>
        <time>2023-12-19T12:58:09Z</time>
      </trkpt>
      <trkpt lat="43.44094" lon="3.45609">
        <ele>54.599998474121</ele>
        <time>2023-12-19T12:58:10Z</time>
      </trkpt>
      <trkpt lat="43.44094" lon="3.45609">
        <ele>54.400001525879</ele>
        <time>2023-12-19T12:58:11Z</time>
      </trkpt>
      <trkpt lat="43.44096" lon="3.45604">
        <ele>53.400001525879</ele>
        <time>2023-12-19T12:58:23Z</time>
      </trkpt>
      <trkpt lat="43.44098" lon="3.45602">
        <ele>53.400001525879</ele>
        <time>2023-12-19T12:58:24Z</time>
      </trkpt>
      <trkpt lat="43.441" lon="3.45599">
        <ele>53.400001525879</ele>
        <time>2023-12-19T12:58:25Z</time>
      </trkpt>
      <trkpt lat="43.44102" lon="3.45595">
        <ele>53.400001525879</ele>
        <time>2023-12-19T12:58:26Z</time>
      </trkpt>
      <trkpt lat="43.44104" lon="3.45591">
        <ele>53.200000762939</ele>
        <time>2023-12-19T12:58:27Z</time>
      </trkpt>
      <trkpt lat="43.44106" lon="3.45586">
        <ele>52.799999237061</ele>
        <time>2023-12-19T12:58:28Z</time>
      </trkpt>
      <trkpt lat="43.44107" lon="3.4558">
        <ele>52.400001525879</ele>
        <time>2023-12-19T12:58:29Z</time>
      </trkpt>
      <trkpt lat="43.44108" lon="3.45576">
        <ele>52</ele>
        <time>2023-12-19T12:58:30Z</time>
      </trkpt>
      <trkpt lat="43.4411" lon="3.45572">
        <ele>51.599998474121</ele>
        <time>2023-12-19T12:58:31Z</time>
      </trkpt>
      <trkpt lat="43.44111" lon="3.45568">
        <ele>51.400001525879</ele>
        <time>2023-12-19T12:58:32Z</time>
      </trkpt>
      <trkpt lat="43.44112" lon="3.45563">
        <ele>51.200000762939</ele>
        <time>2023-12-19T12:58:33Z</time>
      </trkpt>
      <trkpt lat="43.44112" lon="3.45559">
        <ele>51</ele>
        <time>2023-12-19T12:58:34Z</time>
      </trkpt>
      <trkpt lat="43.44113" lon="3.45556">
        <ele>50.599998474121</ele>
        <time>2023-12-19T12:58:35Z</time>
      </trkpt>
      <trkpt lat="43.44114" lon="3.45553">
        <ele>50.400001525879</ele>
        <time>2023-12-19T12:58:36Z</time>
      </trkpt>
      <trkpt lat="43.44116" lon="3.4555">
        <ele>50.200000762939</ele>
        <time>2023-12-19T12:58:37Z</time>
      </trkpt>
      <trkpt lat="43.44116" lon="3.45547">
        <ele>50</ele>
        <time>2023-12-19T12:58:38Z</time>
      </trkpt>
      <trkpt lat="43.44117" lon="3.45545">
        <ele>50</ele>
        <time>2023-12-19T12:58:39Z</time>
      </trkpt>
      <trkpt lat="43.44118" lon="3.45543">
        <ele>49.799999237061</ele>
        <time>2023-12-19T12:58:40Z</time>
      </trkpt>
      <trkpt lat="43.44118" lon="3.45542">
        <ele>49.599998474121</ele>
        <time>2023-12-19T12:58:41Z</time>
      </trkpt>
      <trkpt lat="43.44117" lon="3.4554">
        <ele>49.599998474121</ele>
        <time>2023-12-19T12:58:42Z</time>
      </trkpt>
      <trkpt lat="43.44116" lon="3.45541">
        <ele>49.400001525879</ele>
        <time>2023-12-19T12:58:43Z</time>
      </trkpt>
      <trkpt lat="43.44115" lon="3.45541">
        <ele>49.400001525879</ele>
        <time>2023-12-19T12:58:44Z</time>
      </trkpt>
      <trkpt lat="43.44115" lon="3.45542">
        <ele>49.400001525879</ele>
        <time>2023-12-19T12:58:45Z</time>
      </trkpt>
      <trkpt lat="43.44114" lon="3.45545">
        <ele>49.400001525879</ele>
        <time>2023-12-19T12:58:46Z</time>
      </trkpt>
      <trkpt lat="43.44114" lon="3.45548">
        <ele>49.400001525879</ele>
        <time>2023-12-19T12:58:47Z</time>
      </trkpt>
      <trkpt lat="43.44113" lon="3.4555">
        <ele>49.400001525879</ele>
        <time>2023-12-19T12:58:48Z</time>
      </trkpt>
      <trkpt lat="43.44113" lon="3.45553">
        <ele>49.400001525879</ele>
        <time>2023-12-19T12:58:49Z</time>
      </trkpt>
      <trkpt lat="43.44113" lon="3.45556">
        <ele>49.400001525879</ele>
        <time>2023-12-19T12:58:50Z</time>
      </trkpt>
      <trkpt lat="43.44113" lon="3.45558">
        <ele>49.400001525879</ele>
        <time>2023-12-19T12:58:51Z</time>
      </trkpt>
      <trkpt lat="43.44114" lon="3.4556">
        <ele>49.400001525879</ele>
        <time>2023-12-19T12:58:52Z</time>
      </trkpt>
      <trkpt lat="43.44115" lon="3.45561">
        <ele>49.599998474121</ele>
        <time>2023-12-19T12:58:53Z</time>
      </trkpt>
      <trkpt lat="43.44117" lon="3.4556">
        <ele>49.599998474121</ele>
        <time>2023-12-19T12:58:54Z</time>
      </trkpt>
      <trkpt lat="43.44118" lon="3.45561">
        <ele>49.799999237061</ele>
        <time>2023-12-19T12:58:55Z</time>
      </trkpt>
      <trkpt lat="43.4412" lon="3.45561">
        <ele>50</ele>
        <time>2023-12-19T12:58:56Z</time>
      </trkpt>
      <trkpt lat="43.44121" lon="3.45562">
        <ele>50.200000762939</ele>
        <time>2023-12-19T12:58:57Z</time>
      </trkpt>
      <trkpt lat="43.44123" lon="3.45562">
        <ele>50.200000762939</ele>
        <time>2023-12-19T12:58:58Z</time>
      </trkpt>
      <trkpt lat="43.44124" lon="3.45561">
        <ele>50.400001525879</ele>
        <time>2023-12-19T12:58:59Z</time>
      </trkpt>
      <trkpt lat="43.44125" lon="3.4556">
        <ele>50.400001525879</ele>
        <time>2023-12-19T12:59:00Z</time>
      </trkpt>
      <trkpt lat="43.44126" lon="3.45559">
        <ele>50.400001525879</ele>
        <time>2023-12-19T12:59:01Z</time>
      </trkpt>
      <trkpt lat="43.44126" lon="3.45558">
        <ele>50.400001525879</ele>
        <time>2023-12-19T12:59:02Z</time>
      </trkpt>
      <trkpt lat="43.44126" lon="3.45554">
        <ele>50.400001525879</ele>
        <time>2023-12-19T12:59:03Z</time>
      </trkpt>
      <trkpt lat="43.44127" lon="3.45551">
        <ele>50.400001525879</ele>
        <time>2023-12-19T12:59:04Z</time>
      </trkpt>
      <trkpt lat="43.44128" lon="3.45548">
        <ele>50.400001525879</ele>
        <time>2023-12-19T12:59:05Z</time>
      </trkpt>
      <trkpt lat="43.44129" lon="3.45545">
        <ele>50.200000762939</ele>
        <time>2023-12-19T12:59:06Z</time>
      </trkpt>
      <trkpt lat="43.4413" lon="3.45544">
        <ele>50</ele>
        <time>2023-12-19T12:59:07Z</time>
      </trkpt>
      <trkpt lat="43.44131" lon="3.45544">
        <ele>49.799999237061</ele>
        <time>2023-12-19T12:59:08Z</time>
      </trkpt>
      <trkpt lat="43.44131" lon="3.45544">
        <ele>49.599998474121</ele>
        <time>2023-12-19T12:59:09Z</time>
      </trkpt>
      <trkpt lat="43.44131" lon="3.45543">
        <ele>49.400001525879</ele>
        <time>2023-12-19T12:59:10Z</time>
      </trkpt>
      <trkpt lat="43.44127" lon="3.45548">
        <ele>49.599998474121</ele>
        <time>2023-12-19T12:59:40Z</time>
      </trkpt>
      <trkpt lat="43.44125" lon="3.45551">
        <ele>49.599998474121</ele>
        <time>2023-12-19T12:59:41Z</time>
      </trkpt>
      <trkpt lat="43.44125" lon="3.45554">
        <ele>49.599998474121</ele>
        <time>2023-12-19T12:59:42Z</time>
      </trkpt>
      <trkpt lat="43.44127" lon="3.45556">
        <ele>49.599998474121</ele>
        <time>2023-12-19T12:59:43Z</time>
      </trkpt>
      <trkpt lat="43.44129" lon="3.45556">
        <ele>49.599998474121</ele>
        <time>2023-12-19T12:59:44Z</time>
      </trkpt>
      <trkpt lat="43.44131" lon="3.45555">
        <ele>49.599998474121</ele>
        <time>2023-12-19T12:59:45Z</time>
      </trkpt>
      <trkpt lat="43.44133" lon="3.45555">
        <ele>49.799999237061</ele>
        <time>2023-12-19T12:59:46Z</time>
      </trkpt>
      <trkpt lat="43.44136" lon="3.45555">
        <ele>50</ele>
        <time>2023-12-19T12:59:47Z</time>
      </trkpt>
      <trkpt lat="43.44138" lon="3.45555">
        <ele>50</ele>
        <time>2023-12-19T12:59:48Z</time>
      </trkpt>
      <trkpt lat="43.4414" lon="3.45556">
        <ele>50.200000762939</ele>
        <time>2023-12-19T12:59:49Z</time>
      </trkpt>
      <trkpt lat="43.44143" lon="3.45557">
        <ele>50.200000762939</ele>
        <time>2023-12-19T12:59:50Z</time>
      </trkpt>
      <trkpt lat="43.44146" lon="3.45558">
        <ele>50.200000762939</ele>
        <time>2023-12-19T12:59:51Z</time>
      </trkpt>
      <trkpt lat="43.44149" lon="3.45557">
        <ele>50.200000762939</ele>
        <time>2023-12-19T12:59:52Z</time>
      </trkpt>
      <trkpt lat="43.44152" lon="3.45556">
        <ele>50.200000762939</ele>
        <time>2023-12-19T12:59:53Z</time>
      </trkpt>
      <trkpt lat="43.44155" lon="3.45556">
        <ele>50.200000762939</ele>
        <time>2023-12-19T12:59:54Z</time>
      </trkpt>
      <trkpt lat="43.44158" lon="3.45555">
        <ele>50.200000762939</ele>
        <time>2023-12-19T12:59:55Z</time>
      </trkpt>
      <trkpt lat="43.4416" lon="3.45554">
        <ele>50.200000762939</ele>
        <time>2023-12-19T12:59:56Z</time>
      </trkpt>
      <trkpt lat="43.44162" lon="3.45554">
        <ele>50.200000762939</ele>
        <time>2023-12-19T12:59:57Z</time>
      </trkpt>
      <trkpt lat="43.44165" lon="3.45554">
        <ele>50.200000762939</ele>
        <time>2023-12-19T12:59:58Z</time>
      </trkpt>
      <trkpt lat="43.44167" lon="3.45553">
        <ele>50.400001525879</ele>
        <time>2023-12-19T12:59:59Z</time>
      </trkpt>
      <trkpt lat="43.44169" lon="3.45552">
        <ele>50.400001525879</ele>
        <time>2023-12-19T13:00:00Z</time>
      </trkpt>
      <trkpt lat="43.44171" lon="3.45552">
        <ele>50.400001525879</ele>
        <time>2023-12-19T13:00:01Z</time>
      </trkpt>
      <trkpt lat="43.44173" lon="3.45551">
        <ele>50.400001525879</ele>
        <time>2023-12-19T13:00:02Z</time>
      </trkpt>
      <trkpt lat="43.44174" lon="3.45552">
        <ele>50.400001525879</ele>
        <time>2023-12-19T13:00:03Z</time>
      </trkpt>
      <trkpt lat="43.44175" lon="3.45552">
        <ele>50.400001525879</ele>
        <time>2023-12-19T13:00:04Z</time>
      </trkpt>
      <trkpt lat="43.44177" lon="3.45553">
        <ele>50.200000762939</ele>
        <time>2023-12-19T13:00:05Z</time>
      </trkpt>
      <trkpt lat="43.44179" lon="3.45555">
        <ele>50.200000762939</ele>
        <time>2023-12-19T13:00:06Z</time>
      </trkpt>
      <trkpt lat="43.44182" lon="3.45556">
        <ele>50.400001525879</ele>
        <time>2023-12-19T13:00:07Z</time>
      </trkpt>
      <trkpt lat="43.44184" lon="3.45556">
        <ele>50.400001525879</ele>
        <time>2023-12-19T13:00:08Z</time>
      </trkpt>
      <trkpt lat="43.44187" lon="3.45556">
        <ele>50.400001525879</ele>
        <time>2023-12-19T13:00:09Z</time>
      </trkpt>
      <trkpt lat="43.44189" lon="3.45556">
        <ele>50.400001525879</ele>
        <time>2023-12-19T13:00:10Z</time>
      </trkpt>
      <trkpt lat="43.44192" lon="3.45557">
        <ele>50.599998474121</ele>
        <time>2023-12-19T13:00:11Z</time>
      </trkpt>
      <trkpt lat="43.44194" lon="3.45559">
        <ele>50.599998474121</ele>
        <time>2023-12-19T13:00:12Z</time>
      </trkpt>
      <trkpt lat="43.44197" lon="3.4556">
        <ele>50.599998474121</ele>
        <time>2023-12-19T13:00:13Z</time>
      </trkpt>
      <trkpt lat="43.44199" lon="3.45562">
        <ele>50.599998474121</ele>
        <time>2023-12-19T13:00:14Z</time>
      </trkpt>
      <trkpt lat="43.44201" lon="3.45562">
        <ele>50.599998474121</ele>
        <time>2023-12-19T13:00:15Z</time>
      </trkpt>
      <trkpt lat="43.44203" lon="3.45562">
        <ele>50.599998474121</ele>
        <time>2023-12-19T13:00:16Z</time>
      </trkpt>
      <trkpt lat="43.44206" lon="3.45562">
        <ele>50.599998474121</ele>
        <time>2023-12-19T13:00:17Z</time>
      </trkpt>
      <trkpt lat="43.44208" lon="3.45564">
        <ele>50.799999237061</ele>
        <time>2023-12-19T13:00:18Z</time>
      </trkpt>
      <trkpt lat="43.4421" lon="3.45566">
        <ele>50.799999237061</ele>
        <time>2023-12-19T13:00:19Z</time>
      </trkpt>
      <trkpt lat="43.44213" lon="3.45567">
        <ele>50.799999237061</ele>
        <time>2023-12-19T13:00:20Z</time>
      </trkpt>
      <trkpt lat="43.44215" lon="3.45568">
        <ele>51</ele>
        <time>2023-12-19T13:00:21Z</time>
      </trkpt>
      <trkpt lat="43.44217" lon="3.4557">
        <ele>51</ele>
        <time>2023-12-19T13:00:22Z</time>
      </trkpt>
      <trkpt lat="43.44219" lon="3.45572">
        <ele>51</ele>
        <time>2023-12-19T13:00:23Z</time>
      </trkpt>
      <trkpt lat="43.4422" lon="3.45575">
        <ele>51</ele>
        <time>2023-12-19T13:00:24Z</time>
      </trkpt>
      <trkpt lat="43.44222" lon="3.45577">
        <ele>51.200000762939</ele>
        <time>2023-12-19T13:00:25Z</time>
      </trkpt>
      <trkpt lat="43.44223" lon="3.45579">
        <ele>51.200000762939</ele>
        <time>2023-12-19T13:00:26Z</time>
      </trkpt>
      <trkpt lat="43.44225" lon="3.45582">
        <ele>51.400001525879</ele>
        <time>2023-12-19T13:00:27Z</time>
      </trkpt>
      <trkpt lat="43.44227" lon="3.45584">
        <ele>51.400001525879</ele>
        <time>2023-12-19T13:00:28Z</time>
      </trkpt>
      <trkpt lat="43.4423" lon="3.45585">
        <ele>51.400001525879</ele>
        <time>2023-12-19T13:00:29Z</time>
      </trkpt>
      <trkpt lat="43.44233" lon="3.45585">
        <ele>51.599998474121</ele>
        <time>2023-12-19T13:00:30Z</time>
      </trkpt>
      <trkpt lat="43.44235" lon="3.45586">
        <ele>51.599998474121</ele>
        <time>2023-12-19T13:00:31Z</time>
      </trkpt>
      <trkpt lat="43.44237" lon="3.45587">
        <ele>51.599998474121</ele>
        <time>2023-12-19T13:00:32Z</time>
      </trkpt>
      <trkpt lat="43.44239" lon="3.45589">
        <ele>51.799999237061</ele>
        <time>2023-12-19T13:00:33Z</time>
      </trkpt>
      <trkpt lat="43.44241" lon="3.45591">
        <ele>52</ele>
        <time>2023-12-19T13:00:34Z</time>
      </trkpt>
      <trkpt lat="43.44242" lon="3.45593">
        <ele>52.200000762939</ele>
        <time>2023-12-19T13:00:35Z</time>
      </trkpt>
      <trkpt lat="43.44245" lon="3.45594">
        <ele>52.400001525879</ele>
        <time>2023-12-19T13:00:36Z</time>
      </trkpt>
      <trkpt lat="43.44247" lon="3.45595">
        <ele>52.599998474121</ele>
        <time>2023-12-19T13:00:37Z</time>
      </trkpt>
      <trkpt lat="43.4425" lon="3.45595">
        <ele>52.599998474121</ele>
        <time>2023-12-19T13:00:38Z</time>
      </trkpt>
      <trkpt lat="43.44252" lon="3.45596">
        <ele>52.599998474121</ele>
        <time>2023-12-19T13:00:39Z</time>
      </trkpt>
      <trkpt lat="43.44254" lon="3.45598">
        <ele>52.599998474121</ele>
        <time>2023-12-19T13:00:40Z</time>
      </trkpt>
      <trkpt lat="43.44255" lon="3.456">
        <ele>52.599998474121</ele>
        <time>2023-12-19T13:00:41Z</time>
      </trkpt>
      <trkpt lat="43.44257" lon="3.45603">
        <ele>52.599998474121</ele>
        <time>2023-12-19T13:00:42Z</time>
      </trkpt>
      <trkpt lat="43.44259" lon="3.45605">
        <ele>52.599998474121</ele>
        <time>2023-12-19T13:00:43Z</time>
      </trkpt>
      <trkpt lat="43.4426" lon="3.45607">
        <ele>52.599998474121</ele>
        <time>2023-12-19T13:00:44Z</time>
      </trkpt>
      <trkpt lat="43.44262" lon="3.45609">
        <ele>52.599998474121</ele>
        <time>2023-12-19T13:00:45Z</time>
      </trkpt>
      <trkpt lat="43.44265" lon="3.45611">
        <ele>52.599998474121</ele>
        <time>2023-12-19T13:00:46Z</time>
      </trkpt>
      <trkpt lat="43.44267" lon="3.45612">
        <ele>52.599998474121</ele>
        <time>2023-12-19T13:00:47Z</time>
      </trkpt>
      <trkpt lat="43.44269" lon="3.45614">
        <ele>52.799999237061</ele>
        <time>2023-12-19T13:00:48Z</time>
      </trkpt>
      <trkpt lat="43.44271" lon="3.45617">
        <ele>53</ele>
        <time>2023-12-19T13:00:49Z</time>
      </trkpt>
      <trkpt lat="43.44271" lon="3.45619">
        <ele>53</ele>
        <time>2023-12-19T13:00:50Z</time>
      </trkpt>
      <trkpt lat="43.44273" lon="3.45622">
        <ele>53.200000762939</ele>
        <time>2023-12-19T13:00:51Z</time>
      </trkpt>
      <trkpt lat="43.44276" lon="3.45625">
        <ele>53.400001525879</ele>
        <time>2023-12-19T13:00:52Z</time>
      </trkpt>
      <trkpt lat="43.44278" lon="3.45629">
        <ele>53.400001525879</ele>
        <time>2023-12-19T13:00:53Z</time>
      </trkpt>
      <trkpt lat="43.44279" lon="3.45631">
        <ele>53.599998474121</ele>
        <time>2023-12-19T13:00:54Z</time>
      </trkpt>
      <trkpt lat="43.4428" lon="3.45634">
        <ele>53.799999237061</ele>
        <time>2023-12-19T13:00:55Z</time>
      </trkpt>
      <trkpt lat="43.44283" lon="3.45638">
        <ele>54</ele>
        <time>2023-12-19T13:00:56Z</time>
      </trkpt>
      <trkpt lat="43.44285" lon="3.4564">
        <ele>54.200000762939</ele>
        <time>2023-12-19T13:00:57Z</time>
      </trkpt>
      <trkpt lat="43.44286" lon="3.45642">
        <ele>54.400001525879</ele>
        <time>2023-12-19T13:00:58Z</time>
      </trkpt>
      <trkpt lat="43.44288" lon="3.45644">
        <ele>54.599998474121</ele>
        <time>2023-12-19T13:00:59Z</time>
      </trkpt>
      <trkpt lat="43.4429" lon="3.45646">
        <ele>54.799999237061</ele>
        <time>2023-12-19T13:01:00Z</time>
      </trkpt>
      <trkpt lat="43.44292" lon="3.45648">
        <ele>55</ele>
        <time>2023-12-19T13:01:01Z</time>
      </trkpt>
      <trkpt lat="43.44294" lon="3.4565">
        <ele>55.200000762939</ele>
        <time>2023-12-19T13:01:02Z</time>
      </trkpt>
      <trkpt lat="43.44296" lon="3.45652">
        <ele>55.400001525879</ele>
        <time>2023-12-19T13:01:03Z</time>
      </trkpt>
      <trkpt lat="43.44298" lon="3.45654">
        <ele>55.599998474121</ele>
        <time>2023-12-19T13:01:04Z</time>
      </trkpt>
      <trkpt lat="43.44299" lon="3.45656">
        <ele>55.599998474121</ele>
        <time>2023-12-19T13:01:05Z</time>
      </trkpt>
      <trkpt lat="43.443" lon="3.45658">
        <ele>55.799999237061</ele>
        <time>2023-12-19T13:01:06Z</time>
      </trkpt>
      <trkpt lat="43.44301" lon="3.4566">
        <ele>56</ele>
        <time>2023-12-19T13:01:07Z</time>
      </trkpt>
      <trkpt lat="43.44302" lon="3.45663">
        <ele>56.200000762939</ele>
        <time>2023-12-19T13:01:08Z</time>
      </trkpt>
      <trkpt lat="43.44304" lon="3.45664">
        <ele>56.200000762939</ele>
        <time>2023-12-19T13:01:09Z</time>
      </trkpt>
      <trkpt lat="43.44306" lon="3.45667">
        <ele>56.400001525879</ele>
        <time>2023-12-19T13:01:10Z</time>
      </trkpt>
      <trkpt lat="43.44307" lon="3.45668">
        <ele>56.400001525879</ele>
        <time>2023-12-19T13:01:11Z</time>
      </trkpt>
      <trkpt lat="43.44309" lon="3.45671">
        <ele>56.400001525879</ele>
        <time>2023-12-19T13:01:12Z</time>
      </trkpt>
      <trkpt lat="43.4431" lon="3.45674">
        <ele>56.599998474121</ele>
        <time>2023-12-19T13:01:13Z</time>
      </trkpt>
      <trkpt lat="43.4431" lon="3.45677">
        <ele>56.799999237061</ele>
        <time>2023-12-19T13:01:14Z</time>
      </trkpt>
      <trkpt lat="43.44311" lon="3.45679">
        <ele>57</ele>
        <time>2023-12-19T13:01:15Z</time>
      </trkpt>
      <trkpt lat="43.44312" lon="3.45681">
        <ele>57.200000762939</ele>
        <time>2023-12-19T13:01:16Z</time>
      </trkpt>
      <trkpt lat="43.44314" lon="3.45682">
        <ele>57.400001525879</ele>
        <time>2023-12-19T13:01:17Z</time>
      </trkpt>
      <trkpt lat="43.44315" lon="3.45682">
        <ele>57.400001525879</ele>
        <time>2023-12-19T13:01:18Z</time>
      </trkpt>
      <trkpt lat="43.44316" lon="3.45682">
        <ele>57.599998474121</ele>
        <time>2023-12-19T13:01:19Z</time>
      </trkpt>
      <trkpt lat="43.44317" lon="3.45683">
        <ele>57.799999237061</ele>
        <time>2023-12-19T13:01:20Z</time>
      </trkpt>
      <trkpt lat="43.44318" lon="3.45683">
        <ele>58</ele>
        <time>2023-12-19T13:01:21Z</time>
      </trkpt>
      <trkpt lat="43.44318" lon="3.45683">
        <ele>58.200000762939</ele>
        <time>2023-12-19T13:01:22Z</time>
      </trkpt>
      <trkpt lat="43.44333" lon="3.45696">
        <ele>60.799999237061</ele>
        <time>2023-12-19T13:02:50Z</time>
      </trkpt>
      <trkpt lat="43.44334" lon="3.45698">
        <ele>60.799999237061</ele>
        <time>2023-12-19T13:02:51Z</time>
      </trkpt>
      <trkpt lat="43.44335" lon="3.457">
        <ele>60.799999237061</ele>
        <time>2023-12-19T13:02:52Z</time>
      </trkpt>
      <trkpt lat="43.44337" lon="3.45702">
        <ele>60.799999237061</ele>
        <time>2023-12-19T13:02:53Z</time>
      </trkpt>
      <trkpt lat="43.44339" lon="3.45704">
        <ele>60.799999237061</ele>
        <time>2023-12-19T13:02:54Z</time>
      </trkpt>
      <trkpt lat="43.4434" lon="3.45705">
        <ele>60.799999237061</ele>
        <time>2023-12-19T13:02:55Z</time>
      </trkpt>
      <trkpt lat="43.44342" lon="3.45706">
        <ele>61</ele>
        <time>2023-12-19T13:02:56Z</time>
      </trkpt>
      <trkpt lat="43.44343" lon="3.45708">
        <ele>61</ele>
        <time>2023-12-19T13:02:57Z</time>
      </trkpt>
      <trkpt lat="43.44345" lon="3.45711">
        <ele>61</ele>
        <time>2023-12-19T13:02:58Z</time>
      </trkpt>
      <trkpt lat="43.44346" lon="3.45713">
        <ele>61</ele>
        <time>2023-12-19T13:02:59Z</time>
      </trkpt>
      <trkpt lat="43.44347" lon="3.45715">
        <ele>61</ele>
        <time>2023-12-19T13:03:00Z</time>
      </trkpt>
      <trkpt lat="43.44349" lon="3.45718">
        <ele>61</ele>
        <time>2023-12-19T13:03:01Z</time>
      </trkpt>
      <trkpt lat="43.4435" lon="3.45721">
        <ele>61.200000762939</ele>
        <time>2023-12-19T13:03:02Z</time>
      </trkpt>
      <trkpt lat="43.44351" lon="3.45724">
        <ele>61.200000762939</ele>
        <time>2023-12-19T13:03:03Z</time>
      </trkpt>
      <trkpt lat="43.44352" lon="3.45728">
        <ele>61.400001525879</ele>
        <time>2023-12-19T13:03:04Z</time>
      </trkpt>
      <trkpt lat="43.44353" lon="3.45731">
        <ele>61.599998474121</ele>
        <time>2023-12-19T13:03:05Z</time>
      </trkpt>
      <trkpt lat="43.44354" lon="3.45733">
        <ele>61.599998474121</ele>
        <time>2023-12-19T13:03:06Z</time>
      </trkpt>
      <trkpt lat="43.44355" lon="3.45735">
        <ele>61.799999237061</ele>
        <time>2023-12-19T13:03:07Z</time>
      </trkpt>
      <trkpt lat="43.44356" lon="3.45737">
        <ele>62.200000762939</ele>
        <time>2023-12-19T13:03:08Z</time>
      </trkpt>
      <trkpt lat="43.44358" lon="3.45739">
        <ele>62.799999237061</ele>
        <time>2023-12-19T13:03:09Z</time>
      </trkpt>
      <trkpt lat="43.44359" lon="3.45741">
        <ele>63.200000762939</ele>
        <time>2023-12-19T13:03:10Z</time>
      </trkpt>
      <trkpt lat="43.4436" lon="3.45743">
        <ele>63.599998474121</ele>
        <time>2023-12-19T13:03:11Z</time>
      </trkpt>
      <trkpt lat="43.4436" lon="3.45746">
        <ele>63.799999237061</ele>
        <time>2023-12-19T13:03:12Z</time>
      </trkpt>
      <trkpt lat="43.44359" lon="3.45749">
        <ele>64</ele>
        <time>2023-12-19T13:03:13Z</time>
      </trkpt>
      <trkpt lat="43.44359" lon="3.45752">
        <ele>64</ele>
        <time>2023-12-19T13:03:14Z</time>
      </trkpt>
      <trkpt lat="43.44358" lon="3.45754">
        <ele>64</ele>
        <time>2023-12-19T13:03:15Z</time>
      </trkpt>
      <trkpt lat="43.44358" lon="3.45757">
        <ele>64</ele>
        <time>2023-12-19T13:03:16Z</time>
      </trkpt>
      <trkpt lat="43.44359" lon="3.4576">
        <ele>64</ele>
        <time>2023-12-19T13:03:17Z</time>
      </trkpt>
      <trkpt lat="43.4436" lon="3.45761">
        <ele>64</ele>
        <time>2023-12-19T13:03:18Z</time>
      </trkpt>
      <trkpt lat="43.44361" lon="3.45763">
        <ele>64</ele>
        <time>2023-12-19T13:03:19Z</time>
      </trkpt>
      <trkpt lat="43.44363" lon="3.45765">
        <ele>64.199996948242</ele>
        <time>2023-12-19T13:03:20Z</time>
      </trkpt>
      <trkpt lat="43.44364" lon="3.45767">
        <ele>64</ele>
        <time>2023-12-19T13:03:21Z</time>
      </trkpt>
      <trkpt lat="43.44364" lon="3.45769">
        <ele>64</ele>
        <time>2023-12-19T13:03:22Z</time>
      </trkpt>
      <trkpt lat="43.44365" lon="3.45771">
        <ele>64</ele>
        <time>2023-12-19T13:03:23Z</time>
      </trkpt>
      <trkpt lat="43.44367" lon="3.45774">
        <ele>64</ele>
        <time>2023-12-19T13:03:24Z</time>
      </trkpt>
      <trkpt lat="43.44369" lon="3.45776">
        <ele>64</ele>
        <time>2023-12-19T13:03:25Z</time>
      </trkpt>
      <trkpt lat="43.4437" lon="3.45778">
        <ele>64</ele>
        <time>2023-12-19T13:03:26Z</time>
      </trkpt>
      <trkpt lat="43.44371" lon="3.45781">
        <ele>64</ele>
        <time>2023-12-19T13:03:27Z</time>
      </trkpt>
      <trkpt lat="43.44372" lon="3.45783">
        <ele>64</ele>
        <time>2023-12-19T13:03:28Z</time>
      </trkpt>
      <trkpt lat="43.44374" lon="3.45786">
        <ele>64</ele>
        <time>2023-12-19T13:03:29Z</time>
      </trkpt>
      <trkpt lat="43.44375" lon="3.45788">
        <ele>64</ele>
        <time>2023-12-19T13:03:30Z</time>
      </trkpt>
      <trkpt lat="43.44376" lon="3.4579">
        <ele>64</ele>
        <time>2023-12-19T13:03:31Z</time>
      </trkpt>
      <trkpt lat="43.44378" lon="3.45793">
        <ele>64</ele>
        <time>2023-12-19T13:03:32Z</time>
      </trkpt>
      <trkpt lat="43.44378" lon="3.45796">
        <ele>64</ele>
        <time>2023-12-19T13:03:33Z</time>
      </trkpt>
      <trkpt lat="43.44379" lon="3.458">
        <ele>64.199996948242</ele>
        <time>2023-12-19T13:03:34Z</time>
      </trkpt>
      <trkpt lat="43.44378" lon="3.45805">
        <ele>64.199996948242</ele>
        <time>2023-12-19T13:03:35Z</time>
      </trkpt>
      <trkpt lat="43.44378" lon="3.45808">
        <ele>64.199996948242</ele>
        <time>2023-12-19T13:03:36Z</time>
      </trkpt>
      <trkpt lat="43.44378" lon="3.45811">
        <ele>64.400001525879</ele>
        <time>2023-12-19T13:03:37Z</time>
      </trkpt>
      <trkpt lat="43.44377" lon="3.45813">
        <ele>64.400001525879</ele>
        <time>2023-12-19T13:03:38Z</time>
      </trkpt>
      <trkpt lat="43.44377" lon="3.45813">
        <ele>64.599998474121</ele>
        <time>2023-12-19T13:03:39Z</time>
      </trkpt>
      <trkpt lat="43.44376" lon="3.45813">
        <ele>65</ele>
        <time>2023-12-19T13:03:40Z</time>
      </trkpt>
      <trkpt lat="43.44375" lon="3.45828">
        <ele>68.199996948242</ele>
        <time>2023-12-19T13:04:20Z</time>
      </trkpt>
      <trkpt lat="43.44376" lon="3.45829">
        <ele>68.199996948242</ele>
        <time>2023-12-19T13:04:21Z</time>
      </trkpt>
      <trkpt lat="43.44378" lon="3.45832">
        <ele>68.199996948242</ele>
        <time>2023-12-19T13:04:22Z</time>
      </trkpt>
      <trkpt lat="43.44378" lon="3.45834">
        <ele>68.199996948242</ele>
        <time>2023-12-19T13:04:23Z</time>
      </trkpt>
      <trkpt lat="43.44378" lon="3.45836">
        <ele>68.199996948242</ele>
        <time>2023-12-19T13:04:24Z</time>
      </trkpt>
      <trkpt lat="43.44379" lon="3.45839">
        <ele>68.400001525879</ele>
        <time>2023-12-19T13:04:25Z</time>
      </trkpt>
      <trkpt lat="43.44379" lon="3.45841">
        <ele>68.800003051758</ele>
        <time>2023-12-19T13:04:26Z</time>
      </trkpt>
      <trkpt lat="43.44379" lon="3.45842">
        <ele>69</ele>
        <time>2023-12-19T13:04:27Z</time>
      </trkpt>
      <trkpt lat="43.44381" lon="3.45843">
        <ele>69.199996948242</ele>
        <time>2023-12-19T13:04:28Z</time>
      </trkpt>
      <trkpt lat="43.44382" lon="3.45844">
        <ele>69.199996948242</ele>
        <time>2023-12-19T13:04:29Z</time>
      </trkpt>
      <trkpt lat="43.44383" lon="3.45847">
        <ele>69.400001525879</ele>
        <time>2023-12-19T13:04:30Z</time>
      </trkpt>
      <trkpt lat="43.44383" lon="3.4585">
        <ele>69.599998474121</ele>
        <time>2023-12-19T13:04:31Z</time>
      </trkpt>
      <trkpt lat="43.44384" lon="3.45853">
        <ele>69.599998474121</ele>
        <time>2023-12-19T13:04:32Z</time>
      </trkpt>
      <trkpt lat="43.44384" lon="3.45855">
        <ele>69.599998474121</ele>
        <time>2023-12-19T13:04:33Z</time>
      </trkpt>
      <trkpt lat="43.44385" lon="3.45857">
        <ele>69.800003051758</ele>
        <time>2023-12-19T13:04:34Z</time>
      </trkpt>
      <trkpt lat="43.44386" lon="3.4586">
        <ele>69.800003051758</ele>
        <time>2023-12-19T13:04:35Z</time>
      </trkpt>
      <trkpt lat="43.44387" lon="3.45863">
        <ele>69.800003051758</ele>
        <time>2023-12-19T13:04:36Z</time>
      </trkpt>
      <trkpt lat="43.44389" lon="3.45865">
        <ele>70</ele>
        <time>2023-12-19T13:04:37Z</time>
      </trkpt>
      <trkpt lat="43.4439" lon="3.45867">
        <ele>70.199996948242</ele>
        <time>2023-12-19T13:04:38Z</time>
      </trkpt>
      <trkpt lat="43.44391" lon="3.4587">
        <ele>70.400001525879</ele>
        <time>2023-12-19T13:04:39Z</time>
      </trkpt>
      <trkpt lat="43.44392" lon="3.45872">
        <ele>70.800003051758</ele>
        <time>2023-12-19T13:04:40Z</time>
      </trkpt>
      <trkpt lat="43.44393" lon="3.45875">
        <ele>71</ele>
        <time>2023-12-19T13:04:41Z</time>
      </trkpt>
      <trkpt lat="43.44394" lon="3.45877">
        <ele>71.199996948242</ele>
        <time>2023-12-19T13:04:42Z</time>
      </trkpt>
      <trkpt lat="43.44395" lon="3.4588">
        <ele>71.199996948242</ele>
        <time>2023-12-19T13:04:43Z</time>
      </trkpt>
      <trkpt lat="43.44395" lon="3.45882">
        <ele>71.400001525879</ele>
        <time>2023-12-19T13:04:44Z</time>
      </trkpt>
      <trkpt lat="43.44397" lon="3.45884">
        <ele>71.599998474121</ele>
        <time>2023-12-19T13:04:45Z</time>
      </trkpt>
      <trkpt lat="43.44398" lon="3.45886">
        <ele>71.599998474121</ele>
        <time>2023-12-19T13:04:46Z</time>
      </trkpt>
      <trkpt lat="43.44399" lon="3.45888">
        <ele>71.800003051758</ele>
        <time>2023-12-19T13:04:47Z</time>
      </trkpt>
      <trkpt lat="43.444" lon="3.45891">
        <ele>71.800003051758</ele>
        <time>2023-12-19T13:04:48Z</time>
      </trkpt>
      <trkpt lat="43.44401" lon="3.45893">
        <ele>72</ele>
        <time>2023-12-19T13:04:49Z</time>
      </trkpt>
      <trkpt lat="43.44403" lon="3.45894">
        <ele>72.199996948242</ele>
        <time>2023-12-19T13:04:50Z</time>
      </trkpt>
      <trkpt lat="43.44404" lon="3.45896">
        <ele>72.199996948242</ele>
        <time>2023-12-19T13:04:51Z</time>
      </trkpt>
      <trkpt lat="43.44405" lon="3.45898">
        <ele>72.400001525879</ele>
        <time>2023-12-19T13:04:52Z</time>
      </trkpt>
      <trkpt lat="43.44406" lon="3.459">
        <ele>72.400001525879</ele>
        <time>2023-12-19T13:04:53Z</time>
      </trkpt>
      <trkpt lat="43.44407" lon="3.45901">
        <ele>72.400001525879</ele>
        <time>2023-12-19T13:04:54Z</time>
      </trkpt>
      <trkpt lat="43.44408" lon="3.45904">
        <ele>72.599998474121</ele>
        <time>2023-12-19T13:04:55Z</time>
      </trkpt>
      <trkpt lat="43.44409" lon="3.45906">
        <ele>72.800003051758</ele>
        <time>2023-12-19T13:04:56Z</time>
      </trkpt>
      <trkpt lat="43.4441" lon="3.45908">
        <ele>72.800003051758</ele>
        <time>2023-12-19T13:04:57Z</time>
      </trkpt>
      <trkpt lat="43.44412" lon="3.4591">
        <ele>73</ele>
        <time>2023-12-19T13:04:58Z</time>
      </trkpt>
      <trkpt lat="43.44413" lon="3.45913">
        <ele>73.199996948242</ele>
        <time>2023-12-19T13:04:59Z</time>
      </trkpt>
      <trkpt lat="43.44413" lon="3.45914">
        <ele>73.400001525879</ele>
        <time>2023-12-19T13:05:00Z</time>
      </trkpt>
      <trkpt lat="43.44415" lon="3.45916">
        <ele>73.599998474121</ele>
        <time>2023-12-19T13:05:01Z</time>
      </trkpt>
      <trkpt lat="43.44416" lon="3.45918">
        <ele>73.599998474121</ele>
        <time>2023-12-19T13:05:02Z</time>
      </trkpt>
      <trkpt lat="43.44418" lon="3.45919">
        <ele>73.800003051758</ele>
        <time>2023-12-19T13:05:03Z</time>
      </trkpt>
      <trkpt lat="43.44419" lon="3.45921">
        <ele>73.800003051758</ele>
        <time>2023-12-19T13:05:04Z</time>
      </trkpt>
      <trkpt lat="43.4442" lon="3.45923">
        <ele>74</ele>
        <time>2023-12-19T13:05:05Z</time>
      </trkpt>
      <trkpt lat="43.44421" lon="3.45925">
        <ele>74</ele>
        <time>2023-12-19T13:05:06Z</time>
      </trkpt>
      <trkpt lat="43.44422" lon="3.45928">
        <ele>74.199996948242</ele>
        <time>2023-12-19T13:05:07Z</time>
      </trkpt>
      <trkpt lat="43.44423" lon="3.4593">
        <ele>74.199996948242</ele>
        <time>2023-12-19T13:05:08Z</time>
      </trkpt>
      <trkpt lat="43.44424" lon="3.45932">
        <ele>74.199996948242</ele>
        <time>2023-12-19T13:05:09Z</time>
      </trkpt>
      <trkpt lat="43.44425" lon="3.45935">
        <ele>74.400001525879</ele>
        <time>2023-12-19T13:05:10Z</time>
      </trkpt>
      <trkpt lat="43.44425" lon="3.45938">
        <ele>74.400001525879</ele>
        <time>2023-12-19T13:05:11Z</time>
      </trkpt>
      <trkpt lat="43.44425" lon="3.45941">
        <ele>74.599998474121</ele>
        <time>2023-12-19T13:05:12Z</time>
      </trkpt>
      <trkpt lat="43.44426" lon="3.45944">
        <ele>74.800003051758</ele>
        <time>2023-12-19T13:05:13Z</time>
      </trkpt>
      <trkpt lat="43.44426" lon="3.45946">
        <ele>74.800003051758</ele>
        <time>2023-12-19T13:05:14Z</time>
      </trkpt>
      <trkpt lat="43.44427" lon="3.45949">
        <ele>74.800003051758</ele>
        <time>2023-12-19T13:05:15Z</time>
      </trkpt>
      <trkpt lat="43.44427" lon="3.45952">
        <ele>75</ele>
        <time>2023-12-19T13:05:16Z</time>
      </trkpt>
      <trkpt lat="43.44428" lon="3.45955">
        <ele>75.199996948242</ele>
        <time>2023-12-19T13:05:17Z</time>
      </trkpt>
      <trkpt lat="43.44428" lon="3.45957">
        <ele>75.599998474121</ele>
        <time>2023-12-19T13:05:18Z</time>
      </trkpt>
      <trkpt lat="43.44428" lon="3.4596">
        <ele>75.800003051758</ele>
        <time>2023-12-19T13:05:19Z</time>
      </trkpt>
      <trkpt lat="43.44429" lon="3.45962">
        <ele>75.800003051758</ele>
        <time>2023-12-19T13:05:20Z</time>
      </trkpt>
      <trkpt lat="43.4443" lon="3.45964">
        <ele>76</ele>
        <time>2023-12-19T13:05:21Z</time>
      </trkpt>
      <trkpt lat="43.44431" lon="3.45966">
        <ele>76.199996948242</ele>
        <time>2023-12-19T13:05:22Z</time>
      </trkpt>
      <trkpt lat="43.44432" lon="3.45969">
        <ele>76.400001525879</ele>
        <time>2023-12-19T13:05:23Z</time>
      </trkpt>
      <trkpt lat="43.44432" lon="3.45972">
        <ele>76.599998474121</ele>
        <time>2023-12-19T13:05:24Z</time>
      </trkpt>
      <trkpt lat="43.44432" lon="3.45974">
        <ele>76.599998474121</ele>
        <time>2023-12-19T13:05:25Z</time>
      </trkpt>
      <trkpt lat="43.44432" lon="3.45977">
        <ele>76.800003051758</ele>
        <time>2023-12-19T13:05:26Z</time>
      </trkpt>
      <trkpt lat="43.44433" lon="3.4598">
        <ele>76.800003051758</ele>
        <time>2023-12-19T13:05:27Z</time>
      </trkpt>
      <trkpt lat="43.44433" lon="3.45982">
        <ele>76.800003051758</ele>
        <time>2023-12-19T13:05:28Z</time>
      </trkpt>
      <trkpt lat="43.44432" lon="3.45985">
        <ele>77</ele>
        <time>2023-12-19T13:05:29Z</time>
      </trkpt>
      <trkpt lat="43.44431" lon="3.45987">
        <ele>77</ele>
        <time>2023-12-19T13:05:30Z</time>
      </trkpt>
      <trkpt lat="43.4443" lon="3.45989">
        <ele>77.199996948242</ele>
        <time>2023-12-19T13:05:31Z</time>
      </trkpt>
      <trkpt lat="43.44428" lon="3.45989">
        <ele>77.199996948242</ele>
        <time>2023-12-19T13:05:32Z</time>
      </trkpt>
      <trkpt lat="43.44427" lon="3.4599">
        <ele>77.199996948242</ele>
        <time>2023-12-19T13:05:33Z</time>
      </trkpt>
      <trkpt lat="43.44425" lon="3.4599">
        <ele>77.400001525879</ele>
        <time>2023-12-19T13:05:34Z</time>
      </trkpt>
      <trkpt lat="43.44423" lon="3.45991">
        <ele>77.800003051758</ele>
        <time>2023-12-19T13:05:35Z</time>
      </trkpt>
      <trkpt lat="43.44422" lon="3.45993">
        <ele>78</ele>
        <time>2023-12-19T13:05:36Z</time>
      </trkpt>
      <trkpt lat="43.44421" lon="3.45993">
        <ele>78.400001525879</ele>
        <time>2023-12-19T13:05:37Z</time>
      </trkpt>
      <trkpt lat="43.44419" lon="3.45994">
        <ele>78.800003051758</ele>
        <time>2023-12-19T13:05:38Z</time>
      </trkpt>
      <trkpt lat="43.44419" lon="3.45996">
        <ele>79.400001525879</ele>
        <time>2023-12-19T13:05:39Z</time>
      </trkpt>
      <trkpt lat="43.44418" lon="3.45998">
        <ele>79.800003051758</ele>
        <time>2023-12-19T13:05:40Z</time>
      </trkpt>
      <trkpt lat="43.44417" lon="3.46001">
        <ele>80.199996948242</ele>
        <time>2023-12-19T13:05:41Z</time>
      </trkpt>
      <trkpt lat="43.44416" lon="3.46002">
        <ele>80.400001525879</ele>
        <time>2023-12-19T13:05:42Z</time>
      </trkpt>
      <trkpt lat="43.44415" lon="3.46004">
        <ele>80.599998474121</ele>
        <time>2023-12-19T13:05:43Z</time>
      </trkpt>
      <trkpt lat="43.44415" lon="3.46007">
        <ele>80.599998474121</ele>
        <time>2023-12-19T13:05:44Z</time>
      </trkpt>
      <trkpt lat="43.44414" lon="3.46009">
        <ele>80.599998474121</ele>
        <time>2023-12-19T13:05:45Z</time>
      </trkpt>
      <trkpt lat="43.44414" lon="3.46011">
        <ele>80.599998474121</ele>
        <time>2023-12-19T13:05:46Z</time>
      </trkpt>
      <trkpt lat="43.44414" lon="3.46011">
        <ele>80.599998474121</ele>
        <time>2023-12-19T13:05:47Z</time>
      </trkpt>
      <trkpt lat="43.44411" lon="3.46019">
        <ele>79.800003051758</ele>
        <time>2023-12-19T13:06:24Z</time>
      </trkpt>
      <trkpt lat="43.4441" lon="3.46021">
        <ele>79.800003051758</ele>
        <time>2023-12-19T13:06:25Z</time>
      </trkpt>
      <trkpt lat="43.4441" lon="3.46023">
        <ele>79.800003051758</ele>
        <time>2023-12-19T13:06:26Z</time>
      </trkpt>
      <trkpt lat="43.4441" lon="3.46025">
        <ele>79.800003051758</ele>
        <time>2023-12-19T13:06:27Z</time>
      </trkpt>
      <trkpt lat="43.4441" lon="3.46029">
        <ele>79.800003051758</ele>
        <time>2023-12-19T13:06:28Z</time>
      </trkpt>
      <trkpt lat="43.4441" lon="3.46033">
        <ele>79.599998474121</ele>
        <time>2023-12-19T13:06:29Z</time>
      </trkpt>
      <trkpt lat="43.4441" lon="3.46037">
        <ele>79.400001525879</ele>
        <time>2023-12-19T13:06:30Z</time>
      </trkpt>
      <trkpt lat="43.4441" lon="3.4604">
        <ele>79.400001525879</ele>
        <time>2023-12-19T13:06:31Z</time>
      </trkpt>
      <trkpt lat="43.4441" lon="3.46043">
        <ele>79.199996948242</ele>
        <time>2023-12-19T13:06:32Z</time>
      </trkpt>
      <trkpt lat="43.44411" lon="3.46045">
        <ele>79</ele>
        <time>2023-12-19T13:06:33Z</time>
      </trkpt>
      <trkpt lat="43.44411" lon="3.46048">
        <ele>78.800003051758</ele>
        <time>2023-12-19T13:06:34Z</time>
      </trkpt>
      <trkpt lat="43.44411" lon="3.46053">
        <ele>78.599998474121</ele>
        <time>2023-12-19T13:06:35Z</time>
      </trkpt>
      <trkpt lat="43.44409" lon="3.46056">
        <ele>78.599998474121</ele>
        <time>2023-12-19T13:06:36Z</time>
      </trkpt>
      <trkpt lat="43.44407" lon="3.4606">
        <ele>78.599998474121</ele>
        <time>2023-12-19T13:06:37Z</time>
      </trkpt>
      <trkpt lat="43.44406" lon="3.46062">
        <ele>78.199996948242</ele>
        <time>2023-12-19T13:06:38Z</time>
      </trkpt>
      <trkpt lat="43.44404" lon="3.46063">
        <ele>77.800003051758</ele>
        <time>2023-12-19T13:06:39Z</time>
      </trkpt>
      <trkpt lat="43.44402" lon="3.46065">
        <ele>77.599998474121</ele>
        <time>2023-12-19T13:06:40Z</time>
      </trkpt>
      <trkpt lat="43.444" lon="3.46067">
        <ele>77.400001525879</ele>
        <time>2023-12-19T13:06:41Z</time>
      </trkpt>
      <trkpt lat="43.44397" lon="3.46069">
        <ele>77.400001525879</ele>
        <time>2023-12-19T13:06:42Z</time>
      </trkpt>
      <trkpt lat="43.44395" lon="3.4607">
        <ele>77.400001525879</ele>
        <time>2023-12-19T13:06:43Z</time>
      </trkpt>
      <trkpt lat="43.44393" lon="3.46072">
        <ele>77.400001525879</ele>
        <time>2023-12-19T13:06:44Z</time>
      </trkpt>
      <trkpt lat="43.44392" lon="3.46074">
        <ele>77.400001525879</ele>
        <time>2023-12-19T13:06:45Z</time>
      </trkpt>
      <trkpt lat="43.44389" lon="3.46076">
        <ele>77.400001525879</ele>
        <time>2023-12-19T13:06:46Z</time>
      </trkpt>
      <trkpt lat="43.44387" lon="3.46077">
        <ele>77.599998474121</ele>
        <time>2023-12-19T13:06:47Z</time>
      </trkpt>
      <trkpt lat="43.44385" lon="3.46078">
        <ele>77.800003051758</ele>
        <time>2023-12-19T13:06:48Z</time>
      </trkpt>
      <trkpt lat="43.44383" lon="3.46078">
        <ele>77.800003051758</ele>
        <time>2023-12-19T13:06:49Z</time>
      </trkpt>
      <trkpt lat="43.4438" lon="3.46079">
        <ele>78</ele>
        <time>2023-12-19T13:06:50Z</time>
      </trkpt>
      <trkpt lat="43.44379" lon="3.4608">
        <ele>78.199996948242</ele>
        <time>2023-12-19T13:06:51Z</time>
      </trkpt>
      <trkpt lat="43.44377" lon="3.46081">
        <ele>78.199996948242</ele>
        <time>2023-12-19T13:06:52Z</time>
      </trkpt>
      <trkpt lat="43.44375" lon="3.46082">
        <ele>78.400001525879</ele>
        <time>2023-12-19T13:06:53Z</time>
      </trkpt>
      <trkpt lat="43.44373" lon="3.46084">
        <ele>78.599998474121</ele>
        <time>2023-12-19T13:06:54Z</time>
      </trkpt>
      <trkpt lat="43.44371" lon="3.46085">
        <ele>78.800003051758</ele>
        <time>2023-12-19T13:06:55Z</time>
      </trkpt>
      <trkpt lat="43.44369" lon="3.46087">
        <ele>79</ele>
        <time>2023-12-19T13:06:56Z</time>
      </trkpt>
      <trkpt lat="43.44367" lon="3.4609">
        <ele>79.199996948242</ele>
        <time>2023-12-19T13:06:57Z</time>
      </trkpt>
      <trkpt lat="43.44366" lon="3.46093">
        <ele>79.400001525879</ele>
        <time>2023-12-19T13:06:58Z</time>
      </trkpt>
      <trkpt lat="43.44365" lon="3.46095">
        <ele>79.599998474121</ele>
        <time>2023-12-19T13:06:59Z</time>
      </trkpt>
      <trkpt lat="43.44365" lon="3.46098">
        <ele>79.800003051758</ele>
        <time>2023-12-19T13:07:00Z</time>
      </trkpt>
      <trkpt lat="43.44365" lon="3.46101">
        <ele>79.800003051758</ele>
        <time>2023-12-19T13:07:01Z</time>
      </trkpt>
      <trkpt lat="43.44364" lon="3.46104">
        <ele>79.800003051758</ele>
        <time>2023-12-19T13:07:02Z</time>
      </trkpt>
      <trkpt lat="43.44363" lon="3.46106">
        <ele>79.800003051758</ele>
        <time>2023-12-19T13:07:03Z</time>
      </trkpt>
      <trkpt lat="43.4436" lon="3.46107">
        <ele>79.599998474121</ele>
        <time>2023-12-19T13:07:04Z</time>
      </trkpt>
      <trkpt lat="43.44358" lon="3.46109">
        <ele>79.400001525879</ele>
        <time>2023-12-19T13:07:05Z</time>
      </trkpt>
      <trkpt lat="43.44356" lon="3.46111">
        <ele>79.400001525879</ele>
        <time>2023-12-19T13:07:06Z</time>
      </trkpt>
      <trkpt lat="43.44356" lon="3.46112">
        <ele>79.199996948242</ele>
        <time>2023-12-19T13:07:07Z</time>
      </trkpt>
      <trkpt lat="43.44355" lon="3.46115">
        <ele>79</ele>
        <time>2023-12-19T13:07:08Z</time>
      </trkpt>
      <trkpt lat="43.44354" lon="3.46117">
        <ele>78.599998474121</ele>
        <time>2023-12-19T13:07:09Z</time>
      </trkpt>
      <trkpt lat="43.44353" lon="3.46119">
        <ele>78.199996948242</ele>
        <time>2023-12-19T13:07:10Z</time>
      </trkpt>
      <trkpt lat="43.44353" lon="3.46122">
        <ele>78</ele>
        <time>2023-12-19T13:07:11Z</time>
      </trkpt>
      <trkpt lat="43.44352" lon="3.46124">
        <ele>77.599998474121</ele>
        <time>2023-12-19T13:07:12Z</time>
      </trkpt>
      <trkpt lat="43.44351" lon="3.46128">
        <ele>77.400001525879</ele>
        <time>2023-12-19T13:07:13Z</time>
      </trkpt>
      <trkpt lat="43.44351" lon="3.46131">
        <ele>77.199996948242</ele>
        <time>2023-12-19T13:07:14Z</time>
      </trkpt>
      <trkpt lat="43.44352" lon="3.46132">
        <ele>77</ele>
        <time>2023-12-19T13:07:15Z</time>
      </trkpt>
      <trkpt lat="43.44354" lon="3.46134">
        <ele>76.599998474121</ele>
        <time>2023-12-19T13:07:16Z</time>
      </trkpt>
      <trkpt lat="43.44356" lon="3.46136">
        <ele>76.400001525879</ele>
        <time>2023-12-19T13:07:17Z</time>
      </trkpt>
      <trkpt lat="43.44357" lon="3.46138">
        <ele>76.199996948242</ele>
        <time>2023-12-19T13:07:18Z</time>
      </trkpt>
      <trkpt lat="43.44358" lon="3.46141">
        <ele>76</ele>
        <time>2023-12-19T13:07:19Z</time>
      </trkpt>
      <trkpt lat="43.44358" lon="3.46143">
        <ele>76</ele>
        <time>2023-12-19T13:07:20Z</time>
      </trkpt>
      <trkpt lat="43.44359" lon="3.46145">
        <ele>76</ele>
        <time>2023-12-19T13:07:21Z</time>
      </trkpt>
      <trkpt lat="43.44359" lon="3.46148">
        <ele>76</ele>
        <time>2023-12-19T13:07:22Z</time>
      </trkpt>
      <trkpt lat="43.4436" lon="3.46151">
        <ele>76</ele>
        <time>2023-12-19T13:07:23Z</time>
      </trkpt>
      <trkpt lat="43.44361" lon="3.46153">
        <ele>76</ele>
        <time>2023-12-19T13:07:24Z</time>
      </trkpt>
      <trkpt lat="43.44362" lon="3.46155">
        <ele>76</ele>
        <time>2023-12-19T13:07:25Z</time>
      </trkpt>
      <trkpt lat="43.44363" lon="3.46158">
        <ele>76</ele>
        <time>2023-12-19T13:07:26Z</time>
      </trkpt>
      <trkpt lat="43.44363" lon="3.4616">
        <ele>75.800003051758</ele>
        <time>2023-12-19T13:07:27Z</time>
      </trkpt>
      <trkpt lat="43.44364" lon="3.46164">
        <ele>75.800003051758</ele>
        <time>2023-12-19T13:07:28Z</time>
      </trkpt>
      <trkpt lat="43.44365" lon="3.46167">
        <ele>75.800003051758</ele>
        <time>2023-12-19T13:07:29Z</time>
      </trkpt>
      <trkpt lat="43.44366" lon="3.4617">
        <ele>75.800003051758</ele>
        <time>2023-12-19T13:07:30Z</time>
      </trkpt>
      <trkpt lat="43.44367" lon="3.46173">
        <ele>75.800003051758</ele>
        <time>2023-12-19T13:07:31Z</time>
      </trkpt>
      <trkpt lat="43.44368" lon="3.46176">
        <ele>75.800003051758</ele>
        <time>2023-12-19T13:07:32Z</time>
      </trkpt>
      <trkpt lat="43.4437" lon="3.46179">
        <ele>75.800003051758</ele>
        <time>2023-12-19T13:07:33Z</time>
      </trkpt>
      <trkpt lat="43.44371" lon="3.46181">
        <ele>75.800003051758</ele>
        <time>2023-12-19T13:07:34Z</time>
      </trkpt>
      <trkpt lat="43.44373" lon="3.46183">
        <ele>75.800003051758</ele>
        <time>2023-12-19T13:07:35Z</time>
      </trkpt>
      <trkpt lat="43.44373" lon="3.46187">
        <ele>75.800003051758</ele>
        <time>2023-12-19T13:07:36Z</time>
      </trkpt>
      <trkpt lat="43.44372" lon="3.4619">
        <ele>75.800003051758</ele>
        <time>2023-12-19T13:07:37Z</time>
      </trkpt>
      <trkpt lat="43.44372" lon="3.46193">
        <ele>75.800003051758</ele>
        <time>2023-12-19T13:07:38Z</time>
      </trkpt>
      <trkpt lat="43.44372" lon="3.46196">
        <ele>75.599998474121</ele>
        <time>2023-12-19T13:07:39Z</time>
      </trkpt>
      <trkpt lat="43.44372" lon="3.46198">
        <ele>75.599998474121</ele>
        <time>2023-12-19T13:07:40Z</time>
      </trkpt>
      <trkpt lat="43.44371" lon="3.46201">
        <ele>75.599998474121</ele>
        <time>2023-12-19T13:07:41Z</time>
      </trkpt>
      <trkpt lat="43.44371" lon="3.46203">
        <ele>75.599998474121</ele>
        <time>2023-12-19T13:07:42Z</time>
      </trkpt>
      <trkpt lat="43.44371" lon="3.46205">
        <ele>75.599998474121</ele>
        <time>2023-12-19T13:07:43Z</time>
      </trkpt>
      <trkpt lat="43.44371" lon="3.46207">
        <ele>75.599998474121</ele>
        <time>2023-12-19T13:07:44Z</time>
      </trkpt>
      <trkpt lat="43.4437" lon="3.4621">
        <ele>75.599998474121</ele>
        <time>2023-12-19T13:07:45Z</time>
      </trkpt>
      <trkpt lat="43.44369" lon="3.46212">
        <ele>75.599998474121</ele>
        <time>2023-12-19T13:07:46Z</time>
      </trkpt>
      <trkpt lat="43.44369" lon="3.46216">
        <ele>75.599998474121</ele>
        <time>2023-12-19T13:07:47Z</time>
      </trkpt>
      <trkpt lat="43.44369" lon="3.4622">
        <ele>75.599998474121</ele>
        <time>2023-12-19T13:07:48Z</time>
      </trkpt>
      <trkpt lat="43.4437" lon="3.46223">
        <ele>75.599998474121</ele>
        <time>2023-12-19T13:07:49Z</time>
      </trkpt>
      <trkpt lat="43.4437" lon="3.46227">
        <ele>75.599998474121</ele>
        <time>2023-12-19T13:07:50Z</time>
      </trkpt>
      <trkpt lat="43.4437" lon="3.4623">
        <ele>75.400001525879</ele>
        <time>2023-12-19T13:07:51Z</time>
      </trkpt>
      <trkpt lat="43.44371" lon="3.46233">
        <ele>75.199996948242</ele>
        <time>2023-12-19T13:07:52Z</time>
      </trkpt>
      <trkpt lat="43.44372" lon="3.46236">
        <ele>75.199996948242</ele>
        <time>2023-12-19T13:07:53Z</time>
      </trkpt>
      <trkpt lat="43.44373" lon="3.46239">
        <ele>75</ele>
        <time>2023-12-19T13:07:54Z</time>
      </trkpt>
      <trkpt lat="43.44375" lon="3.46243">
        <ele>75</ele>
        <time>2023-12-19T13:07:55Z</time>
      </trkpt>
      <trkpt lat="43.44376" lon="3.46247">
        <ele>75</ele>
        <time>2023-12-19T13:07:56Z</time>
      </trkpt>
      <trkpt lat="43.44376" lon="3.4625">
        <ele>75</ele>
        <time>2023-12-19T13:07:57Z</time>
      </trkpt>
      <trkpt lat="43.44377" lon="3.46253">
        <ele>75</ele>
        <time>2023-12-19T13:07:58Z</time>
      </trkpt>
      <trkpt lat="43.44378" lon="3.46256">
        <ele>75</ele>
        <time>2023-12-19T13:07:59Z</time>
      </trkpt>
      <trkpt lat="43.44378" lon="3.46259">
        <ele>75</ele>
        <time>2023-12-19T13:08:00Z</time>
      </trkpt>
      <trkpt lat="43.44378" lon="3.46261">
        <ele>75.199996948242</ele>
        <time>2023-12-19T13:08:01Z</time>
      </trkpt>
      <trkpt lat="43.44378" lon="3.4626">
        <ele>75.400001525879</ele>
        <time>2023-12-19T13:08:02Z</time>
      </trkpt>
      <trkpt lat="43.44378" lon="3.4626">
        <ele>75.400001525879</ele>
        <time>2023-12-19T13:08:03Z</time>
      </trkpt>
      <trkpt lat="43.44376" lon="3.46253">
        <ele>75.599998474121</ele>
        <time>2023-12-19T13:08:19Z</time>
      </trkpt>
      <trkpt lat="43.44375" lon="3.4625">
        <ele>75.599998474121</ele>
        <time>2023-12-19T13:08:20Z</time>
      </trkpt>
      <trkpt lat="43.44374" lon="3.46249">
        <ele>75.400001525879</ele>
        <time>2023-12-19T13:08:21Z</time>
      </trkpt>
      <trkpt lat="43.44372" lon="3.46249">
        <ele>75.400001525879</ele>
        <time>2023-12-19T13:08:22Z</time>
      </trkpt>
      <trkpt lat="43.44371" lon="3.46249">
        <ele>75.400001525879</ele>
        <time>2023-12-19T13:08:23Z</time>
      </trkpt>
      <trkpt lat="43.44369" lon="3.4625">
        <ele>75.400001525879</ele>
        <time>2023-12-19T13:08:24Z</time>
      </trkpt>
      <trkpt lat="43.44367" lon="3.46252">
        <ele>75.199996948242</ele>
        <time>2023-12-19T13:08:25Z</time>
      </trkpt>
      <trkpt lat="43.44365" lon="3.46253">
        <ele>75.199996948242</ele>
        <time>2023-12-19T13:08:26Z</time>
      </trkpt>
      <trkpt lat="43.44363" lon="3.46255">
        <ele>75</ele>
        <time>2023-12-19T13:08:27Z</time>
      </trkpt>
      <trkpt lat="43.44361" lon="3.46257">
        <ele>74.800003051758</ele>
        <time>2023-12-19T13:08:28Z</time>
      </trkpt>
      <trkpt lat="43.44359" lon="3.46257">
        <ele>74.400001525879</ele>
        <time>2023-12-19T13:08:29Z</time>
      </trkpt>
      <trkpt lat="43.44356" lon="3.46255">
        <ele>73.599998474121</ele>
        <time>2023-12-19T13:08:30Z</time>
      </trkpt>
      <trkpt lat="43.44352" lon="3.46253">
        <ele>73</ele>
        <time>2023-12-19T13:08:31Z</time>
      </trkpt>
      <trkpt lat="43.44348" lon="3.46251">
        <ele>72.599998474121</ele>
        <time>2023-12-19T13:08:32Z</time>
      </trkpt>
      <trkpt lat="43.44346" lon="3.46251">
        <ele>72</ele>
        <time>2023-12-19T13:08:33Z</time>
      </trkpt>
      <trkpt lat="43.44344" lon="3.46251">
        <ele>71.199996948242</ele>
        <time>2023-12-19T13:08:34Z</time>
      </trkpt>
      <trkpt lat="43.44342" lon="3.46252">
        <ele>70.400001525879</ele>
        <time>2023-12-19T13:08:35Z</time>
      </trkpt>
      <trkpt lat="43.44339" lon="3.46252">
        <ele>70</ele>
        <time>2023-12-19T13:08:36Z</time>
      </trkpt>
      <trkpt lat="43.44336" lon="3.46254">
        <ele>69.800003051758</ele>
        <time>2023-12-19T13:08:37Z</time>
      </trkpt>
      <trkpt lat="43.44333" lon="3.46255">
        <ele>69.599998474121</ele>
        <time>2023-12-19T13:08:38Z</time>
      </trkpt>
      <trkpt lat="43.44331" lon="3.46256">
        <ele>69.199996948242</ele>
        <time>2023-12-19T13:08:39Z</time>
      </trkpt>
      <trkpt lat="43.44328" lon="3.46257">
        <ele>69</ele>
        <time>2023-12-19T13:08:40Z</time>
      </trkpt>
      <trkpt lat="43.44326" lon="3.46259">
        <ele>68.400001525879</ele>
        <time>2023-12-19T13:08:41Z</time>
      </trkpt>
      <trkpt lat="43.44324" lon="3.46261">
        <ele>68</ele>
        <time>2023-12-19T13:08:42Z</time>
      </trkpt>
      <trkpt lat="43.44322" lon="3.46264">
        <ele>67.400001525879</ele>
        <time>2023-12-19T13:08:43Z</time>
      </trkpt>
      <trkpt lat="43.4432" lon="3.46267">
        <ele>66.800003051758</ele>
        <time>2023-12-19T13:08:44Z</time>
      </trkpt>
      <trkpt lat="43.44318" lon="3.46271">
        <ele>66.400001525879</ele>
        <time>2023-12-19T13:08:45Z</time>
      </trkpt>
      <trkpt lat="43.44317" lon="3.46274">
        <ele>66</ele>
        <time>2023-12-19T13:08:46Z</time>
      </trkpt>
      <trkpt lat="43.44315" lon="3.46278">
        <ele>65.800003051758</ele>
        <time>2023-12-19T13:08:47Z</time>
      </trkpt>
      <trkpt lat="43.44313" lon="3.46279">
        <ele>65.599998474121</ele>
        <time>2023-12-19T13:08:48Z</time>
      </trkpt>
      <trkpt lat="43.4431" lon="3.4628">
        <ele>65.199996948242</ele>
        <time>2023-12-19T13:08:49Z</time>
      </trkpt>
      <trkpt lat="43.44307" lon="3.4628">
        <ele>64.800003051758</ele>
        <time>2023-12-19T13:08:50Z</time>
      </trkpt>
      <trkpt lat="43.44305" lon="3.4628">
        <ele>64.599998474121</ele>
        <time>2023-12-19T13:08:51Z</time>
      </trkpt>
      <trkpt lat="43.44302" lon="3.46279">
        <ele>64.199996948242</ele>
        <time>2023-12-19T13:08:52Z</time>
      </trkpt>
      <trkpt lat="43.443" lon="3.46278">
        <ele>63.799999237061</ele>
        <time>2023-12-19T13:08:53Z</time>
      </trkpt>
      <trkpt lat="43.44296" lon="3.46277">
        <ele>63.400001525879</ele>
        <time>2023-12-19T13:08:54Z</time>
      </trkpt>
      <trkpt lat="43.44293" lon="3.46276">
        <ele>63.400001525879</ele>
        <time>2023-12-19T13:08:55Z</time>
      </trkpt>
      <trkpt lat="43.4429" lon="3.46276">
        <ele>63</ele>
        <time>2023-12-19T13:08:56Z</time>
      </trkpt>
      <trkpt lat="43.44287" lon="3.46275">
        <ele>62.599998474121</ele>
        <time>2023-12-19T13:08:57Z</time>
      </trkpt>
      <trkpt lat="43.44284" lon="3.46276">
        <ele>62.400001525879</ele>
        <time>2023-12-19T13:08:58Z</time>
      </trkpt>
      <trkpt lat="43.44281" lon="3.46276">
        <ele>62</ele>
        <time>2023-12-19T13:08:59Z</time>
      </trkpt>
      <trkpt lat="43.4428" lon="3.46277">
        <ele>61.799999237061</ele>
        <time>2023-12-19T13:09:00Z</time>
      </trkpt>
      <trkpt lat="43.44278" lon="3.46278">
        <ele>61.799999237061</ele>
        <time>2023-12-19T13:09:01Z</time>
      </trkpt>
      <trkpt lat="43.44276" lon="3.4628">
        <ele>61.799999237061</ele>
        <time>2023-12-19T13:09:02Z</time>
      </trkpt>
      <trkpt lat="43.44274" lon="3.46281">
        <ele>61.799999237061</ele>
        <time>2023-12-19T13:09:03Z</time>
      </trkpt>
      <trkpt lat="43.44271" lon="3.46283">
        <ele>61.599998474121</ele>
        <time>2023-12-19T13:09:04Z</time>
      </trkpt>
      <trkpt lat="43.44268" lon="3.46285">
        <ele>61.599998474121</ele>
        <time>2023-12-19T13:09:05Z</time>
      </trkpt>
      <trkpt lat="43.44264" lon="3.46288">
        <ele>61.400001525879</ele>
        <time>2023-12-19T13:09:06Z</time>
      </trkpt>
      <trkpt lat="43.44261" lon="3.46291">
        <ele>61</ele>
        <time>2023-12-19T13:09:07Z</time>
      </trkpt>
      <trkpt lat="43.44258" lon="3.46294">
        <ele>60.400001525879</ele>
        <time>2023-12-19T13:09:08Z</time>
      </trkpt>
      <trkpt lat="43.44255" lon="3.46294">
        <ele>60</ele>
        <time>2023-12-19T13:09:09Z</time>
      </trkpt>
      <trkpt lat="43.44252" lon="3.46294">
        <ele>59.400001525879</ele>
        <time>2023-12-19T13:09:10Z</time>
      </trkpt>
      <trkpt lat="43.4425" lon="3.46293">
        <ele>58.799999237061</ele>
        <time>2023-12-19T13:09:11Z</time>
      </trkpt>
      <trkpt lat="43.44248" lon="3.46292">
        <ele>58.400001525879</ele>
        <time>2023-12-19T13:09:12Z</time>
      </trkpt>
      <trkpt lat="43.44244" lon="3.46292">
        <ele>58</ele>
        <time>2023-12-19T13:09:13Z</time>
      </trkpt>
      <trkpt lat="43.44241" lon="3.46291">
        <ele>57.799999237061</ele>
        <time>2023-12-19T13:09:14Z</time>
      </trkpt>
      <trkpt lat="43.44237" lon="3.46291">
        <ele>57.599998474121</ele>
        <time>2023-12-19T13:09:15Z</time>
      </trkpt>
      <trkpt lat="43.44234" lon="3.46291">
        <ele>57.400001525879</ele>
        <time>2023-12-19T13:09:16Z</time>
      </trkpt>
      <trkpt lat="43.44232" lon="3.46291">
        <ele>57.200000762939</ele>
        <time>2023-12-19T13:09:17Z</time>
      </trkpt>
      <trkpt lat="43.4423" lon="3.46292">
        <ele>57</ele>
        <time>2023-12-19T13:09:18Z</time>
      </trkpt>
      <trkpt lat="43.44228" lon="3.46293">
        <ele>56.799999237061</ele>
        <time>2023-12-19T13:09:19Z</time>
      </trkpt>
      <trkpt lat="43.44226" lon="3.46295">
        <ele>56.599998474121</ele>
        <time>2023-12-19T13:09:20Z</time>
      </trkpt>
      <trkpt lat="43.44223" lon="3.46296">
        <ele>56.400001525879</ele>
        <time>2023-12-19T13:09:21Z</time>
      </trkpt>
      <trkpt lat="43.4422" lon="3.46297">
        <ele>56.400001525879</ele>
        <time>2023-12-19T13:09:22Z</time>
      </trkpt>
      <trkpt lat="43.44218" lon="3.46296">
        <ele>56.200000762939</ele>
        <time>2023-12-19T13:09:23Z</time>
      </trkpt>
      <trkpt lat="43.44215" lon="3.46296">
        <ele>56.200000762939</ele>
        <time>2023-12-19T13:09:24Z</time>
      </trkpt>
      <trkpt lat="43.44212" lon="3.46296">
        <ele>56</ele>
        <time>2023-12-19T13:09:25Z</time>
      </trkpt>
      <trkpt lat="43.4421" lon="3.46296">
        <ele>56</ele>
        <time>2023-12-19T13:09:26Z</time>
      </trkpt>
      <trkpt lat="43.44207" lon="3.46297">
        <ele>56</ele>
        <time>2023-12-19T13:09:27Z</time>
      </trkpt>
      <trkpt lat="43.44206" lon="3.46299">
        <ele>56</ele>
        <time>2023-12-19T13:09:28Z</time>
      </trkpt>
      <trkpt lat="43.44204" lon="3.463">
        <ele>55.799999237061</ele>
        <time>2023-12-19T13:09:29Z</time>
      </trkpt>
      <trkpt lat="43.44202" lon="3.46301">
        <ele>55.799999237061</ele>
        <time>2023-12-19T13:09:30Z</time>
      </trkpt>
      <trkpt lat="43.44199" lon="3.46303">
        <ele>55.799999237061</ele>
        <time>2023-12-19T13:09:31Z</time>
      </trkpt>
      <trkpt lat="43.44198" lon="3.46305">
        <ele>55.799999237061</ele>
        <time>2023-12-19T13:09:32Z</time>
      </trkpt>
      <trkpt lat="43.44197" lon="3.46308">
        <ele>55.799999237061</ele>
        <time>2023-12-19T13:09:33Z</time>
      </trkpt>
      <trkpt lat="43.44196" lon="3.46311">
        <ele>55.799999237061</ele>
        <time>2023-12-19T13:09:34Z</time>
      </trkpt>
      <trkpt lat="43.44195" lon="3.46314">
        <ele>55.599998474121</ele>
        <time>2023-12-19T13:09:35Z</time>
      </trkpt>
      <trkpt lat="43.44193" lon="3.46317">
        <ele>55.599998474121</ele>
        <time>2023-12-19T13:09:36Z</time>
      </trkpt>
      <trkpt lat="43.44191" lon="3.46319">
        <ele>55.599998474121</ele>
        <time>2023-12-19T13:09:37Z</time>
      </trkpt>
      <trkpt lat="43.44188" lon="3.46321">
        <ele>55.599998474121</ele>
        <time>2023-12-19T13:09:38Z</time>
      </trkpt>
      <trkpt lat="43.44186" lon="3.46322">
        <ele>55.599998474121</ele>
        <time>2023-12-19T13:09:39Z</time>
      </trkpt>
      <trkpt lat="43.44183" lon="3.46322">
        <ele>55.599998474121</ele>
        <time>2023-12-19T13:09:40Z</time>
      </trkpt>
      <trkpt lat="43.44181" lon="3.46323">
        <ele>55.599998474121</ele>
        <time>2023-12-19T13:09:41Z</time>
      </trkpt>
      <trkpt lat="43.44178" lon="3.46324">
        <ele>55.599998474121</ele>
        <time>2023-12-19T13:09:42Z</time>
      </trkpt>
      <trkpt lat="43.44176" lon="3.46326">
        <ele>55.799999237061</ele>
        <time>2023-12-19T13:09:43Z</time>
      </trkpt>
      <trkpt lat="43.44175" lon="3.46328">
        <ele>55.799999237061</ele>
        <time>2023-12-19T13:09:44Z</time>
      </trkpt>
      <trkpt lat="43.44174" lon="3.46331">
        <ele>55.799999237061</ele>
        <time>2023-12-19T13:09:45Z</time>
      </trkpt>
      <trkpt lat="43.44172" lon="3.46334">
        <ele>55.799999237061</ele>
        <time>2023-12-19T13:09:46Z</time>
      </trkpt>
      <trkpt lat="43.44171" lon="3.46338">
        <ele>55.599998474121</ele>
        <time>2023-12-19T13:09:47Z</time>
      </trkpt>
      <trkpt lat="43.4417" lon="3.4634">
        <ele>55.400001525879</ele>
        <time>2023-12-19T13:09:48Z</time>
      </trkpt>
      <trkpt lat="43.44168" lon="3.46342">
        <ele>55.200000762939</ele>
        <time>2023-12-19T13:09:49Z</time>
      </trkpt>
      <trkpt lat="43.44166" lon="3.46344">
        <ele>55</ele>
        <time>2023-12-19T13:09:50Z</time>
      </trkpt>
      <trkpt lat="43.44164" lon="3.46346">
        <ele>54.799999237061</ele>
        <time>2023-12-19T13:09:51Z</time>
      </trkpt>
      <trkpt lat="43.44162" lon="3.46348">
        <ele>54.599998474121</ele>
        <time>2023-12-19T13:09:52Z</time>
      </trkpt>
      <trkpt lat="43.44159" lon="3.46349">
        <ele>54.400001525879</ele>
        <time>2023-12-19T13:09:53Z</time>
      </trkpt>
      <trkpt lat="43.44155" lon="3.46349">
        <ele>54</ele>
        <time>2023-12-19T13:09:54Z</time>
      </trkpt>
      <trkpt lat="43.44151" lon="3.46349">
        <ele>53.599998474121</ele>
        <time>2023-12-19T13:09:55Z</time>
      </trkpt>
      <trkpt lat="43.44148" lon="3.46349">
        <ele>53.200000762939</ele>
        <time>2023-12-19T13:09:56Z</time>
      </trkpt>
      <trkpt lat="43.44145" lon="3.4635">
        <ele>52.599998474121</ele>
        <time>2023-12-19T13:09:57Z</time>
      </trkpt>
      <trkpt lat="43.44144" lon="3.46351">
        <ele>52</ele>
        <time>2023-12-19T13:09:58Z</time>
      </trkpt>
      <trkpt lat="43.44143" lon="3.46353">
        <ele>51.599998474121</ele>
        <time>2023-12-19T13:09:59Z</time>
      </trkpt>
      <trkpt lat="43.44142" lon="3.46355">
        <ele>51.400001525879</ele>
        <time>2023-12-19T13:10:00Z</time>
      </trkpt>
      <trkpt lat="43.44142" lon="3.46358">
        <ele>51.200000762939</ele>
        <time>2023-12-19T13:10:01Z</time>
      </trkpt>
      <trkpt lat="43.44143" lon="3.46361">
        <ele>51.200000762939</ele>
        <time>2023-12-19T13:10:02Z</time>
      </trkpt>
      <trkpt lat="43.44144" lon="3.46363">
        <ele>51.200000762939</ele>
        <time>2023-12-19T13:10:03Z</time>
      </trkpt>
      <trkpt lat="43.44145" lon="3.46364">
        <ele>51.200000762939</ele>
        <time>2023-12-19T13:10:04Z</time>
      </trkpt>
      <trkpt lat="43.44147" lon="3.46365">
        <ele>51</ele>
        <time>2023-12-19T13:10:05Z</time>
      </trkpt>
      <trkpt lat="43.44149" lon="3.46365">
        <ele>50.799999237061</ele>
        <time>2023-12-19T13:10:06Z</time>
      </trkpt>
      <trkpt lat="43.44151" lon="3.46366">
        <ele>50.799999237061</ele>
        <time>2023-12-19T13:10:07Z</time>
      </trkpt>
      <trkpt lat="43.44153" lon="3.46367">
        <ele>50.799999237061</ele>
        <time>2023-12-19T13:10:08Z</time>
      </trkpt>
      <trkpt lat="43.44155" lon="3.46368">
        <ele>50.799999237061</ele>
        <time>2023-12-19T13:10:09Z</time>
      </trkpt>
      <trkpt lat="43.44157" lon="3.46369">
        <ele>50.799999237061</ele>
        <time>2023-12-19T13:10:10Z</time>
      </trkpt>
      <trkpt lat="43.44159" lon="3.46371">
        <ele>50.799999237061</ele>
        <time>2023-12-19T13:10:11Z</time>
      </trkpt>
      <trkpt lat="43.44161" lon="3.46374">
        <ele>50.799999237061</ele>
        <time>2023-12-19T13:10:12Z</time>
      </trkpt>
      <trkpt lat="43.44162" lon="3.46376">
        <ele>50.799999237061</ele>
        <time>2023-12-19T13:10:13Z</time>
      </trkpt>
      <trkpt lat="43.44164" lon="3.46378">
        <ele>50.799999237061</ele>
        <time>2023-12-19T13:10:14Z</time>
      </trkpt>
      <trkpt lat="43.44166" lon="3.4638">
        <ele>50.799999237061</ele>
        <time>2023-12-19T13:10:15Z</time>
      </trkpt>
      <trkpt lat="43.44168" lon="3.46382">
        <ele>50.799999237061</ele>
        <time>2023-12-19T13:10:16Z</time>
      </trkpt>
      <trkpt lat="43.44169" lon="3.46384">
        <ele>51</ele>
        <time>2023-12-19T13:10:17Z</time>
      </trkpt>
      <trkpt lat="43.44171" lon="3.46386">
        <ele>51</ele>
        <time>2023-12-19T13:10:18Z</time>
      </trkpt>
      <trkpt lat="43.44173" lon="3.46388">
        <ele>51</ele>
        <time>2023-12-19T13:10:19Z</time>
      </trkpt>
      <trkpt lat="43.44175" lon="3.46389">
        <ele>51.200000762939</ele>
        <time>2023-12-19T13:10:20Z</time>
      </trkpt>
      <trkpt lat="43.44177" lon="3.46391">
        <ele>51.200000762939</ele>
        <time>2023-12-19T13:10:21Z</time>
      </trkpt>
      <trkpt lat="43.44179" lon="3.46393">
        <ele>51.400001525879</ele>
        <time>2023-12-19T13:10:22Z</time>
      </trkpt>
      <trkpt lat="43.44181" lon="3.46394">
        <ele>51.599998474121</ele>
        <time>2023-12-19T13:10:23Z</time>
      </trkpt>
      <trkpt lat="43.44183" lon="3.46396">
        <ele>51.599998474121</ele>
        <time>2023-12-19T13:10:24Z</time>
      </trkpt>
      <trkpt lat="43.44185" lon="3.46398">
        <ele>51.599998474121</ele>
        <time>2023-12-19T13:10:25Z</time>
      </trkpt>
      <trkpt lat="43.44187" lon="3.464">
        <ele>51.799999237061</ele>
        <time>2023-12-19T13:10:26Z</time>
      </trkpt>
      <trkpt lat="43.4419" lon="3.46402">
        <ele>51.799999237061</ele>
        <time>2023-12-19T13:10:27Z</time>
      </trkpt>
      <trkpt lat="43.44193" lon="3.46403">
        <ele>51.799999237061</ele>
        <time>2023-12-19T13:10:28Z</time>
      </trkpt>
      <trkpt lat="43.44196" lon="3.46405">
        <ele>52</ele>
        <time>2023-12-19T13:10:29Z</time>
      </trkpt>
      <trkpt lat="43.44199" lon="3.46407">
        <ele>52</ele>
        <time>2023-12-19T13:10:30Z</time>
      </trkpt>
      <trkpt lat="43.44202" lon="3.46409">
        <ele>52</ele>
        <time>2023-12-19T13:10:31Z</time>
      </trkpt>
      <trkpt lat="43.44204" lon="3.46412">
        <ele>52</ele>
        <time>2023-12-19T13:10:32Z</time>
      </trkpt>
      <trkpt lat="43.44207" lon="3.46413">
        <ele>52</ele>
        <time>2023-12-19T13:10:33Z</time>
      </trkpt>
      <trkpt lat="43.44209" lon="3.46415">
        <ele>52</ele>
        <time>2023-12-19T13:10:34Z</time>
      </trkpt>
      <trkpt lat="43.44212" lon="3.46417">
        <ele>52</ele>
        <time>2023-12-19T13:10:35Z</time>
      </trkpt>
      <trkpt lat="43.44215" lon="3.46418">
        <ele>52.200000762939</ele>
        <time>2023-12-19T13:10:36Z</time>
      </trkpt>
      <trkpt lat="43.44218" lon="3.46418">
        <ele>52.200000762939</ele>
        <time>2023-12-19T13:10:37Z</time>
      </trkpt>
      <trkpt lat="43.44221" lon="3.46419">
        <ele>52.200000762939</ele>
        <time>2023-12-19T13:10:38Z</time>
      </trkpt>
      <trkpt lat="43.44223" lon="3.4642">
        <ele>52.200000762939</ele>
        <time>2023-12-19T13:10:39Z</time>
      </trkpt>
      <trkpt lat="43.44226" lon="3.46421">
        <ele>52.400001525879</ele>
        <time>2023-12-19T13:10:40Z</time>
      </trkpt>
      <trkpt lat="43.4423" lon="3.46421">
        <ele>52.400001525879</ele>
        <time>2023-12-19T13:10:41Z</time>
      </trkpt>
      <trkpt lat="43.44232" lon="3.46422">
        <ele>52.400001525879</ele>
        <time>2023-12-19T13:10:42Z</time>
      </trkpt>
      <trkpt lat="43.44235" lon="3.46423">
        <ele>52.599998474121</ele>
        <time>2023-12-19T13:10:43Z</time>
      </trkpt>
      <trkpt lat="43.44237" lon="3.46424">
        <ele>52.599998474121</ele>
        <time>2023-12-19T13:10:44Z</time>
      </trkpt>
      <trkpt lat="43.4424" lon="3.46424">
        <ele>52.599998474121</ele>
        <time>2023-12-19T13:10:45Z</time>
      </trkpt>
      <trkpt lat="43.44242" lon="3.46425">
        <ele>52.599998474121</ele>
        <time>2023-12-19T13:10:46Z</time>
      </trkpt>
      <trkpt lat="43.44246" lon="3.46426">
        <ele>52.799999237061</ele>
        <time>2023-12-19T13:10:47Z</time>
      </trkpt>
      <trkpt lat="43.44249" lon="3.46427">
        <ele>53</ele>
        <time>2023-12-19T13:10:48Z</time>
      </trkpt>
      <trkpt lat="43.44251" lon="3.46429">
        <ele>53.200000762939</ele>
        <time>2023-12-19T13:10:49Z</time>
      </trkpt>
      <trkpt lat="43.44253" lon="3.4643">
        <ele>53.200000762939</ele>
        <time>2023-12-19T13:10:50Z</time>
      </trkpt>
      <trkpt lat="43.44256" lon="3.46432">
        <ele>53.400001525879</ele>
        <time>2023-12-19T13:10:51Z</time>
      </trkpt>
      <trkpt lat="43.44259" lon="3.46435">
        <ele>53.400001525879</ele>
        <time>2023-12-19T13:10:52Z</time>
      </trkpt>
      <trkpt lat="43.44261" lon="3.46437">
        <ele>53.400001525879</ele>
        <time>2023-12-19T13:10:53Z</time>
      </trkpt>
      <trkpt lat="43.44263" lon="3.4644">
        <ele>53.400001525879</ele>
        <time>2023-12-19T13:10:54Z</time>
      </trkpt>
      <trkpt lat="43.44265" lon="3.46443">
        <ele>53.400001525879</ele>
        <time>2023-12-19T13:10:55Z</time>
      </trkpt>
      <trkpt lat="43.44267" lon="3.46446">
        <ele>53.599998474121</ele>
        <time>2023-12-19T13:10:56Z</time>
      </trkpt>
      <trkpt lat="43.44268" lon="3.4645">
        <ele>53.599998474121</ele>
        <time>2023-12-19T13:10:57Z</time>
      </trkpt>
      <trkpt lat="43.4427" lon="3.46454">
        <ele>53.599998474121</ele>
        <time>2023-12-19T13:10:58Z</time>
      </trkpt>
      <trkpt lat="43.44271" lon="3.46458">
        <ele>53.599998474121</ele>
        <time>2023-12-19T13:10:59Z</time>
      </trkpt>
      <trkpt lat="43.44272" lon="3.46462">
        <ele>53.599998474121</ele>
        <time>2023-12-19T13:11:00Z</time>
      </trkpt>
      <trkpt lat="43.44274" lon="3.46465">
        <ele>53.599998474121</ele>
        <time>2023-12-19T13:11:01Z</time>
      </trkpt>
      <trkpt lat="43.44275" lon="3.46469">
        <ele>53.599998474121</ele>
        <time>2023-12-19T13:11:02Z</time>
      </trkpt>
      <trkpt lat="43.44277" lon="3.46473">
        <ele>53.599998474121</ele>
        <time>2023-12-19T13:11:03Z</time>
      </trkpt>
      <trkpt lat="43.44278" lon="3.46476">
        <ele>53.799999237061</ele>
        <time>2023-12-19T13:11:04Z</time>
      </trkpt>
      <trkpt lat="43.44279" lon="3.4648">
        <ele>53.799999237061</ele>
        <time>2023-12-19T13:11:05Z</time>
      </trkpt>
      <trkpt lat="43.4428" lon="3.46484">
        <ele>53.799999237061</ele>
        <time>2023-12-19T13:11:06Z</time>
      </trkpt>
      <trkpt lat="43.44281" lon="3.46487">
        <ele>53.799999237061</ele>
        <time>2023-12-19T13:11:07Z</time>
      </trkpt>
      <trkpt lat="43.44282" lon="3.4649">
        <ele>54</ele>
        <time>2023-12-19T13:11:08Z</time>
      </trkpt>
      <trkpt lat="43.44282" lon="3.46494">
        <ele>54</ele>
        <time>2023-12-19T13:11:09Z</time>
      </trkpt>
      <trkpt lat="43.44283" lon="3.46498">
        <ele>54</ele>
        <time>2023-12-19T13:11:10Z</time>
      </trkpt>
      <trkpt lat="43.44283" lon="3.46502">
        <ele>54.200000762939</ele>
        <time>2023-12-19T13:11:11Z</time>
      </trkpt>
      <trkpt lat="43.44283" lon="3.46506">
        <ele>54.200000762939</ele>
        <time>2023-12-19T13:11:12Z</time>
      </trkpt>
      <trkpt lat="43.44283" lon="3.4651">
        <ele>54.400001525879</ele>
        <time>2023-12-19T13:11:13Z</time>
      </trkpt>
      <trkpt lat="43.44283" lon="3.46514">
        <ele>54.400001525879</ele>
        <time>2023-12-19T13:11:14Z</time>
      </trkpt>
      <trkpt lat="43.44283" lon="3.46517">
        <ele>54.400001525879</ele>
        <time>2023-12-19T13:11:15Z</time>
      </trkpt>
      <trkpt lat="43.44283" lon="3.46521">
        <ele>54.400001525879</ele>
        <time>2023-12-19T13:11:16Z</time>
      </trkpt>
      <trkpt lat="43.44284" lon="3.46524">
        <ele>54.599998474121</ele>
        <time>2023-12-19T13:11:17Z</time>
      </trkpt>
      <trkpt lat="43.44284" lon="3.46527">
        <ele>54.599998474121</ele>
        <time>2023-12-19T13:11:18Z</time>
      </trkpt>
      <trkpt lat="43.44284" lon="3.46529">
        <ele>54.599998474121</ele>
        <time>2023-12-19T13:11:19Z</time>
      </trkpt>
      <trkpt lat="43.44284" lon="3.46532">
        <ele>54.599998474121</ele>
        <time>2023-12-19T13:11:20Z</time>
      </trkpt>
      <trkpt lat="43.44283" lon="3.46534">
        <ele>54.599998474121</ele>
        <time>2023-12-19T13:11:21Z</time>
      </trkpt>
      <trkpt lat="43.44282" lon="3.46537">
        <ele>54.599998474121</ele>
        <time>2023-12-19T13:11:22Z</time>
      </trkpt>
      <trkpt lat="43.44283" lon="3.4654">
        <ele>54.599998474121</ele>
        <time>2023-12-19T13:11:23Z</time>
      </trkpt>
      <trkpt lat="43.44284" lon="3.46542">
        <ele>54.599998474121</ele>
        <time>2023-12-19T13:11:24Z</time>
      </trkpt>
      <trkpt lat="43.44285" lon="3.46544">
        <ele>54.799999237061</ele>
        <time>2023-12-19T13:11:25Z</time>
      </trkpt>
      <trkpt lat="43.44287" lon="3.46546">
        <ele>55</ele>
        <time>2023-12-19T13:11:26Z</time>
      </trkpt>
      <trkpt lat="43.4429" lon="3.46547">
        <ele>55</ele>
        <time>2023-12-19T13:11:27Z</time>
      </trkpt>
      <trkpt lat="43.44293" lon="3.46546">
        <ele>55.200000762939</ele>
        <time>2023-12-19T13:11:28Z</time>
      </trkpt>
      <trkpt lat="43.44294" lon="3.46544">
        <ele>55.200000762939</ele>
        <time>2023-12-19T13:11:29Z</time>
      </trkpt>
      <trkpt lat="43.44295" lon="3.46542">
        <ele>55.400001525879</ele>
        <time>2023-12-19T13:11:30Z</time>
      </trkpt>
      <trkpt lat="43.44296" lon="3.46542">
        <ele>55.400001525879</ele>
        <time>2023-12-19T13:11:31Z</time>
      </trkpt>
      <trkpt lat="43.44298" lon="3.46542">
        <ele>55.799999237061</ele>
        <time>2023-12-19T13:11:32Z</time>
      </trkpt>
      <trkpt lat="43.443" lon="3.46541">
        <ele>56.200000762939</ele>
        <time>2023-12-19T13:11:33Z</time>
      </trkpt>
      <trkpt lat="43.44302" lon="3.4654">
        <ele>56.599998474121</ele>
        <time>2023-12-19T13:11:34Z</time>
      </trkpt>
      <trkpt lat="43.44305" lon="3.4654">
        <ele>57.200000762939</ele>
        <time>2023-12-19T13:11:35Z</time>
      </trkpt>
      <trkpt lat="43.44308" lon="3.4654">
        <ele>57.400001525879</ele>
        <time>2023-12-19T13:11:36Z</time>
      </trkpt>
      <trkpt lat="43.44309" lon="3.46537">
        <ele>57.599998474121</ele>
        <time>2023-12-19T13:11:37Z</time>
      </trkpt>
      <trkpt lat="43.44309" lon="3.46534">
        <ele>58</ele>
        <time>2023-12-19T13:11:38Z</time>
      </trkpt>
      <trkpt lat="43.4431" lon="3.46531">
        <ele>58.400001525879</ele>
        <time>2023-12-19T13:11:39Z</time>
      </trkpt>
      <trkpt lat="43.44311" lon="3.46529">
        <ele>58.799999237061</ele>
        <time>2023-12-19T13:11:40Z</time>
      </trkpt>
      <trkpt lat="43.44313" lon="3.46526">
        <ele>59.200000762939</ele>
        <time>2023-12-19T13:11:41Z</time>
      </trkpt>
      <trkpt lat="43.44315" lon="3.46525">
        <ele>59.400001525879</ele>
        <time>2023-12-19T13:11:42Z</time>
      </trkpt>
      <trkpt lat="43.44316" lon="3.46523">
        <ele>59.599998474121</ele>
        <time>2023-12-19T13:11:43Z</time>
      </trkpt>
      <trkpt lat="43.44318" lon="3.46521">
        <ele>59.799999237061</ele>
        <time>2023-12-19T13:11:44Z</time>
      </trkpt>
      <trkpt lat="43.4432" lon="3.4652">
        <ele>60</ele>
        <time>2023-12-19T13:11:45Z</time>
      </trkpt>
      <trkpt lat="43.44321" lon="3.46518">
        <ele>60.200000762939</ele>
        <time>2023-12-19T13:11:46Z</time>
      </trkpt>
      <trkpt lat="43.44323" lon="3.46517">
        <ele>60.400001525879</ele>
        <time>2023-12-19T13:11:47Z</time>
      </trkpt>
      <trkpt lat="43.44325" lon="3.46516">
        <ele>60.799999237061</ele>
        <time>2023-12-19T13:11:48Z</time>
      </trkpt>
      <trkpt lat="43.44327" lon="3.46514">
        <ele>61</ele>
        <time>2023-12-19T13:11:49Z</time>
      </trkpt>
      <trkpt lat="43.4433" lon="3.46513">
        <ele>61.200000762939</ele>
        <time>2023-12-19T13:11:50Z</time>
      </trkpt>
      <trkpt lat="43.44332" lon="3.46514">
        <ele>61.200000762939</ele>
        <time>2023-12-19T13:11:51Z</time>
      </trkpt>
      <trkpt lat="43.44335" lon="3.46515">
        <ele>61.200000762939</ele>
        <time>2023-12-19T13:11:52Z</time>
      </trkpt>
      <trkpt lat="43.44337" lon="3.46515">
        <ele>61.400001525879</ele>
        <time>2023-12-19T13:11:53Z</time>
      </trkpt>
      <trkpt lat="43.44338" lon="3.46515">
        <ele>61.599998474121</ele>
        <time>2023-12-19T13:11:54Z</time>
      </trkpt>
      <trkpt lat="43.4434" lon="3.46516">
        <ele>62</ele>
        <time>2023-12-19T13:11:55Z</time>
      </trkpt>
      <trkpt lat="43.44342" lon="3.46516">
        <ele>62.400001525879</ele>
        <time>2023-12-19T13:11:56Z</time>
      </trkpt>
      <trkpt lat="43.44344" lon="3.46516">
        <ele>62.799999237061</ele>
        <time>2023-12-19T13:11:57Z</time>
      </trkpt>
      <trkpt lat="43.44346" lon="3.46516">
        <ele>62.799999237061</ele>
        <time>2023-12-19T13:11:58Z</time>
      </trkpt>
      <trkpt lat="43.44347" lon="3.46517">
        <ele>62.799999237061</ele>
        <time>2023-12-19T13:11:59Z</time>
      </trkpt>
      <trkpt lat="43.44348" lon="3.46517">
        <ele>62.799999237061</ele>
        <time>2023-12-19T13:12:00Z</time>
      </trkpt>
      <trkpt lat="43.44348" lon="3.46517">
        <ele>62.799999237061</ele>
        <time>2023-12-19T13:12:01Z</time>
      </trkpt>
      <trkpt lat="43.4435" lon="3.46517">
        <ele>62.799999237061</ele>
        <time>2023-12-19T13:12:20Z</time>
      </trkpt>
      <trkpt lat="43.44352" lon="3.46517">
        <ele>62.599998474121</ele>
        <time>2023-12-19T13:12:21Z</time>
      </trkpt>
      <trkpt lat="43.44353" lon="3.46517">
        <ele>62.599998474121</ele>
        <time>2023-12-19T13:12:22Z</time>
      </trkpt>
      <trkpt lat="43.44356" lon="3.46516">
        <ele>62.599998474121</ele>
        <time>2023-12-19T13:12:23Z</time>
      </trkpt>
      <trkpt lat="43.44358" lon="3.46516">
        <ele>62.599998474121</ele>
        <time>2023-12-19T13:12:24Z</time>
      </trkpt>
      <trkpt lat="43.4436" lon="3.46518">
        <ele>62.599998474121</ele>
        <time>2023-12-19T13:12:25Z</time>
      </trkpt>
      <trkpt lat="43.44362" lon="3.46519">
        <ele>62.599998474121</ele>
        <time>2023-12-19T13:12:26Z</time>
      </trkpt>
      <trkpt lat="43.44365" lon="3.46519">
        <ele>62.599998474121</ele>
        <time>2023-12-19T13:12:27Z</time>
      </trkpt>
      <trkpt lat="43.44367" lon="3.4652">
        <ele>62.599998474121</ele>
        <time>2023-12-19T13:12:28Z</time>
      </trkpt>
      <trkpt lat="43.44369" lon="3.46521">
        <ele>62.799999237061</ele>
        <time>2023-12-19T13:12:29Z</time>
      </trkpt>
      <trkpt lat="43.44371" lon="3.46524">
        <ele>63</ele>
        <time>2023-12-19T13:12:30Z</time>
      </trkpt>
      <trkpt lat="43.44372" lon="3.46527">
        <ele>63.200000762939</ele>
        <time>2023-12-19T13:12:31Z</time>
      </trkpt>
      <trkpt lat="43.44374" lon="3.4653">
        <ele>63.400001525879</ele>
        <time>2023-12-19T13:12:32Z</time>
      </trkpt>
      <trkpt lat="43.44376" lon="3.46533">
        <ele>63.599998474121</ele>
        <time>2023-12-19T13:12:33Z</time>
      </trkpt>
      <trkpt lat="43.44378" lon="3.46534">
        <ele>63.599998474121</ele>
        <time>2023-12-19T13:12:34Z</time>
      </trkpt>
      <trkpt lat="43.4438" lon="3.46536">
        <ele>63.599998474121</ele>
        <time>2023-12-19T13:12:35Z</time>
      </trkpt>
      <trkpt lat="43.44382" lon="3.46538">
        <ele>63.799999237061</ele>
        <time>2023-12-19T13:12:36Z</time>
      </trkpt>
      <trkpt lat="43.44384" lon="3.46541">
        <ele>64</ele>
        <time>2023-12-19T13:12:37Z</time>
      </trkpt>
      <trkpt lat="43.44385" lon="3.46543">
        <ele>64.199996948242</ele>
        <time>2023-12-19T13:12:38Z</time>
      </trkpt>
      <trkpt lat="43.44386" lon="3.46546">
        <ele>64.400001525879</ele>
        <time>2023-12-19T13:12:39Z</time>
      </trkpt>
      <trkpt lat="43.44388" lon="3.46549">
        <ele>64.599998474121</ele>
        <time>2023-12-19T13:12:40Z</time>
      </trkpt>
      <trkpt lat="43.4439" lon="3.46552">
        <ele>64.599998474121</ele>
        <time>2023-12-19T13:12:41Z</time>
      </trkpt>
      <trkpt lat="43.44391" lon="3.46555">
        <ele>64.599998474121</ele>
        <time>2023-12-19T13:12:42Z</time>
      </trkpt>
      <trkpt lat="43.44393" lon="3.46557">
        <ele>64.800003051758</ele>
        <time>2023-12-19T13:12:43Z</time>
      </trkpt>
      <trkpt lat="43.44395" lon="3.4656">
        <ele>64.800003051758</ele>
        <time>2023-12-19T13:12:44Z</time>
      </trkpt>
      <trkpt lat="43.44397" lon="3.46563">
        <ele>65</ele>
        <time>2023-12-19T13:12:45Z</time>
      </trkpt>
      <trkpt lat="43.444" lon="3.46565">
        <ele>65.199996948242</ele>
        <time>2023-12-19T13:12:46Z</time>
      </trkpt>
      <trkpt lat="43.44402" lon="3.46567">
        <ele>65.199996948242</ele>
        <time>2023-12-19T13:12:47Z</time>
      </trkpt>
      <trkpt lat="43.44403" lon="3.4657">
        <ele>65.400001525879</ele>
        <time>2023-12-19T13:12:48Z</time>
      </trkpt>
      <trkpt lat="43.44405" lon="3.46572">
        <ele>65.599998474121</ele>
        <time>2023-12-19T13:12:49Z</time>
      </trkpt>
      <trkpt lat="43.44407" lon="3.46574">
        <ele>66</ele>
        <time>2023-12-19T13:12:50Z</time>
      </trkpt>
      <trkpt lat="43.44409" lon="3.46575">
        <ele>66.400001525879</ele>
        <time>2023-12-19T13:12:51Z</time>
      </trkpt>
      <trkpt lat="43.44411" lon="3.46576">
        <ele>66.800003051758</ele>
        <time>2023-12-19T13:12:52Z</time>
      </trkpt>
      <trkpt lat="43.44414" lon="3.46577">
        <ele>67.199996948242</ele>
        <time>2023-12-19T13:12:53Z</time>
      </trkpt>
      <trkpt lat="43.44416" lon="3.46578">
        <ele>67.400001525879</ele>
        <time>2023-12-19T13:12:54Z</time>
      </trkpt>
      <trkpt lat="43.44419" lon="3.46578">
        <ele>67.599998474121</ele>
        <time>2023-12-19T13:12:55Z</time>
      </trkpt>
      <trkpt lat="43.44422" lon="3.46576">
        <ele>67.800003051758</ele>
        <time>2023-12-19T13:12:56Z</time>
      </trkpt>
      <trkpt lat="43.44424" lon="3.46575">
        <ele>68.199996948242</ele>
        <time>2023-12-19T13:12:57Z</time>
      </trkpt>
      <trkpt lat="43.44426" lon="3.46573">
        <ele>68.400001525879</ele>
        <time>2023-12-19T13:12:58Z</time>
      </trkpt>
      <trkpt lat="43.44428" lon="3.46572">
        <ele>68.599998474121</ele>
        <time>2023-12-19T13:12:59Z</time>
      </trkpt>
      <trkpt lat="43.4443" lon="3.4657">
        <ele>69</ele>
        <time>2023-12-19T13:13:00Z</time>
      </trkpt>
      <trkpt lat="43.44432" lon="3.46569">
        <ele>69.400001525879</ele>
        <time>2023-12-19T13:13:01Z</time>
      </trkpt>
      <trkpt lat="43.44434" lon="3.46567">
        <ele>70</ele>
        <time>2023-12-19T13:13:02Z</time>
      </trkpt>
      <trkpt lat="43.44435" lon="3.46565">
        <ele>70.599998474121</ele>
        <time>2023-12-19T13:13:03Z</time>
      </trkpt>
      <trkpt lat="43.44437" lon="3.46564">
        <ele>71</ele>
        <time>2023-12-19T13:13:04Z</time>
      </trkpt>
      <trkpt lat="43.44439" lon="3.46563">
        <ele>71.400001525879</ele>
        <time>2023-12-19T13:13:05Z</time>
      </trkpt>
      <trkpt lat="43.44442" lon="3.46561">
        <ele>71.800003051758</ele>
        <time>2023-12-19T13:13:06Z</time>
      </trkpt>
      <trkpt lat="43.44444" lon="3.46561">
        <ele>72</ele>
        <time>2023-12-19T13:13:07Z</time>
      </trkpt>
      <trkpt lat="43.44446" lon="3.4656">
        <ele>72.400001525879</ele>
        <time>2023-12-19T13:13:08Z</time>
      </trkpt>
      <trkpt lat="43.44449" lon="3.4656">
        <ele>72.599998474121</ele>
        <time>2023-12-19T13:13:09Z</time>
      </trkpt>
      <trkpt lat="43.44452" lon="3.46559">
        <ele>73</ele>
        <time>2023-12-19T13:13:10Z</time>
      </trkpt>
      <trkpt lat="43.44454" lon="3.46557">
        <ele>73.400001525879</ele>
        <time>2023-12-19T13:13:11Z</time>
      </trkpt>
      <trkpt lat="43.44455" lon="3.46555">
        <ele>74</ele>
        <time>2023-12-19T13:13:12Z</time>
      </trkpt>
      <trkpt lat="43.44455" lon="3.46552">
        <ele>74.400001525879</ele>
        <time>2023-12-19T13:13:13Z</time>
      </trkpt>
      <trkpt lat="43.44455" lon="3.4655">
        <ele>75</ele>
        <time>2023-12-19T13:13:14Z</time>
      </trkpt>
      <trkpt lat="43.44456" lon="3.46547">
        <ele>75.400001525879</ele>
        <time>2023-12-19T13:13:15Z</time>
      </trkpt>
      <trkpt lat="43.44457" lon="3.46544">
        <ele>75.800003051758</ele>
        <time>2023-12-19T13:13:16Z</time>
      </trkpt>
      <trkpt lat="43.44459" lon="3.46542">
        <ele>76.199996948242</ele>
        <time>2023-12-19T13:13:17Z</time>
      </trkpt>
      <trkpt lat="43.44461" lon="3.46542">
        <ele>76.400001525879</ele>
        <time>2023-12-19T13:13:18Z</time>
      </trkpt>
      <trkpt lat="43.44462" lon="3.4654">
        <ele>76.599998474121</ele>
        <time>2023-12-19T13:13:19Z</time>
      </trkpt>
      <trkpt lat="43.44464" lon="3.46539">
        <ele>77</ele>
        <time>2023-12-19T13:13:20Z</time>
      </trkpt>
      <trkpt lat="43.44466" lon="3.46538">
        <ele>77.400001525879</ele>
        <time>2023-12-19T13:13:21Z</time>
      </trkpt>
      <trkpt lat="43.44467" lon="3.46539">
        <ele>77.800003051758</ele>
        <time>2023-12-19T13:13:22Z</time>
      </trkpt>
      <trkpt lat="43.44469" lon="3.4654">
        <ele>78.199996948242</ele>
        <time>2023-12-19T13:13:23Z</time>
      </trkpt>
      <trkpt lat="43.4447" lon="3.4654">
        <ele>78.400001525879</ele>
        <time>2023-12-19T13:13:24Z</time>
      </trkpt>
      <trkpt lat="43.44472" lon="3.4654">
        <ele>78.599998474121</ele>
        <time>2023-12-19T13:13:25Z</time>
      </trkpt>
      <trkpt lat="43.44474" lon="3.46539">
        <ele>78.800003051758</ele>
        <time>2023-12-19T13:13:26Z</time>
      </trkpt>
      <trkpt lat="43.44475" lon="3.46538">
        <ele>78.800003051758</ele>
        <time>2023-12-19T13:13:27Z</time>
      </trkpt>
      <trkpt lat="43.44476" lon="3.46536">
        <ele>79</ele>
        <time>2023-12-19T13:13:28Z</time>
      </trkpt>
      <trkpt lat="43.44477" lon="3.46535">
        <ele>79.199996948242</ele>
        <time>2023-12-19T13:13:29Z</time>
      </trkpt>
      <trkpt lat="43.44478" lon="3.46534">
        <ele>79.199996948242</ele>
        <time>2023-12-19T13:13:30Z</time>
      </trkpt>
      <trkpt lat="43.4448" lon="3.46533">
        <ele>79.400001525879</ele>
        <time>2023-12-19T13:13:31Z</time>
      </trkpt>
      <trkpt lat="43.44481" lon="3.46533">
        <ele>79.400001525879</ele>
        <time>2023-12-19T13:13:32Z</time>
      </trkpt>
      <trkpt lat="43.44482" lon="3.46533">
        <ele>79.599998474121</ele>
        <time>2023-12-19T13:13:33Z</time>
      </trkpt>
      <trkpt lat="43.44484" lon="3.46532">
        <ele>79.599998474121</ele>
        <time>2023-12-19T13:13:34Z</time>
      </trkpt>
      <trkpt lat="43.44486" lon="3.46532">
        <ele>79.800003051758</ele>
        <time>2023-12-19T13:13:35Z</time>
      </trkpt>
      <trkpt lat="43.44487" lon="3.46531">
        <ele>80</ele>
        <time>2023-12-19T13:13:36Z</time>
      </trkpt>
      <trkpt lat="43.44487" lon="3.46531">
        <ele>80</ele>
        <time>2023-12-19T13:13:37Z</time>
      </trkpt>
      <trkpt lat="43.44487" lon="3.46531">
        <ele>80.199996948242</ele>
        <time>2023-12-19T13:13:38Z</time>
      </trkpt>
      <trkpt lat="43.44492" lon="3.46531">
        <ele>80.599998474121</ele>
        <time>2023-12-19T13:13:49Z</time>
      </trkpt>
      <trkpt lat="43.44492" lon="3.46533">
        <ele>80.599998474121</ele>
        <time>2023-12-19T13:13:50Z</time>
      </trkpt>
      <trkpt lat="43.44492" lon="3.46534">
        <ele>80.599998474121</ele>
        <time>2023-12-19T13:13:51Z</time>
      </trkpt>
      <trkpt lat="43.44491" lon="3.46536">
        <ele>80.599998474121</ele>
        <time>2023-12-19T13:13:52Z</time>
      </trkpt>
      <trkpt lat="43.4449" lon="3.46538">
        <ele>80.599998474121</ele>
        <time>2023-12-19T13:13:53Z</time>
      </trkpt>
      <trkpt lat="43.44489" lon="3.46539">
        <ele>80.599998474121</ele>
        <time>2023-12-19T13:13:54Z</time>
      </trkpt>
      <trkpt lat="43.44489" lon="3.46539">
        <ele>80.599998474121</ele>
        <time>2023-12-19T13:13:55Z</time>
      </trkpt>
      <trkpt lat="43.44489" lon="3.46539">
        <ele>80.800003051758</ele>
        <time>2023-12-19T13:13:56Z</time>
      </trkpt>
      <trkpt lat="43.44486" lon="3.46544">
        <ele>80.800003051758</ele>
        <time>2023-12-19T13:14:20Z</time>
      </trkpt>
      <trkpt lat="43.44485" lon="3.46546">
        <ele>80.800003051758</ele>
        <time>2023-12-19T13:14:21Z</time>
      </trkpt>
      <trkpt lat="43.44483" lon="3.46548">
        <ele>80.800003051758</ele>
        <time>2023-12-19T13:14:22Z</time>
      </trkpt>
      <trkpt lat="43.44482" lon="3.46549">
        <ele>80.599998474121</ele>
        <time>2023-12-19T13:14:23Z</time>
      </trkpt>
      <trkpt lat="43.44481" lon="3.46551">
        <ele>80.599998474121</ele>
        <time>2023-12-19T13:14:24Z</time>
      </trkpt>
      <trkpt lat="43.44479" lon="3.46553">
        <ele>80.599998474121</ele>
        <time>2023-12-19T13:14:25Z</time>
      </trkpt>
      <trkpt lat="43.44478" lon="3.46555">
        <ele>80.599998474121</ele>
        <time>2023-12-19T13:14:26Z</time>
      </trkpt>
      <trkpt lat="43.44476" lon="3.46558">
        <ele>80.400001525879</ele>
        <time>2023-12-19T13:14:27Z</time>
      </trkpt>
      <trkpt lat="43.44474" lon="3.4656">
        <ele>80.400001525879</ele>
        <time>2023-12-19T13:14:28Z</time>
      </trkpt>
      <trkpt lat="43.44472" lon="3.46562">
        <ele>80.400001525879</ele>
        <time>2023-12-19T13:14:29Z</time>
      </trkpt>
      <trkpt lat="43.44471" lon="3.46564">
        <ele>80.400001525879</ele>
        <time>2023-12-19T13:14:30Z</time>
      </trkpt>
      <trkpt lat="43.44469" lon="3.46567">
        <ele>80.400001525879</ele>
        <time>2023-12-19T13:14:31Z</time>
      </trkpt>
      <trkpt lat="43.44468" lon="3.46571">
        <ele>80.400001525879</ele>
        <time>2023-12-19T13:14:32Z</time>
      </trkpt>
      <trkpt lat="43.44467" lon="3.46573">
        <ele>80.400001525879</ele>
        <time>2023-12-19T13:14:33Z</time>
      </trkpt>
      <trkpt lat="43.44466" lon="3.46577">
        <ele>80.400001525879</ele>
        <time>2023-12-19T13:14:34Z</time>
      </trkpt>
      <trkpt lat="43.44466" lon="3.4658">
        <ele>80.400001525879</ele>
        <time>2023-12-19T13:14:35Z</time>
      </trkpt>
      <trkpt lat="43.44465" lon="3.46584">
        <ele>80.400001525879</ele>
        <time>2023-12-19T13:14:36Z</time>
      </trkpt>
      <trkpt lat="43.44465" lon="3.46588">
        <ele>80.400001525879</ele>
        <time>2023-12-19T13:14:37Z</time>
      </trkpt>
      <trkpt lat="43.44464" lon="3.46592">
        <ele>80.599998474121</ele>
        <time>2023-12-19T13:14:38Z</time>
      </trkpt>
      <trkpt lat="43.44464" lon="3.46595">
        <ele>80.599998474121</ele>
        <time>2023-12-19T13:14:39Z</time>
      </trkpt>
      <trkpt lat="43.44464" lon="3.46599">
        <ele>80.599998474121</ele>
        <time>2023-12-19T13:14:40Z</time>
      </trkpt>
      <trkpt lat="43.44463" lon="3.46603">
        <ele>80.599998474121</ele>
        <time>2023-12-19T13:14:41Z</time>
      </trkpt>
      <trkpt lat="43.44462" lon="3.46607">
        <ele>80.800003051758</ele>
        <time>2023-12-19T13:14:42Z</time>
      </trkpt>
      <trkpt lat="43.44462" lon="3.4661">
        <ele>80.800003051758</ele>
        <time>2023-12-19T13:14:43Z</time>
      </trkpt>
      <trkpt lat="43.44461" lon="3.46614">
        <ele>81</ele>
        <time>2023-12-19T13:14:44Z</time>
      </trkpt>
      <trkpt lat="43.44461" lon="3.46618">
        <ele>81</ele>
        <time>2023-12-19T13:14:45Z</time>
      </trkpt>
      <trkpt lat="43.44459" lon="3.46621">
        <ele>81</ele>
        <time>2023-12-19T13:14:46Z</time>
      </trkpt>
      <trkpt lat="43.44458" lon="3.46623">
        <ele>81.199996948242</ele>
        <time>2023-12-19T13:14:47Z</time>
      </trkpt>
      <trkpt lat="43.44456" lon="3.46626">
        <ele>81.400001525879</ele>
        <time>2023-12-19T13:14:48Z</time>
      </trkpt>
      <trkpt lat="43.44454" lon="3.46627">
        <ele>81.400001525879</ele>
        <time>2023-12-19T13:14:49Z</time>
      </trkpt>
      <trkpt lat="43.44453" lon="3.46629">
        <ele>81.800003051758</ele>
        <time>2023-12-19T13:14:50Z</time>
      </trkpt>
      <trkpt lat="43.44451" lon="3.4663">
        <ele>82</ele>
        <time>2023-12-19T13:14:51Z</time>
      </trkpt>
      <trkpt lat="43.4445" lon="3.46632">
        <ele>82</ele>
        <time>2023-12-19T13:14:52Z</time>
      </trkpt>
      <trkpt lat="43.44449" lon="3.46635">
        <ele>82</ele>
        <time>2023-12-19T13:14:53Z</time>
      </trkpt>
      <trkpt lat="43.44447" lon="3.46638">
        <ele>82</ele>
        <time>2023-12-19T13:14:54Z</time>
      </trkpt>
      <trkpt lat="43.44446" lon="3.46641">
        <ele>82</ele>
        <time>2023-12-19T13:14:55Z</time>
      </trkpt>
      <trkpt lat="43.44444" lon="3.46644">
        <ele>82</ele>
        <time>2023-12-19T13:14:56Z</time>
      </trkpt>
      <trkpt lat="43.44443" lon="3.46648">
        <ele>81.599998474121</ele>
        <time>2023-12-19T13:14:57Z</time>
      </trkpt>
      <trkpt lat="43.44442" lon="3.46651">
        <ele>81.400001525879</ele>
        <time>2023-12-19T13:14:58Z</time>
      </trkpt>
      <trkpt lat="43.44441" lon="3.46654">
        <ele>81.199996948242</ele>
        <time>2023-12-19T13:14:59Z</time>
      </trkpt>
      <trkpt lat="43.4444" lon="3.46658">
        <ele>81</ele>
        <time>2023-12-19T13:15:00Z</time>
      </trkpt>
      <trkpt lat="43.4444" lon="3.46663">
        <ele>80.800003051758</ele>
        <time>2023-12-19T13:15:01Z</time>
      </trkpt>
      <trkpt lat="43.4444" lon="3.46666">
        <ele>80.800003051758</ele>
        <time>2023-12-19T13:15:02Z</time>
      </trkpt>
      <trkpt lat="43.44439" lon="3.4667">
        <ele>80.800003051758</ele>
        <time>2023-12-19T13:15:03Z</time>
      </trkpt>
      <trkpt lat="43.44439" lon="3.46673">
        <ele>80.800003051758</ele>
        <time>2023-12-19T13:15:04Z</time>
      </trkpt>
      <trkpt lat="43.44439" lon="3.46677">
        <ele>80.800003051758</ele>
        <time>2023-12-19T13:15:05Z</time>
      </trkpt>
      <trkpt lat="43.44439" lon="3.46681">
        <ele>80.800003051758</ele>
        <time>2023-12-19T13:15:06Z</time>
      </trkpt>
      <trkpt lat="43.44439" lon="3.46685">
        <ele>80.800003051758</ele>
        <time>2023-12-19T13:15:07Z</time>
      </trkpt>
      <trkpt lat="43.44438" lon="3.46688">
        <ele>81</ele>
        <time>2023-12-19T13:15:08Z</time>
      </trkpt>
      <trkpt lat="43.44438" lon="3.46692">
        <ele>81</ele>
        <time>2023-12-19T13:15:09Z</time>
      </trkpt>
      <trkpt lat="43.44437" lon="3.46695">
        <ele>81.199996948242</ele>
        <time>2023-12-19T13:15:10Z</time>
      </trkpt>
      <trkpt lat="43.44436" lon="3.46699">
        <ele>81.199996948242</ele>
        <time>2023-12-19T13:15:11Z</time>
      </trkpt>
      <trkpt lat="43.44435" lon="3.46702">
        <ele>81.400001525879</ele>
        <time>2023-12-19T13:15:12Z</time>
      </trkpt>
      <trkpt lat="43.44435" lon="3.46705">
        <ele>81.400001525879</ele>
        <time>2023-12-19T13:15:13Z</time>
      </trkpt>
      <trkpt lat="43.44434" lon="3.46709">
        <ele>81.400001525879</ele>
        <time>2023-12-19T13:15:14Z</time>
      </trkpt>
      <trkpt lat="43.44434" lon="3.46712">
        <ele>81.599998474121</ele>
        <time>2023-12-19T13:15:15Z</time>
      </trkpt>
      <trkpt lat="43.44433" lon="3.46715">
        <ele>81.599998474121</ele>
        <time>2023-12-19T13:15:16Z</time>
      </trkpt>
      <trkpt lat="43.44433" lon="3.46718">
        <ele>81.599998474121</ele>
        <time>2023-12-19T13:15:17Z</time>
      </trkpt>
      <trkpt lat="43.44432" lon="3.46722">
        <ele>81.599998474121</ele>
        <time>2023-12-19T13:15:18Z</time>
      </trkpt>
      <trkpt lat="43.44431" lon="3.46726">
        <ele>81.800003051758</ele>
        <time>2023-12-19T13:15:19Z</time>
      </trkpt>
      <trkpt lat="43.44431" lon="3.4673">
        <ele>81.800003051758</ele>
        <time>2023-12-19T13:15:20Z</time>
      </trkpt>
      <trkpt lat="43.44431" lon="3.46735">
        <ele>81.800003051758</ele>
        <time>2023-12-19T13:15:21Z</time>
      </trkpt>
      <trkpt lat="43.44431" lon="3.4674">
        <ele>81.800003051758</ele>
        <time>2023-12-19T13:15:22Z</time>
      </trkpt>
      <trkpt lat="43.44431" lon="3.46745">
        <ele>81.800003051758</ele>
        <time>2023-12-19T13:15:23Z</time>
      </trkpt>
      <trkpt lat="43.44431" lon="3.46751">
        <ele>81.599998474121</ele>
        <time>2023-12-19T13:15:24Z</time>
      </trkpt>
      <trkpt lat="43.44432" lon="3.46756">
        <ele>81.599998474121</ele>
        <time>2023-12-19T13:15:25Z</time>
      </trkpt>
      <trkpt lat="43.44432" lon="3.46762">
        <ele>81.400001525879</ele>
        <time>2023-12-19T13:15:26Z</time>
      </trkpt>
      <trkpt lat="43.44433" lon="3.46767">
        <ele>81</ele>
        <time>2023-12-19T13:15:27Z</time>
      </trkpt>
      <trkpt lat="43.44435" lon="3.46771">
        <ele>80.800003051758</ele>
        <time>2023-12-19T13:15:28Z</time>
      </trkpt>
      <trkpt lat="43.44438" lon="3.46776">
        <ele>80.800003051758</ele>
        <time>2023-12-19T13:15:29Z</time>
      </trkpt>
      <trkpt lat="43.44439" lon="3.46781">
        <ele>80.599998474121</ele>
        <time>2023-12-19T13:15:30Z</time>
      </trkpt>
      <trkpt lat="43.44441" lon="3.46786">
        <ele>80.400001525879</ele>
        <time>2023-12-19T13:15:31Z</time>
      </trkpt>
      <trkpt lat="43.44443" lon="3.46791">
        <ele>80.400001525879</ele>
        <time>2023-12-19T13:15:32Z</time>
      </trkpt>
      <trkpt lat="43.44444" lon="3.46796">
        <ele>80.199996948242</ele>
        <time>2023-12-19T13:15:33Z</time>
      </trkpt>
      <trkpt lat="43.44445" lon="3.468">
        <ele>80</ele>
        <time>2023-12-19T13:15:34Z</time>
      </trkpt>
      <trkpt lat="43.44446" lon="3.46804">
        <ele>80</ele>
        <time>2023-12-19T13:15:35Z</time>
      </trkpt>
      <trkpt lat="43.44446" lon="3.46808">
        <ele>80</ele>
        <time>2023-12-19T13:15:36Z</time>
      </trkpt>
      <trkpt lat="43.44447" lon="3.46812">
        <ele>80</ele>
        <time>2023-12-19T13:15:37Z</time>
      </trkpt>
      <trkpt lat="43.44448" lon="3.46816">
        <ele>80</ele>
        <time>2023-12-19T13:15:38Z</time>
      </trkpt>
      <trkpt lat="43.44449" lon="3.4682">
        <ele>79.800003051758</ele>
        <time>2023-12-19T13:15:39Z</time>
      </trkpt>
      <trkpt lat="43.44451" lon="3.46824">
        <ele>79.800003051758</ele>
        <time>2023-12-19T13:15:40Z</time>
      </trkpt>
      <trkpt lat="43.44453" lon="3.46829">
        <ele>79.800003051758</ele>
        <time>2023-12-19T13:15:41Z</time>
      </trkpt>
      <trkpt lat="43.44454" lon="3.46832">
        <ele>79.800003051758</ele>
        <time>2023-12-19T13:15:42Z</time>
      </trkpt>
      <trkpt lat="43.44457" lon="3.46836">
        <ele>79.800003051758</ele>
        <time>2023-12-19T13:15:43Z</time>
      </trkpt>
      <trkpt lat="43.44459" lon="3.46839">
        <ele>79.800003051758</ele>
        <time>2023-12-19T13:15:44Z</time>
      </trkpt>
      <trkpt lat="43.44461" lon="3.46843">
        <ele>79.800003051758</ele>
        <time>2023-12-19T13:15:45Z</time>
      </trkpt>
      <trkpt lat="43.44463" lon="3.46847">
        <ele>79.800003051758</ele>
        <time>2023-12-19T13:15:46Z</time>
      </trkpt>
      <trkpt lat="43.44465" lon="3.46851">
        <ele>79.800003051758</ele>
        <time>2023-12-19T13:15:47Z</time>
      </trkpt>
      <trkpt lat="43.44467" lon="3.46854">
        <ele>79.800003051758</ele>
        <time>2023-12-19T13:15:48Z</time>
      </trkpt>
      <trkpt lat="43.44469" lon="3.46857">
        <ele>79.800003051758</ele>
        <time>2023-12-19T13:15:49Z</time>
      </trkpt>
      <trkpt lat="43.44471" lon="3.4686">
        <ele>80</ele>
        <time>2023-12-19T13:15:50Z</time>
      </trkpt>
      <trkpt lat="43.44473" lon="3.46863">
        <ele>80</ele>
        <time>2023-12-19T13:15:51Z</time>
      </trkpt>
      <trkpt lat="43.44476" lon="3.46865">
        <ele>80.199996948242</ele>
        <time>2023-12-19T13:15:52Z</time>
      </trkpt>
      <trkpt lat="43.44478" lon="3.46867">
        <ele>80.199996948242</ele>
        <time>2023-12-19T13:15:53Z</time>
      </trkpt>
      <trkpt lat="43.44481" lon="3.46869">
        <ele>80.400001525879</ele>
        <time>2023-12-19T13:15:54Z</time>
      </trkpt>
      <trkpt lat="43.44483" lon="3.46872">
        <ele>80.599998474121</ele>
        <time>2023-12-19T13:15:55Z</time>
      </trkpt>
      <trkpt lat="43.44484" lon="3.46875">
        <ele>80.800003051758</ele>
        <time>2023-12-19T13:15:56Z</time>
      </trkpt>
      <trkpt lat="43.44487" lon="3.46878">
        <ele>81</ele>
        <time>2023-12-19T13:15:57Z</time>
      </trkpt>
      <trkpt lat="43.44489" lon="3.46881">
        <ele>81.199996948242</ele>
        <time>2023-12-19T13:15:58Z</time>
      </trkpt>
      <trkpt lat="43.44492" lon="3.46883">
        <ele>81.400001525879</ele>
        <time>2023-12-19T13:15:59Z</time>
      </trkpt>
      <trkpt lat="43.44493" lon="3.46886">
        <ele>81.599998474121</ele>
        <time>2023-12-19T13:16:00Z</time>
      </trkpt>
      <trkpt lat="43.44493" lon="3.4689">
        <ele>81.800003051758</ele>
        <time>2023-12-19T13:16:01Z</time>
      </trkpt>
      <trkpt lat="43.44493" lon="3.46895">
        <ele>82</ele>
        <time>2023-12-19T13:16:02Z</time>
      </trkpt>
      <trkpt lat="43.44493" lon="3.46899">
        <ele>82.199996948242</ele>
        <time>2023-12-19T13:16:03Z</time>
      </trkpt>
      <trkpt lat="43.44494" lon="3.46903">
        <ele>82.400001525879</ele>
        <time>2023-12-19T13:16:04Z</time>
      </trkpt>
      <trkpt lat="43.44494" lon="3.46907">
        <ele>82.400001525879</ele>
        <time>2023-12-19T13:16:05Z</time>
      </trkpt>
      <trkpt lat="43.44494" lon="3.46911">
        <ele>82.599998474121</ele>
        <time>2023-12-19T13:16:06Z</time>
      </trkpt>
      <trkpt lat="43.44494" lon="3.46915">
        <ele>82.599998474121</ele>
        <time>2023-12-19T13:16:07Z</time>
      </trkpt>
      <trkpt lat="43.44494" lon="3.46918">
        <ele>82.800003051758</ele>
        <time>2023-12-19T13:16:08Z</time>
      </trkpt>
      <trkpt lat="43.44494" lon="3.46922">
        <ele>82.800003051758</ele>
        <time>2023-12-19T13:16:09Z</time>
      </trkpt>
      <trkpt lat="43.44495" lon="3.46926">
        <ele>82.800003051758</ele>
        <time>2023-12-19T13:16:10Z</time>
      </trkpt>
      <trkpt lat="43.44496" lon="3.4693">
        <ele>82.800003051758</ele>
        <time>2023-12-19T13:16:11Z</time>
      </trkpt>
      <trkpt lat="43.44497" lon="3.46935">
        <ele>83</ele>
        <time>2023-12-19T13:16:12Z</time>
      </trkpt>
      <trkpt lat="43.44497" lon="3.46938">
        <ele>83</ele>
        <time>2023-12-19T13:16:13Z</time>
      </trkpt>
      <trkpt lat="43.44498" lon="3.46942">
        <ele>83.199996948242</ele>
        <time>2023-12-19T13:16:14Z</time>
      </trkpt>
      <trkpt lat="43.44499" lon="3.46945">
        <ele>83.199996948242</ele>
        <time>2023-12-19T13:16:15Z</time>
      </trkpt>
      <trkpt lat="43.445" lon="3.46949">
        <ele>83.400001525879</ele>
        <time>2023-12-19T13:16:16Z</time>
      </trkpt>
      <trkpt lat="43.445" lon="3.46953">
        <ele>83.400001525879</ele>
        <time>2023-12-19T13:16:17Z</time>
      </trkpt>
      <trkpt lat="43.44501" lon="3.46956">
        <ele>83.599998474121</ele>
        <time>2023-12-19T13:16:18Z</time>
      </trkpt>
      <trkpt lat="43.44501" lon="3.4696">
        <ele>83.800003051758</ele>
        <time>2023-12-19T13:16:19Z</time>
      </trkpt>
      <trkpt lat="43.44501" lon="3.46964">
        <ele>83.800003051758</ele>
        <time>2023-12-19T13:16:20Z</time>
      </trkpt>
      <trkpt lat="43.44502" lon="3.46968">
        <ele>84</ele>
        <time>2023-12-19T13:16:21Z</time>
      </trkpt>
      <trkpt lat="43.44504" lon="3.46972">
        <ele>84.199996948242</ele>
        <time>2023-12-19T13:16:22Z</time>
      </trkpt>
      <trkpt lat="43.44505" lon="3.46975">
        <ele>84.400001525879</ele>
        <time>2023-12-19T13:16:23Z</time>
      </trkpt>
      <trkpt lat="43.44505" lon="3.46978">
        <ele>84.599998474121</ele>
        <time>2023-12-19T13:16:24Z</time>
      </trkpt>
      <trkpt lat="43.44506" lon="3.46982">
        <ele>85</ele>
        <time>2023-12-19T13:16:25Z</time>
      </trkpt>
      <trkpt lat="43.44506" lon="3.46986">
        <ele>85.400001525879</ele>
        <time>2023-12-19T13:16:26Z</time>
      </trkpt>
      <trkpt lat="43.44506" lon="3.46991">
        <ele>85.400001525879</ele>
        <time>2023-12-19T13:16:27Z</time>
      </trkpt>
      <trkpt lat="43.44507" lon="3.46995">
        <ele>85.400001525879</ele>
        <time>2023-12-19T13:16:28Z</time>
      </trkpt>
      <trkpt lat="43.44509" lon="3.47">
        <ele>85.400001525879</ele>
        <time>2023-12-19T13:16:29Z</time>
      </trkpt>
      <trkpt lat="43.4451" lon="3.47004">
        <ele>85.400001525879</ele>
        <time>2023-12-19T13:16:30Z</time>
      </trkpt>
      <trkpt lat="43.44511" lon="3.47008">
        <ele>85.400001525879</ele>
        <time>2023-12-19T13:16:31Z</time>
      </trkpt>
      <trkpt lat="43.44512" lon="3.47011">
        <ele>85.199996948242</ele>
        <time>2023-12-19T13:16:32Z</time>
      </trkpt>
      <trkpt lat="43.44513" lon="3.47015">
        <ele>85.199996948242</ele>
        <time>2023-12-19T13:16:33Z</time>
      </trkpt>
      <trkpt lat="43.44514" lon="3.4702">
        <ele>85</ele>
        <time>2023-12-19T13:16:34Z</time>
      </trkpt>
      <trkpt lat="43.44516" lon="3.47024">
        <ele>85</ele>
        <time>2023-12-19T13:16:35Z</time>
      </trkpt>
      <trkpt lat="43.44517" lon="3.47028">
        <ele>85</ele>
        <time>2023-12-19T13:16:36Z</time>
      </trkpt>
      <trkpt lat="43.44519" lon="3.47032">
        <ele>85</ele>
        <time>2023-12-19T13:16:37Z</time>
      </trkpt>
      <trkpt lat="43.44519" lon="3.47037">
        <ele>85</ele>
        <time>2023-12-19T13:16:38Z</time>
      </trkpt>
      <trkpt lat="43.4452" lon="3.47041">
        <ele>84.800003051758</ele>
        <time>2023-12-19T13:16:39Z</time>
      </trkpt>
      <trkpt lat="43.44519" lon="3.47045">
        <ele>84.800003051758</ele>
        <time>2023-12-19T13:16:40Z</time>
      </trkpt>
      <trkpt lat="43.44518" lon="3.47049">
        <ele>84.800003051758</ele>
        <time>2023-12-19T13:16:41Z</time>
      </trkpt>
      <trkpt lat="43.44517" lon="3.47051">
        <ele>84.800003051758</ele>
        <time>2023-12-19T13:16:42Z</time>
      </trkpt>
      <trkpt lat="43.44516" lon="3.47055">
        <ele>84.599998474121</ele>
        <time>2023-12-19T13:16:43Z</time>
      </trkpt>
      <trkpt lat="43.44515" lon="3.47058">
        <ele>84.599998474121</ele>
        <time>2023-12-19T13:16:44Z</time>
      </trkpt>
      <trkpt lat="43.44513" lon="3.47062">
        <ele>84.599998474121</ele>
        <time>2023-12-19T13:16:45Z</time>
      </trkpt>
      <trkpt lat="43.44512" lon="3.47064">
        <ele>84.400001525879</ele>
        <time>2023-12-19T13:16:46Z</time>
      </trkpt>
      <trkpt lat="43.44511" lon="3.47068">
        <ele>84.400001525879</ele>
        <time>2023-12-19T13:16:47Z</time>
      </trkpt>
      <trkpt lat="43.44509" lon="3.47071">
        <ele>84.199996948242</ele>
        <time>2023-12-19T13:16:48Z</time>
      </trkpt>
      <trkpt lat="43.44508" lon="3.47075">
        <ele>84</ele>
        <time>2023-12-19T13:16:49Z</time>
      </trkpt>
      <trkpt lat="43.44506" lon="3.47079">
        <ele>83.599998474121</ele>
        <time>2023-12-19T13:16:50Z</time>
      </trkpt>
      <trkpt lat="43.44505" lon="3.47084">
        <ele>83.400001525879</ele>
        <time>2023-12-19T13:16:51Z</time>
      </trkpt>
      <trkpt lat="43.44505" lon="3.47088">
        <ele>83.199996948242</ele>
        <time>2023-12-19T13:16:52Z</time>
      </trkpt>
      <trkpt lat="43.44505" lon="3.47092">
        <ele>83.199996948242</ele>
        <time>2023-12-19T13:16:53Z</time>
      </trkpt>
      <trkpt lat="43.44506" lon="3.47096">
        <ele>83.199996948242</ele>
        <time>2023-12-19T13:16:54Z</time>
      </trkpt>
      <trkpt lat="43.44508" lon="3.471">
        <ele>83</ele>
        <time>2023-12-19T13:16:55Z</time>
      </trkpt>
      <trkpt lat="43.4451" lon="3.47103">
        <ele>82.800003051758</ele>
        <time>2023-12-19T13:16:56Z</time>
      </trkpt>
      <trkpt lat="43.44511" lon="3.47106">
        <ele>82.800003051758</ele>
        <time>2023-12-19T13:16:57Z</time>
      </trkpt>
      <trkpt lat="43.44512" lon="3.4711">
        <ele>82.800003051758</ele>
        <time>2023-12-19T13:16:58Z</time>
      </trkpt>
      <trkpt lat="43.44512" lon="3.47114">
        <ele>82.599998474121</ele>
        <time>2023-12-19T13:16:59Z</time>
      </trkpt>
      <trkpt lat="43.44512" lon="3.47117">
        <ele>82.599998474121</ele>
        <time>2023-12-19T13:17:00Z</time>
      </trkpt>
      <trkpt lat="43.44512" lon="3.4712">
        <ele>82.599998474121</ele>
        <time>2023-12-19T13:17:01Z</time>
      </trkpt>
      <trkpt lat="43.44514" lon="3.47121">
        <ele>82.599998474121</ele>
        <time>2023-12-19T13:17:02Z</time>
      </trkpt>
      <trkpt lat="43.44516" lon="3.47121">
        <ele>82.599998474121</ele>
        <time>2023-12-19T13:17:03Z</time>
      </trkpt>
      <trkpt lat="43.44518" lon="3.4712">
        <ele>82.599998474121</ele>
        <time>2023-12-19T13:17:04Z</time>
      </trkpt>
      <trkpt lat="43.4452" lon="3.47119">
        <ele>82.599998474121</ele>
        <time>2023-12-19T13:17:05Z</time>
      </trkpt>
      <trkpt lat="43.44521" lon="3.47119">
        <ele>82.599998474121</ele>
        <time>2023-12-19T13:17:06Z</time>
      </trkpt>
      <trkpt lat="43.44522" lon="3.47119">
        <ele>82.800003051758</ele>
        <time>2023-12-19T13:17:07Z</time>
      </trkpt>
      <trkpt lat="43.44524" lon="3.47119">
        <ele>82.800003051758</ele>
        <time>2023-12-19T13:17:08Z</time>
      </trkpt>
      <trkpt lat="43.44526" lon="3.47118">
        <ele>83</ele>
        <time>2023-12-19T13:17:09Z</time>
      </trkpt>
      <trkpt lat="43.44529" lon="3.47117">
        <ele>83</ele>
        <time>2023-12-19T13:17:10Z</time>
      </trkpt>
      <trkpt lat="43.44531" lon="3.47116">
        <ele>83.199996948242</ele>
        <time>2023-12-19T13:17:11Z</time>
      </trkpt>
      <trkpt lat="43.44532" lon="3.47113">
        <ele>83.400001525879</ele>
        <time>2023-12-19T13:17:12Z</time>
      </trkpt>
      <trkpt lat="43.44534" lon="3.47111">
        <ele>83.599998474121</ele>
        <time>2023-12-19T13:17:13Z</time>
      </trkpt>
      <trkpt lat="43.44536" lon="3.4711">
        <ele>84</ele>
        <time>2023-12-19T13:17:14Z</time>
      </trkpt>
      <trkpt lat="43.44538" lon="3.4711">
        <ele>84.599998474121</ele>
        <time>2023-12-19T13:17:15Z</time>
      </trkpt>
      <trkpt lat="43.4454" lon="3.4711">
        <ele>85</ele>
        <time>2023-12-19T13:17:16Z</time>
      </trkpt>
      <trkpt lat="43.44542" lon="3.4711">
        <ele>85.199996948242</ele>
        <time>2023-12-19T13:17:17Z</time>
      </trkpt>
      <trkpt lat="43.44544" lon="3.47111">
        <ele>85.599998474121</ele>
        <time>2023-12-19T13:17:18Z</time>
      </trkpt>
      <trkpt lat="43.44547" lon="3.47111">
        <ele>86</ele>
        <time>2023-12-19T13:17:19Z</time>
      </trkpt>
      <trkpt lat="43.44549" lon="3.47111">
        <ele>86.199996948242</ele>
        <time>2023-12-19T13:17:20Z</time>
      </trkpt>
      <trkpt lat="43.44551" lon="3.47111">
        <ele>86.400001525879</ele>
        <time>2023-12-19T13:17:21Z</time>
      </trkpt>
      <trkpt lat="43.44553" lon="3.47112">
        <ele>86.599998474121</ele>
        <time>2023-12-19T13:17:22Z</time>
      </trkpt>
      <trkpt lat="43.44556" lon="3.47113">
        <ele>86.800003051758</ele>
        <time>2023-12-19T13:17:23Z</time>
      </trkpt>
      <trkpt lat="43.44558" lon="3.47114">
        <ele>87</ele>
        <time>2023-12-19T13:17:24Z</time>
      </trkpt>
      <trkpt lat="43.4456" lon="3.47115">
        <ele>87.400001525879</ele>
        <time>2023-12-19T13:17:25Z</time>
      </trkpt>
      <trkpt lat="43.44563" lon="3.47117">
        <ele>87.599998474121</ele>
        <time>2023-12-19T13:17:26Z</time>
      </trkpt>
      <trkpt lat="43.44565" lon="3.47118">
        <ele>88</ele>
        <time>2023-12-19T13:17:27Z</time>
      </trkpt>
      <trkpt lat="43.44567" lon="3.4712">
        <ele>88.199996948242</ele>
        <time>2023-12-19T13:17:28Z</time>
      </trkpt>
      <trkpt lat="43.44568" lon="3.47123">
        <ele>88.400001525879</ele>
        <time>2023-12-19T13:17:29Z</time>
      </trkpt>
      <trkpt lat="43.44569" lon="3.47126">
        <ele>88.599998474121</ele>
        <time>2023-12-19T13:17:30Z</time>
      </trkpt>
      <trkpt lat="43.4457" lon="3.47129">
        <ele>89</ele>
        <time>2023-12-19T13:17:31Z</time>
      </trkpt>
      <trkpt lat="43.44571" lon="3.47132">
        <ele>89</ele>
        <time>2023-12-19T13:17:32Z</time>
      </trkpt>
      <trkpt lat="43.44572" lon="3.47134">
        <ele>89.199996948242</ele>
        <time>2023-12-19T13:17:33Z</time>
      </trkpt>
      <trkpt lat="43.44574" lon="3.47136">
        <ele>89.199996948242</ele>
        <time>2023-12-19T13:17:34Z</time>
      </trkpt>
      <trkpt lat="43.44576" lon="3.47138">
        <ele>89.599998474121</ele>
        <time>2023-12-19T13:17:35Z</time>
      </trkpt>
      <trkpt lat="43.44578" lon="3.4714">
        <ele>89.800003051758</ele>
        <time>2023-12-19T13:17:36Z</time>
      </trkpt>
      <trkpt lat="43.44578" lon="3.47143">
        <ele>90</ele>
        <time>2023-12-19T13:17:37Z</time>
      </trkpt>
      <trkpt lat="43.4458" lon="3.47145">
        <ele>90.199996948242</ele>
        <time>2023-12-19T13:17:38Z</time>
      </trkpt>
      <trkpt lat="43.44582" lon="3.47147">
        <ele>90.400001525879</ele>
        <time>2023-12-19T13:17:39Z</time>
      </trkpt>
      <trkpt lat="43.44584" lon="3.47149">
        <ele>90.599998474121</ele>
        <time>2023-12-19T13:17:40Z</time>
      </trkpt>
      <trkpt lat="43.44586" lon="3.47151">
        <ele>90.800003051758</ele>
        <time>2023-12-19T13:17:41Z</time>
      </trkpt>
      <trkpt lat="43.44588" lon="3.47153">
        <ele>91</ele>
        <time>2023-12-19T13:17:42Z</time>
      </trkpt>
      <trkpt lat="43.44589" lon="3.47156">
        <ele>91.199996948242</ele>
        <time>2023-12-19T13:17:43Z</time>
      </trkpt>
      <trkpt lat="43.44591" lon="3.47159">
        <ele>91.599998474121</ele>
        <time>2023-12-19T13:17:44Z</time>
      </trkpt>
      <trkpt lat="43.44592" lon="3.47161">
        <ele>91.800003051758</ele>
        <time>2023-12-19T13:17:45Z</time>
      </trkpt>
      <trkpt lat="43.44593" lon="3.47164">
        <ele>92.199996948242</ele>
        <time>2023-12-19T13:17:46Z</time>
      </trkpt>
      <trkpt lat="43.44595" lon="3.47166">
        <ele>92.400001525879</ele>
        <time>2023-12-19T13:17:47Z</time>
      </trkpt>
      <trkpt lat="43.44597" lon="3.47168">
        <ele>92.599998474121</ele>
        <time>2023-12-19T13:17:48Z</time>
      </trkpt>
      <trkpt lat="43.44599" lon="3.47169">
        <ele>92.800003051758</ele>
        <time>2023-12-19T13:17:49Z</time>
      </trkpt>
      <trkpt lat="43.44601" lon="3.47171">
        <ele>93</ele>
        <time>2023-12-19T13:17:50Z</time>
      </trkpt>
      <trkpt lat="43.44603" lon="3.47172">
        <ele>93.199996948242</ele>
        <time>2023-12-19T13:17:51Z</time>
      </trkpt>
      <trkpt lat="43.44606" lon="3.47172">
        <ele>93.400001525879</ele>
        <time>2023-12-19T13:17:52Z</time>
      </trkpt>
      <trkpt lat="43.44608" lon="3.47172">
        <ele>93.800003051758</ele>
        <time>2023-12-19T13:17:53Z</time>
      </trkpt>
      <trkpt lat="43.4461" lon="3.47173">
        <ele>94</ele>
        <time>2023-12-19T13:17:54Z</time>
      </trkpt>
      <trkpt lat="43.44612" lon="3.47173">
        <ele>94.199996948242</ele>
        <time>2023-12-19T13:17:55Z</time>
      </trkpt>
      <trkpt lat="43.44614" lon="3.47173">
        <ele>94.400001525879</ele>
        <time>2023-12-19T13:17:56Z</time>
      </trkpt>
      <trkpt lat="43.44616" lon="3.47173">
        <ele>94.599998474121</ele>
        <time>2023-12-19T13:17:57Z</time>
      </trkpt>
      <trkpt lat="43.44618" lon="3.47173">
        <ele>94.599998474121</ele>
        <time>2023-12-19T13:17:58Z</time>
      </trkpt>
      <trkpt lat="43.44619" lon="3.47173">
        <ele>94.800003051758</ele>
        <time>2023-12-19T13:17:59Z</time>
      </trkpt>
      <trkpt lat="43.44621" lon="3.47173">
        <ele>94.800003051758</ele>
        <time>2023-12-19T13:18:00Z</time>
      </trkpt>
      <trkpt lat="43.44622" lon="3.47173">
        <ele>94.800003051758</ele>
        <time>2023-12-19T13:18:01Z</time>
      </trkpt>
      <trkpt lat="43.44624" lon="3.47173">
        <ele>94.800003051758</ele>
        <time>2023-12-19T13:18:02Z</time>
      </trkpt>
      <trkpt lat="43.44626" lon="3.47173">
        <ele>95</ele>
        <time>2023-12-19T13:18:03Z</time>
      </trkpt>
      <trkpt lat="43.44628" lon="3.47173">
        <ele>95</ele>
        <time>2023-12-19T13:18:04Z</time>
      </trkpt>
      <trkpt lat="43.4463" lon="3.47174">
        <ele>95</ele>
        <time>2023-12-19T13:18:05Z</time>
      </trkpt>
      <trkpt lat="43.44632" lon="3.47174">
        <ele>95</ele>
        <time>2023-12-19T13:18:06Z</time>
      </trkpt>
      <trkpt lat="43.44634" lon="3.47175">
        <ele>95</ele>
        <time>2023-12-19T13:18:07Z</time>
      </trkpt>
      <trkpt lat="43.44636" lon="3.47176">
        <ele>95.199996948242</ele>
        <time>2023-12-19T13:18:08Z</time>
      </trkpt>
      <trkpt lat="43.44638" lon="3.47176">
        <ele>95.199996948242</ele>
        <time>2023-12-19T13:18:09Z</time>
      </trkpt>
      <trkpt lat="43.4464" lon="3.47177">
        <ele>95.400001525879</ele>
        <time>2023-12-19T13:18:10Z</time>
      </trkpt>
      <trkpt lat="43.44641" lon="3.47177">
        <ele>95.400001525879</ele>
        <time>2023-12-19T13:18:11Z</time>
      </trkpt>
      <trkpt lat="43.44641" lon="3.47177">
        <ele>95.599998474121</ele>
        <time>2023-12-19T13:18:12Z</time>
      </trkpt>
      <trkpt lat="43.44641" lon="3.47177">
        <ele>95.599998474121</ele>
        <time>2023-12-19T13:18:13Z</time>
      </trkpt>
      <trkpt lat="43.44645" lon="3.47178">
        <ele>96</ele>
        <time>2023-12-19T13:18:24Z</time>
      </trkpt>
      <trkpt lat="43.44647" lon="3.47178">
        <ele>96</ele>
        <time>2023-12-19T13:18:25Z</time>
      </trkpt>
      <trkpt lat="43.44649" lon="3.47178">
        <ele>96</ele>
        <time>2023-12-19T13:18:26Z</time>
      </trkpt>
      <trkpt lat="43.4465" lon="3.47178">
        <ele>96</ele>
        <time>2023-12-19T13:18:27Z</time>
      </trkpt>
      <trkpt lat="43.44651" lon="3.47178">
        <ele>96</ele>
        <time>2023-12-19T13:18:28Z</time>
      </trkpt>
      <trkpt lat="43.44653" lon="3.47178">
        <ele>96</ele>
        <time>2023-12-19T13:18:29Z</time>
      </trkpt>
      <trkpt lat="43.44655" lon="3.47177">
        <ele>96</ele>
        <time>2023-12-19T13:18:30Z</time>
      </trkpt>
      <trkpt lat="43.44658" lon="3.47177">
        <ele>96.199996948242</ele>
        <time>2023-12-19T13:18:31Z</time>
      </trkpt>
      <trkpt lat="43.4466" lon="3.47176">
        <ele>96.199996948242</ele>
        <time>2023-12-19T13:18:32Z</time>
      </trkpt>
      <trkpt lat="43.44663" lon="3.47176">
        <ele>96.199996948242</ele>
        <time>2023-12-19T13:18:33Z</time>
      </trkpt>
      <trkpt lat="43.44665" lon="3.47176">
        <ele>96.400001525879</ele>
        <time>2023-12-19T13:18:34Z</time>
      </trkpt>
      <trkpt lat="43.44667" lon="3.47176">
        <ele>96.599998474121</ele>
        <time>2023-12-19T13:18:35Z</time>
      </trkpt>
      <trkpt lat="43.44669" lon="3.47175">
        <ele>96.599998474121</ele>
        <time>2023-12-19T13:18:36Z</time>
      </trkpt>
      <trkpt lat="43.44671" lon="3.47173">
        <ele>96.800003051758</ele>
        <time>2023-12-19T13:18:37Z</time>
      </trkpt>
      <trkpt lat="43.44673" lon="3.47172">
        <ele>97</ele>
        <time>2023-12-19T13:18:38Z</time>
      </trkpt>
      <trkpt lat="43.44674" lon="3.47171">
        <ele>97</ele>
        <time>2023-12-19T13:18:39Z</time>
      </trkpt>
      <trkpt lat="43.44677" lon="3.4717">
        <ele>97.199996948242</ele>
        <time>2023-12-19T13:18:40Z</time>
      </trkpt>
      <trkpt lat="43.4468" lon="3.47169">
        <ele>97.400001525879</ele>
        <time>2023-12-19T13:18:41Z</time>
      </trkpt>
      <trkpt lat="43.44682" lon="3.47168">
        <ele>97.599998474121</ele>
        <time>2023-12-19T13:18:42Z</time>
      </trkpt>
      <trkpt lat="43.44684" lon="3.47167">
        <ele>97.599998474121</ele>
        <time>2023-12-19T13:18:43Z</time>
      </trkpt>
      <trkpt lat="43.44686" lon="3.47166">
        <ele>97.599998474121</ele>
        <time>2023-12-19T13:18:44Z</time>
      </trkpt>
      <trkpt lat="43.44688" lon="3.47164">
        <ele>97.800003051758</ele>
        <time>2023-12-19T13:18:45Z</time>
      </trkpt>
      <trkpt lat="43.44689" lon="3.47162">
        <ele>97.800003051758</ele>
        <time>2023-12-19T13:18:46Z</time>
      </trkpt>
      <trkpt lat="43.4469" lon="3.4716">
        <ele>98</ele>
        <time>2023-12-19T13:18:47Z</time>
      </trkpt>
      <trkpt lat="43.44692" lon="3.47158">
        <ele>98.199996948242</ele>
        <time>2023-12-19T13:18:48Z</time>
      </trkpt>
      <trkpt lat="43.44693" lon="3.47156">
        <ele>98.400001525879</ele>
        <time>2023-12-19T13:18:49Z</time>
      </trkpt>
      <trkpt lat="43.44694" lon="3.47155">
        <ele>98.599998474121</ele>
        <time>2023-12-19T13:18:50Z</time>
      </trkpt>
      <trkpt lat="43.44695" lon="3.47153">
        <ele>98.800003051758</ele>
        <time>2023-12-19T13:18:51Z</time>
      </trkpt>
      <trkpt lat="43.44696" lon="3.47152">
        <ele>98.800003051758</ele>
        <time>2023-12-19T13:18:52Z</time>
      </trkpt>
      <trkpt lat="43.44697" lon="3.47151">
        <ele>99</ele>
        <time>2023-12-19T13:18:53Z</time>
      </trkpt>
      <trkpt lat="43.44698" lon="3.4715">
        <ele>99</ele>
        <time>2023-12-19T13:18:54Z</time>
      </trkpt>
      <trkpt lat="43.44699" lon="3.4715">
        <ele>99.199996948242</ele>
        <time>2023-12-19T13:18:55Z</time>
      </trkpt>
      <trkpt lat="43.44699" lon="3.47151">
        <ele>99.199996948242</ele>
        <time>2023-12-19T13:18:56Z</time>
      </trkpt>
      <trkpt lat="43.447" lon="3.47153">
        <ele>99.199996948242</ele>
        <time>2023-12-19T13:18:57Z</time>
      </trkpt>
      <trkpt lat="43.447" lon="3.47155">
        <ele>99.400001525879</ele>
        <time>2023-12-19T13:18:58Z</time>
      </trkpt>
      <trkpt lat="43.44701" lon="3.47157">
        <ele>99.400001525879</ele>
        <time>2023-12-19T13:18:59Z</time>
      </trkpt>
      <trkpt lat="43.44701" lon="3.47158">
        <ele>99.400001525879</ele>
        <time>2023-12-19T13:19:00Z</time>
      </trkpt>
      <trkpt lat="43.44703" lon="3.4716">
        <ele>99.400001525879</ele>
        <time>2023-12-19T13:19:01Z</time>
      </trkpt>
      <trkpt lat="43.44704" lon="3.47163">
        <ele>99.599998474121</ele>
        <time>2023-12-19T13:19:02Z</time>
      </trkpt>
      <trkpt lat="43.44706" lon="3.47166">
        <ele>99.599998474121</ele>
        <time>2023-12-19T13:19:03Z</time>
      </trkpt>
      <trkpt lat="43.44706" lon="3.47169">
        <ele>99.599998474121</ele>
        <time>2023-12-19T13:19:04Z</time>
      </trkpt>
      <trkpt lat="43.44707" lon="3.47172">
        <ele>99.599998474121</ele>
        <time>2023-12-19T13:19:05Z</time>
      </trkpt>
      <trkpt lat="43.44707" lon="3.47175">
        <ele>99.599998474121</ele>
        <time>2023-12-19T13:19:06Z</time>
      </trkpt>
      <trkpt lat="43.44708" lon="3.47177">
        <ele>99.599998474121</ele>
        <time>2023-12-19T13:19:07Z</time>
      </trkpt>
      <trkpt lat="43.44709" lon="3.4718">
        <ele>99.599998474121</ele>
        <time>2023-12-19T13:19:08Z</time>
      </trkpt>
      <trkpt lat="43.44711" lon="3.47183">
        <ele>99.800003051758</ele>
        <time>2023-12-19T13:19:09Z</time>
      </trkpt>
      <trkpt lat="43.44712" lon="3.47186">
        <ele>99.800003051758</ele>
        <time>2023-12-19T13:19:10Z</time>
      </trkpt>
      <trkpt lat="43.44714" lon="3.47188">
        <ele>99.800003051758</ele>
        <time>2023-12-19T13:19:11Z</time>
      </trkpt>
      <trkpt lat="43.44716" lon="3.4719">
        <ele>99.800003051758</ele>
        <time>2023-12-19T13:19:12Z</time>
      </trkpt>
      <trkpt lat="43.44718" lon="3.47191">
        <ele>100</ele>
        <time>2023-12-19T13:19:13Z</time>
      </trkpt>
      <trkpt lat="43.44719" lon="3.47192">
        <ele>100</ele>
        <time>2023-12-19T13:19:14Z</time>
      </trkpt>
      <trkpt lat="43.44722" lon="3.47193">
        <ele>100</ele>
        <time>2023-12-19T13:19:15Z</time>
      </trkpt>
      <trkpt lat="43.44723" lon="3.47194">
        <ele>100</ele>
        <time>2023-12-19T13:19:16Z</time>
      </trkpt>
      <trkpt lat="43.44725" lon="3.47194">
        <ele>100.19999694824</ele>
        <time>2023-12-19T13:19:17Z</time>
      </trkpt>
      <trkpt lat="43.44727" lon="3.47195">
        <ele>100.40000152588</ele>
        <time>2023-12-19T13:19:18Z</time>
      </trkpt>
      <trkpt lat="43.44729" lon="3.47197">
        <ele>100.40000152588</ele>
        <time>2023-12-19T13:19:19Z</time>
      </trkpt>
      <trkpt lat="43.44731" lon="3.47197">
        <ele>100.59999847412</ele>
        <time>2023-12-19T13:19:20Z</time>
      </trkpt>
      <trkpt lat="43.44733" lon="3.47198">
        <ele>100.59999847412</ele>
        <time>2023-12-19T13:19:21Z</time>
      </trkpt>
      <trkpt lat="43.44736" lon="3.47199">
        <ele>100.80000305176</ele>
        <time>2023-12-19T13:19:22Z</time>
      </trkpt>
      <trkpt lat="43.44738" lon="3.47201">
        <ele>101</ele>
        <time>2023-12-19T13:19:23Z</time>
      </trkpt>
      <trkpt lat="43.4474" lon="3.47203">
        <ele>101</ele>
        <time>2023-12-19T13:19:24Z</time>
      </trkpt>
      <trkpt lat="43.4474" lon="3.47206">
        <ele>101.19999694824</ele>
        <time>2023-12-19T13:19:25Z</time>
      </trkpt>
      <trkpt lat="43.4474" lon="3.47209">
        <ele>101.19999694824</ele>
        <time>2023-12-19T13:19:26Z</time>
      </trkpt>
      <trkpt lat="43.44741" lon="3.47212">
        <ele>101.19999694824</ele>
        <time>2023-12-19T13:19:27Z</time>
      </trkpt>
      <trkpt lat="43.44742" lon="3.47214">
        <ele>101.40000152588</ele>
        <time>2023-12-19T13:19:28Z</time>
      </trkpt>
      <trkpt lat="43.44743" lon="3.47216">
        <ele>101.40000152588</ele>
        <time>2023-12-19T13:19:29Z</time>
      </trkpt>
      <trkpt lat="43.44745" lon="3.47219">
        <ele>101.40000152588</ele>
        <time>2023-12-19T13:19:30Z</time>
      </trkpt>
      <trkpt lat="43.44746" lon="3.47221">
        <ele>101.40000152588</ele>
        <time>2023-12-19T13:19:31Z</time>
      </trkpt>
      <trkpt lat="43.44748" lon="3.47223">
        <ele>101.59999847412</ele>
        <time>2023-12-19T13:19:32Z</time>
      </trkpt>
      <trkpt lat="43.44749" lon="3.47226">
        <ele>101.59999847412</ele>
        <time>2023-12-19T13:19:33Z</time>
      </trkpt>
      <trkpt lat="43.44749" lon="3.47229">
        <ele>101.59999847412</ele>
        <time>2023-12-19T13:19:34Z</time>
      </trkpt>
      <trkpt lat="43.44751" lon="3.47232">
        <ele>101.59999847412</ele>
        <time>2023-12-19T13:19:35Z</time>
      </trkpt>
      <trkpt lat="43.44752" lon="3.47236">
        <ele>101.59999847412</ele>
        <time>2023-12-19T13:19:36Z</time>
      </trkpt>
      <trkpt lat="43.44753" lon="3.47239">
        <ele>101.59999847412</ele>
        <time>2023-12-19T13:19:37Z</time>
      </trkpt>
      <trkpt lat="43.44755" lon="3.47241">
        <ele>101.80000305176</ele>
        <time>2023-12-19T13:19:38Z</time>
      </trkpt>
      <trkpt lat="43.44756" lon="3.47245">
        <ele>101.80000305176</ele>
        <time>2023-12-19T13:19:39Z</time>
      </trkpt>
      <trkpt lat="43.44756" lon="3.47248">
        <ele>101.80000305176</ele>
        <time>2023-12-19T13:19:40Z</time>
      </trkpt>
      <trkpt lat="43.44756" lon="3.47251">
        <ele>102</ele>
        <time>2023-12-19T13:19:41Z</time>
      </trkpt>
      <trkpt lat="43.44757" lon="3.47253">
        <ele>102.19999694824</ele>
        <time>2023-12-19T13:19:42Z</time>
      </trkpt>
      <trkpt lat="43.44758" lon="3.47256">
        <ele>102.19999694824</ele>
        <time>2023-12-19T13:19:43Z</time>
      </trkpt>
      <trkpt lat="43.44759" lon="3.4726">
        <ele>102.40000152588</ele>
        <time>2023-12-19T13:19:44Z</time>
      </trkpt>
      <trkpt lat="43.44759" lon="3.47263">
        <ele>102.59999847412</ele>
        <time>2023-12-19T13:19:45Z</time>
      </trkpt>
      <trkpt lat="43.4476" lon="3.47266">
        <ele>102.80000305176</ele>
        <time>2023-12-19T13:19:46Z</time>
      </trkpt>
      <trkpt lat="43.44762" lon="3.47269">
        <ele>103</ele>
        <time>2023-12-19T13:19:47Z</time>
      </trkpt>
      <trkpt lat="43.44764" lon="3.47271">
        <ele>103.19999694824</ele>
        <time>2023-12-19T13:19:48Z</time>
      </trkpt>
      <trkpt lat="43.44766" lon="3.47272">
        <ele>103.40000152588</ele>
        <time>2023-12-19T13:19:49Z</time>
      </trkpt>
      <trkpt lat="43.44768" lon="3.47274">
        <ele>103.59999847412</ele>
        <time>2023-12-19T13:19:50Z</time>
      </trkpt>
      <trkpt lat="43.44771" lon="3.47275">
        <ele>103.80000305176</ele>
        <time>2023-12-19T13:19:51Z</time>
      </trkpt>
      <trkpt lat="43.44773" lon="3.47277">
        <ele>104</ele>
        <time>2023-12-19T13:19:52Z</time>
      </trkpt>
      <trkpt lat="43.44775" lon="3.47278">
        <ele>104.19999694824</ele>
        <time>2023-12-19T13:19:53Z</time>
      </trkpt>
      <trkpt lat="43.44777" lon="3.47281">
        <ele>104.40000152588</ele>
        <time>2023-12-19T13:19:54Z</time>
      </trkpt>
      <trkpt lat="43.44779" lon="3.47284">
        <ele>104.59999847412</ele>
        <time>2023-12-19T13:19:55Z</time>
      </trkpt>
      <trkpt lat="43.4478" lon="3.47286">
        <ele>104.80000305176</ele>
        <time>2023-12-19T13:19:56Z</time>
      </trkpt>
      <trkpt lat="43.44782" lon="3.47289">
        <ele>105</ele>
        <time>2023-12-19T13:19:57Z</time>
      </trkpt>
      <trkpt lat="43.44784" lon="3.47291">
        <ele>105.40000152588</ele>
        <time>2023-12-19T13:19:58Z</time>
      </trkpt>
      <trkpt lat="43.44785" lon="3.47293">
        <ele>105.59999847412</ele>
        <time>2023-12-19T13:19:59Z</time>
      </trkpt>
      <trkpt lat="43.44788" lon="3.47295">
        <ele>105.59999847412</ele>
        <time>2023-12-19T13:20:00Z</time>
      </trkpt>
      <trkpt lat="43.4479" lon="3.47296">
        <ele>105.80000305176</ele>
        <time>2023-12-19T13:20:01Z</time>
      </trkpt>
      <trkpt lat="43.44791" lon="3.47298">
        <ele>106.19999694824</ele>
        <time>2023-12-19T13:20:02Z</time>
      </trkpt>
      <trkpt lat="43.44793" lon="3.473">
        <ele>106.40000152588</ele>
        <time>2023-12-19T13:20:03Z</time>
      </trkpt>
      <trkpt lat="43.44794" lon="3.47303">
        <ele>106.59999847412</ele>
        <time>2023-12-19T13:20:04Z</time>
      </trkpt>
      <trkpt lat="43.44796" lon="3.47305">
        <ele>106.80000305176</ele>
        <time>2023-12-19T13:20:05Z</time>
      </trkpt>
      <trkpt lat="43.44798" lon="3.47307">
        <ele>107</ele>
        <time>2023-12-19T13:20:06Z</time>
      </trkpt>
      <trkpt lat="43.448" lon="3.4731">
        <ele>107</ele>
        <time>2023-12-19T13:20:07Z</time>
      </trkpt>
      <trkpt lat="43.44801" lon="3.47313">
        <ele>107.19999694824</ele>
        <time>2023-12-19T13:20:08Z</time>
      </trkpt>
      <trkpt lat="43.44803" lon="3.47315">
        <ele>107.19999694824</ele>
        <time>2023-12-19T13:20:09Z</time>
      </trkpt>
      <trkpt lat="43.44805" lon="3.47317">
        <ele>107.40000152588</ele>
        <time>2023-12-19T13:20:10Z</time>
      </trkpt>
      <trkpt lat="43.44806" lon="3.47319">
        <ele>107.40000152588</ele>
        <time>2023-12-19T13:20:11Z</time>
      </trkpt>
      <trkpt lat="43.44808" lon="3.47321">
        <ele>107.59999847412</ele>
        <time>2023-12-19T13:20:12Z</time>
      </trkpt>
      <trkpt lat="43.4481" lon="3.47323">
        <ele>107.59999847412</ele>
        <time>2023-12-19T13:20:13Z</time>
      </trkpt>
      <trkpt lat="43.44811" lon="3.47325">
        <ele>107.59999847412</ele>
        <time>2023-12-19T13:20:14Z</time>
      </trkpt>
      <trkpt lat="43.44813" lon="3.47327">
        <ele>107.80000305176</ele>
        <time>2023-12-19T13:20:15Z</time>
      </trkpt>
      <trkpt lat="43.44815" lon="3.47329">
        <ele>107.80000305176</ele>
        <time>2023-12-19T13:20:16Z</time>
      </trkpt>
      <trkpt lat="43.44817" lon="3.47331">
        <ele>107.80000305176</ele>
        <time>2023-12-19T13:20:17Z</time>
      </trkpt>
      <trkpt lat="43.44819" lon="3.47333">
        <ele>107.80000305176</ele>
        <time>2023-12-19T13:20:18Z</time>
      </trkpt>
      <trkpt lat="43.44821" lon="3.47335">
        <ele>107.80000305176</ele>
        <time>2023-12-19T13:20:19Z</time>
      </trkpt>
      <trkpt lat="43.44823" lon="3.47337">
        <ele>107.80000305176</ele>
        <time>2023-12-19T13:20:20Z</time>
      </trkpt>
      <trkpt lat="43.44825" lon="3.47339">
        <ele>108</ele>
        <time>2023-12-19T13:20:21Z</time>
      </trkpt>
      <trkpt lat="43.44828" lon="3.4734">
        <ele>108</ele>
        <time>2023-12-19T13:20:22Z</time>
      </trkpt>
      <trkpt lat="43.4483" lon="3.47339">
        <ele>108.19999694824</ele>
        <time>2023-12-19T13:20:23Z</time>
      </trkpt>
      <trkpt lat="43.44832" lon="3.47339">
        <ele>108.19999694824</ele>
        <time>2023-12-19T13:20:24Z</time>
      </trkpt>
      <trkpt lat="43.44834" lon="3.47339">
        <ele>108.40000152588</ele>
        <time>2023-12-19T13:20:25Z</time>
      </trkpt>
      <trkpt lat="43.44836" lon="3.47341">
        <ele>108.40000152588</ele>
        <time>2023-12-19T13:20:26Z</time>
      </trkpt>
      <trkpt lat="43.44838" lon="3.47342">
        <ele>108.40000152588</ele>
        <time>2023-12-19T13:20:27Z</time>
      </trkpt>
      <trkpt lat="43.4484" lon="3.47342">
        <ele>108.40000152588</ele>
        <time>2023-12-19T13:20:28Z</time>
      </trkpt>
      <trkpt lat="43.44842" lon="3.47341">
        <ele>108.40000152588</ele>
        <time>2023-12-19T13:20:29Z</time>
      </trkpt>
      <trkpt lat="43.44845" lon="3.47341">
        <ele>108.40000152588</ele>
        <time>2023-12-19T13:20:30Z</time>
      </trkpt>
      <trkpt lat="43.44847" lon="3.47342">
        <ele>108.59999847412</ele>
        <time>2023-12-19T13:20:31Z</time>
      </trkpt>
      <trkpt lat="43.4485" lon="3.47343">
        <ele>108.59999847412</ele>
        <time>2023-12-19T13:20:32Z</time>
      </trkpt>
      <trkpt lat="43.44852" lon="3.47344">
        <ele>108.59999847412</ele>
        <time>2023-12-19T13:20:33Z</time>
      </trkpt>
      <trkpt lat="43.44855" lon="3.47345">
        <ele>108.59999847412</ele>
        <time>2023-12-19T13:20:34Z</time>
      </trkpt>
      <trkpt lat="43.44858" lon="3.47346">
        <ele>108.80000305176</ele>
        <time>2023-12-19T13:20:35Z</time>
      </trkpt>
      <trkpt lat="43.4486" lon="3.47346">
        <ele>109</ele>
        <time>2023-12-19T13:20:36Z</time>
      </trkpt>
      <trkpt lat="43.44862" lon="3.47348">
        <ele>109</ele>
        <time>2023-12-19T13:20:37Z</time>
      </trkpt>
      <trkpt lat="43.44865" lon="3.47349">
        <ele>109</ele>
        <time>2023-12-19T13:20:38Z</time>
      </trkpt>
      <trkpt lat="43.44868" lon="3.47351">
        <ele>109</ele>
        <time>2023-12-19T13:20:39Z</time>
      </trkpt>
      <trkpt lat="43.4487" lon="3.47351">
        <ele>109</ele>
        <time>2023-12-19T13:20:40Z</time>
      </trkpt>
      <trkpt lat="43.44873" lon="3.47353">
        <ele>109</ele>
        <time>2023-12-19T13:20:41Z</time>
      </trkpt>
      <trkpt lat="43.44875" lon="3.47354">
        <ele>109</ele>
        <time>2023-12-19T13:20:42Z</time>
      </trkpt>
      <trkpt lat="43.44878" lon="3.47356">
        <ele>109</ele>
        <time>2023-12-19T13:20:43Z</time>
      </trkpt>
      <trkpt lat="43.4488" lon="3.47357">
        <ele>109.19999694824</ele>
        <time>2023-12-19T13:20:44Z</time>
      </trkpt>
      <trkpt lat="43.44883" lon="3.47359">
        <ele>109.19999694824</ele>
        <time>2023-12-19T13:20:45Z</time>
      </trkpt>
      <trkpt lat="43.44886" lon="3.47361">
        <ele>109.40000152588</ele>
        <time>2023-12-19T13:20:46Z</time>
      </trkpt>
      <trkpt lat="43.44888" lon="3.47363">
        <ele>109.40000152588</ele>
        <time>2023-12-19T13:20:47Z</time>
      </trkpt>
      <trkpt lat="43.4489" lon="3.47365">
        <ele>109.40000152588</ele>
        <time>2023-12-19T13:20:48Z</time>
      </trkpt>
      <trkpt lat="43.44892" lon="3.47366">
        <ele>109.40000152588</ele>
        <time>2023-12-19T13:20:49Z</time>
      </trkpt>
      <trkpt lat="43.44894" lon="3.47367">
        <ele>109.40000152588</ele>
        <time>2023-12-19T13:20:50Z</time>
      </trkpt>
      <trkpt lat="43.44897" lon="3.47369">
        <ele>109.40000152588</ele>
        <time>2023-12-19T13:20:51Z</time>
      </trkpt>
      <trkpt lat="43.44899" lon="3.47371">
        <ele>109.40000152588</ele>
        <time>2023-12-19T13:20:52Z</time>
      </trkpt>
      <trkpt lat="43.44902" lon="3.47373">
        <ele>109.40000152588</ele>
        <time>2023-12-19T13:20:53Z</time>
      </trkpt>
      <trkpt lat="43.44904" lon="3.47374">
        <ele>109.40000152588</ele>
        <time>2023-12-19T13:20:54Z</time>
      </trkpt>
      <trkpt lat="43.44906" lon="3.47376">
        <ele>109.40000152588</ele>
        <time>2023-12-19T13:20:55Z</time>
      </trkpt>
      <trkpt lat="43.44909" lon="3.47378">
        <ele>109.40000152588</ele>
        <time>2023-12-19T13:20:56Z</time>
      </trkpt>
      <trkpt lat="43.44912" lon="3.4738">
        <ele>109.40000152588</ele>
        <time>2023-12-19T13:20:57Z</time>
      </trkpt>
      <trkpt lat="43.44914" lon="3.47382">
        <ele>109.59999847412</ele>
        <time>2023-12-19T13:20:58Z</time>
      </trkpt>
      <trkpt lat="43.44917" lon="3.47383">
        <ele>109.59999847412</ele>
        <time>2023-12-19T13:20:59Z</time>
      </trkpt>
      <trkpt lat="43.4492" lon="3.47385">
        <ele>109.59999847412</ele>
        <time>2023-12-19T13:21:00Z</time>
      </trkpt>
      <trkpt lat="43.44923" lon="3.47386">
        <ele>109.59999847412</ele>
        <time>2023-12-19T13:21:01Z</time>
      </trkpt>
      <trkpt lat="43.44925" lon="3.47388">
        <ele>109.59999847412</ele>
        <time>2023-12-19T13:21:02Z</time>
      </trkpt>
      <trkpt lat="43.44928" lon="3.47389">
        <ele>109.59999847412</ele>
        <time>2023-12-19T13:21:03Z</time>
      </trkpt>
      <trkpt lat="43.4493" lon="3.47391">
        <ele>109.59999847412</ele>
        <time>2023-12-19T13:21:04Z</time>
      </trkpt>
      <trkpt lat="43.44933" lon="3.47393">
        <ele>109.59999847412</ele>
        <time>2023-12-19T13:21:05Z</time>
      </trkpt>
      <trkpt lat="43.44935" lon="3.47395">
        <ele>109.59999847412</ele>
        <time>2023-12-19T13:21:06Z</time>
      </trkpt>
      <trkpt lat="43.44938" lon="3.47397">
        <ele>109.59999847412</ele>
        <time>2023-12-19T13:21:07Z</time>
      </trkpt>
      <trkpt lat="43.4494" lon="3.47399">
        <ele>109.59999847412</ele>
        <time>2023-12-19T13:21:08Z</time>
      </trkpt>
      <trkpt lat="43.44943" lon="3.47401">
        <ele>109.80000305176</ele>
        <time>2023-12-19T13:21:09Z</time>
      </trkpt>
      <trkpt lat="43.44945" lon="3.47403">
        <ele>109.80000305176</ele>
        <time>2023-12-19T13:21:10Z</time>
      </trkpt>
      <trkpt lat="43.44948" lon="3.47404">
        <ele>109.80000305176</ele>
        <time>2023-12-19T13:21:11Z</time>
      </trkpt>
      <trkpt lat="43.4495" lon="3.47406">
        <ele>110</ele>
        <time>2023-12-19T13:21:12Z</time>
      </trkpt>
      <trkpt lat="43.44952" lon="3.47407">
        <ele>110</ele>
        <time>2023-12-19T13:21:13Z</time>
      </trkpt>
      <trkpt lat="43.44955" lon="3.47409">
        <ele>110</ele>
        <time>2023-12-19T13:21:14Z</time>
      </trkpt>
      <trkpt lat="43.44958" lon="3.4741">
        <ele>110.19999694824</ele>
        <time>2023-12-19T13:21:15Z</time>
      </trkpt>
      <trkpt lat="43.44961" lon="3.47411">
        <ele>110.19999694824</ele>
        <time>2023-12-19T13:21:16Z</time>
      </trkpt>
      <trkpt lat="43.44964" lon="3.47411">
        <ele>110.19999694824</ele>
        <time>2023-12-19T13:21:17Z</time>
      </trkpt>
      <trkpt lat="43.44966" lon="3.47412">
        <ele>110.19999694824</ele>
        <time>2023-12-19T13:21:18Z</time>
      </trkpt>
      <trkpt lat="43.44969" lon="3.47412">
        <ele>110.19999694824</ele>
        <time>2023-12-19T13:21:19Z</time>
      </trkpt>
      <trkpt lat="43.44972" lon="3.47413">
        <ele>110.19999694824</ele>
        <time>2023-12-19T13:21:20Z</time>
      </trkpt>
      <trkpt lat="43.44974" lon="3.47414">
        <ele>110.19999694824</ele>
        <time>2023-12-19T13:21:21Z</time>
      </trkpt>
      <trkpt lat="43.44977" lon="3.47416">
        <ele>110.19999694824</ele>
        <time>2023-12-19T13:21:22Z</time>
      </trkpt>
      <trkpt lat="43.44979" lon="3.47419">
        <ele>110.19999694824</ele>
        <time>2023-12-19T13:21:23Z</time>
      </trkpt>
      <trkpt lat="43.4498" lon="3.47422">
        <ele>110</ele>
        <time>2023-12-19T13:21:24Z</time>
      </trkpt>
      <trkpt lat="43.44982" lon="3.47425">
        <ele>110</ele>
        <time>2023-12-19T13:21:25Z</time>
      </trkpt>
      <trkpt lat="43.44983" lon="3.47428">
        <ele>110</ele>
        <time>2023-12-19T13:21:26Z</time>
      </trkpt>
      <trkpt lat="43.44984" lon="3.47431">
        <ele>110</ele>
        <time>2023-12-19T13:21:27Z</time>
      </trkpt>
      <trkpt lat="43.44985" lon="3.47435">
        <ele>110</ele>
        <time>2023-12-19T13:21:28Z</time>
      </trkpt>
      <trkpt lat="43.44986" lon="3.47439">
        <ele>109.80000305176</ele>
        <time>2023-12-19T13:21:29Z</time>
      </trkpt>
      <trkpt lat="43.44987" lon="3.47443">
        <ele>109.80000305176</ele>
        <time>2023-12-19T13:21:30Z</time>
      </trkpt>
      <trkpt lat="43.44988" lon="3.47447">
        <ele>109.80000305176</ele>
        <time>2023-12-19T13:21:31Z</time>
      </trkpt>
      <trkpt lat="43.4499" lon="3.47451">
        <ele>109.80000305176</ele>
        <time>2023-12-19T13:21:32Z</time>
      </trkpt>
      <trkpt lat="43.44992" lon="3.47455">
        <ele>109.59999847412</ele>
        <time>2023-12-19T13:21:33Z</time>
      </trkpt>
      <trkpt lat="43.44993" lon="3.47458">
        <ele>109.59999847412</ele>
        <time>2023-12-19T13:21:34Z</time>
      </trkpt>
      <trkpt lat="43.44995" lon="3.47461">
        <ele>109.59999847412</ele>
        <time>2023-12-19T13:21:35Z</time>
      </trkpt>
      <trkpt lat="43.44996" lon="3.47464">
        <ele>109.59999847412</ele>
        <time>2023-12-19T13:21:36Z</time>
      </trkpt>
      <trkpt lat="43.44998" lon="3.47467">
        <ele>109.59999847412</ele>
        <time>2023-12-19T13:21:37Z</time>
      </trkpt>
      <trkpt lat="43.45" lon="3.4747">
        <ele>109.59999847412</ele>
        <time>2023-12-19T13:21:38Z</time>
      </trkpt>
      <trkpt lat="43.45002" lon="3.47473">
        <ele>109.59999847412</ele>
        <time>2023-12-19T13:21:39Z</time>
      </trkpt>
      <trkpt lat="43.45003" lon="3.47476">
        <ele>109.59999847412</ele>
        <time>2023-12-19T13:21:40Z</time>
      </trkpt>
      <trkpt lat="43.45005" lon="3.47479">
        <ele>109.59999847412</ele>
        <time>2023-12-19T13:21:41Z</time>
      </trkpt>
      <trkpt lat="43.45007" lon="3.47482">
        <ele>109.59999847412</ele>
        <time>2023-12-19T13:21:42Z</time>
      </trkpt>
      <trkpt lat="43.45008" lon="3.47486">
        <ele>109.59999847412</ele>
        <time>2023-12-19T13:21:43Z</time>
      </trkpt>
      <trkpt lat="43.45009" lon="3.47489">
        <ele>109.80000305176</ele>
        <time>2023-12-19T13:21:44Z</time>
      </trkpt>
      <trkpt lat="43.45011" lon="3.47491">
        <ele>109.80000305176</ele>
        <time>2023-12-19T13:21:45Z</time>
      </trkpt>
      <trkpt lat="43.45014" lon="3.47493">
        <ele>109.80000305176</ele>
        <time>2023-12-19T13:21:46Z</time>
      </trkpt>
      <trkpt lat="43.45016" lon="3.47496">
        <ele>109.80000305176</ele>
        <time>2023-12-19T13:21:47Z</time>
      </trkpt>
      <trkpt lat="43.45018" lon="3.47498">
        <ele>109.80000305176</ele>
        <time>2023-12-19T13:21:48Z</time>
      </trkpt>
      <trkpt lat="43.4502" lon="3.47502">
        <ele>110</ele>
        <time>2023-12-19T13:21:49Z</time>
      </trkpt>
      <trkpt lat="43.45022" lon="3.47505">
        <ele>110</ele>
        <time>2023-12-19T13:21:50Z</time>
      </trkpt>
      <trkpt lat="43.45024" lon="3.47508">
        <ele>110</ele>
        <time>2023-12-19T13:21:51Z</time>
      </trkpt>
      <trkpt lat="43.45027" lon="3.4751">
        <ele>110</ele>
        <time>2023-12-19T13:21:52Z</time>
      </trkpt>
      <trkpt lat="43.45029" lon="3.47514">
        <ele>110.19999694824</ele>
        <time>2023-12-19T13:21:53Z</time>
      </trkpt>
      <trkpt lat="43.45032" lon="3.47517">
        <ele>110.19999694824</ele>
        <time>2023-12-19T13:21:54Z</time>
      </trkpt>
      <trkpt lat="43.45034" lon="3.4752">
        <ele>110.19999694824</ele>
        <time>2023-12-19T13:21:55Z</time>
      </trkpt>
      <trkpt lat="43.45036" lon="3.47524">
        <ele>110.19999694824</ele>
        <time>2023-12-19T13:21:56Z</time>
      </trkpt>
      <trkpt lat="43.45038" lon="3.47527">
        <ele>110.19999694824</ele>
        <time>2023-12-19T13:21:57Z</time>
      </trkpt>
      <trkpt lat="43.45041" lon="3.47531">
        <ele>110.19999694824</ele>
        <time>2023-12-19T13:21:58Z</time>
      </trkpt>
      <trkpt lat="43.45043" lon="3.47535">
        <ele>110.19999694824</ele>
        <time>2023-12-19T13:21:59Z</time>
      </trkpt>
      <trkpt lat="43.45045" lon="3.47539">
        <ele>110.19999694824</ele>
        <time>2023-12-19T13:22:00Z</time>
      </trkpt>
      <trkpt lat="43.45048" lon="3.47542">
        <ele>110.19999694824</ele>
        <time>2023-12-19T13:22:01Z</time>
      </trkpt>
      <trkpt lat="43.4505" lon="3.47547">
        <ele>110.19999694824</ele>
        <time>2023-12-19T13:22:02Z</time>
      </trkpt>
      <trkpt lat="43.45053" lon="3.4755">
        <ele>110.19999694824</ele>
        <time>2023-12-19T13:22:03Z</time>
      </trkpt>
      <trkpt lat="43.45056" lon="3.47554">
        <ele>110.19999694824</ele>
        <time>2023-12-19T13:22:04Z</time>
      </trkpt>
      <trkpt lat="43.45059" lon="3.47557">
        <ele>110.19999694824</ele>
        <time>2023-12-19T13:22:05Z</time>
      </trkpt>
      <trkpt lat="43.45061" lon="3.47561">
        <ele>110.19999694824</ele>
        <time>2023-12-19T13:22:06Z</time>
      </trkpt>
      <trkpt lat="43.45064" lon="3.47565">
        <ele>110.19999694824</ele>
        <time>2023-12-19T13:22:07Z</time>
      </trkpt>
      <trkpt lat="43.45066" lon="3.47569">
        <ele>110.19999694824</ele>
        <time>2023-12-19T13:22:08Z</time>
      </trkpt>
      <trkpt lat="43.45068" lon="3.47574">
        <ele>110.19999694824</ele>
        <time>2023-12-19T13:22:09Z</time>
      </trkpt>
      <trkpt lat="43.4507" lon="3.47579">
        <ele>110.19999694824</ele>
        <time>2023-12-19T13:22:10Z</time>
      </trkpt>
      <trkpt lat="43.45072" lon="3.47584">
        <ele>110.19999694824</ele>
        <time>2023-12-19T13:22:11Z</time>
      </trkpt>
      <trkpt lat="43.45074" lon="3.47588">
        <ele>110.40000152588</ele>
        <time>2023-12-19T13:22:12Z</time>
      </trkpt>
      <trkpt lat="43.45076" lon="3.47593">
        <ele>110.40000152588</ele>
        <time>2023-12-19T13:22:13Z</time>
      </trkpt>
      <trkpt lat="43.45078" lon="3.47598">
        <ele>110.40000152588</ele>
        <time>2023-12-19T13:22:14Z</time>
      </trkpt>
      <trkpt lat="43.45079" lon="3.47603">
        <ele>110.40000152588</ele>
        <time>2023-12-19T13:22:15Z</time>
      </trkpt>
      <trkpt lat="43.45081" lon="3.47608">
        <ele>110.40000152588</ele>
        <time>2023-12-19T13:22:16Z</time>
      </trkpt>
      <trkpt lat="43.45082" lon="3.47612">
        <ele>110.40000152588</ele>
        <time>2023-12-19T13:22:17Z</time>
      </trkpt>
      <trkpt lat="43.45083" lon="3.47616">
        <ele>110.40000152588</ele>
        <time>2023-12-19T13:22:18Z</time>
      </trkpt>
      <trkpt lat="43.45085" lon="3.4762">
        <ele>110.40000152588</ele>
        <time>2023-12-19T13:22:19Z</time>
      </trkpt>
      <trkpt lat="43.45086" lon="3.47624">
        <ele>110.40000152588</ele>
        <time>2023-12-19T13:22:20Z</time>
      </trkpt>
      <trkpt lat="43.45088" lon="3.47626">
        <ele>110.40000152588</ele>
        <time>2023-12-19T13:22:21Z</time>
      </trkpt>
      <trkpt lat="43.45089" lon="3.47629">
        <ele>110.59999847412</ele>
        <time>2023-12-19T13:22:22Z</time>
      </trkpt>
      <trkpt lat="43.45091" lon="3.4763">
        <ele>110.59999847412</ele>
        <time>2023-12-19T13:22:23Z</time>
      </trkpt>
      <trkpt lat="43.45093" lon="3.47631">
        <ele>110.59999847412</ele>
        <time>2023-12-19T13:22:24Z</time>
      </trkpt>
      <trkpt lat="43.45096" lon="3.47632">
        <ele>110.80000305176</ele>
        <time>2023-12-19T13:22:25Z</time>
      </trkpt>
      <trkpt lat="43.45098" lon="3.47632">
        <ele>111</ele>
        <time>2023-12-19T13:22:26Z</time>
      </trkpt>
      <trkpt lat="43.451" lon="3.47632">
        <ele>111</ele>
        <time>2023-12-19T13:22:27Z</time>
      </trkpt>
      <trkpt lat="43.45101" lon="3.4763">
        <ele>111.19999694824</ele>
        <time>2023-12-19T13:22:28Z</time>
      </trkpt>
      <trkpt lat="43.45103" lon="3.47628">
        <ele>111.19999694824</ele>
        <time>2023-12-19T13:22:29Z</time>
      </trkpt>
      <trkpt lat="43.45104" lon="3.47626">
        <ele>111.19999694824</ele>
        <time>2023-12-19T13:22:30Z</time>
      </trkpt>
      <trkpt lat="43.45104" lon="3.47623">
        <ele>111.19999694824</ele>
        <time>2023-12-19T13:22:31Z</time>
      </trkpt>
      <trkpt lat="43.45104" lon="3.4762">
        <ele>111.19999694824</ele>
        <time>2023-12-19T13:22:32Z</time>
      </trkpt>
      <trkpt lat="43.45105" lon="3.47618">
        <ele>111.19999694824</ele>
        <time>2023-12-19T13:22:33Z</time>
      </trkpt>
      <trkpt lat="43.45106" lon="3.47616">
        <ele>111.19999694824</ele>
        <time>2023-12-19T13:22:34Z</time>
      </trkpt>
      <trkpt lat="43.45107" lon="3.47614">
        <ele>111.19999694824</ele>
        <time>2023-12-19T13:22:35Z</time>
      </trkpt>
      <trkpt lat="43.45107" lon="3.47612">
        <ele>111.40000152588</ele>
        <time>2023-12-19T13:22:36Z</time>
      </trkpt>
      <trkpt lat="43.45108" lon="3.4761">
        <ele>111.80000305176</ele>
        <time>2023-12-19T13:22:37Z</time>
      </trkpt>
      <trkpt lat="43.45109" lon="3.47607">
        <ele>112.19999694824</ele>
        <time>2023-12-19T13:22:38Z</time>
      </trkpt>
      <trkpt lat="43.45109" lon="3.47605">
        <ele>112.19999694824</ele>
        <time>2023-12-19T13:22:39Z</time>
      </trkpt>
      <trkpt lat="43.4511" lon="3.47601">
        <ele>112.19999694824</ele>
        <time>2023-12-19T13:22:40Z</time>
      </trkpt>
      <trkpt lat="43.4511" lon="3.47598">
        <ele>112.19999694824</ele>
        <time>2023-12-19T13:22:41Z</time>
      </trkpt>
      <trkpt lat="43.45111" lon="3.47594">
        <ele>112.19999694824</ele>
        <time>2023-12-19T13:22:42Z</time>
      </trkpt>
      <trkpt lat="43.45111" lon="3.47591">
        <ele>112.19999694824</ele>
        <time>2023-12-19T13:22:43Z</time>
      </trkpt>
      <trkpt lat="43.45111" lon="3.47588">
        <ele>112.19999694824</ele>
        <time>2023-12-19T13:22:44Z</time>
      </trkpt>
      <trkpt lat="43.45111" lon="3.47584">
        <ele>112.19999694824</ele>
        <time>2023-12-19T13:22:45Z</time>
      </trkpt>
      <trkpt lat="43.4511" lon="3.4758">
        <ele>112.19999694824</ele>
        <time>2023-12-19T13:22:46Z</time>
      </trkpt>
      <trkpt lat="43.4511" lon="3.47576">
        <ele>112.40000152588</ele>
        <time>2023-12-19T13:22:47Z</time>
      </trkpt>
      <trkpt lat="43.4511" lon="3.47572">
        <ele>112.40000152588</ele>
        <time>2023-12-19T13:22:48Z</time>
      </trkpt>
      <trkpt lat="43.4511" lon="3.47569">
        <ele>112.40000152588</ele>
        <time>2023-12-19T13:22:49Z</time>
      </trkpt>
      <trkpt lat="43.45111" lon="3.47565">
        <ele>112.40000152588</ele>
        <time>2023-12-19T13:22:50Z</time>
      </trkpt>
      <trkpt lat="43.45111" lon="3.47561">
        <ele>112.40000152588</ele>
        <time>2023-12-19T13:22:51Z</time>
      </trkpt>
      <trkpt lat="43.45112" lon="3.47558">
        <ele>112.40000152588</ele>
        <time>2023-12-19T13:22:52Z</time>
      </trkpt>
      <trkpt lat="43.45113" lon="3.47554">
        <ele>112.40000152588</ele>
        <time>2023-12-19T13:22:53Z</time>
      </trkpt>
      <trkpt lat="43.45113" lon="3.4755">
        <ele>112.59999847412</ele>
        <time>2023-12-19T13:22:54Z</time>
      </trkpt>
      <trkpt lat="43.45114" lon="3.47546">
        <ele>112.59999847412</ele>
        <time>2023-12-19T13:22:55Z</time>
      </trkpt>
      <trkpt lat="43.45115" lon="3.47543">
        <ele>112.80000305176</ele>
        <time>2023-12-19T13:22:56Z</time>
      </trkpt>
      <trkpt lat="43.45115" lon="3.47539">
        <ele>112.80000305176</ele>
        <time>2023-12-19T13:22:57Z</time>
      </trkpt>
      <trkpt lat="43.45116" lon="3.47535">
        <ele>113</ele>
        <time>2023-12-19T13:22:58Z</time>
      </trkpt>
      <trkpt lat="43.45118" lon="3.47531">
        <ele>113</ele>
        <time>2023-12-19T13:22:59Z</time>
      </trkpt>
      <trkpt lat="43.45119" lon="3.47527">
        <ele>113.40000152588</ele>
        <time>2023-12-19T13:23:00Z</time>
      </trkpt>
      <trkpt lat="43.4512" lon="3.47524">
        <ele>113.40000152588</ele>
        <time>2023-12-19T13:23:01Z</time>
      </trkpt>
      <trkpt lat="43.45121" lon="3.47521">
        <ele>113.40000152588</ele>
        <time>2023-12-19T13:23:02Z</time>
      </trkpt>
      <trkpt lat="43.45123" lon="3.47517">
        <ele>113.40000152588</ele>
        <time>2023-12-19T13:23:03Z</time>
      </trkpt>
      <trkpt lat="43.45125" lon="3.47514">
        <ele>113.40000152588</ele>
        <time>2023-12-19T13:23:04Z</time>
      </trkpt>
      <trkpt lat="43.45127" lon="3.47512">
        <ele>113.40000152588</ele>
        <time>2023-12-19T13:23:05Z</time>
      </trkpt>
      <trkpt lat="43.45128" lon="3.4751">
        <ele>113.40000152588</ele>
        <time>2023-12-19T13:23:06Z</time>
      </trkpt>
      <trkpt lat="43.4513" lon="3.47507">
        <ele>113.40000152588</ele>
        <time>2023-12-19T13:23:07Z</time>
      </trkpt>
      <trkpt lat="43.45132" lon="3.47504">
        <ele>113.19999694824</ele>
        <time>2023-12-19T13:23:08Z</time>
      </trkpt>
      <trkpt lat="43.45133" lon="3.475">
        <ele>113.19999694824</ele>
        <time>2023-12-19T13:23:09Z</time>
      </trkpt>
      <trkpt lat="43.45133" lon="3.47497">
        <ele>113.19999694824</ele>
        <time>2023-12-19T13:23:10Z</time>
      </trkpt>
      <trkpt lat="43.45132" lon="3.47493">
        <ele>113.19999694824</ele>
        <time>2023-12-19T13:23:11Z</time>
      </trkpt>
      <trkpt lat="43.45132" lon="3.4749">
        <ele>113.19999694824</ele>
        <time>2023-12-19T13:23:12Z</time>
      </trkpt>
      <trkpt lat="43.45132" lon="3.47487">
        <ele>113.19999694824</ele>
        <time>2023-12-19T13:23:13Z</time>
      </trkpt>
      <trkpt lat="43.45132" lon="3.47483">
        <ele>113.19999694824</ele>
        <time>2023-12-19T13:23:14Z</time>
      </trkpt>
      <trkpt lat="43.45133" lon="3.47478">
        <ele>113.19999694824</ele>
        <time>2023-12-19T13:23:15Z</time>
      </trkpt>
      <trkpt lat="43.45133" lon="3.47475">
        <ele>113.19999694824</ele>
        <time>2023-12-19T13:23:16Z</time>
      </trkpt>
      <trkpt lat="43.45135" lon="3.47471">
        <ele>113.19999694824</ele>
        <time>2023-12-19T13:23:17Z</time>
      </trkpt>
      <trkpt lat="43.45135" lon="3.47468">
        <ele>113.40000152588</ele>
        <time>2023-12-19T13:23:18Z</time>
      </trkpt>
      <trkpt lat="43.45137" lon="3.47465">
        <ele>113.40000152588</ele>
        <time>2023-12-19T13:23:19Z</time>
      </trkpt>
      <trkpt lat="43.45137" lon="3.47462">
        <ele>113.59999847412</ele>
        <time>2023-12-19T13:23:20Z</time>
      </trkpt>
      <trkpt lat="43.45139" lon="3.47459">
        <ele>113.59999847412</ele>
        <time>2023-12-19T13:23:21Z</time>
      </trkpt>
      <trkpt lat="43.4514" lon="3.47456">
        <ele>113.59999847412</ele>
        <time>2023-12-19T13:23:22Z</time>
      </trkpt>
      <trkpt lat="43.45142" lon="3.47453">
        <ele>113.59999847412</ele>
        <time>2023-12-19T13:23:23Z</time>
      </trkpt>
      <trkpt lat="43.45144" lon="3.4745">
        <ele>113.59999847412</ele>
        <time>2023-12-19T13:23:24Z</time>
      </trkpt>
      <trkpt lat="43.45146" lon="3.47446">
        <ele>113.59999847412</ele>
        <time>2023-12-19T13:23:25Z</time>
      </trkpt>
      <trkpt lat="43.45148" lon="3.47443">
        <ele>113.59999847412</ele>
        <time>2023-12-19T13:23:26Z</time>
      </trkpt>
      <trkpt lat="43.4515" lon="3.4744">
        <ele>113.40000152588</ele>
        <time>2023-12-19T13:23:27Z</time>
      </trkpt>
      <trkpt lat="43.45151" lon="3.47438">
        <ele>113.40000152588</ele>
        <time>2023-12-19T13:23:28Z</time>
      </trkpt>
      <trkpt lat="43.45153" lon="3.47437">
        <ele>113</ele>
        <time>2023-12-19T13:23:29Z</time>
      </trkpt>
      <trkpt lat="43.45155" lon="3.47437">
        <ele>112.59999847412</ele>
        <time>2023-12-19T13:23:30Z</time>
      </trkpt>
      <trkpt lat="43.45158" lon="3.47435">
        <ele>112.40000152588</ele>
        <time>2023-12-19T13:23:31Z</time>
      </trkpt>
      <trkpt lat="43.45159" lon="3.47432">
        <ele>112</ele>
        <time>2023-12-19T13:23:32Z</time>
      </trkpt>
      <trkpt lat="43.4516" lon="3.47429">
        <ele>111.80000305176</ele>
        <time>2023-12-19T13:23:33Z</time>
      </trkpt>
      <trkpt lat="43.45159" lon="3.47426">
        <ele>111.59999847412</ele>
        <time>2023-12-19T13:23:34Z</time>
      </trkpt>
      <trkpt lat="43.45158" lon="3.47423">
        <ele>111.40000152588</ele>
        <time>2023-12-19T13:23:35Z</time>
      </trkpt>
      <trkpt lat="43.45157" lon="3.47421">
        <ele>111.19999694824</ele>
        <time>2023-12-19T13:23:36Z</time>
      </trkpt>
      <trkpt lat="43.45156" lon="3.47418">
        <ele>111</ele>
        <time>2023-12-19T13:23:37Z</time>
      </trkpt>
      <trkpt lat="43.45155" lon="3.47416">
        <ele>111</ele>
        <time>2023-12-19T13:23:38Z</time>
      </trkpt>
      <trkpt lat="43.45154" lon="3.47414">
        <ele>111</ele>
        <time>2023-12-19T13:23:39Z</time>
      </trkpt>
      <trkpt lat="43.45152" lon="3.47411">
        <ele>111</ele>
        <time>2023-12-19T13:23:40Z</time>
      </trkpt>
      <trkpt lat="43.45151" lon="3.47408">
        <ele>111.19999694824</ele>
        <time>2023-12-19T13:23:41Z</time>
      </trkpt>
      <trkpt lat="43.4515" lon="3.47406">
        <ele>111.19999694824</ele>
        <time>2023-12-19T13:23:42Z</time>
      </trkpt>
      <trkpt lat="43.45149" lon="3.47402">
        <ele>111.19999694824</ele>
        <time>2023-12-19T13:23:43Z</time>
      </trkpt>
      <trkpt lat="43.45147" lon="3.474">
        <ele>111.19999694824</ele>
        <time>2023-12-19T13:23:44Z</time>
      </trkpt>
      <trkpt lat="43.45146" lon="3.47397">
        <ele>111.19999694824</ele>
        <time>2023-12-19T13:23:45Z</time>
      </trkpt>
      <trkpt lat="43.45146" lon="3.47394">
        <ele>111.19999694824</ele>
        <time>2023-12-19T13:23:46Z</time>
      </trkpt>
      <trkpt lat="43.45145" lon="3.47391">
        <ele>111.19999694824</ele>
        <time>2023-12-19T13:23:47Z</time>
      </trkpt>
      <trkpt lat="43.45144" lon="3.47389">
        <ele>111.19999694824</ele>
        <time>2023-12-19T13:23:48Z</time>
      </trkpt>
      <trkpt lat="43.45142" lon="3.47388">
        <ele>111</ele>
        <time>2023-12-19T13:23:49Z</time>
      </trkpt>
      <trkpt lat="43.45139" lon="3.47386">
        <ele>111</ele>
        <time>2023-12-19T13:23:50Z</time>
      </trkpt>
      <trkpt lat="43.45138" lon="3.47385">
        <ele>110.80000305176</ele>
        <time>2023-12-19T13:23:51Z</time>
      </trkpt>
      <trkpt lat="43.45136" lon="3.47383">
        <ele>110.80000305176</ele>
        <time>2023-12-19T13:23:52Z</time>
      </trkpt>
      <trkpt lat="43.45135" lon="3.47382">
        <ele>110.59999847412</ele>
        <time>2023-12-19T13:23:53Z</time>
      </trkpt>
      <trkpt lat="43.45134" lon="3.4738">
        <ele>110.40000152588</ele>
        <time>2023-12-19T13:23:54Z</time>
      </trkpt>
      <trkpt lat="43.45133" lon="3.47379">
        <ele>110.40000152588</ele>
        <time>2023-12-19T13:23:55Z</time>
      </trkpt>
      <trkpt lat="43.45131" lon="3.47376">
        <ele>110.40000152588</ele>
        <time>2023-12-19T13:23:56Z</time>
      </trkpt>
      <trkpt lat="43.45129" lon="3.47374">
        <ele>110.40000152588</ele>
        <time>2023-12-19T13:23:57Z</time>
      </trkpt>
      <trkpt lat="43.45127" lon="3.47371">
        <ele>110.40000152588</ele>
        <time>2023-12-19T13:23:58Z</time>
      </trkpt>
      <trkpt lat="43.45124" lon="3.47369">
        <ele>110.40000152588</ele>
        <time>2023-12-19T13:23:59Z</time>
      </trkpt>
      <trkpt lat="43.45122" lon="3.47367">
        <ele>110.40000152588</ele>
        <time>2023-12-19T13:24:00Z</time>
      </trkpt>
      <trkpt lat="43.4512" lon="3.47366">
        <ele>110.19999694824</ele>
        <time>2023-12-19T13:24:01Z</time>
      </trkpt>
      <trkpt lat="43.45119" lon="3.47364">
        <ele>110</ele>
        <time>2023-12-19T13:24:02Z</time>
      </trkpt>
      <trkpt lat="43.45117" lon="3.47363">
        <ele>109.80000305176</ele>
        <time>2023-12-19T13:24:03Z</time>
      </trkpt>
      <trkpt lat="43.45116" lon="3.47361">
        <ele>109.80000305176</ele>
        <time>2023-12-19T13:24:04Z</time>
      </trkpt>
      <trkpt lat="43.45115" lon="3.47358">
        <ele>109.59999847412</ele>
        <time>2023-12-19T13:24:05Z</time>
      </trkpt>
      <trkpt lat="43.45114" lon="3.47355">
        <ele>109.59999847412</ele>
        <time>2023-12-19T13:24:06Z</time>
      </trkpt>
      <trkpt lat="43.45113" lon="3.47352">
        <ele>109.59999847412</ele>
        <time>2023-12-19T13:24:07Z</time>
      </trkpt>
      <trkpt lat="43.45113" lon="3.47349">
        <ele>109.40000152588</ele>
        <time>2023-12-19T13:24:08Z</time>
      </trkpt>
      <trkpt lat="43.45113" lon="3.47345">
        <ele>109.19999694824</ele>
        <time>2023-12-19T13:24:09Z</time>
      </trkpt>
      <trkpt lat="43.45113" lon="3.47341">
        <ele>109</ele>
        <time>2023-12-19T13:24:10Z</time>
      </trkpt>
      <trkpt lat="43.45113" lon="3.47338">
        <ele>108.59999847412</ele>
        <time>2023-12-19T13:24:11Z</time>
      </trkpt>
      <trkpt lat="43.45113" lon="3.47334">
        <ele>108.40000152588</ele>
        <time>2023-12-19T13:24:12Z</time>
      </trkpt>
      <trkpt lat="43.45113" lon="3.47331">
        <ele>108.19999694824</ele>
        <time>2023-12-19T13:24:13Z</time>
      </trkpt>
      <trkpt lat="43.45113" lon="3.47327">
        <ele>107.80000305176</ele>
        <time>2023-12-19T13:24:14Z</time>
      </trkpt>
      <trkpt lat="43.45112" lon="3.47322">
        <ele>107.40000152588</ele>
        <time>2023-12-19T13:24:15Z</time>
      </trkpt>
      <trkpt lat="43.45111" lon="3.47319">
        <ele>107.19999694824</ele>
        <time>2023-12-19T13:24:16Z</time>
      </trkpt>
      <trkpt lat="43.45112" lon="3.47315">
        <ele>107</ele>
        <time>2023-12-19T13:24:17Z</time>
      </trkpt>
      <trkpt lat="43.45112" lon="3.47311">
        <ele>106.80000305176</ele>
        <time>2023-12-19T13:24:18Z</time>
      </trkpt>
      <trkpt lat="43.45113" lon="3.47307">
        <ele>106.59999847412</ele>
        <time>2023-12-19T13:24:19Z</time>
      </trkpt>
      <trkpt lat="43.45115" lon="3.47302">
        <ele>106.40000152588</ele>
        <time>2023-12-19T13:24:20Z</time>
      </trkpt>
      <trkpt lat="43.45117" lon="3.47298">
        <ele>106</ele>
        <time>2023-12-19T13:24:21Z</time>
      </trkpt>
      <trkpt lat="43.45119" lon="3.47295">
        <ele>105.59999847412</ele>
        <time>2023-12-19T13:24:22Z</time>
      </trkpt>
      <trkpt lat="43.45121" lon="3.47291">
        <ele>105.19999694824</ele>
        <time>2023-12-19T13:24:23Z</time>
      </trkpt>
      <trkpt lat="43.45123" lon="3.47287">
        <ele>104.59999847412</ele>
        <time>2023-12-19T13:24:24Z</time>
      </trkpt>
      <trkpt lat="43.45125" lon="3.47284">
        <ele>104.40000152588</ele>
        <time>2023-12-19T13:24:25Z</time>
      </trkpt>
      <trkpt lat="43.45128" lon="3.47281">
        <ele>104</ele>
        <time>2023-12-19T13:24:26Z</time>
      </trkpt>
      <trkpt lat="43.4513" lon="3.47278">
        <ele>104</ele>
        <time>2023-12-19T13:24:27Z</time>
      </trkpt>
      <trkpt lat="43.45131" lon="3.47275">
        <ele>104</ele>
        <time>2023-12-19T13:24:28Z</time>
      </trkpt>
      <trkpt lat="43.45134" lon="3.47272">
        <ele>103.59999847412</ele>
        <time>2023-12-19T13:24:29Z</time>
      </trkpt>
      <trkpt lat="43.45137" lon="3.47269">
        <ele>103.19999694824</ele>
        <time>2023-12-19T13:24:30Z</time>
      </trkpt>
      <trkpt lat="43.45139" lon="3.47266">
        <ele>103</ele>
        <time>2023-12-19T13:24:31Z</time>
      </trkpt>
      <trkpt lat="43.45142" lon="3.47264">
        <ele>102.59999847412</ele>
        <time>2023-12-19T13:24:32Z</time>
      </trkpt>
      <trkpt lat="43.45145" lon="3.47261">
        <ele>102.40000152588</ele>
        <time>2023-12-19T13:24:33Z</time>
      </trkpt>
      <trkpt lat="43.45148" lon="3.47259">
        <ele>102</ele>
        <time>2023-12-19T13:24:34Z</time>
      </trkpt>
      <trkpt lat="43.45152" lon="3.47256">
        <ele>101.59999847412</ele>
        <time>2023-12-19T13:24:35Z</time>
      </trkpt>
      <trkpt lat="43.45155" lon="3.47254">
        <ele>101.40000152588</ele>
        <time>2023-12-19T13:24:36Z</time>
      </trkpt>
      <trkpt lat="43.45158" lon="3.47251">
        <ele>101</ele>
        <time>2023-12-19T13:24:37Z</time>
      </trkpt>
      <trkpt lat="43.4516" lon="3.47248">
        <ele>100.80000305176</ele>
        <time>2023-12-19T13:24:38Z</time>
      </trkpt>
      <trkpt lat="43.45162" lon="3.47245">
        <ele>100.40000152588</ele>
        <time>2023-12-19T13:24:39Z</time>
      </trkpt>
      <trkpt lat="43.45164" lon="3.47242">
        <ele>100.19999694824</ele>
        <time>2023-12-19T13:24:40Z</time>
      </trkpt>
      <trkpt lat="43.45166" lon="3.47238">
        <ele>100</ele>
        <time>2023-12-19T13:24:41Z</time>
      </trkpt>
      <trkpt lat="43.45168" lon="3.47235">
        <ele>99.800003051758</ele>
        <time>2023-12-19T13:24:42Z</time>
      </trkpt>
      <trkpt lat="43.4517" lon="3.4723">
        <ele>99.599998474121</ele>
        <time>2023-12-19T13:24:43Z</time>
      </trkpt>
      <trkpt lat="43.45172" lon="3.47227">
        <ele>99.599998474121</ele>
        <time>2023-12-19T13:24:44Z</time>
      </trkpt>
      <trkpt lat="43.45173" lon="3.47223">
        <ele>99.599998474121</ele>
        <time>2023-12-19T13:24:45Z</time>
      </trkpt>
      <trkpt lat="43.45176" lon="3.47219">
        <ele>99.199996948242</ele>
        <time>2023-12-19T13:24:46Z</time>
      </trkpt>
      <trkpt lat="43.45178" lon="3.47215">
        <ele>99</ele>
        <time>2023-12-19T13:24:47Z</time>
      </trkpt>
      <trkpt lat="43.45181" lon="3.47212">
        <ele>98.800003051758</ele>
        <time>2023-12-19T13:24:48Z</time>
      </trkpt>
      <trkpt lat="43.45183" lon="3.47208">
        <ele>98.800003051758</ele>
        <time>2023-12-19T13:24:49Z</time>
      </trkpt>
      <trkpt lat="43.45186" lon="3.47204">
        <ele>98.800003051758</ele>
        <time>2023-12-19T13:24:50Z</time>
      </trkpt>
      <trkpt lat="43.45188" lon="3.47199">
        <ele>98.599998474121</ele>
        <time>2023-12-19T13:24:51Z</time>
      </trkpt>
      <trkpt lat="43.45191" lon="3.47196">
        <ele>98.199996948242</ele>
        <time>2023-12-19T13:24:52Z</time>
      </trkpt>
      <trkpt lat="43.45194" lon="3.47193">
        <ele>98</ele>
        <time>2023-12-19T13:24:53Z</time>
      </trkpt>
      <trkpt lat="43.45197" lon="3.47189">
        <ele>97.599998474121</ele>
        <time>2023-12-19T13:24:54Z</time>
      </trkpt>
      <trkpt lat="43.452" lon="3.47186">
        <ele>97.400001525879</ele>
        <time>2023-12-19T13:24:55Z</time>
      </trkpt>
      <trkpt lat="43.45203" lon="3.47184">
        <ele>97.199996948242</ele>
        <time>2023-12-19T13:24:56Z</time>
      </trkpt>
      <trkpt lat="43.45207" lon="3.47181">
        <ele>97.199996948242</ele>
        <time>2023-12-19T13:24:57Z</time>
      </trkpt>
      <trkpt lat="43.45209" lon="3.47178">
        <ele>97</ele>
        <time>2023-12-19T13:24:58Z</time>
      </trkpt>
      <trkpt lat="43.45212" lon="3.47175">
        <ele>96.800003051758</ele>
        <time>2023-12-19T13:24:59Z</time>
      </trkpt>
      <trkpt lat="43.45215" lon="3.47172">
        <ele>96.800003051758</ele>
        <time>2023-12-19T13:25:00Z</time>
      </trkpt>
      <trkpt lat="43.45218" lon="3.47169">
        <ele>96.800003051758</ele>
        <time>2023-12-19T13:25:01Z</time>
      </trkpt>
      <trkpt lat="43.45221" lon="3.47166">
        <ele>96.599998474121</ele>
        <time>2023-12-19T13:25:02Z</time>
      </trkpt>
      <trkpt lat="43.45224" lon="3.47163">
        <ele>96.599998474121</ele>
        <time>2023-12-19T13:25:03Z</time>
      </trkpt>
      <trkpt lat="43.45227" lon="3.4716">
        <ele>96.400001525879</ele>
        <time>2023-12-19T13:25:04Z</time>
      </trkpt>
      <trkpt lat="43.4523" lon="3.47157">
        <ele>96.199996948242</ele>
        <time>2023-12-19T13:25:05Z</time>
      </trkpt>
      <trkpt lat="43.45233" lon="3.47155">
        <ele>96</ele>
        <time>2023-12-19T13:25:06Z</time>
      </trkpt>
      <trkpt lat="43.45236" lon="3.47153">
        <ele>96</ele>
        <time>2023-12-19T13:25:07Z</time>
      </trkpt>
      <trkpt lat="43.45239" lon="3.47152">
        <ele>96</ele>
        <time>2023-12-19T13:25:08Z</time>
      </trkpt>
      <trkpt lat="43.45242" lon="3.47149">
        <ele>95.800003051758</ele>
        <time>2023-12-19T13:25:09Z</time>
      </trkpt>
      <trkpt lat="43.45245" lon="3.47145">
        <ele>95.800003051758</ele>
        <time>2023-12-19T13:25:10Z</time>
      </trkpt>
      <trkpt lat="43.45248" lon="3.47143">
        <ele>95.800003051758</ele>
        <time>2023-12-19T13:25:11Z</time>
      </trkpt>
      <trkpt lat="43.45251" lon="3.4714">
        <ele>95.599998474121</ele>
        <time>2023-12-19T13:25:12Z</time>
      </trkpt>
      <trkpt lat="43.45254" lon="3.47137">
        <ele>95.199996948242</ele>
        <time>2023-12-19T13:25:13Z</time>
      </trkpt>
      <trkpt lat="43.45257" lon="3.47135">
        <ele>95.199996948242</ele>
        <time>2023-12-19T13:25:14Z</time>
      </trkpt>
      <trkpt lat="43.4526" lon="3.47134">
        <ele>94.800003051758</ele>
        <time>2023-12-19T13:25:15Z</time>
      </trkpt>
      <trkpt lat="43.45263" lon="3.47132">
        <ele>94.599998474121</ele>
        <time>2023-12-19T13:25:16Z</time>
      </trkpt>
      <trkpt lat="43.45265" lon="3.47131">
        <ele>94.400001525879</ele>
        <time>2023-12-19T13:25:17Z</time>
      </trkpt>
      <trkpt lat="43.45267" lon="3.4713">
        <ele>94.400001525879</ele>
        <time>2023-12-19T13:25:18Z</time>
      </trkpt>
      <trkpt lat="43.45269" lon="3.47129">
        <ele>94.400001525879</ele>
        <time>2023-12-19T13:25:19Z</time>
      </trkpt>
      <trkpt lat="43.45272" lon="3.47128">
        <ele>94.199996948242</ele>
        <time>2023-12-19T13:25:20Z</time>
      </trkpt>
      <trkpt lat="43.45274" lon="3.47127">
        <ele>94.199996948242</ele>
        <time>2023-12-19T13:25:21Z</time>
      </trkpt>
      <trkpt lat="43.45277" lon="3.47126">
        <ele>94.199996948242</ele>
        <time>2023-12-19T13:25:22Z</time>
      </trkpt>
      <trkpt lat="43.45279" lon="3.47125">
        <ele>94</ele>
        <time>2023-12-19T13:25:23Z</time>
      </trkpt>
      <trkpt lat="43.45282" lon="3.47124">
        <ele>94</ele>
        <time>2023-12-19T13:25:24Z</time>
      </trkpt>
      <trkpt lat="43.45285" lon="3.47123">
        <ele>94</ele>
        <time>2023-12-19T13:25:25Z</time>
      </trkpt>
      <trkpt lat="43.45288" lon="3.47122">
        <ele>93.800003051758</ele>
        <time>2023-12-19T13:25:26Z</time>
      </trkpt>
      <trkpt lat="43.45291" lon="3.47122">
        <ele>93.800003051758</ele>
        <time>2023-12-19T13:25:27Z</time>
      </trkpt>
      <trkpt lat="43.45294" lon="3.47121">
        <ele>93.800003051758</ele>
        <time>2023-12-19T13:25:28Z</time>
      </trkpt>
      <trkpt lat="43.45297" lon="3.47119">
        <ele>93.800003051758</ele>
        <time>2023-12-19T13:25:29Z</time>
      </trkpt>
      <trkpt lat="43.453" lon="3.47118">
        <ele>93.800003051758</ele>
        <time>2023-12-19T13:25:30Z</time>
      </trkpt>
      <trkpt lat="43.45302" lon="3.47117">
        <ele>93.599998474121</ele>
        <time>2023-12-19T13:25:31Z</time>
      </trkpt>
      <trkpt lat="43.45305" lon="3.47116">
        <ele>93.599998474121</ele>
        <time>2023-12-19T13:25:32Z</time>
      </trkpt>
      <trkpt lat="43.45308" lon="3.47115">
        <ele>93.599998474121</ele>
        <time>2023-12-19T13:25:33Z</time>
      </trkpt>
      <trkpt lat="43.45311" lon="3.47114">
        <ele>93.400001525879</ele>
        <time>2023-12-19T13:25:34Z</time>
      </trkpt>
      <trkpt lat="43.45314" lon="3.47112">
        <ele>93.400001525879</ele>
        <time>2023-12-19T13:25:35Z</time>
      </trkpt>
      <trkpt lat="43.45317" lon="3.4711">
        <ele>93.199996948242</ele>
        <time>2023-12-19T13:25:36Z</time>
      </trkpt>
      <trkpt lat="43.45319" lon="3.47108">
        <ele>93.199996948242</ele>
        <time>2023-12-19T13:25:37Z</time>
      </trkpt>
      <trkpt lat="43.45322" lon="3.47106">
        <ele>93.199996948242</ele>
        <time>2023-12-19T13:25:38Z</time>
      </trkpt>
      <trkpt lat="43.45325" lon="3.47104">
        <ele>93</ele>
        <time>2023-12-19T13:25:39Z</time>
      </trkpt>
      <trkpt lat="43.45328" lon="3.47101">
        <ele>93</ele>
        <time>2023-12-19T13:25:40Z</time>
      </trkpt>
      <trkpt lat="43.4533" lon="3.47097">
        <ele>93</ele>
        <time>2023-12-19T13:25:41Z</time>
      </trkpt>
      <trkpt lat="43.45333" lon="3.47093">
        <ele>93</ele>
        <time>2023-12-19T13:25:42Z</time>
      </trkpt>
      <trkpt lat="43.45336" lon="3.4709">
        <ele>93</ele>
        <time>2023-12-19T13:25:43Z</time>
      </trkpt>
      <trkpt lat="43.4534" lon="3.47086">
        <ele>92.800003051758</ele>
        <time>2023-12-19T13:25:44Z</time>
      </trkpt>
      <trkpt lat="43.45344" lon="3.47083">
        <ele>92.800003051758</ele>
        <time>2023-12-19T13:25:45Z</time>
      </trkpt>
      <trkpt lat="43.45347" lon="3.4708">
        <ele>92.599998474121</ele>
        <time>2023-12-19T13:25:46Z</time>
      </trkpt>
      <trkpt lat="43.45352" lon="3.47077">
        <ele>92.199996948242</ele>
        <time>2023-12-19T13:25:47Z</time>
      </trkpt>
      <trkpt lat="43.45355" lon="3.47075">
        <ele>91.800003051758</ele>
        <time>2023-12-19T13:25:48Z</time>
      </trkpt>
      <trkpt lat="43.45358" lon="3.47073">
        <ele>91.599998474121</ele>
        <time>2023-12-19T13:25:49Z</time>
      </trkpt>
      <trkpt lat="43.45362" lon="3.4707">
        <ele>91.400001525879</ele>
        <time>2023-12-19T13:25:50Z</time>
      </trkpt>
      <trkpt lat="43.45365" lon="3.47067">
        <ele>91</ele>
        <time>2023-12-19T13:25:51Z</time>
      </trkpt>
      <trkpt lat="43.45367" lon="3.47063">
        <ele>90.800003051758</ele>
        <time>2023-12-19T13:25:52Z</time>
      </trkpt>
      <trkpt lat="43.45369" lon="3.47059">
        <ele>90.800003051758</ele>
        <time>2023-12-19T13:25:53Z</time>
      </trkpt>
      <trkpt lat="43.45371" lon="3.47055">
        <ele>90.599998474121</ele>
        <time>2023-12-19T13:25:54Z</time>
      </trkpt>
      <trkpt lat="43.45373" lon="3.47052">
        <ele>90.400001525879</ele>
        <time>2023-12-19T13:25:55Z</time>
      </trkpt>
      <trkpt lat="43.45375" lon="3.47048">
        <ele>90.199996948242</ele>
        <time>2023-12-19T13:25:56Z</time>
      </trkpt>
      <trkpt lat="43.45376" lon="3.47046">
        <ele>90</ele>
        <time>2023-12-19T13:25:57Z</time>
      </trkpt>
      <trkpt lat="43.45378" lon="3.47043">
        <ele>90</ele>
        <time>2023-12-19T13:25:58Z</time>
      </trkpt>
      <trkpt lat="43.45379" lon="3.4704">
        <ele>89.800003051758</ele>
        <time>2023-12-19T13:25:59Z</time>
      </trkpt>
      <trkpt lat="43.45379" lon="3.47037">
        <ele>89.599998474121</ele>
        <time>2023-12-19T13:26:00Z</time>
      </trkpt>
      <trkpt lat="43.45379" lon="3.47035">
        <ele>89.400001525879</ele>
        <time>2023-12-19T13:26:01Z</time>
      </trkpt>
      <trkpt lat="43.45378" lon="3.47033">
        <ele>89.199996948242</ele>
        <time>2023-12-19T13:26:02Z</time>
      </trkpt>
      <trkpt lat="43.45376" lon="3.47033">
        <ele>89.199996948242</ele>
        <time>2023-12-19T13:26:03Z</time>
      </trkpt>
      <trkpt lat="43.45374" lon="3.47033">
        <ele>89.199996948242</ele>
        <time>2023-12-19T13:26:04Z</time>
      </trkpt>
      <trkpt lat="43.45372" lon="3.47032">
        <ele>89.199996948242</ele>
        <time>2023-12-19T13:26:05Z</time>
      </trkpt>
      <trkpt lat="43.45371" lon="3.47032">
        <ele>89.199996948242</ele>
        <time>2023-12-19T13:26:06Z</time>
      </trkpt>
      <trkpt lat="43.45369" lon="3.47031">
        <ele>89.199996948242</ele>
        <time>2023-12-19T13:26:07Z</time>
      </trkpt>
      <trkpt lat="43.45366" lon="3.47031">
        <ele>89.199996948242</ele>
        <time>2023-12-19T13:26:08Z</time>
      </trkpt>
      <trkpt lat="43.45364" lon="3.47031">
        <ele>89.199996948242</ele>
        <time>2023-12-19T13:26:09Z</time>
      </trkpt>
      <trkpt lat="43.45361" lon="3.47031">
        <ele>89.199996948242</ele>
        <time>2023-12-19T13:26:10Z</time>
      </trkpt>
      <trkpt lat="43.45358" lon="3.47031">
        <ele>89.199996948242</ele>
        <time>2023-12-19T13:26:11Z</time>
      </trkpt>
      <trkpt lat="43.45354" lon="3.4703">
        <ele>89</ele>
        <time>2023-12-19T13:26:12Z</time>
      </trkpt>
      <trkpt lat="43.4535" lon="3.4703">
        <ele>88.800003051758</ele>
        <time>2023-12-19T13:26:13Z</time>
      </trkpt>
      <trkpt lat="43.45346" lon="3.47028">
        <ele>88.800003051758</ele>
        <time>2023-12-19T13:26:14Z</time>
      </trkpt>
      <trkpt lat="43.45343" lon="3.47025">
        <ele>88.599998474121</ele>
        <time>2023-12-19T13:26:15Z</time>
      </trkpt>
      <trkpt lat="43.45341" lon="3.47023">
        <ele>88.199996948242</ele>
        <time>2023-12-19T13:26:16Z</time>
      </trkpt>
      <trkpt lat="43.45339" lon="3.47019">
        <ele>88</ele>
        <time>2023-12-19T13:26:17Z</time>
      </trkpt>
      <trkpt lat="43.45338" lon="3.47015">
        <ele>87.599998474121</ele>
        <time>2023-12-19T13:26:18Z</time>
      </trkpt>
      <trkpt lat="43.45337" lon="3.47011">
        <ele>87.400001525879</ele>
        <time>2023-12-19T13:26:19Z</time>
      </trkpt>
      <trkpt lat="43.45335" lon="3.47007">
        <ele>87.400001525879</ele>
        <time>2023-12-19T13:26:20Z</time>
      </trkpt>
      <trkpt lat="43.45334" lon="3.47002">
        <ele>87.199996948242</ele>
        <time>2023-12-19T13:26:21Z</time>
      </trkpt>
      <trkpt lat="43.45334" lon="3.46997">
        <ele>87.199996948242</ele>
        <time>2023-12-19T13:26:22Z</time>
      </trkpt>
      <trkpt lat="43.45333" lon="3.46993">
        <ele>87.199996948242</ele>
        <time>2023-12-19T13:26:23Z</time>
      </trkpt>
      <trkpt lat="43.45333" lon="3.46988">
        <ele>87.199996948242</ele>
        <time>2023-12-19T13:26:24Z</time>
      </trkpt>
      <trkpt lat="43.45333" lon="3.46983">
        <ele>87.199996948242</ele>
        <time>2023-12-19T13:26:25Z</time>
      </trkpt>
      <trkpt lat="43.45333" lon="3.46978">
        <ele>87.199996948242</ele>
        <time>2023-12-19T13:26:26Z</time>
      </trkpt>
      <trkpt lat="43.45333" lon="3.46974">
        <ele>87.400001525879</ele>
        <time>2023-12-19T13:26:27Z</time>
      </trkpt>
      <trkpt lat="43.45333" lon="3.46969">
        <ele>87.599998474121</ele>
        <time>2023-12-19T13:26:28Z</time>
      </trkpt>
      <trkpt lat="43.45333" lon="3.46965">
        <ele>87.800003051758</ele>
        <time>2023-12-19T13:26:29Z</time>
      </trkpt>
      <trkpt lat="43.45333" lon="3.46961">
        <ele>87.800003051758</ele>
        <time>2023-12-19T13:26:30Z</time>
      </trkpt>
      <trkpt lat="43.45332" lon="3.46956">
        <ele>88</ele>
        <time>2023-12-19T13:26:31Z</time>
      </trkpt>
      <trkpt lat="43.45332" lon="3.46952">
        <ele>88</ele>
        <time>2023-12-19T13:26:32Z</time>
      </trkpt>
      <trkpt lat="43.45331" lon="3.46947">
        <ele>88</ele>
        <time>2023-12-19T13:26:33Z</time>
      </trkpt>
      <trkpt lat="43.45331" lon="3.46942">
        <ele>88.199996948242</ele>
        <time>2023-12-19T13:26:34Z</time>
      </trkpt>
      <trkpt lat="43.4533" lon="3.46938">
        <ele>88.400001525879</ele>
        <time>2023-12-19T13:26:35Z</time>
      </trkpt>
      <trkpt lat="43.4533" lon="3.46933">
        <ele>88.800003051758</ele>
        <time>2023-12-19T13:26:36Z</time>
      </trkpt>
      <trkpt lat="43.45328" lon="3.46928">
        <ele>89</ele>
        <time>2023-12-19T13:26:37Z</time>
      </trkpt>
      <trkpt lat="43.45327" lon="3.46923">
        <ele>89.400001525879</ele>
        <time>2023-12-19T13:26:38Z</time>
      </trkpt>
      <trkpt lat="43.45327" lon="3.46918">
        <ele>89.800003051758</ele>
        <time>2023-12-19T13:26:39Z</time>
      </trkpt>
      <trkpt lat="43.45325" lon="3.46913">
        <ele>90</ele>
        <time>2023-12-19T13:26:40Z</time>
      </trkpt>
      <trkpt lat="43.45323" lon="3.46909">
        <ele>90.199996948242</ele>
        <time>2023-12-19T13:26:41Z</time>
      </trkpt>
      <trkpt lat="43.4532" lon="3.46905">
        <ele>90.400001525879</ele>
        <time>2023-12-19T13:26:42Z</time>
      </trkpt>
      <trkpt lat="43.45317" lon="3.46902">
        <ele>90.599998474121</ele>
        <time>2023-12-19T13:26:43Z</time>
      </trkpt>
      <trkpt lat="43.45314" lon="3.46898">
        <ele>90.599998474121</ele>
        <time>2023-12-19T13:26:44Z</time>
      </trkpt>
      <trkpt lat="43.45312" lon="3.46894">
        <ele>90.800003051758</ele>
        <time>2023-12-19T13:26:45Z</time>
      </trkpt>
      <trkpt lat="43.4531" lon="3.4689">
        <ele>91.199996948242</ele>
        <time>2023-12-19T13:26:46Z</time>
      </trkpt>
      <trkpt lat="43.45309" lon="3.46886">
        <ele>91.800003051758</ele>
        <time>2023-12-19T13:26:47Z</time>
      </trkpt>
      <trkpt lat="43.45308" lon="3.46882">
        <ele>92.199996948242</ele>
        <time>2023-12-19T13:26:48Z</time>
      </trkpt>
      <trkpt lat="43.45308" lon="3.46878">
        <ele>92.800003051758</ele>
        <time>2023-12-19T13:26:49Z</time>
      </trkpt>
      <trkpt lat="43.45308" lon="3.46873">
        <ele>93.199996948242</ele>
        <time>2023-12-19T13:26:50Z</time>
      </trkpt>
      <trkpt lat="43.45308" lon="3.46868">
        <ele>93.599998474121</ele>
        <time>2023-12-19T13:26:51Z</time>
      </trkpt>
      <trkpt lat="43.45307" lon="3.46863">
        <ele>93.800003051758</ele>
        <time>2023-12-19T13:26:52Z</time>
      </trkpt>
      <trkpt lat="43.45307" lon="3.46858">
        <ele>94.199996948242</ele>
        <time>2023-12-19T13:26:53Z</time>
      </trkpt>
      <trkpt lat="43.45307" lon="3.46854">
        <ele>94.199996948242</ele>
        <time>2023-12-19T13:26:54Z</time>
      </trkpt>
      <trkpt lat="43.45306" lon="3.46849">
        <ele>94.199996948242</ele>
        <time>2023-12-19T13:26:55Z</time>
      </trkpt>
      <trkpt lat="43.45306" lon="3.46844">
        <ele>94.199996948242</ele>
        <time>2023-12-19T13:26:56Z</time>
      </trkpt>
      <trkpt lat="43.45306" lon="3.4684">
        <ele>94.400001525879</ele>
        <time>2023-12-19T13:26:57Z</time>
      </trkpt>
      <trkpt lat="43.45305" lon="3.46836">
        <ele>94.400001525879</ele>
        <time>2023-12-19T13:26:58Z</time>
      </trkpt>
      <trkpt lat="43.45304" lon="3.46833">
        <ele>94.599998474121</ele>
        <time>2023-12-19T13:26:59Z</time>
      </trkpt>
      <trkpt lat="43.45303" lon="3.46829">
        <ele>94.800003051758</ele>
        <time>2023-12-19T13:27:00Z</time>
      </trkpt>
      <trkpt lat="43.45303" lon="3.46826">
        <ele>95</ele>
        <time>2023-12-19T13:27:01Z</time>
      </trkpt>
      <trkpt lat="43.45303" lon="3.46821">
        <ele>95.199996948242</ele>
        <time>2023-12-19T13:27:02Z</time>
      </trkpt>
      <trkpt lat="43.45303" lon="3.46817">
        <ele>95.400001525879</ele>
        <time>2023-12-19T13:27:03Z</time>
      </trkpt>
      <trkpt lat="43.45303" lon="3.46813">
        <ele>95.400001525879</ele>
        <time>2023-12-19T13:27:04Z</time>
      </trkpt>
      <trkpt lat="43.45303" lon="3.46809">
        <ele>95.599998474121</ele>
        <time>2023-12-19T13:27:05Z</time>
      </trkpt>
      <trkpt lat="43.45303" lon="3.46806">
        <ele>95.599998474121</ele>
        <time>2023-12-19T13:27:06Z</time>
      </trkpt>
      <trkpt lat="43.45302" lon="3.46803">
        <ele>95.599998474121</ele>
        <time>2023-12-19T13:27:07Z</time>
      </trkpt>
      <trkpt lat="43.45301" lon="3.468">
        <ele>95.599998474121</ele>
        <time>2023-12-19T13:27:08Z</time>
      </trkpt>
      <trkpt lat="43.45298" lon="3.46799">
        <ele>95.800003051758</ele>
        <time>2023-12-19T13:27:09Z</time>
      </trkpt>
      <trkpt lat="43.45296" lon="3.46797">
        <ele>95.800003051758</ele>
        <time>2023-12-19T13:27:10Z</time>
      </trkpt>
      <trkpt lat="43.45294" lon="3.46796">
        <ele>95.800003051758</ele>
        <time>2023-12-19T13:27:11Z</time>
      </trkpt>
      <trkpt lat="43.45292" lon="3.46793">
        <ele>95.800003051758</ele>
        <time>2023-12-19T13:27:12Z</time>
      </trkpt>
      <trkpt lat="43.45291" lon="3.46791">
        <ele>95.800003051758</ele>
        <time>2023-12-19T13:27:13Z</time>
      </trkpt>
      <trkpt lat="43.4529" lon="3.46788">
        <ele>95.800003051758</ele>
        <time>2023-12-19T13:27:14Z</time>
      </trkpt>
      <trkpt lat="43.4529" lon="3.46784">
        <ele>95.800003051758</ele>
        <time>2023-12-19T13:27:15Z</time>
      </trkpt>
      <trkpt lat="43.4529" lon="3.46781">
        <ele>95.800003051758</ele>
        <time>2023-12-19T13:27:16Z</time>
      </trkpt>
      <trkpt lat="43.45291" lon="3.46777">
        <ele>95.800003051758</ele>
        <time>2023-12-19T13:27:17Z</time>
      </trkpt>
      <trkpt lat="43.4529" lon="3.46775">
        <ele>95.599998474121</ele>
        <time>2023-12-19T13:27:18Z</time>
      </trkpt>
      <trkpt lat="43.45291" lon="3.46772">
        <ele>95.599998474121</ele>
        <time>2023-12-19T13:27:19Z</time>
      </trkpt>
      <trkpt lat="43.45291" lon="3.46769">
        <ele>95.400001525879</ele>
        <time>2023-12-19T13:27:20Z</time>
      </trkpt>
      <trkpt lat="43.45291" lon="3.46765">
        <ele>95.199996948242</ele>
        <time>2023-12-19T13:27:21Z</time>
      </trkpt>
      <trkpt lat="43.45291" lon="3.46762">
        <ele>95</ele>
        <time>2023-12-19T13:27:22Z</time>
      </trkpt>
      <trkpt lat="43.4529" lon="3.46759">
        <ele>94.800003051758</ele>
        <time>2023-12-19T13:27:23Z</time>
      </trkpt>
      <trkpt lat="43.45288" lon="3.46756">
        <ele>94.599998474121</ele>
        <time>2023-12-19T13:27:24Z</time>
      </trkpt>
      <trkpt lat="43.45288" lon="3.46753">
        <ele>94.400001525879</ele>
        <time>2023-12-19T13:27:25Z</time>
      </trkpt>
      <trkpt lat="43.45288" lon="3.46748">
        <ele>94.199996948242</ele>
        <time>2023-12-19T13:27:26Z</time>
      </trkpt>
      <trkpt lat="43.4529" lon="3.46745">
        <ele>94</ele>
        <time>2023-12-19T13:27:27Z</time>
      </trkpt>
      <trkpt lat="43.45292" lon="3.46742">
        <ele>93.800003051758</ele>
        <time>2023-12-19T13:27:28Z</time>
      </trkpt>
      <trkpt lat="43.45294" lon="3.4674">
        <ele>93.599998474121</ele>
        <time>2023-12-19T13:27:29Z</time>
      </trkpt>
      <trkpt lat="43.45294" lon="3.46737">
        <ele>93.400001525879</ele>
        <time>2023-12-19T13:27:30Z</time>
      </trkpt>
      <trkpt lat="43.45292" lon="3.46735">
        <ele>93</ele>
        <time>2023-12-19T13:27:31Z</time>
      </trkpt>
      <trkpt lat="43.45292" lon="3.46732">
        <ele>92.800003051758</ele>
        <time>2023-12-19T13:27:32Z</time>
      </trkpt>
      <trkpt lat="43.4529" lon="3.46728">
        <ele>92.599998474121</ele>
        <time>2023-12-19T13:27:33Z</time>
      </trkpt>
      <trkpt lat="43.45289" lon="3.46725">
        <ele>92.400001525879</ele>
        <time>2023-12-19T13:27:34Z</time>
      </trkpt>
      <trkpt lat="43.45289" lon="3.46722">
        <ele>92.199996948242</ele>
        <time>2023-12-19T13:27:35Z</time>
      </trkpt>
      <trkpt lat="43.45288" lon="3.46719">
        <ele>92.199996948242</ele>
        <time>2023-12-19T13:27:36Z</time>
      </trkpt>
      <trkpt lat="43.45288" lon="3.46715">
        <ele>92.199996948242</ele>
        <time>2023-12-19T13:27:37Z</time>
      </trkpt>
      <trkpt lat="43.45287" lon="3.46712">
        <ele>92.199996948242</ele>
        <time>2023-12-19T13:27:38Z</time>
      </trkpt>
      <trkpt lat="43.45286" lon="3.46708">
        <ele>92.199996948242</ele>
        <time>2023-12-19T13:27:39Z</time>
      </trkpt>
      <trkpt lat="43.45285" lon="3.46705">
        <ele>92.199996948242</ele>
        <time>2023-12-19T13:27:40Z</time>
      </trkpt>
      <trkpt lat="43.45282" lon="3.46702">
        <ele>92.199996948242</ele>
        <time>2023-12-19T13:27:41Z</time>
      </trkpt>
      <trkpt lat="43.4528" lon="3.46699">
        <ele>92</ele>
        <time>2023-12-19T13:27:42Z</time>
      </trkpt>
      <trkpt lat="43.45279" lon="3.46696">
        <ele>91.800003051758</ele>
        <time>2023-12-19T13:27:43Z</time>
      </trkpt>
      <trkpt lat="43.45278" lon="3.46691">
        <ele>91.800003051758</ele>
        <time>2023-12-19T13:27:44Z</time>
      </trkpt>
      <trkpt lat="43.45279" lon="3.46686">
        <ele>91.800003051758</ele>
        <time>2023-12-19T13:27:45Z</time>
      </trkpt>
      <trkpt lat="43.45279" lon="3.46682">
        <ele>91.800003051758</ele>
        <time>2023-12-19T13:27:46Z</time>
      </trkpt>
      <trkpt lat="43.45279" lon="3.46678">
        <ele>91.599998474121</ele>
        <time>2023-12-19T13:27:47Z</time>
      </trkpt>
      <trkpt lat="43.45279" lon="3.46674">
        <ele>91.599998474121</ele>
        <time>2023-12-19T13:27:48Z</time>
      </trkpt>
      <trkpt lat="43.45279" lon="3.46671">
        <ele>91.400001525879</ele>
        <time>2023-12-19T13:27:49Z</time>
      </trkpt>
      <trkpt lat="43.45278" lon="3.46668">
        <ele>91.400001525879</ele>
        <time>2023-12-19T13:27:50Z</time>
      </trkpt>
      <trkpt lat="43.45276" lon="3.46664">
        <ele>91.400001525879</ele>
        <time>2023-12-19T13:27:51Z</time>
      </trkpt>
      <trkpt lat="43.45276" lon="3.4666">
        <ele>91.400001525879</ele>
        <time>2023-12-19T13:27:52Z</time>
      </trkpt>
      <trkpt lat="43.45276" lon="3.46656">
        <ele>91.400001525879</ele>
        <time>2023-12-19T13:27:53Z</time>
      </trkpt>
      <trkpt lat="43.45276" lon="3.46652">
        <ele>91.400001525879</ele>
        <time>2023-12-19T13:27:54Z</time>
      </trkpt>
      <trkpt lat="43.45277" lon="3.46649">
        <ele>91.599998474121</ele>
        <time>2023-12-19T13:27:55Z</time>
      </trkpt>
      <trkpt lat="43.45278" lon="3.46645">
        <ele>91.599998474121</ele>
        <time>2023-12-19T13:27:56Z</time>
      </trkpt>
      <trkpt lat="43.45278" lon="3.46642">
        <ele>91.599998474121</ele>
        <time>2023-12-19T13:27:57Z</time>
      </trkpt>
      <trkpt lat="43.4528" lon="3.46638">
        <ele>91.599998474121</ele>
        <time>2023-12-19T13:27:58Z</time>
      </trkpt>
      <trkpt lat="43.45281" lon="3.46636">
        <ele>91.599998474121</ele>
        <time>2023-12-19T13:27:59Z</time>
      </trkpt>
      <trkpt lat="43.45282" lon="3.46633">
        <ele>91.400001525879</ele>
        <time>2023-12-19T13:28:00Z</time>
      </trkpt>
      <trkpt lat="43.45283" lon="3.46629">
        <ele>91.400001525879</ele>
        <time>2023-12-19T13:28:01Z</time>
      </trkpt>
      <trkpt lat="43.45284" lon="3.46625">
        <ele>91.199996948242</ele>
        <time>2023-12-19T13:28:02Z</time>
      </trkpt>
      <trkpt lat="43.45285" lon="3.46621">
        <ele>91.199996948242</ele>
        <time>2023-12-19T13:28:03Z</time>
      </trkpt>
      <trkpt lat="43.45286" lon="3.46617">
        <ele>91</ele>
        <time>2023-12-19T13:28:04Z</time>
      </trkpt>
      <trkpt lat="43.45287" lon="3.46614">
        <ele>91</ele>
        <time>2023-12-19T13:28:05Z</time>
      </trkpt>
      <trkpt lat="43.45289" lon="3.46612">
        <ele>90.800003051758</ele>
        <time>2023-12-19T13:28:06Z</time>
      </trkpt>
      <trkpt lat="43.4529" lon="3.46608">
        <ele>90.599998474121</ele>
        <time>2023-12-19T13:28:07Z</time>
      </trkpt>
      <trkpt lat="43.45291" lon="3.46605">
        <ele>90.400001525879</ele>
        <time>2023-12-19T13:28:08Z</time>
      </trkpt>
      <trkpt lat="43.45293" lon="3.46603">
        <ele>90.400001525879</ele>
        <time>2023-12-19T13:28:09Z</time>
      </trkpt>
      <trkpt lat="43.45295" lon="3.46602">
        <ele>90.400001525879</ele>
        <time>2023-12-19T13:28:10Z</time>
      </trkpt>
      <trkpt lat="43.45297" lon="3.466">
        <ele>90.199996948242</ele>
        <time>2023-12-19T13:28:11Z</time>
      </trkpt>
      <trkpt lat="43.45299" lon="3.46598">
        <ele>90</ele>
        <time>2023-12-19T13:28:12Z</time>
      </trkpt>
      <trkpt lat="43.45301" lon="3.46596">
        <ele>89.599998474121</ele>
        <time>2023-12-19T13:28:13Z</time>
      </trkpt>
      <trkpt lat="43.45303" lon="3.46593">
        <ele>89.400001525879</ele>
        <time>2023-12-19T13:28:14Z</time>
      </trkpt>
      <trkpt lat="43.45305" lon="3.46589">
        <ele>89.199996948242</ele>
        <time>2023-12-19T13:28:15Z</time>
      </trkpt>
      <trkpt lat="43.45306" lon="3.46586">
        <ele>88.800003051758</ele>
        <time>2023-12-19T13:28:16Z</time>
      </trkpt>
      <trkpt lat="43.45307" lon="3.46583">
        <ele>88.199996948242</ele>
        <time>2023-12-19T13:28:17Z</time>
      </trkpt>
      <trkpt lat="43.45308" lon="3.4658">
        <ele>87.599998474121</ele>
        <time>2023-12-19T13:28:18Z</time>
      </trkpt>
      <trkpt lat="43.45308" lon="3.46577">
        <ele>87.199996948242</ele>
        <time>2023-12-19T13:28:19Z</time>
      </trkpt>
      <trkpt lat="43.45307" lon="3.46573">
        <ele>86.800003051758</ele>
        <time>2023-12-19T13:28:20Z</time>
      </trkpt>
      <trkpt lat="43.45307" lon="3.46571">
        <ele>86.599998474121</ele>
        <time>2023-12-19T13:28:21Z</time>
      </trkpt>
      <trkpt lat="43.45309" lon="3.46568">
        <ele>86.599998474121</ele>
        <time>2023-12-19T13:28:22Z</time>
      </trkpt>
      <trkpt lat="43.4531" lon="3.46565">
        <ele>86.400001525879</ele>
        <time>2023-12-19T13:28:23Z</time>
      </trkpt>
      <trkpt lat="43.45309" lon="3.46561">
        <ele>86.199996948242</ele>
        <time>2023-12-19T13:28:24Z</time>
      </trkpt>
      <trkpt lat="43.45309" lon="3.46557">
        <ele>86</ele>
        <time>2023-12-19T13:28:25Z</time>
      </trkpt>
      <trkpt lat="43.45309" lon="3.46552">
        <ele>86</ele>
        <time>2023-12-19T13:28:26Z</time>
      </trkpt>
      <trkpt lat="43.4531" lon="3.46548">
        <ele>85.800003051758</ele>
        <time>2023-12-19T13:28:27Z</time>
      </trkpt>
      <trkpt lat="43.45312" lon="3.46545">
        <ele>85.800003051758</ele>
        <time>2023-12-19T13:28:28Z</time>
      </trkpt>
      <trkpt lat="43.45315" lon="3.46543">
        <ele>85.599998474121</ele>
        <time>2023-12-19T13:28:29Z</time>
      </trkpt>
      <trkpt lat="43.45318" lon="3.46539">
        <ele>85.599998474121</ele>
        <time>2023-12-19T13:28:30Z</time>
      </trkpt>
      <trkpt lat="43.45319" lon="3.46538">
        <ele>85.599998474121</ele>
        <time>2023-12-19T13:28:31Z</time>
      </trkpt>
      <trkpt lat="43.4532" lon="3.46535">
        <ele>85.599998474121</ele>
        <time>2023-12-19T13:28:32Z</time>
      </trkpt>
      <trkpt lat="43.4532" lon="3.46532">
        <ele>85.599998474121</ele>
        <time>2023-12-19T13:28:33Z</time>
      </trkpt>
      <trkpt lat="43.4532" lon="3.46529">
        <ele>85.800003051758</ele>
        <time>2023-12-19T13:28:34Z</time>
      </trkpt>
      <trkpt lat="43.45319" lon="3.46526">
        <ele>86.199996948242</ele>
        <time>2023-12-19T13:28:35Z</time>
      </trkpt>
      <trkpt lat="43.45319" lon="3.46524">
        <ele>86.400001525879</ele>
        <time>2023-12-19T13:28:36Z</time>
      </trkpt>
      <trkpt lat="43.45318" lon="3.46522">
        <ele>86.400001525879</ele>
        <time>2023-12-19T13:28:37Z</time>
      </trkpt>
      <trkpt lat="43.45317" lon="3.4652">
        <ele>86.400001525879</ele>
        <time>2023-12-19T13:28:38Z</time>
      </trkpt>
      <trkpt lat="43.45317" lon="3.46517">
        <ele>86.400001525879</ele>
        <time>2023-12-19T13:28:39Z</time>
      </trkpt>
      <trkpt lat="43.45318" lon="3.46515">
        <ele>86.400001525879</ele>
        <time>2023-12-19T13:28:40Z</time>
      </trkpt>
      <trkpt lat="43.45319" lon="3.46513">
        <ele>86.400001525879</ele>
        <time>2023-12-19T13:28:41Z</time>
      </trkpt>
      <trkpt lat="43.45319" lon="3.46512">
        <ele>86.400001525879</ele>
        <time>2023-12-19T13:28:42Z</time>
      </trkpt>
      <trkpt lat="43.45319" lon="3.46511">
        <ele>86.199996948242</ele>
        <time>2023-12-19T13:28:43Z</time>
      </trkpt>
      <trkpt lat="43.45319" lon="3.46511">
        <ele>86.199996948242</ele>
        <time>2023-12-19T13:28:44Z</time>
      </trkpt>
      <trkpt lat="43.45321" lon="3.46507">
        <ele>85.800003051758</ele>
        <time>2023-12-19T13:29:13Z</time>
      </trkpt>
      <trkpt lat="43.45321" lon="3.46504">
        <ele>85.800003051758</ele>
        <time>2023-12-19T13:29:14Z</time>
      </trkpt>
      <trkpt lat="43.4532" lon="3.46501">
        <ele>85.800003051758</ele>
        <time>2023-12-19T13:29:15Z</time>
      </trkpt>
      <trkpt lat="43.45319" lon="3.46499">
        <ele>85.800003051758</ele>
        <time>2023-12-19T13:29:16Z</time>
      </trkpt>
      <trkpt lat="43.45317" lon="3.46497">
        <ele>85.599998474121</ele>
        <time>2023-12-19T13:29:17Z</time>
      </trkpt>
      <trkpt lat="43.45316" lon="3.46495">
        <ele>85.400001525879</ele>
        <time>2023-12-19T13:29:18Z</time>
      </trkpt>
      <trkpt lat="43.45316" lon="3.46493">
        <ele>85.400001525879</ele>
        <time>2023-12-19T13:29:19Z</time>
      </trkpt>
      <trkpt lat="43.45316" lon="3.4649">
        <ele>85.199996948242</ele>
        <time>2023-12-19T13:29:20Z</time>
      </trkpt>
      <trkpt lat="43.45317" lon="3.46487">
        <ele>85.199996948242</ele>
        <time>2023-12-19T13:29:21Z</time>
      </trkpt>
      <trkpt lat="43.45318" lon="3.46485">
        <ele>85</ele>
        <time>2023-12-19T13:29:22Z</time>
      </trkpt>
      <trkpt lat="43.4532" lon="3.46484">
        <ele>85</ele>
        <time>2023-12-19T13:29:23Z</time>
      </trkpt>
      <trkpt lat="43.45322" lon="3.46481">
        <ele>84.800003051758</ele>
        <time>2023-12-19T13:29:24Z</time>
      </trkpt>
      <trkpt lat="43.45324" lon="3.4648">
        <ele>84.800003051758</ele>
        <time>2023-12-19T13:29:25Z</time>
      </trkpt>
      <trkpt lat="43.45326" lon="3.46478">
        <ele>84.599998474121</ele>
        <time>2023-12-19T13:29:26Z</time>
      </trkpt>
      <trkpt lat="43.45327" lon="3.46477">
        <ele>84.400001525879</ele>
        <time>2023-12-19T13:29:27Z</time>
      </trkpt>
      <trkpt lat="43.4533" lon="3.46476">
        <ele>84</ele>
        <time>2023-12-19T13:29:28Z</time>
      </trkpt>
      <trkpt lat="43.45332" lon="3.46474">
        <ele>83.800003051758</ele>
        <time>2023-12-19T13:29:29Z</time>
      </trkpt>
      <trkpt lat="43.45334" lon="3.46471">
        <ele>83.599998474121</ele>
        <time>2023-12-19T13:29:30Z</time>
      </trkpt>
      <trkpt lat="43.45335" lon="3.46469">
        <ele>83.199996948242</ele>
        <time>2023-12-19T13:29:31Z</time>
      </trkpt>
      <trkpt lat="43.45336" lon="3.46465">
        <ele>83</ele>
        <time>2023-12-19T13:29:32Z</time>
      </trkpt>
      <trkpt lat="43.45337" lon="3.46463">
        <ele>82.599998474121</ele>
        <time>2023-12-19T13:29:33Z</time>
      </trkpt>
      <trkpt lat="43.45339" lon="3.46461">
        <ele>82.199996948242</ele>
        <time>2023-12-19T13:29:34Z</time>
      </trkpt>
      <trkpt lat="43.4534" lon="3.46458">
        <ele>82</ele>
        <time>2023-12-19T13:29:35Z</time>
      </trkpt>
      <trkpt lat="43.45342" lon="3.46453">
        <ele>81.800003051758</ele>
        <time>2023-12-19T13:29:36Z</time>
      </trkpt>
      <trkpt lat="43.45343" lon="3.46449">
        <ele>81.400001525879</ele>
        <time>2023-12-19T13:29:37Z</time>
      </trkpt>
      <trkpt lat="43.45343" lon="3.46445">
        <ele>81.199996948242</ele>
        <time>2023-12-19T13:29:38Z</time>
      </trkpt>
      <trkpt lat="43.45343" lon="3.46442">
        <ele>81</ele>
        <time>2023-12-19T13:29:39Z</time>
      </trkpt>
      <trkpt lat="43.45343" lon="3.46439">
        <ele>80.800003051758</ele>
        <time>2023-12-19T13:29:40Z</time>
      </trkpt>
      <trkpt lat="43.45343" lon="3.46437">
        <ele>80.599998474121</ele>
        <time>2023-12-19T13:29:41Z</time>
      </trkpt>
      <trkpt lat="43.45344" lon="3.46435">
        <ele>80.400001525879</ele>
        <time>2023-12-19T13:29:42Z</time>
      </trkpt>
      <trkpt lat="43.45345" lon="3.46434">
        <ele>80.199996948242</ele>
        <time>2023-12-19T13:29:43Z</time>
      </trkpt>
      <trkpt lat="43.45347" lon="3.46434">
        <ele>80</ele>
        <time>2023-12-19T13:29:44Z</time>
      </trkpt>
      <trkpt lat="43.45348" lon="3.46433">
        <ele>79.800003051758</ele>
        <time>2023-12-19T13:29:45Z</time>
      </trkpt>
      <trkpt lat="43.4535" lon="3.46431">
        <ele>79.599998474121</ele>
        <time>2023-12-19T13:29:46Z</time>
      </trkpt>
      <trkpt lat="43.45351" lon="3.46429">
        <ele>79.199996948242</ele>
        <time>2023-12-19T13:29:47Z</time>
      </trkpt>
      <trkpt lat="43.45352" lon="3.46426">
        <ele>78.800003051758</ele>
        <time>2023-12-19T13:29:48Z</time>
      </trkpt>
      <trkpt lat="43.45353" lon="3.46423">
        <ele>78.400001525879</ele>
        <time>2023-12-19T13:29:49Z</time>
      </trkpt>
      <trkpt lat="43.45356" lon="3.46421">
        <ele>78</ele>
        <time>2023-12-19T13:29:50Z</time>
      </trkpt>
      <trkpt lat="43.45358" lon="3.46419">
        <ele>77.800003051758</ele>
        <time>2023-12-19T13:29:51Z</time>
      </trkpt>
      <trkpt lat="43.4536" lon="3.46417">
        <ele>77.599998474121</ele>
        <time>2023-12-19T13:29:52Z</time>
      </trkpt>
      <trkpt lat="43.45362" lon="3.46416">
        <ele>77.400001525879</ele>
        <time>2023-12-19T13:29:53Z</time>
      </trkpt>
      <trkpt lat="43.45365" lon="3.46414">
        <ele>77.199996948242</ele>
        <time>2023-12-19T13:29:54Z</time>
      </trkpt>
      <trkpt lat="43.45367" lon="3.46412">
        <ele>77</ele>
        <time>2023-12-19T13:29:55Z</time>
      </trkpt>
      <trkpt lat="43.45369" lon="3.4641">
        <ele>77</ele>
        <time>2023-12-19T13:29:56Z</time>
      </trkpt>
      <trkpt lat="43.45371" lon="3.46407">
        <ele>77</ele>
        <time>2023-12-19T13:29:57Z</time>
      </trkpt>
      <trkpt lat="43.45371" lon="3.46403">
        <ele>77</ele>
        <time>2023-12-19T13:29:58Z</time>
      </trkpt>
      <trkpt lat="43.45371" lon="3.46399">
        <ele>77.199996948242</ele>
        <time>2023-12-19T13:29:59Z</time>
      </trkpt>
      <trkpt lat="43.4537" lon="3.46395">
        <ele>77.400001525879</ele>
        <time>2023-12-19T13:30:00Z</time>
      </trkpt>
      <trkpt lat="43.45369" lon="3.46391">
        <ele>77.599998474121</ele>
        <time>2023-12-19T13:30:01Z</time>
      </trkpt>
      <trkpt lat="43.45367" lon="3.46387">
        <ele>77.800003051758</ele>
        <time>2023-12-19T13:30:02Z</time>
      </trkpt>
      <trkpt lat="43.45366" lon="3.46384">
        <ele>78</ele>
        <time>2023-12-19T13:30:03Z</time>
      </trkpt>
      <trkpt lat="43.45364" lon="3.46381">
        <ele>78</ele>
        <time>2023-12-19T13:30:04Z</time>
      </trkpt>
      <trkpt lat="43.45363" lon="3.46379">
        <ele>78</ele>
        <time>2023-12-19T13:30:05Z</time>
      </trkpt>
      <trkpt lat="43.45362" lon="3.46376">
        <ele>78</ele>
        <time>2023-12-19T13:30:06Z</time>
      </trkpt>
      <trkpt lat="43.45362" lon="3.46374">
        <ele>78.199996948242</ele>
        <time>2023-12-19T13:30:07Z</time>
      </trkpt>
      <trkpt lat="43.45362" lon="3.46372">
        <ele>78.199996948242</ele>
        <time>2023-12-19T13:30:08Z</time>
      </trkpt>
      <trkpt lat="43.45363" lon="3.46371">
        <ele>78.199996948242</ele>
        <time>2023-12-19T13:30:09Z</time>
      </trkpt>
      <trkpt lat="43.45363" lon="3.46371">
        <ele>78.199996948242</ele>
        <time>2023-12-19T13:30:10Z</time>
      </trkpt>
      <trkpt lat="43.45363" lon="3.46371">
        <ele>78.199996948242</ele>
        <time>2023-12-19T13:30:11Z</time>
      </trkpt>
      <trkpt lat="43.45368" lon="3.46369">
        <ele>78.400001525879</ele>
        <time>2023-12-19T13:30:16Z</time>
      </trkpt>
      <trkpt lat="43.45371" lon="3.46368">
        <ele>78.400001525879</ele>
        <time>2023-12-19T13:30:17Z</time>
      </trkpt>
      <trkpt lat="43.45375" lon="3.46368">
        <ele>78.400001525879</ele>
        <time>2023-12-19T13:30:18Z</time>
      </trkpt>
      <trkpt lat="43.45378" lon="3.46368">
        <ele>78.400001525879</ele>
        <time>2023-12-19T13:30:19Z</time>
      </trkpt>
      <trkpt lat="43.45382" lon="3.46368">
        <ele>78.400001525879</ele>
        <time>2023-12-19T13:30:20Z</time>
      </trkpt>
      <trkpt lat="43.45385" lon="3.46368">
        <ele>78.400001525879</ele>
        <time>2023-12-19T13:30:21Z</time>
      </trkpt>
      <trkpt lat="43.45388" lon="3.46368">
        <ele>78.400001525879</ele>
        <time>2023-12-19T13:30:22Z</time>
      </trkpt>
      <trkpt lat="43.45391" lon="3.46369">
        <ele>78.400001525879</ele>
        <time>2023-12-19T13:30:23Z</time>
      </trkpt>
      <trkpt lat="43.45393" lon="3.46369">
        <ele>78.599998474121</ele>
        <time>2023-12-19T13:30:24Z</time>
      </trkpt>
      <trkpt lat="43.45396" lon="3.4637">
        <ele>79</ele>
        <time>2023-12-19T13:30:25Z</time>
      </trkpt>
      <trkpt lat="43.454" lon="3.4637">
        <ele>79.199996948242</ele>
        <time>2023-12-19T13:30:26Z</time>
      </trkpt>
      <trkpt lat="43.45403" lon="3.4637">
        <ele>79.400001525879</ele>
        <time>2023-12-19T13:30:27Z</time>
      </trkpt>
      <trkpt lat="43.45407" lon="3.4637">
        <ele>79.599998474121</ele>
        <time>2023-12-19T13:30:28Z</time>
      </trkpt>
      <trkpt lat="43.45409" lon="3.46371">
        <ele>79.599998474121</ele>
        <time>2023-12-19T13:30:29Z</time>
      </trkpt>
      <trkpt lat="43.45411" lon="3.46372">
        <ele>79.800003051758</ele>
        <time>2023-12-19T13:30:30Z</time>
      </trkpt>
      <trkpt lat="43.45414" lon="3.46372">
        <ele>79.800003051758</ele>
        <time>2023-12-19T13:30:31Z</time>
      </trkpt>
      <trkpt lat="43.45416" lon="3.46372">
        <ele>80</ele>
        <time>2023-12-19T13:30:32Z</time>
      </trkpt>
      <trkpt lat="43.45418" lon="3.46372">
        <ele>80.199996948242</ele>
        <time>2023-12-19T13:30:33Z</time>
      </trkpt>
      <trkpt lat="43.45419" lon="3.46373">
        <ele>80.599998474121</ele>
        <time>2023-12-19T13:30:34Z</time>
      </trkpt>
      <trkpt lat="43.45422" lon="3.46373">
        <ele>80.800003051758</ele>
        <time>2023-12-19T13:30:35Z</time>
      </trkpt>
      <trkpt lat="43.45423" lon="3.4637">
        <ele>81</ele>
        <time>2023-12-19T13:30:36Z</time>
      </trkpt>
      <trkpt lat="43.45424" lon="3.46366">
        <ele>81.199996948242</ele>
        <time>2023-12-19T13:30:37Z</time>
      </trkpt>
      <trkpt lat="43.45425" lon="3.46363">
        <ele>81.199996948242</ele>
        <time>2023-12-19T13:30:38Z</time>
      </trkpt>
      <trkpt lat="43.45424" lon="3.4636">
        <ele>81.199996948242</ele>
        <time>2023-12-19T13:30:39Z</time>
      </trkpt>
      <trkpt lat="43.45424" lon="3.46356">
        <ele>81.400001525879</ele>
        <time>2023-12-19T13:30:40Z</time>
      </trkpt>
      <trkpt lat="43.45425" lon="3.46352">
        <ele>81.599998474121</ele>
        <time>2023-12-19T13:30:41Z</time>
      </trkpt>
      <trkpt lat="43.45424" lon="3.46349">
        <ele>81.800003051758</ele>
        <time>2023-12-19T13:30:42Z</time>
      </trkpt>
      <trkpt lat="43.45424" lon="3.46346">
        <ele>82.199996948242</ele>
        <time>2023-12-19T13:30:43Z</time>
      </trkpt>
      <trkpt lat="43.45425" lon="3.46343">
        <ele>82.599998474121</ele>
        <time>2023-12-19T13:30:44Z</time>
      </trkpt>
      <trkpt lat="43.45425" lon="3.4634">
        <ele>82.800003051758</ele>
        <time>2023-12-19T13:30:45Z</time>
      </trkpt>
      <trkpt lat="43.45425" lon="3.46337">
        <ele>83.199996948242</ele>
        <time>2023-12-19T13:30:46Z</time>
      </trkpt>
      <trkpt lat="43.45425" lon="3.46333">
        <ele>83.599998474121</ele>
        <time>2023-12-19T13:30:47Z</time>
      </trkpt>
      <trkpt lat="43.45426" lon="3.4633">
        <ele>84</ele>
        <time>2023-12-19T13:30:48Z</time>
      </trkpt>
      <trkpt lat="43.45426" lon="3.46326">
        <ele>84.199996948242</ele>
        <time>2023-12-19T13:30:49Z</time>
      </trkpt>
      <trkpt lat="43.45427" lon="3.46322">
        <ele>84.599998474121</ele>
        <time>2023-12-19T13:30:50Z</time>
      </trkpt>
      <trkpt lat="43.45428" lon="3.4632">
        <ele>84.599998474121</ele>
        <time>2023-12-19T13:30:51Z</time>
      </trkpt>
      <trkpt lat="43.45429" lon="3.46317">
        <ele>85</ele>
        <time>2023-12-19T13:30:52Z</time>
      </trkpt>
      <trkpt lat="43.45429" lon="3.46315">
        <ele>85.199996948242</ele>
        <time>2023-12-19T13:30:53Z</time>
      </trkpt>
      <trkpt lat="43.45431" lon="3.46312">
        <ele>85.400001525879</ele>
        <time>2023-12-19T13:30:54Z</time>
      </trkpt>
      <trkpt lat="43.45432" lon="3.46309">
        <ele>85.400001525879</ele>
        <time>2023-12-19T13:30:55Z</time>
      </trkpt>
      <trkpt lat="43.45433" lon="3.46306">
        <ele>85.599998474121</ele>
        <time>2023-12-19T13:30:56Z</time>
      </trkpt>
      <trkpt lat="43.45434" lon="3.46303">
        <ele>85.599998474121</ele>
        <time>2023-12-19T13:30:57Z</time>
      </trkpt>
      <trkpt lat="43.45435" lon="3.463">
        <ele>85.800003051758</ele>
        <time>2023-12-19T13:30:58Z</time>
      </trkpt>
      <trkpt lat="43.45435" lon="3.46297">
        <ele>86</ele>
        <time>2023-12-19T13:30:59Z</time>
      </trkpt>
      <trkpt lat="43.45436" lon="3.46294">
        <ele>86.199996948242</ele>
        <time>2023-12-19T13:31:00Z</time>
      </trkpt>
      <trkpt lat="43.45436" lon="3.4629">
        <ele>86.199996948242</ele>
        <time>2023-12-19T13:31:01Z</time>
      </trkpt>
      <trkpt lat="43.45437" lon="3.46287">
        <ele>86.400001525879</ele>
        <time>2023-12-19T13:31:02Z</time>
      </trkpt>
      <trkpt lat="43.45437" lon="3.46284">
        <ele>86.599998474121</ele>
        <time>2023-12-19T13:31:03Z</time>
      </trkpt>
      <trkpt lat="43.45437" lon="3.46281">
        <ele>86.800003051758</ele>
        <time>2023-12-19T13:31:04Z</time>
      </trkpt>
      <trkpt lat="43.45437" lon="3.46277">
        <ele>87</ele>
        <time>2023-12-19T13:31:05Z</time>
      </trkpt>
      <trkpt lat="43.45437" lon="3.46273">
        <ele>87</ele>
        <time>2023-12-19T13:31:06Z</time>
      </trkpt>
      <trkpt lat="43.45437" lon="3.4627">
        <ele>87.199996948242</ele>
        <time>2023-12-19T13:31:07Z</time>
      </trkpt>
      <trkpt lat="43.45437" lon="3.46266">
        <ele>87.400001525879</ele>
        <time>2023-12-19T13:31:08Z</time>
      </trkpt>
      <trkpt lat="43.45436" lon="3.46263">
        <ele>87.599998474121</ele>
        <time>2023-12-19T13:31:09Z</time>
      </trkpt>
      <trkpt lat="43.45436" lon="3.46259">
        <ele>87.800003051758</ele>
        <time>2023-12-19T13:31:10Z</time>
      </trkpt>
      <trkpt lat="43.45435" lon="3.46256">
        <ele>87.800003051758</ele>
        <time>2023-12-19T13:31:11Z</time>
      </trkpt>
      <trkpt lat="43.45435" lon="3.46253">
        <ele>88.199996948242</ele>
        <time>2023-12-19T13:31:12Z</time>
      </trkpt>
      <trkpt lat="43.45434" lon="3.4625">
        <ele>88.400001525879</ele>
        <time>2023-12-19T13:31:13Z</time>
      </trkpt>
      <trkpt lat="43.45433" lon="3.46246">
        <ele>88.599998474121</ele>
        <time>2023-12-19T13:31:14Z</time>
      </trkpt>
      <trkpt lat="43.45433" lon="3.46243">
        <ele>88.599998474121</ele>
        <time>2023-12-19T13:31:15Z</time>
      </trkpt>
      <trkpt lat="43.45432" lon="3.46239">
        <ele>88.800003051758</ele>
        <time>2023-12-19T13:31:16Z</time>
      </trkpt>
      <trkpt lat="43.45431" lon="3.46235">
        <ele>88.800003051758</ele>
        <time>2023-12-19T13:31:17Z</time>
      </trkpt>
      <trkpt lat="43.45431" lon="3.46232">
        <ele>89</ele>
        <time>2023-12-19T13:31:18Z</time>
      </trkpt>
      <trkpt lat="43.4543" lon="3.4623">
        <ele>89</ele>
        <time>2023-12-19T13:31:19Z</time>
      </trkpt>
      <trkpt lat="43.45429" lon="3.46228">
        <ele>89.199996948242</ele>
        <time>2023-12-19T13:31:20Z</time>
      </trkpt>
      <trkpt lat="43.45428" lon="3.46224">
        <ele>89.199996948242</ele>
        <time>2023-12-19T13:31:21Z</time>
      </trkpt>
      <trkpt lat="43.45428" lon="3.46221">
        <ele>89.199996948242</ele>
        <time>2023-12-19T13:31:22Z</time>
      </trkpt>
      <trkpt lat="43.45427" lon="3.46218">
        <ele>89.400001525879</ele>
        <time>2023-12-19T13:31:23Z</time>
      </trkpt>
      <trkpt lat="43.45426" lon="3.46216">
        <ele>89.599998474121</ele>
        <time>2023-12-19T13:31:24Z</time>
      </trkpt>
      <trkpt lat="43.45425" lon="3.46214">
        <ele>89.800003051758</ele>
        <time>2023-12-19T13:31:25Z</time>
      </trkpt>
      <trkpt lat="43.45424" lon="3.46212">
        <ele>89.800003051758</ele>
        <time>2023-12-19T13:31:26Z</time>
      </trkpt>
      <trkpt lat="43.45424" lon="3.4621">
        <ele>90</ele>
        <time>2023-12-19T13:31:27Z</time>
      </trkpt>
      <trkpt lat="43.45424" lon="3.46207">
        <ele>90</ele>
        <time>2023-12-19T13:31:28Z</time>
      </trkpt>
      <trkpt lat="43.45424" lon="3.46204">
        <ele>90.199996948242</ele>
        <time>2023-12-19T13:31:29Z</time>
      </trkpt>
      <trkpt lat="43.45424" lon="3.46201">
        <ele>90.199996948242</ele>
        <time>2023-12-19T13:31:30Z</time>
      </trkpt>
      <trkpt lat="43.45424" lon="3.46199">
        <ele>90.400001525879</ele>
        <time>2023-12-19T13:31:31Z</time>
      </trkpt>
      <trkpt lat="43.45424" lon="3.46197">
        <ele>90.400001525879</ele>
        <time>2023-12-19T13:31:32Z</time>
      </trkpt>
      <trkpt lat="43.45423" lon="3.46195">
        <ele>90.400001525879</ele>
        <time>2023-12-19T13:31:33Z</time>
      </trkpt>
      <trkpt lat="43.45423" lon="3.46192">
        <ele>90.599998474121</ele>
        <time>2023-12-19T13:31:34Z</time>
      </trkpt>
      <trkpt lat="43.45423" lon="3.46188">
        <ele>90.599998474121</ele>
        <time>2023-12-19T13:31:35Z</time>
      </trkpt>
      <trkpt lat="43.45422" lon="3.46185">
        <ele>90.599998474121</ele>
        <time>2023-12-19T13:31:36Z</time>
      </trkpt>
      <trkpt lat="43.45421" lon="3.46182">
        <ele>90.800003051758</ele>
        <time>2023-12-19T13:31:37Z</time>
      </trkpt>
      <trkpt lat="43.4542" lon="3.46179">
        <ele>90.800003051758</ele>
        <time>2023-12-19T13:31:38Z</time>
      </trkpt>
      <trkpt lat="43.45418" lon="3.46177">
        <ele>90.800003051758</ele>
        <time>2023-12-19T13:31:39Z</time>
      </trkpt>
      <trkpt lat="43.45417" lon="3.46175">
        <ele>90.800003051758</ele>
        <time>2023-12-19T13:31:40Z</time>
      </trkpt>
      <trkpt lat="43.45416" lon="3.46171">
        <ele>90.800003051758</ele>
        <time>2023-12-19T13:31:41Z</time>
      </trkpt>
      <trkpt lat="43.45414" lon="3.46167">
        <ele>91</ele>
        <time>2023-12-19T13:31:42Z</time>
      </trkpt>
      <trkpt lat="43.45413" lon="3.46164">
        <ele>91</ele>
        <time>2023-12-19T13:31:43Z</time>
      </trkpt>
      <trkpt lat="43.45411" lon="3.4616">
        <ele>91</ele>
        <time>2023-12-19T13:31:44Z</time>
      </trkpt>
      <trkpt lat="43.45409" lon="3.4616">
        <ele>91</ele>
        <time>2023-12-19T13:31:45Z</time>
      </trkpt>
      <trkpt lat="43.45407" lon="3.46158">
        <ele>91</ele>
        <time>2023-12-19T13:31:46Z</time>
      </trkpt>
      <trkpt lat="43.45404" lon="3.46156">
        <ele>91</ele>
        <time>2023-12-19T13:31:47Z</time>
      </trkpt>
      <trkpt lat="43.454" lon="3.46153">
        <ele>91</ele>
        <time>2023-12-19T13:31:48Z</time>
      </trkpt>
      <trkpt lat="43.45396" lon="3.4615">
        <ele>91</ele>
        <time>2023-12-19T13:31:49Z</time>
      </trkpt>
      <trkpt lat="43.45392" lon="3.46149">
        <ele>90.800003051758</ele>
        <time>2023-12-19T13:31:50Z</time>
      </trkpt>
      <trkpt lat="43.45388" lon="3.46147">
        <ele>90.400001525879</ele>
        <time>2023-12-19T13:31:51Z</time>
      </trkpt>
      <trkpt lat="43.45384" lon="3.46145">
        <ele>90.199996948242</ele>
        <time>2023-12-19T13:31:52Z</time>
      </trkpt>
      <trkpt lat="43.45381" lon="3.46142">
        <ele>89.800003051758</ele>
        <time>2023-12-19T13:31:53Z</time>
      </trkpt>
      <trkpt lat="43.45378" lon="3.46138">
        <ele>89.400001525879</ele>
        <time>2023-12-19T13:31:54Z</time>
      </trkpt>
      <trkpt lat="43.45375" lon="3.46133">
        <ele>89</ele>
        <time>2023-12-19T13:31:55Z</time>
      </trkpt>
      <trkpt lat="43.45373" lon="3.46129">
        <ele>88.800003051758</ele>
        <time>2023-12-19T13:31:56Z</time>
      </trkpt>
      <trkpt lat="43.4537" lon="3.46124">
        <ele>88.400001525879</ele>
        <time>2023-12-19T13:31:57Z</time>
      </trkpt>
      <trkpt lat="43.45369" lon="3.4612">
        <ele>88</ele>
        <time>2023-12-19T13:31:58Z</time>
      </trkpt>
      <trkpt lat="43.45369" lon="3.46116">
        <ele>87.599998474121</ele>
        <time>2023-12-19T13:31:59Z</time>
      </trkpt>
      <trkpt lat="43.45369" lon="3.46111">
        <ele>87.400001525879</ele>
        <time>2023-12-19T13:32:00Z</time>
      </trkpt>
      <trkpt lat="43.45369" lon="3.46107">
        <ele>87.199996948242</ele>
        <time>2023-12-19T13:32:01Z</time>
      </trkpt>
      <trkpt lat="43.4537" lon="3.46103">
        <ele>87.199996948242</ele>
        <time>2023-12-19T13:32:02Z</time>
      </trkpt>
      <trkpt lat="43.45371" lon="3.461">
        <ele>87.199996948242</ele>
        <time>2023-12-19T13:32:03Z</time>
      </trkpt>
      <trkpt lat="43.45372" lon="3.46095">
        <ele>87.199996948242</ele>
        <time>2023-12-19T13:32:04Z</time>
      </trkpt>
      <trkpt lat="43.45373" lon="3.46091">
        <ele>87.199996948242</ele>
        <time>2023-12-19T13:32:05Z</time>
      </trkpt>
      <trkpt lat="43.45374" lon="3.46087">
        <ele>87.199996948242</ele>
        <time>2023-12-19T13:32:06Z</time>
      </trkpt>
      <trkpt lat="43.45376" lon="3.46084">
        <ele>87.400001525879</ele>
        <time>2023-12-19T13:32:07Z</time>
      </trkpt>
      <trkpt lat="43.45378" lon="3.46081">
        <ele>87.599998474121</ele>
        <time>2023-12-19T13:32:08Z</time>
      </trkpt>
      <trkpt lat="43.4538" lon="3.46078">
        <ele>87.599998474121</ele>
        <time>2023-12-19T13:32:09Z</time>
      </trkpt>
      <trkpt lat="43.45382" lon="3.46075">
        <ele>87.800003051758</ele>
        <time>2023-12-19T13:32:10Z</time>
      </trkpt>
      <trkpt lat="43.45384" lon="3.46072">
        <ele>87.800003051758</ele>
        <time>2023-12-19T13:32:11Z</time>
      </trkpt>
      <trkpt lat="43.45387" lon="3.46069">
        <ele>88</ele>
        <time>2023-12-19T13:32:12Z</time>
      </trkpt>
      <trkpt lat="43.45389" lon="3.46066">
        <ele>88</ele>
        <time>2023-12-19T13:32:13Z</time>
      </trkpt>
      <trkpt lat="43.45391" lon="3.46062">
        <ele>88</ele>
        <time>2023-12-19T13:32:14Z</time>
      </trkpt>
      <trkpt lat="43.45394" lon="3.46059">
        <ele>88.199996948242</ele>
        <time>2023-12-19T13:32:15Z</time>
      </trkpt>
      <trkpt lat="43.45396" lon="3.46056">
        <ele>88.199996948242</ele>
        <time>2023-12-19T13:32:16Z</time>
      </trkpt>
      <trkpt lat="43.45398" lon="3.46053">
        <ele>88.199996948242</ele>
        <time>2023-12-19T13:32:17Z</time>
      </trkpt>
      <trkpt lat="43.454" lon="3.4605">
        <ele>88.400001525879</ele>
        <time>2023-12-19T13:32:18Z</time>
      </trkpt>
      <trkpt lat="43.45403" lon="3.46046">
        <ele>88.400001525879</ele>
        <time>2023-12-19T13:32:19Z</time>
      </trkpt>
      <trkpt lat="43.45405" lon="3.46043">
        <ele>88.400001525879</ele>
        <time>2023-12-19T13:32:20Z</time>
      </trkpt>
      <trkpt lat="43.45407" lon="3.46039">
        <ele>88.400001525879</ele>
        <time>2023-12-19T13:32:21Z</time>
      </trkpt>
      <trkpt lat="43.45408" lon="3.46036">
        <ele>88.599998474121</ele>
        <time>2023-12-19T13:32:22Z</time>
      </trkpt>
      <trkpt lat="43.4541" lon="3.46033">
        <ele>88.599998474121</ele>
        <time>2023-12-19T13:32:23Z</time>
      </trkpt>
      <trkpt lat="43.45412" lon="3.46029">
        <ele>88.599998474121</ele>
        <time>2023-12-19T13:32:24Z</time>
      </trkpt>
      <trkpt lat="43.45413" lon="3.46025">
        <ele>88.599998474121</ele>
        <time>2023-12-19T13:32:25Z</time>
      </trkpt>
      <trkpt lat="43.45416" lon="3.4602">
        <ele>88.599998474121</ele>
        <time>2023-12-19T13:32:26Z</time>
      </trkpt>
      <trkpt lat="43.45417" lon="3.46016">
        <ele>88.599998474121</ele>
        <time>2023-12-19T13:32:27Z</time>
      </trkpt>
      <trkpt lat="43.45419" lon="3.46013">
        <ele>88.599998474121</ele>
        <time>2023-12-19T13:32:28Z</time>
      </trkpt>
      <trkpt lat="43.45421" lon="3.4601">
        <ele>88.400001525879</ele>
        <time>2023-12-19T13:32:29Z</time>
      </trkpt>
      <trkpt lat="43.45422" lon="3.46006">
        <ele>88.400001525879</ele>
        <time>2023-12-19T13:32:30Z</time>
      </trkpt>
      <trkpt lat="43.45424" lon="3.46003">
        <ele>88.199996948242</ele>
        <time>2023-12-19T13:32:31Z</time>
      </trkpt>
      <trkpt lat="43.45426" lon="3.46">
        <ele>88.199996948242</ele>
        <time>2023-12-19T13:32:32Z</time>
      </trkpt>
      <trkpt lat="43.45428" lon="3.45996">
        <ele>88</ele>
        <time>2023-12-19T13:32:33Z</time>
      </trkpt>
      <trkpt lat="43.4543" lon="3.45993">
        <ele>88</ele>
        <time>2023-12-19T13:32:34Z</time>
      </trkpt>
      <trkpt lat="43.45432" lon="3.45988">
        <ele>87.800003051758</ele>
        <time>2023-12-19T13:32:35Z</time>
      </trkpt>
      <trkpt lat="43.45434" lon="3.45985">
        <ele>87.599998474121</ele>
        <time>2023-12-19T13:32:36Z</time>
      </trkpt>
      <trkpt lat="43.45436" lon="3.45982">
        <ele>87.599998474121</ele>
        <time>2023-12-19T13:32:37Z</time>
      </trkpt>
      <trkpt lat="43.45439" lon="3.45979">
        <ele>87.599998474121</ele>
        <time>2023-12-19T13:32:38Z</time>
      </trkpt>
      <trkpt lat="43.45441" lon="3.45976">
        <ele>87.400001525879</ele>
        <time>2023-12-19T13:32:39Z</time>
      </trkpt>
      <trkpt lat="43.45444" lon="3.45974">
        <ele>87.199996948242</ele>
        <time>2023-12-19T13:32:40Z</time>
      </trkpt>
      <trkpt lat="43.45446" lon="3.4597">
        <ele>87</ele>
        <time>2023-12-19T13:32:41Z</time>
      </trkpt>
      <trkpt lat="43.45448" lon="3.45966">
        <ele>86.800003051758</ele>
        <time>2023-12-19T13:32:42Z</time>
      </trkpt>
      <trkpt lat="43.4545" lon="3.45964">
        <ele>86.599998474121</ele>
        <time>2023-12-19T13:32:43Z</time>
      </trkpt>
      <trkpt lat="43.45452" lon="3.45963">
        <ele>86.400001525879</ele>
        <time>2023-12-19T13:32:44Z</time>
      </trkpt>
      <trkpt lat="43.45454" lon="3.45962">
        <ele>86.199996948242</ele>
        <time>2023-12-19T13:32:45Z</time>
      </trkpt>
      <trkpt lat="43.45457" lon="3.4596">
        <ele>86</ele>
        <time>2023-12-19T13:32:46Z</time>
      </trkpt>
      <trkpt lat="43.45459" lon="3.4596">
        <ele>86</ele>
        <time>2023-12-19T13:32:47Z</time>
      </trkpt>
      <trkpt lat="43.45462" lon="3.45959">
        <ele>86</ele>
        <time>2023-12-19T13:32:48Z</time>
      </trkpt>
      <trkpt lat="43.45464" lon="3.4596">
        <ele>85.800003051758</ele>
        <time>2023-12-19T13:32:49Z</time>
      </trkpt>
      <trkpt lat="43.45467" lon="3.45962">
        <ele>85.800003051758</ele>
        <time>2023-12-19T13:32:50Z</time>
      </trkpt>
      <trkpt lat="43.4547" lon="3.45964">
        <ele>85.800003051758</ele>
        <time>2023-12-19T13:32:51Z</time>
      </trkpt>
      <trkpt lat="43.45472" lon="3.45967">
        <ele>85.800003051758</ele>
        <time>2023-12-19T13:32:52Z</time>
      </trkpt>
      <trkpt lat="43.45474" lon="3.4597">
        <ele>85.800003051758</ele>
        <time>2023-12-19T13:32:53Z</time>
      </trkpt>
      <trkpt lat="43.45476" lon="3.45974">
        <ele>85.800003051758</ele>
        <time>2023-12-19T13:32:54Z</time>
      </trkpt>
      <trkpt lat="43.45478" lon="3.45977">
        <ele>86</ele>
        <time>2023-12-19T13:32:55Z</time>
      </trkpt>
      <trkpt lat="43.45481" lon="3.45979">
        <ele>86.199996948242</ele>
        <time>2023-12-19T13:32:56Z</time>
      </trkpt>
      <trkpt lat="43.45483" lon="3.45982">
        <ele>86.400001525879</ele>
        <time>2023-12-19T13:32:57Z</time>
      </trkpt>
      <trkpt lat="43.45486" lon="3.45984">
        <ele>86.599998474121</ele>
        <time>2023-12-19T13:32:58Z</time>
      </trkpt>
      <trkpt lat="43.45489" lon="3.45987">
        <ele>86.800003051758</ele>
        <time>2023-12-19T13:32:59Z</time>
      </trkpt>
      <trkpt lat="43.45491" lon="3.4599">
        <ele>87.199996948242</ele>
        <time>2023-12-19T13:33:00Z</time>
      </trkpt>
      <trkpt lat="43.45494" lon="3.45992">
        <ele>87.400001525879</ele>
        <time>2023-12-19T13:33:01Z</time>
      </trkpt>
      <trkpt lat="43.45497" lon="3.45994">
        <ele>87.800003051758</ele>
        <time>2023-12-19T13:33:02Z</time>
      </trkpt>
      <trkpt lat="43.455" lon="3.45994">
        <ele>88.199996948242</ele>
        <time>2023-12-19T13:33:03Z</time>
      </trkpt>
      <trkpt lat="43.45504" lon="3.45994">
        <ele>88.599998474121</ele>
        <time>2023-12-19T13:33:04Z</time>
      </trkpt>
      <trkpt lat="43.45507" lon="3.45994">
        <ele>88.800003051758</ele>
        <time>2023-12-19T13:33:05Z</time>
      </trkpt>
      <trkpt lat="43.4551" lon="3.45993">
        <ele>89</ele>
        <time>2023-12-19T13:33:06Z</time>
      </trkpt>
      <trkpt lat="43.45512" lon="3.45993">
        <ele>89</ele>
        <time>2023-12-19T13:33:07Z</time>
      </trkpt>
      <trkpt lat="43.45515" lon="3.45994">
        <ele>89.199996948242</ele>
        <time>2023-12-19T13:33:08Z</time>
      </trkpt>
      <trkpt lat="43.45517" lon="3.45994">
        <ele>89.199996948242</ele>
        <time>2023-12-19T13:33:09Z</time>
      </trkpt>
      <trkpt lat="43.4552" lon="3.45996">
        <ele>89.199996948242</ele>
        <time>2023-12-19T13:33:10Z</time>
      </trkpt>
      <trkpt lat="43.45523" lon="3.45997">
        <ele>89.199996948242</ele>
        <time>2023-12-19T13:33:11Z</time>
      </trkpt>
      <trkpt lat="43.45525" lon="3.45999">
        <ele>89.199996948242</ele>
        <time>2023-12-19T13:33:12Z</time>
      </trkpt>
      <trkpt lat="43.45527" lon="3.46">
        <ele>89.199996948242</ele>
        <time>2023-12-19T13:33:13Z</time>
      </trkpt>
      <trkpt lat="43.45529" lon="3.46001">
        <ele>89.400001525879</ele>
        <time>2023-12-19T13:33:14Z</time>
      </trkpt>
      <trkpt lat="43.45532" lon="3.46002">
        <ele>89.400001525879</ele>
        <time>2023-12-19T13:33:15Z</time>
      </trkpt>
      <trkpt lat="43.45534" lon="3.46003">
        <ele>89.599998474121</ele>
        <time>2023-12-19T13:33:16Z</time>
      </trkpt>
      <trkpt lat="43.45536" lon="3.46004">
        <ele>89.800003051758</ele>
        <time>2023-12-19T13:33:17Z</time>
      </trkpt>
      <trkpt lat="43.45538" lon="3.46002">
        <ele>90</ele>
        <time>2023-12-19T13:33:18Z</time>
      </trkpt>
      <trkpt lat="43.4554" lon="3.46">
        <ele>90</ele>
        <time>2023-12-19T13:33:19Z</time>
      </trkpt>
      <trkpt lat="43.45542" lon="3.45999">
        <ele>90</ele>
        <time>2023-12-19T13:33:20Z</time>
      </trkpt>
      <trkpt lat="43.45544" lon="3.45997">
        <ele>90</ele>
        <time>2023-12-19T13:33:21Z</time>
      </trkpt>
      <trkpt lat="43.45546" lon="3.45997">
        <ele>89.800003051758</ele>
        <time>2023-12-19T13:33:22Z</time>
      </trkpt>
      <trkpt lat="43.45547" lon="3.45996">
        <ele>89.599998474121</ele>
        <time>2023-12-19T13:33:23Z</time>
      </trkpt>
      <trkpt lat="43.45549" lon="3.45995">
        <ele>89.599998474121</ele>
        <time>2023-12-19T13:33:24Z</time>
      </trkpt>
      <trkpt lat="43.4555" lon="3.45994">
        <ele>89.400001525879</ele>
        <time>2023-12-19T13:33:25Z</time>
      </trkpt>
      <trkpt lat="43.45551" lon="3.45993">
        <ele>89.199996948242</ele>
        <time>2023-12-19T13:33:26Z</time>
      </trkpt>
      <trkpt lat="43.45552" lon="3.45992">
        <ele>89</ele>
        <time>2023-12-19T13:33:27Z</time>
      </trkpt>
      <trkpt lat="43.45552" lon="3.45992">
        <ele>89</ele>
        <time>2023-12-19T13:33:28Z</time>
      </trkpt>
      <trkpt lat="43.4555" lon="3.46005">
        <ele>89</ele>
        <time>2023-12-19T13:33:48Z</time>
      </trkpt>
      <trkpt lat="43.45551" lon="3.46008">
        <ele>89</ele>
        <time>2023-12-19T13:33:49Z</time>
      </trkpt>
      <trkpt lat="43.45553" lon="3.4601">
        <ele>89</ele>
        <time>2023-12-19T13:33:50Z</time>
      </trkpt>
      <trkpt lat="43.45555" lon="3.46012">
        <ele>89</ele>
        <time>2023-12-19T13:33:51Z</time>
      </trkpt>
      <trkpt lat="43.45557" lon="3.46012">
        <ele>89</ele>
        <time>2023-12-19T13:33:52Z</time>
      </trkpt>
      <trkpt lat="43.45559" lon="3.46013">
        <ele>89</ele>
        <time>2023-12-19T13:33:53Z</time>
      </trkpt>
      <trkpt lat="43.45561" lon="3.46012">
        <ele>88.800003051758</ele>
        <time>2023-12-19T13:33:54Z</time>
      </trkpt>
      <trkpt lat="43.45564" lon="3.46011">
        <ele>88.800003051758</ele>
        <time>2023-12-19T13:33:55Z</time>
      </trkpt>
      <trkpt lat="43.45565" lon="3.4601">
        <ele>88.599998474121</ele>
        <time>2023-12-19T13:33:56Z</time>
      </trkpt>
      <trkpt lat="43.45566" lon="3.46009">
        <ele>88.400001525879</ele>
        <time>2023-12-19T13:33:57Z</time>
      </trkpt>
      <trkpt lat="43.45568" lon="3.46009">
        <ele>88.199996948242</ele>
        <time>2023-12-19T13:33:58Z</time>
      </trkpt>
      <trkpt lat="43.4557" lon="3.46008">
        <ele>88</ele>
        <time>2023-12-19T13:33:59Z</time>
      </trkpt>
      <trkpt lat="43.45571" lon="3.46007">
        <ele>88</ele>
        <time>2023-12-19T13:34:00Z</time>
      </trkpt>
      <trkpt lat="43.45571" lon="3.46007">
        <ele>88</ele>
        <time>2023-12-19T13:34:01Z</time>
      </trkpt>
      <trkpt lat="43.45571" lon="3.46007">
        <ele>87.800003051758</ele>
        <time>2023-12-19T13:34:02Z</time>
      </trkpt>
      <trkpt lat="43.45576" lon="3.4601">
        <ele>87</ele>
        <time>2023-12-19T13:34:16Z</time>
      </trkpt>
      <trkpt lat="43.45577" lon="3.46012">
        <ele>87</ele>
        <time>2023-12-19T13:34:17Z</time>
      </trkpt>
      <trkpt lat="43.45579" lon="3.46012">
        <ele>87</ele>
        <time>2023-12-19T13:34:18Z</time>
      </trkpt>
      <trkpt lat="43.45579" lon="3.46011">
        <ele>87</ele>
        <time>2023-12-19T13:34:19Z</time>
      </trkpt>
      <trkpt lat="43.4558" lon="3.46011">
        <ele>87</ele>
        <time>2023-12-19T13:34:20Z</time>
      </trkpt>
      <trkpt lat="43.45581" lon="3.4601">
        <ele>86.800003051758</ele>
        <time>2023-12-19T13:34:21Z</time>
      </trkpt>
      <trkpt lat="43.45582" lon="3.46009">
        <ele>86.800003051758</ele>
        <time>2023-12-19T13:34:22Z</time>
      </trkpt>
      <trkpt lat="43.45584" lon="3.46009">
        <ele>86.800003051758</ele>
        <time>2023-12-19T13:34:23Z</time>
      </trkpt>
      <trkpt lat="43.45586" lon="3.46008">
        <ele>86.599998474121</ele>
        <time>2023-12-19T13:34:24Z</time>
      </trkpt>
      <trkpt lat="43.45588" lon="3.46008">
        <ele>86.400001525879</ele>
        <time>2023-12-19T13:34:25Z</time>
      </trkpt>
      <trkpt lat="43.45591" lon="3.46008">
        <ele>86.199996948242</ele>
        <time>2023-12-19T13:34:26Z</time>
      </trkpt>
      <trkpt lat="43.45592" lon="3.46006">
        <ele>85.800003051758</ele>
        <time>2023-12-19T13:34:27Z</time>
      </trkpt>
      <trkpt lat="43.45594" lon="3.46005">
        <ele>85.599998474121</ele>
        <time>2023-12-19T13:34:28Z</time>
      </trkpt>
      <trkpt lat="43.45596" lon="3.46004">
        <ele>85.400001525879</ele>
        <time>2023-12-19T13:34:29Z</time>
      </trkpt>
      <trkpt lat="43.45597" lon="3.46002">
        <ele>85</ele>
        <time>2023-12-19T13:34:30Z</time>
      </trkpt>
      <trkpt lat="43.45598" lon="3.46001">
        <ele>84.800003051758</ele>
        <time>2023-12-19T13:34:31Z</time>
      </trkpt>
      <trkpt lat="43.456" lon="3.46">
        <ele>84.599998474121</ele>
        <time>2023-12-19T13:34:32Z</time>
      </trkpt>
      <trkpt lat="43.45601" lon="3.45999">
        <ele>84.400001525879</ele>
        <time>2023-12-19T13:34:33Z</time>
      </trkpt>
      <trkpt lat="43.45603" lon="3.45999">
        <ele>84.199996948242</ele>
        <time>2023-12-19T13:34:34Z</time>
      </trkpt>
      <trkpt lat="43.45605" lon="3.45998">
        <ele>84</ele>
        <time>2023-12-19T13:34:35Z</time>
      </trkpt>
      <trkpt lat="43.45607" lon="3.45996">
        <ele>84</ele>
        <time>2023-12-19T13:34:36Z</time>
      </trkpt>
      <trkpt lat="43.45609" lon="3.45995">
        <ele>84</ele>
        <time>2023-12-19T13:34:37Z</time>
      </trkpt>
      <trkpt lat="43.4561" lon="3.45994">
        <ele>83.800003051758</ele>
        <time>2023-12-19T13:34:38Z</time>
      </trkpt>
      <trkpt lat="43.45612" lon="3.45992">
        <ele>83.599998474121</ele>
        <time>2023-12-19T13:34:39Z</time>
      </trkpt>
      <trkpt lat="43.45613" lon="3.4599">
        <ele>83.599998474121</ele>
        <time>2023-12-19T13:34:40Z</time>
      </trkpt>
      <trkpt lat="43.45614" lon="3.45987">
        <ele>83.400001525879</ele>
        <time>2023-12-19T13:34:41Z</time>
      </trkpt>
      <trkpt lat="43.45616" lon="3.45984">
        <ele>83.199996948242</ele>
        <time>2023-12-19T13:34:42Z</time>
      </trkpt>
      <trkpt lat="43.45617" lon="3.45981">
        <ele>82.800003051758</ele>
        <time>2023-12-19T13:34:43Z</time>
      </trkpt>
      <trkpt lat="43.45618" lon="3.45979">
        <ele>82.599998474121</ele>
        <time>2023-12-19T13:34:44Z</time>
      </trkpt>
      <trkpt lat="43.45619" lon="3.45978">
        <ele>82.400001525879</ele>
        <time>2023-12-19T13:34:45Z</time>
      </trkpt>
      <trkpt lat="43.45622" lon="3.45976">
        <ele>82.199996948242</ele>
        <time>2023-12-19T13:34:46Z</time>
      </trkpt>
      <trkpt lat="43.45624" lon="3.45975">
        <ele>82</ele>
        <time>2023-12-19T13:34:47Z</time>
      </trkpt>
      <trkpt lat="43.45627" lon="3.45976">
        <ele>82</ele>
        <time>2023-12-19T13:34:48Z</time>
      </trkpt>
      <trkpt lat="43.45629" lon="3.45975">
        <ele>81.800003051758</ele>
        <time>2023-12-19T13:34:49Z</time>
      </trkpt>
      <trkpt lat="43.45632" lon="3.45975">
        <ele>81.800003051758</ele>
        <time>2023-12-19T13:34:50Z</time>
      </trkpt>
      <trkpt lat="43.45634" lon="3.45974">
        <ele>81.400001525879</ele>
        <time>2023-12-19T13:34:51Z</time>
      </trkpt>
      <trkpt lat="43.45636" lon="3.45972">
        <ele>81</ele>
        <time>2023-12-19T13:34:52Z</time>
      </trkpt>
      <trkpt lat="43.45638" lon="3.45971">
        <ele>80.599998474121</ele>
        <time>2023-12-19T13:34:53Z</time>
      </trkpt>
      <trkpt lat="43.4564" lon="3.45972">
        <ele>80.199996948242</ele>
        <time>2023-12-19T13:34:54Z</time>
      </trkpt>
      <trkpt lat="43.45642" lon="3.45973">
        <ele>80</ele>
        <time>2023-12-19T13:34:55Z</time>
      </trkpt>
      <trkpt lat="43.45644" lon="3.45974">
        <ele>79.599998474121</ele>
        <time>2023-12-19T13:34:56Z</time>
      </trkpt>
      <trkpt lat="43.45646" lon="3.45975">
        <ele>79</ele>
        <time>2023-12-19T13:34:57Z</time>
      </trkpt>
      <trkpt lat="43.45648" lon="3.45975">
        <ele>78.599998474121</ele>
        <time>2023-12-19T13:34:58Z</time>
      </trkpt>
      <trkpt lat="43.45649" lon="3.45974">
        <ele>78.199996948242</ele>
        <time>2023-12-19T13:34:59Z</time>
      </trkpt>
      <trkpt lat="43.45651" lon="3.45974">
        <ele>77.800003051758</ele>
        <time>2023-12-19T13:35:00Z</time>
      </trkpt>
      <trkpt lat="43.45653" lon="3.45972">
        <ele>77.400001525879</ele>
        <time>2023-12-19T13:35:01Z</time>
      </trkpt>
      <trkpt lat="43.45655" lon="3.45971">
        <ele>77.199996948242</ele>
        <time>2023-12-19T13:35:02Z</time>
      </trkpt>
      <trkpt lat="43.45658" lon="3.4597">
        <ele>76.800003051758</ele>
        <time>2023-12-19T13:35:03Z</time>
      </trkpt>
      <trkpt lat="43.4566" lon="3.45969">
        <ele>76.400001525879</ele>
        <time>2023-12-19T13:35:04Z</time>
      </trkpt>
      <trkpt lat="43.45662" lon="3.45966">
        <ele>76</ele>
        <time>2023-12-19T13:35:05Z</time>
      </trkpt>
      <trkpt lat="43.45662" lon="3.45963">
        <ele>75.599998474121</ele>
        <time>2023-12-19T13:35:06Z</time>
      </trkpt>
      <trkpt lat="43.45661" lon="3.45959">
        <ele>75.199996948242</ele>
        <time>2023-12-19T13:35:07Z</time>
      </trkpt>
      <trkpt lat="43.45661" lon="3.45956">
        <ele>75</ele>
        <time>2023-12-19T13:35:08Z</time>
      </trkpt>
      <trkpt lat="43.45662" lon="3.45953">
        <ele>74.599998474121</ele>
        <time>2023-12-19T13:35:09Z</time>
      </trkpt>
      <trkpt lat="43.45662" lon="3.45951">
        <ele>74.599998474121</ele>
        <time>2023-12-19T13:35:10Z</time>
      </trkpt>
      <trkpt lat="43.45663" lon="3.45949">
        <ele>74.599998474121</ele>
        <time>2023-12-19T13:35:11Z</time>
      </trkpt>
      <trkpt lat="43.45665" lon="3.45948">
        <ele>74.599998474121</ele>
        <time>2023-12-19T13:35:12Z</time>
      </trkpt>
      <trkpt lat="43.45666" lon="3.45946">
        <ele>74.599998474121</ele>
        <time>2023-12-19T13:35:13Z</time>
      </trkpt>
      <trkpt lat="43.45668" lon="3.45942">
        <ele>74.599998474121</ele>
        <time>2023-12-19T13:35:14Z</time>
      </trkpt>
      <trkpt lat="43.45669" lon="3.4594">
        <ele>74.599998474121</ele>
        <time>2023-12-19T13:35:15Z</time>
      </trkpt>
      <trkpt lat="43.4567" lon="3.45939">
        <ele>74.599998474121</ele>
        <time>2023-12-19T13:35:16Z</time>
      </trkpt>
      <trkpt lat="43.45672" lon="3.45938">
        <ele>74.599998474121</ele>
        <time>2023-12-19T13:35:17Z</time>
      </trkpt>
      <trkpt lat="43.45674" lon="3.45938">
        <ele>74.400001525879</ele>
        <time>2023-12-19T13:35:18Z</time>
      </trkpt>
      <trkpt lat="43.45676" lon="3.45936">
        <ele>74</ele>
        <time>2023-12-19T13:35:19Z</time>
      </trkpt>
      <trkpt lat="43.45677" lon="3.45933">
        <ele>73.599998474121</ele>
        <time>2023-12-19T13:35:20Z</time>
      </trkpt>
      <trkpt lat="43.45679" lon="3.45932">
        <ele>73.400001525879</ele>
        <time>2023-12-19T13:35:21Z</time>
      </trkpt>
      <trkpt lat="43.4568" lon="3.45932">
        <ele>73</ele>
        <time>2023-12-19T13:35:22Z</time>
      </trkpt>
      <trkpt lat="43.45682" lon="3.45932">
        <ele>72.800003051758</ele>
        <time>2023-12-19T13:35:23Z</time>
      </trkpt>
      <trkpt lat="43.45684" lon="3.45933">
        <ele>72.400001525879</ele>
        <time>2023-12-19T13:35:24Z</time>
      </trkpt>
      <trkpt lat="43.45687" lon="3.45933">
        <ele>72.400001525879</ele>
        <time>2023-12-19T13:35:25Z</time>
      </trkpt>
      <trkpt lat="43.45688" lon="3.45933">
        <ele>72.199996948242</ele>
        <time>2023-12-19T13:35:26Z</time>
      </trkpt>
      <trkpt lat="43.45691" lon="3.45932">
        <ele>72</ele>
        <time>2023-12-19T13:35:27Z</time>
      </trkpt>
      <trkpt lat="43.45693" lon="3.45931">
        <ele>71.800003051758</ele>
        <time>2023-12-19T13:35:28Z</time>
      </trkpt>
      <trkpt lat="43.45695" lon="3.45931">
        <ele>71.400001525879</ele>
        <time>2023-12-19T13:35:29Z</time>
      </trkpt>
      <trkpt lat="43.45699" lon="3.4593">
        <ele>71.199996948242</ele>
        <time>2023-12-19T13:35:30Z</time>
      </trkpt>
      <trkpt lat="43.45701" lon="3.4593">
        <ele>70.800003051758</ele>
        <time>2023-12-19T13:35:31Z</time>
      </trkpt>
      <trkpt lat="43.45704" lon="3.45929">
        <ele>70.400001525879</ele>
        <time>2023-12-19T13:35:32Z</time>
      </trkpt>
      <trkpt lat="43.45707" lon="3.45929">
        <ele>70.199996948242</ele>
        <time>2023-12-19T13:35:33Z</time>
      </trkpt>
      <trkpt lat="43.45709" lon="3.45928">
        <ele>69.800003051758</ele>
        <time>2023-12-19T13:35:34Z</time>
      </trkpt>
      <trkpt lat="43.45712" lon="3.45927">
        <ele>69.599998474121</ele>
        <time>2023-12-19T13:35:35Z</time>
      </trkpt>
      <trkpt lat="43.45714" lon="3.45927">
        <ele>69.400001525879</ele>
        <time>2023-12-19T13:35:36Z</time>
      </trkpt>
      <trkpt lat="43.45716" lon="3.45928">
        <ele>69.199996948242</ele>
        <time>2023-12-19T13:35:37Z</time>
      </trkpt>
      <trkpt lat="43.45719" lon="3.45929">
        <ele>69</ele>
        <time>2023-12-19T13:35:38Z</time>
      </trkpt>
      <trkpt lat="43.45722" lon="3.45929">
        <ele>68.599998474121</ele>
        <time>2023-12-19T13:35:39Z</time>
      </trkpt>
      <trkpt lat="43.45726" lon="3.4593">
        <ele>68.199996948242</ele>
        <time>2023-12-19T13:35:40Z</time>
      </trkpt>
      <trkpt lat="43.4573" lon="3.45932">
        <ele>68</ele>
        <time>2023-12-19T13:35:41Z</time>
      </trkpt>
      <trkpt lat="43.45734" lon="3.45934">
        <ele>67.800003051758</ele>
        <time>2023-12-19T13:35:42Z</time>
      </trkpt>
      <trkpt lat="43.45737" lon="3.45937">
        <ele>67.400001525879</ele>
        <time>2023-12-19T13:35:43Z</time>
      </trkpt>
      <trkpt lat="43.45739" lon="3.45939">
        <ele>67</ele>
        <time>2023-12-19T13:35:44Z</time>
      </trkpt>
      <trkpt lat="43.45741" lon="3.45942">
        <ele>66.599998474121</ele>
        <time>2023-12-19T13:35:45Z</time>
      </trkpt>
      <trkpt lat="43.45741" lon="3.45944">
        <ele>66</ele>
        <time>2023-12-19T13:35:46Z</time>
      </trkpt>
      <trkpt lat="43.45742" lon="3.45944">
        <ele>65.800003051758</ele>
        <time>2023-12-19T13:35:47Z</time>
      </trkpt>
      <trkpt lat="43.45742" lon="3.45945">
        <ele>65.800003051758</ele>
        <time>2023-12-19T13:35:48Z</time>
      </trkpt>
      <trkpt lat="43.45756" lon="3.45955">
        <ele>65.800003051758</ele>
        <time>2023-12-19T13:36:47Z</time>
      </trkpt>
      <trkpt lat="43.45757" lon="3.45955">
        <ele>65.800003051758</ele>
        <time>2023-12-19T13:36:48Z</time>
      </trkpt>
      <trkpt lat="43.45757" lon="3.45956">
        <ele>65.599998474121</ele>
        <time>2023-12-19T13:36:49Z</time>
      </trkpt>
      <trkpt lat="43.45757" lon="3.45956">
        <ele>65.599998474121</ele>
        <time>2023-12-19T13:36:50Z</time>
      </trkpt>
      <trkpt lat="43.45757" lon="3.45956">
        <ele>65.599998474121</ele>
        <time>2023-12-19T13:36:51Z</time>
      </trkpt>
      <trkpt lat="43.45762" lon="3.45958">
        <ele>65.199996948242</ele>
        <time>2023-12-19T13:37:25Z</time>
      </trkpt>
      <trkpt lat="43.45762" lon="3.45956">
        <ele>65.199996948242</ele>
        <time>2023-12-19T13:37:26Z</time>
      </trkpt>
      <trkpt lat="43.45764" lon="3.45955">
        <ele>65.199996948242</ele>
        <time>2023-12-19T13:37:27Z</time>
      </trkpt>
      <trkpt lat="43.45766" lon="3.45955">
        <ele>65.199996948242</ele>
        <time>2023-12-19T13:37:28Z</time>
      </trkpt>
      <trkpt lat="43.45768" lon="3.45956">
        <ele>65.199996948242</ele>
        <time>2023-12-19T13:37:29Z</time>
      </trkpt>
      <trkpt lat="43.4577" lon="3.45955">
        <ele>65.199996948242</ele>
        <time>2023-12-19T13:37:30Z</time>
      </trkpt>
      <trkpt lat="43.45772" lon="3.45955">
        <ele>65</ele>
        <time>2023-12-19T13:37:31Z</time>
      </trkpt>
      <trkpt lat="43.45773" lon="3.45956">
        <ele>64.800003051758</ele>
        <time>2023-12-19T13:37:32Z</time>
      </trkpt>
      <trkpt lat="43.45775" lon="3.45956">
        <ele>64.800003051758</ele>
        <time>2023-12-19T13:37:33Z</time>
      </trkpt>
      <trkpt lat="43.45777" lon="3.45956">
        <ele>64.599998474121</ele>
        <time>2023-12-19T13:37:34Z</time>
      </trkpt>
      <trkpt lat="43.45779" lon="3.45955">
        <ele>64.599998474121</ele>
        <time>2023-12-19T13:37:35Z</time>
      </trkpt>
      <trkpt lat="43.45781" lon="3.45956">
        <ele>64.400001525879</ele>
        <time>2023-12-19T13:37:36Z</time>
      </trkpt>
      <trkpt lat="43.45783" lon="3.45957">
        <ele>64.400001525879</ele>
        <time>2023-12-19T13:37:37Z</time>
      </trkpt>
      <trkpt lat="43.45785" lon="3.45957">
        <ele>64.199996948242</ele>
        <time>2023-12-19T13:37:38Z</time>
      </trkpt>
      <trkpt lat="43.45787" lon="3.45957">
        <ele>64</ele>
        <time>2023-12-19T13:37:39Z</time>
      </trkpt>
      <trkpt lat="43.4579" lon="3.45956">
        <ele>63.799999237061</ele>
        <time>2023-12-19T13:37:40Z</time>
      </trkpt>
      <trkpt lat="43.45793" lon="3.45956">
        <ele>63.799999237061</ele>
        <time>2023-12-19T13:37:41Z</time>
      </trkpt>
      <trkpt lat="43.45795" lon="3.45956">
        <ele>63.599998474121</ele>
        <time>2023-12-19T13:37:42Z</time>
      </trkpt>
      <trkpt lat="43.45798" lon="3.45955">
        <ele>63.400001525879</ele>
        <time>2023-12-19T13:37:43Z</time>
      </trkpt>
      <trkpt lat="43.458" lon="3.45953">
        <ele>63.200000762939</ele>
        <time>2023-12-19T13:37:44Z</time>
      </trkpt>
      <trkpt lat="43.45801" lon="3.45951">
        <ele>63</ele>
        <time>2023-12-19T13:37:45Z</time>
      </trkpt>
      <trkpt lat="43.45803" lon="3.45951">
        <ele>62.799999237061</ele>
        <time>2023-12-19T13:37:46Z</time>
      </trkpt>
      <trkpt lat="43.45805" lon="3.45951">
        <ele>62.599998474121</ele>
        <time>2023-12-19T13:37:47Z</time>
      </trkpt>
      <trkpt lat="43.45808" lon="3.45951">
        <ele>62.400001525879</ele>
        <time>2023-12-19T13:37:48Z</time>
      </trkpt>
      <trkpt lat="43.45811" lon="3.45952">
        <ele>62.400001525879</ele>
        <time>2023-12-19T13:37:49Z</time>
      </trkpt>
      <trkpt lat="43.45813" lon="3.45952">
        <ele>62.200000762939</ele>
        <time>2023-12-19T13:37:50Z</time>
      </trkpt>
      <trkpt lat="43.45816" lon="3.45951">
        <ele>62</ele>
        <time>2023-12-19T13:37:51Z</time>
      </trkpt>
      <trkpt lat="43.45819" lon="3.4595">
        <ele>61.799999237061</ele>
        <time>2023-12-19T13:37:52Z</time>
      </trkpt>
      <trkpt lat="43.45821" lon="3.45948">
        <ele>61.599998474121</ele>
        <time>2023-12-19T13:37:53Z</time>
      </trkpt>
      <trkpt lat="43.45823" lon="3.45946">
        <ele>61.400001525879</ele>
        <time>2023-12-19T13:37:54Z</time>
      </trkpt>
      <trkpt lat="43.45826" lon="3.45945">
        <ele>61</ele>
        <time>2023-12-19T13:37:55Z</time>
      </trkpt>
      <trkpt lat="43.45828" lon="3.45945">
        <ele>60.799999237061</ele>
        <time>2023-12-19T13:37:56Z</time>
      </trkpt>
      <trkpt lat="43.4583" lon="3.45946">
        <ele>60.400001525879</ele>
        <time>2023-12-19T13:37:57Z</time>
      </trkpt>
      <trkpt lat="43.45832" lon="3.45947">
        <ele>60</ele>
        <time>2023-12-19T13:37:58Z</time>
      </trkpt>
      <trkpt lat="43.45834" lon="3.45948">
        <ele>59.799999237061</ele>
        <time>2023-12-19T13:37:59Z</time>
      </trkpt>
      <trkpt lat="43.45837" lon="3.45948">
        <ele>59.400001525879</ele>
        <time>2023-12-19T13:38:00Z</time>
      </trkpt>
      <trkpt lat="43.4584" lon="3.45949">
        <ele>59.400001525879</ele>
        <time>2023-12-19T13:38:01Z</time>
      </trkpt>
      <trkpt lat="43.45845" lon="3.45951">
        <ele>59.200000762939</ele>
        <time>2023-12-19T13:38:02Z</time>
      </trkpt>
      <trkpt lat="43.45849" lon="3.45951">
        <ele>59</ele>
        <time>2023-12-19T13:38:03Z</time>
      </trkpt>
      <trkpt lat="43.45851" lon="3.45948">
        <ele>58.799999237061</ele>
        <time>2023-12-19T13:38:04Z</time>
      </trkpt>
      <trkpt lat="43.45854" lon="3.45947">
        <ele>58.200000762939</ele>
        <time>2023-12-19T13:38:05Z</time>
      </trkpt>
      <trkpt lat="43.45856" lon="3.45947">
        <ele>58</ele>
        <time>2023-12-19T13:38:06Z</time>
      </trkpt>
      <trkpt lat="43.45858" lon="3.45948">
        <ele>57.599998474121</ele>
        <time>2023-12-19T13:38:07Z</time>
      </trkpt>
      <trkpt lat="43.4586" lon="3.45949">
        <ele>57.200000762939</ele>
        <time>2023-12-19T13:38:08Z</time>
      </trkpt>
      <trkpt lat="43.45862" lon="3.4595">
        <ele>56.799999237061</ele>
        <time>2023-12-19T13:38:09Z</time>
      </trkpt>
      <trkpt lat="43.45863" lon="3.4595">
        <ele>56.599998474121</ele>
        <time>2023-12-19T13:38:10Z</time>
      </trkpt>
      <trkpt lat="43.45864" lon="3.4595">
        <ele>56.200000762939</ele>
        <time>2023-12-19T13:38:11Z</time>
      </trkpt>
      <trkpt lat="43.45864" lon="3.45949">
        <ele>56</ele>
        <time>2023-12-19T13:38:12Z</time>
      </trkpt>
      <trkpt lat="43.45865" lon="3.45943">
        <ele>55.599998474121</ele>
        <time>2023-12-19T13:38:17Z</time>
      </trkpt>
      <trkpt lat="43.45864" lon="3.45942">
        <ele>55.599998474121</ele>
        <time>2023-12-19T13:38:18Z</time>
      </trkpt>
      <trkpt lat="43.45862" lon="3.45941">
        <ele>55.599998474121</ele>
        <time>2023-12-19T13:38:19Z</time>
      </trkpt>
      <trkpt lat="43.4586" lon="3.45938">
        <ele>55.400001525879</ele>
        <time>2023-12-19T13:38:20Z</time>
      </trkpt>
      <trkpt lat="43.45858" lon="3.45935">
        <ele>54.799999237061</ele>
        <time>2023-12-19T13:38:21Z</time>
      </trkpt>
      <trkpt lat="43.45857" lon="3.45932">
        <ele>54.799999237061</ele>
        <time>2023-12-19T13:38:22Z</time>
      </trkpt>
      <trkpt lat="43.45855" lon="3.4593">
        <ele>54.799999237061</ele>
        <time>2023-12-19T13:38:23Z</time>
      </trkpt>
      <trkpt lat="43.45853" lon="3.45929">
        <ele>54.799999237061</ele>
        <time>2023-12-19T13:38:24Z</time>
      </trkpt>
      <trkpt lat="43.45851" lon="3.45928">
        <ele>54.799999237061</ele>
        <time>2023-12-19T13:38:25Z</time>
      </trkpt>
      <trkpt lat="43.4585" lon="3.45926">
        <ele>55</ele>
        <time>2023-12-19T13:38:26Z</time>
      </trkpt>
      <trkpt lat="43.45849" lon="3.45924">
        <ele>55.599998474121</ele>
        <time>2023-12-19T13:38:27Z</time>
      </trkpt>
      <trkpt lat="43.45848" lon="3.45921">
        <ele>56</ele>
        <time>2023-12-19T13:38:28Z</time>
      </trkpt>
      <trkpt lat="43.45847" lon="3.45919">
        <ele>56.400001525879</ele>
        <time>2023-12-19T13:38:29Z</time>
      </trkpt>
      <trkpt lat="43.45845" lon="3.45917">
        <ele>56.599998474121</ele>
        <time>2023-12-19T13:38:30Z</time>
      </trkpt>
      <trkpt lat="43.45843" lon="3.45916">
        <ele>56.799999237061</ele>
        <time>2023-12-19T13:38:31Z</time>
      </trkpt>
      <trkpt lat="43.45841" lon="3.45915">
        <ele>56.799999237061</ele>
        <time>2023-12-19T13:38:32Z</time>
      </trkpt>
      <trkpt lat="43.45839" lon="3.45915">
        <ele>57</ele>
        <time>2023-12-19T13:38:33Z</time>
      </trkpt>
      <trkpt lat="43.45838" lon="3.45913">
        <ele>57</ele>
        <time>2023-12-19T13:38:34Z</time>
      </trkpt>
      <trkpt lat="43.45837" lon="3.4591">
        <ele>57</ele>
        <time>2023-12-19T13:38:35Z</time>
      </trkpt>
      <trkpt lat="43.45835" lon="3.45908">
        <ele>57</ele>
        <time>2023-12-19T13:38:36Z</time>
      </trkpt>
      <trkpt lat="43.45833" lon="3.45907">
        <ele>57.200000762939</ele>
        <time>2023-12-19T13:38:37Z</time>
      </trkpt>
      <trkpt lat="43.45832" lon="3.45905">
        <ele>57.400001525879</ele>
        <time>2023-12-19T13:38:38Z</time>
      </trkpt>
      <trkpt lat="43.45831" lon="3.45903">
        <ele>57.400001525879</ele>
        <time>2023-12-19T13:38:39Z</time>
      </trkpt>
      <trkpt lat="43.45831" lon="3.45902">
        <ele>57.599998474121</ele>
        <time>2023-12-19T13:38:40Z</time>
      </trkpt>
      <trkpt lat="43.45831" lon="3.45899">
        <ele>57.599998474121</ele>
        <time>2023-12-19T13:38:41Z</time>
      </trkpt>
      <trkpt lat="43.45831" lon="3.45896">
        <ele>57.799999237061</ele>
        <time>2023-12-19T13:38:42Z</time>
      </trkpt>
      <trkpt lat="43.4583" lon="3.45893">
        <ele>57.799999237061</ele>
        <time>2023-12-19T13:38:43Z</time>
      </trkpt>
      <trkpt lat="43.4583" lon="3.45892">
        <ele>57.799999237061</ele>
        <time>2023-12-19T13:38:44Z</time>
      </trkpt>
      <trkpt lat="43.4583" lon="3.45891">
        <ele>57.799999237061</ele>
        <time>2023-12-19T13:38:45Z</time>
      </trkpt>
      <trkpt lat="43.4583" lon="3.45891">
        <ele>58</ele>
        <time>2023-12-19T13:38:46Z</time>
      </trkpt>
      <trkpt lat="43.45831" lon="3.45885">
        <ele>58</ele>
        <time>2023-12-19T13:39:02Z</time>
      </trkpt>
      <trkpt lat="43.45831" lon="3.45882">
        <ele>58</ele>
        <time>2023-12-19T13:39:03Z</time>
      </trkpt>
      <trkpt lat="43.45832" lon="3.45878">
        <ele>57.799999237061</ele>
        <time>2023-12-19T13:39:04Z</time>
      </trkpt>
      <trkpt lat="43.45833" lon="3.45875">
        <ele>57.799999237061</ele>
        <time>2023-12-19T13:39:05Z</time>
      </trkpt>
      <trkpt lat="43.45833" lon="3.45871">
        <ele>57.599998474121</ele>
        <time>2023-12-19T13:39:06Z</time>
      </trkpt>
      <trkpt lat="43.45833" lon="3.45868">
        <ele>57.400001525879</ele>
        <time>2023-12-19T13:39:07Z</time>
      </trkpt>
      <trkpt lat="43.45834" lon="3.45865">
        <ele>57.400001525879</ele>
        <time>2023-12-19T13:39:08Z</time>
      </trkpt>
      <trkpt lat="43.45833" lon="3.45862">
        <ele>57.400001525879</ele>
        <time>2023-12-19T13:39:09Z</time>
      </trkpt>
      <trkpt lat="43.45834" lon="3.45859">
        <ele>57.400001525879</ele>
        <time>2023-12-19T13:39:10Z</time>
      </trkpt>
      <trkpt lat="43.45835" lon="3.45855">
        <ele>57.400001525879</ele>
        <time>2023-12-19T13:39:11Z</time>
      </trkpt>
      <trkpt lat="43.45835" lon="3.45851">
        <ele>57.400001525879</ele>
        <time>2023-12-19T13:39:12Z</time>
      </trkpt>
      <trkpt lat="43.45836" lon="3.45847">
        <ele>57.599998474121</ele>
        <time>2023-12-19T13:39:13Z</time>
      </trkpt>
      <trkpt lat="43.45837" lon="3.45844">
        <ele>58</ele>
        <time>2023-12-19T13:39:14Z</time>
      </trkpt>
      <trkpt lat="43.45837" lon="3.4584">
        <ele>58.400001525879</ele>
        <time>2023-12-19T13:39:15Z</time>
      </trkpt>
      <trkpt lat="43.45837" lon="3.45837">
        <ele>58.799999237061</ele>
        <time>2023-12-19T13:39:16Z</time>
      </trkpt>
      <trkpt lat="43.45838" lon="3.45833">
        <ele>59.200000762939</ele>
        <time>2023-12-19T13:39:17Z</time>
      </trkpt>
      <trkpt lat="43.45839" lon="3.4583">
        <ele>59.799999237061</ele>
        <time>2023-12-19T13:39:18Z</time>
      </trkpt>
      <trkpt lat="43.4584" lon="3.45826">
        <ele>60.200000762939</ele>
        <time>2023-12-19T13:39:19Z</time>
      </trkpt>
      <trkpt lat="43.45841" lon="3.45822">
        <ele>60.400001525879</ele>
        <time>2023-12-19T13:39:20Z</time>
      </trkpt>
      <trkpt lat="43.45841" lon="3.45818">
        <ele>60.599998474121</ele>
        <time>2023-12-19T13:39:21Z</time>
      </trkpt>
      <trkpt lat="43.45842" lon="3.45815">
        <ele>60.799999237061</ele>
        <time>2023-12-19T13:39:22Z</time>
      </trkpt>
      <trkpt lat="43.45842" lon="3.45812">
        <ele>61</ele>
        <time>2023-12-19T13:39:23Z</time>
      </trkpt>
      <trkpt lat="43.45842" lon="3.45807">
        <ele>61.200000762939</ele>
        <time>2023-12-19T13:39:24Z</time>
      </trkpt>
      <trkpt lat="43.45843" lon="3.45803">
        <ele>61.400001525879</ele>
        <time>2023-12-19T13:39:25Z</time>
      </trkpt>
      <trkpt lat="43.45843" lon="3.45799">
        <ele>61.599998474121</ele>
        <time>2023-12-19T13:39:26Z</time>
      </trkpt>
      <trkpt lat="43.45843" lon="3.45796">
        <ele>61.599998474121</ele>
        <time>2023-12-19T13:39:27Z</time>
      </trkpt>
      <trkpt lat="43.45844" lon="3.45793">
        <ele>61.799999237061</ele>
        <time>2023-12-19T13:39:28Z</time>
      </trkpt>
      <trkpt lat="43.45844" lon="3.45789">
        <ele>62</ele>
        <time>2023-12-19T13:39:29Z</time>
      </trkpt>
      <trkpt lat="43.45843" lon="3.45787">
        <ele>62</ele>
        <time>2023-12-19T13:39:30Z</time>
      </trkpt>
      <trkpt lat="43.45843" lon="3.45784">
        <ele>62.400001525879</ele>
        <time>2023-12-19T13:39:31Z</time>
      </trkpt>
      <trkpt lat="43.45844" lon="3.45781">
        <ele>62.400001525879</ele>
        <time>2023-12-19T13:39:32Z</time>
      </trkpt>
      <trkpt lat="43.45844" lon="3.45778">
        <ele>62.400001525879</ele>
        <time>2023-12-19T13:39:33Z</time>
      </trkpt>
      <trkpt lat="43.45844" lon="3.45776">
        <ele>62.599998474121</ele>
        <time>2023-12-19T13:39:34Z</time>
      </trkpt>
      <trkpt lat="43.45843" lon="3.45772">
        <ele>62.599998474121</ele>
        <time>2023-12-19T13:39:35Z</time>
      </trkpt>
      <trkpt lat="43.45843" lon="3.45768">
        <ele>62.799999237061</ele>
        <time>2023-12-19T13:39:36Z</time>
      </trkpt>
      <trkpt lat="43.45843" lon="3.45765">
        <ele>63</ele>
        <time>2023-12-19T13:39:37Z</time>
      </trkpt>
      <trkpt lat="43.45843" lon="3.45761">
        <ele>63.200000762939</ele>
        <time>2023-12-19T13:39:38Z</time>
      </trkpt>
      <trkpt lat="43.45844" lon="3.45758">
        <ele>63.400001525879</ele>
        <time>2023-12-19T13:39:39Z</time>
      </trkpt>
      <trkpt lat="43.45845" lon="3.45754">
        <ele>63.799999237061</ele>
        <time>2023-12-19T13:39:40Z</time>
      </trkpt>
      <trkpt lat="43.45845" lon="3.45751">
        <ele>64.199996948242</ele>
        <time>2023-12-19T13:39:41Z</time>
      </trkpt>
      <trkpt lat="43.45846" lon="3.45748">
        <ele>64.800003051758</ele>
        <time>2023-12-19T13:39:42Z</time>
      </trkpt>
      <trkpt lat="43.45847" lon="3.45745">
        <ele>65.400001525879</ele>
        <time>2023-12-19T13:39:43Z</time>
      </trkpt>
      <trkpt lat="43.45847" lon="3.45742">
        <ele>66.199996948242</ele>
        <time>2023-12-19T13:39:44Z</time>
      </trkpt>
      <trkpt lat="43.45848" lon="3.4574">
        <ele>66.800003051758</ele>
        <time>2023-12-19T13:39:45Z</time>
      </trkpt>
      <trkpt lat="43.45849" lon="3.45738">
        <ele>67.199996948242</ele>
        <time>2023-12-19T13:39:46Z</time>
      </trkpt>
      <trkpt lat="43.45849" lon="3.45735">
        <ele>67.599998474121</ele>
        <time>2023-12-19T13:39:47Z</time>
      </trkpt>
      <trkpt lat="43.4585" lon="3.45733">
        <ele>67.800003051758</ele>
        <time>2023-12-19T13:39:48Z</time>
      </trkpt>
      <trkpt lat="43.45851" lon="3.4573">
        <ele>68</ele>
        <time>2023-12-19T13:39:49Z</time>
      </trkpt>
      <trkpt lat="43.45851" lon="3.45727">
        <ele>68</ele>
        <time>2023-12-19T13:39:50Z</time>
      </trkpt>
      <trkpt lat="43.45852" lon="3.45724">
        <ele>68.199996948242</ele>
        <time>2023-12-19T13:39:51Z</time>
      </trkpt>
      <trkpt lat="43.45852" lon="3.45722">
        <ele>68.400001525879</ele>
        <time>2023-12-19T13:39:52Z</time>
      </trkpt>
      <trkpt lat="43.45853" lon="3.4572">
        <ele>68.599998474121</ele>
        <time>2023-12-19T13:39:53Z</time>
      </trkpt>
      <trkpt lat="43.45853" lon="3.45718">
        <ele>68.599998474121</ele>
        <time>2023-12-19T13:39:54Z</time>
      </trkpt>
      <trkpt lat="43.45854" lon="3.45715">
        <ele>68.800003051758</ele>
        <time>2023-12-19T13:39:55Z</time>
      </trkpt>
      <trkpt lat="43.45854" lon="3.45712">
        <ele>69</ele>
        <time>2023-12-19T13:39:56Z</time>
      </trkpt>
      <trkpt lat="43.45855" lon="3.4571">
        <ele>69.199996948242</ele>
        <time>2023-12-19T13:39:57Z</time>
      </trkpt>
      <trkpt lat="43.45856" lon="3.45708">
        <ele>69.199996948242</ele>
        <time>2023-12-19T13:39:58Z</time>
      </trkpt>
      <trkpt lat="43.45857" lon="3.45706">
        <ele>69.400001525879</ele>
        <time>2023-12-19T13:39:59Z</time>
      </trkpt>
      <trkpt lat="43.45859" lon="3.45704">
        <ele>69.599998474121</ele>
        <time>2023-12-19T13:40:00Z</time>
      </trkpt>
      <trkpt lat="43.4586" lon="3.45702">
        <ele>69.599998474121</ele>
        <time>2023-12-19T13:40:01Z</time>
      </trkpt>
      <trkpt lat="43.45861" lon="3.457">
        <ele>69.800003051758</ele>
        <time>2023-12-19T13:40:02Z</time>
      </trkpt>
      <trkpt lat="43.45862" lon="3.45698">
        <ele>69.800003051758</ele>
        <time>2023-12-19T13:40:03Z</time>
      </trkpt>
      <trkpt lat="43.45863" lon="3.45696">
        <ele>70</ele>
        <time>2023-12-19T13:40:04Z</time>
      </trkpt>
      <trkpt lat="43.45866" lon="3.45694">
        <ele>70</ele>
        <time>2023-12-19T13:40:05Z</time>
      </trkpt>
      <trkpt lat="43.45867" lon="3.45692">
        <ele>70</ele>
        <time>2023-12-19T13:40:06Z</time>
      </trkpt>
      <trkpt lat="43.45869" lon="3.45692">
        <ele>70</ele>
        <time>2023-12-19T13:40:07Z</time>
      </trkpt>
      <trkpt lat="43.4587" lon="3.45689">
        <ele>70</ele>
        <time>2023-12-19T13:40:08Z</time>
      </trkpt>
      <trkpt lat="43.45872" lon="3.45687">
        <ele>69.800003051758</ele>
        <time>2023-12-19T13:40:09Z</time>
      </trkpt>
      <trkpt lat="43.45874" lon="3.45686">
        <ele>69.800003051758</ele>
        <time>2023-12-19T13:40:10Z</time>
      </trkpt>
      <trkpt lat="43.45875" lon="3.45685">
        <ele>69.599998474121</ele>
        <time>2023-12-19T13:40:11Z</time>
      </trkpt>
      <trkpt lat="43.45877" lon="3.45685">
        <ele>69.599998474121</ele>
        <time>2023-12-19T13:40:12Z</time>
      </trkpt>
      <trkpt lat="43.45878" lon="3.45684">
        <ele>69.400001525879</ele>
        <time>2023-12-19T13:40:13Z</time>
      </trkpt>
      <trkpt lat="43.45879" lon="3.45684">
        <ele>69.199996948242</ele>
        <time>2023-12-19T13:40:14Z</time>
      </trkpt>
      <trkpt lat="43.45879" lon="3.45684">
        <ele>69</ele>
        <time>2023-12-19T13:40:15Z</time>
      </trkpt>
      <trkpt lat="43.45879" lon="3.45684">
        <ele>68.800003051758</ele>
        <time>2023-12-19T13:40:16Z</time>
      </trkpt>
      <trkpt lat="43.45883" lon="3.45681">
        <ele>68.199996948242</ele>
        <time>2023-12-19T13:40:35Z</time>
      </trkpt>
      <trkpt lat="43.45886" lon="3.4568">
        <ele>68.199996948242</ele>
        <time>2023-12-19T13:40:36Z</time>
      </trkpt>
      <trkpt lat="43.45889" lon="3.45678">
        <ele>68</ele>
        <time>2023-12-19T13:40:37Z</time>
      </trkpt>
      <trkpt lat="43.45893" lon="3.45676">
        <ele>68</ele>
        <time>2023-12-19T13:40:38Z</time>
      </trkpt>
      <trkpt lat="43.45896" lon="3.45673">
        <ele>67.800003051758</ele>
        <time>2023-12-19T13:40:39Z</time>
      </trkpt>
      <trkpt lat="43.45898" lon="3.45669">
        <ele>67.599998474121</ele>
        <time>2023-12-19T13:40:40Z</time>
      </trkpt>
      <trkpt lat="43.45901" lon="3.45665">
        <ele>67.400001525879</ele>
        <time>2023-12-19T13:40:41Z</time>
      </trkpt>
      <trkpt lat="43.45903" lon="3.45661">
        <ele>67.199996948242</ele>
        <time>2023-12-19T13:40:42Z</time>
      </trkpt>
      <trkpt lat="43.45906" lon="3.45655">
        <ele>66.800003051758</ele>
        <time>2023-12-19T13:40:43Z</time>
      </trkpt>
      <trkpt lat="43.45909" lon="3.45651">
        <ele>66.400001525879</ele>
        <time>2023-12-19T13:40:44Z</time>
      </trkpt>
      <trkpt lat="43.45912" lon="3.45648">
        <ele>66.199996948242</ele>
        <time>2023-12-19T13:40:45Z</time>
      </trkpt>
      <trkpt lat="43.45915" lon="3.45644">
        <ele>65.800003051758</ele>
        <time>2023-12-19T13:40:46Z</time>
      </trkpt>
      <trkpt lat="43.45918" lon="3.45641">
        <ele>65.599998474121</ele>
        <time>2023-12-19T13:40:47Z</time>
      </trkpt>
      <trkpt lat="43.45922" lon="3.45637">
        <ele>65.199996948242</ele>
        <time>2023-12-19T13:40:48Z</time>
      </trkpt>
      <trkpt lat="43.45925" lon="3.45632">
        <ele>65</ele>
        <time>2023-12-19T13:40:49Z</time>
      </trkpt>
      <trkpt lat="43.45929" lon="3.45626">
        <ele>64.599998474121</ele>
        <time>2023-12-19T13:40:50Z</time>
      </trkpt>
      <trkpt lat="43.45932" lon="3.45622">
        <ele>64.199996948242</ele>
        <time>2023-12-19T13:40:51Z</time>
      </trkpt>
      <trkpt lat="43.45935" lon="3.45618">
        <ele>63.799999237061</ele>
        <time>2023-12-19T13:40:52Z</time>
      </trkpt>
      <trkpt lat="43.45937" lon="3.45616">
        <ele>63.400001525879</ele>
        <time>2023-12-19T13:40:53Z</time>
      </trkpt>
      <trkpt lat="43.45939" lon="3.45613">
        <ele>62.799999237061</ele>
        <time>2023-12-19T13:40:54Z</time>
      </trkpt>
      <trkpt lat="43.4594" lon="3.4561">
        <ele>62.200000762939</ele>
        <time>2023-12-19T13:40:55Z</time>
      </trkpt>
      <trkpt lat="43.45942" lon="3.45605">
        <ele>61.799999237061</ele>
        <time>2023-12-19T13:40:56Z</time>
      </trkpt>
      <trkpt lat="43.45945" lon="3.456">
        <ele>61.400001525879</ele>
        <time>2023-12-19T13:40:57Z</time>
      </trkpt>
      <trkpt lat="43.45948" lon="3.45596">
        <ele>61.200000762939</ele>
        <time>2023-12-19T13:40:58Z</time>
      </trkpt>
      <trkpt lat="43.45951" lon="3.45591">
        <ele>60.799999237061</ele>
        <time>2023-12-19T13:40:59Z</time>
      </trkpt>
      <trkpt lat="43.45954" lon="3.45586">
        <ele>60.400001525879</ele>
        <time>2023-12-19T13:41:00Z</time>
      </trkpt>
      <trkpt lat="43.45957" lon="3.4558">
        <ele>60</ele>
        <time>2023-12-19T13:41:01Z</time>
      </trkpt>
      <trkpt lat="43.4596" lon="3.45575">
        <ele>59.400001525879</ele>
        <time>2023-12-19T13:41:02Z</time>
      </trkpt>
      <trkpt lat="43.45963" lon="3.45572">
        <ele>58.799999237061</ele>
        <time>2023-12-19T13:41:03Z</time>
      </trkpt>
      <trkpt lat="43.45967" lon="3.45569">
        <ele>58.400001525879</ele>
        <time>2023-12-19T13:41:04Z</time>
      </trkpt>
      <trkpt lat="43.4597" lon="3.45568">
        <ele>58</ele>
        <time>2023-12-19T13:41:05Z</time>
      </trkpt>
      <trkpt lat="43.45972" lon="3.45568">
        <ele>57.400001525879</ele>
        <time>2023-12-19T13:41:06Z</time>
      </trkpt>
      <trkpt lat="43.45974" lon="3.45567">
        <ele>57</ele>
        <time>2023-12-19T13:41:07Z</time>
      </trkpt>
      <trkpt lat="43.45976" lon="3.45567">
        <ele>56.799999237061</ele>
        <time>2023-12-19T13:41:08Z</time>
      </trkpt>
      <trkpt lat="43.45977" lon="3.45567">
        <ele>56.799999237061</ele>
        <time>2023-12-19T13:41:09Z</time>
      </trkpt>
      <trkpt lat="43.45979" lon="3.45566">
        <ele>56.599998474121</ele>
        <time>2023-12-19T13:41:10Z</time>
      </trkpt>
      <trkpt lat="43.45981" lon="3.45564">
        <ele>56.599998474121</ele>
        <time>2023-12-19T13:41:11Z</time>
      </trkpt>
      <trkpt lat="43.45982" lon="3.45562">
        <ele>56.599998474121</ele>
        <time>2023-12-19T13:41:12Z</time>
      </trkpt>
      <trkpt lat="43.45981" lon="3.4556">
        <ele>56.400001525879</ele>
        <time>2023-12-19T13:41:13Z</time>
      </trkpt>
      <trkpt lat="43.45981" lon="3.45559">
        <ele>56.400001525879</ele>
        <time>2023-12-19T13:41:14Z</time>
      </trkpt>
      <trkpt lat="43.4598" lon="3.45558">
        <ele>56.400001525879</ele>
        <time>2023-12-19T13:41:15Z</time>
      </trkpt>
      <trkpt lat="43.4598" lon="3.45556">
        <ele>56.200000762939</ele>
        <time>2023-12-19T13:41:16Z</time>
      </trkpt>
      <trkpt lat="43.45979" lon="3.45555">
        <ele>55.799999237061</ele>
        <time>2023-12-19T13:41:17Z</time>
      </trkpt>
      <trkpt lat="43.45978" lon="3.45554">
        <ele>55.599998474121</ele>
        <time>2023-12-19T13:41:18Z</time>
      </trkpt>
      <trkpt lat="43.45977" lon="3.45552">
        <ele>55.200000762939</ele>
        <time>2023-12-19T13:41:19Z</time>
      </trkpt>
      <trkpt lat="43.45976" lon="3.45551">
        <ele>55</ele>
        <time>2023-12-19T13:41:20Z</time>
      </trkpt>
      <trkpt lat="43.45974" lon="3.4555">
        <ele>54.799999237061</ele>
        <time>2023-12-19T13:41:21Z</time>
      </trkpt>
      <trkpt lat="43.45973" lon="3.45548">
        <ele>54.599998474121</ele>
        <time>2023-12-19T13:41:22Z</time>
      </trkpt>
      <trkpt lat="43.45973" lon="3.45546">
        <ele>54.400001525879</ele>
        <time>2023-12-19T13:41:23Z</time>
      </trkpt>
      <trkpt lat="43.45974" lon="3.45544">
        <ele>54.200000762939</ele>
        <time>2023-12-19T13:41:24Z</time>
      </trkpt>
      <trkpt lat="43.45976" lon="3.45545">
        <ele>54</ele>
        <time>2023-12-19T13:41:25Z</time>
      </trkpt>
      <trkpt lat="43.45979" lon="3.45546">
        <ele>53.799999237061</ele>
        <time>2023-12-19T13:41:26Z</time>
      </trkpt>
      <trkpt lat="43.45982" lon="3.45546">
        <ele>53.599998474121</ele>
        <time>2023-12-19T13:41:27Z</time>
      </trkpt>
      <trkpt lat="43.45984" lon="3.45545">
        <ele>53.599998474121</ele>
        <time>2023-12-19T13:41:28Z</time>
      </trkpt>
      <trkpt lat="43.45986" lon="3.45542">
        <ele>53.400001525879</ele>
        <time>2023-12-19T13:41:29Z</time>
      </trkpt>
      <trkpt lat="43.45988" lon="3.45539">
        <ele>53.400001525879</ele>
        <time>2023-12-19T13:41:30Z</time>
      </trkpt>
      <trkpt lat="43.4599" lon="3.45534">
        <ele>53.200000762939</ele>
        <time>2023-12-19T13:41:31Z</time>
      </trkpt>
      <trkpt lat="43.45992" lon="3.4553">
        <ele>53</ele>
        <time>2023-12-19T13:41:32Z</time>
      </trkpt>
      <trkpt lat="43.45994" lon="3.45524">
        <ele>52.799999237061</ele>
        <time>2023-12-19T13:41:33Z</time>
      </trkpt>
      <trkpt lat="43.45997" lon="3.4552">
        <ele>52.400001525879</ele>
        <time>2023-12-19T13:41:34Z</time>
      </trkpt>
      <trkpt lat="43.46" lon="3.45518">
        <ele>52.200000762939</ele>
        <time>2023-12-19T13:41:35Z</time>
      </trkpt>
      <trkpt lat="43.46003" lon="3.45518">
        <ele>52</ele>
        <time>2023-12-19T13:41:36Z</time>
      </trkpt>
      <trkpt lat="43.46005" lon="3.4552">
        <ele>51.599998474121</ele>
        <time>2023-12-19T13:41:37Z</time>
      </trkpt>
      <trkpt lat="43.46007" lon="3.45522">
        <ele>51.400001525879</ele>
        <time>2023-12-19T13:41:38Z</time>
      </trkpt>
      <trkpt lat="43.46009" lon="3.45525">
        <ele>51.400001525879</ele>
        <time>2023-12-19T13:41:39Z</time>
      </trkpt>
      <trkpt lat="43.46011" lon="3.45526">
        <ele>51.400001525879</ele>
        <time>2023-12-19T13:41:40Z</time>
      </trkpt>
      <trkpt lat="43.46013" lon="3.45527">
        <ele>51.200000762939</ele>
        <time>2023-12-19T13:41:41Z</time>
      </trkpt>
      <trkpt lat="43.46015" lon="3.45529">
        <ele>51.200000762939</ele>
        <time>2023-12-19T13:41:42Z</time>
      </trkpt>
      <trkpt lat="43.46018" lon="3.4553">
        <ele>51.200000762939</ele>
        <time>2023-12-19T13:41:43Z</time>
      </trkpt>
      <trkpt lat="43.46021" lon="3.45531">
        <ele>51.200000762939</ele>
        <time>2023-12-19T13:41:44Z</time>
      </trkpt>
      <trkpt lat="43.46024" lon="3.45532">
        <ele>51</ele>
        <time>2023-12-19T13:41:45Z</time>
      </trkpt>
      <trkpt lat="43.46027" lon="3.45533">
        <ele>51</ele>
        <time>2023-12-19T13:41:46Z</time>
      </trkpt>
      <trkpt lat="43.4603" lon="3.45535">
        <ele>50.799999237061</ele>
        <time>2023-12-19T13:41:47Z</time>
      </trkpt>
      <trkpt lat="43.46033" lon="3.45537">
        <ele>50.799999237061</ele>
        <time>2023-12-19T13:41:48Z</time>
      </trkpt>
      <trkpt lat="43.46036" lon="3.45538">
        <ele>50.599998474121</ele>
        <time>2023-12-19T13:41:49Z</time>
      </trkpt>
      <trkpt lat="43.4604" lon="3.45538">
        <ele>50.400001525879</ele>
        <time>2023-12-19T13:41:50Z</time>
      </trkpt>
      <trkpt lat="43.46044" lon="3.45538">
        <ele>50.400001525879</ele>
        <time>2023-12-19T13:41:51Z</time>
      </trkpt>
      <trkpt lat="43.46047" lon="3.45537">
        <ele>50.400001525879</ele>
        <time>2023-12-19T13:41:52Z</time>
      </trkpt>
      <trkpt lat="43.46051" lon="3.45536">
        <ele>50.400001525879</ele>
        <time>2023-12-19T13:41:53Z</time>
      </trkpt>
      <trkpt lat="43.46054" lon="3.45534">
        <ele>50.200000762939</ele>
        <time>2023-12-19T13:41:54Z</time>
      </trkpt>
      <trkpt lat="43.46057" lon="3.45532">
        <ele>50</ele>
        <time>2023-12-19T13:41:55Z</time>
      </trkpt>
      <trkpt lat="43.4606" lon="3.45529">
        <ele>49.799999237061</ele>
        <time>2023-12-19T13:41:56Z</time>
      </trkpt>
      <trkpt lat="43.46062" lon="3.45526">
        <ele>49.799999237061</ele>
        <time>2023-12-19T13:41:57Z</time>
      </trkpt>
      <trkpt lat="43.46065" lon="3.45521">
        <ele>49.599998474121</ele>
        <time>2023-12-19T13:41:58Z</time>
      </trkpt>
      <trkpt lat="43.46067" lon="3.45516">
        <ele>49.400001525879</ele>
        <time>2023-12-19T13:41:59Z</time>
      </trkpt>
      <trkpt lat="43.46068" lon="3.45512">
        <ele>49.400001525879</ele>
        <time>2023-12-19T13:42:00Z</time>
      </trkpt>
      <trkpt lat="43.46069" lon="3.45508">
        <ele>49</ele>
        <time>2023-12-19T13:42:01Z</time>
      </trkpt>
      <trkpt lat="43.46072" lon="3.45506">
        <ele>48.799999237061</ele>
        <time>2023-12-19T13:42:02Z</time>
      </trkpt>
      <trkpt lat="43.46075" lon="3.45505">
        <ele>48.400001525879</ele>
        <time>2023-12-19T13:42:03Z</time>
      </trkpt>
      <trkpt lat="43.46078" lon="3.45504">
        <ele>48</ele>
        <time>2023-12-19T13:42:04Z</time>
      </trkpt>
      <trkpt lat="43.46081" lon="3.45504">
        <ele>47.799999237061</ele>
        <time>2023-12-19T13:42:05Z</time>
      </trkpt>
      <trkpt lat="43.46084" lon="3.45505">
        <ele>47.599998474121</ele>
        <time>2023-12-19T13:42:06Z</time>
      </trkpt>
      <trkpt lat="43.46086" lon="3.45507">
        <ele>47.400001525879</ele>
        <time>2023-12-19T13:42:07Z</time>
      </trkpt>
      <trkpt lat="43.46089" lon="3.45508">
        <ele>47.400001525879</ele>
        <time>2023-12-19T13:42:08Z</time>
      </trkpt>
      <trkpt lat="43.46091" lon="3.45509">
        <ele>47.400001525879</ele>
        <time>2023-12-19T13:42:09Z</time>
      </trkpt>
      <trkpt lat="43.46094" lon="3.45509">
        <ele>47.400001525879</ele>
        <time>2023-12-19T13:42:10Z</time>
      </trkpt>
      <trkpt lat="43.46096" lon="3.45509">
        <ele>47.400001525879</ele>
        <time>2023-12-19T13:42:11Z</time>
      </trkpt>
      <trkpt lat="43.46099" lon="3.4551">
        <ele>47.400001525879</ele>
        <time>2023-12-19T13:42:12Z</time>
      </trkpt>
      <trkpt lat="43.46101" lon="3.45511">
        <ele>47.599998474121</ele>
        <time>2023-12-19T13:42:13Z</time>
      </trkpt>
      <trkpt lat="43.46104" lon="3.4551">
        <ele>47.799999237061</ele>
        <time>2023-12-19T13:42:14Z</time>
      </trkpt>
      <trkpt lat="43.46107" lon="3.45511">
        <ele>48</ele>
        <time>2023-12-19T13:42:15Z</time>
      </trkpt>
      <trkpt lat="43.46111" lon="3.45511">
        <ele>48.200000762939</ele>
        <time>2023-12-19T13:42:16Z</time>
      </trkpt>
      <trkpt lat="43.46115" lon="3.45512">
        <ele>48.599998474121</ele>
        <time>2023-12-19T13:42:17Z</time>
      </trkpt>
      <trkpt lat="43.46118" lon="3.45512">
        <ele>48.599998474121</ele>
        <time>2023-12-19T13:42:18Z</time>
      </trkpt>
      <trkpt lat="43.46121" lon="3.45514">
        <ele>48.799999237061</ele>
        <time>2023-12-19T13:42:19Z</time>
      </trkpt>
      <trkpt lat="43.46124" lon="3.45515">
        <ele>48.799999237061</ele>
        <time>2023-12-19T13:42:20Z</time>
      </trkpt>
      <trkpt lat="43.46126" lon="3.45516">
        <ele>48.799999237061</ele>
        <time>2023-12-19T13:42:21Z</time>
      </trkpt>
      <trkpt lat="43.46129" lon="3.45516">
        <ele>48.799999237061</ele>
        <time>2023-12-19T13:42:22Z</time>
      </trkpt>
      <trkpt lat="43.46131" lon="3.45515">
        <ele>48.799999237061</ele>
        <time>2023-12-19T13:42:23Z</time>
      </trkpt>
      <trkpt lat="43.46134" lon="3.45515">
        <ele>48.799999237061</ele>
        <time>2023-12-19T13:42:24Z</time>
      </trkpt>
      <trkpt lat="43.46136" lon="3.45515">
        <ele>48.599998474121</ele>
        <time>2023-12-19T13:42:25Z</time>
      </trkpt>
      <trkpt lat="43.46137" lon="3.45515">
        <ele>48.599998474121</ele>
        <time>2023-12-19T13:42:26Z</time>
      </trkpt>
      <trkpt lat="43.46138" lon="3.45514">
        <ele>48.599998474121</ele>
        <time>2023-12-19T13:42:27Z</time>
      </trkpt>
      <trkpt lat="43.46139" lon="3.45513">
        <ele>48.400001525879</ele>
        <time>2023-12-19T13:42:28Z</time>
      </trkpt>
      <trkpt lat="43.46139" lon="3.45513">
        <ele>48.200000762939</ele>
        <time>2023-12-19T13:42:29Z</time>
      </trkpt>
      <trkpt lat="43.46139" lon="3.45512">
        <ele>48.200000762939</ele>
        <time>2023-12-19T13:42:30Z</time>
      </trkpt>
      <trkpt lat="43.46141" lon="3.45508">
        <ele>48.200000762939</ele>
        <time>2023-12-19T13:42:33Z</time>
      </trkpt>
      <trkpt lat="43.46142" lon="3.45506">
        <ele>48.200000762939</ele>
        <time>2023-12-19T13:42:34Z</time>
      </trkpt>
      <trkpt lat="43.46143" lon="3.45504">
        <ele>48</ele>
        <time>2023-12-19T13:42:35Z</time>
      </trkpt>
      <trkpt lat="43.46145" lon="3.45503">
        <ele>48</ele>
        <time>2023-12-19T13:42:36Z</time>
      </trkpt>
      <trkpt lat="43.46147" lon="3.45503">
        <ele>47.799999237061</ele>
        <time>2023-12-19T13:42:37Z</time>
      </trkpt>
      <trkpt lat="43.46149" lon="3.45503">
        <ele>47.799999237061</ele>
        <time>2023-12-19T13:42:38Z</time>
      </trkpt>
      <trkpt lat="43.4615" lon="3.45504">
        <ele>47.799999237061</ele>
        <time>2023-12-19T13:42:39Z</time>
      </trkpt>
      <trkpt lat="43.4615" lon="3.45507">
        <ele>47.599998474121</ele>
        <time>2023-12-19T13:42:40Z</time>
      </trkpt>
      <trkpt lat="43.4615" lon="3.45509">
        <ele>47.599998474121</ele>
        <time>2023-12-19T13:42:41Z</time>
      </trkpt>
      <trkpt lat="43.46149" lon="3.45511">
        <ele>47.400001525879</ele>
        <time>2023-12-19T13:42:42Z</time>
      </trkpt>
      <trkpt lat="43.46149" lon="3.45513">
        <ele>47.400001525879</ele>
        <time>2023-12-19T13:42:43Z</time>
      </trkpt>
      <trkpt lat="43.46148" lon="3.45515">
        <ele>47.400001525879</ele>
        <time>2023-12-19T13:42:44Z</time>
      </trkpt>
      <trkpt lat="43.46147" lon="3.45518">
        <ele>47.400001525879</ele>
        <time>2023-12-19T13:42:45Z</time>
      </trkpt>
      <trkpt lat="43.46146" lon="3.4552">
        <ele>47.400001525879</ele>
        <time>2023-12-19T13:42:46Z</time>
      </trkpt>
      <trkpt lat="43.46145" lon="3.45523">
        <ele>47.400001525879</ele>
        <time>2023-12-19T13:42:47Z</time>
      </trkpt>
      <trkpt lat="43.46144" lon="3.45527">
        <ele>47.400001525879</ele>
        <time>2023-12-19T13:42:48Z</time>
      </trkpt>
      <trkpt lat="43.46143" lon="3.4553">
        <ele>47.400001525879</ele>
        <time>2023-12-19T13:42:49Z</time>
      </trkpt>
      <trkpt lat="43.46142" lon="3.45533">
        <ele>47.400001525879</ele>
        <time>2023-12-19T13:42:50Z</time>
      </trkpt>
      <trkpt lat="43.4614" lon="3.45535">
        <ele>47.400001525879</ele>
        <time>2023-12-19T13:42:51Z</time>
      </trkpt>
      <trkpt lat="43.46139" lon="3.45537">
        <ele>47.400001525879</ele>
        <time>2023-12-19T13:42:52Z</time>
      </trkpt>
      <trkpt lat="43.46138" lon="3.45538">
        <ele>47.400001525879</ele>
        <time>2023-12-19T13:42:53Z</time>
      </trkpt>
      <trkpt lat="43.46138" lon="3.45539">
        <ele>47.400001525879</ele>
        <time>2023-12-19T13:42:54Z</time>
      </trkpt>
      <trkpt lat="43.46138" lon="3.45539">
        <ele>47.599998474121</ele>
        <time>2023-12-19T13:42:55Z</time>
      </trkpt>
      <trkpt lat="43.46139" lon="3.45539">
        <ele>47.599998474121</ele>
        <time>2023-12-19T13:42:56Z</time>
      </trkpt>
      <trkpt lat="43.4614" lon="3.45537">
        <ele>47.599998474121</ele>
        <time>2023-12-19T13:42:57Z</time>
      </trkpt>
      <trkpt lat="43.4614" lon="3.45536">
        <ele>47.599998474121</ele>
        <time>2023-12-19T13:42:58Z</time>
      </trkpt>
      <trkpt lat="43.46141" lon="3.45535">
        <ele>47.599998474121</ele>
        <time>2023-12-19T13:42:59Z</time>
      </trkpt>
      <trkpt lat="43.46141" lon="3.45533">
        <ele>47.599998474121</ele>
        <time>2023-12-19T13:43:00Z</time>
      </trkpt>
      <trkpt lat="43.46141" lon="3.45531">
        <ele>47.599998474121</ele>
        <time>2023-12-19T13:43:01Z</time>
      </trkpt>
      <trkpt lat="43.46142" lon="3.45529">
        <ele>47.599998474121</ele>
        <time>2023-12-19T13:43:02Z</time>
      </trkpt>
      <trkpt lat="43.46142" lon="3.4553">
        <ele>47.599998474121</ele>
        <time>2023-12-19T13:43:03Z</time>
      </trkpt>
      <trkpt lat="43.46142" lon="3.45531">
        <ele>47.599998474121</ele>
        <time>2023-12-19T13:43:04Z</time>
      </trkpt>
      <trkpt lat="43.46147" lon="3.45529">
        <ele>47.799999237061</ele>
        <time>2023-12-19T13:43:10Z</time>
      </trkpt>
      <trkpt lat="43.46148" lon="3.45531">
        <ele>47.599998474121</ele>
        <time>2023-12-19T13:43:11Z</time>
      </trkpt>
      <trkpt lat="43.46149" lon="3.45534">
        <ele>47.599998474121</ele>
        <time>2023-12-19T13:43:12Z</time>
      </trkpt>
      <trkpt lat="43.46149" lon="3.45539">
        <ele>47.599998474121</ele>
        <time>2023-12-19T13:43:13Z</time>
      </trkpt>
      <trkpt lat="43.46151" lon="3.45543">
        <ele>47.599998474121</ele>
        <time>2023-12-19T13:43:14Z</time>
      </trkpt>
      <trkpt lat="43.46152" lon="3.45547">
        <ele>47.400001525879</ele>
        <time>2023-12-19T13:43:15Z</time>
      </trkpt>
      <trkpt lat="43.46153" lon="3.45551">
        <ele>47.200000762939</ele>
        <time>2023-12-19T13:43:16Z</time>
      </trkpt>
      <trkpt lat="43.46154" lon="3.45556">
        <ele>47</ele>
        <time>2023-12-19T13:43:17Z</time>
      </trkpt>
      <trkpt lat="43.46155" lon="3.45558">
        <ele>46.599998474121</ele>
        <time>2023-12-19T13:43:18Z</time>
      </trkpt>
      <trkpt lat="43.46156" lon="3.45561">
        <ele>46.200000762939</ele>
        <time>2023-12-19T13:43:19Z</time>
      </trkpt>
      <trkpt lat="43.46157" lon="3.45564">
        <ele>45.400001525879</ele>
        <time>2023-12-19T13:43:20Z</time>
      </trkpt>
      <trkpt lat="43.46158" lon="3.45568">
        <ele>45.200000762939</ele>
        <time>2023-12-19T13:43:21Z</time>
      </trkpt>
      <trkpt lat="43.46159" lon="3.45573">
        <ele>44.799999237061</ele>
        <time>2023-12-19T13:43:22Z</time>
      </trkpt>
      <trkpt lat="43.46161" lon="3.45578">
        <ele>44.599998474121</ele>
        <time>2023-12-19T13:43:23Z</time>
      </trkpt>
      <trkpt lat="43.46162" lon="3.45583">
        <ele>44.200000762939</ele>
        <time>2023-12-19T13:43:24Z</time>
      </trkpt>
      <trkpt lat="43.46164" lon="3.45588">
        <ele>44</ele>
        <time>2023-12-19T13:43:25Z</time>
      </trkpt>
      <trkpt lat="43.46166" lon="3.45594">
        <ele>43.400001525879</ele>
        <time>2023-12-19T13:43:26Z</time>
      </trkpt>
      <trkpt lat="43.46169" lon="3.456">
        <ele>43</ele>
        <time>2023-12-19T13:43:27Z</time>
      </trkpt>
      <trkpt lat="43.46172" lon="3.45606">
        <ele>42.400001525879</ele>
        <time>2023-12-19T13:43:28Z</time>
      </trkpt>
      <trkpt lat="43.46172" lon="3.45611">
        <ele>41.799999237061</ele>
        <time>2023-12-19T13:43:29Z</time>
      </trkpt>
      <trkpt lat="43.46172" lon="3.45617">
        <ele>41.400001525879</ele>
        <time>2023-12-19T13:43:30Z</time>
      </trkpt>
      <trkpt lat="43.46171" lon="3.45622">
        <ele>40.799999237061</ele>
        <time>2023-12-19T13:43:31Z</time>
      </trkpt>
      <trkpt lat="43.4617" lon="3.45628">
        <ele>40.200000762939</ele>
        <time>2023-12-19T13:43:32Z</time>
      </trkpt>
      <trkpt lat="43.46168" lon="3.45633">
        <ele>39.799999237061</ele>
        <time>2023-12-19T13:43:33Z</time>
      </trkpt>
      <trkpt lat="43.46167" lon="3.45636">
        <ele>39.599998474121</ele>
        <time>2023-12-19T13:43:34Z</time>
      </trkpt>
      <trkpt lat="43.46164" lon="3.4564">
        <ele>39.200000762939</ele>
        <time>2023-12-19T13:43:35Z</time>
      </trkpt>
      <trkpt lat="43.46162" lon="3.45644">
        <ele>39</ele>
        <time>2023-12-19T13:43:36Z</time>
      </trkpt>
      <trkpt lat="43.4616" lon="3.45649">
        <ele>39</ele>
        <time>2023-12-19T13:43:37Z</time>
      </trkpt>
      <trkpt lat="43.46159" lon="3.45654">
        <ele>39</ele>
        <time>2023-12-19T13:43:38Z</time>
      </trkpt>
      <trkpt lat="43.46157" lon="3.45658">
        <ele>38.799999237061</ele>
        <time>2023-12-19T13:43:39Z</time>
      </trkpt>
      <trkpt lat="43.46155" lon="3.45663">
        <ele>38.599998474121</ele>
        <time>2023-12-19T13:43:40Z</time>
      </trkpt>
      <trkpt lat="43.46153" lon="3.45667">
        <ele>38.400001525879</ele>
        <time>2023-12-19T13:43:41Z</time>
      </trkpt>
      <trkpt lat="43.46151" lon="3.45671">
        <ele>38.400001525879</ele>
        <time>2023-12-19T13:43:42Z</time>
      </trkpt>
      <trkpt lat="43.46149" lon="3.45675">
        <ele>38.200000762939</ele>
        <time>2023-12-19T13:43:43Z</time>
      </trkpt>
      <trkpt lat="43.46147" lon="3.45679">
        <ele>38</ele>
        <time>2023-12-19T13:43:44Z</time>
      </trkpt>
      <trkpt lat="43.46146" lon="3.45681">
        <ele>38</ele>
        <time>2023-12-19T13:43:45Z</time>
      </trkpt>
      <trkpt lat="43.46145" lon="3.45684">
        <ele>37.799999237061</ele>
        <time>2023-12-19T13:43:46Z</time>
      </trkpt>
      <trkpt lat="43.46143" lon="3.45686">
        <ele>37.599998474121</ele>
        <time>2023-12-19T13:43:47Z</time>
      </trkpt>
      <trkpt lat="43.46141" lon="3.45689">
        <ele>37.599998474121</ele>
        <time>2023-12-19T13:43:48Z</time>
      </trkpt>
      <trkpt lat="43.46139" lon="3.45691">
        <ele>37.599998474121</ele>
        <time>2023-12-19T13:43:49Z</time>
      </trkpt>
      <trkpt lat="43.46137" lon="3.45692">
        <ele>37.599998474121</ele>
        <time>2023-12-19T13:43:50Z</time>
      </trkpt>
      <trkpt lat="43.46135" lon="3.45693">
        <ele>37.400001525879</ele>
        <time>2023-12-19T13:43:51Z</time>
      </trkpt>
      <trkpt lat="43.46134" lon="3.45695">
        <ele>37.400001525879</ele>
        <time>2023-12-19T13:43:52Z</time>
      </trkpt>
      <trkpt lat="43.46134" lon="3.45698">
        <ele>37.400001525879</ele>
        <time>2023-12-19T13:43:53Z</time>
      </trkpt>
      <trkpt lat="43.46134" lon="3.457">
        <ele>37.400001525879</ele>
        <time>2023-12-19T13:43:54Z</time>
      </trkpt>
      <trkpt lat="43.46135" lon="3.45702">
        <ele>37.400001525879</ele>
        <time>2023-12-19T13:43:55Z</time>
      </trkpt>
      <trkpt lat="43.46136" lon="3.45704">
        <ele>37.400001525879</ele>
        <time>2023-12-19T13:43:56Z</time>
      </trkpt>
      <trkpt lat="43.46137" lon="3.45707">
        <ele>37.200000762939</ele>
        <time>2023-12-19T13:43:57Z</time>
      </trkpt>
      <trkpt lat="43.46138" lon="3.45709">
        <ele>37.200000762939</ele>
        <time>2023-12-19T13:43:58Z</time>
      </trkpt>
      <trkpt lat="43.46139" lon="3.45711">
        <ele>37.200000762939</ele>
        <time>2023-12-19T13:43:59Z</time>
      </trkpt>
      <trkpt lat="43.4614" lon="3.45714">
        <ele>37.200000762939</ele>
        <time>2023-12-19T13:44:00Z</time>
      </trkpt>
      <trkpt lat="43.46141" lon="3.45716">
        <ele>37</ele>
        <time>2023-12-19T13:44:01Z</time>
      </trkpt>
      <trkpt lat="43.46143" lon="3.45718">
        <ele>37</ele>
        <time>2023-12-19T13:44:02Z</time>
      </trkpt>
      <trkpt lat="43.46144" lon="3.4572">
        <ele>36.799999237061</ele>
        <time>2023-12-19T13:44:03Z</time>
      </trkpt>
      <trkpt lat="43.46146" lon="3.45722">
        <ele>36.799999237061</ele>
        <time>2023-12-19T13:44:04Z</time>
      </trkpt>
      <trkpt lat="43.46147" lon="3.45724">
        <ele>36.799999237061</ele>
        <time>2023-12-19T13:44:05Z</time>
      </trkpt>
      <trkpt lat="43.46149" lon="3.45726">
        <ele>36.799999237061</ele>
        <time>2023-12-19T13:44:06Z</time>
      </trkpt>
      <trkpt lat="43.4615" lon="3.45729">
        <ele>36.599998474121</ele>
        <time>2023-12-19T13:44:07Z</time>
      </trkpt>
      <trkpt lat="43.46152" lon="3.45731">
        <ele>36.599998474121</ele>
        <time>2023-12-19T13:44:08Z</time>
      </trkpt>
      <trkpt lat="43.46154" lon="3.45733">
        <ele>36.599998474121</ele>
        <time>2023-12-19T13:44:09Z</time>
      </trkpt>
      <trkpt lat="43.46155" lon="3.45735">
        <ele>36.599998474121</ele>
        <time>2023-12-19T13:44:10Z</time>
      </trkpt>
      <trkpt lat="43.46157" lon="3.45737">
        <ele>36.599998474121</ele>
        <time>2023-12-19T13:44:11Z</time>
      </trkpt>
      <trkpt lat="43.46159" lon="3.45738">
        <ele>36.799999237061</ele>
        <time>2023-12-19T13:44:12Z</time>
      </trkpt>
      <trkpt lat="43.46161" lon="3.4574">
        <ele>36.799999237061</ele>
        <time>2023-12-19T13:44:13Z</time>
      </trkpt>
      <trkpt lat="43.46163" lon="3.45742">
        <ele>36.799999237061</ele>
        <time>2023-12-19T13:44:14Z</time>
      </trkpt>
      <trkpt lat="43.46166" lon="3.45744">
        <ele>36.799999237061</ele>
        <time>2023-12-19T13:44:15Z</time>
      </trkpt>
      <trkpt lat="43.46168" lon="3.45745">
        <ele>36.799999237061</ele>
        <time>2023-12-19T13:44:16Z</time>
      </trkpt>
      <trkpt lat="43.46171" lon="3.45747">
        <ele>36.799999237061</ele>
        <time>2023-12-19T13:44:17Z</time>
      </trkpt>
      <trkpt lat="43.46173" lon="3.45749">
        <ele>36.799999237061</ele>
        <time>2023-12-19T13:44:18Z</time>
      </trkpt>
      <trkpt lat="43.46175" lon="3.45752">
        <ele>36.599998474121</ele>
        <time>2023-12-19T13:44:19Z</time>
      </trkpt>
      <trkpt lat="43.46178" lon="3.45754">
        <ele>36.599998474121</ele>
        <time>2023-12-19T13:44:20Z</time>
      </trkpt>
      <trkpt lat="43.46181" lon="3.45757">
        <ele>36.599998474121</ele>
        <time>2023-12-19T13:44:21Z</time>
      </trkpt>
      <trkpt lat="43.46184" lon="3.45759">
        <ele>36.599998474121</ele>
        <time>2023-12-19T13:44:22Z</time>
      </trkpt>
      <trkpt lat="43.46187" lon="3.45761">
        <ele>36.599998474121</ele>
        <time>2023-12-19T13:44:23Z</time>
      </trkpt>
      <trkpt lat="43.4619" lon="3.45764">
        <ele>36.799999237061</ele>
        <time>2023-12-19T13:44:24Z</time>
      </trkpt>
      <trkpt lat="43.46193" lon="3.45766">
        <ele>36.799999237061</ele>
        <time>2023-12-19T13:44:25Z</time>
      </trkpt>
      <trkpt lat="43.46195" lon="3.45768">
        <ele>36.799999237061</ele>
        <time>2023-12-19T13:44:26Z</time>
      </trkpt>
      <trkpt lat="43.46197" lon="3.45772">
        <ele>36.799999237061</ele>
        <time>2023-12-19T13:44:27Z</time>
      </trkpt>
      <trkpt lat="43.462" lon="3.45774">
        <ele>36.799999237061</ele>
        <time>2023-12-19T13:44:28Z</time>
      </trkpt>
      <trkpt lat="43.46203" lon="3.45777">
        <ele>36.599998474121</ele>
        <time>2023-12-19T13:44:29Z</time>
      </trkpt>
      <trkpt lat="43.46206" lon="3.45779">
        <ele>36.599998474121</ele>
        <time>2023-12-19T13:44:30Z</time>
      </trkpt>
      <trkpt lat="43.46209" lon="3.4578">
        <ele>36.599998474121</ele>
        <time>2023-12-19T13:44:31Z</time>
      </trkpt>
      <trkpt lat="43.46211" lon="3.45782">
        <ele>36.599998474121</ele>
        <time>2023-12-19T13:44:32Z</time>
      </trkpt>
      <trkpt lat="43.46214" lon="3.45784">
        <ele>36.400001525879</ele>
        <time>2023-12-19T13:44:33Z</time>
      </trkpt>
      <trkpt lat="43.46217" lon="3.45787">
        <ele>36.200000762939</ele>
        <time>2023-12-19T13:44:34Z</time>
      </trkpt>
      <trkpt lat="43.46219" lon="3.45789">
        <ele>36</ele>
        <time>2023-12-19T13:44:35Z</time>
      </trkpt>
      <trkpt lat="43.46222" lon="3.45791">
        <ele>36</ele>
        <time>2023-12-19T13:44:36Z</time>
      </trkpt>
      <trkpt lat="43.46225" lon="3.45793">
        <ele>36</ele>
        <time>2023-12-19T13:44:37Z</time>
      </trkpt>
      <trkpt lat="43.46228" lon="3.45795">
        <ele>36</ele>
        <time>2023-12-19T13:44:38Z</time>
      </trkpt>
      <trkpt lat="43.4623" lon="3.45797">
        <ele>35.799999237061</ele>
        <time>2023-12-19T13:44:39Z</time>
      </trkpt>
      <trkpt lat="43.46233" lon="3.45799">
        <ele>35.799999237061</ele>
        <time>2023-12-19T13:44:40Z</time>
      </trkpt>
      <trkpt lat="43.46236" lon="3.458">
        <ele>35.799999237061</ele>
        <time>2023-12-19T13:44:41Z</time>
      </trkpt>
      <trkpt lat="43.46239" lon="3.45802">
        <ele>35.599998474121</ele>
        <time>2023-12-19T13:44:42Z</time>
      </trkpt>
      <trkpt lat="43.46242" lon="3.45803">
        <ele>35.599998474121</ele>
        <time>2023-12-19T13:44:43Z</time>
      </trkpt>
      <trkpt lat="43.46244" lon="3.45804">
        <ele>35.400001525879</ele>
        <time>2023-12-19T13:44:44Z</time>
      </trkpt>
      <trkpt lat="43.46247" lon="3.45806">
        <ele>35.400001525879</ele>
        <time>2023-12-19T13:44:45Z</time>
      </trkpt>
      <trkpt lat="43.46249" lon="3.45808">
        <ele>35.400001525879</ele>
        <time>2023-12-19T13:44:46Z</time>
      </trkpt>
      <trkpt lat="43.4625" lon="3.45811">
        <ele>35.200000762939</ele>
        <time>2023-12-19T13:44:47Z</time>
      </trkpt>
      <trkpt lat="43.4625" lon="3.45814">
        <ele>35.200000762939</ele>
        <time>2023-12-19T13:44:48Z</time>
      </trkpt>
      <trkpt lat="43.46248" lon="3.45817">
        <ele>35.200000762939</ele>
        <time>2023-12-19T13:44:49Z</time>
      </trkpt>
      <trkpt lat="43.46246" lon="3.45819">
        <ele>35</ele>
        <time>2023-12-19T13:44:50Z</time>
      </trkpt>
      <trkpt lat="43.46244" lon="3.45821">
        <ele>35</ele>
        <time>2023-12-19T13:44:51Z</time>
      </trkpt>
      <trkpt lat="43.46242" lon="3.45824">
        <ele>34.799999237061</ele>
        <time>2023-12-19T13:44:52Z</time>
      </trkpt>
      <trkpt lat="43.4624" lon="3.45828">
        <ele>34.799999237061</ele>
        <time>2023-12-19T13:44:53Z</time>
      </trkpt>
      <trkpt lat="43.46238" lon="3.45831">
        <ele>34.799999237061</ele>
        <time>2023-12-19T13:44:54Z</time>
      </trkpt>
      <trkpt lat="43.46235" lon="3.45834">
        <ele>34.799999237061</ele>
        <time>2023-12-19T13:44:55Z</time>
      </trkpt>
      <trkpt lat="43.46233" lon="3.45838">
        <ele>34.799999237061</ele>
        <time>2023-12-19T13:44:56Z</time>
      </trkpt>
      <trkpt lat="43.4623" lon="3.45841">
        <ele>34.799999237061</ele>
        <time>2023-12-19T13:44:57Z</time>
      </trkpt>
      <trkpt lat="43.46228" lon="3.45844">
        <ele>34.799999237061</ele>
        <time>2023-12-19T13:44:58Z</time>
      </trkpt>
      <trkpt lat="43.46226" lon="3.45847">
        <ele>34.799999237061</ele>
        <time>2023-12-19T13:44:59Z</time>
      </trkpt>
      <trkpt lat="43.46223" lon="3.45851">
        <ele>35</ele>
        <time>2023-12-19T13:45:00Z</time>
      </trkpt>
      <trkpt lat="43.46221" lon="3.45853">
        <ele>35</ele>
        <time>2023-12-19T13:45:01Z</time>
      </trkpt>
      <trkpt lat="43.46219" lon="3.45857">
        <ele>35.200000762939</ele>
        <time>2023-12-19T13:45:02Z</time>
      </trkpt>
      <trkpt lat="43.46217" lon="3.4586">
        <ele>35.400001525879</ele>
        <time>2023-12-19T13:45:03Z</time>
      </trkpt>
      <trkpt lat="43.46214" lon="3.45864">
        <ele>35.599998474121</ele>
        <time>2023-12-19T13:45:04Z</time>
      </trkpt>
      <trkpt lat="43.46211" lon="3.45866">
        <ele>35.599998474121</ele>
        <time>2023-12-19T13:45:05Z</time>
      </trkpt>
      <trkpt lat="43.46208" lon="3.45868">
        <ele>35.799999237061</ele>
        <time>2023-12-19T13:45:06Z</time>
      </trkpt>
      <trkpt lat="43.46205" lon="3.4587">
        <ele>35.799999237061</ele>
        <time>2023-12-19T13:45:07Z</time>
      </trkpt>
      <trkpt lat="43.46202" lon="3.45871">
        <ele>36</ele>
        <time>2023-12-19T13:45:08Z</time>
      </trkpt>
      <trkpt lat="43.46199" lon="3.45873">
        <ele>36.200000762939</ele>
        <time>2023-12-19T13:45:09Z</time>
      </trkpt>
      <trkpt lat="43.46196" lon="3.45875">
        <ele>36.200000762939</ele>
        <time>2023-12-19T13:45:10Z</time>
      </trkpt>
      <trkpt lat="43.46193" lon="3.45876">
        <ele>36.400001525879</ele>
        <time>2023-12-19T13:45:11Z</time>
      </trkpt>
      <trkpt lat="43.46191" lon="3.45878">
        <ele>36.599998474121</ele>
        <time>2023-12-19T13:45:12Z</time>
      </trkpt>
      <trkpt lat="43.46188" lon="3.45879">
        <ele>36.799999237061</ele>
        <time>2023-12-19T13:45:13Z</time>
      </trkpt>
      <trkpt lat="43.46186" lon="3.4588">
        <ele>37</ele>
        <time>2023-12-19T13:45:14Z</time>
      </trkpt>
      <trkpt lat="43.46183" lon="3.45882">
        <ele>37.400001525879</ele>
        <time>2023-12-19T13:45:15Z</time>
      </trkpt>
      <trkpt lat="43.4618" lon="3.45883">
        <ele>37.599998474121</ele>
        <time>2023-12-19T13:45:16Z</time>
      </trkpt>
      <trkpt lat="43.46178" lon="3.45883">
        <ele>38</ele>
        <time>2023-12-19T13:45:17Z</time>
      </trkpt>
      <trkpt lat="43.46177" lon="3.45884">
        <ele>38</ele>
        <time>2023-12-19T13:45:18Z</time>
      </trkpt>
      <trkpt lat="43.46177" lon="3.45884">
        <ele>38.400001525879</ele>
        <time>2023-12-19T13:45:19Z</time>
      </trkpt>
      <trkpt lat="43.46177" lon="3.45884">
        <ele>38.599998474121</ele>
        <time>2023-12-19T13:45:20Z</time>
      </trkpt>
      <trkpt lat="43.4618" lon="3.45889">
        <ele>39</ele>
        <time>2023-12-19T13:45:34Z</time>
      </trkpt>
      <trkpt lat="43.46181" lon="3.45893">
        <ele>39</ele>
        <time>2023-12-19T13:45:35Z</time>
      </trkpt>
      <trkpt lat="43.4618" lon="3.45898">
        <ele>39</ele>
        <time>2023-12-19T13:45:36Z</time>
      </trkpt>
      <trkpt lat="43.46179" lon="3.45902">
        <ele>39</ele>
        <time>2023-12-19T13:45:37Z</time>
      </trkpt>
      <trkpt lat="43.46177" lon="3.45907">
        <ele>39</ele>
        <time>2023-12-19T13:45:38Z</time>
      </trkpt>
      <trkpt lat="43.46175" lon="3.4591">
        <ele>39</ele>
        <time>2023-12-19T13:45:39Z</time>
      </trkpt>
      <trkpt lat="43.46172" lon="3.45914">
        <ele>39.200000762939</ele>
        <time>2023-12-19T13:45:40Z</time>
      </trkpt>
      <trkpt lat="43.46169" lon="3.45917">
        <ele>39.400001525879</ele>
        <time>2023-12-19T13:45:41Z</time>
      </trkpt>
      <trkpt lat="43.46167" lon="3.45921">
        <ele>39.599998474121</ele>
        <time>2023-12-19T13:45:42Z</time>
      </trkpt>
      <trkpt lat="43.46165" lon="3.45924">
        <ele>40</ele>
        <time>2023-12-19T13:45:43Z</time>
      </trkpt>
      <trkpt lat="43.46163" lon="3.45928">
        <ele>40.200000762939</ele>
        <time>2023-12-19T13:45:44Z</time>
      </trkpt>
      <trkpt lat="43.46161" lon="3.45931">
        <ele>40.200000762939</ele>
        <time>2023-12-19T13:45:45Z</time>
      </trkpt>
      <trkpt lat="43.46158" lon="3.45934">
        <ele>40.400001525879</ele>
        <time>2023-12-19T13:45:46Z</time>
      </trkpt>
      <trkpt lat="43.46155" lon="3.45937">
        <ele>40.799999237061</ele>
        <time>2023-12-19T13:45:47Z</time>
      </trkpt>
      <trkpt lat="43.46153" lon="3.4594">
        <ele>41</ele>
        <time>2023-12-19T13:45:48Z</time>
      </trkpt>
      <trkpt lat="43.4615" lon="3.45943">
        <ele>41.200000762939</ele>
        <time>2023-12-19T13:45:49Z</time>
      </trkpt>
      <trkpt lat="43.46148" lon="3.45945">
        <ele>41.400001525879</ele>
        <time>2023-12-19T13:45:50Z</time>
      </trkpt>
      <trkpt lat="43.46145" lon="3.45946">
        <ele>41.599998474121</ele>
        <time>2023-12-19T13:45:51Z</time>
      </trkpt>
      <trkpt lat="43.46142" lon="3.45947">
        <ele>41.799999237061</ele>
        <time>2023-12-19T13:45:52Z</time>
      </trkpt>
      <trkpt lat="43.46139" lon="3.45949">
        <ele>42</ele>
        <time>2023-12-19T13:45:53Z</time>
      </trkpt>
      <trkpt lat="43.46138" lon="3.45952">
        <ele>42.200000762939</ele>
        <time>2023-12-19T13:45:54Z</time>
      </trkpt>
      <trkpt lat="43.46138" lon="3.45957">
        <ele>42.400001525879</ele>
        <time>2023-12-19T13:45:55Z</time>
      </trkpt>
      <trkpt lat="43.46139" lon="3.45961">
        <ele>42.400001525879</ele>
        <time>2023-12-19T13:45:56Z</time>
      </trkpt>
      <trkpt lat="43.46139" lon="3.45966">
        <ele>42.599998474121</ele>
        <time>2023-12-19T13:45:57Z</time>
      </trkpt>
      <trkpt lat="43.46138" lon="3.4597">
        <ele>42.599998474121</ele>
        <time>2023-12-19T13:45:58Z</time>
      </trkpt>
      <trkpt lat="43.46136" lon="3.45974">
        <ele>42.799999237061</ele>
        <time>2023-12-19T13:45:59Z</time>
      </trkpt>
      <trkpt lat="43.46134" lon="3.45977">
        <ele>43</ele>
        <time>2023-12-19T13:46:00Z</time>
      </trkpt>
      <trkpt lat="43.46132" lon="3.4598">
        <ele>43.200000762939</ele>
        <time>2023-12-19T13:46:01Z</time>
      </trkpt>
      <trkpt lat="43.46131" lon="3.45985">
        <ele>43.400001525879</ele>
        <time>2023-12-19T13:46:02Z</time>
      </trkpt>
      <trkpt lat="43.4613" lon="3.45989">
        <ele>43.599998474121</ele>
        <time>2023-12-19T13:46:03Z</time>
      </trkpt>
      <trkpt lat="43.46129" lon="3.45993">
        <ele>43.799999237061</ele>
        <time>2023-12-19T13:46:04Z</time>
      </trkpt>
      <trkpt lat="43.46127" lon="3.45997">
        <ele>44</ele>
        <time>2023-12-19T13:46:05Z</time>
      </trkpt>
      <trkpt lat="43.46126" lon="3.46">
        <ele>44.200000762939</ele>
        <time>2023-12-19T13:46:06Z</time>
      </trkpt>
      <trkpt lat="43.46125" lon="3.46004">
        <ele>44.400001525879</ele>
        <time>2023-12-19T13:46:07Z</time>
      </trkpt>
      <trkpt lat="43.46124" lon="3.46008">
        <ele>44.599998474121</ele>
        <time>2023-12-19T13:46:08Z</time>
      </trkpt>
      <trkpt lat="43.46122" lon="3.46012">
        <ele>44.599998474121</ele>
        <time>2023-12-19T13:46:09Z</time>
      </trkpt>
      <trkpt lat="43.46121" lon="3.46015">
        <ele>44.799999237061</ele>
        <time>2023-12-19T13:46:10Z</time>
      </trkpt>
      <trkpt lat="43.4612" lon="3.46019">
        <ele>45.200000762939</ele>
        <time>2023-12-19T13:46:11Z</time>
      </trkpt>
      <trkpt lat="43.46119" lon="3.46022">
        <ele>45.200000762939</ele>
        <time>2023-12-19T13:46:12Z</time>
      </trkpt>
      <trkpt lat="43.46117" lon="3.46025">
        <ele>45.599998474121</ele>
        <time>2023-12-19T13:46:13Z</time>
      </trkpt>
      <trkpt lat="43.46116" lon="3.46029">
        <ele>46</ele>
        <time>2023-12-19T13:46:14Z</time>
      </trkpt>
      <trkpt lat="43.46117" lon="3.46032">
        <ele>46.599998474121</ele>
        <time>2023-12-19T13:46:15Z</time>
      </trkpt>
      <trkpt lat="43.46118" lon="3.46034">
        <ele>47.200000762939</ele>
        <time>2023-12-19T13:46:16Z</time>
      </trkpt>
      <trkpt lat="43.4612" lon="3.46036">
        <ele>48</ele>
        <time>2023-12-19T13:46:17Z</time>
      </trkpt>
      <trkpt lat="43.46121" lon="3.46037">
        <ele>48.599998474121</ele>
        <time>2023-12-19T13:46:18Z</time>
      </trkpt>
      <trkpt lat="43.46122" lon="3.46039">
        <ele>49.200000762939</ele>
        <time>2023-12-19T13:46:19Z</time>
      </trkpt>
      <trkpt lat="43.46122" lon="3.46042">
        <ele>49.599998474121</ele>
        <time>2023-12-19T13:46:20Z</time>
      </trkpt>
      <trkpt lat="43.46123" lon="3.46046">
        <ele>49.799999237061</ele>
        <time>2023-12-19T13:46:21Z</time>
      </trkpt>
      <trkpt lat="43.46123" lon="3.46049">
        <ele>49.799999237061</ele>
        <time>2023-12-19T13:46:22Z</time>
      </trkpt>
      <trkpt lat="43.46123" lon="3.46052">
        <ele>50</ele>
        <time>2023-12-19T13:46:23Z</time>
      </trkpt>
      <trkpt lat="43.46123" lon="3.46054">
        <ele>50.200000762939</ele>
        <time>2023-12-19T13:46:24Z</time>
      </trkpt>
      <trkpt lat="43.46123" lon="3.46056">
        <ele>50.400001525879</ele>
        <time>2023-12-19T13:46:25Z</time>
      </trkpt>
      <trkpt lat="43.46123" lon="3.46059">
        <ele>50.599998474121</ele>
        <time>2023-12-19T13:46:26Z</time>
      </trkpt>
      <trkpt lat="43.46124" lon="3.4606">
        <ele>50.799999237061</ele>
        <time>2023-12-19T13:46:27Z</time>
      </trkpt>
      <trkpt lat="43.46125" lon="3.46063">
        <ele>51</ele>
        <time>2023-12-19T13:46:28Z</time>
      </trkpt>
      <trkpt lat="43.46126" lon="3.46066">
        <ele>51</ele>
        <time>2023-12-19T13:46:29Z</time>
      </trkpt>
      <trkpt lat="43.46128" lon="3.46069">
        <ele>51.200000762939</ele>
        <time>2023-12-19T13:46:30Z</time>
      </trkpt>
      <trkpt lat="43.46129" lon="3.46071">
        <ele>51.400001525879</ele>
        <time>2023-12-19T13:46:31Z</time>
      </trkpt>
      <trkpt lat="43.4613" lon="3.46074">
        <ele>51.400001525879</ele>
        <time>2023-12-19T13:46:32Z</time>
      </trkpt>
      <trkpt lat="43.46131" lon="3.46077">
        <ele>51.599998474121</ele>
        <time>2023-12-19T13:46:33Z</time>
      </trkpt>
      <trkpt lat="43.46131" lon="3.46079">
        <ele>51.599998474121</ele>
        <time>2023-12-19T13:46:34Z</time>
      </trkpt>
      <trkpt lat="43.46132" lon="3.46083">
        <ele>51.799999237061</ele>
        <time>2023-12-19T13:46:35Z</time>
      </trkpt>
      <trkpt lat="43.46134" lon="3.46085">
        <ele>51.799999237061</ele>
        <time>2023-12-19T13:46:36Z</time>
      </trkpt>
      <trkpt lat="43.46135" lon="3.46088">
        <ele>51.799999237061</ele>
        <time>2023-12-19T13:46:37Z</time>
      </trkpt>
      <trkpt lat="43.46136" lon="3.4609">
        <ele>52</ele>
        <time>2023-12-19T13:46:38Z</time>
      </trkpt>
      <trkpt lat="43.46137" lon="3.46093">
        <ele>52</ele>
        <time>2023-12-19T13:46:39Z</time>
      </trkpt>
      <trkpt lat="43.46138" lon="3.46096">
        <ele>52.200000762939</ele>
        <time>2023-12-19T13:46:40Z</time>
      </trkpt>
      <trkpt lat="43.46137" lon="3.461">
        <ele>52.200000762939</ele>
        <time>2023-12-19T13:46:41Z</time>
      </trkpt>
      <trkpt lat="43.46137" lon="3.46102">
        <ele>52.200000762939</ele>
        <time>2023-12-19T13:46:42Z</time>
      </trkpt>
      <trkpt lat="43.46138" lon="3.46105">
        <ele>52.400001525879</ele>
        <time>2023-12-19T13:46:43Z</time>
      </trkpt>
      <trkpt lat="43.46139" lon="3.46109">
        <ele>52.400001525879</ele>
        <time>2023-12-19T13:46:44Z</time>
      </trkpt>
      <trkpt lat="43.4614" lon="3.46111">
        <ele>52.599998474121</ele>
        <time>2023-12-19T13:46:45Z</time>
      </trkpt>
      <trkpt lat="43.46141" lon="3.46114">
        <ele>52.599998474121</ele>
        <time>2023-12-19T13:46:46Z</time>
      </trkpt>
      <trkpt lat="43.46142" lon="3.46117">
        <ele>52.799999237061</ele>
        <time>2023-12-19T13:46:47Z</time>
      </trkpt>
      <trkpt lat="43.46142" lon="3.4612">
        <ele>53</ele>
        <time>2023-12-19T13:46:48Z</time>
      </trkpt>
      <trkpt lat="43.46142" lon="3.46123">
        <ele>53.200000762939</ele>
        <time>2023-12-19T13:46:49Z</time>
      </trkpt>
      <trkpt lat="43.46142" lon="3.46125">
        <ele>53.400001525879</ele>
        <time>2023-12-19T13:46:50Z</time>
      </trkpt>
      <trkpt lat="43.46142" lon="3.46128">
        <ele>53.599998474121</ele>
        <time>2023-12-19T13:46:51Z</time>
      </trkpt>
      <trkpt lat="43.46142" lon="3.46131">
        <ele>53.599998474121</ele>
        <time>2023-12-19T13:46:52Z</time>
      </trkpt>
      <trkpt lat="43.46142" lon="3.46134">
        <ele>53.799999237061</ele>
        <time>2023-12-19T13:46:53Z</time>
      </trkpt>
      <trkpt lat="43.46142" lon="3.46138">
        <ele>54</ele>
        <time>2023-12-19T13:46:54Z</time>
      </trkpt>
      <trkpt lat="43.46142" lon="3.46141">
        <ele>54</ele>
        <time>2023-12-19T13:46:55Z</time>
      </trkpt>
      <trkpt lat="43.46141" lon="3.46145">
        <ele>54</ele>
        <time>2023-12-19T13:46:56Z</time>
      </trkpt>
      <trkpt lat="43.46141" lon="3.46148">
        <ele>54.200000762939</ele>
        <time>2023-12-19T13:46:57Z</time>
      </trkpt>
      <trkpt lat="43.46141" lon="3.46151">
        <ele>54.200000762939</ele>
        <time>2023-12-19T13:46:58Z</time>
      </trkpt>
      <trkpt lat="43.46141" lon="3.46154">
        <ele>54.200000762939</ele>
        <time>2023-12-19T13:46:59Z</time>
      </trkpt>
      <trkpt lat="43.46142" lon="3.46157">
        <ele>54.400001525879</ele>
        <time>2023-12-19T13:47:00Z</time>
      </trkpt>
      <trkpt lat="43.46142" lon="3.46159">
        <ele>54.599998474121</ele>
        <time>2023-12-19T13:47:01Z</time>
      </trkpt>
      <trkpt lat="43.46143" lon="3.46162">
        <ele>54.599998474121</ele>
        <time>2023-12-19T13:47:02Z</time>
      </trkpt>
      <trkpt lat="43.46145" lon="3.46164">
        <ele>54.799999237061</ele>
        <time>2023-12-19T13:47:03Z</time>
      </trkpt>
      <trkpt lat="43.46146" lon="3.46167">
        <ele>55</ele>
        <time>2023-12-19T13:47:04Z</time>
      </trkpt>
      <trkpt lat="43.46146" lon="3.4617">
        <ele>55</ele>
        <time>2023-12-19T13:47:05Z</time>
      </trkpt>
      <trkpt lat="43.46147" lon="3.46173">
        <ele>55</ele>
        <time>2023-12-19T13:47:06Z</time>
      </trkpt>
      <trkpt lat="43.46147" lon="3.46175">
        <ele>55.200000762939</ele>
        <time>2023-12-19T13:47:07Z</time>
      </trkpt>
      <trkpt lat="43.46147" lon="3.46178">
        <ele>55.200000762939</ele>
        <time>2023-12-19T13:47:08Z</time>
      </trkpt>
      <trkpt lat="43.46147" lon="3.46182">
        <ele>55.200000762939</ele>
        <time>2023-12-19T13:47:09Z</time>
      </trkpt>
      <trkpt lat="43.46147" lon="3.46185">
        <ele>55.400001525879</ele>
        <time>2023-12-19T13:47:10Z</time>
      </trkpt>
      <trkpt lat="43.46146" lon="3.46189">
        <ele>55.400001525879</ele>
        <time>2023-12-19T13:47:11Z</time>
      </trkpt>
      <trkpt lat="43.46145" lon="3.46192">
        <ele>55.400001525879</ele>
        <time>2023-12-19T13:47:12Z</time>
      </trkpt>
      <trkpt lat="43.46144" lon="3.46195">
        <ele>55.599998474121</ele>
        <time>2023-12-19T13:47:13Z</time>
      </trkpt>
      <trkpt lat="43.46142" lon="3.46198">
        <ele>55.799999237061</ele>
        <time>2023-12-19T13:47:14Z</time>
      </trkpt>
      <trkpt lat="43.46141" lon="3.46201">
        <ele>56.200000762939</ele>
        <time>2023-12-19T13:47:15Z</time>
      </trkpt>
      <trkpt lat="43.4614" lon="3.46203">
        <ele>56.599998474121</ele>
        <time>2023-12-19T13:47:16Z</time>
      </trkpt>
      <trkpt lat="43.46139" lon="3.46205">
        <ele>56.799999237061</ele>
        <time>2023-12-19T13:47:17Z</time>
      </trkpt>
      <trkpt lat="43.46138" lon="3.46207">
        <ele>57</ele>
        <time>2023-12-19T13:47:18Z</time>
      </trkpt>
      <trkpt lat="43.46136" lon="3.4621">
        <ele>57.400001525879</ele>
        <time>2023-12-19T13:47:19Z</time>
      </trkpt>
      <trkpt lat="43.46135" lon="3.46212">
        <ele>57.599998474121</ele>
        <time>2023-12-19T13:47:20Z</time>
      </trkpt>
      <trkpt lat="43.46134" lon="3.46214">
        <ele>57.799999237061</ele>
        <time>2023-12-19T13:47:21Z</time>
      </trkpt>
      <trkpt lat="43.46133" lon="3.46215">
        <ele>58</ele>
        <time>2023-12-19T13:47:22Z</time>
      </trkpt>
      <trkpt lat="43.46131" lon="3.46217">
        <ele>58.200000762939</ele>
        <time>2023-12-19T13:47:23Z</time>
      </trkpt>
      <trkpt lat="43.46129" lon="3.46218">
        <ele>58.200000762939</ele>
        <time>2023-12-19T13:47:24Z</time>
      </trkpt>
      <trkpt lat="43.46127" lon="3.46217">
        <ele>58.200000762939</ele>
        <time>2023-12-19T13:47:25Z</time>
      </trkpt>
      <trkpt lat="43.46124" lon="3.46217">
        <ele>58.400001525879</ele>
        <time>2023-12-19T13:47:26Z</time>
      </trkpt>
      <trkpt lat="43.46122" lon="3.46218">
        <ele>58.400001525879</ele>
        <time>2023-12-19T13:47:27Z</time>
      </trkpt>
      <trkpt lat="43.4612" lon="3.4622">
        <ele>58.400001525879</ele>
        <time>2023-12-19T13:47:28Z</time>
      </trkpt>
      <trkpt lat="43.46119" lon="3.46222">
        <ele>58.799999237061</ele>
        <time>2023-12-19T13:47:29Z</time>
      </trkpt>
      <trkpt lat="43.46117" lon="3.46225">
        <ele>59.200000762939</ele>
        <time>2023-12-19T13:47:30Z</time>
      </trkpt>
      <trkpt lat="43.46115" lon="3.46228">
        <ele>59.400001525879</ele>
        <time>2023-12-19T13:47:31Z</time>
      </trkpt>
      <trkpt lat="43.46113" lon="3.46229">
        <ele>59.799999237061</ele>
        <time>2023-12-19T13:47:32Z</time>
      </trkpt>
      <trkpt lat="43.4611" lon="3.4623">
        <ele>60.200000762939</ele>
        <time>2023-12-19T13:47:33Z</time>
      </trkpt>
      <trkpt lat="43.46109" lon="3.46232">
        <ele>60.599998474121</ele>
        <time>2023-12-19T13:47:34Z</time>
      </trkpt>
      <trkpt lat="43.46107" lon="3.46234">
        <ele>61</ele>
        <time>2023-12-19T13:47:35Z</time>
      </trkpt>
      <trkpt lat="43.46106" lon="3.46234">
        <ele>61.400001525879</ele>
        <time>2023-12-19T13:47:36Z</time>
      </trkpt>
      <trkpt lat="43.46105" lon="3.46236">
        <ele>62</ele>
        <time>2023-12-19T13:47:37Z</time>
      </trkpt>
      <trkpt lat="43.46105" lon="3.46238">
        <ele>62.599998474121</ele>
        <time>2023-12-19T13:47:38Z</time>
      </trkpt>
      <trkpt lat="43.46105" lon="3.46241">
        <ele>63</ele>
        <time>2023-12-19T13:47:39Z</time>
      </trkpt>
      <trkpt lat="43.46105" lon="3.46242">
        <ele>63.400001525879</ele>
        <time>2023-12-19T13:47:40Z</time>
      </trkpt>
      <trkpt lat="43.46104" lon="3.46243">
        <ele>63.599998474121</ele>
        <time>2023-12-19T13:47:41Z</time>
      </trkpt>
      <trkpt lat="43.46104" lon="3.46243">
        <ele>63.799999237061</ele>
        <time>2023-12-19T13:47:42Z</time>
      </trkpt>
      <trkpt lat="43.46103" lon="3.46249">
        <ele>63.799999237061</ele>
        <time>2023-12-19T13:49:17Z</time>
      </trkpt>
      <trkpt lat="43.46102" lon="3.46251">
        <ele>63.799999237061</ele>
        <time>2023-12-19T13:49:18Z</time>
      </trkpt>
      <trkpt lat="43.461" lon="3.46254">
        <ele>63.799999237061</ele>
        <time>2023-12-19T13:49:19Z</time>
      </trkpt>
      <trkpt lat="43.46099" lon="3.46256">
        <ele>63.799999237061</ele>
        <time>2023-12-19T13:49:20Z</time>
      </trkpt>
      <trkpt lat="43.46097" lon="3.46259">
        <ele>63.799999237061</ele>
        <time>2023-12-19T13:49:21Z</time>
      </trkpt>
      <trkpt lat="43.46096" lon="3.46261">
        <ele>63.799999237061</ele>
        <time>2023-12-19T13:49:22Z</time>
      </trkpt>
      <trkpt lat="43.46094" lon="3.46264">
        <ele>63.799999237061</ele>
        <time>2023-12-19T13:49:23Z</time>
      </trkpt>
      <trkpt lat="43.46093" lon="3.46267">
        <ele>64</ele>
        <time>2023-12-19T13:49:24Z</time>
      </trkpt>
      <trkpt lat="43.46093" lon="3.46271">
        <ele>64.199996948242</ele>
        <time>2023-12-19T13:49:25Z</time>
      </trkpt>
      <trkpt lat="43.46092" lon="3.46274">
        <ele>64.400001525879</ele>
        <time>2023-12-19T13:49:26Z</time>
      </trkpt>
      <trkpt lat="43.46091" lon="3.46278">
        <ele>64.400001525879</ele>
        <time>2023-12-19T13:49:27Z</time>
      </trkpt>
      <trkpt lat="43.4609" lon="3.46281">
        <ele>64.599998474121</ele>
        <time>2023-12-19T13:49:28Z</time>
      </trkpt>
      <trkpt lat="43.46089" lon="3.46284">
        <ele>64.599998474121</ele>
        <time>2023-12-19T13:49:29Z</time>
      </trkpt>
      <trkpt lat="43.46088" lon="3.46288">
        <ele>64.599998474121</ele>
        <time>2023-12-19T13:49:30Z</time>
      </trkpt>
      <trkpt lat="43.46087" lon="3.46291">
        <ele>64.800003051758</ele>
        <time>2023-12-19T13:49:31Z</time>
      </trkpt>
      <trkpt lat="43.46086" lon="3.46294">
        <ele>65</ele>
        <time>2023-12-19T13:49:32Z</time>
      </trkpt>
      <trkpt lat="43.46085" lon="3.46296">
        <ele>65.199996948242</ele>
        <time>2023-12-19T13:49:33Z</time>
      </trkpt>
      <trkpt lat="43.46084" lon="3.46299">
        <ele>65.400001525879</ele>
        <time>2023-12-19T13:49:34Z</time>
      </trkpt>
      <trkpt lat="43.46083" lon="3.46301">
        <ele>65.800003051758</ele>
        <time>2023-12-19T13:49:35Z</time>
      </trkpt>
      <trkpt lat="43.46081" lon="3.46303">
        <ele>66</ele>
        <time>2023-12-19T13:49:36Z</time>
      </trkpt>
      <trkpt lat="43.46078" lon="3.46305">
        <ele>66.199996948242</ele>
        <time>2023-12-19T13:49:37Z</time>
      </trkpt>
      <trkpt lat="43.46076" lon="3.46305">
        <ele>66.400001525879</ele>
        <time>2023-12-19T13:49:38Z</time>
      </trkpt>
      <trkpt lat="43.46074" lon="3.46307">
        <ele>66.599998474121</ele>
        <time>2023-12-19T13:49:39Z</time>
      </trkpt>
      <trkpt lat="43.46072" lon="3.46309">
        <ele>66.800003051758</ele>
        <time>2023-12-19T13:49:40Z</time>
      </trkpt>
      <trkpt lat="43.46071" lon="3.4631">
        <ele>67</ele>
        <time>2023-12-19T13:49:41Z</time>
      </trkpt>
      <trkpt lat="43.46068" lon="3.46311">
        <ele>67.199996948242</ele>
        <time>2023-12-19T13:49:42Z</time>
      </trkpt>
      <trkpt lat="43.46065" lon="3.46312">
        <ele>67.599998474121</ele>
        <time>2023-12-19T13:49:43Z</time>
      </trkpt>
      <trkpt lat="43.46063" lon="3.46313">
        <ele>67.800003051758</ele>
        <time>2023-12-19T13:49:44Z</time>
      </trkpt>
      <trkpt lat="43.46059" lon="3.46315">
        <ele>68</ele>
        <time>2023-12-19T13:49:45Z</time>
      </trkpt>
      <trkpt lat="43.46057" lon="3.46318">
        <ele>68.400001525879</ele>
        <time>2023-12-19T13:49:46Z</time>
      </trkpt>
      <trkpt lat="43.46055" lon="3.4632">
        <ele>68.800003051758</ele>
        <time>2023-12-19T13:49:47Z</time>
      </trkpt>
      <trkpt lat="43.46054" lon="3.46323">
        <ele>68.800003051758</ele>
        <time>2023-12-19T13:49:48Z</time>
      </trkpt>
      <trkpt lat="43.46052" lon="3.46326">
        <ele>69</ele>
        <time>2023-12-19T13:49:49Z</time>
      </trkpt>
      <trkpt lat="43.46051" lon="3.46328">
        <ele>69.400001525879</ele>
        <time>2023-12-19T13:49:50Z</time>
      </trkpt>
      <trkpt lat="43.46049" lon="3.46331">
        <ele>69.599998474121</ele>
        <time>2023-12-19T13:49:51Z</time>
      </trkpt>
      <trkpt lat="43.46047" lon="3.46333">
        <ele>70</ele>
        <time>2023-12-19T13:49:52Z</time>
      </trkpt>
      <trkpt lat="43.46046" lon="3.46335">
        <ele>70.199996948242</ele>
        <time>2023-12-19T13:49:53Z</time>
      </trkpt>
      <trkpt lat="43.46044" lon="3.46338">
        <ele>70.400001525879</ele>
        <time>2023-12-19T13:49:54Z</time>
      </trkpt>
      <trkpt lat="43.46043" lon="3.46341">
        <ele>70.800003051758</ele>
        <time>2023-12-19T13:49:55Z</time>
      </trkpt>
      <trkpt lat="43.46041" lon="3.46344">
        <ele>70.800003051758</ele>
        <time>2023-12-19T13:49:56Z</time>
      </trkpt>
      <trkpt lat="43.4604" lon="3.46346">
        <ele>71</ele>
        <time>2023-12-19T13:49:57Z</time>
      </trkpt>
      <trkpt lat="43.46038" lon="3.46349">
        <ele>71.199996948242</ele>
        <time>2023-12-19T13:49:58Z</time>
      </trkpt>
      <trkpt lat="43.46036" lon="3.46352">
        <ele>71.400001525879</ele>
        <time>2023-12-19T13:49:59Z</time>
      </trkpt>
      <trkpt lat="43.46034" lon="3.46354">
        <ele>71.400001525879</ele>
        <time>2023-12-19T13:50:00Z</time>
      </trkpt>
      <trkpt lat="43.46032" lon="3.46356">
        <ele>71.599998474121</ele>
        <time>2023-12-19T13:50:01Z</time>
      </trkpt>
      <trkpt lat="43.4603" lon="3.46357">
        <ele>71.800003051758</ele>
        <time>2023-12-19T13:50:02Z</time>
      </trkpt>
      <trkpt lat="43.46028" lon="3.46359">
        <ele>71.800003051758</ele>
        <time>2023-12-19T13:50:03Z</time>
      </trkpt>
      <trkpt lat="43.46027" lon="3.4636">
        <ele>72</ele>
        <time>2023-12-19T13:50:04Z</time>
      </trkpt>
      <trkpt lat="43.46024" lon="3.46362">
        <ele>72</ele>
        <time>2023-12-19T13:50:05Z</time>
      </trkpt>
      <trkpt lat="43.46022" lon="3.46364">
        <ele>72.199996948242</ele>
        <time>2023-12-19T13:50:06Z</time>
      </trkpt>
      <trkpt lat="43.4602" lon="3.46366">
        <ele>72.400001525879</ele>
        <time>2023-12-19T13:50:07Z</time>
      </trkpt>
      <trkpt lat="43.46017" lon="3.46368">
        <ele>72.599998474121</ele>
        <time>2023-12-19T13:50:08Z</time>
      </trkpt>
      <trkpt lat="43.46015" lon="3.46369">
        <ele>72.800003051758</ele>
        <time>2023-12-19T13:50:09Z</time>
      </trkpt>
      <trkpt lat="43.46013" lon="3.46371">
        <ele>72.800003051758</ele>
        <time>2023-12-19T13:50:10Z</time>
      </trkpt>
      <trkpt lat="43.46011" lon="3.46373">
        <ele>73</ele>
        <time>2023-12-19T13:50:11Z</time>
      </trkpt>
      <trkpt lat="43.46009" lon="3.46375">
        <ele>73.199996948242</ele>
        <time>2023-12-19T13:50:12Z</time>
      </trkpt>
      <trkpt lat="43.46006" lon="3.46375">
        <ele>73.599998474121</ele>
        <time>2023-12-19T13:50:13Z</time>
      </trkpt>
      <trkpt lat="43.46004" lon="3.46376">
        <ele>73.800003051758</ele>
        <time>2023-12-19T13:50:14Z</time>
      </trkpt>
      <trkpt lat="43.46002" lon="3.46376">
        <ele>74</ele>
        <time>2023-12-19T13:50:15Z</time>
      </trkpt>
      <trkpt lat="43.46" lon="3.46375">
        <ele>74.199996948242</ele>
        <time>2023-12-19T13:50:16Z</time>
      </trkpt>
      <trkpt lat="43.45998" lon="3.46373">
        <ele>74.199996948242</ele>
        <time>2023-12-19T13:50:17Z</time>
      </trkpt>
      <trkpt lat="43.45996" lon="3.46372">
        <ele>74.599998474121</ele>
        <time>2023-12-19T13:50:18Z</time>
      </trkpt>
      <trkpt lat="43.45993" lon="3.46372">
        <ele>75</ele>
        <time>2023-12-19T13:50:19Z</time>
      </trkpt>
      <trkpt lat="43.45991" lon="3.46371">
        <ele>75.400001525879</ele>
        <time>2023-12-19T13:50:20Z</time>
      </trkpt>
      <trkpt lat="43.45988" lon="3.46372">
        <ele>75.800003051758</ele>
        <time>2023-12-19T13:50:21Z</time>
      </trkpt>
      <trkpt lat="43.45985" lon="3.46373">
        <ele>76.199996948242</ele>
        <time>2023-12-19T13:50:22Z</time>
      </trkpt>
      <trkpt lat="43.45984" lon="3.46374">
        <ele>76.599998474121</ele>
        <time>2023-12-19T13:50:23Z</time>
      </trkpt>
      <trkpt lat="43.45982" lon="3.46376">
        <ele>77</ele>
        <time>2023-12-19T13:50:24Z</time>
      </trkpt>
      <trkpt lat="43.45981" lon="3.46378">
        <ele>77.400001525879</ele>
        <time>2023-12-19T13:50:25Z</time>
      </trkpt>
      <trkpt lat="43.4598" lon="3.46379">
        <ele>77.800003051758</ele>
        <time>2023-12-19T13:50:26Z</time>
      </trkpt>
      <trkpt lat="43.45978" lon="3.46381">
        <ele>78</ele>
        <time>2023-12-19T13:50:27Z</time>
      </trkpt>
      <trkpt lat="43.45976" lon="3.46383">
        <ele>78.199996948242</ele>
        <time>2023-12-19T13:50:28Z</time>
      </trkpt>
      <trkpt lat="43.45975" lon="3.46384">
        <ele>78.400001525879</ele>
        <time>2023-12-19T13:50:29Z</time>
      </trkpt>
      <trkpt lat="43.45973" lon="3.46386">
        <ele>78.599998474121</ele>
        <time>2023-12-19T13:50:30Z</time>
      </trkpt>
      <trkpt lat="43.45971" lon="3.46387">
        <ele>78.599998474121</ele>
        <time>2023-12-19T13:50:31Z</time>
      </trkpt>
      <trkpt lat="43.4597" lon="3.46389">
        <ele>78.800003051758</ele>
        <time>2023-12-19T13:50:32Z</time>
      </trkpt>
      <trkpt lat="43.45968" lon="3.46391">
        <ele>78.800003051758</ele>
        <time>2023-12-19T13:50:33Z</time>
      </trkpt>
      <trkpt lat="43.45967" lon="3.46393">
        <ele>79</ele>
        <time>2023-12-19T13:50:34Z</time>
      </trkpt>
      <trkpt lat="43.45965" lon="3.46395">
        <ele>79</ele>
        <time>2023-12-19T13:50:35Z</time>
      </trkpt>
      <trkpt lat="43.45964" lon="3.46397">
        <ele>79</ele>
        <time>2023-12-19T13:50:36Z</time>
      </trkpt>
      <trkpt lat="43.45962" lon="3.46399">
        <ele>79</ele>
        <time>2023-12-19T13:50:37Z</time>
      </trkpt>
      <trkpt lat="43.45961" lon="3.46401">
        <ele>79</ele>
        <time>2023-12-19T13:50:38Z</time>
      </trkpt>
      <trkpt lat="43.45959" lon="3.46403">
        <ele>79</ele>
        <time>2023-12-19T13:50:39Z</time>
      </trkpt>
      <trkpt lat="43.45958" lon="3.46405">
        <ele>79</ele>
        <time>2023-12-19T13:50:40Z</time>
      </trkpt>
      <trkpt lat="43.45957" lon="3.46407">
        <ele>79</ele>
        <time>2023-12-19T13:50:41Z</time>
      </trkpt>
      <trkpt lat="43.45956" lon="3.46409">
        <ele>79</ele>
        <time>2023-12-19T13:50:42Z</time>
      </trkpt>
      <trkpt lat="43.45955" lon="3.4641">
        <ele>78.800003051758</ele>
        <time>2023-12-19T13:50:43Z</time>
      </trkpt>
      <trkpt lat="43.45955" lon="3.4641">
        <ele>78.800003051758</ele>
        <time>2023-12-19T13:50:44Z</time>
      </trkpt>
      <trkpt lat="43.45953" lon="3.46412">
        <ele>78.800003051758</ele>
        <time>2023-12-19T13:50:46Z</time>
      </trkpt>
      <trkpt lat="43.45951" lon="3.46415">
        <ele>78.800003051758</ele>
        <time>2023-12-19T13:50:47Z</time>
      </trkpt>
      <trkpt lat="43.4595" lon="3.46417">
        <ele>78.599998474121</ele>
        <time>2023-12-19T13:50:48Z</time>
      </trkpt>
      <trkpt lat="43.4595" lon="3.4642">
        <ele>78.599998474121</ele>
        <time>2023-12-19T13:50:49Z</time>
      </trkpt>
      <trkpt lat="43.45949" lon="3.46424">
        <ele>78.599998474121</ele>
        <time>2023-12-19T13:50:50Z</time>
      </trkpt>
      <trkpt lat="43.45949" lon="3.46427">
        <ele>78.599998474121</ele>
        <time>2023-12-19T13:50:51Z</time>
      </trkpt>
      <trkpt lat="43.45948" lon="3.4643">
        <ele>78.599998474121</ele>
        <time>2023-12-19T13:50:52Z</time>
      </trkpt>
      <trkpt lat="43.45948" lon="3.46433">
        <ele>78.599998474121</ele>
        <time>2023-12-19T13:50:53Z</time>
      </trkpt>
      <trkpt lat="43.45948" lon="3.46436">
        <ele>78.599998474121</ele>
        <time>2023-12-19T13:50:54Z</time>
      </trkpt>
      <trkpt lat="43.45947" lon="3.46439">
        <ele>78.599998474121</ele>
        <time>2023-12-19T13:50:55Z</time>
      </trkpt>
      <trkpt lat="43.45947" lon="3.46442">
        <ele>78.800003051758</ele>
        <time>2023-12-19T13:50:56Z</time>
      </trkpt>
      <trkpt lat="43.45947" lon="3.46446">
        <ele>78.800003051758</ele>
        <time>2023-12-19T13:50:57Z</time>
      </trkpt>
      <trkpt lat="43.45947" lon="3.46449">
        <ele>79</ele>
        <time>2023-12-19T13:50:58Z</time>
      </trkpt>
      <trkpt lat="43.45947" lon="3.46452">
        <ele>79</ele>
        <time>2023-12-19T13:50:59Z</time>
      </trkpt>
      <trkpt lat="43.45948" lon="3.46455">
        <ele>79.199996948242</ele>
        <time>2023-12-19T13:51:00Z</time>
      </trkpt>
      <trkpt lat="43.45949" lon="3.46458">
        <ele>79.400001525879</ele>
        <time>2023-12-19T13:51:01Z</time>
      </trkpt>
      <trkpt lat="43.45951" lon="3.46461">
        <ele>79.800003051758</ele>
        <time>2023-12-19T13:51:02Z</time>
      </trkpt>
      <trkpt lat="43.45952" lon="3.46464">
        <ele>80.199996948242</ele>
        <time>2023-12-19T13:51:03Z</time>
      </trkpt>
      <trkpt lat="43.45953" lon="3.46468">
        <ele>80.400001525879</ele>
        <time>2023-12-19T13:51:04Z</time>
      </trkpt>
      <trkpt lat="43.45955" lon="3.46471">
        <ele>80.599998474121</ele>
        <time>2023-12-19T13:51:05Z</time>
      </trkpt>
      <trkpt lat="43.45956" lon="3.46474">
        <ele>81</ele>
        <time>2023-12-19T13:51:06Z</time>
      </trkpt>
      <trkpt lat="43.45958" lon="3.46477">
        <ele>81.400001525879</ele>
        <time>2023-12-19T13:51:07Z</time>
      </trkpt>
      <trkpt lat="43.4596" lon="3.46479">
        <ele>81.800003051758</ele>
        <time>2023-12-19T13:51:08Z</time>
      </trkpt>
      <trkpt lat="43.45961" lon="3.46482">
        <ele>82.199996948242</ele>
        <time>2023-12-19T13:51:09Z</time>
      </trkpt>
      <trkpt lat="43.45963" lon="3.46484">
        <ele>82.599998474121</ele>
        <time>2023-12-19T13:51:10Z</time>
      </trkpt>
      <trkpt lat="43.45964" lon="3.46486">
        <ele>82.800003051758</ele>
        <time>2023-12-19T13:51:11Z</time>
      </trkpt>
      <trkpt lat="43.45966" lon="3.46488">
        <ele>83</ele>
        <time>2023-12-19T13:51:12Z</time>
      </trkpt>
      <trkpt lat="43.45968" lon="3.4649">
        <ele>83.199996948242</ele>
        <time>2023-12-19T13:51:13Z</time>
      </trkpt>
      <trkpt lat="43.4597" lon="3.46492">
        <ele>83.400001525879</ele>
        <time>2023-12-19T13:51:14Z</time>
      </trkpt>
      <trkpt lat="43.45971" lon="3.46494">
        <ele>83.599998474121</ele>
        <time>2023-12-19T13:51:15Z</time>
      </trkpt>
      <trkpt lat="43.45973" lon="3.46495">
        <ele>83.599998474121</ele>
        <time>2023-12-19T13:51:16Z</time>
      </trkpt>
      <trkpt lat="43.45975" lon="3.46497">
        <ele>83.800003051758</ele>
        <time>2023-12-19T13:51:17Z</time>
      </trkpt>
      <trkpt lat="43.45977" lon="3.46499">
        <ele>83.800003051758</ele>
        <time>2023-12-19T13:51:18Z</time>
      </trkpt>
      <trkpt lat="43.4598" lon="3.46501">
        <ele>83.800003051758</ele>
        <time>2023-12-19T13:51:19Z</time>
      </trkpt>
      <trkpt lat="43.45982" lon="3.46502">
        <ele>83.800003051758</ele>
        <time>2023-12-19T13:51:20Z</time>
      </trkpt>
      <trkpt lat="43.45984" lon="3.46504">
        <ele>83.800003051758</ele>
        <time>2023-12-19T13:51:21Z</time>
      </trkpt>
      <trkpt lat="43.45985" lon="3.46506">
        <ele>83.599998474121</ele>
        <time>2023-12-19T13:51:22Z</time>
      </trkpt>
      <trkpt lat="43.45987" lon="3.46508">
        <ele>83.400001525879</ele>
        <time>2023-12-19T13:51:23Z</time>
      </trkpt>
      <trkpt lat="43.45989" lon="3.46511">
        <ele>83.199996948242</ele>
        <time>2023-12-19T13:51:24Z</time>
      </trkpt>
      <trkpt lat="43.4599" lon="3.46513">
        <ele>83.199996948242</ele>
        <time>2023-12-19T13:51:25Z</time>
      </trkpt>
      <trkpt lat="43.45992" lon="3.46515">
        <ele>83</ele>
        <time>2023-12-19T13:51:26Z</time>
      </trkpt>
      <trkpt lat="43.45995" lon="3.46517">
        <ele>83</ele>
        <time>2023-12-19T13:51:27Z</time>
      </trkpt>
      <trkpt lat="43.45997" lon="3.46519">
        <ele>82.800003051758</ele>
        <time>2023-12-19T13:51:28Z</time>
      </trkpt>
      <trkpt lat="43.45999" lon="3.46521">
        <ele>82.599998474121</ele>
        <time>2023-12-19T13:51:29Z</time>
      </trkpt>
      <trkpt lat="43.46" lon="3.46525">
        <ele>82.599998474121</ele>
        <time>2023-12-19T13:51:30Z</time>
      </trkpt>
      <trkpt lat="43.46001" lon="3.46528">
        <ele>82.199996948242</ele>
        <time>2023-12-19T13:51:31Z</time>
      </trkpt>
      <trkpt lat="43.46002" lon="3.4653">
        <ele>81.800003051758</ele>
        <time>2023-12-19T13:51:32Z</time>
      </trkpt>
      <trkpt lat="43.46003" lon="3.46533">
        <ele>81.599998474121</ele>
        <time>2023-12-19T13:51:33Z</time>
      </trkpt>
      <trkpt lat="43.46005" lon="3.46537">
        <ele>81.400001525879</ele>
        <time>2023-12-19T13:51:34Z</time>
      </trkpt>
      <trkpt lat="43.46006" lon="3.4654">
        <ele>81.199996948242</ele>
        <time>2023-12-19T13:51:35Z</time>
      </trkpt>
      <trkpt lat="43.46008" lon="3.46544">
        <ele>81.199996948242</ele>
        <time>2023-12-19T13:51:36Z</time>
      </trkpt>
      <trkpt lat="43.4601" lon="3.46547">
        <ele>81</ele>
        <time>2023-12-19T13:51:37Z</time>
      </trkpt>
      <trkpt lat="43.46013" lon="3.4655">
        <ele>80.800003051758</ele>
        <time>2023-12-19T13:51:38Z</time>
      </trkpt>
      <trkpt lat="43.46016" lon="3.46552">
        <ele>80.199996948242</ele>
        <time>2023-12-19T13:51:39Z</time>
      </trkpt>
      <trkpt lat="43.4602" lon="3.46553">
        <ele>79.800003051758</ele>
        <time>2023-12-19T13:51:40Z</time>
      </trkpt>
      <trkpt lat="43.46023" lon="3.46554">
        <ele>79.199996948242</ele>
        <time>2023-12-19T13:51:41Z</time>
      </trkpt>
      <trkpt lat="43.46026" lon="3.46553">
        <ele>78.599998474121</ele>
        <time>2023-12-19T13:51:42Z</time>
      </trkpt>
      <trkpt lat="43.46028" lon="3.46553">
        <ele>77.800003051758</ele>
        <time>2023-12-19T13:51:43Z</time>
      </trkpt>
      <trkpt lat="43.46031" lon="3.46553">
        <ele>77.199996948242</ele>
        <time>2023-12-19T13:51:44Z</time>
      </trkpt>
      <trkpt lat="43.46035" lon="3.46554">
        <ele>76.400001525879</ele>
        <time>2023-12-19T13:51:45Z</time>
      </trkpt>
      <trkpt lat="43.46038" lon="3.46554">
        <ele>76</ele>
        <time>2023-12-19T13:51:46Z</time>
      </trkpt>
      <trkpt lat="43.46043" lon="3.46554">
        <ele>75.599998474121</ele>
        <time>2023-12-19T13:51:47Z</time>
      </trkpt>
      <trkpt lat="43.46047" lon="3.46553">
        <ele>75</ele>
        <time>2023-12-19T13:51:48Z</time>
      </trkpt>
      <trkpt lat="43.46052" lon="3.46552">
        <ele>74.400001525879</ele>
        <time>2023-12-19T13:51:49Z</time>
      </trkpt>
      <trkpt lat="43.46056" lon="3.46551">
        <ele>73.400001525879</ele>
        <time>2023-12-19T13:51:50Z</time>
      </trkpt>
      <trkpt lat="43.46061" lon="3.46551">
        <ele>72.599998474121</ele>
        <time>2023-12-19T13:51:51Z</time>
      </trkpt>
      <trkpt lat="43.46067" lon="3.46552">
        <ele>71.800003051758</ele>
        <time>2023-12-19T13:51:52Z</time>
      </trkpt>
      <trkpt lat="43.46071" lon="3.46553">
        <ele>70.800003051758</ele>
        <time>2023-12-19T13:51:53Z</time>
      </trkpt>
      <trkpt lat="43.46074" lon="3.46555">
        <ele>70</ele>
        <time>2023-12-19T13:51:54Z</time>
      </trkpt>
      <trkpt lat="43.46078" lon="3.46557">
        <ele>69</ele>
        <time>2023-12-19T13:51:55Z</time>
      </trkpt>
      <trkpt lat="43.46082" lon="3.46557">
        <ele>68.199996948242</ele>
        <time>2023-12-19T13:51:56Z</time>
      </trkpt>
      <trkpt lat="43.46086" lon="3.46557">
        <ele>67.599998474121</ele>
        <time>2023-12-19T13:51:57Z</time>
      </trkpt>
      <trkpt lat="43.4609" lon="3.46555">
        <ele>67.199996948242</ele>
        <time>2023-12-19T13:51:58Z</time>
      </trkpt>
      <trkpt lat="43.46093" lon="3.46552">
        <ele>66.800003051758</ele>
        <time>2023-12-19T13:51:59Z</time>
      </trkpt>
      <trkpt lat="43.46095" lon="3.46549">
        <ele>66.400001525879</ele>
        <time>2023-12-19T13:52:00Z</time>
      </trkpt>
      <trkpt lat="43.46097" lon="3.46546">
        <ele>66.199996948242</ele>
        <time>2023-12-19T13:52:01Z</time>
      </trkpt>
      <trkpt lat="43.46099" lon="3.46544">
        <ele>66.199996948242</ele>
        <time>2023-12-19T13:52:02Z</time>
      </trkpt>
      <trkpt lat="43.46101" lon="3.46541">
        <ele>66.199996948242</ele>
        <time>2023-12-19T13:52:03Z</time>
      </trkpt>
      <trkpt lat="43.46103" lon="3.46538">
        <ele>66.199996948242</ele>
        <time>2023-12-19T13:52:04Z</time>
      </trkpt>
      <trkpt lat="43.46106" lon="3.46535">
        <ele>66.199996948242</ele>
        <time>2023-12-19T13:52:05Z</time>
      </trkpt>
      <trkpt lat="43.46109" lon="3.46533">
        <ele>66.199996948242</ele>
        <time>2023-12-19T13:52:06Z</time>
      </trkpt>
      <trkpt lat="43.46111" lon="3.46531">
        <ele>66.199996948242</ele>
        <time>2023-12-19T13:52:07Z</time>
      </trkpt>
      <trkpt lat="43.46114" lon="3.46528">
        <ele>66.199996948242</ele>
        <time>2023-12-19T13:52:08Z</time>
      </trkpt>
      <trkpt lat="43.46116" lon="3.46525">
        <ele>66.199996948242</ele>
        <time>2023-12-19T13:52:09Z</time>
      </trkpt>
      <trkpt lat="43.46119" lon="3.46522">
        <ele>66.199996948242</ele>
        <time>2023-12-19T13:52:10Z</time>
      </trkpt>
      <trkpt lat="43.46121" lon="3.46519">
        <ele>66.400001525879</ele>
        <time>2023-12-19T13:52:11Z</time>
      </trkpt>
      <trkpt lat="43.46124" lon="3.46516">
        <ele>66.400001525879</ele>
        <time>2023-12-19T13:52:12Z</time>
      </trkpt>
      <trkpt lat="43.46126" lon="3.46513">
        <ele>66.599998474121</ele>
        <time>2023-12-19T13:52:13Z</time>
      </trkpt>
      <trkpt lat="43.46129" lon="3.46509">
        <ele>66.599998474121</ele>
        <time>2023-12-19T13:52:14Z</time>
      </trkpt>
      <trkpt lat="43.46131" lon="3.46506">
        <ele>66.800003051758</ele>
        <time>2023-12-19T13:52:15Z</time>
      </trkpt>
      <trkpt lat="43.46134" lon="3.46503">
        <ele>67</ele>
        <time>2023-12-19T13:52:16Z</time>
      </trkpt>
      <trkpt lat="43.46137" lon="3.465">
        <ele>67</ele>
        <time>2023-12-19T13:52:17Z</time>
      </trkpt>
      <trkpt lat="43.4614" lon="3.46497">
        <ele>67.199996948242</ele>
        <time>2023-12-19T13:52:18Z</time>
      </trkpt>
      <trkpt lat="43.46142" lon="3.46496">
        <ele>67.199996948242</ele>
        <time>2023-12-19T13:52:19Z</time>
      </trkpt>
      <trkpt lat="43.46145" lon="3.46494">
        <ele>67.400001525879</ele>
        <time>2023-12-19T13:52:20Z</time>
      </trkpt>
      <trkpt lat="43.46148" lon="3.46493">
        <ele>67.599998474121</ele>
        <time>2023-12-19T13:52:21Z</time>
      </trkpt>
      <trkpt lat="43.4615" lon="3.46491">
        <ele>67.800003051758</ele>
        <time>2023-12-19T13:52:22Z</time>
      </trkpt>
      <trkpt lat="43.46153" lon="3.4649">
        <ele>68</ele>
        <time>2023-12-19T13:52:23Z</time>
      </trkpt>
      <trkpt lat="43.46157" lon="3.46489">
        <ele>68.199996948242</ele>
        <time>2023-12-19T13:52:24Z</time>
      </trkpt>
      <trkpt lat="43.4616" lon="3.46487">
        <ele>68.199996948242</ele>
        <time>2023-12-19T13:52:25Z</time>
      </trkpt>
      <trkpt lat="43.46164" lon="3.46486">
        <ele>68.400001525879</ele>
        <time>2023-12-19T13:52:26Z</time>
      </trkpt>
      <trkpt lat="43.46168" lon="3.46484">
        <ele>68.400001525879</ele>
        <time>2023-12-19T13:52:27Z</time>
      </trkpt>
      <trkpt lat="43.4617" lon="3.46483">
        <ele>68.400001525879</ele>
        <time>2023-12-19T13:52:28Z</time>
      </trkpt>
      <trkpt lat="43.46173" lon="3.46483">
        <ele>68.199996948242</ele>
        <time>2023-12-19T13:52:29Z</time>
      </trkpt>
      <trkpt lat="43.46175" lon="3.46485">
        <ele>68.199996948242</ele>
        <time>2023-12-19T13:52:30Z</time>
      </trkpt>
      <trkpt lat="43.46175" lon="3.46488">
        <ele>67.800003051758</ele>
        <time>2023-12-19T13:52:31Z</time>
      </trkpt>
      <trkpt lat="43.46175" lon="3.46492">
        <ele>67.599998474121</ele>
        <time>2023-12-19T13:52:32Z</time>
      </trkpt>
      <trkpt lat="43.46175" lon="3.46496">
        <ele>67.400001525879</ele>
        <time>2023-12-19T13:52:33Z</time>
      </trkpt>
      <trkpt lat="43.46175" lon="3.46499">
        <ele>67.400001525879</ele>
        <time>2023-12-19T13:52:34Z</time>
      </trkpt>
      <trkpt lat="43.46174" lon="3.46502">
        <ele>67.400001525879</ele>
        <time>2023-12-19T13:52:35Z</time>
      </trkpt>
      <trkpt lat="43.46174" lon="3.46505">
        <ele>67.400001525879</ele>
        <time>2023-12-19T13:52:36Z</time>
      </trkpt>
      <trkpt lat="43.46174" lon="3.46508">
        <ele>67.599998474121</ele>
        <time>2023-12-19T13:52:37Z</time>
      </trkpt>
      <trkpt lat="43.46174" lon="3.46511">
        <ele>68</ele>
        <time>2023-12-19T13:52:38Z</time>
      </trkpt>
      <trkpt lat="43.46173" lon="3.46514">
        <ele>68.400001525879</ele>
        <time>2023-12-19T13:52:39Z</time>
      </trkpt>
      <trkpt lat="43.46173" lon="3.46517">
        <ele>68.599998474121</ele>
        <time>2023-12-19T13:52:40Z</time>
      </trkpt>
      <trkpt lat="43.46172" lon="3.46519">
        <ele>69</ele>
        <time>2023-12-19T13:52:41Z</time>
      </trkpt>
      <trkpt lat="43.46171" lon="3.46522">
        <ele>69.400001525879</ele>
        <time>2023-12-19T13:52:42Z</time>
      </trkpt>
      <trkpt lat="43.46169" lon="3.46526">
        <ele>69.599998474121</ele>
        <time>2023-12-19T13:52:43Z</time>
      </trkpt>
      <trkpt lat="43.46168" lon="3.46529">
        <ele>70</ele>
        <time>2023-12-19T13:52:44Z</time>
      </trkpt>
      <trkpt lat="43.46167" lon="3.46532">
        <ele>70.199996948242</ele>
        <time>2023-12-19T13:52:45Z</time>
      </trkpt>
      <trkpt lat="43.46165" lon="3.46533">
        <ele>70.599998474121</ele>
        <time>2023-12-19T13:52:46Z</time>
      </trkpt>
      <trkpt lat="43.46163" lon="3.46535">
        <ele>71</ele>
        <time>2023-12-19T13:52:47Z</time>
      </trkpt>
      <trkpt lat="43.46162" lon="3.46537">
        <ele>71.199996948242</ele>
        <time>2023-12-19T13:52:48Z</time>
      </trkpt>
      <trkpt lat="43.4616" lon="3.4654">
        <ele>71.400001525879</ele>
        <time>2023-12-19T13:52:49Z</time>
      </trkpt>
      <trkpt lat="43.46158" lon="3.46542">
        <ele>71.599998474121</ele>
        <time>2023-12-19T13:52:50Z</time>
      </trkpt>
      <trkpt lat="43.46156" lon="3.46545">
        <ele>72</ele>
        <time>2023-12-19T13:52:51Z</time>
      </trkpt>
      <trkpt lat="43.46156" lon="3.46548">
        <ele>72.199996948242</ele>
        <time>2023-12-19T13:52:52Z</time>
      </trkpt>
      <trkpt lat="43.46155" lon="3.46551">
        <ele>72.400001525879</ele>
        <time>2023-12-19T13:52:53Z</time>
      </trkpt>
      <trkpt lat="43.46154" lon="3.46553">
        <ele>72.800003051758</ele>
        <time>2023-12-19T13:52:54Z</time>
      </trkpt>
      <trkpt lat="43.46153" lon="3.46556">
        <ele>73</ele>
        <time>2023-12-19T13:52:55Z</time>
      </trkpt>
      <trkpt lat="43.46152" lon="3.46557">
        <ele>73.400001525879</ele>
        <time>2023-12-19T13:52:56Z</time>
      </trkpt>
      <trkpt lat="43.46151" lon="3.46559">
        <ele>73.800003051758</ele>
        <time>2023-12-19T13:52:57Z</time>
      </trkpt>
      <trkpt lat="43.4615" lon="3.46562">
        <ele>74.199996948242</ele>
        <time>2023-12-19T13:52:58Z</time>
      </trkpt>
      <trkpt lat="43.46148" lon="3.46565">
        <ele>74.400001525879</ele>
        <time>2023-12-19T13:52:59Z</time>
      </trkpt>
      <trkpt lat="43.46146" lon="3.46569">
        <ele>74.599998474121</ele>
        <time>2023-12-19T13:53:00Z</time>
      </trkpt>
      <trkpt lat="43.46145" lon="3.46571">
        <ele>74.599998474121</ele>
        <time>2023-12-19T13:53:01Z</time>
      </trkpt>
      <trkpt lat="43.46144" lon="3.46573">
        <ele>74.800003051758</ele>
        <time>2023-12-19T13:53:02Z</time>
      </trkpt>
      <trkpt lat="43.46143" lon="3.46575">
        <ele>75</ele>
        <time>2023-12-19T13:53:03Z</time>
      </trkpt>
      <trkpt lat="43.46143" lon="3.46576">
        <ele>75.199996948242</ele>
        <time>2023-12-19T13:53:04Z</time>
      </trkpt>
      <trkpt lat="43.46143" lon="3.46576">
        <ele>75.400001525879</ele>
        <time>2023-12-19T13:53:05Z</time>
      </trkpt>
      <trkpt lat="43.46143" lon="3.46575">
        <ele>75.800003051758</ele>
        <time>2023-12-19T13:53:06Z</time>
      </trkpt>
      <trkpt lat="43.46148" lon="3.46563">
        <ele>75.400001525879</ele>
        <time>2023-12-19T13:53:45Z</time>
      </trkpt>
      <trkpt lat="43.46149" lon="3.46561">
        <ele>75.400001525879</ele>
        <time>2023-12-19T13:53:46Z</time>
      </trkpt>
      <trkpt lat="43.46151" lon="3.46558">
        <ele>75.199996948242</ele>
        <time>2023-12-19T13:53:47Z</time>
      </trkpt>
      <trkpt lat="43.46152" lon="3.46555">
        <ele>75</ele>
        <time>2023-12-19T13:53:48Z</time>
      </trkpt>
      <trkpt lat="43.46154" lon="3.46553">
        <ele>74.800003051758</ele>
        <time>2023-12-19T13:53:49Z</time>
      </trkpt>
      <trkpt lat="43.46156" lon="3.46552">
        <ele>74.800003051758</ele>
        <time>2023-12-19T13:53:50Z</time>
      </trkpt>
      <trkpt lat="43.46158" lon="3.4655">
        <ele>74.599998474121</ele>
        <time>2023-12-19T13:53:51Z</time>
      </trkpt>
      <trkpt lat="43.4616" lon="3.46549">
        <ele>74.599998474121</ele>
        <time>2023-12-19T13:53:52Z</time>
      </trkpt>
      <trkpt lat="43.46163" lon="3.46549">
        <ele>74.400001525879</ele>
        <time>2023-12-19T13:53:53Z</time>
      </trkpt>
      <trkpt lat="43.46165" lon="3.4655">
        <ele>74.400001525879</ele>
        <time>2023-12-19T13:53:54Z</time>
      </trkpt>
      <trkpt lat="43.46168" lon="3.46551">
        <ele>74.199996948242</ele>
        <time>2023-12-19T13:53:55Z</time>
      </trkpt>
      <trkpt lat="43.4617" lon="3.46553">
        <ele>74.199996948242</ele>
        <time>2023-12-19T13:53:56Z</time>
      </trkpt>
      <trkpt lat="43.46172" lon="3.46555">
        <ele>74</ele>
        <time>2023-12-19T13:53:57Z</time>
      </trkpt>
      <trkpt lat="43.46174" lon="3.46557">
        <ele>73.800003051758</ele>
        <time>2023-12-19T13:53:58Z</time>
      </trkpt>
      <trkpt lat="43.46176" lon="3.46561">
        <ele>73.800003051758</ele>
        <time>2023-12-19T13:53:59Z</time>
      </trkpt>
      <trkpt lat="43.46179" lon="3.46562">
        <ele>73.800003051758</ele>
        <time>2023-12-19T13:54:00Z</time>
      </trkpt>
      <trkpt lat="43.46181" lon="3.46562">
        <ele>73.800003051758</ele>
        <time>2023-12-19T13:54:01Z</time>
      </trkpt>
      <trkpt lat="43.46183" lon="3.46563">
        <ele>73.800003051758</ele>
        <time>2023-12-19T13:54:02Z</time>
      </trkpt>
      <trkpt lat="43.46185" lon="3.46564">
        <ele>73.800003051758</ele>
        <time>2023-12-19T13:54:03Z</time>
      </trkpt>
      <trkpt lat="43.46186" lon="3.46565">
        <ele>73.800003051758</ele>
        <time>2023-12-19T13:54:04Z</time>
      </trkpt>
      <trkpt lat="43.46186" lon="3.46566">
        <ele>74</ele>
        <time>2023-12-19T13:54:05Z</time>
      </trkpt>
      <trkpt lat="43.46186" lon="3.46565">
        <ele>74</ele>
        <time>2023-12-19T13:54:06Z</time>
      </trkpt>
      <trkpt lat="43.4619" lon="3.46567">
        <ele>74</ele>
        <time>2023-12-19T13:54:40Z</time>
      </trkpt>
      <trkpt lat="43.46191" lon="3.46569">
        <ele>74</ele>
        <time>2023-12-19T13:54:41Z</time>
      </trkpt>
      <trkpt lat="43.46192" lon="3.46571">
        <ele>74.199996948242</ele>
        <time>2023-12-19T13:54:42Z</time>
      </trkpt>
      <trkpt lat="43.46192" lon="3.46572">
        <ele>74.199996948242</ele>
        <time>2023-12-19T13:54:43Z</time>
      </trkpt>
      <trkpt lat="43.46193" lon="3.46573">
        <ele>74.199996948242</ele>
        <time>2023-12-19T13:54:44Z</time>
      </trkpt>
      <trkpt lat="43.46199" lon="3.46594">
        <ele>77.800003051758</ele>
        <time>2023-12-19T13:55:41Z</time>
      </trkpt>
      <trkpt lat="43.46199" lon="3.46596">
        <ele>77.599998474121</ele>
        <time>2023-12-19T13:55:42Z</time>
      </trkpt>
      <trkpt lat="43.462" lon="3.46598">
        <ele>77.599998474121</ele>
        <time>2023-12-19T13:55:43Z</time>
      </trkpt>
      <trkpt lat="43.46202" lon="3.466">
        <ele>77.599998474121</ele>
        <time>2023-12-19T13:55:44Z</time>
      </trkpt>
      <trkpt lat="43.46203" lon="3.46603">
        <ele>77.599998474121</ele>
        <time>2023-12-19T13:55:45Z</time>
      </trkpt>
      <trkpt lat="43.46203" lon="3.46605">
        <ele>77.599998474121</ele>
        <time>2023-12-19T13:55:46Z</time>
      </trkpt>
      <trkpt lat="43.46204" lon="3.46608">
        <ele>77.599998474121</ele>
        <time>2023-12-19T13:55:47Z</time>
      </trkpt>
      <trkpt lat="43.46204" lon="3.4661">
        <ele>77.800003051758</ele>
        <time>2023-12-19T13:55:48Z</time>
      </trkpt>
      <trkpt lat="43.46203" lon="3.46613">
        <ele>77.800003051758</ele>
        <time>2023-12-19T13:55:49Z</time>
      </trkpt>
      <trkpt lat="43.46202" lon="3.46615">
        <ele>78</ele>
        <time>2023-12-19T13:55:50Z</time>
      </trkpt>
      <trkpt lat="43.46202" lon="3.46617">
        <ele>78</ele>
        <time>2023-12-19T13:55:51Z</time>
      </trkpt>
      <trkpt lat="43.46202" lon="3.4662">
        <ele>78.199996948242</ele>
        <time>2023-12-19T13:55:52Z</time>
      </trkpt>
      <trkpt lat="43.46202" lon="3.46622">
        <ele>78.199996948242</ele>
        <time>2023-12-19T13:55:53Z</time>
      </trkpt>
      <trkpt lat="43.46202" lon="3.46624">
        <ele>78.400001525879</ele>
        <time>2023-12-19T13:55:54Z</time>
      </trkpt>
      <trkpt lat="43.46203" lon="3.46627">
        <ele>78.400001525879</ele>
        <time>2023-12-19T13:55:55Z</time>
      </trkpt>
      <trkpt lat="43.46203" lon="3.4663">
        <ele>78.599998474121</ele>
        <time>2023-12-19T13:55:56Z</time>
      </trkpt>
      <trkpt lat="43.46203" lon="3.46633">
        <ele>79</ele>
        <time>2023-12-19T13:55:57Z</time>
      </trkpt>
      <trkpt lat="43.46202" lon="3.46635">
        <ele>79.199996948242</ele>
        <time>2023-12-19T13:55:58Z</time>
      </trkpt>
      <trkpt lat="43.46203" lon="3.46637">
        <ele>79.599998474121</ele>
        <time>2023-12-19T13:55:59Z</time>
      </trkpt>
      <trkpt lat="43.46203" lon="3.4664">
        <ele>79.800003051758</ele>
        <time>2023-12-19T13:56:00Z</time>
      </trkpt>
      <trkpt lat="43.46204" lon="3.46642">
        <ele>80</ele>
        <time>2023-12-19T13:56:01Z</time>
      </trkpt>
      <trkpt lat="43.46206" lon="3.46645">
        <ele>80.199996948242</ele>
        <time>2023-12-19T13:56:02Z</time>
      </trkpt>
      <trkpt lat="43.46207" lon="3.46649">
        <ele>80.599998474121</ele>
        <time>2023-12-19T13:56:03Z</time>
      </trkpt>
      <trkpt lat="43.46209" lon="3.46652">
        <ele>80.800003051758</ele>
        <time>2023-12-19T13:56:04Z</time>
      </trkpt>
      <trkpt lat="43.46211" lon="3.46655">
        <ele>80.800003051758</ele>
        <time>2023-12-19T13:56:05Z</time>
      </trkpt>
      <trkpt lat="43.46213" lon="3.46658">
        <ele>80.800003051758</ele>
        <time>2023-12-19T13:56:06Z</time>
      </trkpt>
      <trkpt lat="43.46216" lon="3.46661">
        <ele>80.800003051758</ele>
        <time>2023-12-19T13:56:07Z</time>
      </trkpt>
      <trkpt lat="43.46218" lon="3.46665">
        <ele>80.800003051758</ele>
        <time>2023-12-19T13:56:08Z</time>
      </trkpt>
      <trkpt lat="43.4622" lon="3.46669">
        <ele>80.599998474121</ele>
        <time>2023-12-19T13:56:09Z</time>
      </trkpt>
      <trkpt lat="43.46221" lon="3.46672">
        <ele>80.199996948242</ele>
        <time>2023-12-19T13:56:10Z</time>
      </trkpt>
      <trkpt lat="43.4622" lon="3.46675">
        <ele>80.199996948242</ele>
        <time>2023-12-19T13:56:11Z</time>
      </trkpt>
      <trkpt lat="43.46219" lon="3.46678">
        <ele>80.199996948242</ele>
        <time>2023-12-19T13:56:12Z</time>
      </trkpt>
      <trkpt lat="43.46217" lon="3.4668">
        <ele>80</ele>
        <time>2023-12-19T13:56:13Z</time>
      </trkpt>
      <trkpt lat="43.46216" lon="3.46682">
        <ele>80</ele>
        <time>2023-12-19T13:56:14Z</time>
      </trkpt>
      <trkpt lat="43.46214" lon="3.46683">
        <ele>80</ele>
        <time>2023-12-19T13:56:15Z</time>
      </trkpt>
      <trkpt lat="43.46213" lon="3.46684">
        <ele>80</ele>
        <time>2023-12-19T13:56:16Z</time>
      </trkpt>
      <trkpt lat="43.46212" lon="3.46685">
        <ele>80.199996948242</ele>
        <time>2023-12-19T13:56:17Z</time>
      </trkpt>
      <trkpt lat="43.4621" lon="3.46687">
        <ele>80.400001525879</ele>
        <time>2023-12-19T13:56:18Z</time>
      </trkpt>
      <trkpt lat="43.46209" lon="3.46688">
        <ele>80.800003051758</ele>
        <time>2023-12-19T13:56:19Z</time>
      </trkpt>
      <trkpt lat="43.46208" lon="3.46689">
        <ele>81.199996948242</ele>
        <time>2023-12-19T13:56:20Z</time>
      </trkpt>
      <trkpt lat="43.46207" lon="3.46689">
        <ele>81.599998474121</ele>
        <time>2023-12-19T13:56:21Z</time>
      </trkpt>
      <trkpt lat="43.46206" lon="3.4669">
        <ele>82</ele>
        <time>2023-12-19T13:56:22Z</time>
      </trkpt>
      <trkpt lat="43.46206" lon="3.4669">
        <ele>82.199996948242</ele>
        <time>2023-12-19T13:56:23Z</time>
      </trkpt>
      <trkpt lat="43.46214" lon="3.46697">
        <ele>81.800003051758</ele>
        <time>2023-12-19T13:57:00Z</time>
      </trkpt>
      <trkpt lat="43.46214" lon="3.467">
        <ele>81.800003051758</ele>
        <time>2023-12-19T13:57:01Z</time>
      </trkpt>
      <trkpt lat="43.46213" lon="3.46703">
        <ele>81.400001525879</ele>
        <time>2023-12-19T13:57:02Z</time>
      </trkpt>
      <trkpt lat="43.46213" lon="3.46707">
        <ele>80.800003051758</ele>
        <time>2023-12-19T13:57:03Z</time>
      </trkpt>
      <trkpt lat="43.46211" lon="3.4671">
        <ele>80.400001525879</ele>
        <time>2023-12-19T13:57:04Z</time>
      </trkpt>
      <trkpt lat="43.4621" lon="3.46713">
        <ele>80.400001525879</ele>
        <time>2023-12-19T13:57:05Z</time>
      </trkpt>
      <trkpt lat="43.46209" lon="3.46716">
        <ele>80.199996948242</ele>
        <time>2023-12-19T13:57:06Z</time>
      </trkpt>
      <trkpt lat="43.46209" lon="3.46719">
        <ele>80.199996948242</ele>
        <time>2023-12-19T13:57:07Z</time>
      </trkpt>
      <trkpt lat="43.46209" lon="3.46722">
        <ele>80.199996948242</ele>
        <time>2023-12-19T13:57:08Z</time>
      </trkpt>
      <trkpt lat="43.46209" lon="3.46725">
        <ele>80.199996948242</ele>
        <time>2023-12-19T13:57:09Z</time>
      </trkpt>
      <trkpt lat="43.46208" lon="3.46727">
        <ele>80.199996948242</ele>
        <time>2023-12-19T13:57:10Z</time>
      </trkpt>
      <trkpt lat="43.46207" lon="3.46729">
        <ele>80.199996948242</ele>
        <time>2023-12-19T13:57:11Z</time>
      </trkpt>
      <trkpt lat="43.46205" lon="3.46732">
        <ele>80</ele>
        <time>2023-12-19T13:57:12Z</time>
      </trkpt>
      <trkpt lat="43.46203" lon="3.46734">
        <ele>80</ele>
        <time>2023-12-19T13:57:13Z</time>
      </trkpt>
      <trkpt lat="43.46202" lon="3.46736">
        <ele>80</ele>
        <time>2023-12-19T13:57:14Z</time>
      </trkpt>
      <trkpt lat="43.46201" lon="3.46739">
        <ele>80</ele>
        <time>2023-12-19T13:57:15Z</time>
      </trkpt>
      <trkpt lat="43.462" lon="3.46741">
        <ele>80</ele>
        <time>2023-12-19T13:57:16Z</time>
      </trkpt>
      <trkpt lat="43.46198" lon="3.46744">
        <ele>80.199996948242</ele>
        <time>2023-12-19T13:57:17Z</time>
      </trkpt>
      <trkpt lat="43.46197" lon="3.46747">
        <ele>80.199996948242</ele>
        <time>2023-12-19T13:57:18Z</time>
      </trkpt>
      <trkpt lat="43.46196" lon="3.46749">
        <ele>80.400001525879</ele>
        <time>2023-12-19T13:57:19Z</time>
      </trkpt>
      <trkpt lat="43.46194" lon="3.4675">
        <ele>80.599998474121</ele>
        <time>2023-12-19T13:57:20Z</time>
      </trkpt>
      <trkpt lat="43.46192" lon="3.46752">
        <ele>80.800003051758</ele>
        <time>2023-12-19T13:57:21Z</time>
      </trkpt>
      <trkpt lat="43.4619" lon="3.46754">
        <ele>80.800003051758</ele>
        <time>2023-12-19T13:57:22Z</time>
      </trkpt>
      <trkpt lat="43.46188" lon="3.46755">
        <ele>81</ele>
        <time>2023-12-19T13:57:23Z</time>
      </trkpt>
      <trkpt lat="43.46186" lon="3.46757">
        <ele>81.199996948242</ele>
        <time>2023-12-19T13:57:24Z</time>
      </trkpt>
      <trkpt lat="43.46184" lon="3.46759">
        <ele>81.400001525879</ele>
        <time>2023-12-19T13:57:25Z</time>
      </trkpt>
      <trkpt lat="43.46182" lon="3.46761">
        <ele>81.599998474121</ele>
        <time>2023-12-19T13:57:26Z</time>
      </trkpt>
      <trkpt lat="43.46181" lon="3.46764">
        <ele>81.800003051758</ele>
        <time>2023-12-19T13:57:27Z</time>
      </trkpt>
      <trkpt lat="43.46179" lon="3.46766">
        <ele>82</ele>
        <time>2023-12-19T13:57:28Z</time>
      </trkpt>
      <trkpt lat="43.46177" lon="3.46768">
        <ele>82.400001525879</ele>
        <time>2023-12-19T13:57:29Z</time>
      </trkpt>
      <trkpt lat="43.46176" lon="3.46771">
        <ele>82.599998474121</ele>
        <time>2023-12-19T13:57:30Z</time>
      </trkpt>
      <trkpt lat="43.46174" lon="3.46773">
        <ele>82.800003051758</ele>
        <time>2023-12-19T13:57:31Z</time>
      </trkpt>
      <trkpt lat="43.46173" lon="3.46775">
        <ele>83</ele>
        <time>2023-12-19T13:57:32Z</time>
      </trkpt>
      <trkpt lat="43.46171" lon="3.46777">
        <ele>83.199996948242</ele>
        <time>2023-12-19T13:57:33Z</time>
      </trkpt>
      <trkpt lat="43.46169" lon="3.46779">
        <ele>83.400001525879</ele>
        <time>2023-12-19T13:57:34Z</time>
      </trkpt>
      <trkpt lat="43.46168" lon="3.46781">
        <ele>83.599998474121</ele>
        <time>2023-12-19T13:57:35Z</time>
      </trkpt>
      <trkpt lat="43.46166" lon="3.46784">
        <ele>84</ele>
        <time>2023-12-19T13:57:36Z</time>
      </trkpt>
      <trkpt lat="43.46164" lon="3.46786">
        <ele>84.199996948242</ele>
        <time>2023-12-19T13:57:37Z</time>
      </trkpt>
      <trkpt lat="43.46162" lon="3.46788">
        <ele>84.400001525879</ele>
        <time>2023-12-19T13:57:38Z</time>
      </trkpt>
      <trkpt lat="43.4616" lon="3.4679">
        <ele>84.599998474121</ele>
        <time>2023-12-19T13:57:39Z</time>
      </trkpt>
      <trkpt lat="43.46158" lon="3.46791">
        <ele>85</ele>
        <time>2023-12-19T13:57:40Z</time>
      </trkpt>
      <trkpt lat="43.46156" lon="3.46794">
        <ele>85.199996948242</ele>
        <time>2023-12-19T13:57:41Z</time>
      </trkpt>
      <trkpt lat="43.46154" lon="3.46796">
        <ele>85.599998474121</ele>
        <time>2023-12-19T13:57:42Z</time>
      </trkpt>
      <trkpt lat="43.46153" lon="3.46798">
        <ele>85.800003051758</ele>
        <time>2023-12-19T13:57:43Z</time>
      </trkpt>
      <trkpt lat="43.46151" lon="3.46802">
        <ele>86</ele>
        <time>2023-12-19T13:57:44Z</time>
      </trkpt>
      <trkpt lat="43.4615" lon="3.46804">
        <ele>86.199996948242</ele>
        <time>2023-12-19T13:57:45Z</time>
      </trkpt>
      <trkpt lat="43.46149" lon="3.46807">
        <ele>86.400001525879</ele>
        <time>2023-12-19T13:57:46Z</time>
      </trkpt>
      <trkpt lat="43.46147" lon="3.46809">
        <ele>86.599998474121</ele>
        <time>2023-12-19T13:57:47Z</time>
      </trkpt>
      <trkpt lat="43.46144" lon="3.46811">
        <ele>87</ele>
        <time>2023-12-19T13:57:48Z</time>
      </trkpt>
      <trkpt lat="43.46142" lon="3.46814">
        <ele>87.199996948242</ele>
        <time>2023-12-19T13:57:49Z</time>
      </trkpt>
      <trkpt lat="43.46141" lon="3.46816">
        <ele>87.400001525879</ele>
        <time>2023-12-19T13:57:50Z</time>
      </trkpt>
      <trkpt lat="43.46139" lon="3.46818">
        <ele>87.400001525879</ele>
        <time>2023-12-19T13:57:51Z</time>
      </trkpt>
      <trkpt lat="43.46137" lon="3.4682">
        <ele>87.599998474121</ele>
        <time>2023-12-19T13:57:52Z</time>
      </trkpt>
      <trkpt lat="43.46135" lon="3.46822">
        <ele>87.599998474121</ele>
        <time>2023-12-19T13:57:53Z</time>
      </trkpt>
      <trkpt lat="43.46134" lon="3.46824">
        <ele>87.800003051758</ele>
        <time>2023-12-19T13:57:54Z</time>
      </trkpt>
      <trkpt lat="43.46133" lon="3.46826">
        <ele>88</ele>
        <time>2023-12-19T13:57:55Z</time>
      </trkpt>
      <trkpt lat="43.46132" lon="3.46829">
        <ele>88</ele>
        <time>2023-12-19T13:57:56Z</time>
      </trkpt>
      <trkpt lat="43.4613" lon="3.46831">
        <ele>88.199996948242</ele>
        <time>2023-12-19T13:57:57Z</time>
      </trkpt>
      <trkpt lat="43.46129" lon="3.46833">
        <ele>88.199996948242</ele>
        <time>2023-12-19T13:57:58Z</time>
      </trkpt>
      <trkpt lat="43.46127" lon="3.46836">
        <ele>88.400001525879</ele>
        <time>2023-12-19T13:57:59Z</time>
      </trkpt>
      <trkpt lat="43.46126" lon="3.46838">
        <ele>88.599998474121</ele>
        <time>2023-12-19T13:58:00Z</time>
      </trkpt>
      <trkpt lat="43.46124" lon="3.4684">
        <ele>88.800003051758</ele>
        <time>2023-12-19T13:58:01Z</time>
      </trkpt>
      <trkpt lat="43.46123" lon="3.46843">
        <ele>88.800003051758</ele>
        <time>2023-12-19T13:58:02Z</time>
      </trkpt>
      <trkpt lat="43.46121" lon="3.46846">
        <ele>89</ele>
        <time>2023-12-19T13:58:03Z</time>
      </trkpt>
      <trkpt lat="43.4612" lon="3.46849">
        <ele>89.199996948242</ele>
        <time>2023-12-19T13:58:04Z</time>
      </trkpt>
      <trkpt lat="43.46118" lon="3.46852">
        <ele>89.400001525879</ele>
        <time>2023-12-19T13:58:05Z</time>
      </trkpt>
      <trkpt lat="43.46116" lon="3.46854">
        <ele>89.400001525879</ele>
        <time>2023-12-19T13:58:06Z</time>
      </trkpt>
      <trkpt lat="43.46113" lon="3.46856">
        <ele>89.599998474121</ele>
        <time>2023-12-19T13:58:07Z</time>
      </trkpt>
      <trkpt lat="43.46112" lon="3.46858">
        <ele>89.599998474121</ele>
        <time>2023-12-19T13:58:08Z</time>
      </trkpt>
      <trkpt lat="43.4611" lon="3.46861">
        <ele>89.599998474121</ele>
        <time>2023-12-19T13:58:09Z</time>
      </trkpt>
      <trkpt lat="43.46108" lon="3.46863">
        <ele>89.800003051758</ele>
        <time>2023-12-19T13:58:10Z</time>
      </trkpt>
      <trkpt lat="43.46107" lon="3.46866">
        <ele>90</ele>
        <time>2023-12-19T13:58:11Z</time>
      </trkpt>
      <trkpt lat="43.46105" lon="3.46869">
        <ele>90.199996948242</ele>
        <time>2023-12-19T13:58:12Z</time>
      </trkpt>
      <trkpt lat="43.46104" lon="3.46872">
        <ele>90.400001525879</ele>
        <time>2023-12-19T13:58:13Z</time>
      </trkpt>
      <trkpt lat="43.46102" lon="3.46875">
        <ele>90.599998474121</ele>
        <time>2023-12-19T13:58:14Z</time>
      </trkpt>
      <trkpt lat="43.46101" lon="3.46877">
        <ele>90.800003051758</ele>
        <time>2023-12-19T13:58:15Z</time>
      </trkpt>
      <trkpt lat="43.46099" lon="3.4688">
        <ele>90.800003051758</ele>
        <time>2023-12-19T13:58:16Z</time>
      </trkpt>
      <trkpt lat="43.46097" lon="3.46882">
        <ele>90.800003051758</ele>
        <time>2023-12-19T13:58:17Z</time>
      </trkpt>
      <trkpt lat="43.46095" lon="3.46884">
        <ele>91</ele>
        <time>2023-12-19T13:58:18Z</time>
      </trkpt>
      <trkpt lat="43.46093" lon="3.46886">
        <ele>91</ele>
        <time>2023-12-19T13:58:19Z</time>
      </trkpt>
      <trkpt lat="43.46091" lon="3.46888">
        <ele>91.199996948242</ele>
        <time>2023-12-19T13:58:20Z</time>
      </trkpt>
      <trkpt lat="43.4609" lon="3.46891">
        <ele>91.199996948242</ele>
        <time>2023-12-19T13:58:21Z</time>
      </trkpt>
      <trkpt lat="43.46089" lon="3.46894">
        <ele>91.400001525879</ele>
        <time>2023-12-19T13:58:22Z</time>
      </trkpt>
      <trkpt lat="43.4609" lon="3.46897">
        <ele>91.599998474121</ele>
        <time>2023-12-19T13:58:23Z</time>
      </trkpt>
      <trkpt lat="43.46089" lon="3.46901">
        <ele>91.800003051758</ele>
        <time>2023-12-19T13:58:24Z</time>
      </trkpt>
      <trkpt lat="43.46088" lon="3.46904">
        <ele>91.800003051758</ele>
        <time>2023-12-19T13:58:25Z</time>
      </trkpt>
      <trkpt lat="43.46086" lon="3.46906">
        <ele>92</ele>
        <time>2023-12-19T13:58:26Z</time>
      </trkpt>
      <trkpt lat="43.46084" lon="3.46909">
        <ele>92</ele>
        <time>2023-12-19T13:58:27Z</time>
      </trkpt>
      <trkpt lat="43.46083" lon="3.46911">
        <ele>92</ele>
        <time>2023-12-19T13:58:28Z</time>
      </trkpt>
      <trkpt lat="43.46082" lon="3.46915">
        <ele>92</ele>
        <time>2023-12-19T13:58:29Z</time>
      </trkpt>
      <trkpt lat="43.46081" lon="3.46918">
        <ele>92</ele>
        <time>2023-12-19T13:58:30Z</time>
      </trkpt>
      <trkpt lat="43.46079" lon="3.46922">
        <ele>92</ele>
        <time>2023-12-19T13:58:31Z</time>
      </trkpt>
      <trkpt lat="43.46077" lon="3.46925">
        <ele>92</ele>
        <time>2023-12-19T13:58:32Z</time>
      </trkpt>
      <trkpt lat="43.46075" lon="3.46928">
        <ele>92</ele>
        <time>2023-12-19T13:58:33Z</time>
      </trkpt>
      <trkpt lat="43.46073" lon="3.46931">
        <ele>92.199996948242</ele>
        <time>2023-12-19T13:58:34Z</time>
      </trkpt>
      <trkpt lat="43.46072" lon="3.46933">
        <ele>92.199996948242</ele>
        <time>2023-12-19T13:58:35Z</time>
      </trkpt>
      <trkpt lat="43.4607" lon="3.46936">
        <ele>92.400001525879</ele>
        <time>2023-12-19T13:58:36Z</time>
      </trkpt>
      <trkpt lat="43.46068" lon="3.46939">
        <ele>92.400001525879</ele>
        <time>2023-12-19T13:58:37Z</time>
      </trkpt>
      <trkpt lat="43.46066" lon="3.46941">
        <ele>92.599998474121</ele>
        <time>2023-12-19T13:58:38Z</time>
      </trkpt>
      <trkpt lat="43.46064" lon="3.46944">
        <ele>92.599998474121</ele>
        <time>2023-12-19T13:58:39Z</time>
      </trkpt>
      <trkpt lat="43.46062" lon="3.46946">
        <ele>92.800003051758</ele>
        <time>2023-12-19T13:58:40Z</time>
      </trkpt>
      <trkpt lat="43.4606" lon="3.46949">
        <ele>92.800003051758</ele>
        <time>2023-12-19T13:58:41Z</time>
      </trkpt>
      <trkpt lat="43.46059" lon="3.46951">
        <ele>93</ele>
        <time>2023-12-19T13:58:42Z</time>
      </trkpt>
      <trkpt lat="43.46057" lon="3.46953">
        <ele>93</ele>
        <time>2023-12-19T13:58:43Z</time>
      </trkpt>
      <trkpt lat="43.46055" lon="3.46956">
        <ele>93.199996948242</ele>
        <time>2023-12-19T13:58:44Z</time>
      </trkpt>
      <trkpt lat="43.46053" lon="3.46958">
        <ele>93.199996948242</ele>
        <time>2023-12-19T13:58:45Z</time>
      </trkpt>
      <trkpt lat="43.46051" lon="3.46961">
        <ele>93.199996948242</ele>
        <time>2023-12-19T13:58:46Z</time>
      </trkpt>
      <trkpt lat="43.46048" lon="3.46963">
        <ele>93.400001525879</ele>
        <time>2023-12-19T13:58:47Z</time>
      </trkpt>
      <trkpt lat="43.46046" lon="3.46965">
        <ele>93.400001525879</ele>
        <time>2023-12-19T13:58:48Z</time>
      </trkpt>
      <trkpt lat="43.46043" lon="3.46967">
        <ele>93.599998474121</ele>
        <time>2023-12-19T13:58:49Z</time>
      </trkpt>
      <trkpt lat="43.46041" lon="3.4697">
        <ele>93.599998474121</ele>
        <time>2023-12-19T13:58:50Z</time>
      </trkpt>
      <trkpt lat="43.46039" lon="3.46972">
        <ele>93.599998474121</ele>
        <time>2023-12-19T13:58:51Z</time>
      </trkpt>
      <trkpt lat="43.46036" lon="3.46975">
        <ele>93.800003051758</ele>
        <time>2023-12-19T13:58:52Z</time>
      </trkpt>
      <trkpt lat="43.46034" lon="3.46976">
        <ele>94</ele>
        <time>2023-12-19T13:58:53Z</time>
      </trkpt>
      <trkpt lat="43.46031" lon="3.46977">
        <ele>94</ele>
        <time>2023-12-19T13:58:54Z</time>
      </trkpt>
      <trkpt lat="43.46029" lon="3.46978">
        <ele>94</ele>
        <time>2023-12-19T13:58:55Z</time>
      </trkpt>
      <trkpt lat="43.46026" lon="3.4698">
        <ele>94.199996948242</ele>
        <time>2023-12-19T13:58:56Z</time>
      </trkpt>
      <trkpt lat="43.46024" lon="3.46982">
        <ele>94.199996948242</ele>
        <time>2023-12-19T13:58:57Z</time>
      </trkpt>
      <trkpt lat="43.46021" lon="3.46985">
        <ele>94.199996948242</ele>
        <time>2023-12-19T13:58:58Z</time>
      </trkpt>
      <trkpt lat="43.46019" lon="3.46987">
        <ele>94.400001525879</ele>
        <time>2023-12-19T13:58:59Z</time>
      </trkpt>
      <trkpt lat="43.46017" lon="3.46989">
        <ele>94.400001525879</ele>
        <time>2023-12-19T13:59:00Z</time>
      </trkpt>
      <trkpt lat="43.46015" lon="3.46992">
        <ele>94.599998474121</ele>
        <time>2023-12-19T13:59:01Z</time>
      </trkpt>
      <trkpt lat="43.46013" lon="3.46993">
        <ele>94.800003051758</ele>
        <time>2023-12-19T13:59:02Z</time>
      </trkpt>
      <trkpt lat="43.46011" lon="3.46995">
        <ele>95</ele>
        <time>2023-12-19T13:59:03Z</time>
      </trkpt>
      <trkpt lat="43.46008" lon="3.46996">
        <ele>95.199996948242</ele>
        <time>2023-12-19T13:59:04Z</time>
      </trkpt>
      <trkpt lat="43.46007" lon="3.46997">
        <ele>95.400001525879</ele>
        <time>2023-12-19T13:59:05Z</time>
      </trkpt>
      <trkpt lat="43.46005" lon="3.46999">
        <ele>95.400001525879</ele>
        <time>2023-12-19T13:59:06Z</time>
      </trkpt>
      <trkpt lat="43.46003" lon="3.47">
        <ele>95.599998474121</ele>
        <time>2023-12-19T13:59:07Z</time>
      </trkpt>
      <trkpt lat="43.46001" lon="3.47001">
        <ele>95.800003051758</ele>
        <time>2023-12-19T13:59:08Z</time>
      </trkpt>
      <trkpt lat="43.45999" lon="3.47003">
        <ele>95.800003051758</ele>
        <time>2023-12-19T13:59:09Z</time>
      </trkpt>
      <trkpt lat="43.45997" lon="3.47006">
        <ele>96</ele>
        <time>2023-12-19T13:59:10Z</time>
      </trkpt>
      <trkpt lat="43.45994" lon="3.47008">
        <ele>96</ele>
        <time>2023-12-19T13:59:11Z</time>
      </trkpt>
      <trkpt lat="43.45992" lon="3.4701">
        <ele>96.199996948242</ele>
        <time>2023-12-19T13:59:12Z</time>
      </trkpt>
      <trkpt lat="43.4599" lon="3.47013">
        <ele>96.199996948242</ele>
        <time>2023-12-19T13:59:13Z</time>
      </trkpt>
      <trkpt lat="43.45987" lon="3.47015">
        <ele>96.400001525879</ele>
        <time>2023-12-19T13:59:14Z</time>
      </trkpt>
      <trkpt lat="43.45984" lon="3.47017">
        <ele>96.400001525879</ele>
        <time>2023-12-19T13:59:15Z</time>
      </trkpt>
      <trkpt lat="43.45982" lon="3.47019">
        <ele>96.400001525879</ele>
        <time>2023-12-19T13:59:16Z</time>
      </trkpt>
      <trkpt lat="43.4598" lon="3.4702">
        <ele>96.400001525879</ele>
        <time>2023-12-19T13:59:17Z</time>
      </trkpt>
      <trkpt lat="43.45979" lon="3.47021">
        <ele>96.400001525879</ele>
        <time>2023-12-19T13:59:18Z</time>
      </trkpt>
      <trkpt lat="43.45977" lon="3.47023">
        <ele>96.400001525879</ele>
        <time>2023-12-19T13:59:19Z</time>
      </trkpt>
      <trkpt lat="43.45975" lon="3.47025">
        <ele>96.400001525879</ele>
        <time>2023-12-19T13:59:20Z</time>
      </trkpt>
      <trkpt lat="43.45974" lon="3.47028">
        <ele>96.400001525879</ele>
        <time>2023-12-19T13:59:21Z</time>
      </trkpt>
      <trkpt lat="43.45973" lon="3.4703">
        <ele>96.400001525879</ele>
        <time>2023-12-19T13:59:22Z</time>
      </trkpt>
      <trkpt lat="43.45971" lon="3.47034">
        <ele>96.400001525879</ele>
        <time>2023-12-19T13:59:23Z</time>
      </trkpt>
      <trkpt lat="43.45969" lon="3.47037">
        <ele>96.400001525879</ele>
        <time>2023-12-19T13:59:24Z</time>
      </trkpt>
      <trkpt lat="43.45968" lon="3.4704">
        <ele>96.400001525879</ele>
        <time>2023-12-19T13:59:25Z</time>
      </trkpt>
      <trkpt lat="43.45965" lon="3.47044">
        <ele>96.400001525879</ele>
        <time>2023-12-19T13:59:26Z</time>
      </trkpt>
      <trkpt lat="43.45963" lon="3.47048">
        <ele>96.400001525879</ele>
        <time>2023-12-19T13:59:27Z</time>
      </trkpt>
      <trkpt lat="43.45962" lon="3.47052">
        <ele>96.400001525879</ele>
        <time>2023-12-19T13:59:28Z</time>
      </trkpt>
      <trkpt lat="43.45959" lon="3.47056">
        <ele>96.199996948242</ele>
        <time>2023-12-19T13:59:29Z</time>
      </trkpt>
      <trkpt lat="43.45957" lon="3.4706">
        <ele>95.800003051758</ele>
        <time>2023-12-19T13:59:30Z</time>
      </trkpt>
      <trkpt lat="43.45954" lon="3.47064">
        <ele>95.599998474121</ele>
        <time>2023-12-19T13:59:31Z</time>
      </trkpt>
      <trkpt lat="43.45951" lon="3.47069">
        <ele>95.400001525879</ele>
        <time>2023-12-19T13:59:32Z</time>
      </trkpt>
      <trkpt lat="43.45949" lon="3.47073">
        <ele>95</ele>
        <time>2023-12-19T13:59:33Z</time>
      </trkpt>
      <trkpt lat="43.45946" lon="3.47077">
        <ele>94.800003051758</ele>
        <time>2023-12-19T13:59:34Z</time>
      </trkpt>
      <trkpt lat="43.45944" lon="3.47081">
        <ele>94.599998474121</ele>
        <time>2023-12-19T13:59:35Z</time>
      </trkpt>
      <trkpt lat="43.45941" lon="3.47085">
        <ele>94.599998474121</ele>
        <time>2023-12-19T13:59:36Z</time>
      </trkpt>
      <trkpt lat="43.45938" lon="3.47089">
        <ele>94.599998474121</ele>
        <time>2023-12-19T13:59:37Z</time>
      </trkpt>
      <trkpt lat="43.45935" lon="3.47093">
        <ele>94.599998474121</ele>
        <time>2023-12-19T13:59:38Z</time>
      </trkpt>
      <trkpt lat="43.45932" lon="3.47096">
        <ele>94.599998474121</ele>
        <time>2023-12-19T13:59:39Z</time>
      </trkpt>
      <trkpt lat="43.45929" lon="3.47099">
        <ele>94.599998474121</ele>
        <time>2023-12-19T13:59:40Z</time>
      </trkpt>
      <trkpt lat="43.45927" lon="3.47103">
        <ele>94.800003051758</ele>
        <time>2023-12-19T13:59:41Z</time>
      </trkpt>
      <trkpt lat="43.45926" lon="3.47108">
        <ele>94.800003051758</ele>
        <time>2023-12-19T13:59:42Z</time>
      </trkpt>
      <trkpt lat="43.45927" lon="3.47112">
        <ele>95</ele>
        <time>2023-12-19T13:59:43Z</time>
      </trkpt>
      <trkpt lat="43.45928" lon="3.47116">
        <ele>95.199996948242</ele>
        <time>2023-12-19T13:59:44Z</time>
      </trkpt>
      <trkpt lat="43.4593" lon="3.4712">
        <ele>95.199996948242</ele>
        <time>2023-12-19T13:59:45Z</time>
      </trkpt>
      <trkpt lat="43.45931" lon="3.47124">
        <ele>95.199996948242</ele>
        <time>2023-12-19T13:59:46Z</time>
      </trkpt>
      <trkpt lat="43.45933" lon="3.47126">
        <ele>95.199996948242</ele>
        <time>2023-12-19T13:59:47Z</time>
      </trkpt>
      <trkpt lat="43.45935" lon="3.47125">
        <ele>95</ele>
        <time>2023-12-19T13:59:48Z</time>
      </trkpt>
      <trkpt lat="43.45936" lon="3.47123">
        <ele>94.599998474121</ele>
        <time>2023-12-19T13:59:49Z</time>
      </trkpt>
      <trkpt lat="43.45938" lon="3.47121">
        <ele>94.199996948242</ele>
        <time>2023-12-19T13:59:50Z</time>
      </trkpt>
      <trkpt lat="43.45938" lon="3.4712">
        <ele>93.800003051758</ele>
        <time>2023-12-19T13:59:51Z</time>
      </trkpt>
      <trkpt lat="43.45938" lon="3.47119">
        <ele>93.599998474121</ele>
        <time>2023-12-19T13:59:52Z</time>
      </trkpt>
      <trkpt lat="43.45939" lon="3.47119">
        <ele>93.199996948242</ele>
        <time>2023-12-19T13:59:53Z</time>
      </trkpt>
      <trkpt lat="43.4594" lon="3.47118">
        <ele>93.199996948242</ele>
        <time>2023-12-19T13:59:54Z</time>
      </trkpt>
      <trkpt lat="43.45941" lon="3.47117">
        <ele>93</ele>
        <time>2023-12-19T13:59:55Z</time>
      </trkpt>
      <trkpt lat="43.4594" lon="3.47116">
        <ele>93</ele>
        <time>2023-12-19T13:59:56Z</time>
      </trkpt>
      <trkpt lat="43.45939" lon="3.47116">
        <ele>92.800003051758</ele>
        <time>2023-12-19T13:59:57Z</time>
      </trkpt>
      <trkpt lat="43.45938" lon="3.47116">
        <ele>92.800003051758</ele>
        <time>2023-12-19T13:59:58Z</time>
      </trkpt>
      <trkpt lat="43.45937" lon="3.47118">
        <ele>92.800003051758</ele>
        <time>2023-12-19T13:59:59Z</time>
      </trkpt>
      <trkpt lat="43.45937" lon="3.47121">
        <ele>92.800003051758</ele>
        <time>2023-12-19T14:00:00Z</time>
      </trkpt>
      <trkpt lat="43.45936" lon="3.47126">
        <ele>92.800003051758</ele>
        <time>2023-12-19T14:00:01Z</time>
      </trkpt>
      <trkpt lat="43.45937" lon="3.47129">
        <ele>92.800003051758</ele>
        <time>2023-12-19T14:00:02Z</time>
      </trkpt>
      <trkpt lat="43.45939" lon="3.47131">
        <ele>92.800003051758</ele>
        <time>2023-12-19T14:00:03Z</time>
      </trkpt>
      <trkpt lat="43.45942" lon="3.4713">
        <ele>92.800003051758</ele>
        <time>2023-12-19T14:00:04Z</time>
      </trkpt>
      <trkpt lat="43.45945" lon="3.47129">
        <ele>92.800003051758</ele>
        <time>2023-12-19T14:00:05Z</time>
      </trkpt>
      <trkpt lat="43.4595" lon="3.47128">
        <ele>92.800003051758</ele>
        <time>2023-12-19T14:00:06Z</time>
      </trkpt>
      <trkpt lat="43.45955" lon="3.47127">
        <ele>92.800003051758</ele>
        <time>2023-12-19T14:00:07Z</time>
      </trkpt>
      <trkpt lat="43.45958" lon="3.4713">
        <ele>92.599998474121</ele>
        <time>2023-12-19T14:00:08Z</time>
      </trkpt>
      <trkpt lat="43.4596" lon="3.47134">
        <ele>92.599998474121</ele>
        <time>2023-12-19T14:00:09Z</time>
      </trkpt>
      <trkpt lat="43.45961" lon="3.47139">
        <ele>92.599998474121</ele>
        <time>2023-12-19T14:00:10Z</time>
      </trkpt>
      <trkpt lat="43.45962" lon="3.47145">
        <ele>92.800003051758</ele>
        <time>2023-12-19T14:00:11Z</time>
      </trkpt>
      <trkpt lat="43.45963" lon="3.47151">
        <ele>92.800003051758</ele>
        <time>2023-12-19T14:00:12Z</time>
      </trkpt>
      <trkpt lat="43.45964" lon="3.47156">
        <ele>93.199996948242</ele>
        <time>2023-12-19T14:00:13Z</time>
      </trkpt>
      <trkpt lat="43.45966" lon="3.47159">
        <ele>93.599998474121</ele>
        <time>2023-12-19T14:00:14Z</time>
      </trkpt>
      <trkpt lat="43.45968" lon="3.47162">
        <ele>93.800003051758</ele>
        <time>2023-12-19T14:00:15Z</time>
      </trkpt>
      <trkpt lat="43.45969" lon="3.47165">
        <ele>94.199996948242</ele>
        <time>2023-12-19T14:00:16Z</time>
      </trkpt>
      <trkpt lat="43.45971" lon="3.47169">
        <ele>94.800003051758</ele>
        <time>2023-12-19T14:00:17Z</time>
      </trkpt>
      <trkpt lat="43.45973" lon="3.47172">
        <ele>95.400001525879</ele>
        <time>2023-12-19T14:00:18Z</time>
      </trkpt>
      <trkpt lat="43.45974" lon="3.47175">
        <ele>95.800003051758</ele>
        <time>2023-12-19T14:00:19Z</time>
      </trkpt>
      <trkpt lat="43.45976" lon="3.47178">
        <ele>96</ele>
        <time>2023-12-19T14:00:20Z</time>
      </trkpt>
      <trkpt lat="43.45978" lon="3.4718">
        <ele>96.199996948242</ele>
        <time>2023-12-19T14:00:21Z</time>
      </trkpt>
      <trkpt lat="43.4598" lon="3.47182">
        <ele>96.400001525879</ele>
        <time>2023-12-19T14:00:22Z</time>
      </trkpt>
      <trkpt lat="43.45982" lon="3.47184">
        <ele>96.599998474121</ele>
        <time>2023-12-19T14:00:23Z</time>
      </trkpt>
      <trkpt lat="43.45984" lon="3.47185">
        <ele>97</ele>
        <time>2023-12-19T14:00:24Z</time>
      </trkpt>
      <trkpt lat="43.45986" lon="3.47185">
        <ele>97.199996948242</ele>
        <time>2023-12-19T14:00:25Z</time>
      </trkpt>
      <trkpt lat="43.45989" lon="3.47184">
        <ele>98</ele>
        <time>2023-12-19T14:00:26Z</time>
      </trkpt>
      <trkpt lat="43.45991" lon="3.47184">
        <ele>98.199996948242</ele>
        <time>2023-12-19T14:00:27Z</time>
      </trkpt>
      <trkpt lat="43.45994" lon="3.47184">
        <ele>98.400001525879</ele>
        <time>2023-12-19T14:00:28Z</time>
      </trkpt>
      <trkpt lat="43.45996" lon="3.47183">
        <ele>98.400001525879</ele>
        <time>2023-12-19T14:00:29Z</time>
      </trkpt>
      <trkpt lat="43.45998" lon="3.47183">
        <ele>98.599998474121</ele>
        <time>2023-12-19T14:00:30Z</time>
      </trkpt>
      <trkpt lat="43.46" lon="3.47182">
        <ele>98.599998474121</ele>
        <time>2023-12-19T14:00:31Z</time>
      </trkpt>
      <trkpt lat="43.46001" lon="3.47182">
        <ele>98.599998474121</ele>
        <time>2023-12-19T14:00:32Z</time>
      </trkpt>
      <trkpt lat="43.46003" lon="3.47181">
        <ele>98.599998474121</ele>
        <time>2023-12-19T14:00:33Z</time>
      </trkpt>
      <trkpt lat="43.46006" lon="3.4718">
        <ele>98.599998474121</ele>
        <time>2023-12-19T14:00:34Z</time>
      </trkpt>
      <trkpt lat="43.46008" lon="3.47179">
        <ele>98.599998474121</ele>
        <time>2023-12-19T14:00:35Z</time>
      </trkpt>
      <trkpt lat="43.46011" lon="3.47177">
        <ele>98.599998474121</ele>
        <time>2023-12-19T14:00:36Z</time>
      </trkpt>
      <trkpt lat="43.46014" lon="3.47175">
        <ele>98.400001525879</ele>
        <time>2023-12-19T14:00:37Z</time>
      </trkpt>
      <trkpt lat="43.46017" lon="3.47174">
        <ele>98.400001525879</ele>
        <time>2023-12-19T14:00:38Z</time>
      </trkpt>
      <trkpt lat="43.4602" lon="3.47173">
        <ele>98.199996948242</ele>
        <time>2023-12-19T14:00:39Z</time>
      </trkpt>
      <trkpt lat="43.46023" lon="3.47172">
        <ele>98.199996948242</ele>
        <time>2023-12-19T14:00:40Z</time>
      </trkpt>
      <trkpt lat="43.46026" lon="3.47172">
        <ele>98.199996948242</ele>
        <time>2023-12-19T14:00:41Z</time>
      </trkpt>
      <trkpt lat="43.4603" lon="3.47173">
        <ele>98.199996948242</ele>
        <time>2023-12-19T14:00:42Z</time>
      </trkpt>
      <trkpt lat="43.46033" lon="3.47174">
        <ele>98.199996948242</ele>
        <time>2023-12-19T14:00:43Z</time>
      </trkpt>
      <trkpt lat="43.46036" lon="3.47174">
        <ele>98.199996948242</ele>
        <time>2023-12-19T14:00:44Z</time>
      </trkpt>
      <trkpt lat="43.46038" lon="3.47176">
        <ele>98</ele>
        <time>2023-12-19T14:00:45Z</time>
      </trkpt>
      <trkpt lat="43.4604" lon="3.47178">
        <ele>98</ele>
        <time>2023-12-19T14:00:46Z</time>
      </trkpt>
      <trkpt lat="43.46041" lon="3.47181">
        <ele>98</ele>
        <time>2023-12-19T14:00:47Z</time>
      </trkpt>
      <trkpt lat="43.46041" lon="3.47184">
        <ele>98</ele>
        <time>2023-12-19T14:00:48Z</time>
      </trkpt>
      <trkpt lat="43.46042" lon="3.47187">
        <ele>98</ele>
        <time>2023-12-19T14:00:49Z</time>
      </trkpt>
      <trkpt lat="43.46042" lon="3.4719">
        <ele>98.199996948242</ele>
        <time>2023-12-19T14:00:50Z</time>
      </trkpt>
      <trkpt lat="43.46043" lon="3.47194">
        <ele>98.400001525879</ele>
        <time>2023-12-19T14:00:51Z</time>
      </trkpt>
      <trkpt lat="43.46044" lon="3.47197">
        <ele>98.400001525879</ele>
        <time>2023-12-19T14:00:52Z</time>
      </trkpt>
      <trkpt lat="43.46043" lon="3.47201">
        <ele>98.599998474121</ele>
        <time>2023-12-19T14:00:53Z</time>
      </trkpt>
      <trkpt lat="43.46043" lon="3.47205">
        <ele>98.800003051758</ele>
        <time>2023-12-19T14:00:54Z</time>
      </trkpt>
      <trkpt lat="43.46043" lon="3.47208">
        <ele>98.800003051758</ele>
        <time>2023-12-19T14:00:55Z</time>
      </trkpt>
      <trkpt lat="43.46045" lon="3.47211">
        <ele>99</ele>
        <time>2023-12-19T14:00:56Z</time>
      </trkpt>
      <trkpt lat="43.46045" lon="3.47214">
        <ele>99.199996948242</ele>
        <time>2023-12-19T14:00:57Z</time>
      </trkpt>
      <trkpt lat="43.46046" lon="3.47217">
        <ele>99.400001525879</ele>
        <time>2023-12-19T14:00:58Z</time>
      </trkpt>
      <trkpt lat="43.46048" lon="3.47221">
        <ele>99.599998474121</ele>
        <time>2023-12-19T14:00:59Z</time>
      </trkpt>
      <trkpt lat="43.46051" lon="3.47224">
        <ele>99.800003051758</ele>
        <time>2023-12-19T14:01:00Z</time>
      </trkpt>
      <trkpt lat="43.46054" lon="3.47225">
        <ele>100</ele>
        <time>2023-12-19T14:01:01Z</time>
      </trkpt>
      <trkpt lat="43.46056" lon="3.47226">
        <ele>100.59999847412</ele>
        <time>2023-12-19T14:01:02Z</time>
      </trkpt>
      <trkpt lat="43.46059" lon="3.47227">
        <ele>101</ele>
        <time>2023-12-19T14:01:03Z</time>
      </trkpt>
      <trkpt lat="43.46061" lon="3.47228">
        <ele>101.40000152588</ele>
        <time>2023-12-19T14:01:04Z</time>
      </trkpt>
      <trkpt lat="43.46063" lon="3.47229">
        <ele>101.80000305176</ele>
        <time>2023-12-19T14:01:05Z</time>
      </trkpt>
      <trkpt lat="43.46066" lon="3.4723">
        <ele>101.80000305176</ele>
        <time>2023-12-19T14:01:06Z</time>
      </trkpt>
      <trkpt lat="43.46068" lon="3.47232">
        <ele>102</ele>
        <time>2023-12-19T14:01:07Z</time>
      </trkpt>
      <trkpt lat="43.46071" lon="3.47234">
        <ele>102</ele>
        <time>2023-12-19T14:01:08Z</time>
      </trkpt>
      <trkpt lat="43.46074" lon="3.47236">
        <ele>102.19999694824</ele>
        <time>2023-12-19T14:01:09Z</time>
      </trkpt>
      <trkpt lat="43.46077" lon="3.47238">
        <ele>102.40000152588</ele>
        <time>2023-12-19T14:01:10Z</time>
      </trkpt>
      <trkpt lat="43.46079" lon="3.47238">
        <ele>102.59999847412</ele>
        <time>2023-12-19T14:01:11Z</time>
      </trkpt>
      <trkpt lat="43.46082" lon="3.47239">
        <ele>102.59999847412</ele>
        <time>2023-12-19T14:01:12Z</time>
      </trkpt>
      <trkpt lat="43.46085" lon="3.47239">
        <ele>102.80000305176</ele>
        <time>2023-12-19T14:01:13Z</time>
      </trkpt>
      <trkpt lat="43.46088" lon="3.4724">
        <ele>102.80000305176</ele>
        <time>2023-12-19T14:01:14Z</time>
      </trkpt>
      <trkpt lat="43.4609" lon="3.47241">
        <ele>102.80000305176</ele>
        <time>2023-12-19T14:01:15Z</time>
      </trkpt>
      <trkpt lat="43.46093" lon="3.47242">
        <ele>102.80000305176</ele>
        <time>2023-12-19T14:01:16Z</time>
      </trkpt>
      <trkpt lat="43.46096" lon="3.47243">
        <ele>103</ele>
        <time>2023-12-19T14:01:17Z</time>
      </trkpt>
      <trkpt lat="43.46099" lon="3.47243">
        <ele>103</ele>
        <time>2023-12-19T14:01:18Z</time>
      </trkpt>
      <trkpt lat="43.46102" lon="3.47244">
        <ele>103</ele>
        <time>2023-12-19T14:01:19Z</time>
      </trkpt>
      <trkpt lat="43.46105" lon="3.47245">
        <ele>103</ele>
        <time>2023-12-19T14:01:20Z</time>
      </trkpt>
      <trkpt lat="43.46108" lon="3.47245">
        <ele>103.19999694824</ele>
        <time>2023-12-19T14:01:21Z</time>
      </trkpt>
      <trkpt lat="43.46111" lon="3.47245">
        <ele>103.19999694824</ele>
        <time>2023-12-19T14:01:22Z</time>
      </trkpt>
      <trkpt lat="43.46114" lon="3.47245">
        <ele>103.19999694824</ele>
        <time>2023-12-19T14:01:23Z</time>
      </trkpt>
      <trkpt lat="43.46117" lon="3.47244">
        <ele>103.19999694824</ele>
        <time>2023-12-19T14:01:24Z</time>
      </trkpt>
      <trkpt lat="43.4612" lon="3.47244">
        <ele>103.19999694824</ele>
        <time>2023-12-19T14:01:25Z</time>
      </trkpt>
      <trkpt lat="43.46123" lon="3.47244">
        <ele>103</ele>
        <time>2023-12-19T14:01:26Z</time>
      </trkpt>
      <trkpt lat="43.46126" lon="3.47244">
        <ele>102.80000305176</ele>
        <time>2023-12-19T14:01:27Z</time>
      </trkpt>
      <trkpt lat="43.46129" lon="3.47245">
        <ele>102.80000305176</ele>
        <time>2023-12-19T14:01:28Z</time>
      </trkpt>
      <trkpt lat="43.46132" lon="3.47246">
        <ele>102.80000305176</ele>
        <time>2023-12-19T14:01:29Z</time>
      </trkpt>
      <trkpt lat="43.46135" lon="3.47247">
        <ele>102.80000305176</ele>
        <time>2023-12-19T14:01:30Z</time>
      </trkpt>
      <trkpt lat="43.46138" lon="3.47248">
        <ele>103</ele>
        <time>2023-12-19T14:01:31Z</time>
      </trkpt>
      <trkpt lat="43.46141" lon="3.47251">
        <ele>103</ele>
        <time>2023-12-19T14:01:32Z</time>
      </trkpt>
      <trkpt lat="43.46143" lon="3.47254">
        <ele>103</ele>
        <time>2023-12-19T14:01:33Z</time>
      </trkpt>
      <trkpt lat="43.46146" lon="3.47256">
        <ele>103</ele>
        <time>2023-12-19T14:01:34Z</time>
      </trkpt>
      <trkpt lat="43.46149" lon="3.47258">
        <ele>103</ele>
        <time>2023-12-19T14:01:35Z</time>
      </trkpt>
      <trkpt lat="43.46152" lon="3.47258">
        <ele>102.80000305176</ele>
        <time>2023-12-19T14:01:36Z</time>
      </trkpt>
      <trkpt lat="43.46155" lon="3.47258">
        <ele>102.80000305176</ele>
        <time>2023-12-19T14:01:37Z</time>
      </trkpt>
      <trkpt lat="43.46158" lon="3.47258">
        <ele>102.80000305176</ele>
        <time>2023-12-19T14:01:38Z</time>
      </trkpt>
      <trkpt lat="43.46162" lon="3.47258">
        <ele>102.80000305176</ele>
        <time>2023-12-19T14:01:39Z</time>
      </trkpt>
      <trkpt lat="43.46166" lon="3.47257">
        <ele>102.59999847412</ele>
        <time>2023-12-19T14:01:40Z</time>
      </trkpt>
      <trkpt lat="43.46169" lon="3.47257">
        <ele>102.40000152588</ele>
        <time>2023-12-19T14:01:41Z</time>
      </trkpt>
      <trkpt lat="43.46171" lon="3.47257">
        <ele>102.19999694824</ele>
        <time>2023-12-19T14:01:42Z</time>
      </trkpt>
      <trkpt lat="43.46174" lon="3.47257">
        <ele>101.80000305176</ele>
        <time>2023-12-19T14:01:43Z</time>
      </trkpt>
      <trkpt lat="43.46177" lon="3.47257">
        <ele>101.40000152588</ele>
        <time>2023-12-19T14:01:44Z</time>
      </trkpt>
      <trkpt lat="43.46179" lon="3.47259">
        <ele>101.19999694824</ele>
        <time>2023-12-19T14:01:45Z</time>
      </trkpt>
      <trkpt lat="43.46182" lon="3.47261">
        <ele>101</ele>
        <time>2023-12-19T14:01:46Z</time>
      </trkpt>
      <trkpt lat="43.46184" lon="3.47263">
        <ele>101</ele>
        <time>2023-12-19T14:01:47Z</time>
      </trkpt>
      <trkpt lat="43.46187" lon="3.47262">
        <ele>100.80000305176</ele>
        <time>2023-12-19T14:01:48Z</time>
      </trkpt>
      <trkpt lat="43.46189" lon="3.47262">
        <ele>100.59999847412</ele>
        <time>2023-12-19T14:01:49Z</time>
      </trkpt>
      <trkpt lat="43.46191" lon="3.47262">
        <ele>100.59999847412</ele>
        <time>2023-12-19T14:01:50Z</time>
      </trkpt>
      <trkpt lat="43.46192" lon="3.47262">
        <ele>100.40000152588</ele>
        <time>2023-12-19T14:01:51Z</time>
      </trkpt>
      <trkpt lat="43.46194" lon="3.47262">
        <ele>100.40000152588</ele>
        <time>2023-12-19T14:01:52Z</time>
      </trkpt>
      <trkpt lat="43.46196" lon="3.47263">
        <ele>100.19999694824</ele>
        <time>2023-12-19T14:01:53Z</time>
      </trkpt>
      <trkpt lat="43.46198" lon="3.47263">
        <ele>100</ele>
        <time>2023-12-19T14:01:54Z</time>
      </trkpt>
      <trkpt lat="43.462" lon="3.47264">
        <ele>100</ele>
        <time>2023-12-19T14:01:55Z</time>
      </trkpt>
      <trkpt lat="43.46202" lon="3.47264">
        <ele>99.800003051758</ele>
        <time>2023-12-19T14:01:56Z</time>
      </trkpt>
      <trkpt lat="43.46205" lon="3.47265">
        <ele>99.800003051758</ele>
        <time>2023-12-19T14:01:57Z</time>
      </trkpt>
      <trkpt lat="43.46209" lon="3.47266">
        <ele>99.599998474121</ele>
        <time>2023-12-19T14:01:58Z</time>
      </trkpt>
      <trkpt lat="43.46212" lon="3.47266">
        <ele>99.599998474121</ele>
        <time>2023-12-19T14:01:59Z</time>
      </trkpt>
      <trkpt lat="43.46215" lon="3.47266">
        <ele>99.599998474121</ele>
        <time>2023-12-19T14:02:00Z</time>
      </trkpt>
      <trkpt lat="43.46218" lon="3.47265">
        <ele>99.400001525879</ele>
        <time>2023-12-19T14:02:01Z</time>
      </trkpt>
      <trkpt lat="43.4622" lon="3.47265">
        <ele>99</ele>
        <time>2023-12-19T14:02:02Z</time>
      </trkpt>
      <trkpt lat="43.46222" lon="3.47265">
        <ele>98.599998474121</ele>
        <time>2023-12-19T14:02:03Z</time>
      </trkpt>
      <trkpt lat="43.46225" lon="3.47264">
        <ele>98.400001525879</ele>
        <time>2023-12-19T14:02:04Z</time>
      </trkpt>
      <trkpt lat="43.46229" lon="3.47263">
        <ele>98.199996948242</ele>
        <time>2023-12-19T14:02:05Z</time>
      </trkpt>
      <trkpt lat="43.46233" lon="3.47261">
        <ele>98</ele>
        <time>2023-12-19T14:02:06Z</time>
      </trkpt>
      <trkpt lat="43.46236" lon="3.47257">
        <ele>97.800003051758</ele>
        <time>2023-12-19T14:02:07Z</time>
      </trkpt>
      <trkpt lat="43.46238" lon="3.47253">
        <ele>97.400001525879</ele>
        <time>2023-12-19T14:02:08Z</time>
      </trkpt>
      <trkpt lat="43.4624" lon="3.47248">
        <ele>97.199996948242</ele>
        <time>2023-12-19T14:02:09Z</time>
      </trkpt>
      <trkpt lat="43.46243" lon="3.47245">
        <ele>96.800003051758</ele>
        <time>2023-12-19T14:02:10Z</time>
      </trkpt>
      <trkpt lat="43.46246" lon="3.47242">
        <ele>96.199996948242</ele>
        <time>2023-12-19T14:02:11Z</time>
      </trkpt>
      <trkpt lat="43.46249" lon="3.47242">
        <ele>95.599998474121</ele>
        <time>2023-12-19T14:02:12Z</time>
      </trkpt>
      <trkpt lat="43.46253" lon="3.47242">
        <ele>94.800003051758</ele>
        <time>2023-12-19T14:02:13Z</time>
      </trkpt>
      <trkpt lat="43.46257" lon="3.47243">
        <ele>94.400001525879</ele>
        <time>2023-12-19T14:02:14Z</time>
      </trkpt>
      <trkpt lat="43.4626" lon="3.47245">
        <ele>94.199996948242</ele>
        <time>2023-12-19T14:02:15Z</time>
      </trkpt>
      <trkpt lat="43.46264" lon="3.47246">
        <ele>94</ele>
        <time>2023-12-19T14:02:16Z</time>
      </trkpt>
      <trkpt lat="43.46266" lon="3.47246">
        <ele>93.599998474121</ele>
        <time>2023-12-19T14:02:17Z</time>
      </trkpt>
      <trkpt lat="43.46268" lon="3.47247">
        <ele>93.199996948242</ele>
        <time>2023-12-19T14:02:18Z</time>
      </trkpt>
      <trkpt lat="43.4627" lon="3.47249">
        <ele>92.599998474121</ele>
        <time>2023-12-19T14:02:19Z</time>
      </trkpt>
      <trkpt lat="43.46271" lon="3.47252">
        <ele>92.199996948242</ele>
        <time>2023-12-19T14:02:20Z</time>
      </trkpt>
      <trkpt lat="43.46272" lon="3.47254">
        <ele>92.199996948242</ele>
        <time>2023-12-19T14:02:21Z</time>
      </trkpt>
      <trkpt lat="43.46272" lon="3.47257">
        <ele>92.199996948242</ele>
        <time>2023-12-19T14:02:22Z</time>
      </trkpt>
      <trkpt lat="43.46272" lon="3.4726">
        <ele>92.199996948242</ele>
        <time>2023-12-19T14:02:23Z</time>
      </trkpt>
      <trkpt lat="43.46273" lon="3.47263">
        <ele>92.199996948242</ele>
        <time>2023-12-19T14:02:24Z</time>
      </trkpt>
      <trkpt lat="43.46272" lon="3.47266">
        <ele>92.199996948242</ele>
        <time>2023-12-19T14:02:25Z</time>
      </trkpt>
      <trkpt lat="43.46271" lon="3.47269">
        <ele>92.199996948242</ele>
        <time>2023-12-19T14:02:26Z</time>
      </trkpt>
      <trkpt lat="43.4627" lon="3.47272">
        <ele>92.199996948242</ele>
        <time>2023-12-19T14:02:27Z</time>
      </trkpt>
      <trkpt lat="43.46268" lon="3.47275">
        <ele>92.199996948242</ele>
        <time>2023-12-19T14:02:28Z</time>
      </trkpt>
      <trkpt lat="43.46266" lon="3.47276">
        <ele>92.400001525879</ele>
        <time>2023-12-19T14:02:29Z</time>
      </trkpt>
      <trkpt lat="43.46264" lon="3.47278">
        <ele>92.400001525879</ele>
        <time>2023-12-19T14:02:30Z</time>
      </trkpt>
      <trkpt lat="43.46262" lon="3.4728">
        <ele>92.400001525879</ele>
        <time>2023-12-19T14:02:31Z</time>
      </trkpt>
      <trkpt lat="43.4626" lon="3.47282">
        <ele>92.400001525879</ele>
        <time>2023-12-19T14:02:32Z</time>
      </trkpt>
      <trkpt lat="43.46258" lon="3.47285">
        <ele>92.400001525879</ele>
        <time>2023-12-19T14:02:33Z</time>
      </trkpt>
      <trkpt lat="43.46256" lon="3.47289">
        <ele>92.400001525879</ele>
        <time>2023-12-19T14:02:34Z</time>
      </trkpt>
      <trkpt lat="43.46254" lon="3.47292">
        <ele>92.599998474121</ele>
        <time>2023-12-19T14:02:35Z</time>
      </trkpt>
      <trkpt lat="43.46253" lon="3.47296">
        <ele>92.599998474121</ele>
        <time>2023-12-19T14:02:36Z</time>
      </trkpt>
      <trkpt lat="43.46251" lon="3.473">
        <ele>92.599998474121</ele>
        <time>2023-12-19T14:02:37Z</time>
      </trkpt>
      <trkpt lat="43.4625" lon="3.47304">
        <ele>92.400001525879</ele>
        <time>2023-12-19T14:02:38Z</time>
      </trkpt>
      <trkpt lat="43.46248" lon="3.47309">
        <ele>92.400001525879</ele>
        <time>2023-12-19T14:02:39Z</time>
      </trkpt>
      <trkpt lat="43.46246" lon="3.47315">
        <ele>92.400001525879</ele>
        <time>2023-12-19T14:02:40Z</time>
      </trkpt>
      <trkpt lat="43.46244" lon="3.47324">
        <ele>92.199996948242</ele>
        <time>2023-12-19T14:02:41Z</time>
      </trkpt>
      <trkpt lat="43.46242" lon="3.47332">
        <ele>92</ele>
        <time>2023-12-19T14:02:42Z</time>
      </trkpt>
      <trkpt lat="43.4624" lon="3.4734">
        <ele>91.599998474121</ele>
        <time>2023-12-19T14:02:43Z</time>
      </trkpt>
      <trkpt lat="43.46239" lon="3.47347">
        <ele>90.800003051758</ele>
        <time>2023-12-19T14:02:44Z</time>
      </trkpt>
      <trkpt lat="43.46239" lon="3.47355">
        <ele>90</ele>
        <time>2023-12-19T14:02:45Z</time>
      </trkpt>
      <trkpt lat="43.46241" lon="3.47361">
        <ele>89.800003051758</ele>
        <time>2023-12-19T14:02:46Z</time>
      </trkpt>
      <trkpt lat="43.46243" lon="3.47366">
        <ele>89.800003051758</ele>
        <time>2023-12-19T14:02:47Z</time>
      </trkpt>
      <trkpt lat="43.46246" lon="3.4737">
        <ele>89.800003051758</ele>
        <time>2023-12-19T14:02:48Z</time>
      </trkpt>
      <trkpt lat="43.46249" lon="3.47373">
        <ele>89.800003051758</ele>
        <time>2023-12-19T14:02:49Z</time>
      </trkpt>
      <trkpt lat="43.46253" lon="3.47375">
        <ele>89.599998474121</ele>
        <time>2023-12-19T14:02:50Z</time>
      </trkpt>
      <trkpt lat="43.46256" lon="3.47376">
        <ele>89.599998474121</ele>
        <time>2023-12-19T14:02:51Z</time>
      </trkpt>
      <trkpt lat="43.4626" lon="3.47376">
        <ele>89.400001525879</ele>
        <time>2023-12-19T14:02:52Z</time>
      </trkpt>
      <trkpt lat="43.46264" lon="3.47377">
        <ele>89.400001525879</ele>
        <time>2023-12-19T14:02:53Z</time>
      </trkpt>
      <trkpt lat="43.46269" lon="3.47378">
        <ele>89.199996948242</ele>
        <time>2023-12-19T14:02:54Z</time>
      </trkpt>
      <trkpt lat="43.46274" lon="3.47378">
        <ele>88.400001525879</ele>
        <time>2023-12-19T14:02:55Z</time>
      </trkpt>
      <trkpt lat="43.46279" lon="3.47379">
        <ele>87.800003051758</ele>
        <time>2023-12-19T14:02:56Z</time>
      </trkpt>
      <trkpt lat="43.46285" lon="3.47381">
        <ele>87.199996948242</ele>
        <time>2023-12-19T14:02:57Z</time>
      </trkpt>
      <trkpt lat="43.4629" lon="3.47383">
        <ele>86.599998474121</ele>
        <time>2023-12-19T14:02:58Z</time>
      </trkpt>
      <trkpt lat="43.46296" lon="3.47384">
        <ele>86</ele>
        <time>2023-12-19T14:02:59Z</time>
      </trkpt>
      <trkpt lat="43.463" lon="3.47384">
        <ele>85.599998474121</ele>
        <time>2023-12-19T14:03:00Z</time>
      </trkpt>
      <trkpt lat="43.46304" lon="3.47385">
        <ele>85.199996948242</ele>
        <time>2023-12-19T14:03:01Z</time>
      </trkpt>
      <trkpt lat="43.46306" lon="3.47388">
        <ele>84.599998474121</ele>
        <time>2023-12-19T14:03:02Z</time>
      </trkpt>
      <trkpt lat="43.46307" lon="3.47392">
        <ele>84.400001525879</ele>
        <time>2023-12-19T14:03:03Z</time>
      </trkpt>
      <trkpt lat="43.46307" lon="3.47396">
        <ele>84.199996948242</ele>
        <time>2023-12-19T14:03:04Z</time>
      </trkpt>
      <trkpt lat="43.46306" lon="3.47401">
        <ele>84.199996948242</ele>
        <time>2023-12-19T14:03:05Z</time>
      </trkpt>
      <trkpt lat="43.46306" lon="3.47406">
        <ele>84.199996948242</ele>
        <time>2023-12-19T14:03:06Z</time>
      </trkpt>
      <trkpt lat="43.46305" lon="3.47411">
        <ele>84.199996948242</ele>
        <time>2023-12-19T14:03:07Z</time>
      </trkpt>
      <trkpt lat="43.46304" lon="3.47416">
        <ele>84.599998474121</ele>
        <time>2023-12-19T14:03:08Z</time>
      </trkpt>
      <trkpt lat="43.46303" lon="3.47421">
        <ele>85</ele>
        <time>2023-12-19T14:03:09Z</time>
      </trkpt>
      <trkpt lat="43.46301" lon="3.47426">
        <ele>85.599998474121</ele>
        <time>2023-12-19T14:03:10Z</time>
      </trkpt>
      <trkpt lat="43.46299" lon="3.47431">
        <ele>86</ele>
        <time>2023-12-19T14:03:11Z</time>
      </trkpt>
      <trkpt lat="43.46299" lon="3.47434">
        <ele>86.800003051758</ele>
        <time>2023-12-19T14:03:12Z</time>
      </trkpt>
      <trkpt lat="43.463" lon="3.47437">
        <ele>87.199996948242</ele>
        <time>2023-12-19T14:03:13Z</time>
      </trkpt>
      <trkpt lat="43.46301" lon="3.47439">
        <ele>87.599998474121</ele>
        <time>2023-12-19T14:03:14Z</time>
      </trkpt>
      <trkpt lat="43.46304" lon="3.47442">
        <ele>88.800003051758</ele>
        <time>2023-12-19T14:03:15Z</time>
      </trkpt>
      <trkpt lat="43.46305" lon="3.47446">
        <ele>89.800003051758</ele>
        <time>2023-12-19T14:03:16Z</time>
      </trkpt>
      <trkpt lat="43.46306" lon="3.4745">
        <ele>90.400001525879</ele>
        <time>2023-12-19T14:03:17Z</time>
      </trkpt>
      <trkpt lat="43.46306" lon="3.47454">
        <ele>90.800003051758</ele>
        <time>2023-12-19T14:03:18Z</time>
      </trkpt>
      <trkpt lat="43.46306" lon="3.47457">
        <ele>90.800003051758</ele>
        <time>2023-12-19T14:03:19Z</time>
      </trkpt>
      <trkpt lat="43.46305" lon="3.4746">
        <ele>91</ele>
        <time>2023-12-19T14:03:20Z</time>
      </trkpt>
      <trkpt lat="43.46303" lon="3.47462">
        <ele>91</ele>
        <time>2023-12-19T14:03:21Z</time>
      </trkpt>
      <trkpt lat="43.463" lon="3.47463">
        <ele>91</ele>
        <time>2023-12-19T14:03:22Z</time>
      </trkpt>
      <trkpt lat="43.46298" lon="3.47463">
        <ele>91</ele>
        <time>2023-12-19T14:03:23Z</time>
      </trkpt>
      <trkpt lat="43.46295" lon="3.47464">
        <ele>91</ele>
        <time>2023-12-19T14:03:24Z</time>
      </trkpt>
      <trkpt lat="43.46292" lon="3.47465">
        <ele>91</ele>
        <time>2023-12-19T14:03:25Z</time>
      </trkpt>
      <trkpt lat="43.4629" lon="3.47466">
        <ele>91</ele>
        <time>2023-12-19T14:03:26Z</time>
      </trkpt>
      <trkpt lat="43.46288" lon="3.47467">
        <ele>91</ele>
        <time>2023-12-19T14:03:27Z</time>
      </trkpt>
      <trkpt lat="43.46286" lon="3.47468">
        <ele>91</ele>
        <time>2023-12-19T14:03:28Z</time>
      </trkpt>
      <trkpt lat="43.46284" lon="3.4747">
        <ele>91</ele>
        <time>2023-12-19T14:03:29Z</time>
      </trkpt>
      <trkpt lat="43.46282" lon="3.47472">
        <ele>91.199996948242</ele>
        <time>2023-12-19T14:03:30Z</time>
      </trkpt>
      <trkpt lat="43.4628" lon="3.47474">
        <ele>91.199996948242</ele>
        <time>2023-12-19T14:03:31Z</time>
      </trkpt>
      <trkpt lat="43.46279" lon="3.47477">
        <ele>91.400001525879</ele>
        <time>2023-12-19T14:03:32Z</time>
      </trkpt>
      <trkpt lat="43.46277" lon="3.4748">
        <ele>91.400001525879</ele>
        <time>2023-12-19T14:03:33Z</time>
      </trkpt>
      <trkpt lat="43.46276" lon="3.47483">
        <ele>91.400001525879</ele>
        <time>2023-12-19T14:03:34Z</time>
      </trkpt>
      <trkpt lat="43.46275" lon="3.47486">
        <ele>91.599998474121</ele>
        <time>2023-12-19T14:03:35Z</time>
      </trkpt>
      <trkpt lat="43.46274" lon="3.47489">
        <ele>91.599998474121</ele>
        <time>2023-12-19T14:03:36Z</time>
      </trkpt>
      <trkpt lat="43.46273" lon="3.47493">
        <ele>91.800003051758</ele>
        <time>2023-12-19T14:03:37Z</time>
      </trkpt>
      <trkpt lat="43.46272" lon="3.47496">
        <ele>92</ele>
        <time>2023-12-19T14:03:38Z</time>
      </trkpt>
      <trkpt lat="43.46272" lon="3.475">
        <ele>92.199996948242</ele>
        <time>2023-12-19T14:03:39Z</time>
      </trkpt>
      <trkpt lat="43.46271" lon="3.47504">
        <ele>92.199996948242</ele>
        <time>2023-12-19T14:03:40Z</time>
      </trkpt>
      <trkpt lat="43.4627" lon="3.47508">
        <ele>92.199996948242</ele>
        <time>2023-12-19T14:03:41Z</time>
      </trkpt>
      <trkpt lat="43.46268" lon="3.47512">
        <ele>92.400001525879</ele>
        <time>2023-12-19T14:03:42Z</time>
      </trkpt>
      <trkpt lat="43.46266" lon="3.47516">
        <ele>92.599998474121</ele>
        <time>2023-12-19T14:03:43Z</time>
      </trkpt>
      <trkpt lat="43.46264" lon="3.4752">
        <ele>92.599998474121</ele>
        <time>2023-12-19T14:03:44Z</time>
      </trkpt>
      <trkpt lat="43.46262" lon="3.47525">
        <ele>92.599998474121</ele>
        <time>2023-12-19T14:03:45Z</time>
      </trkpt>
      <trkpt lat="43.4626" lon="3.4753">
        <ele>92.599998474121</ele>
        <time>2023-12-19T14:03:46Z</time>
      </trkpt>
      <trkpt lat="43.46258" lon="3.47534">
        <ele>92.599998474121</ele>
        <time>2023-12-19T14:03:47Z</time>
      </trkpt>
      <trkpt lat="43.46256" lon="3.47539">
        <ele>92.400001525879</ele>
        <time>2023-12-19T14:03:48Z</time>
      </trkpt>
      <trkpt lat="43.46255" lon="3.47543">
        <ele>92.199996948242</ele>
        <time>2023-12-19T14:03:49Z</time>
      </trkpt>
      <trkpt lat="43.46254" lon="3.47548">
        <ele>92</ele>
        <time>2023-12-19T14:03:50Z</time>
      </trkpt>
      <trkpt lat="43.46252" lon="3.47553">
        <ele>92</ele>
        <time>2023-12-19T14:03:51Z</time>
      </trkpt>
      <trkpt lat="43.4625" lon="3.47558">
        <ele>92</ele>
        <time>2023-12-19T14:03:52Z</time>
      </trkpt>
      <trkpt lat="43.46248" lon="3.47562">
        <ele>91.800003051758</ele>
        <time>2023-12-19T14:03:53Z</time>
      </trkpt>
      <trkpt lat="43.46247" lon="3.47566">
        <ele>91.800003051758</ele>
        <time>2023-12-19T14:03:54Z</time>
      </trkpt>
      <trkpt lat="43.46245" lon="3.47569">
        <ele>91.800003051758</ele>
        <time>2023-12-19T14:03:55Z</time>
      </trkpt>
      <trkpt lat="43.46243" lon="3.47572">
        <ele>91.800003051758</ele>
        <time>2023-12-19T14:03:56Z</time>
      </trkpt>
      <trkpt lat="43.46241" lon="3.47574">
        <ele>91.800003051758</ele>
        <time>2023-12-19T14:03:57Z</time>
      </trkpt>
      <trkpt lat="43.46238" lon="3.47576">
        <ele>91.800003051758</ele>
        <time>2023-12-19T14:03:58Z</time>
      </trkpt>
      <trkpt lat="43.46234" lon="3.47579">
        <ele>91.800003051758</ele>
        <time>2023-12-19T14:03:59Z</time>
      </trkpt>
      <trkpt lat="43.46231" lon="3.47581">
        <ele>92</ele>
        <time>2023-12-19T14:04:00Z</time>
      </trkpt>
      <trkpt lat="43.46228" lon="3.47582">
        <ele>92.199996948242</ele>
        <time>2023-12-19T14:04:01Z</time>
      </trkpt>
      <trkpt lat="43.46226" lon="3.47583">
        <ele>92.199996948242</ele>
        <time>2023-12-19T14:04:02Z</time>
      </trkpt>
      <trkpt lat="43.46223" lon="3.47584">
        <ele>92.199996948242</ele>
        <time>2023-12-19T14:04:03Z</time>
      </trkpt>
      <trkpt lat="43.4622" lon="3.47584">
        <ele>92.199996948242</ele>
        <time>2023-12-19T14:04:04Z</time>
      </trkpt>
      <trkpt lat="43.46218" lon="3.47585">
        <ele>92.199996948242</ele>
        <time>2023-12-19T14:04:05Z</time>
      </trkpt>
      <trkpt lat="43.46215" lon="3.47586">
        <ele>92.199996948242</ele>
        <time>2023-12-19T14:04:06Z</time>
      </trkpt>
      <trkpt lat="43.46212" lon="3.47588">
        <ele>92.400001525879</ele>
        <time>2023-12-19T14:04:07Z</time>
      </trkpt>
      <trkpt lat="43.46209" lon="3.47591">
        <ele>92.599998474121</ele>
        <time>2023-12-19T14:04:08Z</time>
      </trkpt>
      <trkpt lat="43.46207" lon="3.47595">
        <ele>92.599998474121</ele>
        <time>2023-12-19T14:04:09Z</time>
      </trkpt>
      <trkpt lat="43.46204" lon="3.47601">
        <ele>92.599998474121</ele>
        <time>2023-12-19T14:04:10Z</time>
      </trkpt>
      <trkpt lat="43.46202" lon="3.47608">
        <ele>92.599998474121</ele>
        <time>2023-12-19T14:04:11Z</time>
      </trkpt>
      <trkpt lat="43.462" lon="3.47615">
        <ele>92.599998474121</ele>
        <time>2023-12-19T14:04:12Z</time>
      </trkpt>
      <trkpt lat="43.46198" lon="3.47623">
        <ele>92.199996948242</ele>
        <time>2023-12-19T14:04:13Z</time>
      </trkpt>
      <trkpt lat="43.46196" lon="3.47631">
        <ele>91.599998474121</ele>
        <time>2023-12-19T14:04:14Z</time>
      </trkpt>
      <trkpt lat="43.46194" lon="3.47637">
        <ele>91</ele>
        <time>2023-12-19T14:04:15Z</time>
      </trkpt>
      <trkpt lat="43.46192" lon="3.47642">
        <ele>90</ele>
        <time>2023-12-19T14:04:16Z</time>
      </trkpt>
      <trkpt lat="43.46189" lon="3.47646">
        <ele>89.199996948242</ele>
        <time>2023-12-19T14:04:17Z</time>
      </trkpt>
      <trkpt lat="43.46187" lon="3.47647">
        <ele>88.800003051758</ele>
        <time>2023-12-19T14:04:18Z</time>
      </trkpt>
      <trkpt lat="43.46185" lon="3.47648">
        <ele>88.400001525879</ele>
        <time>2023-12-19T14:04:19Z</time>
      </trkpt>
      <trkpt lat="43.46183" lon="3.47648">
        <ele>88.199996948242</ele>
        <time>2023-12-19T14:04:20Z</time>
      </trkpt>
      <trkpt lat="43.4618" lon="3.47647">
        <ele>88.199996948242</ele>
        <time>2023-12-19T14:04:21Z</time>
      </trkpt>
      <trkpt lat="43.46176" lon="3.47646">
        <ele>88.199996948242</ele>
        <time>2023-12-19T14:04:22Z</time>
      </trkpt>
      <trkpt lat="43.46174" lon="3.47644">
        <ele>88.199996948242</ele>
        <time>2023-12-19T14:04:23Z</time>
      </trkpt>
      <trkpt lat="43.46171" lon="3.47645">
        <ele>88.400001525879</ele>
        <time>2023-12-19T14:04:24Z</time>
      </trkpt>
      <trkpt lat="43.4617" lon="3.47648">
        <ele>88.599998474121</ele>
        <time>2023-12-19T14:04:25Z</time>
      </trkpt>
      <trkpt lat="43.46171" lon="3.47651">
        <ele>88.800003051758</ele>
        <time>2023-12-19T14:04:26Z</time>
      </trkpt>
      <trkpt lat="43.46173" lon="3.47653">
        <ele>89.199996948242</ele>
        <time>2023-12-19T14:04:27Z</time>
      </trkpt>
      <trkpt lat="43.46175" lon="3.47655">
        <ele>89.400001525879</ele>
        <time>2023-12-19T14:04:28Z</time>
      </trkpt>
      <trkpt lat="43.46178" lon="3.47658">
        <ele>89.800003051758</ele>
        <time>2023-12-19T14:04:29Z</time>
      </trkpt>
      <trkpt lat="43.4618" lon="3.4766">
        <ele>90</ele>
        <time>2023-12-19T14:04:30Z</time>
      </trkpt>
      <trkpt lat="43.46183" lon="3.47663">
        <ele>90</ele>
        <time>2023-12-19T14:04:31Z</time>
      </trkpt>
      <trkpt lat="43.46185" lon="3.47665">
        <ele>90</ele>
        <time>2023-12-19T14:04:32Z</time>
      </trkpt>
      <trkpt lat="43.46188" lon="3.47668">
        <ele>90</ele>
        <time>2023-12-19T14:04:33Z</time>
      </trkpt>
      <trkpt lat="43.46191" lon="3.47671">
        <ele>90</ele>
        <time>2023-12-19T14:04:34Z</time>
      </trkpt>
      <trkpt lat="43.46193" lon="3.47673">
        <ele>90</ele>
        <time>2023-12-19T14:04:35Z</time>
      </trkpt>
      <trkpt lat="43.46196" lon="3.47676">
        <ele>90</ele>
        <time>2023-12-19T14:04:36Z</time>
      </trkpt>
      <trkpt lat="43.46198" lon="3.47679">
        <ele>90</ele>
        <time>2023-12-19T14:04:37Z</time>
      </trkpt>
      <trkpt lat="43.46201" lon="3.47682">
        <ele>90</ele>
        <time>2023-12-19T14:04:38Z</time>
      </trkpt>
      <trkpt lat="43.46204" lon="3.47685">
        <ele>90</ele>
        <time>2023-12-19T14:04:39Z</time>
      </trkpt>
      <trkpt lat="43.46207" lon="3.47688">
        <ele>90.199996948242</ele>
        <time>2023-12-19T14:04:40Z</time>
      </trkpt>
      <trkpt lat="43.4621" lon="3.4769">
        <ele>90.599998474121</ele>
        <time>2023-12-19T14:04:41Z</time>
      </trkpt>
      <trkpt lat="43.46212" lon="3.47692">
        <ele>90.800003051758</ele>
        <time>2023-12-19T14:04:42Z</time>
      </trkpt>
      <trkpt lat="43.46213" lon="3.47695">
        <ele>90.800003051758</ele>
        <time>2023-12-19T14:04:43Z</time>
      </trkpt>
      <trkpt lat="43.46215" lon="3.47697">
        <ele>91.199996948242</ele>
        <time>2023-12-19T14:04:44Z</time>
      </trkpt>
      <trkpt lat="43.46216" lon="3.477">
        <ele>91.599998474121</ele>
        <time>2023-12-19T14:04:45Z</time>
      </trkpt>
      <trkpt lat="43.46218" lon="3.47702">
        <ele>91.800003051758</ele>
        <time>2023-12-19T14:04:46Z</time>
      </trkpt>
      <trkpt lat="43.4622" lon="3.47705">
        <ele>92</ele>
        <time>2023-12-19T14:04:47Z</time>
      </trkpt>
      <trkpt lat="43.46222" lon="3.47708">
        <ele>92</ele>
        <time>2023-12-19T14:04:48Z</time>
      </trkpt>
      <trkpt lat="43.46224" lon="3.4771">
        <ele>92.199996948242</ele>
        <time>2023-12-19T14:04:49Z</time>
      </trkpt>
      <trkpt lat="43.46227" lon="3.47712">
        <ele>92.400001525879</ele>
        <time>2023-12-19T14:04:50Z</time>
      </trkpt>
      <trkpt lat="43.4623" lon="3.47714">
        <ele>92.599998474121</ele>
        <time>2023-12-19T14:04:51Z</time>
      </trkpt>
      <trkpt lat="43.46233" lon="3.47715">
        <ele>92.800003051758</ele>
        <time>2023-12-19T14:04:52Z</time>
      </trkpt>
      <trkpt lat="43.46235" lon="3.47718">
        <ele>93</ele>
        <time>2023-12-19T14:04:53Z</time>
      </trkpt>
      <trkpt lat="43.46237" lon="3.47721">
        <ele>93</ele>
        <time>2023-12-19T14:04:54Z</time>
      </trkpt>
      <trkpt lat="43.46239" lon="3.47723">
        <ele>93.199996948242</ele>
        <time>2023-12-19T14:04:55Z</time>
      </trkpt>
      <trkpt lat="43.46241" lon="3.47726">
        <ele>93.199996948242</ele>
        <time>2023-12-19T14:04:56Z</time>
      </trkpt>
      <trkpt lat="43.46244" lon="3.47729">
        <ele>93.199996948242</ele>
        <time>2023-12-19T14:04:57Z</time>
      </trkpt>
      <trkpt lat="43.46246" lon="3.47731">
        <ele>93.199996948242</ele>
        <time>2023-12-19T14:04:58Z</time>
      </trkpt>
      <trkpt lat="43.46248" lon="3.47734">
        <ele>93.199996948242</ele>
        <time>2023-12-19T14:04:59Z</time>
      </trkpt>
      <trkpt lat="43.4625" lon="3.47738">
        <ele>93.199996948242</ele>
        <time>2023-12-19T14:05:00Z</time>
      </trkpt>
      <trkpt lat="43.46252" lon="3.47744">
        <ele>93.199996948242</ele>
        <time>2023-12-19T14:05:01Z</time>
      </trkpt>
      <trkpt lat="43.46253" lon="3.47749">
        <ele>93.199996948242</ele>
        <time>2023-12-19T14:05:02Z</time>
      </trkpt>
      <trkpt lat="43.46254" lon="3.47753">
        <ele>93.199996948242</ele>
        <time>2023-12-19T14:05:03Z</time>
      </trkpt>
      <trkpt lat="43.46254" lon="3.47757">
        <ele>93</ele>
        <time>2023-12-19T14:05:04Z</time>
      </trkpt>
      <trkpt lat="43.46254" lon="3.47761">
        <ele>93</ele>
        <time>2023-12-19T14:05:05Z</time>
      </trkpt>
      <trkpt lat="43.46255" lon="3.47765">
        <ele>93</ele>
        <time>2023-12-19T14:05:06Z</time>
      </trkpt>
      <trkpt lat="43.46256" lon="3.47769">
        <ele>93</ele>
        <time>2023-12-19T14:05:07Z</time>
      </trkpt>
      <trkpt lat="43.46255" lon="3.47774">
        <ele>93</ele>
        <time>2023-12-19T14:05:08Z</time>
      </trkpt>
      <trkpt lat="43.46255" lon="3.47778">
        <ele>93.199996948242</ele>
        <time>2023-12-19T14:05:09Z</time>
      </trkpt>
      <trkpt lat="43.46253" lon="3.47782">
        <ele>93.199996948242</ele>
        <time>2023-12-19T14:05:10Z</time>
      </trkpt>
      <trkpt lat="43.46252" lon="3.47786">
        <ele>93.199996948242</ele>
        <time>2023-12-19T14:05:11Z</time>
      </trkpt>
      <trkpt lat="43.46252" lon="3.47789">
        <ele>93.199996948242</ele>
        <time>2023-12-19T14:05:12Z</time>
      </trkpt>
      <trkpt lat="43.46252" lon="3.47792">
        <ele>93.400001525879</ele>
        <time>2023-12-19T14:05:13Z</time>
      </trkpt>
      <trkpt lat="43.46251" lon="3.47796">
        <ele>93.599998474121</ele>
        <time>2023-12-19T14:05:14Z</time>
      </trkpt>
      <trkpt lat="43.46249" lon="3.478">
        <ele>93.800003051758</ele>
        <time>2023-12-19T14:05:15Z</time>
      </trkpt>
      <trkpt lat="43.46248" lon="3.47805">
        <ele>94</ele>
        <time>2023-12-19T14:05:16Z</time>
      </trkpt>
      <trkpt lat="43.46247" lon="3.47809">
        <ele>94.199996948242</ele>
        <time>2023-12-19T14:05:17Z</time>
      </trkpt>
      <trkpt lat="43.46246" lon="3.47813">
        <ele>94.400001525879</ele>
        <time>2023-12-19T14:05:18Z</time>
      </trkpt>
      <trkpt lat="43.46246" lon="3.47817">
        <ele>94.599998474121</ele>
        <time>2023-12-19T14:05:19Z</time>
      </trkpt>
      <trkpt lat="43.46246" lon="3.4782">
        <ele>94.800003051758</ele>
        <time>2023-12-19T14:05:20Z</time>
      </trkpt>
      <trkpt lat="43.46244" lon="3.47824">
        <ele>94.800003051758</ele>
        <time>2023-12-19T14:05:21Z</time>
      </trkpt>
      <trkpt lat="43.46243" lon="3.47829">
        <ele>95</ele>
        <time>2023-12-19T14:05:22Z</time>
      </trkpt>
      <trkpt lat="43.46243" lon="3.47832">
        <ele>95</ele>
        <time>2023-12-19T14:05:23Z</time>
      </trkpt>
      <trkpt lat="43.46242" lon="3.47835">
        <ele>95</ele>
        <time>2023-12-19T14:05:24Z</time>
      </trkpt>
      <trkpt lat="43.46241" lon="3.47838">
        <ele>95</ele>
        <time>2023-12-19T14:05:25Z</time>
      </trkpt>
      <trkpt lat="43.46239" lon="3.47842">
        <ele>95</ele>
        <time>2023-12-19T14:05:26Z</time>
      </trkpt>
      <trkpt lat="43.46236" lon="3.47845">
        <ele>95</ele>
        <time>2023-12-19T14:05:27Z</time>
      </trkpt>
      <trkpt lat="43.46234" lon="3.47848">
        <ele>95</ele>
        <time>2023-12-19T14:05:28Z</time>
      </trkpt>
      <trkpt lat="43.46233" lon="3.47852">
        <ele>95</ele>
        <time>2023-12-19T14:05:29Z</time>
      </trkpt>
      <trkpt lat="43.46231" lon="3.47856">
        <ele>95</ele>
        <time>2023-12-19T14:05:30Z</time>
      </trkpt>
      <trkpt lat="43.46229" lon="3.4786">
        <ele>95.199996948242</ele>
        <time>2023-12-19T14:05:31Z</time>
      </trkpt>
      <trkpt lat="43.46227" lon="3.47864">
        <ele>95.199996948242</ele>
        <time>2023-12-19T14:05:32Z</time>
      </trkpt>
      <trkpt lat="43.46225" lon="3.47869">
        <ele>95.400001525879</ele>
        <time>2023-12-19T14:05:33Z</time>
      </trkpt>
      <trkpt lat="43.46222" lon="3.47872">
        <ele>95.400001525879</ele>
        <time>2023-12-19T14:05:34Z</time>
      </trkpt>
      <trkpt lat="43.46221" lon="3.47875">
        <ele>95.400001525879</ele>
        <time>2023-12-19T14:05:35Z</time>
      </trkpt>
      <trkpt lat="43.46219" lon="3.47879">
        <ele>95.400001525879</ele>
        <time>2023-12-19T14:05:36Z</time>
      </trkpt>
      <trkpt lat="43.46218" lon="3.47884">
        <ele>95.400001525879</ele>
        <time>2023-12-19T14:05:37Z</time>
      </trkpt>
      <trkpt lat="43.46216" lon="3.47888">
        <ele>95.400001525879</ele>
        <time>2023-12-19T14:05:38Z</time>
      </trkpt>
      <trkpt lat="43.46214" lon="3.47892">
        <ele>95.400001525879</ele>
        <time>2023-12-19T14:05:39Z</time>
      </trkpt>
      <trkpt lat="43.46214" lon="3.47896">
        <ele>95.400001525879</ele>
        <time>2023-12-19T14:05:40Z</time>
      </trkpt>
      <trkpt lat="43.46214" lon="3.47898">
        <ele>95.199996948242</ele>
        <time>2023-12-19T14:05:41Z</time>
      </trkpt>
      <trkpt lat="43.46213" lon="3.47901">
        <ele>95.199996948242</ele>
        <time>2023-12-19T14:05:42Z</time>
      </trkpt>
      <trkpt lat="43.46211" lon="3.47903">
        <ele>95.199996948242</ele>
        <time>2023-12-19T14:05:43Z</time>
      </trkpt>
      <trkpt lat="43.46209" lon="3.47903">
        <ele>95</ele>
        <time>2023-12-19T14:05:44Z</time>
      </trkpt>
      <trkpt lat="43.46207" lon="3.47902">
        <ele>95</ele>
        <time>2023-12-19T14:05:45Z</time>
      </trkpt>
      <trkpt lat="43.46204" lon="3.47903">
        <ele>94.800003051758</ele>
        <time>2023-12-19T14:05:46Z</time>
      </trkpt>
      <trkpt lat="43.46201" lon="3.47904">
        <ele>94.800003051758</ele>
        <time>2023-12-19T14:05:47Z</time>
      </trkpt>
      <trkpt lat="43.46198" lon="3.47904">
        <ele>94.800003051758</ele>
        <time>2023-12-19T14:05:48Z</time>
      </trkpt>
      <trkpt lat="43.46197" lon="3.47905">
        <ele>94.800003051758</ele>
        <time>2023-12-19T14:05:49Z</time>
      </trkpt>
      <trkpt lat="43.46197" lon="3.47907">
        <ele>94.800003051758</ele>
        <time>2023-12-19T14:05:50Z</time>
      </trkpt>
      <trkpt lat="43.46195" lon="3.47908">
        <ele>95</ele>
        <time>2023-12-19T14:05:51Z</time>
      </trkpt>
      <trkpt lat="43.46193" lon="3.4791">
        <ele>95.400001525879</ele>
        <time>2023-12-19T14:05:52Z</time>
      </trkpt>
      <trkpt lat="43.46191" lon="3.47913">
        <ele>95.800003051758</ele>
        <time>2023-12-19T14:05:53Z</time>
      </trkpt>
      <trkpt lat="43.46189" lon="3.47916">
        <ele>96.199996948242</ele>
        <time>2023-12-19T14:05:54Z</time>
      </trkpt>
      <trkpt lat="43.46187" lon="3.47919">
        <ele>96.400001525879</ele>
        <time>2023-12-19T14:05:55Z</time>
      </trkpt>
      <trkpt lat="43.46185" lon="3.47922">
        <ele>96.400001525879</ele>
        <time>2023-12-19T14:05:56Z</time>
      </trkpt>
      <trkpt lat="43.46183" lon="3.47925">
        <ele>96.400001525879</ele>
        <time>2023-12-19T14:05:57Z</time>
      </trkpt>
      <trkpt lat="43.46181" lon="3.47928">
        <ele>96.400001525879</ele>
        <time>2023-12-19T14:05:58Z</time>
      </trkpt>
      <trkpt lat="43.46179" lon="3.4793">
        <ele>96.400001525879</ele>
        <time>2023-12-19T14:05:59Z</time>
      </trkpt>
      <trkpt lat="43.46177" lon="3.47932">
        <ele>96.199996948242</ele>
        <time>2023-12-19T14:06:00Z</time>
      </trkpt>
      <trkpt lat="43.46176" lon="3.47935">
        <ele>96.199996948242</ele>
        <time>2023-12-19T14:06:01Z</time>
      </trkpt>
      <trkpt lat="43.46175" lon="3.47937">
        <ele>96</ele>
        <time>2023-12-19T14:06:02Z</time>
      </trkpt>
      <trkpt lat="43.46173" lon="3.47939">
        <ele>95.800003051758</ele>
        <time>2023-12-19T14:06:03Z</time>
      </trkpt>
      <trkpt lat="43.46172" lon="3.4794">
        <ele>95.599998474121</ele>
        <time>2023-12-19T14:06:04Z</time>
      </trkpt>
      <trkpt lat="43.46171" lon="3.47942">
        <ele>95.599998474121</ele>
        <time>2023-12-19T14:06:05Z</time>
      </trkpt>
      <trkpt lat="43.4617" lon="3.47944">
        <ele>95.599998474121</ele>
        <time>2023-12-19T14:06:06Z</time>
      </trkpt>
      <trkpt lat="43.46168" lon="3.47947">
        <ele>95.400001525879</ele>
        <time>2023-12-19T14:06:07Z</time>
      </trkpt>
      <trkpt lat="43.46166" lon="3.47951">
        <ele>95.199996948242</ele>
        <time>2023-12-19T14:06:08Z</time>
      </trkpt>
      <trkpt lat="43.46165" lon="3.47954">
        <ele>95.199996948242</ele>
        <time>2023-12-19T14:06:09Z</time>
      </trkpt>
      <trkpt lat="43.46163" lon="3.47958">
        <ele>95</ele>
        <time>2023-12-19T14:06:10Z</time>
      </trkpt>
      <trkpt lat="43.46161" lon="3.47961">
        <ele>95</ele>
        <time>2023-12-19T14:06:11Z</time>
      </trkpt>
      <trkpt lat="43.46159" lon="3.47966">
        <ele>94.800003051758</ele>
        <time>2023-12-19T14:06:12Z</time>
      </trkpt>
      <trkpt lat="43.46156" lon="3.47971">
        <ele>94.599998474121</ele>
        <time>2023-12-19T14:06:13Z</time>
      </trkpt>
      <trkpt lat="43.46153" lon="3.47976">
        <ele>94.599998474121</ele>
        <time>2023-12-19T14:06:14Z</time>
      </trkpt>
      <trkpt lat="43.4615" lon="3.47982">
        <ele>94.400001525879</ele>
        <time>2023-12-19T14:06:15Z</time>
      </trkpt>
      <trkpt lat="43.46146" lon="3.47986">
        <ele>94</ele>
        <time>2023-12-19T14:06:16Z</time>
      </trkpt>
      <trkpt lat="43.46142" lon="3.4799">
        <ele>93.800003051758</ele>
        <time>2023-12-19T14:06:17Z</time>
      </trkpt>
      <trkpt lat="43.46137" lon="3.47994">
        <ele>93.599998474121</ele>
        <time>2023-12-19T14:06:18Z</time>
      </trkpt>
      <trkpt lat="43.46133" lon="3.47998">
        <ele>93.400001525879</ele>
        <time>2023-12-19T14:06:19Z</time>
      </trkpt>
      <trkpt lat="43.46131" lon="3.48002">
        <ele>93.199996948242</ele>
        <time>2023-12-19T14:06:20Z</time>
      </trkpt>
      <trkpt lat="43.46128" lon="3.48007">
        <ele>93</ele>
        <time>2023-12-19T14:06:21Z</time>
      </trkpt>
      <trkpt lat="43.46127" lon="3.48011">
        <ele>92.800003051758</ele>
        <time>2023-12-19T14:06:22Z</time>
      </trkpt>
      <trkpt lat="43.46124" lon="3.48016">
        <ele>92.800003051758</ele>
        <time>2023-12-19T14:06:23Z</time>
      </trkpt>
      <trkpt lat="43.46121" lon="3.4802">
        <ele>92.800003051758</ele>
        <time>2023-12-19T14:06:24Z</time>
      </trkpt>
      <trkpt lat="43.46116" lon="3.48023">
        <ele>92.800003051758</ele>
        <time>2023-12-19T14:06:25Z</time>
      </trkpt>
      <trkpt lat="43.46111" lon="3.48026">
        <ele>92.599998474121</ele>
        <time>2023-12-19T14:06:26Z</time>
      </trkpt>
      <trkpt lat="43.46105" lon="3.48028">
        <ele>92.599998474121</ele>
        <time>2023-12-19T14:06:27Z</time>
      </trkpt>
      <trkpt lat="43.46099" lon="3.48029">
        <ele>92.599998474121</ele>
        <time>2023-12-19T14:06:28Z</time>
      </trkpt>
      <trkpt lat="43.46093" lon="3.4803">
        <ele>92.599998474121</ele>
        <time>2023-12-19T14:06:29Z</time>
      </trkpt>
      <trkpt lat="43.46086" lon="3.48031">
        <ele>92.599998474121</ele>
        <time>2023-12-19T14:06:30Z</time>
      </trkpt>
      <trkpt lat="43.4608" lon="3.48032">
        <ele>92.599998474121</ele>
        <time>2023-12-19T14:06:31Z</time>
      </trkpt>
      <trkpt lat="43.46074" lon="3.48032">
        <ele>92.599998474121</ele>
        <time>2023-12-19T14:06:32Z</time>
      </trkpt>
      <trkpt lat="43.46068" lon="3.48033">
        <ele>92.800003051758</ele>
        <time>2023-12-19T14:06:33Z</time>
      </trkpt>
      <trkpt lat="43.46062" lon="3.48033">
        <ele>93</ele>
        <time>2023-12-19T14:06:34Z</time>
      </trkpt>
      <trkpt lat="43.46057" lon="3.48034">
        <ele>93.400001525879</ele>
        <time>2023-12-19T14:06:35Z</time>
      </trkpt>
      <trkpt lat="43.46051" lon="3.48036">
        <ele>93.599998474121</ele>
        <time>2023-12-19T14:06:36Z</time>
      </trkpt>
      <trkpt lat="43.46045" lon="3.48038">
        <ele>93.800003051758</ele>
        <time>2023-12-19T14:06:37Z</time>
      </trkpt>
      <trkpt lat="43.46039" lon="3.48039">
        <ele>94.199996948242</ele>
        <time>2023-12-19T14:06:38Z</time>
      </trkpt>
      <trkpt lat="43.46033" lon="3.48041">
        <ele>94.599998474121</ele>
        <time>2023-12-19T14:06:39Z</time>
      </trkpt>
      <trkpt lat="43.46027" lon="3.48042">
        <ele>94.800003051758</ele>
        <time>2023-12-19T14:06:40Z</time>
      </trkpt>
      <trkpt lat="43.46022" lon="3.48043">
        <ele>95</ele>
        <time>2023-12-19T14:06:41Z</time>
      </trkpt>
      <trkpt lat="43.46017" lon="3.48045">
        <ele>95.199996948242</ele>
        <time>2023-12-19T14:06:42Z</time>
      </trkpt>
      <trkpt lat="43.46012" lon="3.48046">
        <ele>95.199996948242</ele>
        <time>2023-12-19T14:06:43Z</time>
      </trkpt>
      <trkpt lat="43.46008" lon="3.48046">
        <ele>95.199996948242</ele>
        <time>2023-12-19T14:06:44Z</time>
      </trkpt>
      <trkpt lat="43.46005" lon="3.48047">
        <ele>95.199996948242</ele>
        <time>2023-12-19T14:06:45Z</time>
      </trkpt>
      <trkpt lat="43.46004" lon="3.48049">
        <ele>95.400001525879</ele>
        <time>2023-12-19T14:06:46Z</time>
      </trkpt>
      <trkpt lat="43.46003" lon="3.4805">
        <ele>95.400001525879</ele>
        <time>2023-12-19T14:06:47Z</time>
      </trkpt>
      <trkpt lat="43.46001" lon="3.48051">
        <ele>95.599998474121</ele>
        <time>2023-12-19T14:06:48Z</time>
      </trkpt>
      <trkpt lat="43.46" lon="3.48053">
        <ele>95.800003051758</ele>
        <time>2023-12-19T14:06:49Z</time>
      </trkpt>
      <trkpt lat="43.45999" lon="3.48055">
        <ele>96</ele>
        <time>2023-12-19T14:06:50Z</time>
      </trkpt>
      <trkpt lat="43.45999" lon="3.48058">
        <ele>96</ele>
        <time>2023-12-19T14:06:51Z</time>
      </trkpt>
      <trkpt lat="43.45999" lon="3.4806">
        <ele>96</ele>
        <time>2023-12-19T14:06:52Z</time>
      </trkpt>
      <trkpt lat="43.45999" lon="3.48063">
        <ele>96</ele>
        <time>2023-12-19T14:06:53Z</time>
      </trkpt>
      <trkpt lat="43.46001" lon="3.48065">
        <ele>96</ele>
        <time>2023-12-19T14:06:54Z</time>
      </trkpt>
      <trkpt lat="43.46002" lon="3.48067">
        <ele>96</ele>
        <time>2023-12-19T14:06:55Z</time>
      </trkpt>
      <trkpt lat="43.46003" lon="3.48069">
        <ele>95.800003051758</ele>
        <time>2023-12-19T14:06:56Z</time>
      </trkpt>
      <trkpt lat="43.46004" lon="3.48072">
        <ele>95.800003051758</ele>
        <time>2023-12-19T14:06:57Z</time>
      </trkpt>
      <trkpt lat="43.46004" lon="3.48075">
        <ele>95.599998474121</ele>
        <time>2023-12-19T14:06:58Z</time>
      </trkpt>
      <trkpt lat="43.46003" lon="3.48078">
        <ele>95.599998474121</ele>
        <time>2023-12-19T14:06:59Z</time>
      </trkpt>
      <trkpt lat="43.46002" lon="3.4808">
        <ele>95.599998474121</ele>
        <time>2023-12-19T14:07:00Z</time>
      </trkpt>
      <trkpt lat="43.46001" lon="3.48082">
        <ele>95.400001525879</ele>
        <time>2023-12-19T14:07:01Z</time>
      </trkpt>
      <trkpt lat="43.46" lon="3.48084">
        <ele>95.400001525879</ele>
        <time>2023-12-19T14:07:02Z</time>
      </trkpt>
      <trkpt lat="43.45998" lon="3.48085">
        <ele>95.400001525879</ele>
        <time>2023-12-19T14:07:03Z</time>
      </trkpt>
      <trkpt lat="43.45997" lon="3.48085">
        <ele>95.199996948242</ele>
        <time>2023-12-19T14:07:04Z</time>
      </trkpt>
      <trkpt lat="43.45995" lon="3.48085">
        <ele>95</ele>
        <time>2023-12-19T14:07:05Z</time>
      </trkpt>
      <trkpt lat="43.45993" lon="3.48086">
        <ele>94.800003051758</ele>
        <time>2023-12-19T14:07:06Z</time>
      </trkpt>
      <trkpt lat="43.45992" lon="3.48087">
        <ele>94.599998474121</ele>
        <time>2023-12-19T14:07:07Z</time>
      </trkpt>
      <trkpt lat="43.4599" lon="3.48087">
        <ele>94.199996948242</ele>
        <time>2023-12-19T14:07:08Z</time>
      </trkpt>
      <trkpt lat="43.45988" lon="3.48088">
        <ele>94</ele>
        <time>2023-12-19T14:07:09Z</time>
      </trkpt>
      <trkpt lat="43.45986" lon="3.48088">
        <ele>93.800003051758</ele>
        <time>2023-12-19T14:07:10Z</time>
      </trkpt>
      <trkpt lat="43.45984" lon="3.48089">
        <ele>93.800003051758</ele>
        <time>2023-12-19T14:07:11Z</time>
      </trkpt>
      <trkpt lat="43.45982" lon="3.48089">
        <ele>93.599998474121</ele>
        <time>2023-12-19T14:07:12Z</time>
      </trkpt>
      <trkpt lat="43.45979" lon="3.4809">
        <ele>93.400001525879</ele>
        <time>2023-12-19T14:07:13Z</time>
      </trkpt>
      <trkpt lat="43.45976" lon="3.48091">
        <ele>93.400001525879</ele>
        <time>2023-12-19T14:07:14Z</time>
      </trkpt>
      <trkpt lat="43.45973" lon="3.48091">
        <ele>93.199996948242</ele>
        <time>2023-12-19T14:07:15Z</time>
      </trkpt>
      <trkpt lat="43.45971" lon="3.48091">
        <ele>93.199996948242</ele>
        <time>2023-12-19T14:07:16Z</time>
      </trkpt>
      <trkpt lat="43.45968" lon="3.48092">
        <ele>93</ele>
        <time>2023-12-19T14:07:17Z</time>
      </trkpt>
      <trkpt lat="43.45965" lon="3.48093">
        <ele>93</ele>
        <time>2023-12-19T14:07:18Z</time>
      </trkpt>
      <trkpt lat="43.45961" lon="3.48093">
        <ele>92.800003051758</ele>
        <time>2023-12-19T14:07:19Z</time>
      </trkpt>
      <trkpt lat="43.45958" lon="3.48094">
        <ele>92.800003051758</ele>
        <time>2023-12-19T14:07:20Z</time>
      </trkpt>
      <trkpt lat="43.45955" lon="3.48095">
        <ele>92.599998474121</ele>
        <time>2023-12-19T14:07:21Z</time>
      </trkpt>
      <trkpt lat="43.45951" lon="3.48097">
        <ele>92.400001525879</ele>
        <time>2023-12-19T14:07:22Z</time>
      </trkpt>
      <trkpt lat="43.45948" lon="3.48098">
        <ele>92.199996948242</ele>
        <time>2023-12-19T14:07:23Z</time>
      </trkpt>
      <trkpt lat="43.45944" lon="3.48098">
        <ele>92</ele>
        <time>2023-12-19T14:07:24Z</time>
      </trkpt>
      <trkpt lat="43.45941" lon="3.48099">
        <ele>92</ele>
        <time>2023-12-19T14:07:25Z</time>
      </trkpt>
      <trkpt lat="43.45938" lon="3.481">
        <ele>91.800003051758</ele>
        <time>2023-12-19T14:07:26Z</time>
      </trkpt>
      <trkpt lat="43.45935" lon="3.48101">
        <ele>91.599998474121</ele>
        <time>2023-12-19T14:07:27Z</time>
      </trkpt>
      <trkpt lat="43.45931" lon="3.48102">
        <ele>91.599998474121</ele>
        <time>2023-12-19T14:07:28Z</time>
      </trkpt>
      <trkpt lat="43.45927" lon="3.48103">
        <ele>91.599998474121</ele>
        <time>2023-12-19T14:07:29Z</time>
      </trkpt>
      <trkpt lat="43.45923" lon="3.48105">
        <ele>91.400001525879</ele>
        <time>2023-12-19T14:07:30Z</time>
      </trkpt>
      <trkpt lat="43.45919" lon="3.48106">
        <ele>91.400001525879</ele>
        <time>2023-12-19T14:07:31Z</time>
      </trkpt>
      <trkpt lat="43.45915" lon="3.48108">
        <ele>91.199996948242</ele>
        <time>2023-12-19T14:07:32Z</time>
      </trkpt>
      <trkpt lat="43.45911" lon="3.48109">
        <ele>91</ele>
        <time>2023-12-19T14:07:33Z</time>
      </trkpt>
      <trkpt lat="43.45907" lon="3.48111">
        <ele>91</ele>
        <time>2023-12-19T14:07:34Z</time>
      </trkpt>
      <trkpt lat="43.45903" lon="3.48113">
        <ele>90.800003051758</ele>
        <time>2023-12-19T14:07:35Z</time>
      </trkpt>
      <trkpt lat="43.45899" lon="3.48115">
        <ele>90.800003051758</ele>
        <time>2023-12-19T14:07:36Z</time>
      </trkpt>
      <trkpt lat="43.45894" lon="3.48118">
        <ele>90.800003051758</ele>
        <time>2023-12-19T14:07:37Z</time>
      </trkpt>
      <trkpt lat="43.45888" lon="3.4812">
        <ele>90.800003051758</ele>
        <time>2023-12-19T14:07:38Z</time>
      </trkpt>
      <trkpt lat="43.45882" lon="3.48123">
        <ele>90.599998474121</ele>
        <time>2023-12-19T14:07:39Z</time>
      </trkpt>
      <trkpt lat="43.45876" lon="3.48125">
        <ele>90.400001525879</ele>
        <time>2023-12-19T14:07:40Z</time>
      </trkpt>
      <trkpt lat="43.45871" lon="3.48128">
        <ele>90</ele>
        <time>2023-12-19T14:07:41Z</time>
      </trkpt>
      <trkpt lat="43.45865" lon="3.4813">
        <ele>89.800003051758</ele>
        <time>2023-12-19T14:07:42Z</time>
      </trkpt>
      <trkpt lat="43.45859" lon="3.48133">
        <ele>89.800003051758</ele>
        <time>2023-12-19T14:07:43Z</time>
      </trkpt>
      <trkpt lat="43.45852" lon="3.48135">
        <ele>89.800003051758</ele>
        <time>2023-12-19T14:07:44Z</time>
      </trkpt>
      <trkpt lat="43.45846" lon="3.48137">
        <ele>89.599998474121</ele>
        <time>2023-12-19T14:07:45Z</time>
      </trkpt>
      <trkpt lat="43.45841" lon="3.48139">
        <ele>89.400001525879</ele>
        <time>2023-12-19T14:07:46Z</time>
      </trkpt>
      <trkpt lat="43.45835" lon="3.48142">
        <ele>89.400001525879</ele>
        <time>2023-12-19T14:07:47Z</time>
      </trkpt>
      <trkpt lat="43.45829" lon="3.48144">
        <ele>89.400001525879</ele>
        <time>2023-12-19T14:07:48Z</time>
      </trkpt>
      <trkpt lat="43.45823" lon="3.48147">
        <ele>89.400001525879</ele>
        <time>2023-12-19T14:07:49Z</time>
      </trkpt>
      <trkpt lat="43.45818" lon="3.48149">
        <ele>89.199996948242</ele>
        <time>2023-12-19T14:07:50Z</time>
      </trkpt>
      <trkpt lat="43.45813" lon="3.48152">
        <ele>89.199996948242</ele>
        <time>2023-12-19T14:07:51Z</time>
      </trkpt>
      <trkpt lat="43.45807" lon="3.48154">
        <ele>89.199996948242</ele>
        <time>2023-12-19T14:07:52Z</time>
      </trkpt>
      <trkpt lat="43.45802" lon="3.48155">
        <ele>89.199996948242</ele>
        <time>2023-12-19T14:07:53Z</time>
      </trkpt>
      <trkpt lat="43.45797" lon="3.48158">
        <ele>89.199996948242</ele>
        <time>2023-12-19T14:07:54Z</time>
      </trkpt>
      <trkpt lat="43.45792" lon="3.48159">
        <ele>89.199996948242</ele>
        <time>2023-12-19T14:07:55Z</time>
      </trkpt>
      <trkpt lat="43.45787" lon="3.48161">
        <ele>89.199996948242</ele>
        <time>2023-12-19T14:07:56Z</time>
      </trkpt>
      <trkpt lat="43.45782" lon="3.48162">
        <ele>89</ele>
        <time>2023-12-19T14:07:57Z</time>
      </trkpt>
      <trkpt lat="43.45776" lon="3.48163">
        <ele>89</ele>
        <time>2023-12-19T14:07:58Z</time>
      </trkpt>
      <trkpt lat="43.4577" lon="3.48165">
        <ele>88.800003051758</ele>
        <time>2023-12-19T14:07:59Z</time>
      </trkpt>
      <trkpt lat="43.45764" lon="3.48166">
        <ele>88.599998474121</ele>
        <time>2023-12-19T14:08:00Z</time>
      </trkpt>
      <trkpt lat="43.45759" lon="3.48167">
        <ele>88.599998474121</ele>
        <time>2023-12-19T14:08:01Z</time>
      </trkpt>
      <trkpt lat="43.45754" lon="3.48168">
        <ele>88.599998474121</ele>
        <time>2023-12-19T14:08:02Z</time>
      </trkpt>
      <trkpt lat="43.45749" lon="3.48168">
        <ele>88.599998474121</ele>
        <time>2023-12-19T14:08:03Z</time>
      </trkpt>
      <trkpt lat="43.45744" lon="3.48168">
        <ele>88.599998474121</ele>
        <time>2023-12-19T14:08:04Z</time>
      </trkpt>
      <trkpt lat="43.45739" lon="3.48167">
        <ele>89</ele>
        <time>2023-12-19T14:08:05Z</time>
      </trkpt>
      <trkpt lat="43.45734" lon="3.48166">
        <ele>89.400001525879</ele>
        <time>2023-12-19T14:08:06Z</time>
      </trkpt>
      <trkpt lat="43.45729" lon="3.48165">
        <ele>89.400001525879</ele>
        <time>2023-12-19T14:08:07Z</time>
      </trkpt>
      <trkpt lat="43.45724" lon="3.48164">
        <ele>89.400001525879</ele>
        <time>2023-12-19T14:08:08Z</time>
      </trkpt>
      <trkpt lat="43.45718" lon="3.48164">
        <ele>89.400001525879</ele>
        <time>2023-12-19T14:08:09Z</time>
      </trkpt>
      <trkpt lat="43.45713" lon="3.48166">
        <ele>89.400001525879</ele>
        <time>2023-12-19T14:08:10Z</time>
      </trkpt>
      <trkpt lat="43.45708" lon="3.48169">
        <ele>89.400001525879</ele>
        <time>2023-12-19T14:08:11Z</time>
      </trkpt>
      <trkpt lat="43.45702" lon="3.48172">
        <ele>89.400001525879</ele>
        <time>2023-12-19T14:08:12Z</time>
      </trkpt>
      <trkpt lat="43.45696" lon="3.48174">
        <ele>89.400001525879</ele>
        <time>2023-12-19T14:08:13Z</time>
      </trkpt>
      <trkpt lat="43.4569" lon="3.48176">
        <ele>89.199996948242</ele>
        <time>2023-12-19T14:08:14Z</time>
      </trkpt>
      <trkpt lat="43.45684" lon="3.48177">
        <ele>88.800003051758</ele>
        <time>2023-12-19T14:08:15Z</time>
      </trkpt>
      <trkpt lat="43.45678" lon="3.48179">
        <ele>88.599998474121</ele>
        <time>2023-12-19T14:08:16Z</time>
      </trkpt>
      <trkpt lat="43.45671" lon="3.4818">
        <ele>88.599998474121</ele>
        <time>2023-12-19T14:08:17Z</time>
      </trkpt>
      <trkpt lat="43.45665" lon="3.48182">
        <ele>88.599998474121</ele>
        <time>2023-12-19T14:08:18Z</time>
      </trkpt>
      <trkpt lat="43.45659" lon="3.48184">
        <ele>88.599998474121</ele>
        <time>2023-12-19T14:08:19Z</time>
      </trkpt>
      <trkpt lat="43.45653" lon="3.48186">
        <ele>88.599998474121</ele>
        <time>2023-12-19T14:08:20Z</time>
      </trkpt>
      <trkpt lat="43.45647" lon="3.48187">
        <ele>88.599998474121</ele>
        <time>2023-12-19T14:08:21Z</time>
      </trkpt>
      <trkpt lat="43.45641" lon="3.48188">
        <ele>88.599998474121</ele>
        <time>2023-12-19T14:08:22Z</time>
      </trkpt>
      <trkpt lat="43.45635" lon="3.48188">
        <ele>88.599998474121</ele>
        <time>2023-12-19T14:08:23Z</time>
      </trkpt>
      <trkpt lat="43.4563" lon="3.48188">
        <ele>88.599998474121</ele>
        <time>2023-12-19T14:08:24Z</time>
      </trkpt>
      <trkpt lat="43.45625" lon="3.48187">
        <ele>88.599998474121</ele>
        <time>2023-12-19T14:08:25Z</time>
      </trkpt>
      <trkpt lat="43.45621" lon="3.48186">
        <ele>88.599998474121</ele>
        <time>2023-12-19T14:08:26Z</time>
      </trkpt>
      <trkpt lat="43.45617" lon="3.48184">
        <ele>88.800003051758</ele>
        <time>2023-12-19T14:08:27Z</time>
      </trkpt>
      <trkpt lat="43.45613" lon="3.48182">
        <ele>89.199996948242</ele>
        <time>2023-12-19T14:08:28Z</time>
      </trkpt>
      <trkpt lat="43.45609" lon="3.48181">
        <ele>89.400001525879</ele>
        <time>2023-12-19T14:08:29Z</time>
      </trkpt>
      <trkpt lat="43.45605" lon="3.48181">
        <ele>89.800003051758</ele>
        <time>2023-12-19T14:08:30Z</time>
      </trkpt>
      <trkpt lat="43.45601" lon="3.48181">
        <ele>90</ele>
        <time>2023-12-19T14:08:31Z</time>
      </trkpt>
      <trkpt lat="43.45598" lon="3.48181">
        <ele>90.400001525879</ele>
        <time>2023-12-19T14:08:32Z</time>
      </trkpt>
      <trkpt lat="43.45594" lon="3.4818">
        <ele>90.800003051758</ele>
        <time>2023-12-19T14:08:33Z</time>
      </trkpt>
      <trkpt lat="43.4559" lon="3.4818">
        <ele>91.199996948242</ele>
        <time>2023-12-19T14:08:34Z</time>
      </trkpt>
      <trkpt lat="43.45586" lon="3.4818">
        <ele>91.400001525879</ele>
        <time>2023-12-19T14:08:35Z</time>
      </trkpt>
      <trkpt lat="43.45582" lon="3.48181">
        <ele>91.599998474121</ele>
        <time>2023-12-19T14:08:36Z</time>
      </trkpt>
      <trkpt lat="43.45579" lon="3.48182">
        <ele>91.800003051758</ele>
        <time>2023-12-19T14:08:37Z</time>
      </trkpt>
      <trkpt lat="43.45575" lon="3.48184">
        <ele>91.800003051758</ele>
        <time>2023-12-19T14:08:38Z</time>
      </trkpt>
      <trkpt lat="43.45572" lon="3.48186">
        <ele>91.800003051758</ele>
        <time>2023-12-19T14:08:39Z</time>
      </trkpt>
      <trkpt lat="43.45569" lon="3.48189">
        <ele>92</ele>
        <time>2023-12-19T14:08:40Z</time>
      </trkpt>
      <trkpt lat="43.45566" lon="3.48193">
        <ele>92</ele>
        <time>2023-12-19T14:08:41Z</time>
      </trkpt>
      <trkpt lat="43.45563" lon="3.48196">
        <ele>92</ele>
        <time>2023-12-19T14:08:42Z</time>
      </trkpt>
      <trkpt lat="43.45561" lon="3.482">
        <ele>92</ele>
        <time>2023-12-19T14:08:43Z</time>
      </trkpt>
      <trkpt lat="43.45558" lon="3.48203">
        <ele>92.400001525879</ele>
        <time>2023-12-19T14:08:44Z</time>
      </trkpt>
      <trkpt lat="43.45556" lon="3.48206">
        <ele>92.800003051758</ele>
        <time>2023-12-19T14:08:45Z</time>
      </trkpt>
      <trkpt lat="43.45553" lon="3.48209">
        <ele>93</ele>
        <time>2023-12-19T14:08:46Z</time>
      </trkpt>
      <trkpt lat="43.4555" lon="3.48212">
        <ele>93</ele>
        <time>2023-12-19T14:08:47Z</time>
      </trkpt>
      <trkpt lat="43.45547" lon="3.48214">
        <ele>93</ele>
        <time>2023-12-19T14:08:48Z</time>
      </trkpt>
      <trkpt lat="43.45544" lon="3.48217">
        <ele>93</ele>
        <time>2023-12-19T14:08:49Z</time>
      </trkpt>
      <trkpt lat="43.45541" lon="3.4822">
        <ele>93.199996948242</ele>
        <time>2023-12-19T14:08:50Z</time>
      </trkpt>
      <trkpt lat="43.45538" lon="3.48222">
        <ele>93.199996948242</ele>
        <time>2023-12-19T14:08:51Z</time>
      </trkpt>
      <trkpt lat="43.45535" lon="3.48225">
        <ele>93.400001525879</ele>
        <time>2023-12-19T14:08:52Z</time>
      </trkpt>
      <trkpt lat="43.45532" lon="3.48228">
        <ele>93.400001525879</ele>
        <time>2023-12-19T14:08:53Z</time>
      </trkpt>
      <trkpt lat="43.45529" lon="3.48231">
        <ele>93.599998474121</ele>
        <time>2023-12-19T14:08:54Z</time>
      </trkpt>
      <trkpt lat="43.45526" lon="3.48235">
        <ele>93.599998474121</ele>
        <time>2023-12-19T14:08:55Z</time>
      </trkpt>
      <trkpt lat="43.45523" lon="3.48238">
        <ele>93.800003051758</ele>
        <time>2023-12-19T14:08:56Z</time>
      </trkpt>
      <trkpt lat="43.45521" lon="3.48241">
        <ele>93.800003051758</ele>
        <time>2023-12-19T14:08:57Z</time>
      </trkpt>
      <trkpt lat="43.45517" lon="3.48244">
        <ele>93.800003051758</ele>
        <time>2023-12-19T14:08:58Z</time>
      </trkpt>
      <trkpt lat="43.45514" lon="3.48247">
        <ele>94</ele>
        <time>2023-12-19T14:08:59Z</time>
      </trkpt>
      <trkpt lat="43.45511" lon="3.4825">
        <ele>94</ele>
        <time>2023-12-19T14:09:00Z</time>
      </trkpt>
      <trkpt lat="43.45508" lon="3.48253">
        <ele>94</ele>
        <time>2023-12-19T14:09:01Z</time>
      </trkpt>
      <trkpt lat="43.45505" lon="3.48256">
        <ele>94</ele>
        <time>2023-12-19T14:09:02Z</time>
      </trkpt>
      <trkpt lat="43.45502" lon="3.4826">
        <ele>94</ele>
        <time>2023-12-19T14:09:03Z</time>
      </trkpt>
      <trkpt lat="43.45498" lon="3.48263">
        <ele>94</ele>
        <time>2023-12-19T14:09:04Z</time>
      </trkpt>
      <trkpt lat="43.45495" lon="3.48266">
        <ele>94</ele>
        <time>2023-12-19T14:09:05Z</time>
      </trkpt>
      <trkpt lat="43.45492" lon="3.48269">
        <ele>94</ele>
        <time>2023-12-19T14:09:06Z</time>
      </trkpt>
      <trkpt lat="43.45488" lon="3.48273">
        <ele>93.800003051758</ele>
        <time>2023-12-19T14:09:07Z</time>
      </trkpt>
      <trkpt lat="43.45485" lon="3.48276">
        <ele>93.800003051758</ele>
        <time>2023-12-19T14:09:08Z</time>
      </trkpt>
      <trkpt lat="43.45482" lon="3.4828">
        <ele>93.800003051758</ele>
        <time>2023-12-19T14:09:09Z</time>
      </trkpt>
      <trkpt lat="43.45479" lon="3.48283">
        <ele>93.800003051758</ele>
        <time>2023-12-19T14:09:10Z</time>
      </trkpt>
      <trkpt lat="43.45476" lon="3.48286">
        <ele>93.800003051758</ele>
        <time>2023-12-19T14:09:11Z</time>
      </trkpt>
      <trkpt lat="43.45473" lon="3.48289">
        <ele>93.800003051758</ele>
        <time>2023-12-19T14:09:12Z</time>
      </trkpt>
      <trkpt lat="43.45469" lon="3.48291">
        <ele>93.800003051758</ele>
        <time>2023-12-19T14:09:13Z</time>
      </trkpt>
      <trkpt lat="43.45465" lon="3.48294">
        <ele>93.800003051758</ele>
        <time>2023-12-19T14:09:14Z</time>
      </trkpt>
      <trkpt lat="43.45462" lon="3.48297">
        <ele>93.800003051758</ele>
        <time>2023-12-19T14:09:15Z</time>
      </trkpt>
      <trkpt lat="43.45458" lon="3.48299">
        <ele>94</ele>
        <time>2023-12-19T14:09:16Z</time>
      </trkpt>
      <trkpt lat="43.45454" lon="3.48301">
        <ele>93.800003051758</ele>
        <time>2023-12-19T14:09:17Z</time>
      </trkpt>
      <trkpt lat="43.45451" lon="3.48303">
        <ele>93.800003051758</ele>
        <time>2023-12-19T14:09:18Z</time>
      </trkpt>
      <trkpt lat="43.45447" lon="3.48307">
        <ele>93.800003051758</ele>
        <time>2023-12-19T14:09:19Z</time>
      </trkpt>
      <trkpt lat="43.45443" lon="3.4831">
        <ele>94</ele>
        <time>2023-12-19T14:09:20Z</time>
      </trkpt>
      <trkpt lat="43.45439" lon="3.48313">
        <ele>94</ele>
        <time>2023-12-19T14:09:21Z</time>
      </trkpt>
      <trkpt lat="43.45436" lon="3.48315">
        <ele>94</ele>
        <time>2023-12-19T14:09:22Z</time>
      </trkpt>
      <trkpt lat="43.45432" lon="3.48318">
        <ele>93.800003051758</ele>
        <time>2023-12-19T14:09:23Z</time>
      </trkpt>
      <trkpt lat="43.45428" lon="3.48321">
        <ele>93.800003051758</ele>
        <time>2023-12-19T14:09:24Z</time>
      </trkpt>
      <trkpt lat="43.45425" lon="3.48325">
        <ele>93.800003051758</ele>
        <time>2023-12-19T14:09:25Z</time>
      </trkpt>
      <trkpt lat="43.45422" lon="3.48329">
        <ele>93.800003051758</ele>
        <time>2023-12-19T14:09:26Z</time>
      </trkpt>
      <trkpt lat="43.45419" lon="3.48333">
        <ele>93.800003051758</ele>
        <time>2023-12-19T14:09:27Z</time>
      </trkpt>
      <trkpt lat="43.45416" lon="3.48338">
        <ele>93.800003051758</ele>
        <time>2023-12-19T14:09:28Z</time>
      </trkpt>
      <trkpt lat="43.45413" lon="3.48341">
        <ele>93.800003051758</ele>
        <time>2023-12-19T14:09:29Z</time>
      </trkpt>
      <trkpt lat="43.4541" lon="3.48344">
        <ele>93.599998474121</ele>
        <time>2023-12-19T14:09:30Z</time>
      </trkpt>
      <trkpt lat="43.45406" lon="3.48347">
        <ele>93.599998474121</ele>
        <time>2023-12-19T14:09:31Z</time>
      </trkpt>
      <trkpt lat="43.45403" lon="3.4835">
        <ele>93.599998474121</ele>
        <time>2023-12-19T14:09:32Z</time>
      </trkpt>
      <trkpt lat="43.454" lon="3.48354">
        <ele>93.400001525879</ele>
        <time>2023-12-19T14:09:33Z</time>
      </trkpt>
      <trkpt lat="43.45397" lon="3.48356">
        <ele>93.400001525879</ele>
        <time>2023-12-19T14:09:34Z</time>
      </trkpt>
      <trkpt lat="43.45393" lon="3.48359">
        <ele>93.400001525879</ele>
        <time>2023-12-19T14:09:35Z</time>
      </trkpt>
      <trkpt lat="43.4539" lon="3.48362">
        <ele>93.199996948242</ele>
        <time>2023-12-19T14:09:36Z</time>
      </trkpt>
      <trkpt lat="43.45386" lon="3.48365">
        <ele>93.199996948242</ele>
        <time>2023-12-19T14:09:37Z</time>
      </trkpt>
      <trkpt lat="43.45383" lon="3.48369">
        <ele>93.199996948242</ele>
        <time>2023-12-19T14:09:38Z</time>
      </trkpt>
      <trkpt lat="43.45381" lon="3.48373">
        <ele>93</ele>
        <time>2023-12-19T14:09:39Z</time>
      </trkpt>
      <trkpt lat="43.45379" lon="3.48378">
        <ele>93</ele>
        <time>2023-12-19T14:09:40Z</time>
      </trkpt>
      <trkpt lat="43.45378" lon="3.48383">
        <ele>93</ele>
        <time>2023-12-19T14:09:41Z</time>
      </trkpt>
      <trkpt lat="43.45376" lon="3.48389">
        <ele>93</ele>
        <time>2023-12-19T14:09:42Z</time>
      </trkpt>
      <trkpt lat="43.45375" lon="3.48394">
        <ele>93</ele>
        <time>2023-12-19T14:09:43Z</time>
      </trkpt>
      <trkpt lat="43.45374" lon="3.48399">
        <ele>93.199996948242</ele>
        <time>2023-12-19T14:09:44Z</time>
      </trkpt>
      <trkpt lat="43.45373" lon="3.48405">
        <ele>93.199996948242</ele>
        <time>2023-12-19T14:09:45Z</time>
      </trkpt>
      <trkpt lat="43.45372" lon="3.4841">
        <ele>93.199996948242</ele>
        <time>2023-12-19T14:09:46Z</time>
      </trkpt>
      <trkpt lat="43.45371" lon="3.48416">
        <ele>93.199996948242</ele>
        <time>2023-12-19T14:09:47Z</time>
      </trkpt>
      <trkpt lat="43.4537" lon="3.48422">
        <ele>93.400001525879</ele>
        <time>2023-12-19T14:09:48Z</time>
      </trkpt>
      <trkpt lat="43.45369" lon="3.48427">
        <ele>93.400001525879</ele>
        <time>2023-12-19T14:09:49Z</time>
      </trkpt>
      <trkpt lat="43.45368" lon="3.48432">
        <ele>93.599998474121</ele>
        <time>2023-12-19T14:09:50Z</time>
      </trkpt>
      <trkpt lat="43.45366" lon="3.48437">
        <ele>93.599998474121</ele>
        <time>2023-12-19T14:09:51Z</time>
      </trkpt>
      <trkpt lat="43.45364" lon="3.48442">
        <ele>93.599998474121</ele>
        <time>2023-12-19T14:09:52Z</time>
      </trkpt>
      <trkpt lat="43.45362" lon="3.48448">
        <ele>93.800003051758</ele>
        <time>2023-12-19T14:09:53Z</time>
      </trkpt>
      <trkpt lat="43.4536" lon="3.48453">
        <ele>93.800003051758</ele>
        <time>2023-12-19T14:09:54Z</time>
      </trkpt>
      <trkpt lat="43.45359" lon="3.48458">
        <ele>94</ele>
        <time>2023-12-19T14:09:55Z</time>
      </trkpt>
      <trkpt lat="43.45357" lon="3.48463">
        <ele>94</ele>
        <time>2023-12-19T14:09:56Z</time>
      </trkpt>
      <trkpt lat="43.45356" lon="3.48469">
        <ele>94</ele>
        <time>2023-12-19T14:09:57Z</time>
      </trkpt>
      <trkpt lat="43.45355" lon="3.48474">
        <ele>94</ele>
        <time>2023-12-19T14:09:58Z</time>
      </trkpt>
      <trkpt lat="43.45353" lon="3.4848">
        <ele>94.199996948242</ele>
        <time>2023-12-19T14:09:59Z</time>
      </trkpt>
      <trkpt lat="43.45352" lon="3.48485">
        <ele>94.199996948242</ele>
        <time>2023-12-19T14:10:00Z</time>
      </trkpt>
      <trkpt lat="43.4535" lon="3.48491">
        <ele>94.199996948242</ele>
        <time>2023-12-19T14:10:01Z</time>
      </trkpt>
      <trkpt lat="43.45348" lon="3.48496">
        <ele>94.400001525879</ele>
        <time>2023-12-19T14:10:02Z</time>
      </trkpt>
      <trkpt lat="43.45346" lon="3.48501">
        <ele>94.400001525879</ele>
        <time>2023-12-19T14:10:03Z</time>
      </trkpt>
      <trkpt lat="43.45344" lon="3.48506">
        <ele>94.400001525879</ele>
        <time>2023-12-19T14:10:04Z</time>
      </trkpt>
      <trkpt lat="43.45343" lon="3.48511">
        <ele>94.400001525879</ele>
        <time>2023-12-19T14:10:05Z</time>
      </trkpt>
      <trkpt lat="43.45341" lon="3.48516">
        <ele>94.599998474121</ele>
        <time>2023-12-19T14:10:06Z</time>
      </trkpt>
      <trkpt lat="43.4534" lon="3.48521">
        <ele>94.800003051758</ele>
        <time>2023-12-19T14:10:07Z</time>
      </trkpt>
      <trkpt lat="43.45339" lon="3.48526">
        <ele>95</ele>
        <time>2023-12-19T14:10:08Z</time>
      </trkpt>
      <trkpt lat="43.45338" lon="3.48532">
        <ele>95</ele>
        <time>2023-12-19T14:10:09Z</time>
      </trkpt>
      <trkpt lat="43.45337" lon="3.48537">
        <ele>95</ele>
        <time>2023-12-19T14:10:10Z</time>
      </trkpt>
      <trkpt lat="43.45336" lon="3.48542">
        <ele>95</ele>
        <time>2023-12-19T14:10:11Z</time>
      </trkpt>
      <trkpt lat="43.45336" lon="3.48548">
        <ele>95</ele>
        <time>2023-12-19T14:10:12Z</time>
      </trkpt>
      <trkpt lat="43.45337" lon="3.48554">
        <ele>95</ele>
        <time>2023-12-19T14:10:13Z</time>
      </trkpt>
      <trkpt lat="43.45337" lon="3.48559">
        <ele>95</ele>
        <time>2023-12-19T14:10:14Z</time>
      </trkpt>
      <trkpt lat="43.45338" lon="3.48565">
        <ele>95</ele>
        <time>2023-12-19T14:10:15Z</time>
      </trkpt>
      <trkpt lat="43.45339" lon="3.4857">
        <ele>95.199996948242</ele>
        <time>2023-12-19T14:10:16Z</time>
      </trkpt>
      <trkpt lat="43.45342" lon="3.48575">
        <ele>95.199996948242</ele>
        <time>2023-12-19T14:10:17Z</time>
      </trkpt>
      <trkpt lat="43.45344" lon="3.48579">
        <ele>95.199996948242</ele>
        <time>2023-12-19T14:10:18Z</time>
      </trkpt>
      <trkpt lat="43.45347" lon="3.48583">
        <ele>95.199996948242</ele>
        <time>2023-12-19T14:10:19Z</time>
      </trkpt>
      <trkpt lat="43.45351" lon="3.48586">
        <ele>95.400001525879</ele>
        <time>2023-12-19T14:10:20Z</time>
      </trkpt>
      <trkpt lat="43.45354" lon="3.48589">
        <ele>95.400001525879</ele>
        <time>2023-12-19T14:10:21Z</time>
      </trkpt>
      <trkpt lat="43.45358" lon="3.48592">
        <ele>95.599998474121</ele>
        <time>2023-12-19T14:10:22Z</time>
      </trkpt>
      <trkpt lat="43.45361" lon="3.48595">
        <ele>96</ele>
        <time>2023-12-19T14:10:23Z</time>
      </trkpt>
      <trkpt lat="43.45365" lon="3.48598">
        <ele>96</ele>
        <time>2023-12-19T14:10:24Z</time>
      </trkpt>
      <trkpt lat="43.45368" lon="3.48603">
        <ele>96.199996948242</ele>
        <time>2023-12-19T14:10:25Z</time>
      </trkpt>
      <trkpt lat="43.45371" lon="3.48606">
        <ele>96.199996948242</ele>
        <time>2023-12-19T14:10:26Z</time>
      </trkpt>
      <trkpt lat="43.45374" lon="3.4861">
        <ele>96.199996948242</ele>
        <time>2023-12-19T14:10:27Z</time>
      </trkpt>
      <trkpt lat="43.45377" lon="3.48614">
        <ele>96.199996948242</ele>
        <time>2023-12-19T14:10:28Z</time>
      </trkpt>
      <trkpt lat="43.4538" lon="3.48618">
        <ele>96.400001525879</ele>
        <time>2023-12-19T14:10:29Z</time>
      </trkpt>
      <trkpt lat="43.45384" lon="3.48621">
        <ele>96.400001525879</ele>
        <time>2023-12-19T14:10:30Z</time>
      </trkpt>
      <trkpt lat="43.45387" lon="3.48625">
        <ele>96.599998474121</ele>
        <time>2023-12-19T14:10:31Z</time>
      </trkpt>
      <trkpt lat="43.4539" lon="3.4863">
        <ele>96.800003051758</ele>
        <time>2023-12-19T14:10:32Z</time>
      </trkpt>
      <trkpt lat="43.45394" lon="3.48634">
        <ele>97</ele>
        <time>2023-12-19T14:10:33Z</time>
      </trkpt>
      <trkpt lat="43.45397" lon="3.48638">
        <ele>97.199996948242</ele>
        <time>2023-12-19T14:10:34Z</time>
      </trkpt>
      <trkpt lat="43.454" lon="3.48643">
        <ele>97.199996948242</ele>
        <time>2023-12-19T14:10:35Z</time>
      </trkpt>
      <trkpt lat="43.45403" lon="3.48647">
        <ele>97.400001525879</ele>
        <time>2023-12-19T14:10:36Z</time>
      </trkpt>
      <trkpt lat="43.45407" lon="3.48651">
        <ele>97.599998474121</ele>
        <time>2023-12-19T14:10:37Z</time>
      </trkpt>
      <trkpt lat="43.4541" lon="3.48654">
        <ele>97.800003051758</ele>
        <time>2023-12-19T14:10:38Z</time>
      </trkpt>
      <trkpt lat="43.45414" lon="3.48658">
        <ele>97.800003051758</ele>
        <time>2023-12-19T14:10:39Z</time>
      </trkpt>
      <trkpt lat="43.45417" lon="3.48661">
        <ele>98</ele>
        <time>2023-12-19T14:10:40Z</time>
      </trkpt>
      <trkpt lat="43.4542" lon="3.48664">
        <ele>98</ele>
        <time>2023-12-19T14:10:41Z</time>
      </trkpt>
      <trkpt lat="43.45424" lon="3.48668">
        <ele>98.199996948242</ele>
        <time>2023-12-19T14:10:42Z</time>
      </trkpt>
      <trkpt lat="43.45427" lon="3.48671">
        <ele>98.400001525879</ele>
        <time>2023-12-19T14:10:43Z</time>
      </trkpt>
      <trkpt lat="43.45431" lon="3.48674">
        <ele>98.599998474121</ele>
        <time>2023-12-19T14:10:44Z</time>
      </trkpt>
      <trkpt lat="43.45435" lon="3.48676">
        <ele>98.599998474121</ele>
        <time>2023-12-19T14:10:45Z</time>
      </trkpt>
      <trkpt lat="43.45439" lon="3.48679">
        <ele>98.800003051758</ele>
        <time>2023-12-19T14:10:46Z</time>
      </trkpt>
      <trkpt lat="43.45443" lon="3.48681">
        <ele>98.800003051758</ele>
        <time>2023-12-19T14:10:47Z</time>
      </trkpt>
      <trkpt lat="43.45447" lon="3.48683">
        <ele>99</ele>
        <time>2023-12-19T14:10:48Z</time>
      </trkpt>
      <trkpt lat="43.45451" lon="3.48685">
        <ele>99.199996948242</ele>
        <time>2023-12-19T14:10:49Z</time>
      </trkpt>
      <trkpt lat="43.45454" lon="3.48687">
        <ele>99.199996948242</ele>
        <time>2023-12-19T14:10:50Z</time>
      </trkpt>
      <trkpt lat="43.45458" lon="3.48691">
        <ele>99.400001525879</ele>
        <time>2023-12-19T14:10:51Z</time>
      </trkpt>
      <trkpt lat="43.45461" lon="3.48696">
        <ele>99.400001525879</ele>
        <time>2023-12-19T14:10:52Z</time>
      </trkpt>
      <trkpt lat="43.45463" lon="3.487">
        <ele>99.599998474121</ele>
        <time>2023-12-19T14:10:53Z</time>
      </trkpt>
      <trkpt lat="43.45465" lon="3.48705">
        <ele>99.599998474121</ele>
        <time>2023-12-19T14:10:54Z</time>
      </trkpt>
      <trkpt lat="43.45467" lon="3.48709">
        <ele>99.599998474121</ele>
        <time>2023-12-19T14:10:55Z</time>
      </trkpt>
      <trkpt lat="43.45469" lon="3.48714">
        <ele>99.599998474121</ele>
        <time>2023-12-19T14:10:56Z</time>
      </trkpt>
      <trkpt lat="43.45472" lon="3.48719">
        <ele>99.599998474121</ele>
        <time>2023-12-19T14:10:57Z</time>
      </trkpt>
      <trkpt lat="43.45474" lon="3.48724">
        <ele>100</ele>
        <time>2023-12-19T14:10:58Z</time>
      </trkpt>
      <trkpt lat="43.45477" lon="3.48728">
        <ele>100.40000152588</ele>
        <time>2023-12-19T14:10:59Z</time>
      </trkpt>
      <trkpt lat="43.45481" lon="3.48733">
        <ele>100.59999847412</ele>
        <time>2023-12-19T14:11:00Z</time>
      </trkpt>
      <trkpt lat="43.45483" lon="3.48738">
        <ele>100.59999847412</ele>
        <time>2023-12-19T14:11:01Z</time>
      </trkpt>
      <trkpt lat="43.45486" lon="3.48743">
        <ele>100.59999847412</ele>
        <time>2023-12-19T14:11:02Z</time>
      </trkpt>
      <trkpt lat="43.45488" lon="3.48748">
        <ele>100.59999847412</ele>
        <time>2023-12-19T14:11:03Z</time>
      </trkpt>
      <trkpt lat="43.45491" lon="3.48753">
        <ele>100.59999847412</ele>
        <time>2023-12-19T14:11:04Z</time>
      </trkpt>
      <trkpt lat="43.45493" lon="3.48759">
        <ele>100.59999847412</ele>
        <time>2023-12-19T14:11:05Z</time>
      </trkpt>
      <trkpt lat="43.45495" lon="3.48764">
        <ele>100.59999847412</ele>
        <time>2023-12-19T14:11:06Z</time>
      </trkpt>
      <trkpt lat="43.45497" lon="3.4877">
        <ele>100.59999847412</ele>
        <time>2023-12-19T14:11:07Z</time>
      </trkpt>
      <trkpt lat="43.455" lon="3.48775">
        <ele>100.59999847412</ele>
        <time>2023-12-19T14:11:08Z</time>
      </trkpt>
      <trkpt lat="43.45502" lon="3.48781">
        <ele>100.59999847412</ele>
        <time>2023-12-19T14:11:09Z</time>
      </trkpt>
      <trkpt lat="43.45504" lon="3.48787">
        <ele>100.59999847412</ele>
        <time>2023-12-19T14:11:10Z</time>
      </trkpt>
      <trkpt lat="43.45506" lon="3.48792">
        <ele>100.59999847412</ele>
        <time>2023-12-19T14:11:11Z</time>
      </trkpt>
      <trkpt lat="43.45508" lon="3.48798">
        <ele>100.59999847412</ele>
        <time>2023-12-19T14:11:12Z</time>
      </trkpt>
      <trkpt lat="43.4551" lon="3.48804">
        <ele>100.59999847412</ele>
        <time>2023-12-19T14:11:13Z</time>
      </trkpt>
      <trkpt lat="43.45513" lon="3.4881">
        <ele>100.59999847412</ele>
        <time>2023-12-19T14:11:14Z</time>
      </trkpt>
      <trkpt lat="43.45515" lon="3.48817">
        <ele>100.40000152588</ele>
        <time>2023-12-19T14:11:15Z</time>
      </trkpt>
      <trkpt lat="43.45518" lon="3.48823">
        <ele>100.40000152588</ele>
        <time>2023-12-19T14:11:16Z</time>
      </trkpt>
      <trkpt lat="43.45521" lon="3.48828">
        <ele>100.40000152588</ele>
        <time>2023-12-19T14:11:17Z</time>
      </trkpt>
      <trkpt lat="43.45523" lon="3.48834">
        <ele>100.40000152588</ele>
        <time>2023-12-19T14:11:18Z</time>
      </trkpt>
      <trkpt lat="43.45525" lon="3.4884">
        <ele>100.40000152588</ele>
        <time>2023-12-19T14:11:19Z</time>
      </trkpt>
      <trkpt lat="43.45527" lon="3.48847">
        <ele>100.19999694824</ele>
        <time>2023-12-19T14:11:20Z</time>
      </trkpt>
      <trkpt lat="43.45528" lon="3.48854">
        <ele>100.19999694824</ele>
        <time>2023-12-19T14:11:21Z</time>
      </trkpt>
      <trkpt lat="43.4553" lon="3.4886">
        <ele>100</ele>
        <time>2023-12-19T14:11:22Z</time>
      </trkpt>
      <trkpt lat="43.45531" lon="3.48867">
        <ele>100</ele>
        <time>2023-12-19T14:11:23Z</time>
      </trkpt>
      <trkpt lat="43.45533" lon="3.48873">
        <ele>99.800003051758</ele>
        <time>2023-12-19T14:11:24Z</time>
      </trkpt>
      <trkpt lat="43.45535" lon="3.48879">
        <ele>99.599998474121</ele>
        <time>2023-12-19T14:11:25Z</time>
      </trkpt>
      <trkpt lat="43.45538" lon="3.48884">
        <ele>99.400001525879</ele>
        <time>2023-12-19T14:11:26Z</time>
      </trkpt>
      <trkpt lat="43.45541" lon="3.48888">
        <ele>99.199996948242</ele>
        <time>2023-12-19T14:11:27Z</time>
      </trkpt>
      <trkpt lat="43.45544" lon="3.48894">
        <ele>99.199996948242</ele>
        <time>2023-12-19T14:11:28Z</time>
      </trkpt>
      <trkpt lat="43.45547" lon="3.48899">
        <ele>99.199996948242</ele>
        <time>2023-12-19T14:11:29Z</time>
      </trkpt>
      <trkpt lat="43.4555" lon="3.48905">
        <ele>99.199996948242</ele>
        <time>2023-12-19T14:11:30Z</time>
      </trkpt>
      <trkpt lat="43.45553" lon="3.4891">
        <ele>99.199996948242</ele>
        <time>2023-12-19T14:11:31Z</time>
      </trkpt>
      <trkpt lat="43.45556" lon="3.48916">
        <ele>99</ele>
        <time>2023-12-19T14:11:32Z</time>
      </trkpt>
      <trkpt lat="43.45558" lon="3.48921">
        <ele>99</ele>
        <time>2023-12-19T14:11:33Z</time>
      </trkpt>
      <trkpt lat="43.45561" lon="3.48927">
        <ele>99</ele>
        <time>2023-12-19T14:11:34Z</time>
      </trkpt>
      <trkpt lat="43.45563" lon="3.48934">
        <ele>99</ele>
        <time>2023-12-19T14:11:35Z</time>
      </trkpt>
      <trkpt lat="43.45565" lon="3.4894">
        <ele>99</ele>
        <time>2023-12-19T14:11:36Z</time>
      </trkpt>
      <trkpt lat="43.45567" lon="3.48946">
        <ele>99</ele>
        <time>2023-12-19T14:11:37Z</time>
      </trkpt>
      <trkpt lat="43.45569" lon="3.48952">
        <ele>99</ele>
        <time>2023-12-19T14:11:38Z</time>
      </trkpt>
      <trkpt lat="43.45571" lon="3.48957">
        <ele>99</ele>
        <time>2023-12-19T14:11:39Z</time>
      </trkpt>
      <trkpt lat="43.45573" lon="3.48962">
        <ele>99</ele>
        <time>2023-12-19T14:11:40Z</time>
      </trkpt>
      <trkpt lat="43.45576" lon="3.48967">
        <ele>99</ele>
        <time>2023-12-19T14:11:41Z</time>
      </trkpt>
      <trkpt lat="43.45578" lon="3.48973">
        <ele>99</ele>
        <time>2023-12-19T14:11:42Z</time>
      </trkpt>
      <trkpt lat="43.45581" lon="3.48978">
        <ele>99</ele>
        <time>2023-12-19T14:11:43Z</time>
      </trkpt>
      <trkpt lat="43.45585" lon="3.48984">
        <ele>99</ele>
        <time>2023-12-19T14:11:44Z</time>
      </trkpt>
      <trkpt lat="43.45587" lon="3.4899">
        <ele>99</ele>
        <time>2023-12-19T14:11:45Z</time>
      </trkpt>
      <trkpt lat="43.45591" lon="3.48996">
        <ele>98.800003051758</ele>
        <time>2023-12-19T14:11:46Z</time>
      </trkpt>
      <trkpt lat="43.45594" lon="3.49">
        <ele>98.800003051758</ele>
        <time>2023-12-19T14:11:47Z</time>
      </trkpt>
      <trkpt lat="43.45598" lon="3.49005">
        <ele>98.800003051758</ele>
        <time>2023-12-19T14:11:48Z</time>
      </trkpt>
      <trkpt lat="43.45603" lon="3.4901">
        <ele>98.800003051758</ele>
        <time>2023-12-19T14:11:49Z</time>
      </trkpt>
      <trkpt lat="43.45607" lon="3.49015">
        <ele>98.800003051758</ele>
        <time>2023-12-19T14:11:50Z</time>
      </trkpt>
      <trkpt lat="43.45611" lon="3.4902">
        <ele>98.800003051758</ele>
        <time>2023-12-19T14:11:51Z</time>
      </trkpt>
      <trkpt lat="43.45614" lon="3.49025">
        <ele>98.800003051758</ele>
        <time>2023-12-19T14:11:52Z</time>
      </trkpt>
      <trkpt lat="43.45617" lon="3.4903">
        <ele>98.800003051758</ele>
        <time>2023-12-19T14:11:53Z</time>
      </trkpt>
      <trkpt lat="43.4562" lon="3.49034">
        <ele>98.599998474121</ele>
        <time>2023-12-19T14:11:54Z</time>
      </trkpt>
      <trkpt lat="43.45623" lon="3.49039">
        <ele>98.599998474121</ele>
        <time>2023-12-19T14:11:55Z</time>
      </trkpt>
      <trkpt lat="43.45626" lon="3.49043">
        <ele>98.599998474121</ele>
        <time>2023-12-19T14:11:56Z</time>
      </trkpt>
      <trkpt lat="43.45629" lon="3.49048">
        <ele>98.599998474121</ele>
        <time>2023-12-19T14:11:57Z</time>
      </trkpt>
      <trkpt lat="43.45632" lon="3.49051">
        <ele>98.800003051758</ele>
        <time>2023-12-19T14:11:58Z</time>
      </trkpt>
      <trkpt lat="43.45635" lon="3.49054">
        <ele>98.800003051758</ele>
        <time>2023-12-19T14:11:59Z</time>
      </trkpt>
      <trkpt lat="43.45637" lon="3.49056">
        <ele>98.800003051758</ele>
        <time>2023-12-19T14:12:00Z</time>
      </trkpt>
      <trkpt lat="43.45638" lon="3.49057">
        <ele>98.800003051758</ele>
        <time>2023-12-19T14:12:01Z</time>
      </trkpt>
      <trkpt lat="43.4564" lon="3.49058">
        <ele>98.800003051758</ele>
        <time>2023-12-19T14:12:02Z</time>
      </trkpt>
      <trkpt lat="43.45641" lon="3.49061">
        <ele>98.800003051758</ele>
        <time>2023-12-19T14:12:03Z</time>
      </trkpt>
      <trkpt lat="43.45643" lon="3.49065">
        <ele>98.800003051758</ele>
        <time>2023-12-19T14:12:04Z</time>
      </trkpt>
      <trkpt lat="43.45644" lon="3.49067">
        <ele>98.800003051758</ele>
        <time>2023-12-19T14:12:05Z</time>
      </trkpt>
      <trkpt lat="43.45645" lon="3.49068">
        <ele>99</ele>
        <time>2023-12-19T14:12:06Z</time>
      </trkpt>
      <trkpt lat="43.45647" lon="3.4907">
        <ele>99</ele>
        <time>2023-12-19T14:12:07Z</time>
      </trkpt>
      <trkpt lat="43.45648" lon="3.49072">
        <ele>99</ele>
        <time>2023-12-19T14:12:08Z</time>
      </trkpt>
      <trkpt lat="43.4565" lon="3.49073">
        <ele>99</ele>
        <time>2023-12-19T14:12:09Z</time>
      </trkpt>
      <trkpt lat="43.45651" lon="3.49076">
        <ele>99</ele>
        <time>2023-12-19T14:12:10Z</time>
      </trkpt>
      <trkpt lat="43.45653" lon="3.49077">
        <ele>99</ele>
        <time>2023-12-19T14:12:11Z</time>
      </trkpt>
      <trkpt lat="43.45654" lon="3.49078">
        <ele>98.800003051758</ele>
        <time>2023-12-19T14:12:12Z</time>
      </trkpt>
      <trkpt lat="43.45656" lon="3.49077">
        <ele>98.800003051758</ele>
        <time>2023-12-19T14:12:13Z</time>
      </trkpt>
      <trkpt lat="43.45659" lon="3.49076">
        <ele>98.800003051758</ele>
        <time>2023-12-19T14:12:14Z</time>
      </trkpt>
      <trkpt lat="43.45661" lon="3.49075">
        <ele>98.800003051758</ele>
        <time>2023-12-19T14:12:15Z</time>
      </trkpt>
      <trkpt lat="43.45664" lon="3.49074">
        <ele>98.800003051758</ele>
        <time>2023-12-19T14:12:16Z</time>
      </trkpt>
      <trkpt lat="43.45666" lon="3.49075">
        <ele>98.800003051758</ele>
        <time>2023-12-19T14:12:17Z</time>
      </trkpt>
      <trkpt lat="43.45668" lon="3.49075">
        <ele>98.800003051758</ele>
        <time>2023-12-19T14:12:18Z</time>
      </trkpt>
      <trkpt lat="43.45671" lon="3.49075">
        <ele>98.800003051758</ele>
        <time>2023-12-19T14:12:19Z</time>
      </trkpt>
      <trkpt lat="43.45673" lon="3.49074">
        <ele>98.800003051758</ele>
        <time>2023-12-19T14:12:20Z</time>
      </trkpt>
      <trkpt lat="43.45676" lon="3.49073">
        <ele>98.800003051758</ele>
        <time>2023-12-19T14:12:21Z</time>
      </trkpt>
      <trkpt lat="43.45678" lon="3.49073">
        <ele>98.599998474121</ele>
        <time>2023-12-19T14:12:22Z</time>
      </trkpt>
      <trkpt lat="43.4568" lon="3.49072">
        <ele>98.599998474121</ele>
        <time>2023-12-19T14:12:23Z</time>
      </trkpt>
      <trkpt lat="43.45683" lon="3.49071">
        <ele>98.599998474121</ele>
        <time>2023-12-19T14:12:24Z</time>
      </trkpt>
      <trkpt lat="43.45685" lon="3.4907">
        <ele>98.800003051758</ele>
        <time>2023-12-19T14:12:25Z</time>
      </trkpt>
      <trkpt lat="43.45688" lon="3.49069">
        <ele>98.800003051758</ele>
        <time>2023-12-19T14:12:26Z</time>
      </trkpt>
      <trkpt lat="43.45691" lon="3.49069">
        <ele>98.599998474121</ele>
        <time>2023-12-19T14:12:27Z</time>
      </trkpt>
      <trkpt lat="43.45693" lon="3.49067">
        <ele>98.599998474121</ele>
        <time>2023-12-19T14:12:28Z</time>
      </trkpt>
      <trkpt lat="43.45696" lon="3.49066">
        <ele>98.599998474121</ele>
        <time>2023-12-19T14:12:29Z</time>
      </trkpt>
      <trkpt lat="43.45699" lon="3.49065">
        <ele>98.800003051758</ele>
        <time>2023-12-19T14:12:30Z</time>
      </trkpt>
      <trkpt lat="43.45702" lon="3.49065">
        <ele>98.800003051758</ele>
        <time>2023-12-19T14:12:31Z</time>
      </trkpt>
      <trkpt lat="43.45705" lon="3.49064">
        <ele>98.800003051758</ele>
        <time>2023-12-19T14:12:32Z</time>
      </trkpt>
      <trkpt lat="43.45707" lon="3.49065">
        <ele>98.800003051758</ele>
        <time>2023-12-19T14:12:33Z</time>
      </trkpt>
      <trkpt lat="43.4571" lon="3.49066">
        <ele>99.199996948242</ele>
        <time>2023-12-19T14:12:34Z</time>
      </trkpt>
      <trkpt lat="43.45712" lon="3.49066">
        <ele>99.400001525879</ele>
        <time>2023-12-19T14:12:35Z</time>
      </trkpt>
      <trkpt lat="43.45714" lon="3.49067">
        <ele>99.400001525879</ele>
        <time>2023-12-19T14:12:36Z</time>
      </trkpt>
      <trkpt lat="43.45716" lon="3.49069">
        <ele>99.400001525879</ele>
        <time>2023-12-19T14:12:37Z</time>
      </trkpt>
      <trkpt lat="43.45718" lon="3.49071">
        <ele>99.400001525879</ele>
        <time>2023-12-19T14:12:38Z</time>
      </trkpt>
      <trkpt lat="43.4572" lon="3.49073">
        <ele>99.599998474121</ele>
        <time>2023-12-19T14:12:39Z</time>
      </trkpt>
      <trkpt lat="43.45721" lon="3.49076">
        <ele>99.400001525879</ele>
        <time>2023-12-19T14:12:40Z</time>
      </trkpt>
      <trkpt lat="43.45722" lon="3.4908">
        <ele>99.400001525879</ele>
        <time>2023-12-19T14:12:41Z</time>
      </trkpt>
      <trkpt lat="43.45723" lon="3.49084">
        <ele>99.400001525879</ele>
        <time>2023-12-19T14:12:42Z</time>
      </trkpt>
      <trkpt lat="43.45723" lon="3.49088">
        <ele>99.400001525879</ele>
        <time>2023-12-19T14:12:43Z</time>
      </trkpt>
      <trkpt lat="43.45724" lon="3.49093">
        <ele>99.400001525879</ele>
        <time>2023-12-19T14:12:44Z</time>
      </trkpt>
      <trkpt lat="43.45725" lon="3.49097">
        <ele>99.400001525879</ele>
        <time>2023-12-19T14:12:45Z</time>
      </trkpt>
      <trkpt lat="43.45727" lon="3.49101">
        <ele>99.400001525879</ele>
        <time>2023-12-19T14:12:46Z</time>
      </trkpt>
      <trkpt lat="43.45728" lon="3.49104">
        <ele>99.400001525879</ele>
        <time>2023-12-19T14:12:47Z</time>
      </trkpt>
      <trkpt lat="43.4573" lon="3.49107">
        <ele>99.199996948242</ele>
        <time>2023-12-19T14:12:48Z</time>
      </trkpt>
      <trkpt lat="43.45733" lon="3.4911">
        <ele>99.199996948242</ele>
        <time>2023-12-19T14:12:49Z</time>
      </trkpt>
      <trkpt lat="43.45735" lon="3.49113">
        <ele>99.199996948242</ele>
        <time>2023-12-19T14:12:50Z</time>
      </trkpt>
      <trkpt lat="43.45738" lon="3.49116">
        <ele>99.199996948242</ele>
        <time>2023-12-19T14:12:51Z</time>
      </trkpt>
      <trkpt lat="43.45741" lon="3.49119">
        <ele>99.400001525879</ele>
        <time>2023-12-19T14:12:52Z</time>
      </trkpt>
      <trkpt lat="43.45744" lon="3.49122">
        <ele>99.400001525879</ele>
        <time>2023-12-19T14:12:53Z</time>
      </trkpt>
      <trkpt lat="43.45747" lon="3.49124">
        <ele>99.400001525879</ele>
        <time>2023-12-19T14:12:54Z</time>
      </trkpt>
      <trkpt lat="43.45751" lon="3.49126">
        <ele>99.400001525879</ele>
        <time>2023-12-19T14:12:55Z</time>
      </trkpt>
      <trkpt lat="43.45754" lon="3.49128">
        <ele>99.400001525879</ele>
        <time>2023-12-19T14:12:56Z</time>
      </trkpt>
      <trkpt lat="43.45757" lon="3.49131">
        <ele>99.400001525879</ele>
        <time>2023-12-19T14:12:57Z</time>
      </trkpt>
      <trkpt lat="43.45759" lon="3.49134">
        <ele>99.599998474121</ele>
        <time>2023-12-19T14:12:58Z</time>
      </trkpt>
      <trkpt lat="43.45762" lon="3.49139">
        <ele>99.599998474121</ele>
        <time>2023-12-19T14:12:59Z</time>
      </trkpt>
      <trkpt lat="43.45764" lon="3.49143">
        <ele>99.800003051758</ele>
        <time>2023-12-19T14:13:00Z</time>
      </trkpt>
      <trkpt lat="43.45765" lon="3.49148">
        <ele>99.800003051758</ele>
        <time>2023-12-19T14:13:01Z</time>
      </trkpt>
      <trkpt lat="43.45766" lon="3.49153">
        <ele>99.800003051758</ele>
        <time>2023-12-19T14:13:02Z</time>
      </trkpt>
      <trkpt lat="43.45768" lon="3.49158">
        <ele>99.800003051758</ele>
        <time>2023-12-19T14:13:03Z</time>
      </trkpt>
      <trkpt lat="43.45769" lon="3.49162">
        <ele>99.800003051758</ele>
        <time>2023-12-19T14:13:04Z</time>
      </trkpt>
      <trkpt lat="43.45772" lon="3.49167">
        <ele>99.800003051758</ele>
        <time>2023-12-19T14:13:05Z</time>
      </trkpt>
      <trkpt lat="43.45774" lon="3.49171">
        <ele>99.800003051758</ele>
        <time>2023-12-19T14:13:06Z</time>
      </trkpt>
      <trkpt lat="43.45776" lon="3.49175">
        <ele>99.800003051758</ele>
        <time>2023-12-19T14:13:07Z</time>
      </trkpt>
      <trkpt lat="43.45778" lon="3.4918">
        <ele>99.599998474121</ele>
        <time>2023-12-19T14:13:08Z</time>
      </trkpt>
      <trkpt lat="43.45781" lon="3.49183">
        <ele>99.599998474121</ele>
        <time>2023-12-19T14:13:09Z</time>
      </trkpt>
      <trkpt lat="43.45784" lon="3.49186">
        <ele>99.599998474121</ele>
        <time>2023-12-19T14:13:10Z</time>
      </trkpt>
      <trkpt lat="43.45787" lon="3.4919">
        <ele>99.599998474121</ele>
        <time>2023-12-19T14:13:11Z</time>
      </trkpt>
      <trkpt lat="43.4579" lon="3.49193">
        <ele>99.599998474121</ele>
        <time>2023-12-19T14:13:12Z</time>
      </trkpt>
      <trkpt lat="43.45793" lon="3.49196">
        <ele>99.599998474121</ele>
        <time>2023-12-19T14:13:13Z</time>
      </trkpt>
      <trkpt lat="43.45796" lon="3.49198">
        <ele>99.599998474121</ele>
        <time>2023-12-19T14:13:14Z</time>
      </trkpt>
      <trkpt lat="43.45799" lon="3.49201">
        <ele>99.599998474121</ele>
        <time>2023-12-19T14:13:15Z</time>
      </trkpt>
      <trkpt lat="43.45802" lon="3.49204">
        <ele>99.599998474121</ele>
        <time>2023-12-19T14:13:16Z</time>
      </trkpt>
      <trkpt lat="43.45804" lon="3.49207">
        <ele>99.599998474121</ele>
        <time>2023-12-19T14:13:17Z</time>
      </trkpt>
      <trkpt lat="43.45807" lon="3.49211">
        <ele>99.599998474121</ele>
        <time>2023-12-19T14:13:18Z</time>
      </trkpt>
      <trkpt lat="43.4581" lon="3.49214">
        <ele>99.599998474121</ele>
        <time>2023-12-19T14:13:19Z</time>
      </trkpt>
      <trkpt lat="43.45813" lon="3.49218">
        <ele>99.599998474121</ele>
        <time>2023-12-19T14:13:20Z</time>
      </trkpt>
      <trkpt lat="43.45815" lon="3.49221">
        <ele>99.400001525879</ele>
        <time>2023-12-19T14:13:21Z</time>
      </trkpt>
      <trkpt lat="43.45818" lon="3.49225">
        <ele>99.400001525879</ele>
        <time>2023-12-19T14:13:22Z</time>
      </trkpt>
      <trkpt lat="43.45819" lon="3.49228">
        <ele>99.400001525879</ele>
        <time>2023-12-19T14:13:23Z</time>
      </trkpt>
      <trkpt lat="43.45822" lon="3.49232">
        <ele>99.400001525879</ele>
        <time>2023-12-19T14:13:24Z</time>
      </trkpt>
      <trkpt lat="43.45823" lon="3.49236">
        <ele>99.199996948242</ele>
        <time>2023-12-19T14:13:25Z</time>
      </trkpt>
      <trkpt lat="43.45825" lon="3.4924">
        <ele>99.199996948242</ele>
        <time>2023-12-19T14:13:26Z</time>
      </trkpt>
      <trkpt lat="43.45826" lon="3.49244">
        <ele>99.199996948242</ele>
        <time>2023-12-19T14:13:27Z</time>
      </trkpt>
      <trkpt lat="43.45828" lon="3.49247">
        <ele>99.199996948242</ele>
        <time>2023-12-19T14:13:28Z</time>
      </trkpt>
      <trkpt lat="43.4583" lon="3.49251">
        <ele>99.199996948242</ele>
        <time>2023-12-19T14:13:29Z</time>
      </trkpt>
      <trkpt lat="43.45831" lon="3.49255">
        <ele>99.199996948242</ele>
        <time>2023-12-19T14:13:30Z</time>
      </trkpt>
      <trkpt lat="43.45834" lon="3.49259">
        <ele>99.199996948242</ele>
        <time>2023-12-19T14:13:31Z</time>
      </trkpt>
      <trkpt lat="43.45836" lon="3.49263">
        <ele>99.199996948242</ele>
        <time>2023-12-19T14:13:32Z</time>
      </trkpt>
      <trkpt lat="43.45839" lon="3.49267">
        <ele>99.199996948242</ele>
        <time>2023-12-19T14:13:33Z</time>
      </trkpt>
      <trkpt lat="43.45842" lon="3.49271">
        <ele>99.199996948242</ele>
        <time>2023-12-19T14:13:34Z</time>
      </trkpt>
      <trkpt lat="43.45844" lon="3.49275">
        <ele>99</ele>
        <time>2023-12-19T14:13:35Z</time>
      </trkpt>
      <trkpt lat="43.45847" lon="3.49279">
        <ele>99</ele>
        <time>2023-12-19T14:13:36Z</time>
      </trkpt>
      <trkpt lat="43.4585" lon="3.49282">
        <ele>99</ele>
        <time>2023-12-19T14:13:37Z</time>
      </trkpt>
      <trkpt lat="43.45853" lon="3.49285">
        <ele>99</ele>
        <time>2023-12-19T14:13:38Z</time>
      </trkpt>
      <trkpt lat="43.45855" lon="3.49286">
        <ele>98.800003051758</ele>
        <time>2023-12-19T14:13:39Z</time>
      </trkpt>
      <trkpt lat="43.45858" lon="3.49287">
        <ele>98.800003051758</ele>
        <time>2023-12-19T14:13:40Z</time>
      </trkpt>
      <trkpt lat="43.45861" lon="3.49287">
        <ele>98.800003051758</ele>
        <time>2023-12-19T14:13:41Z</time>
      </trkpt>
      <trkpt lat="43.45863" lon="3.49287">
        <ele>98.800003051758</ele>
        <time>2023-12-19T14:13:42Z</time>
      </trkpt>
      <trkpt lat="43.45866" lon="3.49288">
        <ele>98.800003051758</ele>
        <time>2023-12-19T14:13:43Z</time>
      </trkpt>
      <trkpt lat="43.45869" lon="3.49289">
        <ele>98.599998474121</ele>
        <time>2023-12-19T14:13:44Z</time>
      </trkpt>
      <trkpt lat="43.45872" lon="3.49289">
        <ele>98.599998474121</ele>
        <time>2023-12-19T14:13:45Z</time>
      </trkpt>
      <trkpt lat="43.45875" lon="3.49289">
        <ele>98.599998474121</ele>
        <time>2023-12-19T14:13:46Z</time>
      </trkpt>
      <trkpt lat="43.45877" lon="3.49289">
        <ele>98.400001525879</ele>
        <time>2023-12-19T14:13:47Z</time>
      </trkpt>
      <trkpt lat="43.45878" lon="3.49291">
        <ele>98.400001525879</ele>
        <time>2023-12-19T14:13:48Z</time>
      </trkpt>
      <trkpt lat="43.4588" lon="3.49293">
        <ele>98.199996948242</ele>
        <time>2023-12-19T14:13:49Z</time>
      </trkpt>
      <trkpt lat="43.45882" lon="3.49294">
        <ele>98.199996948242</ele>
        <time>2023-12-19T14:13:50Z</time>
      </trkpt>
      <trkpt lat="43.45883" lon="3.49296">
        <ele>98.199996948242</ele>
        <time>2023-12-19T14:13:51Z</time>
      </trkpt>
      <trkpt lat="43.45884" lon="3.49299">
        <ele>98.199996948242</ele>
        <time>2023-12-19T14:13:52Z</time>
      </trkpt>
      <trkpt lat="43.45886" lon="3.493">
        <ele>98.199996948242</ele>
        <time>2023-12-19T14:13:53Z</time>
      </trkpt>
      <trkpt lat="43.45888" lon="3.49301">
        <ele>98</ele>
        <time>2023-12-19T14:13:54Z</time>
      </trkpt>
      <trkpt lat="43.45889" lon="3.49301">
        <ele>98</ele>
        <time>2023-12-19T14:13:55Z</time>
      </trkpt>
      <trkpt lat="43.45889" lon="3.49301">
        <ele>98</ele>
        <time>2023-12-19T14:13:56Z</time>
      </trkpt>
      <trkpt lat="43.45895" lon="3.49312">
        <ele>97.400001525879</ele>
        <time>2023-12-19T14:14:36Z</time>
      </trkpt>
      <trkpt lat="43.45895" lon="3.49314">
        <ele>97.400001525879</ele>
        <time>2023-12-19T14:14:37Z</time>
      </trkpt>
      <trkpt lat="43.45896" lon="3.49317">
        <ele>97.400001525879</ele>
        <time>2023-12-19T14:14:38Z</time>
      </trkpt>
      <trkpt lat="43.45896" lon="3.49321">
        <ele>97.400001525879</ele>
        <time>2023-12-19T14:14:39Z</time>
      </trkpt>
      <trkpt lat="43.45897" lon="3.49324">
        <ele>97.400001525879</ele>
        <time>2023-12-19T14:14:40Z</time>
      </trkpt>
      <trkpt lat="43.45898" lon="3.49327">
        <ele>97.400001525879</ele>
        <time>2023-12-19T14:14:41Z</time>
      </trkpt>
      <trkpt lat="43.45899" lon="3.49329">
        <ele>97.400001525879</ele>
        <time>2023-12-19T14:14:42Z</time>
      </trkpt>
      <trkpt lat="43.45901" lon="3.49332">
        <ele>97.199996948242</ele>
        <time>2023-12-19T14:14:43Z</time>
      </trkpt>
      <trkpt lat="43.45902" lon="3.49334">
        <ele>97</ele>
        <time>2023-12-19T14:14:44Z</time>
      </trkpt>
      <trkpt lat="43.45904" lon="3.49337">
        <ele>97</ele>
        <time>2023-12-19T14:14:45Z</time>
      </trkpt>
      <trkpt lat="43.45906" lon="3.49339">
        <ele>96.800003051758</ele>
        <time>2023-12-19T14:14:46Z</time>
      </trkpt>
      <trkpt lat="43.45908" lon="3.49342">
        <ele>96.800003051758</ele>
        <time>2023-12-19T14:14:47Z</time>
      </trkpt>
      <trkpt lat="43.4591" lon="3.49345">
        <ele>96.599998474121</ele>
        <time>2023-12-19T14:14:48Z</time>
      </trkpt>
      <trkpt lat="43.45913" lon="3.49348">
        <ele>96.599998474121</ele>
        <time>2023-12-19T14:14:49Z</time>
      </trkpt>
      <trkpt lat="43.45915" lon="3.49351">
        <ele>96.400001525879</ele>
        <time>2023-12-19T14:14:50Z</time>
      </trkpt>
      <trkpt lat="43.45918" lon="3.49354">
        <ele>96.400001525879</ele>
        <time>2023-12-19T14:14:51Z</time>
      </trkpt>
      <trkpt lat="43.45921" lon="3.49356">
        <ele>96.400001525879</ele>
        <time>2023-12-19T14:14:52Z</time>
      </trkpt>
      <trkpt lat="43.45924" lon="3.49359">
        <ele>96.400001525879</ele>
        <time>2023-12-19T14:14:53Z</time>
      </trkpt>
      <trkpt lat="43.45927" lon="3.49362">
        <ele>96.400001525879</ele>
        <time>2023-12-19T14:14:54Z</time>
      </trkpt>
      <trkpt lat="43.45929" lon="3.49366">
        <ele>96.400001525879</ele>
        <time>2023-12-19T14:14:55Z</time>
      </trkpt>
      <trkpt lat="43.45932" lon="3.4937">
        <ele>96.199996948242</ele>
        <time>2023-12-19T14:14:56Z</time>
      </trkpt>
      <trkpt lat="43.45935" lon="3.49375">
        <ele>96.199996948242</ele>
        <time>2023-12-19T14:14:57Z</time>
      </trkpt>
      <trkpt lat="43.45939" lon="3.49381">
        <ele>95.800003051758</ele>
        <time>2023-12-19T14:14:58Z</time>
      </trkpt>
      <trkpt lat="43.45942" lon="3.49386">
        <ele>95.400001525879</ele>
        <time>2023-12-19T14:14:59Z</time>
      </trkpt>
      <trkpt lat="43.45945" lon="3.49392">
        <ele>95.199996948242</ele>
        <time>2023-12-19T14:15:00Z</time>
      </trkpt>
      <trkpt lat="43.45948" lon="3.49397">
        <ele>95</ele>
        <time>2023-12-19T14:15:01Z</time>
      </trkpt>
      <trkpt lat="43.45951" lon="3.49403">
        <ele>95</ele>
        <time>2023-12-19T14:15:02Z</time>
      </trkpt>
      <trkpt lat="43.45954" lon="3.49407">
        <ele>95</ele>
        <time>2023-12-19T14:15:03Z</time>
      </trkpt>
      <trkpt lat="43.45956" lon="3.49412">
        <ele>94.800003051758</ele>
        <time>2023-12-19T14:15:04Z</time>
      </trkpt>
      <trkpt lat="43.45959" lon="3.49418">
        <ele>94.800003051758</ele>
        <time>2023-12-19T14:15:05Z</time>
      </trkpt>
      <trkpt lat="43.45962" lon="3.49423">
        <ele>94.599998474121</ele>
        <time>2023-12-19T14:15:06Z</time>
      </trkpt>
      <trkpt lat="43.45964" lon="3.4943">
        <ele>94.599998474121</ele>
        <time>2023-12-19T14:15:07Z</time>
      </trkpt>
      <trkpt lat="43.45966" lon="3.49436">
        <ele>94.599998474121</ele>
        <time>2023-12-19T14:15:08Z</time>
      </trkpt>
      <trkpt lat="43.45967" lon="3.49443">
        <ele>94.599998474121</ele>
        <time>2023-12-19T14:15:09Z</time>
      </trkpt>
      <trkpt lat="43.45969" lon="3.49449">
        <ele>94.400001525879</ele>
        <time>2023-12-19T14:15:10Z</time>
      </trkpt>
      <trkpt lat="43.4597" lon="3.49455">
        <ele>94.400001525879</ele>
        <time>2023-12-19T14:15:11Z</time>
      </trkpt>
      <trkpt lat="43.45972" lon="3.49461">
        <ele>94.400001525879</ele>
        <time>2023-12-19T14:15:12Z</time>
      </trkpt>
      <trkpt lat="43.45974" lon="3.49468">
        <ele>94.199996948242</ele>
        <time>2023-12-19T14:15:13Z</time>
      </trkpt>
      <trkpt lat="43.45976" lon="3.49474">
        <ele>94.199996948242</ele>
        <time>2023-12-19T14:15:14Z</time>
      </trkpt>
      <trkpt lat="43.45978" lon="3.49481">
        <ele>94.199996948242</ele>
        <time>2023-12-19T14:15:15Z</time>
      </trkpt>
      <trkpt lat="43.4598" lon="3.49487">
        <ele>94.199996948242</ele>
        <time>2023-12-19T14:15:16Z</time>
      </trkpt>
      <trkpt lat="43.45982" lon="3.49493">
        <ele>94.400001525879</ele>
        <time>2023-12-19T14:15:17Z</time>
      </trkpt>
      <trkpt lat="43.45985" lon="3.49498">
        <ele>94.400001525879</ele>
        <time>2023-12-19T14:15:18Z</time>
      </trkpt>
      <trkpt lat="43.45987" lon="3.49504">
        <ele>94.400001525879</ele>
        <time>2023-12-19T14:15:19Z</time>
      </trkpt>
      <trkpt lat="43.4599" lon="3.49509">
        <ele>94.599998474121</ele>
        <time>2023-12-19T14:15:20Z</time>
      </trkpt>
      <trkpt lat="43.45992" lon="3.49513">
        <ele>94.599998474121</ele>
        <time>2023-12-19T14:15:21Z</time>
      </trkpt>
      <trkpt lat="43.45994" lon="3.49518">
        <ele>94.800003051758</ele>
        <time>2023-12-19T14:15:22Z</time>
      </trkpt>
      <trkpt lat="43.45996" lon="3.49523">
        <ele>94.800003051758</ele>
        <time>2023-12-19T14:15:23Z</time>
      </trkpt>
      <trkpt lat="43.45999" lon="3.49529">
        <ele>94.800003051758</ele>
        <time>2023-12-19T14:15:24Z</time>
      </trkpt>
      <trkpt lat="43.46002" lon="3.49536">
        <ele>94.800003051758</ele>
        <time>2023-12-19T14:15:25Z</time>
      </trkpt>
      <trkpt lat="43.46005" lon="3.49542">
        <ele>94.599998474121</ele>
        <time>2023-12-19T14:15:26Z</time>
      </trkpt>
      <trkpt lat="43.46009" lon="3.4955">
        <ele>94.199996948242</ele>
        <time>2023-12-19T14:15:27Z</time>
      </trkpt>
      <trkpt lat="43.46012" lon="3.49559">
        <ele>93.800003051758</ele>
        <time>2023-12-19T14:15:28Z</time>
      </trkpt>
      <trkpt lat="43.46015" lon="3.49568">
        <ele>93.400001525879</ele>
        <time>2023-12-19T14:15:29Z</time>
      </trkpt>
      <trkpt lat="43.46017" lon="3.49578">
        <ele>93.199996948242</ele>
        <time>2023-12-19T14:15:30Z</time>
      </trkpt>
      <trkpt lat="43.46017" lon="3.49587">
        <ele>92.800003051758</ele>
        <time>2023-12-19T14:15:31Z</time>
      </trkpt>
      <trkpt lat="43.46017" lon="3.49597">
        <ele>92.599998474121</ele>
        <time>2023-12-19T14:15:32Z</time>
      </trkpt>
      <trkpt lat="43.46017" lon="3.49606">
        <ele>92.199996948242</ele>
        <time>2023-12-19T14:15:33Z</time>
      </trkpt>
      <trkpt lat="43.46016" lon="3.49615">
        <ele>92</ele>
        <time>2023-12-19T14:15:34Z</time>
      </trkpt>
      <trkpt lat="43.46015" lon="3.49625">
        <ele>92</ele>
        <time>2023-12-19T14:15:35Z</time>
      </trkpt>
      <trkpt lat="43.46016" lon="3.49634">
        <ele>91.800003051758</ele>
        <time>2023-12-19T14:15:36Z</time>
      </trkpt>
      <trkpt lat="43.46018" lon="3.49643">
        <ele>91.800003051758</ele>
        <time>2023-12-19T14:15:37Z</time>
      </trkpt>
      <trkpt lat="43.46021" lon="3.4965">
        <ele>91.800003051758</ele>
        <time>2023-12-19T14:15:38Z</time>
      </trkpt>
      <trkpt lat="43.46025" lon="3.49657">
        <ele>91.800003051758</ele>
        <time>2023-12-19T14:15:39Z</time>
      </trkpt>
      <trkpt lat="43.46029" lon="3.49664">
        <ele>91.800003051758</ele>
        <time>2023-12-19T14:15:40Z</time>
      </trkpt>
      <trkpt lat="43.46034" lon="3.49669">
        <ele>91.800003051758</ele>
        <time>2023-12-19T14:15:41Z</time>
      </trkpt>
      <trkpt lat="43.46038" lon="3.49672">
        <ele>91.800003051758</ele>
        <time>2023-12-19T14:15:42Z</time>
      </trkpt>
      <trkpt lat="43.46042" lon="3.49674">
        <ele>91.800003051758</ele>
        <time>2023-12-19T14:15:43Z</time>
      </trkpt>
      <trkpt lat="43.46046" lon="3.49676">
        <ele>91.800003051758</ele>
        <time>2023-12-19T14:15:44Z</time>
      </trkpt>
      <trkpt lat="43.46049" lon="3.49677">
        <ele>91.800003051758</ele>
        <time>2023-12-19T14:15:45Z</time>
      </trkpt>
      <trkpt lat="43.46052" lon="3.49679">
        <ele>91.599998474121</ele>
        <time>2023-12-19T14:15:46Z</time>
      </trkpt>
      <trkpt lat="43.46056" lon="3.4968">
        <ele>91.599998474121</ele>
        <time>2023-12-19T14:15:47Z</time>
      </trkpt>
      <trkpt lat="43.4606" lon="3.49682">
        <ele>91.599998474121</ele>
        <time>2023-12-19T14:15:48Z</time>
      </trkpt>
      <trkpt lat="43.46065" lon="3.49684">
        <ele>91.599998474121</ele>
        <time>2023-12-19T14:15:49Z</time>
      </trkpt>
      <trkpt lat="43.4607" lon="3.49686">
        <ele>91.400001525879</ele>
        <time>2023-12-19T14:15:50Z</time>
      </trkpt>
      <trkpt lat="43.46075" lon="3.49688">
        <ele>91.199996948242</ele>
        <time>2023-12-19T14:15:51Z</time>
      </trkpt>
      <trkpt lat="43.4608" lon="3.4969">
        <ele>91</ele>
        <time>2023-12-19T14:15:52Z</time>
      </trkpt>
      <trkpt lat="43.46084" lon="3.49692">
        <ele>91</ele>
        <time>2023-12-19T14:15:53Z</time>
      </trkpt>
      <trkpt lat="43.46089" lon="3.49694">
        <ele>90.800003051758</ele>
        <time>2023-12-19T14:15:54Z</time>
      </trkpt>
      <trkpt lat="43.46094" lon="3.49697">
        <ele>90.800003051758</ele>
        <time>2023-12-19T14:15:55Z</time>
      </trkpt>
      <trkpt lat="43.46099" lon="3.49698">
        <ele>90.800003051758</ele>
        <time>2023-12-19T14:15:56Z</time>
      </trkpt>
      <trkpt lat="43.46104" lon="3.49701">
        <ele>90.800003051758</ele>
        <time>2023-12-19T14:15:57Z</time>
      </trkpt>
      <trkpt lat="43.46109" lon="3.49703">
        <ele>90.800003051758</ele>
        <time>2023-12-19T14:15:58Z</time>
      </trkpt>
      <trkpt lat="43.46114" lon="3.49706">
        <ele>91</ele>
        <time>2023-12-19T14:15:59Z</time>
      </trkpt>
      <trkpt lat="43.46119" lon="3.49708">
        <ele>91</ele>
        <time>2023-12-19T14:16:00Z</time>
      </trkpt>
      <trkpt lat="43.46124" lon="3.49711">
        <ele>91.199996948242</ele>
        <time>2023-12-19T14:16:01Z</time>
      </trkpt>
      <trkpt lat="43.4613" lon="3.49713">
        <ele>91.199996948242</ele>
        <time>2023-12-19T14:16:02Z</time>
      </trkpt>
      <trkpt lat="43.46135" lon="3.49715">
        <ele>91.199996948242</ele>
        <time>2023-12-19T14:16:03Z</time>
      </trkpt>
      <trkpt lat="43.4614" lon="3.49717">
        <ele>91.199996948242</ele>
        <time>2023-12-19T14:16:04Z</time>
      </trkpt>
      <trkpt lat="43.46145" lon="3.49719">
        <ele>91.199996948242</ele>
        <time>2023-12-19T14:16:05Z</time>
      </trkpt>
      <trkpt lat="43.4615" lon="3.49722">
        <ele>91.199996948242</ele>
        <time>2023-12-19T14:16:06Z</time>
      </trkpt>
      <trkpt lat="43.46156" lon="3.49724">
        <ele>91.199996948242</ele>
        <time>2023-12-19T14:16:07Z</time>
      </trkpt>
      <trkpt lat="43.46161" lon="3.49726">
        <ele>91.199996948242</ele>
        <time>2023-12-19T14:16:08Z</time>
      </trkpt>
      <trkpt lat="43.46166" lon="3.49728">
        <ele>91.400001525879</ele>
        <time>2023-12-19T14:16:09Z</time>
      </trkpt>
      <trkpt lat="43.46172" lon="3.4973">
        <ele>91.599998474121</ele>
        <time>2023-12-19T14:16:10Z</time>
      </trkpt>
      <trkpt lat="43.46177" lon="3.49731">
        <ele>91.599998474121</ele>
        <time>2023-12-19T14:16:11Z</time>
      </trkpt>
      <trkpt lat="43.46182" lon="3.49733">
        <ele>91.800003051758</ele>
        <time>2023-12-19T14:16:12Z</time>
      </trkpt>
      <trkpt lat="43.46187" lon="3.49736">
        <ele>92.199996948242</ele>
        <time>2023-12-19T14:16:13Z</time>
      </trkpt>
      <trkpt lat="43.46192" lon="3.49738">
        <ele>92.400001525879</ele>
        <time>2023-12-19T14:16:14Z</time>
      </trkpt>
      <trkpt lat="43.46196" lon="3.49741">
        <ele>92.800003051758</ele>
        <time>2023-12-19T14:16:15Z</time>
      </trkpt>
      <trkpt lat="43.46201" lon="3.49745">
        <ele>92.800003051758</ele>
        <time>2023-12-19T14:16:16Z</time>
      </trkpt>
      <trkpt lat="43.46205" lon="3.49749">
        <ele>92.800003051758</ele>
        <time>2023-12-19T14:16:17Z</time>
      </trkpt>
      <trkpt lat="43.46209" lon="3.49754">
        <ele>92.800003051758</ele>
        <time>2023-12-19T14:16:18Z</time>
      </trkpt>
      <trkpt lat="43.46213" lon="3.49759">
        <ele>93</ele>
        <time>2023-12-19T14:16:19Z</time>
      </trkpt>
      <trkpt lat="43.46216" lon="3.49764">
        <ele>93.400001525879</ele>
        <time>2023-12-19T14:16:20Z</time>
      </trkpt>
      <trkpt lat="43.46218" lon="3.49769">
        <ele>93.599998474121</ele>
        <time>2023-12-19T14:16:21Z</time>
      </trkpt>
      <trkpt lat="43.46221" lon="3.49774">
        <ele>93.800003051758</ele>
        <time>2023-12-19T14:16:22Z</time>
      </trkpt>
      <trkpt lat="43.46223" lon="3.4978">
        <ele>94</ele>
        <time>2023-12-19T14:16:23Z</time>
      </trkpt>
      <trkpt lat="43.46226" lon="3.49787">
        <ele>94.199996948242</ele>
        <time>2023-12-19T14:16:24Z</time>
      </trkpt>
      <trkpt lat="43.46229" lon="3.49793">
        <ele>94.199996948242</ele>
        <time>2023-12-19T14:16:25Z</time>
      </trkpt>
      <trkpt lat="43.46231" lon="3.49798">
        <ele>94.199996948242</ele>
        <time>2023-12-19T14:16:26Z</time>
      </trkpt>
      <trkpt lat="43.46233" lon="3.49802">
        <ele>94.400001525879</ele>
        <time>2023-12-19T14:16:27Z</time>
      </trkpt>
      <trkpt lat="43.46235" lon="3.49806">
        <ele>94.400001525879</ele>
        <time>2023-12-19T14:16:28Z</time>
      </trkpt>
      <trkpt lat="43.46237" lon="3.49809">
        <ele>94.599998474121</ele>
        <time>2023-12-19T14:16:29Z</time>
      </trkpt>
      <trkpt lat="43.46239" lon="3.49812">
        <ele>94.800003051758</ele>
        <time>2023-12-19T14:16:30Z</time>
      </trkpt>
      <trkpt lat="43.46241" lon="3.49814">
        <ele>95</ele>
        <time>2023-12-19T14:16:31Z</time>
      </trkpt>
      <trkpt lat="43.46242" lon="3.49817">
        <ele>95.400001525879</ele>
        <time>2023-12-19T14:16:32Z</time>
      </trkpt>
      <trkpt lat="43.46242" lon="3.49819">
        <ele>95.800003051758</ele>
        <time>2023-12-19T14:16:33Z</time>
      </trkpt>
      <trkpt lat="43.46241" lon="3.49822">
        <ele>96.199996948242</ele>
        <time>2023-12-19T14:16:34Z</time>
      </trkpt>
      <trkpt lat="43.4624" lon="3.49823">
        <ele>96.400001525879</ele>
        <time>2023-12-19T14:16:35Z</time>
      </trkpt>
      <trkpt lat="43.46238" lon="3.49824">
        <ele>96.400001525879</ele>
        <time>2023-12-19T14:16:36Z</time>
      </trkpt>
      <trkpt lat="43.46236" lon="3.49826">
        <ele>96.400001525879</ele>
        <time>2023-12-19T14:16:37Z</time>
      </trkpt>
      <trkpt lat="43.46234" lon="3.49826">
        <ele>96.400001525879</ele>
        <time>2023-12-19T14:16:38Z</time>
      </trkpt>
      <trkpt lat="43.46233" lon="3.49826">
        <ele>96.400001525879</ele>
        <time>2023-12-19T14:16:39Z</time>
      </trkpt>
      <trkpt lat="43.46231" lon="3.49826">
        <ele>96.400001525879</ele>
        <time>2023-12-19T14:16:40Z</time>
      </trkpt>
      <trkpt lat="43.46228" lon="3.49826">
        <ele>96.400001525879</ele>
        <time>2023-12-19T14:16:41Z</time>
      </trkpt>
      <trkpt lat="43.46226" lon="3.49827">
        <ele>96.400001525879</ele>
        <time>2023-12-19T14:16:42Z</time>
      </trkpt>
      <trkpt lat="43.46224" lon="3.49827">
        <ele>96.400001525879</ele>
        <time>2023-12-19T14:16:43Z</time>
      </trkpt>
      <trkpt lat="43.46221" lon="3.49828">
        <ele>96.400001525879</ele>
        <time>2023-12-19T14:16:44Z</time>
      </trkpt>
      <trkpt lat="43.46217" lon="3.49829">
        <ele>96.400001525879</ele>
        <time>2023-12-19T14:16:45Z</time>
      </trkpt>
      <trkpt lat="43.46213" lon="3.49829">
        <ele>96.400001525879</ele>
        <time>2023-12-19T14:16:46Z</time>
      </trkpt>
      <trkpt lat="43.46209" lon="3.49829">
        <ele>96.400001525879</ele>
        <time>2023-12-19T14:16:47Z</time>
      </trkpt>
      <trkpt lat="43.46205" lon="3.49828">
        <ele>96.599998474121</ele>
        <time>2023-12-19T14:16:48Z</time>
      </trkpt>
      <trkpt lat="43.46202" lon="3.49828">
        <ele>96.599998474121</ele>
        <time>2023-12-19T14:16:49Z</time>
      </trkpt>
      <trkpt lat="43.46198" lon="3.49829">
        <ele>96.800003051758</ele>
        <time>2023-12-19T14:16:50Z</time>
      </trkpt>
      <trkpt lat="43.46196" lon="3.49832">
        <ele>97</ele>
        <time>2023-12-19T14:16:51Z</time>
      </trkpt>
      <trkpt lat="43.46194" lon="3.49837">
        <ele>97.199996948242</ele>
        <time>2023-12-19T14:16:52Z</time>
      </trkpt>
      <trkpt lat="43.4619" lon="3.49839">
        <ele>97.400001525879</ele>
        <time>2023-12-19T14:16:53Z</time>
      </trkpt>
      <trkpt lat="43.46187" lon="3.49838">
        <ele>97.599998474121</ele>
        <time>2023-12-19T14:16:54Z</time>
      </trkpt>
      <trkpt lat="43.46183" lon="3.49836">
        <ele>97.599998474121</ele>
        <time>2023-12-19T14:16:55Z</time>
      </trkpt>
      <trkpt lat="43.46181" lon="3.49832">
        <ele>97.599998474121</ele>
        <time>2023-12-19T14:16:56Z</time>
      </trkpt>
      <trkpt lat="43.46177" lon="3.4983">
        <ele>97.599998474121</ele>
        <time>2023-12-19T14:16:57Z</time>
      </trkpt>
      <trkpt lat="43.46174" lon="3.4983">
        <ele>97.599998474121</ele>
        <time>2023-12-19T14:16:58Z</time>
      </trkpt>
      <trkpt lat="43.46171" lon="3.49829">
        <ele>97.599998474121</ele>
        <time>2023-12-19T14:16:59Z</time>
      </trkpt>
      <trkpt lat="43.46169" lon="3.49828">
        <ele>97.400001525879</ele>
        <time>2023-12-19T14:17:00Z</time>
      </trkpt>
      <trkpt lat="43.46165" lon="3.49829">
        <ele>97.199996948242</ele>
        <time>2023-12-19T14:17:01Z</time>
      </trkpt>
      <trkpt lat="43.46162" lon="3.49832">
        <ele>97.199996948242</ele>
        <time>2023-12-19T14:17:02Z</time>
      </trkpt>
      <trkpt lat="43.4616" lon="3.49835">
        <ele>97</ele>
        <time>2023-12-19T14:17:03Z</time>
      </trkpt>
      <trkpt lat="43.46158" lon="3.49839">
        <ele>97</ele>
        <time>2023-12-19T14:17:04Z</time>
      </trkpt>
      <trkpt lat="43.46156" lon="3.49842">
        <ele>97</ele>
        <time>2023-12-19T14:17:05Z</time>
      </trkpt>
      <trkpt lat="43.46152" lon="3.49843">
        <ele>97</ele>
        <time>2023-12-19T14:17:06Z</time>
      </trkpt>
      <trkpt lat="43.46149" lon="3.49846">
        <ele>97</ele>
        <time>2023-12-19T14:17:07Z</time>
      </trkpt>
      <trkpt lat="43.46145" lon="3.49849">
        <ele>97</ele>
        <time>2023-12-19T14:17:08Z</time>
      </trkpt>
      <trkpt lat="43.46142" lon="3.49852">
        <ele>97.199996948242</ele>
        <time>2023-12-19T14:17:09Z</time>
      </trkpt>
      <trkpt lat="43.46139" lon="3.49854">
        <ele>97.199996948242</ele>
        <time>2023-12-19T14:17:10Z</time>
      </trkpt>
      <trkpt lat="43.46136" lon="3.49857">
        <ele>97.400001525879</ele>
        <time>2023-12-19T14:17:11Z</time>
      </trkpt>
      <trkpt lat="43.46133" lon="3.49861">
        <ele>97.400001525879</ele>
        <time>2023-12-19T14:17:12Z</time>
      </trkpt>
      <trkpt lat="43.4613" lon="3.49864">
        <ele>97.599998474121</ele>
        <time>2023-12-19T14:17:13Z</time>
      </trkpt>
      <trkpt lat="43.46127" lon="3.49864">
        <ele>97.599998474121</ele>
        <time>2023-12-19T14:17:14Z</time>
      </trkpt>
      <trkpt lat="43.46125" lon="3.49865">
        <ele>98</ele>
        <time>2023-12-19T14:17:15Z</time>
      </trkpt>
      <trkpt lat="43.46123" lon="3.49868">
        <ele>98.199996948242</ele>
        <time>2023-12-19T14:17:16Z</time>
      </trkpt>
      <trkpt lat="43.46121" lon="3.49872">
        <ele>98.400001525879</ele>
        <time>2023-12-19T14:17:17Z</time>
      </trkpt>
      <trkpt lat="43.46118" lon="3.49876">
        <ele>98.800003051758</ele>
        <time>2023-12-19T14:17:18Z</time>
      </trkpt>
      <trkpt lat="43.46114" lon="3.4988">
        <ele>99.199996948242</ele>
        <time>2023-12-19T14:17:19Z</time>
      </trkpt>
      <trkpt lat="43.4611" lon="3.49882">
        <ele>99.400001525879</ele>
        <time>2023-12-19T14:17:20Z</time>
      </trkpt>
      <trkpt lat="43.46107" lon="3.49885">
        <ele>99.599998474121</ele>
        <time>2023-12-19T14:17:21Z</time>
      </trkpt>
      <trkpt lat="43.46105" lon="3.49889">
        <ele>99.599998474121</ele>
        <time>2023-12-19T14:17:22Z</time>
      </trkpt>
      <trkpt lat="43.46104" lon="3.49892">
        <ele>99.800003051758</ele>
        <time>2023-12-19T14:17:23Z</time>
      </trkpt>
      <trkpt lat="43.46102" lon="3.49897">
        <ele>100</ele>
        <time>2023-12-19T14:17:24Z</time>
      </trkpt>
      <trkpt lat="43.46101" lon="3.49902">
        <ele>100</ele>
        <time>2023-12-19T14:17:25Z</time>
      </trkpt>
      <trkpt lat="43.46101" lon="3.49908">
        <ele>100</ele>
        <time>2023-12-19T14:17:26Z</time>
      </trkpt>
      <trkpt lat="43.46101" lon="3.49913">
        <ele>100</ele>
        <time>2023-12-19T14:17:27Z</time>
      </trkpt>
      <trkpt lat="43.46101" lon="3.49918">
        <ele>99.800003051758</ele>
        <time>2023-12-19T14:17:28Z</time>
      </trkpt>
      <trkpt lat="43.46103" lon="3.49924">
        <ele>99.400001525879</ele>
        <time>2023-12-19T14:17:29Z</time>
      </trkpt>
      <trkpt lat="43.46103" lon="3.4993">
        <ele>99</ele>
        <time>2023-12-19T14:17:30Z</time>
      </trkpt>
      <trkpt lat="43.46104" lon="3.49936">
        <ele>98.599998474121</ele>
        <time>2023-12-19T14:17:31Z</time>
      </trkpt>
      <trkpt lat="43.46104" lon="3.49941">
        <ele>98.199996948242</ele>
        <time>2023-12-19T14:17:32Z</time>
      </trkpt>
      <trkpt lat="43.46101" lon="3.49945">
        <ele>97.800003051758</ele>
        <time>2023-12-19T14:17:33Z</time>
      </trkpt>
      <trkpt lat="43.46098" lon="3.49948">
        <ele>97.199996948242</ele>
        <time>2023-12-19T14:17:34Z</time>
      </trkpt>
      <trkpt lat="43.46097" lon="3.49953">
        <ele>96.800003051758</ele>
        <time>2023-12-19T14:17:35Z</time>
      </trkpt>
      <trkpt lat="43.46096" lon="3.49958">
        <ele>96.599998474121</ele>
        <time>2023-12-19T14:17:36Z</time>
      </trkpt>
      <trkpt lat="43.46097" lon="3.49964">
        <ele>96.400001525879</ele>
        <time>2023-12-19T14:17:37Z</time>
      </trkpt>
      <trkpt lat="43.46098" lon="3.4997">
        <ele>96.199996948242</ele>
        <time>2023-12-19T14:17:38Z</time>
      </trkpt>
      <trkpt lat="43.46099" lon="3.49977">
        <ele>95.800003051758</ele>
        <time>2023-12-19T14:17:39Z</time>
      </trkpt>
      <trkpt lat="43.46098" lon="3.49984">
        <ele>95.599998474121</ele>
        <time>2023-12-19T14:17:40Z</time>
      </trkpt>
      <trkpt lat="43.46097" lon="3.49992">
        <ele>95.199996948242</ele>
        <time>2023-12-19T14:17:41Z</time>
      </trkpt>
      <trkpt lat="43.46095" lon="3.49999">
        <ele>95</ele>
        <time>2023-12-19T14:17:42Z</time>
      </trkpt>
      <trkpt lat="43.46092" lon="3.50007">
        <ele>94.599998474121</ele>
        <time>2023-12-19T14:17:43Z</time>
      </trkpt>
      <trkpt lat="43.4609" lon="3.50014">
        <ele>94.599998474121</ele>
        <time>2023-12-19T14:17:44Z</time>
      </trkpt>
      <trkpt lat="43.46087" lon="3.50022">
        <ele>94.599998474121</ele>
        <time>2023-12-19T14:17:45Z</time>
      </trkpt>
      <trkpt lat="43.46086" lon="3.5003">
        <ele>94.599998474121</ele>
        <time>2023-12-19T14:17:46Z</time>
      </trkpt>
      <trkpt lat="43.46085" lon="3.50037">
        <ele>94.599998474121</ele>
        <time>2023-12-19T14:17:47Z</time>
      </trkpt>
      <trkpt lat="43.46085" lon="3.50045">
        <ele>94.400001525879</ele>
        <time>2023-12-19T14:17:48Z</time>
      </trkpt>
      <trkpt lat="43.46085" lon="3.50053">
        <ele>94.199996948242</ele>
        <time>2023-12-19T14:17:49Z</time>
      </trkpt>
      <trkpt lat="43.46086" lon="3.50061">
        <ele>94.199996948242</ele>
        <time>2023-12-19T14:17:50Z</time>
      </trkpt>
      <trkpt lat="43.46088" lon="3.50068">
        <ele>93.800003051758</ele>
        <time>2023-12-19T14:17:51Z</time>
      </trkpt>
      <trkpt lat="43.4609" lon="3.50075">
        <ele>93.599998474121</ele>
        <time>2023-12-19T14:17:52Z</time>
      </trkpt>
      <trkpt lat="43.46093" lon="3.50082">
        <ele>93.400001525879</ele>
        <time>2023-12-19T14:17:53Z</time>
      </trkpt>
      <trkpt lat="43.46095" lon="3.50088">
        <ele>93</ele>
        <time>2023-12-19T14:17:54Z</time>
      </trkpt>
      <trkpt lat="43.46097" lon="3.50094">
        <ele>93</ele>
        <time>2023-12-19T14:17:55Z</time>
      </trkpt>
      <trkpt lat="43.46099" lon="3.501">
        <ele>92.800003051758</ele>
        <time>2023-12-19T14:17:56Z</time>
      </trkpt>
      <trkpt lat="43.46101" lon="3.50106">
        <ele>92.599998474121</ele>
        <time>2023-12-19T14:17:57Z</time>
      </trkpt>
      <trkpt lat="43.46102" lon="3.50112">
        <ele>92.400001525879</ele>
        <time>2023-12-19T14:17:58Z</time>
      </trkpt>
      <trkpt lat="43.46102" lon="3.50119">
        <ele>92.400001525879</ele>
        <time>2023-12-19T14:17:59Z</time>
      </trkpt>
      <trkpt lat="43.46101" lon="3.50127">
        <ele>92.199996948242</ele>
        <time>2023-12-19T14:18:00Z</time>
      </trkpt>
      <trkpt lat="43.46098" lon="3.50134">
        <ele>92.199996948242</ele>
        <time>2023-12-19T14:18:01Z</time>
      </trkpt>
      <trkpt lat="43.46096" lon="3.50142">
        <ele>92.199996948242</ele>
        <time>2023-12-19T14:18:02Z</time>
      </trkpt>
      <trkpt lat="43.46094" lon="3.5015">
        <ele>92</ele>
        <time>2023-12-19T14:18:03Z</time>
      </trkpt>
      <trkpt lat="43.46091" lon="3.50158">
        <ele>91.800003051758</ele>
        <time>2023-12-19T14:18:04Z</time>
      </trkpt>
      <trkpt lat="43.46085" lon="3.50162">
        <ele>91.599998474121</ele>
        <time>2023-12-19T14:18:05Z</time>
      </trkpt>
      <trkpt lat="43.46081" lon="3.50168">
        <ele>91.400001525879</ele>
        <time>2023-12-19T14:18:06Z</time>
      </trkpt>
      <trkpt lat="43.46078" lon="3.50175">
        <ele>91.400001525879</ele>
        <time>2023-12-19T14:18:07Z</time>
      </trkpt>
      <trkpt lat="43.46076" lon="3.50182">
        <ele>91.400001525879</ele>
        <time>2023-12-19T14:18:08Z</time>
      </trkpt>
      <trkpt lat="43.46075" lon="3.50189">
        <ele>91.199996948242</ele>
        <time>2023-12-19T14:18:09Z</time>
      </trkpt>
      <trkpt lat="43.46073" lon="3.50195">
        <ele>91.199996948242</ele>
        <time>2023-12-19T14:18:10Z</time>
      </trkpt>
      <trkpt lat="43.4607" lon="3.502">
        <ele>91.199996948242</ele>
        <time>2023-12-19T14:18:11Z</time>
      </trkpt>
      <trkpt lat="43.46067" lon="3.50207">
        <ele>91.199996948242</ele>
        <time>2023-12-19T14:18:12Z</time>
      </trkpt>
      <trkpt lat="43.46065" lon="3.50215">
        <ele>91.199996948242</ele>
        <time>2023-12-19T14:18:13Z</time>
      </trkpt>
      <trkpt lat="43.46063" lon="3.50223">
        <ele>91.400001525879</ele>
        <time>2023-12-19T14:18:14Z</time>
      </trkpt>
      <trkpt lat="43.46062" lon="3.50229">
        <ele>91.400001525879</ele>
        <time>2023-12-19T14:18:15Z</time>
      </trkpt>
      <trkpt lat="43.46062" lon="3.50235">
        <ele>91.400001525879</ele>
        <time>2023-12-19T14:18:16Z</time>
      </trkpt>
      <trkpt lat="43.46062" lon="3.50242">
        <ele>91.400001525879</ele>
        <time>2023-12-19T14:18:17Z</time>
      </trkpt>
      <trkpt lat="43.46064" lon="3.50248">
        <ele>91.400001525879</ele>
        <time>2023-12-19T14:18:18Z</time>
      </trkpt>
      <trkpt lat="43.46066" lon="3.50252">
        <ele>91.400001525879</ele>
        <time>2023-12-19T14:18:19Z</time>
      </trkpt>
      <trkpt lat="43.46069" lon="3.50255">
        <ele>91.400001525879</ele>
        <time>2023-12-19T14:18:20Z</time>
      </trkpt>
      <trkpt lat="43.46072" lon="3.50258">
        <ele>91.199996948242</ele>
        <time>2023-12-19T14:18:21Z</time>
      </trkpt>
      <trkpt lat="43.46076" lon="3.50261">
        <ele>91.199996948242</ele>
        <time>2023-12-19T14:18:22Z</time>
      </trkpt>
      <trkpt lat="43.46079" lon="3.50264">
        <ele>91.199996948242</ele>
        <time>2023-12-19T14:18:23Z</time>
      </trkpt>
      <trkpt lat="43.46083" lon="3.50266">
        <ele>91</ele>
        <time>2023-12-19T14:18:24Z</time>
      </trkpt>
      <trkpt lat="43.46087" lon="3.50267">
        <ele>91</ele>
        <time>2023-12-19T14:18:25Z</time>
      </trkpt>
      <trkpt lat="43.4609" lon="3.50269">
        <ele>90.800003051758</ele>
        <time>2023-12-19T14:18:26Z</time>
      </trkpt>
      <trkpt lat="43.46094" lon="3.50272">
        <ele>90.400001525879</ele>
        <time>2023-12-19T14:18:27Z</time>
      </trkpt>
      <trkpt lat="43.46096" lon="3.50276">
        <ele>90.199996948242</ele>
        <time>2023-12-19T14:18:28Z</time>
      </trkpt>
      <trkpt lat="43.46099" lon="3.5028">
        <ele>90</ele>
        <time>2023-12-19T14:18:29Z</time>
      </trkpt>
      <trkpt lat="43.46103" lon="3.50284">
        <ele>89.800003051758</ele>
        <time>2023-12-19T14:18:30Z</time>
      </trkpt>
      <trkpt lat="43.46108" lon="3.50287">
        <ele>89.599998474121</ele>
        <time>2023-12-19T14:18:31Z</time>
      </trkpt>
      <trkpt lat="43.46113" lon="3.50288">
        <ele>88.800003051758</ele>
        <time>2023-12-19T14:18:32Z</time>
      </trkpt>
      <trkpt lat="43.46115" lon="3.50288">
        <ele>88.199996948242</ele>
        <time>2023-12-19T14:18:33Z</time>
      </trkpt>
      <trkpt lat="43.46119" lon="3.5029">
        <ele>87.400001525879</ele>
        <time>2023-12-19T14:18:34Z</time>
      </trkpt>
      <trkpt lat="43.4612" lon="3.50291">
        <ele>87</ele>
        <time>2023-12-19T14:18:35Z</time>
      </trkpt>
      <trkpt lat="43.46122" lon="3.50294">
        <ele>87</ele>
        <time>2023-12-19T14:18:36Z</time>
      </trkpt>
      <trkpt lat="43.46124" lon="3.50296">
        <ele>86.800003051758</ele>
        <time>2023-12-19T14:18:37Z</time>
      </trkpt>
      <trkpt lat="43.46126" lon="3.50299">
        <ele>86.800003051758</ele>
        <time>2023-12-19T14:18:38Z</time>
      </trkpt>
      <trkpt lat="43.46128" lon="3.50305">
        <ele>86.599998474121</ele>
        <time>2023-12-19T14:18:39Z</time>
      </trkpt>
      <trkpt lat="43.46129" lon="3.50313">
        <ele>86.599998474121</ele>
        <time>2023-12-19T14:18:40Z</time>
      </trkpt>
      <trkpt lat="43.4613" lon="3.50318">
        <ele>86.400001525879</ele>
        <time>2023-12-19T14:18:41Z</time>
      </trkpt>
      <trkpt lat="43.46131" lon="3.50325">
        <ele>85.800003051758</ele>
        <time>2023-12-19T14:18:42Z</time>
      </trkpt>
      <trkpt lat="43.4613" lon="3.50329">
        <ele>85</ele>
        <time>2023-12-19T14:18:43Z</time>
      </trkpt>
      <trkpt lat="43.46129" lon="3.50331">
        <ele>83.800003051758</ele>
        <time>2023-12-19T14:18:44Z</time>
      </trkpt>
      <trkpt lat="43.4613" lon="3.50334">
        <ele>82.800003051758</ele>
        <time>2023-12-19T14:18:45Z</time>
      </trkpt>
      <trkpt lat="43.46129" lon="3.50338">
        <ele>82.599998474121</ele>
        <time>2023-12-19T14:18:46Z</time>
      </trkpt>
      <trkpt lat="43.46126" lon="3.50343">
        <ele>82.400001525879</ele>
        <time>2023-12-19T14:18:47Z</time>
      </trkpt>
      <trkpt lat="43.46123" lon="3.50348">
        <ele>82.199996948242</ele>
        <time>2023-12-19T14:18:48Z</time>
      </trkpt>
      <trkpt lat="43.4612" lon="3.5035">
        <ele>82</ele>
        <time>2023-12-19T14:18:49Z</time>
      </trkpt>
      <trkpt lat="43.46117" lon="3.50352">
        <ele>81.599998474121</ele>
        <time>2023-12-19T14:18:50Z</time>
      </trkpt>
      <trkpt lat="43.46114" lon="3.50352">
        <ele>80.599998474121</ele>
        <time>2023-12-19T14:18:51Z</time>
      </trkpt>
      <trkpt lat="43.46113" lon="3.50351">
        <ele>79.800003051758</ele>
        <time>2023-12-19T14:18:52Z</time>
      </trkpt>
      <trkpt lat="43.46111" lon="3.50349">
        <ele>79.800003051758</ele>
        <time>2023-12-19T14:18:53Z</time>
      </trkpt>
      <trkpt lat="43.46109" lon="3.50347">
        <ele>79.800003051758</ele>
        <time>2023-12-19T14:18:54Z</time>
      </trkpt>
      <trkpt lat="43.46108" lon="3.50344">
        <ele>79.800003051758</ele>
        <time>2023-12-19T14:18:55Z</time>
      </trkpt>
      <trkpt lat="43.46106" lon="3.5034">
        <ele>79.800003051758</ele>
        <time>2023-12-19T14:18:56Z</time>
      </trkpt>
      <trkpt lat="43.46104" lon="3.50338">
        <ele>79.800003051758</ele>
        <time>2023-12-19T14:18:57Z</time>
      </trkpt>
      <trkpt lat="43.46102" lon="3.50338">
        <ele>79.800003051758</ele>
        <time>2023-12-19T14:18:58Z</time>
      </trkpt>
      <trkpt lat="43.46101" lon="3.50339">
        <ele>79.800003051758</ele>
        <time>2023-12-19T14:18:59Z</time>
      </trkpt>
      <trkpt lat="43.461" lon="3.50343">
        <ele>79.800003051758</ele>
        <time>2023-12-19T14:19:00Z</time>
      </trkpt>
      <trkpt lat="43.46101" lon="3.50348">
        <ele>79.800003051758</ele>
        <time>2023-12-19T14:19:01Z</time>
      </trkpt>
      <trkpt lat="43.46101" lon="3.50354">
        <ele>79.800003051758</ele>
        <time>2023-12-19T14:19:02Z</time>
      </trkpt>
      <trkpt lat="43.46101" lon="3.5036">
        <ele>79.800003051758</ele>
        <time>2023-12-19T14:19:03Z</time>
      </trkpt>
      <trkpt lat="43.461" lon="3.50364">
        <ele>79.400001525879</ele>
        <time>2023-12-19T14:19:04Z</time>
      </trkpt>
      <trkpt lat="43.46098" lon="3.50366">
        <ele>79</ele>
        <time>2023-12-19T14:19:05Z</time>
      </trkpt>
      <trkpt lat="43.46097" lon="3.50367">
        <ele>78.400001525879</ele>
        <time>2023-12-19T14:19:06Z</time>
      </trkpt>
      <trkpt lat="43.46094" lon="3.50369">
        <ele>77.800003051758</ele>
        <time>2023-12-19T14:19:07Z</time>
      </trkpt>
      <trkpt lat="43.46092" lon="3.50373">
        <ele>77.599998474121</ele>
        <time>2023-12-19T14:19:08Z</time>
      </trkpt>
      <trkpt lat="43.4609" lon="3.50377">
        <ele>77.599998474121</ele>
        <time>2023-12-19T14:19:09Z</time>
      </trkpt>
      <trkpt lat="43.46089" lon="3.5038">
        <ele>77.400001525879</ele>
        <time>2023-12-19T14:19:10Z</time>
      </trkpt>
      <trkpt lat="43.46088" lon="3.5038">
        <ele>77.199996948242</ele>
        <time>2023-12-19T14:19:11Z</time>
      </trkpt>
      <trkpt lat="43.46087" lon="3.5038">
        <ele>76.800003051758</ele>
        <time>2023-12-19T14:19:12Z</time>
      </trkpt>
      <trkpt lat="43.46088" lon="3.5038">
        <ele>76.599998474121</ele>
        <time>2023-12-19T14:19:13Z</time>
      </trkpt>
      <trkpt lat="43.46084" lon="3.50384">
        <ele>76.400001525879</ele>
        <time>2023-12-19T14:19:41Z</time>
      </trkpt>
      <trkpt lat="43.46082" lon="3.50387">
        <ele>76.400001525879</ele>
        <time>2023-12-19T14:19:42Z</time>
      </trkpt>
      <trkpt lat="43.46078" lon="3.5039">
        <ele>76.400001525879</ele>
        <time>2023-12-19T14:19:43Z</time>
      </trkpt>
      <trkpt lat="43.46074" lon="3.50393">
        <ele>76.400001525879</ele>
        <time>2023-12-19T14:19:44Z</time>
      </trkpt>
      <trkpt lat="43.46069" lon="3.50397">
        <ele>76.199996948242</ele>
        <time>2023-12-19T14:19:45Z</time>
      </trkpt>
      <trkpt lat="43.46065" lon="3.50401">
        <ele>76</ele>
        <time>2023-12-19T14:19:46Z</time>
      </trkpt>
      <trkpt lat="43.46062" lon="3.50405">
        <ele>75.599998474121</ele>
        <time>2023-12-19T14:19:47Z</time>
      </trkpt>
      <trkpt lat="43.46057" lon="3.50408">
        <ele>75.400001525879</ele>
        <time>2023-12-19T14:19:48Z</time>
      </trkpt>
      <trkpt lat="43.46052" lon="3.50412">
        <ele>75.199996948242</ele>
        <time>2023-12-19T14:19:49Z</time>
      </trkpt>
      <trkpt lat="43.46048" lon="3.50416">
        <ele>75</ele>
        <time>2023-12-19T14:19:50Z</time>
      </trkpt>
      <trkpt lat="43.46044" lon="3.5042">
        <ele>74.800003051758</ele>
        <time>2023-12-19T14:19:51Z</time>
      </trkpt>
      <trkpt lat="43.46039" lon="3.50424">
        <ele>74.599998474121</ele>
        <time>2023-12-19T14:19:52Z</time>
      </trkpt>
      <trkpt lat="43.46035" lon="3.50428">
        <ele>74.599998474121</ele>
        <time>2023-12-19T14:19:53Z</time>
      </trkpt>
      <trkpt lat="43.46031" lon="3.50433">
        <ele>74.400001525879</ele>
        <time>2023-12-19T14:19:54Z</time>
      </trkpt>
      <trkpt lat="43.46028" lon="3.50437">
        <ele>74.400001525879</ele>
        <time>2023-12-19T14:19:55Z</time>
      </trkpt>
      <trkpt lat="43.46024" lon="3.50443">
        <ele>74.400001525879</ele>
        <time>2023-12-19T14:19:56Z</time>
      </trkpt>
      <trkpt lat="43.46021" lon="3.50448">
        <ele>74.400001525879</ele>
        <time>2023-12-19T14:19:57Z</time>
      </trkpt>
      <trkpt lat="43.46017" lon="3.50452">
        <ele>74.400001525879</ele>
        <time>2023-12-19T14:19:58Z</time>
      </trkpt>
      <trkpt lat="43.46012" lon="3.50456">
        <ele>74.199996948242</ele>
        <time>2023-12-19T14:19:59Z</time>
      </trkpt>
      <trkpt lat="43.46007" lon="3.5046">
        <ele>74</ele>
        <time>2023-12-19T14:20:00Z</time>
      </trkpt>
      <trkpt lat="43.46002" lon="3.50463">
        <ele>73.800003051758</ele>
        <time>2023-12-19T14:20:01Z</time>
      </trkpt>
      <trkpt lat="43.45998" lon="3.50467">
        <ele>73.800003051758</ele>
        <time>2023-12-19T14:20:02Z</time>
      </trkpt>
      <trkpt lat="43.45994" lon="3.50471">
        <ele>73.599998474121</ele>
        <time>2023-12-19T14:20:03Z</time>
      </trkpt>
      <trkpt lat="43.45989" lon="3.50474">
        <ele>73.400001525879</ele>
        <time>2023-12-19T14:20:04Z</time>
      </trkpt>
      <trkpt lat="43.45985" lon="3.50477">
        <ele>73.199996948242</ele>
        <time>2023-12-19T14:20:05Z</time>
      </trkpt>
      <trkpt lat="43.4598" lon="3.50481">
        <ele>73.199996948242</ele>
        <time>2023-12-19T14:20:06Z</time>
      </trkpt>
      <trkpt lat="43.45975" lon="3.50484">
        <ele>73</ele>
        <time>2023-12-19T14:20:07Z</time>
      </trkpt>
      <trkpt lat="43.4597" lon="3.50488">
        <ele>73</ele>
        <time>2023-12-19T14:20:08Z</time>
      </trkpt>
      <trkpt lat="43.45965" lon="3.5049">
        <ele>72.800003051758</ele>
        <time>2023-12-19T14:20:09Z</time>
      </trkpt>
      <trkpt lat="43.4596" lon="3.50494">
        <ele>72.400001525879</ele>
        <time>2023-12-19T14:20:10Z</time>
      </trkpt>
      <trkpt lat="43.45955" lon="3.50497">
        <ele>72.199996948242</ele>
        <time>2023-12-19T14:20:11Z</time>
      </trkpt>
      <trkpt lat="43.4595" lon="3.505">
        <ele>72.199996948242</ele>
        <time>2023-12-19T14:20:12Z</time>
      </trkpt>
      <trkpt lat="43.45945" lon="3.50503">
        <ele>72</ele>
        <time>2023-12-19T14:20:13Z</time>
      </trkpt>
      <trkpt lat="43.45939" lon="3.50507">
        <ele>72</ele>
        <time>2023-12-19T14:20:14Z</time>
      </trkpt>
      <trkpt lat="43.45934" lon="3.50511">
        <ele>71.800003051758</ele>
        <time>2023-12-19T14:20:15Z</time>
      </trkpt>
      <trkpt lat="43.45928" lon="3.50515">
        <ele>71.599998474121</ele>
        <time>2023-12-19T14:20:16Z</time>
      </trkpt>
      <trkpt lat="43.45923" lon="3.50519">
        <ele>71.400001525879</ele>
        <time>2023-12-19T14:20:17Z</time>
      </trkpt>
      <trkpt lat="43.45917" lon="3.50523">
        <ele>70.800003051758</ele>
        <time>2023-12-19T14:20:18Z</time>
      </trkpt>
      <trkpt lat="43.45911" lon="3.50528">
        <ele>70.599998474121</ele>
        <time>2023-12-19T14:20:19Z</time>
      </trkpt>
      <trkpt lat="43.45906" lon="3.50532">
        <ele>70.400001525879</ele>
        <time>2023-12-19T14:20:20Z</time>
      </trkpt>
      <trkpt lat="43.459" lon="3.50536">
        <ele>70.199996948242</ele>
        <time>2023-12-19T14:20:21Z</time>
      </trkpt>
      <trkpt lat="43.45894" lon="3.5054">
        <ele>70</ele>
        <time>2023-12-19T14:20:22Z</time>
      </trkpt>
      <trkpt lat="43.45887" lon="3.50545">
        <ele>69.400001525879</ele>
        <time>2023-12-19T14:20:23Z</time>
      </trkpt>
      <trkpt lat="43.45881" lon="3.5055">
        <ele>69.199996948242</ele>
        <time>2023-12-19T14:20:24Z</time>
      </trkpt>
      <trkpt lat="43.45875" lon="3.50554">
        <ele>68.800003051758</ele>
        <time>2023-12-19T14:20:25Z</time>
      </trkpt>
      <trkpt lat="43.45868" lon="3.50559">
        <ele>68.599998474121</ele>
        <time>2023-12-19T14:20:26Z</time>
      </trkpt>
      <trkpt lat="43.45862" lon="3.50563">
        <ele>68.400001525879</ele>
        <time>2023-12-19T14:20:27Z</time>
      </trkpt>
      <trkpt lat="43.45855" lon="3.50568">
        <ele>68</ele>
        <time>2023-12-19T14:20:28Z</time>
      </trkpt>
      <trkpt lat="43.45849" lon="3.50573">
        <ele>67.800003051758</ele>
        <time>2023-12-19T14:20:29Z</time>
      </trkpt>
      <trkpt lat="43.45842" lon="3.50578">
        <ele>67.400001525879</ele>
        <time>2023-12-19T14:20:30Z</time>
      </trkpt>
      <trkpt lat="43.45835" lon="3.50582">
        <ele>67.199996948242</ele>
        <time>2023-12-19T14:20:31Z</time>
      </trkpt>
      <trkpt lat="43.45829" lon="3.50587">
        <ele>66.800003051758</ele>
        <time>2023-12-19T14:20:32Z</time>
      </trkpt>
      <trkpt lat="43.45823" lon="3.50591">
        <ele>66.199996948242</ele>
        <time>2023-12-19T14:20:33Z</time>
      </trkpt>
      <trkpt lat="43.45816" lon="3.50595">
        <ele>66</ele>
        <time>2023-12-19T14:20:34Z</time>
      </trkpt>
      <trkpt lat="43.4581" lon="3.506">
        <ele>66</ele>
        <time>2023-12-19T14:20:35Z</time>
      </trkpt>
      <trkpt lat="43.45804" lon="3.50605">
        <ele>65.599998474121</ele>
        <time>2023-12-19T14:20:36Z</time>
      </trkpt>
      <trkpt lat="43.45798" lon="3.50609">
        <ele>65.400001525879</ele>
        <time>2023-12-19T14:20:37Z</time>
      </trkpt>
      <trkpt lat="43.45792" lon="3.50614">
        <ele>65</ele>
        <time>2023-12-19T14:20:38Z</time>
      </trkpt>
      <trkpt lat="43.45788" lon="3.50617">
        <ele>64.800003051758</ele>
        <time>2023-12-19T14:20:39Z</time>
      </trkpt>
      <trkpt lat="43.45784" lon="3.5062">
        <ele>64.599998474121</ele>
        <time>2023-12-19T14:20:40Z</time>
      </trkpt>
      <trkpt lat="43.45781" lon="3.50623">
        <ele>64.400001525879</ele>
        <time>2023-12-19T14:20:41Z</time>
      </trkpt>
      <trkpt lat="43.45778" lon="3.50626">
        <ele>64.199996948242</ele>
        <time>2023-12-19T14:20:42Z</time>
      </trkpt>
      <trkpt lat="43.45774" lon="3.5063">
        <ele>64</ele>
        <time>2023-12-19T14:20:43Z</time>
      </trkpt>
      <trkpt lat="43.4577" lon="3.50634">
        <ele>63.599998474121</ele>
        <time>2023-12-19T14:20:44Z</time>
      </trkpt>
      <trkpt lat="43.45765" lon="3.50638">
        <ele>63.400001525879</ele>
        <time>2023-12-19T14:20:45Z</time>
      </trkpt>
      <trkpt lat="43.45761" lon="3.50642">
        <ele>63</ele>
        <time>2023-12-19T14:20:46Z</time>
      </trkpt>
      <trkpt lat="43.45757" lon="3.50647">
        <ele>62.599998474121</ele>
        <time>2023-12-19T14:20:47Z</time>
      </trkpt>
      <trkpt lat="43.45753" lon="3.50652">
        <ele>62.200000762939</ele>
        <time>2023-12-19T14:20:48Z</time>
      </trkpt>
      <trkpt lat="43.45749" lon="3.50657">
        <ele>62</ele>
        <time>2023-12-19T14:20:49Z</time>
      </trkpt>
      <trkpt lat="43.45745" lon="3.50663">
        <ele>61.599998474121</ele>
        <time>2023-12-19T14:20:50Z</time>
      </trkpt>
      <trkpt lat="43.45742" lon="3.50668">
        <ele>61.400001525879</ele>
        <time>2023-12-19T14:20:51Z</time>
      </trkpt>
      <trkpt lat="43.45739" lon="3.50674">
        <ele>61.200000762939</ele>
        <time>2023-12-19T14:20:52Z</time>
      </trkpt>
      <trkpt lat="43.45736" lon="3.5068">
        <ele>61</ele>
        <time>2023-12-19T14:20:53Z</time>
      </trkpt>
      <trkpt lat="43.45733" lon="3.50686">
        <ele>60.799999237061</ele>
        <time>2023-12-19T14:20:54Z</time>
      </trkpt>
      <trkpt lat="43.45731" lon="3.50693">
        <ele>60.599998474121</ele>
        <time>2023-12-19T14:20:55Z</time>
      </trkpt>
      <trkpt lat="43.45729" lon="3.507">
        <ele>60.400001525879</ele>
        <time>2023-12-19T14:20:56Z</time>
      </trkpt>
      <trkpt lat="43.45729" lon="3.50708">
        <ele>60.400001525879</ele>
        <time>2023-12-19T14:20:57Z</time>
      </trkpt>
      <trkpt lat="43.45729" lon="3.50715">
        <ele>60.200000762939</ele>
        <time>2023-12-19T14:20:58Z</time>
      </trkpt>
      <trkpt lat="43.45728" lon="3.50723">
        <ele>60</ele>
        <time>2023-12-19T14:20:59Z</time>
      </trkpt>
      <trkpt lat="43.45728" lon="3.5073">
        <ele>59.799999237061</ele>
        <time>2023-12-19T14:21:00Z</time>
      </trkpt>
      <trkpt lat="43.45728" lon="3.50738">
        <ele>59.599998474121</ele>
        <time>2023-12-19T14:21:01Z</time>
      </trkpt>
      <trkpt lat="43.45727" lon="3.50746">
        <ele>59.400001525879</ele>
        <time>2023-12-19T14:21:02Z</time>
      </trkpt>
      <trkpt lat="43.45727" lon="3.50753">
        <ele>59.400001525879</ele>
        <time>2023-12-19T14:21:03Z</time>
      </trkpt>
      <trkpt lat="43.45727" lon="3.50761">
        <ele>59.400001525879</ele>
        <time>2023-12-19T14:21:04Z</time>
      </trkpt>
      <trkpt lat="43.45726" lon="3.50768">
        <ele>59.200000762939</ele>
        <time>2023-12-19T14:21:05Z</time>
      </trkpt>
      <trkpt lat="43.45726" lon="3.50775">
        <ele>59.200000762939</ele>
        <time>2023-12-19T14:21:06Z</time>
      </trkpt>
      <trkpt lat="43.45726" lon="3.50782">
        <ele>59.200000762939</ele>
        <time>2023-12-19T14:21:07Z</time>
      </trkpt>
      <trkpt lat="43.45725" lon="3.50789">
        <ele>59.200000762939</ele>
        <time>2023-12-19T14:21:08Z</time>
      </trkpt>
      <trkpt lat="43.45725" lon="3.50795">
        <ele>59.200000762939</ele>
        <time>2023-12-19T14:21:09Z</time>
      </trkpt>
      <trkpt lat="43.45725" lon="3.50801">
        <ele>59.200000762939</ele>
        <time>2023-12-19T14:21:10Z</time>
      </trkpt>
      <trkpt lat="43.45726" lon="3.50806">
        <ele>59.200000762939</ele>
        <time>2023-12-19T14:21:11Z</time>
      </trkpt>
      <trkpt lat="43.45726" lon="3.50811">
        <ele>59.200000762939</ele>
        <time>2023-12-19T14:21:12Z</time>
      </trkpt>
      <trkpt lat="43.45726" lon="3.50815">
        <ele>59.400001525879</ele>
        <time>2023-12-19T14:21:13Z</time>
      </trkpt>
      <trkpt lat="43.45725" lon="3.50818">
        <ele>59.400001525879</ele>
        <time>2023-12-19T14:21:14Z</time>
      </trkpt>
      <trkpt lat="43.45724" lon="3.5082">
        <ele>59.400001525879</ele>
        <time>2023-12-19T14:21:15Z</time>
      </trkpt>
      <trkpt lat="43.45724" lon="3.50822">
        <ele>59.599998474121</ele>
        <time>2023-12-19T14:21:16Z</time>
      </trkpt>
      <trkpt lat="43.45723" lon="3.50826">
        <ele>59.799999237061</ele>
        <time>2023-12-19T14:21:17Z</time>
      </trkpt>
      <trkpt lat="43.45723" lon="3.50828">
        <ele>60</ele>
        <time>2023-12-19T14:21:18Z</time>
      </trkpt>
      <trkpt lat="43.45723" lon="3.50831">
        <ele>60.200000762939</ele>
        <time>2023-12-19T14:21:19Z</time>
      </trkpt>
      <trkpt lat="43.45722" lon="3.50833">
        <ele>60.200000762939</ele>
        <time>2023-12-19T14:21:20Z</time>
      </trkpt>
      <trkpt lat="43.45722" lon="3.50835">
        <ele>60.200000762939</ele>
        <time>2023-12-19T14:21:21Z</time>
      </trkpt>
      <trkpt lat="43.45722" lon="3.50835">
        <ele>60.200000762939</ele>
        <time>2023-12-19T14:21:22Z</time>
      </trkpt>
      <trkpt lat="43.45722" lon="3.50835">
        <ele>60.200000762939</ele>
        <time>2023-12-19T14:21:23Z</time>
      </trkpt>
      <trkpt lat="43.45728" lon="3.50833">
        <ele>60.200000762939</ele>
        <time>2023-12-19T14:21:34Z</time>
      </trkpt>
      <trkpt lat="43.45729" lon="3.50833">
        <ele>60.200000762939</ele>
        <time>2023-12-19T14:21:35Z</time>
      </trkpt>
      <trkpt lat="43.45731" lon="3.50833">
        <ele>60.400001525879</ele>
        <time>2023-12-19T14:21:36Z</time>
      </trkpt>
      <trkpt lat="43.45733" lon="3.50833">
        <ele>60.400001525879</ele>
        <time>2023-12-19T14:21:37Z</time>
      </trkpt>
      <trkpt lat="43.45735" lon="3.50836">
        <ele>60.400001525879</ele>
        <time>2023-12-19T14:21:38Z</time>
      </trkpt>
      <trkpt lat="43.45738" lon="3.50839">
        <ele>60.400001525879</ele>
        <time>2023-12-19T14:21:39Z</time>
      </trkpt>
      <trkpt lat="43.4574" lon="3.50842">
        <ele>60.400001525879</ele>
        <time>2023-12-19T14:21:40Z</time>
      </trkpt>
      <trkpt lat="43.45743" lon="3.50845">
        <ele>60.400001525879</ele>
        <time>2023-12-19T14:21:41Z</time>
      </trkpt>
      <trkpt lat="43.45746" lon="3.50848">
        <ele>60.599998474121</ele>
        <time>2023-12-19T14:21:42Z</time>
      </trkpt>
      <trkpt lat="43.45748" lon="3.50852">
        <ele>60.599998474121</ele>
        <time>2023-12-19T14:21:43Z</time>
      </trkpt>
      <trkpt lat="43.45751" lon="3.50855">
        <ele>60.799999237061</ele>
        <time>2023-12-19T14:21:44Z</time>
      </trkpt>
      <trkpt lat="43.45753" lon="3.50859">
        <ele>61</ele>
        <time>2023-12-19T14:21:45Z</time>
      </trkpt>
      <trkpt lat="43.45755" lon="3.50863">
        <ele>61</ele>
        <time>2023-12-19T14:21:46Z</time>
      </trkpt>
      <trkpt lat="43.45758" lon="3.50866">
        <ele>61.200000762939</ele>
        <time>2023-12-19T14:21:47Z</time>
      </trkpt>
      <trkpt lat="43.4576" lon="3.50869">
        <ele>61.200000762939</ele>
        <time>2023-12-19T14:21:48Z</time>
      </trkpt>
      <trkpt lat="43.45763" lon="3.50872">
        <ele>61.200000762939</ele>
        <time>2023-12-19T14:21:49Z</time>
      </trkpt>
      <trkpt lat="43.45765" lon="3.50875">
        <ele>61.200000762939</ele>
        <time>2023-12-19T14:21:50Z</time>
      </trkpt>
      <trkpt lat="43.45766" lon="3.50878">
        <ele>61.200000762939</ele>
        <time>2023-12-19T14:21:51Z</time>
      </trkpt>
      <trkpt lat="43.45768" lon="3.50881">
        <ele>61.200000762939</ele>
        <time>2023-12-19T14:21:52Z</time>
      </trkpt>
      <trkpt lat="43.4577" lon="3.50883">
        <ele>61.200000762939</ele>
        <time>2023-12-19T14:21:53Z</time>
      </trkpt>
      <trkpt lat="43.45771" lon="3.50886">
        <ele>61.200000762939</ele>
        <time>2023-12-19T14:21:54Z</time>
      </trkpt>
      <trkpt lat="43.45772" lon="3.50889">
        <ele>61.200000762939</ele>
        <time>2023-12-19T14:21:55Z</time>
      </trkpt>
      <trkpt lat="43.45773" lon="3.50892">
        <ele>61.400001525879</ele>
        <time>2023-12-19T14:21:56Z</time>
      </trkpt>
      <trkpt lat="43.45774" lon="3.50894">
        <ele>61.400001525879</ele>
        <time>2023-12-19T14:21:57Z</time>
      </trkpt>
      <trkpt lat="43.45776" lon="3.50896">
        <ele>61.599998474121</ele>
        <time>2023-12-19T14:21:58Z</time>
      </trkpt>
      <trkpt lat="43.45778" lon="3.50898">
        <ele>61.599998474121</ele>
        <time>2023-12-19T14:21:59Z</time>
      </trkpt>
      <trkpt lat="43.4578" lon="3.50899">
        <ele>61.599998474121</ele>
        <time>2023-12-19T14:22:00Z</time>
      </trkpt>
      <trkpt lat="43.45781" lon="3.50901">
        <ele>61.599998474121</ele>
        <time>2023-12-19T14:22:01Z</time>
      </trkpt>
      <trkpt lat="43.45782" lon="3.50904">
        <ele>61.599998474121</ele>
        <time>2023-12-19T14:22:02Z</time>
      </trkpt>
      <trkpt lat="43.45783" lon="3.50906">
        <ele>61.599998474121</ele>
        <time>2023-12-19T14:22:03Z</time>
      </trkpt>
      <trkpt lat="43.45786" lon="3.50908">
        <ele>61.599998474121</ele>
        <time>2023-12-19T14:22:04Z</time>
      </trkpt>
      <trkpt lat="43.45788" lon="3.5091">
        <ele>61.599998474121</ele>
        <time>2023-12-19T14:22:05Z</time>
      </trkpt>
      <trkpt lat="43.45789" lon="3.50913">
        <ele>61.599998474121</ele>
        <time>2023-12-19T14:22:06Z</time>
      </trkpt>
      <trkpt lat="43.45791" lon="3.50916">
        <ele>61.599998474121</ele>
        <time>2023-12-19T14:22:07Z</time>
      </trkpt>
      <trkpt lat="43.45792" lon="3.50918">
        <ele>61.599998474121</ele>
        <time>2023-12-19T14:22:08Z</time>
      </trkpt>
      <trkpt lat="43.45794" lon="3.50921">
        <ele>61.599998474121</ele>
        <time>2023-12-19T14:22:09Z</time>
      </trkpt>
      <trkpt lat="43.45796" lon="3.50925">
        <ele>61.799999237061</ele>
        <time>2023-12-19T14:22:10Z</time>
      </trkpt>
      <trkpt lat="43.45799" lon="3.50928">
        <ele>61.799999237061</ele>
        <time>2023-12-19T14:22:11Z</time>
      </trkpt>
      <trkpt lat="43.45801" lon="3.50932">
        <ele>61.799999237061</ele>
        <time>2023-12-19T14:22:12Z</time>
      </trkpt>
      <trkpt lat="43.45804" lon="3.50936">
        <ele>62</ele>
        <time>2023-12-19T14:22:13Z</time>
      </trkpt>
      <trkpt lat="43.45807" lon="3.50939">
        <ele>62</ele>
        <time>2023-12-19T14:22:14Z</time>
      </trkpt>
      <trkpt lat="43.45809" lon="3.50943">
        <ele>62.200000762939</ele>
        <time>2023-12-19T14:22:15Z</time>
      </trkpt>
      <trkpt lat="43.45812" lon="3.50947">
        <ele>62.400001525879</ele>
        <time>2023-12-19T14:22:16Z</time>
      </trkpt>
      <trkpt lat="43.45815" lon="3.5095">
        <ele>62.799999237061</ele>
        <time>2023-12-19T14:22:17Z</time>
      </trkpt>
      <trkpt lat="43.45817" lon="3.50954">
        <ele>63</ele>
        <time>2023-12-19T14:22:18Z</time>
      </trkpt>
      <trkpt lat="43.4582" lon="3.50957">
        <ele>63</ele>
        <time>2023-12-19T14:22:19Z</time>
      </trkpt>
      <trkpt lat="43.45823" lon="3.50961">
        <ele>63.200000762939</ele>
        <time>2023-12-19T14:22:20Z</time>
      </trkpt>
      <trkpt lat="43.45826" lon="3.50965">
        <ele>63.200000762939</ele>
        <time>2023-12-19T14:22:21Z</time>
      </trkpt>
      <trkpt lat="43.45828" lon="3.50969">
        <ele>63.400001525879</ele>
        <time>2023-12-19T14:22:22Z</time>
      </trkpt>
      <trkpt lat="43.45831" lon="3.50973">
        <ele>63.400001525879</ele>
        <time>2023-12-19T14:22:23Z</time>
      </trkpt>
      <trkpt lat="43.45833" lon="3.50976">
        <ele>63.400001525879</ele>
        <time>2023-12-19T14:22:24Z</time>
      </trkpt>
      <trkpt lat="43.45836" lon="3.5098">
        <ele>63.400001525879</ele>
        <time>2023-12-19T14:22:25Z</time>
      </trkpt>
      <trkpt lat="43.4584" lon="3.50983">
        <ele>63.400001525879</ele>
        <time>2023-12-19T14:22:26Z</time>
      </trkpt>
      <trkpt lat="43.45843" lon="3.50986">
        <ele>63.400001525879</ele>
        <time>2023-12-19T14:22:27Z</time>
      </trkpt>
      <trkpt lat="43.45845" lon="3.50989">
        <ele>63.400001525879</ele>
        <time>2023-12-19T14:22:28Z</time>
      </trkpt>
      <trkpt lat="43.45848" lon="3.50993">
        <ele>63.599998474121</ele>
        <time>2023-12-19T14:22:29Z</time>
      </trkpt>
      <trkpt lat="43.4585" lon="3.50997">
        <ele>63.799999237061</ele>
        <time>2023-12-19T14:22:30Z</time>
      </trkpt>
      <trkpt lat="43.45853" lon="3.51001">
        <ele>63.799999237061</ele>
        <time>2023-12-19T14:22:31Z</time>
      </trkpt>
      <trkpt lat="43.45855" lon="3.51004">
        <ele>64</ele>
        <time>2023-12-19T14:22:32Z</time>
      </trkpt>
      <trkpt lat="43.45858" lon="3.51007">
        <ele>64.199996948242</ele>
        <time>2023-12-19T14:22:33Z</time>
      </trkpt>
      <trkpt lat="43.4586" lon="3.51011">
        <ele>64.400001525879</ele>
        <time>2023-12-19T14:22:34Z</time>
      </trkpt>
      <trkpt lat="43.45863" lon="3.51014">
        <ele>64.400001525879</ele>
        <time>2023-12-19T14:22:35Z</time>
      </trkpt>
      <trkpt lat="43.45865" lon="3.51017">
        <ele>64.400001525879</ele>
        <time>2023-12-19T14:22:36Z</time>
      </trkpt>
      <trkpt lat="43.45868" lon="3.51021">
        <ele>64.599998474121</ele>
        <time>2023-12-19T14:22:37Z</time>
      </trkpt>
      <trkpt lat="43.4587" lon="3.51024">
        <ele>64.800003051758</ele>
        <time>2023-12-19T14:22:38Z</time>
      </trkpt>
      <trkpt lat="43.45873" lon="3.51026">
        <ele>65</ele>
        <time>2023-12-19T14:22:39Z</time>
      </trkpt>
      <trkpt lat="43.45875" lon="3.51029">
        <ele>65.199996948242</ele>
        <time>2023-12-19T14:22:40Z</time>
      </trkpt>
      <trkpt lat="43.45877" lon="3.51032">
        <ele>65.400001525879</ele>
        <time>2023-12-19T14:22:41Z</time>
      </trkpt>
      <trkpt lat="43.45879" lon="3.51036">
        <ele>65.599998474121</ele>
        <time>2023-12-19T14:22:42Z</time>
      </trkpt>
      <trkpt lat="43.45882" lon="3.51039">
        <ele>65.800003051758</ele>
        <time>2023-12-19T14:22:43Z</time>
      </trkpt>
      <trkpt lat="43.45885" lon="3.51041">
        <ele>66</ele>
        <time>2023-12-19T14:22:44Z</time>
      </trkpt>
      <trkpt lat="43.45887" lon="3.51045">
        <ele>66.199996948242</ele>
        <time>2023-12-19T14:22:45Z</time>
      </trkpt>
      <trkpt lat="43.4589" lon="3.51048">
        <ele>66.199996948242</ele>
        <time>2023-12-19T14:22:46Z</time>
      </trkpt>
      <trkpt lat="43.45892" lon="3.51051">
        <ele>66.199996948242</ele>
        <time>2023-12-19T14:22:47Z</time>
      </trkpt>
      <trkpt lat="43.45895" lon="3.51055">
        <ele>66.199996948242</ele>
        <time>2023-12-19T14:22:48Z</time>
      </trkpt>
      <trkpt lat="43.45898" lon="3.51058">
        <ele>66.400001525879</ele>
        <time>2023-12-19T14:22:49Z</time>
      </trkpt>
      <trkpt lat="43.45901" lon="3.51062">
        <ele>66.599998474121</ele>
        <time>2023-12-19T14:22:50Z</time>
      </trkpt>
      <trkpt lat="43.45903" lon="3.51065">
        <ele>66.599998474121</ele>
        <time>2023-12-19T14:22:51Z</time>
      </trkpt>
      <trkpt lat="43.45906" lon="3.51068">
        <ele>66.599998474121</ele>
        <time>2023-12-19T14:22:52Z</time>
      </trkpt>
      <trkpt lat="43.45909" lon="3.51072">
        <ele>66.599998474121</ele>
        <time>2023-12-19T14:22:53Z</time>
      </trkpt>
      <trkpt lat="43.45911" lon="3.51076">
        <ele>66.599998474121</ele>
        <time>2023-12-19T14:22:54Z</time>
      </trkpt>
      <trkpt lat="43.45914" lon="3.5108">
        <ele>66.599998474121</ele>
        <time>2023-12-19T14:22:55Z</time>
      </trkpt>
      <trkpt lat="43.45917" lon="3.51083">
        <ele>66.800003051758</ele>
        <time>2023-12-19T14:22:56Z</time>
      </trkpt>
      <trkpt lat="43.4592" lon="3.51087">
        <ele>67</ele>
        <time>2023-12-19T14:22:57Z</time>
      </trkpt>
      <trkpt lat="43.45923" lon="3.5109">
        <ele>67</ele>
        <time>2023-12-19T14:22:58Z</time>
      </trkpt>
      <trkpt lat="43.45926" lon="3.51094">
        <ele>67.199996948242</ele>
        <time>2023-12-19T14:22:59Z</time>
      </trkpt>
      <trkpt lat="43.45929" lon="3.51097">
        <ele>67.199996948242</ele>
        <time>2023-12-19T14:23:00Z</time>
      </trkpt>
      <trkpt lat="43.45931" lon="3.511">
        <ele>67.400001525879</ele>
        <time>2023-12-19T14:23:01Z</time>
      </trkpt>
      <trkpt lat="43.45934" lon="3.51104">
        <ele>67.599998474121</ele>
        <time>2023-12-19T14:23:02Z</time>
      </trkpt>
      <trkpt lat="43.45937" lon="3.51107">
        <ele>67.599998474121</ele>
        <time>2023-12-19T14:23:03Z</time>
      </trkpt>
      <trkpt lat="43.45939" lon="3.5111">
        <ele>67.800003051758</ele>
        <time>2023-12-19T14:23:04Z</time>
      </trkpt>
      <trkpt lat="43.45942" lon="3.51114">
        <ele>67.800003051758</ele>
        <time>2023-12-19T14:23:05Z</time>
      </trkpt>
      <trkpt lat="43.45944" lon="3.51117">
        <ele>68</ele>
        <time>2023-12-19T14:23:06Z</time>
      </trkpt>
      <trkpt lat="43.45947" lon="3.5112">
        <ele>68</ele>
        <time>2023-12-19T14:23:07Z</time>
      </trkpt>
      <trkpt lat="43.4595" lon="3.51124">
        <ele>68.199996948242</ele>
        <time>2023-12-19T14:23:08Z</time>
      </trkpt>
      <trkpt lat="43.45952" lon="3.51127">
        <ele>68.400001525879</ele>
        <time>2023-12-19T14:23:09Z</time>
      </trkpt>
      <trkpt lat="43.45955" lon="3.5113">
        <ele>68.599998474121</ele>
        <time>2023-12-19T14:23:10Z</time>
      </trkpt>
      <trkpt lat="43.45957" lon="3.51133">
        <ele>68.800003051758</ele>
        <time>2023-12-19T14:23:11Z</time>
      </trkpt>
      <trkpt lat="43.4596" lon="3.51136">
        <ele>68.800003051758</ele>
        <time>2023-12-19T14:23:12Z</time>
      </trkpt>
      <trkpt lat="43.45962" lon="3.51139">
        <ele>68.800003051758</ele>
        <time>2023-12-19T14:23:13Z</time>
      </trkpt>
      <trkpt lat="43.45964" lon="3.51141">
        <ele>68.800003051758</ele>
        <time>2023-12-19T14:23:14Z</time>
      </trkpt>
      <trkpt lat="43.45966" lon="3.51144">
        <ele>68.800003051758</ele>
        <time>2023-12-19T14:23:15Z</time>
      </trkpt>
      <trkpt lat="43.45969" lon="3.51147">
        <ele>68.800003051758</ele>
        <time>2023-12-19T14:23:16Z</time>
      </trkpt>
      <trkpt lat="43.45972" lon="3.5115">
        <ele>68.599998474121</ele>
        <time>2023-12-19T14:23:17Z</time>
      </trkpt>
      <trkpt lat="43.45975" lon="3.51152">
        <ele>68.599998474121</ele>
        <time>2023-12-19T14:23:18Z</time>
      </trkpt>
      <trkpt lat="43.45979" lon="3.51154">
        <ele>68.599998474121</ele>
        <time>2023-12-19T14:23:19Z</time>
      </trkpt>
      <trkpt lat="43.45982" lon="3.51157">
        <ele>68.400001525879</ele>
        <time>2023-12-19T14:23:20Z</time>
      </trkpt>
      <trkpt lat="43.45986" lon="3.5116">
        <ele>68.400001525879</ele>
        <time>2023-12-19T14:23:21Z</time>
      </trkpt>
      <trkpt lat="43.45989" lon="3.51163">
        <ele>68.400001525879</ele>
        <time>2023-12-19T14:23:22Z</time>
      </trkpt>
      <trkpt lat="43.45993" lon="3.51166">
        <ele>68.400001525879</ele>
        <time>2023-12-19T14:23:23Z</time>
      </trkpt>
      <trkpt lat="43.45996" lon="3.51168">
        <ele>68.199996948242</ele>
        <time>2023-12-19T14:23:24Z</time>
      </trkpt>
      <trkpt lat="43.45999" lon="3.5117">
        <ele>68.199996948242</ele>
        <time>2023-12-19T14:23:25Z</time>
      </trkpt>
      <trkpt lat="43.46003" lon="3.51172">
        <ele>68</ele>
        <time>2023-12-19T14:23:26Z</time>
      </trkpt>
      <trkpt lat="43.46007" lon="3.51175">
        <ele>67.800003051758</ele>
        <time>2023-12-19T14:23:27Z</time>
      </trkpt>
      <trkpt lat="43.46011" lon="3.51177">
        <ele>67.599998474121</ele>
        <time>2023-12-19T14:23:28Z</time>
      </trkpt>
      <trkpt lat="43.46015" lon="3.51179">
        <ele>67.599998474121</ele>
        <time>2023-12-19T14:23:29Z</time>
      </trkpt>
      <trkpt lat="43.4602" lon="3.51182">
        <ele>67.599998474121</ele>
        <time>2023-12-19T14:23:30Z</time>
      </trkpt>
      <trkpt lat="43.46024" lon="3.51185">
        <ele>67.400001525879</ele>
        <time>2023-12-19T14:23:31Z</time>
      </trkpt>
      <trkpt lat="43.46029" lon="3.51187">
        <ele>67.199996948242</ele>
        <time>2023-12-19T14:23:32Z</time>
      </trkpt>
      <trkpt lat="43.46033" lon="3.5119">
        <ele>67</ele>
        <time>2023-12-19T14:23:33Z</time>
      </trkpt>
      <trkpt lat="43.46038" lon="3.51193">
        <ele>66.599998474121</ele>
        <time>2023-12-19T14:23:34Z</time>
      </trkpt>
      <trkpt lat="43.46043" lon="3.51196">
        <ele>66.400001525879</ele>
        <time>2023-12-19T14:23:35Z</time>
      </trkpt>
      <trkpt lat="43.46048" lon="3.512">
        <ele>66.199996948242</ele>
        <time>2023-12-19T14:23:36Z</time>
      </trkpt>
      <trkpt lat="43.46054" lon="3.51203">
        <ele>66</ele>
        <time>2023-12-19T14:23:37Z</time>
      </trkpt>
      <trkpt lat="43.4606" lon="3.51206">
        <ele>65.800003051758</ele>
        <time>2023-12-19T14:23:38Z</time>
      </trkpt>
      <trkpt lat="43.46065" lon="3.51209">
        <ele>65.599998474121</ele>
        <time>2023-12-19T14:23:39Z</time>
      </trkpt>
      <trkpt lat="43.46071" lon="3.51211">
        <ele>65.400001525879</ele>
        <time>2023-12-19T14:23:40Z</time>
      </trkpt>
      <trkpt lat="43.46076" lon="3.51214">
        <ele>65.199996948242</ele>
        <time>2023-12-19T14:23:41Z</time>
      </trkpt>
      <trkpt lat="43.46081" lon="3.51218">
        <ele>64.800003051758</ele>
        <time>2023-12-19T14:23:42Z</time>
      </trkpt>
      <trkpt lat="43.46087" lon="3.51221">
        <ele>64.599998474121</ele>
        <time>2023-12-19T14:23:43Z</time>
      </trkpt>
      <trkpt lat="43.46091" lon="3.51223">
        <ele>64.400001525879</ele>
        <time>2023-12-19T14:23:44Z</time>
      </trkpt>
      <trkpt lat="43.46096" lon="3.51227">
        <ele>64.199996948242</ele>
        <time>2023-12-19T14:23:45Z</time>
      </trkpt>
      <trkpt lat="43.461" lon="3.5123">
        <ele>64</ele>
        <time>2023-12-19T14:23:46Z</time>
      </trkpt>
      <trkpt lat="43.46103" lon="3.51232">
        <ele>64</ele>
        <time>2023-12-19T14:23:47Z</time>
      </trkpt>
      <trkpt lat="43.46106" lon="3.51235">
        <ele>64</ele>
        <time>2023-12-19T14:23:48Z</time>
      </trkpt>
      <trkpt lat="43.46108" lon="3.51237">
        <ele>64</ele>
        <time>2023-12-19T14:23:49Z</time>
      </trkpt>
      <trkpt lat="43.46109" lon="3.51239">
        <ele>63.799999237061</ele>
        <time>2023-12-19T14:23:50Z</time>
      </trkpt>
      <trkpt lat="43.4611" lon="3.5124">
        <ele>63.799999237061</ele>
        <time>2023-12-19T14:23:51Z</time>
      </trkpt>
      <trkpt lat="43.46111" lon="3.51241">
        <ele>63.799999237061</ele>
        <time>2023-12-19T14:23:52Z</time>
      </trkpt>
      <trkpt lat="43.46111" lon="3.51241">
        <ele>63.599998474121</ele>
        <time>2023-12-19T14:23:53Z</time>
      </trkpt>
      <trkpt lat="43.46111" lon="3.51241">
        <ele>63.400001525879</ele>
        <time>2023-12-19T14:23:54Z</time>
      </trkpt>
      <trkpt lat="43.46113" lon="3.51245">
        <ele>63.200000762939</ele>
        <time>2023-12-19T14:23:58Z</time>
      </trkpt>
      <trkpt lat="43.46115" lon="3.51248">
        <ele>63.200000762939</ele>
        <time>2023-12-19T14:23:59Z</time>
      </trkpt>
      <trkpt lat="43.46118" lon="3.51251">
        <ele>63.200000762939</ele>
        <time>2023-12-19T14:24:00Z</time>
      </trkpt>
      <trkpt lat="43.46121" lon="3.51251">
        <ele>63.200000762939</ele>
        <time>2023-12-19T14:24:01Z</time>
      </trkpt>
      <trkpt lat="43.46125" lon="3.5125">
        <ele>63.200000762939</ele>
        <time>2023-12-19T14:24:02Z</time>
      </trkpt>
      <trkpt lat="43.46127" lon="3.5125">
        <ele>63.200000762939</ele>
        <time>2023-12-19T14:24:03Z</time>
      </trkpt>
      <trkpt lat="43.4613" lon="3.51249">
        <ele>63.200000762939</ele>
        <time>2023-12-19T14:24:04Z</time>
      </trkpt>
      <trkpt lat="43.46133" lon="3.51249">
        <ele>63</ele>
        <time>2023-12-19T14:24:05Z</time>
      </trkpt>
      <trkpt lat="43.46136" lon="3.51249">
        <ele>62.599998474121</ele>
        <time>2023-12-19T14:24:06Z</time>
      </trkpt>
      <trkpt lat="43.46139" lon="3.5125">
        <ele>62.400001525879</ele>
        <time>2023-12-19T14:24:07Z</time>
      </trkpt>
      <trkpt lat="43.46141" lon="3.51251">
        <ele>62.200000762939</ele>
        <time>2023-12-19T14:24:08Z</time>
      </trkpt>
      <trkpt lat="43.46143" lon="3.51252">
        <ele>61.799999237061</ele>
        <time>2023-12-19T14:24:09Z</time>
      </trkpt>
      <trkpt lat="43.46144" lon="3.51254">
        <ele>61.799999237061</ele>
        <time>2023-12-19T14:24:10Z</time>
      </trkpt>
      <trkpt lat="43.46145" lon="3.51257">
        <ele>61.799999237061</ele>
        <time>2023-12-19T14:24:11Z</time>
      </trkpt>
      <trkpt lat="43.46147" lon="3.5126">
        <ele>61.799999237061</ele>
        <time>2023-12-19T14:24:12Z</time>
      </trkpt>
      <trkpt lat="43.46149" lon="3.51263">
        <ele>61.799999237061</ele>
        <time>2023-12-19T14:24:13Z</time>
      </trkpt>
      <trkpt lat="43.4615" lon="3.51266">
        <ele>61.599998474121</ele>
        <time>2023-12-19T14:24:14Z</time>
      </trkpt>
      <trkpt lat="43.46153" lon="3.51269">
        <ele>61.599998474121</ele>
        <time>2023-12-19T14:24:15Z</time>
      </trkpt>
      <trkpt lat="43.46155" lon="3.51271">
        <ele>61.599998474121</ele>
        <time>2023-12-19T14:24:16Z</time>
      </trkpt>
      <trkpt lat="43.46156" lon="3.51274">
        <ele>61.400001525879</ele>
        <time>2023-12-19T14:24:17Z</time>
      </trkpt>
      <trkpt lat="43.46157" lon="3.51278">
        <ele>61</ele>
        <time>2023-12-19T14:24:18Z</time>
      </trkpt>
      <trkpt lat="43.46157" lon="3.51282">
        <ele>60.799999237061</ele>
        <time>2023-12-19T14:24:19Z</time>
      </trkpt>
      <trkpt lat="43.46158" lon="3.51285">
        <ele>60.599998474121</ele>
        <time>2023-12-19T14:24:20Z</time>
      </trkpt>
      <trkpt lat="43.46159" lon="3.51285">
        <ele>60.200000762939</ele>
        <time>2023-12-19T14:24:21Z</time>
      </trkpt>
      <trkpt lat="43.46159" lon="3.51285">
        <ele>60</ele>
        <time>2023-12-19T14:24:22Z</time>
      </trkpt>
      <trkpt lat="43.46163" lon="3.51292">
        <ele>60</ele>
        <time>2023-12-19T14:24:31Z</time>
      </trkpt>
      <trkpt lat="43.46164" lon="3.51295">
        <ele>59.799999237061</ele>
        <time>2023-12-19T14:24:32Z</time>
      </trkpt>
      <trkpt lat="43.46165" lon="3.51299">
        <ele>59.799999237061</ele>
        <time>2023-12-19T14:24:33Z</time>
      </trkpt>
      <trkpt lat="43.46166" lon="3.51305">
        <ele>59.799999237061</ele>
        <time>2023-12-19T14:24:34Z</time>
      </trkpt>
      <trkpt lat="43.46168" lon="3.51309">
        <ele>59.599998474121</ele>
        <time>2023-12-19T14:24:35Z</time>
      </trkpt>
      <trkpt lat="43.46171" lon="3.51313">
        <ele>59.599998474121</ele>
        <time>2023-12-19T14:24:36Z</time>
      </trkpt>
      <trkpt lat="43.46173" lon="3.51317">
        <ele>59.599998474121</ele>
        <time>2023-12-19T14:24:37Z</time>
      </trkpt>
      <trkpt lat="43.46175" lon="3.51322">
        <ele>59.599998474121</ele>
        <time>2023-12-19T14:24:38Z</time>
      </trkpt>
      <trkpt lat="43.46176" lon="3.51327">
        <ele>59.799999237061</ele>
        <time>2023-12-19T14:24:39Z</time>
      </trkpt>
      <trkpt lat="43.46177" lon="3.51332">
        <ele>59.799999237061</ele>
        <time>2023-12-19T14:24:40Z</time>
      </trkpt>
      <trkpt lat="43.4618" lon="3.51335">
        <ele>59.799999237061</ele>
        <time>2023-12-19T14:24:41Z</time>
      </trkpt>
      <trkpt lat="43.46181" lon="3.51338">
        <ele>60</ele>
        <time>2023-12-19T14:24:42Z</time>
      </trkpt>
      <trkpt lat="43.46184" lon="3.51342">
        <ele>60.200000762939</ele>
        <time>2023-12-19T14:24:43Z</time>
      </trkpt>
      <trkpt lat="43.46186" lon="3.51346">
        <ele>60.400001525879</ele>
        <time>2023-12-19T14:24:44Z</time>
      </trkpt>
      <trkpt lat="43.46188" lon="3.51352">
        <ele>60.799999237061</ele>
        <time>2023-12-19T14:24:45Z</time>
      </trkpt>
      <trkpt lat="43.4619" lon="3.51357">
        <ele>61.200000762939</ele>
        <time>2023-12-19T14:24:46Z</time>
      </trkpt>
      <trkpt lat="43.46191" lon="3.51363">
        <ele>61.599998474121</ele>
        <time>2023-12-19T14:24:47Z</time>
      </trkpt>
      <trkpt lat="43.46192" lon="3.51368">
        <ele>62</ele>
        <time>2023-12-19T14:24:48Z</time>
      </trkpt>
      <trkpt lat="43.46193" lon="3.51374">
        <ele>62.599998474121</ele>
        <time>2023-12-19T14:24:49Z</time>
      </trkpt>
      <trkpt lat="43.46194" lon="3.51379">
        <ele>63.200000762939</ele>
        <time>2023-12-19T14:24:50Z</time>
      </trkpt>
      <trkpt lat="43.46196" lon="3.51384">
        <ele>63.799999237061</ele>
        <time>2023-12-19T14:24:51Z</time>
      </trkpt>
      <trkpt lat="43.46196" lon="3.5139">
        <ele>64.199996948242</ele>
        <time>2023-12-19T14:24:52Z</time>
      </trkpt>
      <trkpt lat="43.46197" lon="3.51394">
        <ele>65.199996948242</ele>
        <time>2023-12-19T14:24:53Z</time>
      </trkpt>
      <trkpt lat="43.46198" lon="3.51398">
        <ele>65.800003051758</ele>
        <time>2023-12-19T14:24:54Z</time>
      </trkpt>
      <trkpt lat="43.462" lon="3.51402">
        <ele>66.199996948242</ele>
        <time>2023-12-19T14:24:55Z</time>
      </trkpt>
      <trkpt lat="43.46203" lon="3.51405">
        <ele>66.800003051758</ele>
        <time>2023-12-19T14:24:56Z</time>
      </trkpt>
      <trkpt lat="43.46205" lon="3.51406">
        <ele>67</ele>
        <time>2023-12-19T14:24:57Z</time>
      </trkpt>
      <trkpt lat="43.46207" lon="3.51407">
        <ele>67.400001525879</ele>
        <time>2023-12-19T14:24:58Z</time>
      </trkpt>
      <trkpt lat="43.46209" lon="3.51409">
        <ele>67.599998474121</ele>
        <time>2023-12-19T14:24:59Z</time>
      </trkpt>
      <trkpt lat="43.4621" lon="3.51413">
        <ele>67.800003051758</ele>
        <time>2023-12-19T14:25:00Z</time>
      </trkpt>
      <trkpt lat="43.46211" lon="3.51417">
        <ele>67.800003051758</ele>
        <time>2023-12-19T14:25:01Z</time>
      </trkpt>
      <trkpt lat="43.46212" lon="3.5142">
        <ele>67.800003051758</ele>
        <time>2023-12-19T14:25:02Z</time>
      </trkpt>
      <trkpt lat="43.46212" lon="3.51425">
        <ele>68</ele>
        <time>2023-12-19T14:25:03Z</time>
      </trkpt>
      <trkpt lat="43.46214" lon="3.51429">
        <ele>68</ele>
        <time>2023-12-19T14:25:04Z</time>
      </trkpt>
      <trkpt lat="43.46216" lon="3.51433">
        <ele>68.199996948242</ele>
        <time>2023-12-19T14:25:05Z</time>
      </trkpt>
      <trkpt lat="43.46217" lon="3.51438">
        <ele>68.599998474121</ele>
        <time>2023-12-19T14:25:06Z</time>
      </trkpt>
      <trkpt lat="43.46219" lon="3.51442">
        <ele>69</ele>
        <time>2023-12-19T14:25:07Z</time>
      </trkpt>
      <trkpt lat="43.4622" lon="3.51446">
        <ele>69.400001525879</ele>
        <time>2023-12-19T14:25:08Z</time>
      </trkpt>
      <trkpt lat="43.46222" lon="3.5145">
        <ele>69.800003051758</ele>
        <time>2023-12-19T14:25:09Z</time>
      </trkpt>
      <trkpt lat="43.46224" lon="3.51452">
        <ele>70.199996948242</ele>
        <time>2023-12-19T14:25:10Z</time>
      </trkpt>
      <trkpt lat="43.46227" lon="3.51455">
        <ele>70.400001525879</ele>
        <time>2023-12-19T14:25:11Z</time>
      </trkpt>
      <trkpt lat="43.4623" lon="3.51457">
        <ele>70.599998474121</ele>
        <time>2023-12-19T14:25:12Z</time>
      </trkpt>
      <trkpt lat="43.46232" lon="3.5146">
        <ele>71</ele>
        <time>2023-12-19T14:25:13Z</time>
      </trkpt>
      <trkpt lat="43.46235" lon="3.51463">
        <ele>71.400001525879</ele>
        <time>2023-12-19T14:25:14Z</time>
      </trkpt>
      <trkpt lat="43.46238" lon="3.51467">
        <ele>71.599998474121</ele>
        <time>2023-12-19T14:25:15Z</time>
      </trkpt>
      <trkpt lat="43.46241" lon="3.5147">
        <ele>71.800003051758</ele>
        <time>2023-12-19T14:25:16Z</time>
      </trkpt>
      <trkpt lat="43.46244" lon="3.51473">
        <ele>72</ele>
        <time>2023-12-19T14:25:17Z</time>
      </trkpt>
      <trkpt lat="43.46247" lon="3.51476">
        <ele>72.199996948242</ele>
        <time>2023-12-19T14:25:18Z</time>
      </trkpt>
      <trkpt lat="43.4625" lon="3.51479">
        <ele>72.599998474121</ele>
        <time>2023-12-19T14:25:19Z</time>
      </trkpt>
      <trkpt lat="43.46252" lon="3.51482">
        <ele>72.800003051758</ele>
        <time>2023-12-19T14:25:20Z</time>
      </trkpt>
      <trkpt lat="43.46254" lon="3.51485">
        <ele>72.800003051758</ele>
        <time>2023-12-19T14:25:21Z</time>
      </trkpt>
      <trkpt lat="43.46256" lon="3.51487">
        <ele>73</ele>
        <time>2023-12-19T14:25:22Z</time>
      </trkpt>
      <trkpt lat="43.46258" lon="3.5149">
        <ele>73.400001525879</ele>
        <time>2023-12-19T14:25:23Z</time>
      </trkpt>
      <trkpt lat="43.4626" lon="3.51493">
        <ele>73.599998474121</ele>
        <time>2023-12-19T14:25:24Z</time>
      </trkpt>
      <trkpt lat="43.46263" lon="3.51495">
        <ele>74</ele>
        <time>2023-12-19T14:25:25Z</time>
      </trkpt>
      <trkpt lat="43.46265" lon="3.51498">
        <ele>74.199996948242</ele>
        <time>2023-12-19T14:25:26Z</time>
      </trkpt>
      <trkpt lat="43.46267" lon="3.51501">
        <ele>74.400001525879</ele>
        <time>2023-12-19T14:25:27Z</time>
      </trkpt>
      <trkpt lat="43.46269" lon="3.51504">
        <ele>74.400001525879</ele>
        <time>2023-12-19T14:25:28Z</time>
      </trkpt>
      <trkpt lat="43.46271" lon="3.51506">
        <ele>74.400001525879</ele>
        <time>2023-12-19T14:25:29Z</time>
      </trkpt>
      <trkpt lat="43.46273" lon="3.51507">
        <ele>74.400001525879</ele>
        <time>2023-12-19T14:25:30Z</time>
      </trkpt>
      <trkpt lat="43.46276" lon="3.51509">
        <ele>74.599998474121</ele>
        <time>2023-12-19T14:25:31Z</time>
      </trkpt>
      <trkpt lat="43.46278" lon="3.51511">
        <ele>74.800003051758</ele>
        <time>2023-12-19T14:25:32Z</time>
      </trkpt>
      <trkpt lat="43.46281" lon="3.51513">
        <ele>75</ele>
        <time>2023-12-19T14:25:33Z</time>
      </trkpt>
      <trkpt lat="43.46282" lon="3.51516">
        <ele>75</ele>
        <time>2023-12-19T14:25:34Z</time>
      </trkpt>
      <trkpt lat="43.46283" lon="3.51518">
        <ele>75.199996948242</ele>
        <time>2023-12-19T14:25:35Z</time>
      </trkpt>
      <trkpt lat="43.46284" lon="3.51521">
        <ele>75.199996948242</ele>
        <time>2023-12-19T14:25:36Z</time>
      </trkpt>
      <trkpt lat="43.46286" lon="3.51525">
        <ele>75.199996948242</ele>
        <time>2023-12-19T14:25:37Z</time>
      </trkpt>
      <trkpt lat="43.46289" lon="3.51528">
        <ele>75.400001525879</ele>
        <time>2023-12-19T14:25:38Z</time>
      </trkpt>
      <trkpt lat="43.46292" lon="3.5153">
        <ele>75.400001525879</ele>
        <time>2023-12-19T14:25:39Z</time>
      </trkpt>
      <trkpt lat="43.46295" lon="3.51533">
        <ele>75.599998474121</ele>
        <time>2023-12-19T14:25:40Z</time>
      </trkpt>
      <trkpt lat="43.46297" lon="3.51537">
        <ele>75.800003051758</ele>
        <time>2023-12-19T14:25:41Z</time>
      </trkpt>
      <trkpt lat="43.46298" lon="3.51541">
        <ele>76</ele>
        <time>2023-12-19T14:25:42Z</time>
      </trkpt>
      <trkpt lat="43.46299" lon="3.51545">
        <ele>76</ele>
        <time>2023-12-19T14:25:43Z</time>
      </trkpt>
      <trkpt lat="43.46302" lon="3.51546">
        <ele>76.199996948242</ele>
        <time>2023-12-19T14:25:44Z</time>
      </trkpt>
      <trkpt lat="43.46304" lon="3.51546">
        <ele>76.199996948242</ele>
        <time>2023-12-19T14:25:45Z</time>
      </trkpt>
      <trkpt lat="43.46307" lon="3.51545">
        <ele>76.400001525879</ele>
        <time>2023-12-19T14:25:46Z</time>
      </trkpt>
      <trkpt lat="43.4631" lon="3.51546">
        <ele>76.400001525879</ele>
        <time>2023-12-19T14:25:47Z</time>
      </trkpt>
      <trkpt lat="43.46314" lon="3.51547">
        <ele>76.400001525879</ele>
        <time>2023-12-19T14:25:48Z</time>
      </trkpt>
      <trkpt lat="43.46317" lon="3.51546">
        <ele>76.400001525879</ele>
        <time>2023-12-19T14:25:49Z</time>
      </trkpt>
      <trkpt lat="43.46319" lon="3.51546">
        <ele>76.400001525879</ele>
        <time>2023-12-19T14:25:50Z</time>
      </trkpt>
      <trkpt lat="43.46321" lon="3.51548">
        <ele>75.800003051758</ele>
        <time>2023-12-19T14:25:51Z</time>
      </trkpt>
      <trkpt lat="43.46323" lon="3.51551">
        <ele>75.400001525879</ele>
        <time>2023-12-19T14:25:52Z</time>
      </trkpt>
      <trkpt lat="43.46324" lon="3.51554">
        <ele>75</ele>
        <time>2023-12-19T14:25:53Z</time>
      </trkpt>
      <trkpt lat="43.46325" lon="3.51557">
        <ele>74.800003051758</ele>
        <time>2023-12-19T14:25:54Z</time>
      </trkpt>
      <trkpt lat="43.46326" lon="3.51559">
        <ele>74.800003051758</ele>
        <time>2023-12-19T14:25:55Z</time>
      </trkpt>
      <trkpt lat="43.46326" lon="3.51563">
        <ele>74.800003051758</ele>
        <time>2023-12-19T14:25:56Z</time>
      </trkpt>
      <trkpt lat="43.46327" lon="3.51567">
        <ele>74.800003051758</ele>
        <time>2023-12-19T14:25:57Z</time>
      </trkpt>
      <trkpt lat="43.46328" lon="3.51571">
        <ele>74.800003051758</ele>
        <time>2023-12-19T14:25:58Z</time>
      </trkpt>
      <trkpt lat="43.46329" lon="3.51575">
        <ele>75</ele>
        <time>2023-12-19T14:25:59Z</time>
      </trkpt>
      <trkpt lat="43.4633" lon="3.51579">
        <ele>75.199996948242</ele>
        <time>2023-12-19T14:26:00Z</time>
      </trkpt>
      <trkpt lat="43.46329" lon="3.51583">
        <ele>75.400001525879</ele>
        <time>2023-12-19T14:26:01Z</time>
      </trkpt>
      <trkpt lat="43.46329" lon="3.51588">
        <ele>75.599998474121</ele>
        <time>2023-12-19T14:26:02Z</time>
      </trkpt>
      <trkpt lat="43.46328" lon="3.51592">
        <ele>75.800003051758</ele>
        <time>2023-12-19T14:26:03Z</time>
      </trkpt>
      <trkpt lat="43.46328" lon="3.51597">
        <ele>76</ele>
        <time>2023-12-19T14:26:04Z</time>
      </trkpt>
      <trkpt lat="43.46329" lon="3.51601">
        <ele>76.400001525879</ele>
        <time>2023-12-19T14:26:05Z</time>
      </trkpt>
      <trkpt lat="43.46329" lon="3.51605">
        <ele>76.800003051758</ele>
        <time>2023-12-19T14:26:06Z</time>
      </trkpt>
      <trkpt lat="43.46328" lon="3.51609">
        <ele>77.199996948242</ele>
        <time>2023-12-19T14:26:07Z</time>
      </trkpt>
      <trkpt lat="43.46327" lon="3.51612">
        <ele>77.800003051758</ele>
        <time>2023-12-19T14:26:08Z</time>
      </trkpt>
      <trkpt lat="43.46326" lon="3.51615">
        <ele>78.199996948242</ele>
        <time>2023-12-19T14:26:09Z</time>
      </trkpt>
      <trkpt lat="43.46327" lon="3.51618">
        <ele>78.400001525879</ele>
        <time>2023-12-19T14:26:10Z</time>
      </trkpt>
      <trkpt lat="43.46328" lon="3.5162">
        <ele>78.599998474121</ele>
        <time>2023-12-19T14:26:11Z</time>
      </trkpt>
      <trkpt lat="43.4633" lon="3.51622">
        <ele>79</ele>
        <time>2023-12-19T14:26:12Z</time>
      </trkpt>
      <trkpt lat="43.46331" lon="3.51625">
        <ele>79.199996948242</ele>
        <time>2023-12-19T14:26:13Z</time>
      </trkpt>
      <trkpt lat="43.46333" lon="3.51628">
        <ele>79.400001525879</ele>
        <time>2023-12-19T14:26:14Z</time>
      </trkpt>
      <trkpt lat="43.46335" lon="3.5163">
        <ele>79.400001525879</ele>
        <time>2023-12-19T14:26:15Z</time>
      </trkpt>
      <trkpt lat="43.46337" lon="3.51632">
        <ele>79.400001525879</ele>
        <time>2023-12-19T14:26:16Z</time>
      </trkpt>
      <trkpt lat="43.46339" lon="3.51635">
        <ele>79.400001525879</ele>
        <time>2023-12-19T14:26:17Z</time>
      </trkpt>
      <trkpt lat="43.4634" lon="3.51638">
        <ele>79.400001525879</ele>
        <time>2023-12-19T14:26:18Z</time>
      </trkpt>
      <trkpt lat="43.46341" lon="3.51641">
        <ele>79.400001525879</ele>
        <time>2023-12-19T14:26:19Z</time>
      </trkpt>
      <trkpt lat="43.46343" lon="3.51645">
        <ele>79.199996948242</ele>
        <time>2023-12-19T14:26:20Z</time>
      </trkpt>
      <trkpt lat="43.46345" lon="3.51649">
        <ele>79.199996948242</ele>
        <time>2023-12-19T14:26:21Z</time>
      </trkpt>
      <trkpt lat="43.46348" lon="3.51653">
        <ele>79</ele>
        <time>2023-12-19T14:26:22Z</time>
      </trkpt>
      <trkpt lat="43.4635" lon="3.51656">
        <ele>79</ele>
        <time>2023-12-19T14:26:23Z</time>
      </trkpt>
      <trkpt lat="43.46352" lon="3.51661">
        <ele>79</ele>
        <time>2023-12-19T14:26:24Z</time>
      </trkpt>
      <trkpt lat="43.46355" lon="3.51664">
        <ele>79</ele>
        <time>2023-12-19T14:26:25Z</time>
      </trkpt>
      <trkpt lat="43.46357" lon="3.51668">
        <ele>79</ele>
        <time>2023-12-19T14:26:26Z</time>
      </trkpt>
      <trkpt lat="43.46359" lon="3.51671">
        <ele>79.199996948242</ele>
        <time>2023-12-19T14:26:27Z</time>
      </trkpt>
      <trkpt lat="43.46359" lon="3.51673">
        <ele>79.199996948242</ele>
        <time>2023-12-19T14:26:28Z</time>
      </trkpt>
      <trkpt lat="43.4636" lon="3.51675">
        <ele>79.199996948242</ele>
        <time>2023-12-19T14:26:29Z</time>
      </trkpt>
      <trkpt lat="43.46359" lon="3.51675">
        <ele>79.199996948242</ele>
        <time>2023-12-19T14:26:30Z</time>
      </trkpt>
      <trkpt lat="43.4636" lon="3.51675">
        <ele>79.199996948242</ele>
        <time>2023-12-19T14:26:31Z</time>
      </trkpt>
      <trkpt lat="43.46367" lon="3.51669">
        <ele>79.400001525879</ele>
        <time>2023-12-19T14:26:59Z</time>
      </trkpt>
      <trkpt lat="43.4637" lon="3.51668">
        <ele>79.400001525879</ele>
        <time>2023-12-19T14:27:00Z</time>
      </trkpt>
      <trkpt lat="43.46373" lon="3.51667">
        <ele>79.400001525879</ele>
        <time>2023-12-19T14:27:01Z</time>
      </trkpt>
      <trkpt lat="43.46376" lon="3.51666">
        <ele>79.199996948242</ele>
        <time>2023-12-19T14:27:02Z</time>
      </trkpt>
      <trkpt lat="43.46378" lon="3.51665">
        <ele>79</ele>
        <time>2023-12-19T14:27:03Z</time>
      </trkpt>
      <trkpt lat="43.46381" lon="3.51664">
        <ele>78.599998474121</ele>
        <time>2023-12-19T14:27:04Z</time>
      </trkpt>
      <trkpt lat="43.46383" lon="3.51663">
        <ele>78.400001525879</ele>
        <time>2023-12-19T14:27:05Z</time>
      </trkpt>
      <trkpt lat="43.46386" lon="3.51662">
        <ele>78</ele>
        <time>2023-12-19T14:27:06Z</time>
      </trkpt>
      <trkpt lat="43.46388" lon="3.5166">
        <ele>77.599998474121</ele>
        <time>2023-12-19T14:27:07Z</time>
      </trkpt>
      <trkpt lat="43.4639" lon="3.51659">
        <ele>77.199996948242</ele>
        <time>2023-12-19T14:27:08Z</time>
      </trkpt>
      <trkpt lat="43.46392" lon="3.51658">
        <ele>76.800003051758</ele>
        <time>2023-12-19T14:27:09Z</time>
      </trkpt>
      <trkpt lat="43.46394" lon="3.51658">
        <ele>76.599998474121</ele>
        <time>2023-12-19T14:27:10Z</time>
      </trkpt>
      <trkpt lat="43.46396" lon="3.51658">
        <ele>76.400001525879</ele>
        <time>2023-12-19T14:27:11Z</time>
      </trkpt>
      <trkpt lat="43.46398" lon="3.51658">
        <ele>76.199996948242</ele>
        <time>2023-12-19T14:27:12Z</time>
      </trkpt>
      <trkpt lat="43.46399" lon="3.51657">
        <ele>75.800003051758</ele>
        <time>2023-12-19T14:27:13Z</time>
      </trkpt>
      <trkpt lat="43.464" lon="3.51656">
        <ele>75.599998474121</ele>
        <time>2023-12-19T14:27:14Z</time>
      </trkpt>
      <trkpt lat="43.46402" lon="3.51655">
        <ele>75.400001525879</ele>
        <time>2023-12-19T14:27:15Z</time>
      </trkpt>
      <trkpt lat="43.46405" lon="3.51654">
        <ele>75.199996948242</ele>
        <time>2023-12-19T14:27:16Z</time>
      </trkpt>
      <trkpt lat="43.46407" lon="3.51651">
        <ele>75.199996948242</ele>
        <time>2023-12-19T14:27:17Z</time>
      </trkpt>
      <trkpt lat="43.46409" lon="3.51649">
        <ele>75</ele>
        <time>2023-12-19T14:27:18Z</time>
      </trkpt>
      <trkpt lat="43.46412" lon="3.51647">
        <ele>74.800003051758</ele>
        <time>2023-12-19T14:27:19Z</time>
      </trkpt>
      <trkpt lat="43.46415" lon="3.51646">
        <ele>74.400001525879</ele>
        <time>2023-12-19T14:27:20Z</time>
      </trkpt>
      <trkpt lat="43.46418" lon="3.51643">
        <ele>74.400001525879</ele>
        <time>2023-12-19T14:27:21Z</time>
      </trkpt>
      <trkpt lat="43.46421" lon="3.51641">
        <ele>74.400001525879</ele>
        <time>2023-12-19T14:27:22Z</time>
      </trkpt>
      <trkpt lat="43.46423" lon="3.51639">
        <ele>74.400001525879</ele>
        <time>2023-12-19T14:27:23Z</time>
      </trkpt>
      <trkpt lat="43.46426" lon="3.51638">
        <ele>74.199996948242</ele>
        <time>2023-12-19T14:27:24Z</time>
      </trkpt>
      <trkpt lat="43.46428" lon="3.51638">
        <ele>74</ele>
        <time>2023-12-19T14:27:25Z</time>
      </trkpt>
      <trkpt lat="43.46431" lon="3.51637">
        <ele>74</ele>
        <time>2023-12-19T14:27:26Z</time>
      </trkpt>
      <trkpt lat="43.46434" lon="3.51636">
        <ele>74</ele>
        <time>2023-12-19T14:27:27Z</time>
      </trkpt>
      <trkpt lat="43.46436" lon="3.51636">
        <ele>74</ele>
        <time>2023-12-19T14:27:28Z</time>
      </trkpt>
      <trkpt lat="43.46439" lon="3.51635">
        <ele>74.199996948242</ele>
        <time>2023-12-19T14:27:29Z</time>
      </trkpt>
      <trkpt lat="43.46442" lon="3.51633">
        <ele>74.199996948242</ele>
        <time>2023-12-19T14:27:30Z</time>
      </trkpt>
      <trkpt lat="43.46444" lon="3.51633">
        <ele>74.400001525879</ele>
        <time>2023-12-19T14:27:31Z</time>
      </trkpt>
      <trkpt lat="43.46447" lon="3.51632">
        <ele>74.400001525879</ele>
        <time>2023-12-19T14:27:32Z</time>
      </trkpt>
      <trkpt lat="43.46449" lon="3.51631">
        <ele>74.400001525879</ele>
        <time>2023-12-19T14:27:33Z</time>
      </trkpt>
      <trkpt lat="43.46451" lon="3.51631">
        <ele>74.599998474121</ele>
        <time>2023-12-19T14:27:34Z</time>
      </trkpt>
      <trkpt lat="43.46454" lon="3.5163">
        <ele>74.599998474121</ele>
        <time>2023-12-19T14:27:35Z</time>
      </trkpt>
      <trkpt lat="43.46457" lon="3.51629">
        <ele>75</ele>
        <time>2023-12-19T14:27:36Z</time>
      </trkpt>
      <trkpt lat="43.46459" lon="3.51628">
        <ele>75.199996948242</ele>
        <time>2023-12-19T14:27:37Z</time>
      </trkpt>
      <trkpt lat="43.46462" lon="3.51627">
        <ele>75.400001525879</ele>
        <time>2023-12-19T14:27:38Z</time>
      </trkpt>
      <trkpt lat="43.46465" lon="3.51625">
        <ele>75.400001525879</ele>
        <time>2023-12-19T14:27:39Z</time>
      </trkpt>
      <trkpt lat="43.46468" lon="3.51624">
        <ele>75.400001525879</ele>
        <time>2023-12-19T14:27:40Z</time>
      </trkpt>
      <trkpt lat="43.46471" lon="3.51624">
        <ele>75.400001525879</ele>
        <time>2023-12-19T14:27:41Z</time>
      </trkpt>
      <trkpt lat="43.46474" lon="3.51623">
        <ele>75.599998474121</ele>
        <time>2023-12-19T14:27:42Z</time>
      </trkpt>
      <trkpt lat="43.46477" lon="3.51623">
        <ele>75.599998474121</ele>
        <time>2023-12-19T14:27:43Z</time>
      </trkpt>
      <trkpt lat="43.46481" lon="3.51622">
        <ele>75.800003051758</ele>
        <time>2023-12-19T14:27:44Z</time>
      </trkpt>
      <trkpt lat="43.46483" lon="3.51622">
        <ele>76</ele>
        <time>2023-12-19T14:27:45Z</time>
      </trkpt>
      <trkpt lat="43.46486" lon="3.51622">
        <ele>76.199996948242</ele>
        <time>2023-12-19T14:27:46Z</time>
      </trkpt>
      <trkpt lat="43.46489" lon="3.51623">
        <ele>76.400001525879</ele>
        <time>2023-12-19T14:27:47Z</time>
      </trkpt>
      <trkpt lat="43.46491" lon="3.51622">
        <ele>76.599998474121</ele>
        <time>2023-12-19T14:27:48Z</time>
      </trkpt>
      <trkpt lat="43.46493" lon="3.51621">
        <ele>76.800003051758</ele>
        <time>2023-12-19T14:27:49Z</time>
      </trkpt>
      <trkpt lat="43.46496" lon="3.5162">
        <ele>77</ele>
        <time>2023-12-19T14:27:50Z</time>
      </trkpt>
      <trkpt lat="43.46498" lon="3.51618">
        <ele>77.199996948242</ele>
        <time>2023-12-19T14:27:51Z</time>
      </trkpt>
      <trkpt lat="43.465" lon="3.51617">
        <ele>77.599998474121</ele>
        <time>2023-12-19T14:27:52Z</time>
      </trkpt>
      <trkpt lat="43.46502" lon="3.51615">
        <ele>77.800003051758</ele>
        <time>2023-12-19T14:27:53Z</time>
      </trkpt>
      <trkpt lat="43.46504" lon="3.51613">
        <ele>78</ele>
        <time>2023-12-19T14:27:54Z</time>
      </trkpt>
      <trkpt lat="43.46505" lon="3.5161">
        <ele>78.199996948242</ele>
        <time>2023-12-19T14:27:55Z</time>
      </trkpt>
      <trkpt lat="43.46505" lon="3.51607">
        <ele>78.199996948242</ele>
        <time>2023-12-19T14:27:56Z</time>
      </trkpt>
      <trkpt lat="43.46506" lon="3.51604">
        <ele>78.199996948242</ele>
        <time>2023-12-19T14:27:57Z</time>
      </trkpt>
      <trkpt lat="43.46506" lon="3.516">
        <ele>78.400001525879</ele>
        <time>2023-12-19T14:27:58Z</time>
      </trkpt>
      <trkpt lat="43.46506" lon="3.51597">
        <ele>78.800003051758</ele>
        <time>2023-12-19T14:27:59Z</time>
      </trkpt>
      <trkpt lat="43.46507" lon="3.51593">
        <ele>79.199996948242</ele>
        <time>2023-12-19T14:28:00Z</time>
      </trkpt>
      <trkpt lat="43.46508" lon="3.5159">
        <ele>79.400001525879</ele>
        <time>2023-12-19T14:28:01Z</time>
      </trkpt>
      <trkpt lat="43.4651" lon="3.51587">
        <ele>79.400001525879</ele>
        <time>2023-12-19T14:28:02Z</time>
      </trkpt>
      <trkpt lat="43.46512" lon="3.51585">
        <ele>79.599998474121</ele>
        <time>2023-12-19T14:28:03Z</time>
      </trkpt>
      <trkpt lat="43.46513" lon="3.51583">
        <ele>79.800003051758</ele>
        <time>2023-12-19T14:28:04Z</time>
      </trkpt>
      <trkpt lat="43.46516" lon="3.51581">
        <ele>79.800003051758</ele>
        <time>2023-12-19T14:28:05Z</time>
      </trkpt>
      <trkpt lat="43.46518" lon="3.51579">
        <ele>80</ele>
        <time>2023-12-19T14:28:06Z</time>
      </trkpt>
      <trkpt lat="43.4652" lon="3.51578">
        <ele>80</ele>
        <time>2023-12-19T14:28:07Z</time>
      </trkpt>
      <trkpt lat="43.46522" lon="3.51577">
        <ele>80</ele>
        <time>2023-12-19T14:28:08Z</time>
      </trkpt>
      <trkpt lat="43.46524" lon="3.51576">
        <ele>80.199996948242</ele>
        <time>2023-12-19T14:28:09Z</time>
      </trkpt>
      <trkpt lat="43.46525" lon="3.51575">
        <ele>80.199996948242</ele>
        <time>2023-12-19T14:28:10Z</time>
      </trkpt>
      <trkpt lat="43.46527" lon="3.51574">
        <ele>80.400001525879</ele>
        <time>2023-12-19T14:28:11Z</time>
      </trkpt>
      <trkpt lat="43.46529" lon="3.51573">
        <ele>80.400001525879</ele>
        <time>2023-12-19T14:28:12Z</time>
      </trkpt>
      <trkpt lat="43.46531" lon="3.51572">
        <ele>80.599998474121</ele>
        <time>2023-12-19T14:28:13Z</time>
      </trkpt>
      <trkpt lat="43.46533" lon="3.51572">
        <ele>80.599998474121</ele>
        <time>2023-12-19T14:28:14Z</time>
      </trkpt>
      <trkpt lat="43.46535" lon="3.51573">
        <ele>80.800003051758</ele>
        <time>2023-12-19T14:28:15Z</time>
      </trkpt>
      <trkpt lat="43.46537" lon="3.51574">
        <ele>80.800003051758</ele>
        <time>2023-12-19T14:28:16Z</time>
      </trkpt>
      <trkpt lat="43.46539" lon="3.51577">
        <ele>81</ele>
        <time>2023-12-19T14:28:17Z</time>
      </trkpt>
      <trkpt lat="43.4654" lon="3.51579">
        <ele>81</ele>
        <time>2023-12-19T14:28:18Z</time>
      </trkpt>
      <trkpt lat="43.46541" lon="3.51582">
        <ele>81</ele>
        <time>2023-12-19T14:28:19Z</time>
      </trkpt>
      <trkpt lat="43.46543" lon="3.51585">
        <ele>81.199996948242</ele>
        <time>2023-12-19T14:28:20Z</time>
      </trkpt>
      <trkpt lat="43.46544" lon="3.51589">
        <ele>81.199996948242</ele>
        <time>2023-12-19T14:28:21Z</time>
      </trkpt>
      <trkpt lat="43.46545" lon="3.51592">
        <ele>81.199996948242</ele>
        <time>2023-12-19T14:28:22Z</time>
      </trkpt>
      <trkpt lat="43.46546" lon="3.51595">
        <ele>81.199996948242</ele>
        <time>2023-12-19T14:28:23Z</time>
      </trkpt>
      <trkpt lat="43.46547" lon="3.51598">
        <ele>81.199996948242</ele>
        <time>2023-12-19T14:28:24Z</time>
      </trkpt>
      <trkpt lat="43.46548" lon="3.51601">
        <ele>81.199996948242</ele>
        <time>2023-12-19T14:28:25Z</time>
      </trkpt>
      <trkpt lat="43.4655" lon="3.51604">
        <ele>81.199996948242</ele>
        <time>2023-12-19T14:28:26Z</time>
      </trkpt>
      <trkpt lat="43.46552" lon="3.51606">
        <ele>81.199996948242</ele>
        <time>2023-12-19T14:28:27Z</time>
      </trkpt>
      <trkpt lat="43.46553" lon="3.51608">
        <ele>81.199996948242</ele>
        <time>2023-12-19T14:28:28Z</time>
      </trkpt>
      <trkpt lat="43.46555" lon="3.5161">
        <ele>81.199996948242</ele>
        <time>2023-12-19T14:28:29Z</time>
      </trkpt>
      <trkpt lat="43.46557" lon="3.51611">
        <ele>81</ele>
        <time>2023-12-19T14:28:30Z</time>
      </trkpt>
      <trkpt lat="43.46559" lon="3.51613">
        <ele>81</ele>
        <time>2023-12-19T14:28:31Z</time>
      </trkpt>
      <trkpt lat="43.46561" lon="3.51615">
        <ele>81</ele>
        <time>2023-12-19T14:28:32Z</time>
      </trkpt>
      <trkpt lat="43.46562" lon="3.51617">
        <ele>81</ele>
        <time>2023-12-19T14:28:33Z</time>
      </trkpt>
      <trkpt lat="43.46564" lon="3.5162">
        <ele>81</ele>
        <time>2023-12-19T14:28:34Z</time>
      </trkpt>
      <trkpt lat="43.46566" lon="3.51623">
        <ele>81</ele>
        <time>2023-12-19T14:28:35Z</time>
      </trkpt>
      <trkpt lat="43.46567" lon="3.51628">
        <ele>81</ele>
        <time>2023-12-19T14:28:36Z</time>
      </trkpt>
      <trkpt lat="43.46568" lon="3.51632">
        <ele>81.199996948242</ele>
        <time>2023-12-19T14:28:37Z</time>
      </trkpt>
      <trkpt lat="43.46569" lon="3.51637">
        <ele>81.199996948242</ele>
        <time>2023-12-19T14:28:38Z</time>
      </trkpt>
      <trkpt lat="43.46569" lon="3.51642">
        <ele>81.199996948242</ele>
        <time>2023-12-19T14:28:39Z</time>
      </trkpt>
      <trkpt lat="43.46569" lon="3.51647">
        <ele>81.199996948242</ele>
        <time>2023-12-19T14:28:40Z</time>
      </trkpt>
      <trkpt lat="43.4657" lon="3.51652">
        <ele>81.199996948242</ele>
        <time>2023-12-19T14:28:41Z</time>
      </trkpt>
      <trkpt lat="43.4657" lon="3.51658">
        <ele>81.199996948242</ele>
        <time>2023-12-19T14:28:42Z</time>
      </trkpt>
      <trkpt lat="43.46571" lon="3.51663">
        <ele>81.199996948242</ele>
        <time>2023-12-19T14:28:43Z</time>
      </trkpt>
      <trkpt lat="43.46573" lon="3.51669">
        <ele>81.199996948242</ele>
        <time>2023-12-19T14:28:44Z</time>
      </trkpt>
      <trkpt lat="43.46575" lon="3.51674">
        <ele>81.199996948242</ele>
        <time>2023-12-19T14:28:45Z</time>
      </trkpt>
      <trkpt lat="43.46578" lon="3.51679">
        <ele>81.199996948242</ele>
        <time>2023-12-19T14:28:46Z</time>
      </trkpt>
      <trkpt lat="43.46582" lon="3.51683">
        <ele>81.199996948242</ele>
        <time>2023-12-19T14:28:47Z</time>
      </trkpt>
      <trkpt lat="43.46586" lon="3.51685">
        <ele>81.199996948242</ele>
        <time>2023-12-19T14:28:48Z</time>
      </trkpt>
      <trkpt lat="43.4659" lon="3.51687">
        <ele>81.199996948242</ele>
        <time>2023-12-19T14:28:49Z</time>
      </trkpt>
      <trkpt lat="43.46594" lon="3.5169">
        <ele>81.400001525879</ele>
        <time>2023-12-19T14:28:50Z</time>
      </trkpt>
      <trkpt lat="43.46599" lon="3.51692">
        <ele>81.599998474121</ele>
        <time>2023-12-19T14:28:51Z</time>
      </trkpt>
      <trkpt lat="43.46603" lon="3.51695">
        <ele>81.800003051758</ele>
        <time>2023-12-19T14:28:52Z</time>
      </trkpt>
      <trkpt lat="43.46607" lon="3.51699">
        <ele>82</ele>
        <time>2023-12-19T14:28:53Z</time>
      </trkpt>
      <trkpt lat="43.46612" lon="3.51702">
        <ele>82</ele>
        <time>2023-12-19T14:28:54Z</time>
      </trkpt>
      <trkpt lat="43.46616" lon="3.51705">
        <ele>82</ele>
        <time>2023-12-19T14:28:55Z</time>
      </trkpt>
      <trkpt lat="43.4662" lon="3.51709">
        <ele>82</ele>
        <time>2023-12-19T14:28:56Z</time>
      </trkpt>
      <trkpt lat="43.46623" lon="3.51715">
        <ele>82</ele>
        <time>2023-12-19T14:28:57Z</time>
      </trkpt>
      <trkpt lat="43.46626" lon="3.5172">
        <ele>81.599998474121</ele>
        <time>2023-12-19T14:28:58Z</time>
      </trkpt>
      <trkpt lat="43.46629" lon="3.51726">
        <ele>81.400001525879</ele>
        <time>2023-12-19T14:28:59Z</time>
      </trkpt>
      <trkpt lat="43.46633" lon="3.51731">
        <ele>81.199996948242</ele>
        <time>2023-12-19T14:29:00Z</time>
      </trkpt>
      <trkpt lat="43.46636" lon="3.51735">
        <ele>81</ele>
        <time>2023-12-19T14:29:01Z</time>
      </trkpt>
      <trkpt lat="43.4664" lon="3.5174">
        <ele>80.800003051758</ele>
        <time>2023-12-19T14:29:02Z</time>
      </trkpt>
      <trkpt lat="43.46643" lon="3.51745">
        <ele>80.599998474121</ele>
        <time>2023-12-19T14:29:03Z</time>
      </trkpt>
      <trkpt lat="43.46647" lon="3.5175">
        <ele>80.599998474121</ele>
        <time>2023-12-19T14:29:04Z</time>
      </trkpt>
      <trkpt lat="43.4665" lon="3.51754">
        <ele>80.599998474121</ele>
        <time>2023-12-19T14:29:05Z</time>
      </trkpt>
      <trkpt lat="43.46654" lon="3.51758">
        <ele>80.400001525879</ele>
        <time>2023-12-19T14:29:06Z</time>
      </trkpt>
      <trkpt lat="43.46658" lon="3.51762">
        <ele>80.400001525879</ele>
        <time>2023-12-19T14:29:07Z</time>
      </trkpt>
      <trkpt lat="43.46661" lon="3.51765">
        <ele>80.400001525879</ele>
        <time>2023-12-19T14:29:08Z</time>
      </trkpt>
      <trkpt lat="43.46665" lon="3.51769">
        <ele>80.400001525879</ele>
        <time>2023-12-19T14:29:09Z</time>
      </trkpt>
      <trkpt lat="43.46668" lon="3.51772">
        <ele>80.400001525879</ele>
        <time>2023-12-19T14:29:10Z</time>
      </trkpt>
      <trkpt lat="43.46672" lon="3.51775">
        <ele>80.400001525879</ele>
        <time>2023-12-19T14:29:11Z</time>
      </trkpt>
      <trkpt lat="43.46676" lon="3.51778">
        <ele>80.599998474121</ele>
        <time>2023-12-19T14:29:12Z</time>
      </trkpt>
      <trkpt lat="43.46679" lon="3.51781">
        <ele>80.800003051758</ele>
        <time>2023-12-19T14:29:13Z</time>
      </trkpt>
      <trkpt lat="43.46683" lon="3.51784">
        <ele>81</ele>
        <time>2023-12-19T14:29:14Z</time>
      </trkpt>
      <trkpt lat="43.46686" lon="3.51787">
        <ele>81.199996948242</ele>
        <time>2023-12-19T14:29:15Z</time>
      </trkpt>
      <trkpt lat="43.4669" lon="3.5179">
        <ele>81.199996948242</ele>
        <time>2023-12-19T14:29:16Z</time>
      </trkpt>
      <trkpt lat="43.46694" lon="3.51794">
        <ele>81.400001525879</ele>
        <time>2023-12-19T14:29:17Z</time>
      </trkpt>
      <trkpt lat="43.46698" lon="3.51797">
        <ele>81.599998474121</ele>
        <time>2023-12-19T14:29:18Z</time>
      </trkpt>
      <trkpt lat="43.46702" lon="3.518">
        <ele>81.800003051758</ele>
        <time>2023-12-19T14:29:19Z</time>
      </trkpt>
      <trkpt lat="43.46706" lon="3.51803">
        <ele>82.199996948242</ele>
        <time>2023-12-19T14:29:20Z</time>
      </trkpt>
      <trkpt lat="43.4671" lon="3.51807">
        <ele>82.400001525879</ele>
        <time>2023-12-19T14:29:21Z</time>
      </trkpt>
      <trkpt lat="43.46714" lon="3.5181">
        <ele>83</ele>
        <time>2023-12-19T14:29:22Z</time>
      </trkpt>
      <trkpt lat="43.46719" lon="3.51814">
        <ele>83.400001525879</ele>
        <time>2023-12-19T14:29:23Z</time>
      </trkpt>
      <trkpt lat="43.46722" lon="3.51818">
        <ele>83.599998474121</ele>
        <time>2023-12-19T14:29:24Z</time>
      </trkpt>
      <trkpt lat="43.46726" lon="3.51822">
        <ele>83.599998474121</ele>
        <time>2023-12-19T14:29:25Z</time>
      </trkpt>
      <trkpt lat="43.4673" lon="3.51825">
        <ele>83.599998474121</ele>
        <time>2023-12-19T14:29:26Z</time>
      </trkpt>
      <trkpt lat="43.46734" lon="3.51828">
        <ele>83.599998474121</ele>
        <time>2023-12-19T14:29:27Z</time>
      </trkpt>
      <trkpt lat="43.46738" lon="3.51831">
        <ele>83.400001525879</ele>
        <time>2023-12-19T14:29:28Z</time>
      </trkpt>
      <trkpt lat="43.46742" lon="3.51834">
        <ele>83.400001525879</ele>
        <time>2023-12-19T14:29:29Z</time>
      </trkpt>
      <trkpt lat="43.46746" lon="3.51836">
        <ele>83.400001525879</ele>
        <time>2023-12-19T14:29:30Z</time>
      </trkpt>
      <trkpt lat="43.4675" lon="3.51838">
        <ele>83.400001525879</ele>
        <time>2023-12-19T14:29:31Z</time>
      </trkpt>
      <trkpt lat="43.46755" lon="3.5184">
        <ele>83.400001525879</ele>
        <time>2023-12-19T14:29:32Z</time>
      </trkpt>
      <trkpt lat="43.46759" lon="3.51841">
        <ele>83.599998474121</ele>
        <time>2023-12-19T14:29:33Z</time>
      </trkpt>
      <trkpt lat="43.46763" lon="3.51843">
        <ele>83.800003051758</ele>
        <time>2023-12-19T14:29:34Z</time>
      </trkpt>
      <trkpt lat="43.46768" lon="3.51844">
        <ele>83.800003051758</ele>
        <time>2023-12-19T14:29:35Z</time>
      </trkpt>
      <trkpt lat="43.46771" lon="3.51846">
        <ele>83.800003051758</ele>
        <time>2023-12-19T14:29:36Z</time>
      </trkpt>
      <trkpt lat="43.46775" lon="3.51848">
        <ele>84.199996948242</ele>
        <time>2023-12-19T14:29:37Z</time>
      </trkpt>
      <trkpt lat="43.46779" lon="3.51849">
        <ele>84.400001525879</ele>
        <time>2023-12-19T14:29:38Z</time>
      </trkpt>
      <trkpt lat="43.46783" lon="3.5185">
        <ele>84.599998474121</ele>
        <time>2023-12-19T14:29:39Z</time>
      </trkpt>
      <trkpt lat="43.46786" lon="3.51852">
        <ele>84.800003051758</ele>
        <time>2023-12-19T14:29:40Z</time>
      </trkpt>
      <trkpt lat="43.4679" lon="3.51854">
        <ele>85</ele>
        <time>2023-12-19T14:29:41Z</time>
      </trkpt>
      <trkpt lat="43.46793" lon="3.51857">
        <ele>85</ele>
        <time>2023-12-19T14:29:42Z</time>
      </trkpt>
      <trkpt lat="43.46796" lon="3.51859">
        <ele>85.199996948242</ele>
        <time>2023-12-19T14:29:43Z</time>
      </trkpt>
      <trkpt lat="43.46799" lon="3.51862">
        <ele>85.199996948242</ele>
        <time>2023-12-19T14:29:44Z</time>
      </trkpt>
      <trkpt lat="43.46802" lon="3.51865">
        <ele>85.199996948242</ele>
        <time>2023-12-19T14:29:45Z</time>
      </trkpt>
      <trkpt lat="43.46805" lon="3.51869">
        <ele>85.400001525879</ele>
        <time>2023-12-19T14:29:46Z</time>
      </trkpt>
      <trkpt lat="43.46807" lon="3.51873">
        <ele>85.400001525879</ele>
        <time>2023-12-19T14:29:47Z</time>
      </trkpt>
      <trkpt lat="43.4681" lon="3.51876">
        <ele>85.400001525879</ele>
        <time>2023-12-19T14:29:48Z</time>
      </trkpt>
      <trkpt lat="43.46812" lon="3.5188">
        <ele>85.400001525879</ele>
        <time>2023-12-19T14:29:49Z</time>
      </trkpt>
      <trkpt lat="43.46814" lon="3.51885">
        <ele>85.599998474121</ele>
        <time>2023-12-19T14:29:50Z</time>
      </trkpt>
      <trkpt lat="43.46817" lon="3.51889">
        <ele>85.599998474121</ele>
        <time>2023-12-19T14:29:51Z</time>
      </trkpt>
      <trkpt lat="43.46819" lon="3.51893">
        <ele>85.800003051758</ele>
        <time>2023-12-19T14:29:52Z</time>
      </trkpt>
      <trkpt lat="43.46821" lon="3.51897">
        <ele>86</ele>
        <time>2023-12-19T14:29:53Z</time>
      </trkpt>
      <trkpt lat="43.46823" lon="3.51902">
        <ele>86.199996948242</ele>
        <time>2023-12-19T14:29:54Z</time>
      </trkpt>
      <trkpt lat="43.46824" lon="3.51906">
        <ele>86.199996948242</ele>
        <time>2023-12-19T14:29:55Z</time>
      </trkpt>
      <trkpt lat="43.46826" lon="3.5191">
        <ele>86.400001525879</ele>
        <time>2023-12-19T14:29:56Z</time>
      </trkpt>
      <trkpt lat="43.46828" lon="3.51915">
        <ele>86.599998474121</ele>
        <time>2023-12-19T14:29:57Z</time>
      </trkpt>
      <trkpt lat="43.4683" lon="3.5192">
        <ele>86.800003051758</ele>
        <time>2023-12-19T14:29:58Z</time>
      </trkpt>
      <trkpt lat="43.46832" lon="3.51925">
        <ele>87</ele>
        <time>2023-12-19T14:29:59Z</time>
      </trkpt>
      <trkpt lat="43.46834" lon="3.51929">
        <ele>87.199996948242</ele>
        <time>2023-12-19T14:30:00Z</time>
      </trkpt>
      <trkpt lat="43.46836" lon="3.51933">
        <ele>87.400001525879</ele>
        <time>2023-12-19T14:30:01Z</time>
      </trkpt>
      <trkpt lat="43.46838" lon="3.51937">
        <ele>87.599998474121</ele>
        <time>2023-12-19T14:30:02Z</time>
      </trkpt>
      <trkpt lat="43.4684" lon="3.51941">
        <ele>87.800003051758</ele>
        <time>2023-12-19T14:30:03Z</time>
      </trkpt>
      <trkpt lat="43.46842" lon="3.51944">
        <ele>87.800003051758</ele>
        <time>2023-12-19T14:30:04Z</time>
      </trkpt>
      <trkpt lat="43.46845" lon="3.51948">
        <ele>88</ele>
        <time>2023-12-19T14:30:05Z</time>
      </trkpt>
      <trkpt lat="43.46847" lon="3.51952">
        <ele>88</ele>
        <time>2023-12-19T14:30:06Z</time>
      </trkpt>
      <trkpt lat="43.46849" lon="3.51957">
        <ele>88.199996948242</ele>
        <time>2023-12-19T14:30:07Z</time>
      </trkpt>
      <trkpt lat="43.46851" lon="3.51962">
        <ele>88.199996948242</ele>
        <time>2023-12-19T14:30:08Z</time>
      </trkpt>
      <trkpt lat="43.46853" lon="3.51966">
        <ele>88.400001525879</ele>
        <time>2023-12-19T14:30:09Z</time>
      </trkpt>
      <trkpt lat="43.46855" lon="3.51969">
        <ele>88.599998474121</ele>
        <time>2023-12-19T14:30:10Z</time>
      </trkpt>
      <trkpt lat="43.46857" lon="3.51973">
        <ele>89</ele>
        <time>2023-12-19T14:30:11Z</time>
      </trkpt>
      <trkpt lat="43.46859" lon="3.51977">
        <ele>89.199996948242</ele>
        <time>2023-12-19T14:30:12Z</time>
      </trkpt>
      <trkpt lat="43.46861" lon="3.51981">
        <ele>89.400001525879</ele>
        <time>2023-12-19T14:30:13Z</time>
      </trkpt>
      <trkpt lat="43.46863" lon="3.51985">
        <ele>89.800003051758</ele>
        <time>2023-12-19T14:30:14Z</time>
      </trkpt>
      <trkpt lat="43.46866" lon="3.5199">
        <ele>90</ele>
        <time>2023-12-19T14:30:15Z</time>
      </trkpt>
      <trkpt lat="43.46868" lon="3.51995">
        <ele>90</ele>
        <time>2023-12-19T14:30:16Z</time>
      </trkpt>
      <trkpt lat="43.4687" lon="3.51999">
        <ele>90</ele>
        <time>2023-12-19T14:30:17Z</time>
      </trkpt>
      <trkpt lat="43.46873" lon="3.52004">
        <ele>90</ele>
        <time>2023-12-19T14:30:18Z</time>
      </trkpt>
      <trkpt lat="43.46875" lon="3.52008">
        <ele>90</ele>
        <time>2023-12-19T14:30:19Z</time>
      </trkpt>
      <trkpt lat="43.46877" lon="3.52012">
        <ele>89.800003051758</ele>
        <time>2023-12-19T14:30:20Z</time>
      </trkpt>
      <trkpt lat="43.4688" lon="3.52015">
        <ele>89.800003051758</ele>
        <time>2023-12-19T14:30:21Z</time>
      </trkpt>
      <trkpt lat="43.46883" lon="3.52017">
        <ele>89.800003051758</ele>
        <time>2023-12-19T14:30:22Z</time>
      </trkpt>
      <trkpt lat="43.46884" lon="3.52019">
        <ele>89.800003051758</ele>
        <time>2023-12-19T14:30:23Z</time>
      </trkpt>
      <trkpt lat="43.46886" lon="3.52021">
        <ele>89.800003051758</ele>
        <time>2023-12-19T14:30:24Z</time>
      </trkpt>
      <trkpt lat="43.46887" lon="3.52022">
        <ele>90</ele>
        <time>2023-12-19T14:30:25Z</time>
      </trkpt>
      <trkpt lat="43.46888" lon="3.52025">
        <ele>90</ele>
        <time>2023-12-19T14:30:26Z</time>
      </trkpt>
      <trkpt lat="43.46889" lon="3.52027">
        <ele>90.199996948242</ele>
        <time>2023-12-19T14:30:27Z</time>
      </trkpt>
      <trkpt lat="43.4689" lon="3.5203">
        <ele>90.599998474121</ele>
        <time>2023-12-19T14:30:28Z</time>
      </trkpt>
      <trkpt lat="43.46891" lon="3.52033">
        <ele>90.599998474121</ele>
        <time>2023-12-19T14:30:29Z</time>
      </trkpt>
      <trkpt lat="43.46893" lon="3.52038">
        <ele>90.599998474121</ele>
        <time>2023-12-19T14:30:30Z</time>
      </trkpt>
      <trkpt lat="43.46896" lon="3.52043">
        <ele>90.599998474121</ele>
        <time>2023-12-19T14:30:31Z</time>
      </trkpt>
      <trkpt lat="43.46898" lon="3.52049">
        <ele>90.599998474121</ele>
        <time>2023-12-19T14:30:32Z</time>
      </trkpt>
      <trkpt lat="43.469" lon="3.52055">
        <ele>90.199996948242</ele>
        <time>2023-12-19T14:30:33Z</time>
      </trkpt>
      <trkpt lat="43.46903" lon="3.52061">
        <ele>90</ele>
        <time>2023-12-19T14:30:34Z</time>
      </trkpt>
      <trkpt lat="43.46905" lon="3.52066">
        <ele>89.599998474121</ele>
        <time>2023-12-19T14:30:35Z</time>
      </trkpt>
      <trkpt lat="43.46908" lon="3.52071">
        <ele>89</ele>
        <time>2023-12-19T14:30:36Z</time>
      </trkpt>
      <trkpt lat="43.46911" lon="3.52075">
        <ele>88.599998474121</ele>
        <time>2023-12-19T14:30:37Z</time>
      </trkpt>
      <trkpt lat="43.46914" lon="3.5208">
        <ele>88.199996948242</ele>
        <time>2023-12-19T14:30:38Z</time>
      </trkpt>
      <trkpt lat="43.46915" lon="3.52085">
        <ele>87.800003051758</ele>
        <time>2023-12-19T14:30:39Z</time>
      </trkpt>
      <trkpt lat="43.46917" lon="3.5209">
        <ele>87.400001525879</ele>
        <time>2023-12-19T14:30:40Z</time>
      </trkpt>
      <trkpt lat="43.46918" lon="3.52095">
        <ele>87</ele>
        <time>2023-12-19T14:30:41Z</time>
      </trkpt>
      <trkpt lat="43.46919" lon="3.52101">
        <ele>87</ele>
        <time>2023-12-19T14:30:42Z</time>
      </trkpt>
      <trkpt lat="43.46921" lon="3.52106">
        <ele>87</ele>
        <time>2023-12-19T14:30:43Z</time>
      </trkpt>
      <trkpt lat="43.46922" lon="3.52112">
        <ele>87</ele>
        <time>2023-12-19T14:30:44Z</time>
      </trkpt>
      <trkpt lat="43.46925" lon="3.52118">
        <ele>87.199996948242</ele>
        <time>2023-12-19T14:30:45Z</time>
      </trkpt>
      <trkpt lat="43.46926" lon="3.52124">
        <ele>87.199996948242</ele>
        <time>2023-12-19T14:30:46Z</time>
      </trkpt>
      <trkpt lat="43.46928" lon="3.5213">
        <ele>87.400001525879</ele>
        <time>2023-12-19T14:30:47Z</time>
      </trkpt>
      <trkpt lat="43.46929" lon="3.52135">
        <ele>87.599998474121</ele>
        <time>2023-12-19T14:30:48Z</time>
      </trkpt>
      <trkpt lat="43.4693" lon="3.5214">
        <ele>87.800003051758</ele>
        <time>2023-12-19T14:30:49Z</time>
      </trkpt>
      <trkpt lat="43.46932" lon="3.52146">
        <ele>88.199996948242</ele>
        <time>2023-12-19T14:30:50Z</time>
      </trkpt>
      <trkpt lat="43.46933" lon="3.52151">
        <ele>88.400001525879</ele>
        <time>2023-12-19T14:30:51Z</time>
      </trkpt>
      <trkpt lat="43.46934" lon="3.52156">
        <ele>89</ele>
        <time>2023-12-19T14:30:52Z</time>
      </trkpt>
      <trkpt lat="43.46936" lon="3.52161">
        <ele>89.400001525879</ele>
        <time>2023-12-19T14:30:53Z</time>
      </trkpt>
      <trkpt lat="43.46938" lon="3.52167">
        <ele>89.800003051758</ele>
        <time>2023-12-19T14:30:54Z</time>
      </trkpt>
      <trkpt lat="43.4694" lon="3.52173">
        <ele>90.199996948242</ele>
        <time>2023-12-19T14:30:55Z</time>
      </trkpt>
      <trkpt lat="43.46941" lon="3.52178">
        <ele>90.599998474121</ele>
        <time>2023-12-19T14:30:56Z</time>
      </trkpt>
      <trkpt lat="43.46943" lon="3.52184">
        <ele>90.800003051758</ele>
        <time>2023-12-19T14:30:57Z</time>
      </trkpt>
      <trkpt lat="43.46945" lon="3.52189">
        <ele>91</ele>
        <time>2023-12-19T14:30:58Z</time>
      </trkpt>
      <trkpt lat="43.46947" lon="3.52194">
        <ele>91.199996948242</ele>
        <time>2023-12-19T14:30:59Z</time>
      </trkpt>
      <trkpt lat="43.46949" lon="3.52199">
        <ele>91.400001525879</ele>
        <time>2023-12-19T14:31:00Z</time>
      </trkpt>
      <trkpt lat="43.46951" lon="3.52205">
        <ele>91.400001525879</ele>
        <time>2023-12-19T14:31:01Z</time>
      </trkpt>
      <trkpt lat="43.46953" lon="3.52211">
        <ele>91.400001525879</ele>
        <time>2023-12-19T14:31:02Z</time>
      </trkpt>
      <trkpt lat="43.46955" lon="3.52216">
        <ele>91.599998474121</ele>
        <time>2023-12-19T14:31:03Z</time>
      </trkpt>
      <trkpt lat="43.46956" lon="3.52221">
        <ele>91.800003051758</ele>
        <time>2023-12-19T14:31:04Z</time>
      </trkpt>
      <trkpt lat="43.46958" lon="3.52227">
        <ele>91.800003051758</ele>
        <time>2023-12-19T14:31:05Z</time>
      </trkpt>
      <trkpt lat="43.46959" lon="3.52232">
        <ele>91.800003051758</ele>
        <time>2023-12-19T14:31:06Z</time>
      </trkpt>
      <trkpt lat="43.46961" lon="3.52238">
        <ele>91.800003051758</ele>
        <time>2023-12-19T14:31:07Z</time>
      </trkpt>
      <trkpt lat="43.46962" lon="3.52244">
        <ele>92</ele>
        <time>2023-12-19T14:31:08Z</time>
      </trkpt>
      <trkpt lat="43.46964" lon="3.52249">
        <ele>92</ele>
        <time>2023-12-19T14:31:09Z</time>
      </trkpt>
      <trkpt lat="43.46965" lon="3.52255">
        <ele>92</ele>
        <time>2023-12-19T14:31:10Z</time>
      </trkpt>
      <trkpt lat="43.46966" lon="3.52261">
        <ele>92</ele>
        <time>2023-12-19T14:31:11Z</time>
      </trkpt>
      <trkpt lat="43.46968" lon="3.52266">
        <ele>92</ele>
        <time>2023-12-19T14:31:12Z</time>
      </trkpt>
      <trkpt lat="43.46969" lon="3.52271">
        <ele>92.199996948242</ele>
        <time>2023-12-19T14:31:13Z</time>
      </trkpt>
      <trkpt lat="43.4697" lon="3.52276">
        <ele>92.199996948242</ele>
        <time>2023-12-19T14:31:14Z</time>
      </trkpt>
      <trkpt lat="43.46971" lon="3.52282">
        <ele>92.400001525879</ele>
        <time>2023-12-19T14:31:15Z</time>
      </trkpt>
      <trkpt lat="43.46973" lon="3.52287">
        <ele>92.400001525879</ele>
        <time>2023-12-19T14:31:16Z</time>
      </trkpt>
      <trkpt lat="43.46974" lon="3.52292">
        <ele>92.599998474121</ele>
        <time>2023-12-19T14:31:17Z</time>
      </trkpt>
      <trkpt lat="43.46976" lon="3.52298">
        <ele>92.599998474121</ele>
        <time>2023-12-19T14:31:18Z</time>
      </trkpt>
      <trkpt lat="43.46977" lon="3.52303">
        <ele>92.800003051758</ele>
        <time>2023-12-19T14:31:19Z</time>
      </trkpt>
      <trkpt lat="43.46978" lon="3.52309">
        <ele>92.800003051758</ele>
        <time>2023-12-19T14:31:20Z</time>
      </trkpt>
      <trkpt lat="43.46979" lon="3.52314">
        <ele>92.800003051758</ele>
        <time>2023-12-19T14:31:21Z</time>
      </trkpt>
      <trkpt lat="43.4698" lon="3.52319">
        <ele>92.800003051758</ele>
        <time>2023-12-19T14:31:22Z</time>
      </trkpt>
      <trkpt lat="43.46981" lon="3.52324">
        <ele>93</ele>
        <time>2023-12-19T14:31:23Z</time>
      </trkpt>
      <trkpt lat="43.46983" lon="3.52329">
        <ele>93.199996948242</ele>
        <time>2023-12-19T14:31:24Z</time>
      </trkpt>
      <trkpt lat="43.46984" lon="3.52334">
        <ele>93.199996948242</ele>
        <time>2023-12-19T14:31:25Z</time>
      </trkpt>
      <trkpt lat="43.46985" lon="3.52339">
        <ele>93.199996948242</ele>
        <time>2023-12-19T14:31:26Z</time>
      </trkpt>
      <trkpt lat="43.46986" lon="3.52343">
        <ele>93.199996948242</ele>
        <time>2023-12-19T14:31:27Z</time>
      </trkpt>
      <trkpt lat="43.46988" lon="3.52348">
        <ele>93.400001525879</ele>
        <time>2023-12-19T14:31:28Z</time>
      </trkpt>
      <trkpt lat="43.46989" lon="3.52353">
        <ele>93.400001525879</ele>
        <time>2023-12-19T14:31:29Z</time>
      </trkpt>
      <trkpt lat="43.46991" lon="3.52359">
        <ele>93.599998474121</ele>
        <time>2023-12-19T14:31:30Z</time>
      </trkpt>
      <trkpt lat="43.46992" lon="3.52364">
        <ele>93.599998474121</ele>
        <time>2023-12-19T14:31:31Z</time>
      </trkpt>
      <trkpt lat="43.46993" lon="3.52369">
        <ele>93.599998474121</ele>
        <time>2023-12-19T14:31:32Z</time>
      </trkpt>
      <trkpt lat="43.46995" lon="3.52374">
        <ele>93.800003051758</ele>
        <time>2023-12-19T14:31:33Z</time>
      </trkpt>
      <trkpt lat="43.46996" lon="3.52379">
        <ele>93.800003051758</ele>
        <time>2023-12-19T14:31:34Z</time>
      </trkpt>
      <trkpt lat="43.46997" lon="3.52384">
        <ele>94</ele>
        <time>2023-12-19T14:31:35Z</time>
      </trkpt>
      <trkpt lat="43.46999" lon="3.52388">
        <ele>94</ele>
        <time>2023-12-19T14:31:36Z</time>
      </trkpt>
      <trkpt lat="43.47" lon="3.52393">
        <ele>94.199996948242</ele>
        <time>2023-12-19T14:31:37Z</time>
      </trkpt>
      <trkpt lat="43.47001" lon="3.52398">
        <ele>94.400001525879</ele>
        <time>2023-12-19T14:31:38Z</time>
      </trkpt>
      <trkpt lat="43.47003" lon="3.52403">
        <ele>94.599998474121</ele>
        <time>2023-12-19T14:31:39Z</time>
      </trkpt>
      <trkpt lat="43.47005" lon="3.52408">
        <ele>94.800003051758</ele>
        <time>2023-12-19T14:31:40Z</time>
      </trkpt>
      <trkpt lat="43.47006" lon="3.52412">
        <ele>95</ele>
        <time>2023-12-19T14:31:41Z</time>
      </trkpt>
      <trkpt lat="43.47008" lon="3.52417">
        <ele>95</ele>
        <time>2023-12-19T14:31:42Z</time>
      </trkpt>
      <trkpt lat="43.4701" lon="3.52422">
        <ele>95.199996948242</ele>
        <time>2023-12-19T14:31:43Z</time>
      </trkpt>
      <trkpt lat="43.47012" lon="3.52427">
        <ele>95.199996948242</ele>
        <time>2023-12-19T14:31:44Z</time>
      </trkpt>
      <trkpt lat="43.47013" lon="3.52431">
        <ele>95.400001525879</ele>
        <time>2023-12-19T14:31:45Z</time>
      </trkpt>
      <trkpt lat="43.47015" lon="3.52436">
        <ele>95.599998474121</ele>
        <time>2023-12-19T14:31:46Z</time>
      </trkpt>
      <trkpt lat="43.47017" lon="3.5244">
        <ele>95.800003051758</ele>
        <time>2023-12-19T14:31:47Z</time>
      </trkpt>
      <trkpt lat="43.47019" lon="3.52445">
        <ele>95.800003051758</ele>
        <time>2023-12-19T14:31:48Z</time>
      </trkpt>
      <trkpt lat="43.47021" lon="3.5245">
        <ele>96</ele>
        <time>2023-12-19T14:31:49Z</time>
      </trkpt>
      <trkpt lat="43.47022" lon="3.52455">
        <ele>96.199996948242</ele>
        <time>2023-12-19T14:31:50Z</time>
      </trkpt>
      <trkpt lat="43.47024" lon="3.5246">
        <ele>96.199996948242</ele>
        <time>2023-12-19T14:31:51Z</time>
      </trkpt>
      <trkpt lat="43.47025" lon="3.52465">
        <ele>96.400001525879</ele>
        <time>2023-12-19T14:31:52Z</time>
      </trkpt>
      <trkpt lat="43.47027" lon="3.5247">
        <ele>96.599998474121</ele>
        <time>2023-12-19T14:31:53Z</time>
      </trkpt>
      <trkpt lat="43.47028" lon="3.52475">
        <ele>96.599998474121</ele>
        <time>2023-12-19T14:31:54Z</time>
      </trkpt>
      <trkpt lat="43.47029" lon="3.5248">
        <ele>97</ele>
        <time>2023-12-19T14:31:55Z</time>
      </trkpt>
      <trkpt lat="43.4703" lon="3.52485">
        <ele>97</ele>
        <time>2023-12-19T14:31:56Z</time>
      </trkpt>
      <trkpt lat="43.47032" lon="3.5249">
        <ele>97</ele>
        <time>2023-12-19T14:31:57Z</time>
      </trkpt>
      <trkpt lat="43.47034" lon="3.52495">
        <ele>97.199996948242</ele>
        <time>2023-12-19T14:31:58Z</time>
      </trkpt>
      <trkpt lat="43.47035" lon="3.52499">
        <ele>97.199996948242</ele>
        <time>2023-12-19T14:31:59Z</time>
      </trkpt>
      <trkpt lat="43.47037" lon="3.52503">
        <ele>97.199996948242</ele>
        <time>2023-12-19T14:32:00Z</time>
      </trkpt>
      <trkpt lat="43.47039" lon="3.52507">
        <ele>97.199996948242</ele>
        <time>2023-12-19T14:32:01Z</time>
      </trkpt>
      <trkpt lat="43.47041" lon="3.52511">
        <ele>97.199996948242</ele>
        <time>2023-12-19T14:32:02Z</time>
      </trkpt>
      <trkpt lat="43.47042" lon="3.52515">
        <ele>97.400001525879</ele>
        <time>2023-12-19T14:32:03Z</time>
      </trkpt>
      <trkpt lat="43.47044" lon="3.52519">
        <ele>97.400001525879</ele>
        <time>2023-12-19T14:32:04Z</time>
      </trkpt>
      <trkpt lat="43.47046" lon="3.52523">
        <ele>97.599998474121</ele>
        <time>2023-12-19T14:32:05Z</time>
      </trkpt>
      <trkpt lat="43.47047" lon="3.52527">
        <ele>97.599998474121</ele>
        <time>2023-12-19T14:32:06Z</time>
      </trkpt>
      <trkpt lat="43.47049" lon="3.52531">
        <ele>97.800003051758</ele>
        <time>2023-12-19T14:32:07Z</time>
      </trkpt>
      <trkpt lat="43.47051" lon="3.52534">
        <ele>97.800003051758</ele>
        <time>2023-12-19T14:32:08Z</time>
      </trkpt>
      <trkpt lat="43.47052" lon="3.52537">
        <ele>98</ele>
        <time>2023-12-19T14:32:09Z</time>
      </trkpt>
      <trkpt lat="43.47054" lon="3.5254">
        <ele>98.199996948242</ele>
        <time>2023-12-19T14:32:10Z</time>
      </trkpt>
      <trkpt lat="43.47055" lon="3.52543">
        <ele>98.599998474121</ele>
        <time>2023-12-19T14:32:11Z</time>
      </trkpt>
      <trkpt lat="43.47057" lon="3.52546">
        <ele>98.800003051758</ele>
        <time>2023-12-19T14:32:12Z</time>
      </trkpt>
      <trkpt lat="43.47059" lon="3.5255">
        <ele>99</ele>
        <time>2023-12-19T14:32:13Z</time>
      </trkpt>
      <trkpt lat="43.47061" lon="3.52552">
        <ele>99.400001525879</ele>
        <time>2023-12-19T14:32:14Z</time>
      </trkpt>
      <trkpt lat="43.47062" lon="3.52555">
        <ele>99.599998474121</ele>
        <time>2023-12-19T14:32:15Z</time>
      </trkpt>
      <trkpt lat="43.47064" lon="3.52557">
        <ele>99.800003051758</ele>
        <time>2023-12-19T14:32:16Z</time>
      </trkpt>
      <trkpt lat="43.47065" lon="3.52559">
        <ele>99.800003051758</ele>
        <time>2023-12-19T14:32:17Z</time>
      </trkpt>
      <trkpt lat="43.47067" lon="3.52562">
        <ele>100</ele>
        <time>2023-12-19T14:32:18Z</time>
      </trkpt>
      <trkpt lat="43.47068" lon="3.52563">
        <ele>100</ele>
        <time>2023-12-19T14:32:19Z</time>
      </trkpt>
      <trkpt lat="43.4707" lon="3.52564">
        <ele>100</ele>
        <time>2023-12-19T14:32:20Z</time>
      </trkpt>
      <trkpt lat="43.47072" lon="3.52565">
        <ele>100.19999694824</ele>
        <time>2023-12-19T14:32:21Z</time>
      </trkpt>
      <trkpt lat="43.47073" lon="3.52565">
        <ele>100.19999694824</ele>
        <time>2023-12-19T14:32:22Z</time>
      </trkpt>
      <trkpt lat="43.47075" lon="3.52566">
        <ele>100.40000152588</ele>
        <time>2023-12-19T14:32:23Z</time>
      </trkpt>
      <trkpt lat="43.47076" lon="3.52567">
        <ele>100.80000305176</ele>
        <time>2023-12-19T14:32:24Z</time>
      </trkpt>
      <trkpt lat="43.47076" lon="3.52567">
        <ele>101</ele>
        <time>2023-12-19T14:32:25Z</time>
      </trkpt>
      <trkpt lat="43.47077" lon="3.52567">
        <ele>101.19999694824</ele>
        <time>2023-12-19T14:32:26Z</time>
      </trkpt>
      <trkpt lat="43.47077" lon="3.52567">
        <ele>101.19999694824</ele>
        <time>2023-12-19T14:32:27Z</time>
      </trkpt>
      <trkpt lat="43.47077" lon="3.52567">
        <ele>101.40000152588</ele>
        <time>2023-12-19T14:32:28Z</time>
      </trkpt>
      <trkpt lat="43.47069" lon="3.52566">
        <ele>101.40000152588</ele>
        <time>2023-12-19T14:32:58Z</time>
      </trkpt>
      <trkpt lat="43.47067" lon="3.52568">
        <ele>101.19999694824</ele>
        <time>2023-12-19T14:32:59Z</time>
      </trkpt>
      <trkpt lat="43.47066" lon="3.52571">
        <ele>101.19999694824</ele>
        <time>2023-12-19T14:33:00Z</time>
      </trkpt>
      <trkpt lat="43.47064" lon="3.52574">
        <ele>101</ele>
        <time>2023-12-19T14:33:01Z</time>
      </trkpt>
      <trkpt lat="43.47061" lon="3.52579">
        <ele>100.80000305176</ele>
        <time>2023-12-19T14:33:02Z</time>
      </trkpt>
      <trkpt lat="43.47058" lon="3.52582">
        <ele>100.59999847412</ele>
        <time>2023-12-19T14:33:03Z</time>
      </trkpt>
      <trkpt lat="43.47055" lon="3.52588">
        <ele>100.40000152588</ele>
        <time>2023-12-19T14:33:04Z</time>
      </trkpt>
      <trkpt lat="43.47053" lon="3.52594">
        <ele>100</ele>
        <time>2023-12-19T14:33:05Z</time>
      </trkpt>
      <trkpt lat="43.4705" lon="3.52599">
        <ele>99.800003051758</ele>
        <time>2023-12-19T14:33:06Z</time>
      </trkpt>
      <trkpt lat="43.47048" lon="3.52604">
        <ele>99.599998474121</ele>
        <time>2023-12-19T14:33:07Z</time>
      </trkpt>
      <trkpt lat="43.47045" lon="3.52608">
        <ele>99.199996948242</ele>
        <time>2023-12-19T14:33:08Z</time>
      </trkpt>
      <trkpt lat="43.47042" lon="3.52613">
        <ele>99</ele>
        <time>2023-12-19T14:33:09Z</time>
      </trkpt>
      <trkpt lat="43.47039" lon="3.52616">
        <ele>98.800003051758</ele>
        <time>2023-12-19T14:33:10Z</time>
      </trkpt>
      <trkpt lat="43.47037" lon="3.5262">
        <ele>98.800003051758</ele>
        <time>2023-12-19T14:33:11Z</time>
      </trkpt>
      <trkpt lat="43.47035" lon="3.52622">
        <ele>98.800003051758</ele>
        <time>2023-12-19T14:33:12Z</time>
      </trkpt>
      <trkpt lat="43.47032" lon="3.52624">
        <ele>98.599998474121</ele>
        <time>2023-12-19T14:33:13Z</time>
      </trkpt>
      <trkpt lat="43.47031" lon="3.52625">
        <ele>98.599998474121</ele>
        <time>2023-12-19T14:33:14Z</time>
      </trkpt>
      <trkpt lat="43.4703" lon="3.52626">
        <ele>98.599998474121</ele>
        <time>2023-12-19T14:33:15Z</time>
      </trkpt>
      <trkpt lat="43.4703" lon="3.52626">
        <ele>98.599998474121</ele>
        <time>2023-12-19T14:33:16Z</time>
      </trkpt>
      <trkpt lat="43.47027" lon="3.52626">
        <ele>98.599998474121</ele>
        <time>2023-12-19T14:33:23Z</time>
      </trkpt>
      <trkpt lat="43.47025" lon="3.52625">
        <ele>98.599998474121</ele>
        <time>2023-12-19T14:33:24Z</time>
      </trkpt>
      <trkpt lat="43.47023" lon="3.52625">
        <ele>98.599998474121</ele>
        <time>2023-12-19T14:33:25Z</time>
      </trkpt>
      <trkpt lat="43.47021" lon="3.52624">
        <ele>98.599998474121</ele>
        <time>2023-12-19T14:33:26Z</time>
      </trkpt>
      <trkpt lat="43.47019" lon="3.52623">
        <ele>98.599998474121</ele>
        <time>2023-12-19T14:33:27Z</time>
      </trkpt>
      <trkpt lat="43.47016" lon="3.52621">
        <ele>98.400001525879</ele>
        <time>2023-12-19T14:33:28Z</time>
      </trkpt>
      <trkpt lat="43.47014" lon="3.5262">
        <ele>98.400001525879</ele>
        <time>2023-12-19T14:33:29Z</time>
      </trkpt>
      <trkpt lat="43.47012" lon="3.52619">
        <ele>98.400001525879</ele>
        <time>2023-12-19T14:33:30Z</time>
      </trkpt>
      <trkpt lat="43.4701" lon="3.52617">
        <ele>98.400001525879</ele>
        <time>2023-12-19T14:33:31Z</time>
      </trkpt>
      <trkpt lat="43.47007" lon="3.52617">
        <ele>98.400001525879</ele>
        <time>2023-12-19T14:33:32Z</time>
      </trkpt>
      <trkpt lat="43.47005" lon="3.52616">
        <ele>98.199996948242</ele>
        <time>2023-12-19T14:33:33Z</time>
      </trkpt>
      <trkpt lat="43.47002" lon="3.52614">
        <ele>98.199996948242</ele>
        <time>2023-12-19T14:33:34Z</time>
      </trkpt>
      <trkpt lat="43.47" lon="3.52612">
        <ele>98</ele>
        <time>2023-12-19T14:33:35Z</time>
      </trkpt>
      <trkpt lat="43.46997" lon="3.52612">
        <ele>98</ele>
        <time>2023-12-19T14:33:36Z</time>
      </trkpt>
      <trkpt lat="43.46994" lon="3.52612">
        <ele>98</ele>
        <time>2023-12-19T14:33:37Z</time>
      </trkpt>
      <trkpt lat="43.46991" lon="3.52613">
        <ele>98</ele>
        <time>2023-12-19T14:33:38Z</time>
      </trkpt>
      <trkpt lat="43.46988" lon="3.52615">
        <ele>98</ele>
        <time>2023-12-19T14:33:39Z</time>
      </trkpt>
      <trkpt lat="43.46986" lon="3.52616">
        <ele>98</ele>
        <time>2023-12-19T14:33:40Z</time>
      </trkpt>
      <trkpt lat="43.46983" lon="3.52617">
        <ele>98</ele>
        <time>2023-12-19T14:33:41Z</time>
      </trkpt>
      <trkpt lat="43.4698" lon="3.52617">
        <ele>98</ele>
        <time>2023-12-19T14:33:42Z</time>
      </trkpt>
      <trkpt lat="43.46977" lon="3.52618">
        <ele>98.199996948242</ele>
        <time>2023-12-19T14:33:43Z</time>
      </trkpt>
      <trkpt lat="43.46975" lon="3.5262">
        <ele>98.400001525879</ele>
        <time>2023-12-19T14:33:44Z</time>
      </trkpt>
      <trkpt lat="43.46972" lon="3.52623">
        <ele>98.599998474121</ele>
        <time>2023-12-19T14:33:45Z</time>
      </trkpt>
      <trkpt lat="43.46969" lon="3.52625">
        <ele>98.800003051758</ele>
        <time>2023-12-19T14:33:46Z</time>
      </trkpt>
      <trkpt lat="43.46966" lon="3.52628">
        <ele>99.199996948242</ele>
        <time>2023-12-19T14:33:47Z</time>
      </trkpt>
      <trkpt lat="43.46963" lon="3.5263">
        <ele>99.400001525879</ele>
        <time>2023-12-19T14:33:48Z</time>
      </trkpt>
      <trkpt lat="43.4696" lon="3.52631">
        <ele>99.800003051758</ele>
        <time>2023-12-19T14:33:49Z</time>
      </trkpt>
      <trkpt lat="43.46957" lon="3.52631">
        <ele>100.19999694824</ele>
        <time>2023-12-19T14:33:50Z</time>
      </trkpt>
      <trkpt lat="43.46954" lon="3.52631">
        <ele>100.40000152588</ele>
        <time>2023-12-19T14:33:51Z</time>
      </trkpt>
      <trkpt lat="43.46951" lon="3.52631">
        <ele>100.80000305176</ele>
        <time>2023-12-19T14:33:52Z</time>
      </trkpt>
      <trkpt lat="43.4695" lon="3.52628">
        <ele>101.19999694824</ele>
        <time>2023-12-19T14:33:53Z</time>
      </trkpt>
      <trkpt lat="43.46948" lon="3.52625">
        <ele>101.19999694824</ele>
        <time>2023-12-19T14:33:54Z</time>
      </trkpt>
      <trkpt lat="43.46946" lon="3.52622">
        <ele>101.40000152588</ele>
        <time>2023-12-19T14:33:55Z</time>
      </trkpt>
      <trkpt lat="43.46943" lon="3.52621">
        <ele>101.40000152588</ele>
        <time>2023-12-19T14:33:56Z</time>
      </trkpt>
      <trkpt lat="43.46941" lon="3.52622">
        <ele>101.40000152588</ele>
        <time>2023-12-19T14:33:57Z</time>
      </trkpt>
      <trkpt lat="43.46938" lon="3.52624">
        <ele>101.40000152588</ele>
        <time>2023-12-19T14:33:58Z</time>
      </trkpt>
      <trkpt lat="43.46935" lon="3.52625">
        <ele>101.40000152588</ele>
        <time>2023-12-19T14:33:59Z</time>
      </trkpt>
      <trkpt lat="43.46932" lon="3.52627">
        <ele>101.40000152588</ele>
        <time>2023-12-19T14:34:00Z</time>
      </trkpt>
      <trkpt lat="43.46929" lon="3.52627">
        <ele>101.19999694824</ele>
        <time>2023-12-19T14:34:01Z</time>
      </trkpt>
      <trkpt lat="43.46926" lon="3.52629">
        <ele>101</ele>
        <time>2023-12-19T14:34:02Z</time>
      </trkpt>
      <trkpt lat="43.46923" lon="3.5263">
        <ele>100.59999847412</ele>
        <time>2023-12-19T14:34:03Z</time>
      </trkpt>
      <trkpt lat="43.4692" lon="3.52629">
        <ele>99.800003051758</ele>
        <time>2023-12-19T14:34:04Z</time>
      </trkpt>
      <trkpt lat="43.46916" lon="3.52628">
        <ele>99.400001525879</ele>
        <time>2023-12-19T14:34:05Z</time>
      </trkpt>
      <trkpt lat="43.46913" lon="3.52628">
        <ele>99.199996948242</ele>
        <time>2023-12-19T14:34:06Z</time>
      </trkpt>
      <trkpt lat="43.4691" lon="3.52627">
        <ele>98.800003051758</ele>
        <time>2023-12-19T14:34:07Z</time>
      </trkpt>
      <trkpt lat="43.46909" lon="3.52625">
        <ele>98.599998474121</ele>
        <time>2023-12-19T14:34:08Z</time>
      </trkpt>
      <trkpt lat="43.46907" lon="3.52623">
        <ele>98.400001525879</ele>
        <time>2023-12-19T14:34:09Z</time>
      </trkpt>
      <trkpt lat="43.46904" lon="3.5262">
        <ele>98.400001525879</ele>
        <time>2023-12-19T14:34:10Z</time>
      </trkpt>
      <trkpt lat="43.46901" lon="3.52617">
        <ele>98.400001525879</ele>
        <time>2023-12-19T14:34:11Z</time>
      </trkpt>
      <trkpt lat="43.46898" lon="3.52616">
        <ele>98.400001525879</ele>
        <time>2023-12-19T14:34:12Z</time>
      </trkpt>
      <trkpt lat="43.46896" lon="3.52615">
        <ele>98.400001525879</ele>
        <time>2023-12-19T14:34:13Z</time>
      </trkpt>
      <trkpt lat="43.46894" lon="3.52616">
        <ele>98.400001525879</ele>
        <time>2023-12-19T14:34:14Z</time>
      </trkpt>
      <trkpt lat="43.46891" lon="3.52615">
        <ele>98.400001525879</ele>
        <time>2023-12-19T14:34:15Z</time>
      </trkpt>
      <trkpt lat="43.46889" lon="3.52614">
        <ele>98.599998474121</ele>
        <time>2023-12-19T14:34:16Z</time>
      </trkpt>
      <trkpt lat="43.46886" lon="3.52612">
        <ele>98.800003051758</ele>
        <time>2023-12-19T14:34:17Z</time>
      </trkpt>
      <trkpt lat="43.46883" lon="3.52611">
        <ele>99</ele>
        <time>2023-12-19T14:34:18Z</time>
      </trkpt>
      <trkpt lat="43.46881" lon="3.52609">
        <ele>99.199996948242</ele>
        <time>2023-12-19T14:34:19Z</time>
      </trkpt>
      <trkpt lat="43.46877" lon="3.52607">
        <ele>99.199996948242</ele>
        <time>2023-12-19T14:34:20Z</time>
      </trkpt>
      <trkpt lat="43.46875" lon="3.52605">
        <ele>99.199996948242</ele>
        <time>2023-12-19T14:34:21Z</time>
      </trkpt>
      <trkpt lat="43.46873" lon="3.52602">
        <ele>99.400001525879</ele>
        <time>2023-12-19T14:34:22Z</time>
      </trkpt>
      <trkpt lat="43.4687" lon="3.526">
        <ele>99.400001525879</ele>
        <time>2023-12-19T14:34:23Z</time>
      </trkpt>
      <trkpt lat="43.46868" lon="3.52597">
        <ele>99.400001525879</ele>
        <time>2023-12-19T14:34:24Z</time>
      </trkpt>
      <trkpt lat="43.46867" lon="3.52593">
        <ele>99.400001525879</ele>
        <time>2023-12-19T14:34:25Z</time>
      </trkpt>
      <trkpt lat="43.46865" lon="3.52589">
        <ele>99.400001525879</ele>
        <time>2023-12-19T14:34:26Z</time>
      </trkpt>
      <trkpt lat="43.46863" lon="3.52585">
        <ele>99.400001525879</ele>
        <time>2023-12-19T14:34:27Z</time>
      </trkpt>
      <trkpt lat="43.46861" lon="3.52582">
        <ele>99.400001525879</ele>
        <time>2023-12-19T14:34:28Z</time>
      </trkpt>
      <trkpt lat="43.4686" lon="3.52577">
        <ele>99.199996948242</ele>
        <time>2023-12-19T14:34:29Z</time>
      </trkpt>
      <trkpt lat="43.46859" lon="3.52572">
        <ele>99.199996948242</ele>
        <time>2023-12-19T14:34:30Z</time>
      </trkpt>
      <trkpt lat="43.46857" lon="3.52567">
        <ele>99.199996948242</ele>
        <time>2023-12-19T14:34:31Z</time>
      </trkpt>
      <trkpt lat="43.46856" lon="3.52562">
        <ele>99.199996948242</ele>
        <time>2023-12-19T14:34:32Z</time>
      </trkpt>
      <trkpt lat="43.46854" lon="3.52559">
        <ele>98.800003051758</ele>
        <time>2023-12-19T14:34:33Z</time>
      </trkpt>
      <trkpt lat="43.46851" lon="3.52556">
        <ele>98.599998474121</ele>
        <time>2023-12-19T14:34:34Z</time>
      </trkpt>
      <trkpt lat="43.46849" lon="3.52554">
        <ele>98.599998474121</ele>
        <time>2023-12-19T14:34:35Z</time>
      </trkpt>
      <trkpt lat="43.46848" lon="3.5255">
        <ele>98.400001525879</ele>
        <time>2023-12-19T14:34:36Z</time>
      </trkpt>
      <trkpt lat="43.46846" lon="3.52546">
        <ele>98.199996948242</ele>
        <time>2023-12-19T14:34:37Z</time>
      </trkpt>
      <trkpt lat="43.46844" lon="3.52542">
        <ele>98.199996948242</ele>
        <time>2023-12-19T14:34:38Z</time>
      </trkpt>
      <trkpt lat="43.46841" lon="3.5254">
        <ele>98.199996948242</ele>
        <time>2023-12-19T14:34:39Z</time>
      </trkpt>
      <trkpt lat="43.46838" lon="3.52538">
        <ele>98</ele>
        <time>2023-12-19T14:34:40Z</time>
      </trkpt>
      <trkpt lat="43.46834" lon="3.52536">
        <ele>98</ele>
        <time>2023-12-19T14:34:41Z</time>
      </trkpt>
      <trkpt lat="43.46832" lon="3.52532">
        <ele>98</ele>
        <time>2023-12-19T14:34:42Z</time>
      </trkpt>
      <trkpt lat="43.4683" lon="3.52528">
        <ele>97.800003051758</ele>
        <time>2023-12-19T14:34:43Z</time>
      </trkpt>
      <trkpt lat="43.46828" lon="3.52525">
        <ele>97.599998474121</ele>
        <time>2023-12-19T14:34:44Z</time>
      </trkpt>
      <trkpt lat="43.46826" lon="3.52522">
        <ele>97.400001525879</ele>
        <time>2023-12-19T14:34:45Z</time>
      </trkpt>
      <trkpt lat="43.46823" lon="3.52519">
        <ele>97.199996948242</ele>
        <time>2023-12-19T14:34:46Z</time>
      </trkpt>
      <trkpt lat="43.46821" lon="3.52516">
        <ele>97</ele>
        <time>2023-12-19T14:34:47Z</time>
      </trkpt>
      <trkpt lat="43.4682" lon="3.52513">
        <ele>97</ele>
        <time>2023-12-19T14:34:48Z</time>
      </trkpt>
      <trkpt lat="43.46818" lon="3.52509">
        <ele>96.800003051758</ele>
        <time>2023-12-19T14:34:49Z</time>
      </trkpt>
      <trkpt lat="43.46816" lon="3.52505">
        <ele>96.599998474121</ele>
        <time>2023-12-19T14:34:50Z</time>
      </trkpt>
      <trkpt lat="43.46815" lon="3.52502">
        <ele>96.599998474121</ele>
        <time>2023-12-19T14:34:51Z</time>
      </trkpt>
      <trkpt lat="43.46813" lon="3.525">
        <ele>96.599998474121</ele>
        <time>2023-12-19T14:34:52Z</time>
      </trkpt>
      <trkpt lat="43.46811" lon="3.52498">
        <ele>96.400001525879</ele>
        <time>2023-12-19T14:34:53Z</time>
      </trkpt>
      <trkpt lat="43.46808" lon="3.52496">
        <ele>96.400001525879</ele>
        <time>2023-12-19T14:34:54Z</time>
      </trkpt>
      <trkpt lat="43.46806" lon="3.52493">
        <ele>96.400001525879</ele>
        <time>2023-12-19T14:34:55Z</time>
      </trkpt>
      <trkpt lat="43.46804" lon="3.52488">
        <ele>96.199996948242</ele>
        <time>2023-12-19T14:34:56Z</time>
      </trkpt>
      <trkpt lat="43.46802" lon="3.52483">
        <ele>96.199996948242</ele>
        <time>2023-12-19T14:34:57Z</time>
      </trkpt>
      <trkpt lat="43.468" lon="3.52479">
        <ele>96</ele>
        <time>2023-12-19T14:34:58Z</time>
      </trkpt>
      <trkpt lat="43.46798" lon="3.52474">
        <ele>95.800003051758</ele>
        <time>2023-12-19T14:34:59Z</time>
      </trkpt>
      <trkpt lat="43.46795" lon="3.52469">
        <ele>95.599998474121</ele>
        <time>2023-12-19T14:35:00Z</time>
      </trkpt>
      <trkpt lat="43.46792" lon="3.52464">
        <ele>95.400001525879</ele>
        <time>2023-12-19T14:35:01Z</time>
      </trkpt>
      <trkpt lat="43.46789" lon="3.5246">
        <ele>95</ele>
        <time>2023-12-19T14:35:02Z</time>
      </trkpt>
      <trkpt lat="43.46787" lon="3.52455">
        <ele>94.599998474121</ele>
        <time>2023-12-19T14:35:03Z</time>
      </trkpt>
      <trkpt lat="43.46784" lon="3.52451">
        <ele>94.400001525879</ele>
        <time>2023-12-19T14:35:04Z</time>
      </trkpt>
      <trkpt lat="43.46782" lon="3.52447">
        <ele>94.199996948242</ele>
        <time>2023-12-19T14:35:05Z</time>
      </trkpt>
      <trkpt lat="43.4678" lon="3.52443">
        <ele>93.800003051758</ele>
        <time>2023-12-19T14:35:06Z</time>
      </trkpt>
      <trkpt lat="43.46778" lon="3.52438">
        <ele>93.400001525879</ele>
        <time>2023-12-19T14:35:07Z</time>
      </trkpt>
      <trkpt lat="43.46776" lon="3.52434">
        <ele>93</ele>
        <time>2023-12-19T14:35:08Z</time>
      </trkpt>
      <trkpt lat="43.46773" lon="3.5243">
        <ele>92.800003051758</ele>
        <time>2023-12-19T14:35:09Z</time>
      </trkpt>
      <trkpt lat="43.46771" lon="3.52427">
        <ele>92.800003051758</ele>
        <time>2023-12-19T14:35:10Z</time>
      </trkpt>
      <trkpt lat="43.46769" lon="3.52424">
        <ele>92.599998474121</ele>
        <time>2023-12-19T14:35:11Z</time>
      </trkpt>
      <trkpt lat="43.46768" lon="3.5242">
        <ele>92.599998474121</ele>
        <time>2023-12-19T14:35:12Z</time>
      </trkpt>
      <trkpt lat="43.46767" lon="3.52417">
        <ele>92.400001525879</ele>
        <time>2023-12-19T14:35:13Z</time>
      </trkpt>
      <trkpt lat="43.46765" lon="3.52415">
        <ele>92.199996948242</ele>
        <time>2023-12-19T14:35:14Z</time>
      </trkpt>
      <trkpt lat="43.46762" lon="3.52412">
        <ele>92.199996948242</ele>
        <time>2023-12-19T14:35:15Z</time>
      </trkpt>
      <trkpt lat="43.4676" lon="3.52409">
        <ele>92</ele>
        <time>2023-12-19T14:35:16Z</time>
      </trkpt>
      <trkpt lat="43.46757" lon="3.52406">
        <ele>91.800003051758</ele>
        <time>2023-12-19T14:35:17Z</time>
      </trkpt>
      <trkpt lat="43.46755" lon="3.52402">
        <ele>91.599998474121</ele>
        <time>2023-12-19T14:35:18Z</time>
      </trkpt>
      <trkpt lat="43.46754" lon="3.52398">
        <ele>91.400001525879</ele>
        <time>2023-12-19T14:35:19Z</time>
      </trkpt>
      <trkpt lat="43.46752" lon="3.52394">
        <ele>91.400001525879</ele>
        <time>2023-12-19T14:35:20Z</time>
      </trkpt>
      <trkpt lat="43.46749" lon="3.52392">
        <ele>91.199996948242</ele>
        <time>2023-12-19T14:35:21Z</time>
      </trkpt>
      <trkpt lat="43.46747" lon="3.52389">
        <ele>91</ele>
        <time>2023-12-19T14:35:22Z</time>
      </trkpt>
      <trkpt lat="43.46745" lon="3.52386">
        <ele>90.800003051758</ele>
        <time>2023-12-19T14:35:23Z</time>
      </trkpt>
      <trkpt lat="43.46743" lon="3.52381">
        <ele>90.800003051758</ele>
        <time>2023-12-19T14:35:24Z</time>
      </trkpt>
      <trkpt lat="43.46739" lon="3.52378">
        <ele>90.599998474121</ele>
        <time>2023-12-19T14:35:25Z</time>
      </trkpt>
      <trkpt lat="43.46737" lon="3.52375">
        <ele>90.400001525879</ele>
        <time>2023-12-19T14:35:26Z</time>
      </trkpt>
      <trkpt lat="43.46734" lon="3.52372">
        <ele>90.199996948242</ele>
        <time>2023-12-19T14:35:27Z</time>
      </trkpt>
      <trkpt lat="43.46732" lon="3.52368">
        <ele>90</ele>
        <time>2023-12-19T14:35:28Z</time>
      </trkpt>
      <trkpt lat="43.46731" lon="3.52364">
        <ele>89.800003051758</ele>
        <time>2023-12-19T14:35:29Z</time>
      </trkpt>
      <trkpt lat="43.46729" lon="3.52361">
        <ele>89.599998474121</ele>
        <time>2023-12-19T14:35:30Z</time>
      </trkpt>
      <trkpt lat="43.46727" lon="3.52358">
        <ele>89.400001525879</ele>
        <time>2023-12-19T14:35:31Z</time>
      </trkpt>
      <trkpt lat="43.46725" lon="3.52354">
        <ele>89.400001525879</ele>
        <time>2023-12-19T14:35:32Z</time>
      </trkpt>
      <trkpt lat="43.46723" lon="3.5235">
        <ele>89.400001525879</ele>
        <time>2023-12-19T14:35:33Z</time>
      </trkpt>
      <trkpt lat="43.46721" lon="3.52346">
        <ele>89.199996948242</ele>
        <time>2023-12-19T14:35:34Z</time>
      </trkpt>
      <trkpt lat="43.46718" lon="3.52341">
        <ele>89.199996948242</ele>
        <time>2023-12-19T14:35:35Z</time>
      </trkpt>
      <trkpt lat="43.46716" lon="3.52337">
        <ele>89.199996948242</ele>
        <time>2023-12-19T14:35:36Z</time>
      </trkpt>
      <trkpt lat="43.46713" lon="3.52332">
        <ele>89</ele>
        <time>2023-12-19T14:35:37Z</time>
      </trkpt>
      <trkpt lat="43.46711" lon="3.52327">
        <ele>89</ele>
        <time>2023-12-19T14:35:38Z</time>
      </trkpt>
      <trkpt lat="43.4671" lon="3.52321">
        <ele>89</ele>
        <time>2023-12-19T14:35:39Z</time>
      </trkpt>
      <trkpt lat="43.46707" lon="3.52316">
        <ele>89</ele>
        <time>2023-12-19T14:35:40Z</time>
      </trkpt>
      <trkpt lat="43.46705" lon="3.52311">
        <ele>89</ele>
        <time>2023-12-19T14:35:41Z</time>
      </trkpt>
      <trkpt lat="43.46704" lon="3.52307">
        <ele>89</ele>
        <time>2023-12-19T14:35:42Z</time>
      </trkpt>
      <trkpt lat="43.46704" lon="3.52302">
        <ele>89</ele>
        <time>2023-12-19T14:35:43Z</time>
      </trkpt>
      <trkpt lat="43.46705" lon="3.52296">
        <ele>89</ele>
        <time>2023-12-19T14:35:44Z</time>
      </trkpt>
      <trkpt lat="43.46705" lon="3.52293">
        <ele>89</ele>
        <time>2023-12-19T14:35:45Z</time>
      </trkpt>
      <trkpt lat="43.46704" lon="3.52289">
        <ele>89</ele>
        <time>2023-12-19T14:35:46Z</time>
      </trkpt>
      <trkpt lat="43.46702" lon="3.52285">
        <ele>89</ele>
        <time>2023-12-19T14:35:47Z</time>
      </trkpt>
      <trkpt lat="43.467" lon="3.52281">
        <ele>89</ele>
        <time>2023-12-19T14:35:48Z</time>
      </trkpt>
      <trkpt lat="43.46698" lon="3.52276">
        <ele>89.199996948242</ele>
        <time>2023-12-19T14:35:49Z</time>
      </trkpt>
      <trkpt lat="43.46695" lon="3.52271">
        <ele>89.199996948242</ele>
        <time>2023-12-19T14:35:50Z</time>
      </trkpt>
      <trkpt lat="43.46693" lon="3.52268">
        <ele>89.199996948242</ele>
        <time>2023-12-19T14:35:51Z</time>
      </trkpt>
      <trkpt lat="43.46689" lon="3.52265">
        <ele>89.199996948242</ele>
        <time>2023-12-19T14:35:52Z</time>
      </trkpt>
      <trkpt lat="43.46687" lon="3.52261">
        <ele>88.800003051758</ele>
        <time>2023-12-19T14:35:53Z</time>
      </trkpt>
      <trkpt lat="43.46685" lon="3.52258">
        <ele>88.599998474121</ele>
        <time>2023-12-19T14:35:54Z</time>
      </trkpt>
      <trkpt lat="43.46682" lon="3.52255">
        <ele>88.199996948242</ele>
        <time>2023-12-19T14:35:55Z</time>
      </trkpt>
      <trkpt lat="43.4668" lon="3.52252">
        <ele>88</ele>
        <time>2023-12-19T14:35:56Z</time>
      </trkpt>
      <trkpt lat="43.46678" lon="3.52248">
        <ele>87.800003051758</ele>
        <time>2023-12-19T14:35:57Z</time>
      </trkpt>
      <trkpt lat="43.46675" lon="3.52244">
        <ele>87.800003051758</ele>
        <time>2023-12-19T14:35:58Z</time>
      </trkpt>
      <trkpt lat="43.46673" lon="3.5224">
        <ele>87.599998474121</ele>
        <time>2023-12-19T14:35:59Z</time>
      </trkpt>
      <trkpt lat="43.4667" lon="3.52235">
        <ele>87.199996948242</ele>
        <time>2023-12-19T14:36:00Z</time>
      </trkpt>
      <trkpt lat="43.46669" lon="3.52231">
        <ele>87.199996948242</ele>
        <time>2023-12-19T14:36:01Z</time>
      </trkpt>
      <trkpt lat="43.46669" lon="3.52227">
        <ele>87</ele>
        <time>2023-12-19T14:36:02Z</time>
      </trkpt>
      <trkpt lat="43.46667" lon="3.52223">
        <ele>86.800003051758</ele>
        <time>2023-12-19T14:36:03Z</time>
      </trkpt>
      <trkpt lat="43.46666" lon="3.52221">
        <ele>86.800003051758</ele>
        <time>2023-12-19T14:36:04Z</time>
      </trkpt>
      <trkpt lat="43.46665" lon="3.52218">
        <ele>86.800003051758</ele>
        <time>2023-12-19T14:36:05Z</time>
      </trkpt>
      <trkpt lat="43.46663" lon="3.52216">
        <ele>86.800003051758</ele>
        <time>2023-12-19T14:36:06Z</time>
      </trkpt>
      <trkpt lat="43.46661" lon="3.52214">
        <ele>86.800003051758</ele>
        <time>2023-12-19T14:36:07Z</time>
      </trkpt>
      <trkpt lat="43.46658" lon="3.52211">
        <ele>86.800003051758</ele>
        <time>2023-12-19T14:36:08Z</time>
      </trkpt>
      <trkpt lat="43.46656" lon="3.52209">
        <ele>86.800003051758</ele>
        <time>2023-12-19T14:36:09Z</time>
      </trkpt>
      <trkpt lat="43.46654" lon="3.52207">
        <ele>86.599998474121</ele>
        <time>2023-12-19T14:36:10Z</time>
      </trkpt>
      <trkpt lat="43.46653" lon="3.52204">
        <ele>86.599998474121</ele>
        <time>2023-12-19T14:36:11Z</time>
      </trkpt>
      <trkpt lat="43.46651" lon="3.522">
        <ele>86.599998474121</ele>
        <time>2023-12-19T14:36:12Z</time>
      </trkpt>
      <trkpt lat="43.46649" lon="3.52196">
        <ele>86.400001525879</ele>
        <time>2023-12-19T14:36:13Z</time>
      </trkpt>
      <trkpt lat="43.46647" lon="3.52192">
        <ele>86.400001525879</ele>
        <time>2023-12-19T14:36:14Z</time>
      </trkpt>
      <trkpt lat="43.46645" lon="3.52188">
        <ele>86.400001525879</ele>
        <time>2023-12-19T14:36:15Z</time>
      </trkpt>
      <trkpt lat="43.46643" lon="3.52184">
        <ele>86.400001525879</ele>
        <time>2023-12-19T14:36:16Z</time>
      </trkpt>
      <trkpt lat="43.46641" lon="3.52181">
        <ele>86.400001525879</ele>
        <time>2023-12-19T14:36:17Z</time>
      </trkpt>
      <trkpt lat="43.46639" lon="3.52179">
        <ele>86.599998474121</ele>
        <time>2023-12-19T14:36:18Z</time>
      </trkpt>
      <trkpt lat="43.46637" lon="3.52177">
        <ele>86.599998474121</ele>
        <time>2023-12-19T14:36:19Z</time>
      </trkpt>
      <trkpt lat="43.46634" lon="3.52176">
        <ele>86.800003051758</ele>
        <time>2023-12-19T14:36:20Z</time>
      </trkpt>
      <trkpt lat="43.46631" lon="3.52173">
        <ele>87</ele>
        <time>2023-12-19T14:36:21Z</time>
      </trkpt>
      <trkpt lat="43.46628" lon="3.5217">
        <ele>87.199996948242</ele>
        <time>2023-12-19T14:36:22Z</time>
      </trkpt>
      <trkpt lat="43.46625" lon="3.52169">
        <ele>87.400001525879</ele>
        <time>2023-12-19T14:36:23Z</time>
      </trkpt>
      <trkpt lat="43.46622" lon="3.52168">
        <ele>87.599998474121</ele>
        <time>2023-12-19T14:36:24Z</time>
      </trkpt>
      <trkpt lat="43.46619" lon="3.52167">
        <ele>87.599998474121</ele>
        <time>2023-12-19T14:36:25Z</time>
      </trkpt>
      <trkpt lat="43.46616" lon="3.52164">
        <ele>87.800003051758</ele>
        <time>2023-12-19T14:36:26Z</time>
      </trkpt>
      <trkpt lat="43.46613" lon="3.52163">
        <ele>88</ele>
        <time>2023-12-19T14:36:27Z</time>
      </trkpt>
      <trkpt lat="43.46609" lon="3.52162">
        <ele>88.400001525879</ele>
        <time>2023-12-19T14:36:28Z</time>
      </trkpt>
      <trkpt lat="43.46606" lon="3.52159">
        <ele>88.599998474121</ele>
        <time>2023-12-19T14:36:29Z</time>
      </trkpt>
      <trkpt lat="43.46605" lon="3.52155">
        <ele>88.800003051758</ele>
        <time>2023-12-19T14:36:30Z</time>
      </trkpt>
      <trkpt lat="43.46604" lon="3.52151">
        <ele>89</ele>
        <time>2023-12-19T14:36:31Z</time>
      </trkpt>
      <trkpt lat="43.46604" lon="3.52148">
        <ele>89.400001525879</ele>
        <time>2023-12-19T14:36:32Z</time>
      </trkpt>
      <trkpt lat="43.46604" lon="3.52144">
        <ele>89.599998474121</ele>
        <time>2023-12-19T14:36:33Z</time>
      </trkpt>
      <trkpt lat="43.46604" lon="3.52141">
        <ele>89.599998474121</ele>
        <time>2023-12-19T14:36:34Z</time>
      </trkpt>
      <trkpt lat="43.46603" lon="3.52138">
        <ele>89.800003051758</ele>
        <time>2023-12-19T14:36:35Z</time>
      </trkpt>
      <trkpt lat="43.46603" lon="3.52135">
        <ele>90</ele>
        <time>2023-12-19T14:36:36Z</time>
      </trkpt>
      <trkpt lat="43.46603" lon="3.52132">
        <ele>90.199996948242</ele>
        <time>2023-12-19T14:36:37Z</time>
      </trkpt>
      <trkpt lat="43.46601" lon="3.52129">
        <ele>90.400001525879</ele>
        <time>2023-12-19T14:36:38Z</time>
      </trkpt>
      <trkpt lat="43.46599" lon="3.52127">
        <ele>90.400001525879</ele>
        <time>2023-12-19T14:36:39Z</time>
      </trkpt>
      <trkpt lat="43.46596" lon="3.52126">
        <ele>90.400001525879</ele>
        <time>2023-12-19T14:36:40Z</time>
      </trkpt>
      <trkpt lat="43.46593" lon="3.52126">
        <ele>90.400001525879</ele>
        <time>2023-12-19T14:36:41Z</time>
      </trkpt>
      <trkpt lat="43.46591" lon="3.52126">
        <ele>90.199996948242</ele>
        <time>2023-12-19T14:36:42Z</time>
      </trkpt>
      <trkpt lat="43.46589" lon="3.52126">
        <ele>89.599998474121</ele>
        <time>2023-12-19T14:36:43Z</time>
      </trkpt>
      <trkpt lat="43.46586" lon="3.52125">
        <ele>89.199996948242</ele>
        <time>2023-12-19T14:36:44Z</time>
      </trkpt>
      <trkpt lat="43.46584" lon="3.52122">
        <ele>88.599998474121</ele>
        <time>2023-12-19T14:36:45Z</time>
      </trkpt>
      <trkpt lat="43.46583" lon="3.52119">
        <ele>88.199996948242</ele>
        <time>2023-12-19T14:36:46Z</time>
      </trkpt>
      <trkpt lat="43.46582" lon="3.52116">
        <ele>87.599998474121</ele>
        <time>2023-12-19T14:36:47Z</time>
      </trkpt>
      <trkpt lat="43.46581" lon="3.52113">
        <ele>87.400001525879</ele>
        <time>2023-12-19T14:36:48Z</time>
      </trkpt>
      <trkpt lat="43.4658" lon="3.52111">
        <ele>87.199996948242</ele>
        <time>2023-12-19T14:36:49Z</time>
      </trkpt>
      <trkpt lat="43.46579" lon="3.52109">
        <ele>87.199996948242</ele>
        <time>2023-12-19T14:36:50Z</time>
      </trkpt>
      <trkpt lat="43.46577" lon="3.52108">
        <ele>87.199996948242</ele>
        <time>2023-12-19T14:36:51Z</time>
      </trkpt>
      <trkpt lat="43.46575" lon="3.52107">
        <ele>87.199996948242</ele>
        <time>2023-12-19T14:36:52Z</time>
      </trkpt>
      <trkpt lat="43.46572" lon="3.52104">
        <ele>87.400001525879</ele>
        <time>2023-12-19T14:36:53Z</time>
      </trkpt>
      <trkpt lat="43.46569" lon="3.52102">
        <ele>87.400001525879</ele>
        <time>2023-12-19T14:36:54Z</time>
      </trkpt>
      <trkpt lat="43.46565" lon="3.521">
        <ele>87.599998474121</ele>
        <time>2023-12-19T14:36:55Z</time>
      </trkpt>
      <trkpt lat="43.46562" lon="3.52099">
        <ele>87.800003051758</ele>
        <time>2023-12-19T14:36:56Z</time>
      </trkpt>
      <trkpt lat="43.46559" lon="3.52098">
        <ele>88</ele>
        <time>2023-12-19T14:36:57Z</time>
      </trkpt>
      <trkpt lat="43.46556" lon="3.52098">
        <ele>88.400001525879</ele>
        <time>2023-12-19T14:36:58Z</time>
      </trkpt>
      <trkpt lat="43.46554" lon="3.52097">
        <ele>89</ele>
        <time>2023-12-19T14:36:59Z</time>
      </trkpt>
      <trkpt lat="43.46551" lon="3.52096">
        <ele>89.400001525879</ele>
        <time>2023-12-19T14:37:00Z</time>
      </trkpt>
      <trkpt lat="43.46548" lon="3.52096">
        <ele>90</ele>
        <time>2023-12-19T14:37:01Z</time>
      </trkpt>
      <trkpt lat="43.46546" lon="3.52096">
        <ele>90.400001525879</ele>
        <time>2023-12-19T14:37:02Z</time>
      </trkpt>
      <trkpt lat="43.46543" lon="3.52095">
        <ele>90.599998474121</ele>
        <time>2023-12-19T14:37:03Z</time>
      </trkpt>
      <trkpt lat="43.46539" lon="3.52095">
        <ele>90.800003051758</ele>
        <time>2023-12-19T14:37:04Z</time>
      </trkpt>
      <trkpt lat="43.46537" lon="3.52096">
        <ele>90.800003051758</ele>
        <time>2023-12-19T14:37:05Z</time>
      </trkpt>
      <trkpt lat="43.46534" lon="3.52096">
        <ele>90.800003051758</ele>
        <time>2023-12-19T14:37:06Z</time>
      </trkpt>
      <trkpt lat="43.46531" lon="3.52096">
        <ele>91</ele>
        <time>2023-12-19T14:37:07Z</time>
      </trkpt>
      <trkpt lat="43.46529" lon="3.52097">
        <ele>91.199996948242</ele>
        <time>2023-12-19T14:37:08Z</time>
      </trkpt>
      <trkpt lat="43.46526" lon="3.52097">
        <ele>91.599998474121</ele>
        <time>2023-12-19T14:37:09Z</time>
      </trkpt>
      <trkpt lat="43.46525" lon="3.52097">
        <ele>92</ele>
        <time>2023-12-19T14:37:10Z</time>
      </trkpt>
      <trkpt lat="43.46522" lon="3.52097">
        <ele>92.199996948242</ele>
        <time>2023-12-19T14:37:11Z</time>
      </trkpt>
      <trkpt lat="43.4652" lon="3.52096">
        <ele>92.400001525879</ele>
        <time>2023-12-19T14:37:12Z</time>
      </trkpt>
      <trkpt lat="43.46518" lon="3.52096">
        <ele>92.400001525879</ele>
        <time>2023-12-19T14:37:13Z</time>
      </trkpt>
      <trkpt lat="43.46515" lon="3.52097">
        <ele>92.199996948242</ele>
        <time>2023-12-19T14:37:14Z</time>
      </trkpt>
      <trkpt lat="43.46514" lon="3.52097">
        <ele>92.199996948242</ele>
        <time>2023-12-19T14:37:15Z</time>
      </trkpt>
      <trkpt lat="43.46512" lon="3.52098">
        <ele>92.199996948242</ele>
        <time>2023-12-19T14:37:16Z</time>
      </trkpt>
      <trkpt lat="43.4651" lon="3.52097">
        <ele>92.199996948242</ele>
        <time>2023-12-19T14:37:17Z</time>
      </trkpt>
      <trkpt lat="43.46508" lon="3.52097">
        <ele>92.199996948242</ele>
        <time>2023-12-19T14:37:18Z</time>
      </trkpt>
      <trkpt lat="43.46506" lon="3.52097">
        <ele>92.199996948242</ele>
        <time>2023-12-19T14:37:19Z</time>
      </trkpt>
      <trkpt lat="43.46505" lon="3.52095">
        <ele>92.199996948242</ele>
        <time>2023-12-19T14:37:20Z</time>
      </trkpt>
      <trkpt lat="43.46503" lon="3.52095">
        <ele>92.199996948242</ele>
        <time>2023-12-19T14:37:21Z</time>
      </trkpt>
      <trkpt lat="43.46501" lon="3.52095">
        <ele>92.199996948242</ele>
        <time>2023-12-19T14:37:22Z</time>
      </trkpt>
      <trkpt lat="43.465" lon="3.52094">
        <ele>92.199996948242</ele>
        <time>2023-12-19T14:37:23Z</time>
      </trkpt>
      <trkpt lat="43.46498" lon="3.52095">
        <ele>92.199996948242</ele>
        <time>2023-12-19T14:37:24Z</time>
      </trkpt>
      <trkpt lat="43.46495" lon="3.52095">
        <ele>92.199996948242</ele>
        <time>2023-12-19T14:37:25Z</time>
      </trkpt>
      <trkpt lat="43.46492" lon="3.52094">
        <ele>92.199996948242</ele>
        <time>2023-12-19T14:37:26Z</time>
      </trkpt>
      <trkpt lat="43.46489" lon="3.52093">
        <ele>92.199996948242</ele>
        <time>2023-12-19T14:37:27Z</time>
      </trkpt>
      <trkpt lat="43.46487" lon="3.52092">
        <ele>92.199996948242</ele>
        <time>2023-12-19T14:37:28Z</time>
      </trkpt>
      <trkpt lat="43.46485" lon="3.5209">
        <ele>92.199996948242</ele>
        <time>2023-12-19T14:37:29Z</time>
      </trkpt>
      <trkpt lat="43.46483" lon="3.52088">
        <ele>92</ele>
        <time>2023-12-19T14:37:30Z</time>
      </trkpt>
      <trkpt lat="43.46481" lon="3.52086">
        <ele>91.800003051758</ele>
        <time>2023-12-19T14:37:31Z</time>
      </trkpt>
      <trkpt lat="43.46479" lon="3.52084">
        <ele>91.599998474121</ele>
        <time>2023-12-19T14:37:32Z</time>
      </trkpt>
      <trkpt lat="43.46476" lon="3.52082">
        <ele>91.400001525879</ele>
        <time>2023-12-19T14:37:33Z</time>
      </trkpt>
      <trkpt lat="43.46474" lon="3.52081">
        <ele>91.400001525879</ele>
        <time>2023-12-19T14:37:34Z</time>
      </trkpt>
      <trkpt lat="43.46471" lon="3.52079">
        <ele>91.199996948242</ele>
        <time>2023-12-19T14:37:35Z</time>
      </trkpt>
      <trkpt lat="43.46468" lon="3.52076">
        <ele>91</ele>
        <time>2023-12-19T14:37:36Z</time>
      </trkpt>
      <trkpt lat="43.46465" lon="3.52072">
        <ele>90.800003051758</ele>
        <time>2023-12-19T14:37:37Z</time>
      </trkpt>
      <trkpt lat="43.46463" lon="3.52067">
        <ele>90.800003051758</ele>
        <time>2023-12-19T14:37:38Z</time>
      </trkpt>
      <trkpt lat="43.46461" lon="3.52064">
        <ele>90.800003051758</ele>
        <time>2023-12-19T14:37:39Z</time>
      </trkpt>
      <trkpt lat="43.46458" lon="3.52061">
        <ele>90.599998474121</ele>
        <time>2023-12-19T14:37:40Z</time>
      </trkpt>
      <trkpt lat="43.46456" lon="3.52057">
        <ele>90.400001525879</ele>
        <time>2023-12-19T14:37:41Z</time>
      </trkpt>
      <trkpt lat="43.46455" lon="3.52053">
        <ele>90</ele>
        <time>2023-12-19T14:37:42Z</time>
      </trkpt>
      <trkpt lat="43.46455" lon="3.52049">
        <ele>89.800003051758</ele>
        <time>2023-12-19T14:37:43Z</time>
      </trkpt>
      <trkpt lat="43.46454" lon="3.52045">
        <ele>89.800003051758</ele>
        <time>2023-12-19T14:37:44Z</time>
      </trkpt>
      <trkpt lat="43.46453" lon="3.52039">
        <ele>89.599998474121</ele>
        <time>2023-12-19T14:37:45Z</time>
      </trkpt>
      <trkpt lat="43.46452" lon="3.52034">
        <ele>89.599998474121</ele>
        <time>2023-12-19T14:37:46Z</time>
      </trkpt>
      <trkpt lat="43.46451" lon="3.52029">
        <ele>89.400001525879</ele>
        <time>2023-12-19T14:37:47Z</time>
      </trkpt>
      <trkpt lat="43.46451" lon="3.52025">
        <ele>89.400001525879</ele>
        <time>2023-12-19T14:37:48Z</time>
      </trkpt>
      <trkpt lat="43.46451" lon="3.52021">
        <ele>89.199996948242</ele>
        <time>2023-12-19T14:37:49Z</time>
      </trkpt>
      <trkpt lat="43.46451" lon="3.52018">
        <ele>89</ele>
        <time>2023-12-19T14:37:50Z</time>
      </trkpt>
      <trkpt lat="43.4645" lon="3.52016">
        <ele>89</ele>
        <time>2023-12-19T14:37:51Z</time>
      </trkpt>
      <trkpt lat="43.4645" lon="3.52014">
        <ele>88.800003051758</ele>
        <time>2023-12-19T14:37:52Z</time>
      </trkpt>
      <trkpt lat="43.46449" lon="3.52014">
        <ele>88.599998474121</ele>
        <time>2023-12-19T14:37:53Z</time>
      </trkpt>
      <trkpt lat="43.46449" lon="3.52014">
        <ele>88.599998474121</ele>
        <time>2023-12-19T14:37:54Z</time>
      </trkpt>
      <trkpt lat="43.46454" lon="3.52011">
        <ele>88.800003051758</ele>
        <time>2023-12-19T14:38:08Z</time>
      </trkpt>
      <trkpt lat="43.46456" lon="3.52007">
        <ele>88.800003051758</ele>
        <time>2023-12-19T14:38:09Z</time>
      </trkpt>
      <trkpt lat="43.46455" lon="3.52003">
        <ele>89</ele>
        <time>2023-12-19T14:38:10Z</time>
      </trkpt>
      <trkpt lat="43.46455" lon="3.51999">
        <ele>89</ele>
        <time>2023-12-19T14:38:11Z</time>
      </trkpt>
      <trkpt lat="43.46455" lon="3.51994">
        <ele>89</ele>
        <time>2023-12-19T14:38:12Z</time>
      </trkpt>
      <trkpt lat="43.46456" lon="3.51989">
        <ele>89</ele>
        <time>2023-12-19T14:38:13Z</time>
      </trkpt>
      <trkpt lat="43.46456" lon="3.51983">
        <ele>89</ele>
        <time>2023-12-19T14:38:14Z</time>
      </trkpt>
      <trkpt lat="43.46454" lon="3.5198">
        <ele>89</ele>
        <time>2023-12-19T14:38:15Z</time>
      </trkpt>
      <trkpt lat="43.46451" lon="3.51979">
        <ele>88.800003051758</ele>
        <time>2023-12-19T14:38:16Z</time>
      </trkpt>
      <trkpt lat="43.46448" lon="3.51978">
        <ele>88.400001525879</ele>
        <time>2023-12-19T14:38:17Z</time>
      </trkpt>
      <trkpt lat="43.46446" lon="3.51976">
        <ele>88.199996948242</ele>
        <time>2023-12-19T14:38:18Z</time>
      </trkpt>
      <trkpt lat="43.46444" lon="3.51972">
        <ele>87.800003051758</ele>
        <time>2023-12-19T14:38:19Z</time>
      </trkpt>
      <trkpt lat="43.46443" lon="3.51968">
        <ele>87.400001525879</ele>
        <time>2023-12-19T14:38:20Z</time>
      </trkpt>
      <trkpt lat="43.46443" lon="3.51963">
        <ele>87.199996948242</ele>
        <time>2023-12-19T14:38:21Z</time>
      </trkpt>
      <trkpt lat="43.46441" lon="3.51958">
        <ele>87.199996948242</ele>
        <time>2023-12-19T14:38:22Z</time>
      </trkpt>
      <trkpt lat="43.46438" lon="3.51954">
        <ele>87</ele>
        <time>2023-12-19T14:38:23Z</time>
      </trkpt>
      <trkpt lat="43.46436" lon="3.51951">
        <ele>86.800003051758</ele>
        <time>2023-12-19T14:38:24Z</time>
      </trkpt>
      <trkpt lat="43.46434" lon="3.51947">
        <ele>86.400001525879</ele>
        <time>2023-12-19T14:38:25Z</time>
      </trkpt>
      <trkpt lat="43.46432" lon="3.51943">
        <ele>86.199996948242</ele>
        <time>2023-12-19T14:38:26Z</time>
      </trkpt>
      <trkpt lat="43.46429" lon="3.5194">
        <ele>85.800003051758</ele>
        <time>2023-12-19T14:38:27Z</time>
      </trkpt>
      <trkpt lat="43.46425" lon="3.51939">
        <ele>85.800003051758</ele>
        <time>2023-12-19T14:38:28Z</time>
      </trkpt>
      <trkpt lat="43.4642" lon="3.51939">
        <ele>85.800003051758</ele>
        <time>2023-12-19T14:38:29Z</time>
      </trkpt>
      <trkpt lat="43.46415" lon="3.51938">
        <ele>85.599998474121</ele>
        <time>2023-12-19T14:38:30Z</time>
      </trkpt>
      <trkpt lat="43.4641" lon="3.51939">
        <ele>85.599998474121</ele>
        <time>2023-12-19T14:38:31Z</time>
      </trkpt>
      <trkpt lat="43.46406" lon="3.51939">
        <ele>85.599998474121</ele>
        <time>2023-12-19T14:38:32Z</time>
      </trkpt>
      <trkpt lat="43.46401" lon="3.51938">
        <ele>85.400001525879</ele>
        <time>2023-12-19T14:38:33Z</time>
      </trkpt>
      <trkpt lat="43.46397" lon="3.51934">
        <ele>85.400001525879</ele>
        <time>2023-12-19T14:38:34Z</time>
      </trkpt>
      <trkpt lat="43.46394" lon="3.5193">
        <ele>85.400001525879</ele>
        <time>2023-12-19T14:38:35Z</time>
      </trkpt>
      <trkpt lat="43.4639" lon="3.51926">
        <ele>85.199996948242</ele>
        <time>2023-12-19T14:38:36Z</time>
      </trkpt>
      <trkpt lat="43.46387" lon="3.51923">
        <ele>85.199996948242</ele>
        <time>2023-12-19T14:38:37Z</time>
      </trkpt>
      <trkpt lat="43.46384" lon="3.5192">
        <ele>85.199996948242</ele>
        <time>2023-12-19T14:38:38Z</time>
      </trkpt>
      <trkpt lat="43.46381" lon="3.51918">
        <ele>85.199996948242</ele>
        <time>2023-12-19T14:38:39Z</time>
      </trkpt>
      <trkpt lat="43.46379" lon="3.51915">
        <ele>85.199996948242</ele>
        <time>2023-12-19T14:38:40Z</time>
      </trkpt>
      <trkpt lat="43.46376" lon="3.51912">
        <ele>85</ele>
        <time>2023-12-19T14:38:41Z</time>
      </trkpt>
      <trkpt lat="43.46374" lon="3.51909">
        <ele>85</ele>
        <time>2023-12-19T14:38:42Z</time>
      </trkpt>
      <trkpt lat="43.46371" lon="3.51905">
        <ele>85</ele>
        <time>2023-12-19T14:38:43Z</time>
      </trkpt>
      <trkpt lat="43.46368" lon="3.51902">
        <ele>85</ele>
        <time>2023-12-19T14:38:44Z</time>
      </trkpt>
      <trkpt lat="43.46366" lon="3.519">
        <ele>85</ele>
        <time>2023-12-19T14:38:45Z</time>
      </trkpt>
      <trkpt lat="43.46363" lon="3.51897">
        <ele>85</ele>
        <time>2023-12-19T14:38:46Z</time>
      </trkpt>
      <trkpt lat="43.4636" lon="3.51895">
        <ele>85</ele>
        <time>2023-12-19T14:38:47Z</time>
      </trkpt>
      <trkpt lat="43.46357" lon="3.51892">
        <ele>84.800003051758</ele>
        <time>2023-12-19T14:38:48Z</time>
      </trkpt>
      <trkpt lat="43.46354" lon="3.51889">
        <ele>84.800003051758</ele>
        <time>2023-12-19T14:38:49Z</time>
      </trkpt>
      <trkpt lat="43.46351" lon="3.51886">
        <ele>84.599998474121</ele>
        <time>2023-12-19T14:38:50Z</time>
      </trkpt>
      <trkpt lat="43.46348" lon="3.51883">
        <ele>84.400001525879</ele>
        <time>2023-12-19T14:38:51Z</time>
      </trkpt>
      <trkpt lat="43.46345" lon="3.5188">
        <ele>84.199996948242</ele>
        <time>2023-12-19T14:38:52Z</time>
      </trkpt>
      <trkpt lat="43.46343" lon="3.51876">
        <ele>84</ele>
        <time>2023-12-19T14:38:53Z</time>
      </trkpt>
      <trkpt lat="43.4634" lon="3.51872">
        <ele>83.800003051758</ele>
        <time>2023-12-19T14:38:54Z</time>
      </trkpt>
      <trkpt lat="43.46336" lon="3.51869">
        <ele>83.599998474121</ele>
        <time>2023-12-19T14:38:55Z</time>
      </trkpt>
      <trkpt lat="43.46334" lon="3.51866">
        <ele>83.400001525879</ele>
        <time>2023-12-19T14:38:56Z</time>
      </trkpt>
      <trkpt lat="43.46331" lon="3.51863">
        <ele>83.199996948242</ele>
        <time>2023-12-19T14:38:57Z</time>
      </trkpt>
      <trkpt lat="43.46328" lon="3.5186">
        <ele>82.800003051758</ele>
        <time>2023-12-19T14:38:58Z</time>
      </trkpt>
      <trkpt lat="43.46325" lon="3.51857">
        <ele>82.599998474121</ele>
        <time>2023-12-19T14:38:59Z</time>
      </trkpt>
      <trkpt lat="43.46323" lon="3.51854">
        <ele>82.599998474121</ele>
        <time>2023-12-19T14:39:00Z</time>
      </trkpt>
      <trkpt lat="43.4632" lon="3.5185">
        <ele>82.599998474121</ele>
        <time>2023-12-19T14:39:01Z</time>
      </trkpt>
      <trkpt lat="43.46318" lon="3.51846">
        <ele>82.599998474121</ele>
        <time>2023-12-19T14:39:02Z</time>
      </trkpt>
      <trkpt lat="43.46316" lon="3.51843">
        <ele>82.599998474121</ele>
        <time>2023-12-19T14:39:03Z</time>
      </trkpt>
      <trkpt lat="43.46314" lon="3.5184">
        <ele>82.599998474121</ele>
        <time>2023-12-19T14:39:04Z</time>
      </trkpt>
      <trkpt lat="43.46311" lon="3.51835">
        <ele>82.599998474121</ele>
        <time>2023-12-19T14:39:05Z</time>
      </trkpt>
      <trkpt lat="43.4631" lon="3.5183">
        <ele>82.599998474121</ele>
        <time>2023-12-19T14:39:06Z</time>
      </trkpt>
      <trkpt lat="43.46309" lon="3.51824">
        <ele>82.599998474121</ele>
        <time>2023-12-19T14:39:07Z</time>
      </trkpt>
      <trkpt lat="43.46307" lon="3.51818">
        <ele>82.599998474121</ele>
        <time>2023-12-19T14:39:08Z</time>
      </trkpt>
      <trkpt lat="43.46305" lon="3.51812">
        <ele>82.599998474121</ele>
        <time>2023-12-19T14:39:09Z</time>
      </trkpt>
      <trkpt lat="43.46301" lon="3.51808">
        <ele>82.199996948242</ele>
        <time>2023-12-19T14:39:10Z</time>
      </trkpt>
      <trkpt lat="43.46297" lon="3.51807">
        <ele>82</ele>
        <time>2023-12-19T14:39:11Z</time>
      </trkpt>
      <trkpt lat="43.46293" lon="3.51807">
        <ele>81.599998474121</ele>
        <time>2023-12-19T14:39:12Z</time>
      </trkpt>
      <trkpt lat="43.46289" lon="3.51809">
        <ele>81.199996948242</ele>
        <time>2023-12-19T14:39:13Z</time>
      </trkpt>
      <trkpt lat="43.46286" lon="3.51812">
        <ele>80.800003051758</ele>
        <time>2023-12-19T14:39:14Z</time>
      </trkpt>
      <trkpt lat="43.46283" lon="3.51815">
        <ele>80.599998474121</ele>
        <time>2023-12-19T14:39:15Z</time>
      </trkpt>
      <trkpt lat="43.46279" lon="3.51817">
        <ele>80.400001525879</ele>
        <time>2023-12-19T14:39:16Z</time>
      </trkpt>
      <trkpt lat="43.46274" lon="3.51818">
        <ele>80.199996948242</ele>
        <time>2023-12-19T14:39:17Z</time>
      </trkpt>
      <trkpt lat="43.46271" lon="3.51816">
        <ele>80</ele>
        <time>2023-12-19T14:39:18Z</time>
      </trkpt>
      <trkpt lat="43.46268" lon="3.51813">
        <ele>79.800003051758</ele>
        <time>2023-12-19T14:39:19Z</time>
      </trkpt>
      <trkpt lat="43.46265" lon="3.5181">
        <ele>79.800003051758</ele>
        <time>2023-12-19T14:39:20Z</time>
      </trkpt>
      <trkpt lat="43.46263" lon="3.51806">
        <ele>79.800003051758</ele>
        <time>2023-12-19T14:39:21Z</time>
      </trkpt>
      <trkpt lat="43.46262" lon="3.51802">
        <ele>79.800003051758</ele>
        <time>2023-12-19T14:39:22Z</time>
      </trkpt>
      <trkpt lat="43.4626" lon="3.51798">
        <ele>80</ele>
        <time>2023-12-19T14:39:23Z</time>
      </trkpt>
      <trkpt lat="43.46258" lon="3.51794">
        <ele>80</ele>
        <time>2023-12-19T14:39:24Z</time>
      </trkpt>
      <trkpt lat="43.46255" lon="3.51789">
        <ele>80.199996948242</ele>
        <time>2023-12-19T14:39:25Z</time>
      </trkpt>
      <trkpt lat="43.46252" lon="3.51786">
        <ele>80.199996948242</ele>
        <time>2023-12-19T14:39:26Z</time>
      </trkpt>
      <trkpt lat="43.46249" lon="3.51782">
        <ele>80.199996948242</ele>
        <time>2023-12-19T14:39:27Z</time>
      </trkpt>
      <trkpt lat="43.46245" lon="3.51779">
        <ele>80.199996948242</ele>
        <time>2023-12-19T14:39:28Z</time>
      </trkpt>
      <trkpt lat="43.46243" lon="3.51775">
        <ele>80.199996948242</ele>
        <time>2023-12-19T14:39:29Z</time>
      </trkpt>
      <trkpt lat="43.46241" lon="3.5177">
        <ele>79.800003051758</ele>
        <time>2023-12-19T14:39:30Z</time>
      </trkpt>
      <trkpt lat="43.46239" lon="3.51766">
        <ele>79.800003051758</ele>
        <time>2023-12-19T14:39:31Z</time>
      </trkpt>
      <trkpt lat="43.46235" lon="3.51763">
        <ele>79.599998474121</ele>
        <time>2023-12-19T14:39:32Z</time>
      </trkpt>
      <trkpt lat="43.46232" lon="3.51761">
        <ele>79.199996948242</ele>
        <time>2023-12-19T14:39:33Z</time>
      </trkpt>
      <trkpt lat="43.46228" lon="3.51758">
        <ele>79</ele>
        <time>2023-12-19T14:39:34Z</time>
      </trkpt>
      <trkpt lat="43.46224" lon="3.51755">
        <ele>78.800003051758</ele>
        <time>2023-12-19T14:39:35Z</time>
      </trkpt>
      <trkpt lat="43.46221" lon="3.51752">
        <ele>78.599998474121</ele>
        <time>2023-12-19T14:39:36Z</time>
      </trkpt>
      <trkpt lat="43.46218" lon="3.51748">
        <ele>78</ele>
        <time>2023-12-19T14:39:37Z</time>
      </trkpt>
      <trkpt lat="43.46215" lon="3.51744">
        <ele>77.599998474121</ele>
        <time>2023-12-19T14:39:38Z</time>
      </trkpt>
      <trkpt lat="43.46211" lon="3.51742">
        <ele>77.400001525879</ele>
        <time>2023-12-19T14:39:39Z</time>
      </trkpt>
      <trkpt lat="43.46207" lon="3.51739">
        <ele>77</ele>
        <time>2023-12-19T14:39:40Z</time>
      </trkpt>
      <trkpt lat="43.46202" lon="3.51736">
        <ele>76.400001525879</ele>
        <time>2023-12-19T14:39:41Z</time>
      </trkpt>
      <trkpt lat="43.46199" lon="3.51732">
        <ele>76</ele>
        <time>2023-12-19T14:39:42Z</time>
      </trkpt>
      <trkpt lat="43.46197" lon="3.51729">
        <ele>75.400001525879</ele>
        <time>2023-12-19T14:39:43Z</time>
      </trkpt>
      <trkpt lat="43.46194" lon="3.51727">
        <ele>75</ele>
        <time>2023-12-19T14:39:44Z</time>
      </trkpt>
      <trkpt lat="43.46192" lon="3.51724">
        <ele>74.599998474121</ele>
        <time>2023-12-19T14:39:45Z</time>
      </trkpt>
      <trkpt lat="43.46189" lon="3.51719">
        <ele>74.400001525879</ele>
        <time>2023-12-19T14:39:46Z</time>
      </trkpt>
      <trkpt lat="43.46186" lon="3.51715">
        <ele>74.199996948242</ele>
        <time>2023-12-19T14:39:47Z</time>
      </trkpt>
      <trkpt lat="43.46183" lon="3.51712">
        <ele>74.199996948242</ele>
        <time>2023-12-19T14:39:48Z</time>
      </trkpt>
      <trkpt lat="43.4618" lon="3.51709">
        <ele>74.199996948242</ele>
        <time>2023-12-19T14:39:49Z</time>
      </trkpt>
      <trkpt lat="43.46179" lon="3.51705">
        <ele>74.199996948242</ele>
        <time>2023-12-19T14:39:50Z</time>
      </trkpt>
      <trkpt lat="43.46177" lon="3.51701">
        <ele>74.400001525879</ele>
        <time>2023-12-19T14:39:51Z</time>
      </trkpt>
      <trkpt lat="43.46177" lon="3.51698">
        <ele>74.400001525879</ele>
        <time>2023-12-19T14:39:52Z</time>
      </trkpt>
      <trkpt lat="43.46176" lon="3.51695">
        <ele>74.599998474121</ele>
        <time>2023-12-19T14:39:53Z</time>
      </trkpt>
      <trkpt lat="43.46175" lon="3.51691">
        <ele>74.800003051758</ele>
        <time>2023-12-19T14:39:54Z</time>
      </trkpt>
      <trkpt lat="43.46174" lon="3.51687">
        <ele>75</ele>
        <time>2023-12-19T14:39:55Z</time>
      </trkpt>
      <trkpt lat="43.46174" lon="3.51681">
        <ele>75.199996948242</ele>
        <time>2023-12-19T14:39:56Z</time>
      </trkpt>
      <trkpt lat="43.46173" lon="3.51676">
        <ele>75.199996948242</ele>
        <time>2023-12-19T14:39:57Z</time>
      </trkpt>
      <trkpt lat="43.46173" lon="3.51669">
        <ele>75.199996948242</ele>
        <time>2023-12-19T14:39:58Z</time>
      </trkpt>
      <trkpt lat="43.46172" lon="3.51663">
        <ele>75.199996948242</ele>
        <time>2023-12-19T14:39:59Z</time>
      </trkpt>
      <trkpt lat="43.46171" lon="3.51657">
        <ele>75</ele>
        <time>2023-12-19T14:40:00Z</time>
      </trkpt>
      <trkpt lat="43.46171" lon="3.5165">
        <ele>74.800003051758</ele>
        <time>2023-12-19T14:40:01Z</time>
      </trkpt>
      <trkpt lat="43.4617" lon="3.51643">
        <ele>74.599998474121</ele>
        <time>2023-12-19T14:40:02Z</time>
      </trkpt>
      <trkpt lat="43.46169" lon="3.51636">
        <ele>74.400001525879</ele>
        <time>2023-12-19T14:40:03Z</time>
      </trkpt>
      <trkpt lat="43.46168" lon="3.51629">
        <ele>74.199996948242</ele>
        <time>2023-12-19T14:40:04Z</time>
      </trkpt>
      <trkpt lat="43.46167" lon="3.51625">
        <ele>74</ele>
        <time>2023-12-19T14:40:05Z</time>
      </trkpt>
      <trkpt lat="43.46166" lon="3.5162">
        <ele>73.599998474121</ele>
        <time>2023-12-19T14:40:06Z</time>
      </trkpt>
      <trkpt lat="43.46165" lon="3.51616">
        <ele>73.199996948242</ele>
        <time>2023-12-19T14:40:07Z</time>
      </trkpt>
      <trkpt lat="43.46165" lon="3.51611">
        <ele>73</ele>
        <time>2023-12-19T14:40:08Z</time>
      </trkpt>
      <trkpt lat="43.46165" lon="3.51606">
        <ele>72.599998474121</ele>
        <time>2023-12-19T14:40:09Z</time>
      </trkpt>
      <trkpt lat="43.46165" lon="3.51602">
        <ele>72.400001525879</ele>
        <time>2023-12-19T14:40:10Z</time>
      </trkpt>
      <trkpt lat="43.46164" lon="3.51599">
        <ele>72.199996948242</ele>
        <time>2023-12-19T14:40:11Z</time>
      </trkpt>
      <trkpt lat="43.46164" lon="3.51596">
        <ele>71.800003051758</ele>
        <time>2023-12-19T14:40:12Z</time>
      </trkpt>
      <trkpt lat="43.46164" lon="3.51594">
        <ele>71.400001525879</ele>
        <time>2023-12-19T14:40:13Z</time>
      </trkpt>
      <trkpt lat="43.46163" lon="3.51591">
        <ele>70.800003051758</ele>
        <time>2023-12-19T14:40:14Z</time>
      </trkpt>
      <trkpt lat="43.46162" lon="3.51587">
        <ele>70.599998474121</ele>
        <time>2023-12-19T14:40:15Z</time>
      </trkpt>
      <trkpt lat="43.4616" lon="3.51585">
        <ele>70.400001525879</ele>
        <time>2023-12-19T14:40:16Z</time>
      </trkpt>
      <trkpt lat="43.46157" lon="3.51582">
        <ele>70.199996948242</ele>
        <time>2023-12-19T14:40:17Z</time>
      </trkpt>
      <trkpt lat="43.46155" lon="3.51579">
        <ele>69.800003051758</ele>
        <time>2023-12-19T14:40:18Z</time>
      </trkpt>
      <trkpt lat="43.46153" lon="3.51575">
        <ele>69.599998474121</ele>
        <time>2023-12-19T14:40:19Z</time>
      </trkpt>
      <trkpt lat="43.46152" lon="3.5157">
        <ele>69.199996948242</ele>
        <time>2023-12-19T14:40:20Z</time>
      </trkpt>
      <trkpt lat="43.46151" lon="3.51566">
        <ele>68.800003051758</ele>
        <time>2023-12-19T14:40:21Z</time>
      </trkpt>
      <trkpt lat="43.4615" lon="3.51562">
        <ele>68.400001525879</ele>
        <time>2023-12-19T14:40:22Z</time>
      </trkpt>
      <trkpt lat="43.46148" lon="3.51559">
        <ele>68</ele>
        <time>2023-12-19T14:40:23Z</time>
      </trkpt>
      <trkpt lat="43.46147" lon="3.51556">
        <ele>67.800003051758</ele>
        <time>2023-12-19T14:40:24Z</time>
      </trkpt>
      <trkpt lat="43.46145" lon="3.51554">
        <ele>67.400001525879</ele>
        <time>2023-12-19T14:40:25Z</time>
      </trkpt>
      <trkpt lat="43.46143" lon="3.51552">
        <ele>67.199996948242</ele>
        <time>2023-12-19T14:40:26Z</time>
      </trkpt>
      <trkpt lat="43.46141" lon="3.5155">
        <ele>67</ele>
        <time>2023-12-19T14:40:27Z</time>
      </trkpt>
      <trkpt lat="43.46139" lon="3.51549">
        <ele>66.599998474121</ele>
        <time>2023-12-19T14:40:28Z</time>
      </trkpt>
      <trkpt lat="43.46138" lon="3.51549">
        <ele>66.400001525879</ele>
        <time>2023-12-19T14:40:29Z</time>
      </trkpt>
      <trkpt lat="43.46136" lon="3.51548">
        <ele>66.199996948242</ele>
        <time>2023-12-19T14:40:30Z</time>
      </trkpt>
      <trkpt lat="43.46133" lon="3.51547">
        <ele>66</ele>
        <time>2023-12-19T14:40:31Z</time>
      </trkpt>
      <trkpt lat="43.4613" lon="3.51546">
        <ele>65.800003051758</ele>
        <time>2023-12-19T14:40:32Z</time>
      </trkpt>
      <trkpt lat="43.46126" lon="3.51544">
        <ele>65.400001525879</ele>
        <time>2023-12-19T14:40:33Z</time>
      </trkpt>
      <trkpt lat="43.46122" lon="3.51543">
        <ele>64.800003051758</ele>
        <time>2023-12-19T14:40:34Z</time>
      </trkpt>
      <trkpt lat="43.46118" lon="3.51541">
        <ele>64.199996948242</ele>
        <time>2023-12-19T14:40:35Z</time>
      </trkpt>
      <trkpt lat="43.46115" lon="3.5154">
        <ele>63.400001525879</ele>
        <time>2023-12-19T14:40:36Z</time>
      </trkpt>
      <trkpt lat="43.46112" lon="3.5154">
        <ele>62.799999237061</ele>
        <time>2023-12-19T14:40:37Z</time>
      </trkpt>
      <trkpt lat="43.4611" lon="3.51542">
        <ele>62.400001525879</ele>
        <time>2023-12-19T14:40:38Z</time>
      </trkpt>
      <trkpt lat="43.46108" lon="3.51544">
        <ele>62</ele>
        <time>2023-12-19T14:40:39Z</time>
      </trkpt>
      <trkpt lat="43.46105" lon="3.51546">
        <ele>61.599998474121</ele>
        <time>2023-12-19T14:40:40Z</time>
      </trkpt>
      <trkpt lat="43.46103" lon="3.51547">
        <ele>61.400001525879</ele>
        <time>2023-12-19T14:40:41Z</time>
      </trkpt>
      <trkpt lat="43.461" lon="3.51547">
        <ele>61.200000762939</ele>
        <time>2023-12-19T14:40:42Z</time>
      </trkpt>
      <trkpt lat="43.46099" lon="3.51547">
        <ele>61</ele>
        <time>2023-12-19T14:40:43Z</time>
      </trkpt>
      <trkpt lat="43.46097" lon="3.51547">
        <ele>61</ele>
        <time>2023-12-19T14:40:44Z</time>
      </trkpt>
      <trkpt lat="43.46095" lon="3.51547">
        <ele>61</ele>
        <time>2023-12-19T14:40:45Z</time>
      </trkpt>
      <trkpt lat="43.46094" lon="3.51547">
        <ele>60.599998474121</ele>
        <time>2023-12-19T14:40:46Z</time>
      </trkpt>
      <trkpt lat="43.46094" lon="3.51548">
        <ele>60.400001525879</ele>
        <time>2023-12-19T14:40:47Z</time>
      </trkpt>
      <trkpt lat="43.46094" lon="3.51548">
        <ele>60</ele>
        <time>2023-12-19T14:40:48Z</time>
      </trkpt>
      <trkpt lat="43.46091" lon="3.51548">
        <ele>59.200000762939</ele>
        <time>2023-12-19T14:41:02Z</time>
      </trkpt>
      <trkpt lat="43.46088" lon="3.51549">
        <ele>59.200000762939</ele>
        <time>2023-12-19T14:41:03Z</time>
      </trkpt>
      <trkpt lat="43.46086" lon="3.51551">
        <ele>59.200000762939</ele>
        <time>2023-12-19T14:41:04Z</time>
      </trkpt>
      <trkpt lat="43.46084" lon="3.51555">
        <ele>59</ele>
        <time>2023-12-19T14:41:05Z</time>
      </trkpt>
      <trkpt lat="43.46081" lon="3.51559">
        <ele>58.799999237061</ele>
        <time>2023-12-19T14:41:06Z</time>
      </trkpt>
      <trkpt lat="43.46078" lon="3.51563">
        <ele>58.599998474121</ele>
        <time>2023-12-19T14:41:07Z</time>
      </trkpt>
      <trkpt lat="43.46074" lon="3.51566">
        <ele>58.200000762939</ele>
        <time>2023-12-19T14:41:08Z</time>
      </trkpt>
      <trkpt lat="43.4607" lon="3.51568">
        <ele>57.799999237061</ele>
        <time>2023-12-19T14:41:09Z</time>
      </trkpt>
      <trkpt lat="43.46065" lon="3.51572">
        <ele>57.599998474121</ele>
        <time>2023-12-19T14:41:10Z</time>
      </trkpt>
      <trkpt lat="43.46061" lon="3.51572">
        <ele>57.400001525879</ele>
        <time>2023-12-19T14:41:11Z</time>
      </trkpt>
      <trkpt lat="43.4606" lon="3.5157">
        <ele>57.200000762939</ele>
        <time>2023-12-19T14:41:12Z</time>
      </trkpt>
      <trkpt lat="43.46058" lon="3.51567">
        <ele>57</ele>
        <time>2023-12-19T14:41:13Z</time>
      </trkpt>
      <trkpt lat="43.46057" lon="3.51562">
        <ele>56.799999237061</ele>
        <time>2023-12-19T14:41:14Z</time>
      </trkpt>
      <trkpt lat="43.46054" lon="3.51559">
        <ele>56.599998474121</ele>
        <time>2023-12-19T14:41:15Z</time>
      </trkpt>
      <trkpt lat="43.46051" lon="3.51556">
        <ele>56.599998474121</ele>
        <time>2023-12-19T14:41:16Z</time>
      </trkpt>
      <trkpt lat="43.46049" lon="3.51552">
        <ele>56.400001525879</ele>
        <time>2023-12-19T14:41:17Z</time>
      </trkpt>
      <trkpt lat="43.46047" lon="3.51547">
        <ele>56.200000762939</ele>
        <time>2023-12-19T14:41:18Z</time>
      </trkpt>
      <trkpt lat="43.46045" lon="3.51543">
        <ele>55.799999237061</ele>
        <time>2023-12-19T14:41:19Z</time>
      </trkpt>
      <trkpt lat="43.46042" lon="3.51537">
        <ele>55.400001525879</ele>
        <time>2023-12-19T14:41:20Z</time>
      </trkpt>
      <trkpt lat="43.4604" lon="3.51532">
        <ele>55.200000762939</ele>
        <time>2023-12-19T14:41:21Z</time>
      </trkpt>
      <trkpt lat="43.46037" lon="3.51527">
        <ele>54.799999237061</ele>
        <time>2023-12-19T14:41:22Z</time>
      </trkpt>
      <trkpt lat="43.46036" lon="3.51523">
        <ele>54.400001525879</ele>
        <time>2023-12-19T14:41:23Z</time>
      </trkpt>
      <trkpt lat="43.46034" lon="3.51518">
        <ele>54.200000762939</ele>
        <time>2023-12-19T14:41:24Z</time>
      </trkpt>
      <trkpt lat="43.46031" lon="3.51514">
        <ele>54.200000762939</ele>
        <time>2023-12-19T14:41:25Z</time>
      </trkpt>
      <trkpt lat="43.46028" lon="3.51511">
        <ele>54</ele>
        <time>2023-12-19T14:41:26Z</time>
      </trkpt>
      <trkpt lat="43.46026" lon="3.51507">
        <ele>54</ele>
        <time>2023-12-19T14:41:27Z</time>
      </trkpt>
      <trkpt lat="43.46023" lon="3.51503">
        <ele>53.799999237061</ele>
        <time>2023-12-19T14:41:28Z</time>
      </trkpt>
      <trkpt lat="43.46021" lon="3.51499">
        <ele>53.400001525879</ele>
        <time>2023-12-19T14:41:29Z</time>
      </trkpt>
      <trkpt lat="43.46018" lon="3.51495">
        <ele>53.400001525879</ele>
        <time>2023-12-19T14:41:30Z</time>
      </trkpt>
      <trkpt lat="43.46015" lon="3.5149">
        <ele>53.200000762939</ele>
        <time>2023-12-19T14:41:31Z</time>
      </trkpt>
      <trkpt lat="43.46013" lon="3.51487">
        <ele>53</ele>
        <time>2023-12-19T14:41:32Z</time>
      </trkpt>
      <trkpt lat="43.46012" lon="3.51484">
        <ele>52.799999237061</ele>
        <time>2023-12-19T14:41:33Z</time>
      </trkpt>
      <trkpt lat="43.46011" lon="3.5148">
        <ele>52.799999237061</ele>
        <time>2023-12-19T14:41:34Z</time>
      </trkpt>
      <trkpt lat="43.4601" lon="3.51476">
        <ele>52.599998474121</ele>
        <time>2023-12-19T14:41:35Z</time>
      </trkpt>
      <trkpt lat="43.46009" lon="3.51472">
        <ele>52.599998474121</ele>
        <time>2023-12-19T14:41:36Z</time>
      </trkpt>
      <trkpt lat="43.46008" lon="3.51468">
        <ele>52.400001525879</ele>
        <time>2023-12-19T14:41:37Z</time>
      </trkpt>
      <trkpt lat="43.46006" lon="3.51463">
        <ele>52.400001525879</ele>
        <time>2023-12-19T14:41:38Z</time>
      </trkpt>
      <trkpt lat="43.46005" lon="3.51459">
        <ele>52</ele>
        <time>2023-12-19T14:41:39Z</time>
      </trkpt>
      <trkpt lat="43.46003" lon="3.51455">
        <ele>51.400001525879</ele>
        <time>2023-12-19T14:41:40Z</time>
      </trkpt>
      <trkpt lat="43.46002" lon="3.51451">
        <ele>50.799999237061</ele>
        <time>2023-12-19T14:41:41Z</time>
      </trkpt>
      <trkpt lat="43.46001" lon="3.51447">
        <ele>50.400001525879</ele>
        <time>2023-12-19T14:41:42Z</time>
      </trkpt>
      <trkpt lat="43.46" lon="3.51445">
        <ele>50</ele>
        <time>2023-12-19T14:41:43Z</time>
      </trkpt>
      <trkpt lat="43.45999" lon="3.51442">
        <ele>49.799999237061</ele>
        <time>2023-12-19T14:41:44Z</time>
      </trkpt>
      <trkpt lat="43.45999" lon="3.51441">
        <ele>49.400001525879</ele>
        <time>2023-12-19T14:41:45Z</time>
      </trkpt>
      <trkpt lat="43.45999" lon="3.51439">
        <ele>49</ele>
        <time>2023-12-19T14:41:46Z</time>
      </trkpt>
      <trkpt lat="43.45999" lon="3.51437">
        <ele>48.799999237061</ele>
        <time>2023-12-19T14:41:47Z</time>
      </trkpt>
      <trkpt lat="43.45999" lon="3.51435">
        <ele>48.599998474121</ele>
        <time>2023-12-19T14:41:48Z</time>
      </trkpt>
      <trkpt lat="43.45998" lon="3.51434">
        <ele>48.400001525879</ele>
        <time>2023-12-19T14:41:49Z</time>
      </trkpt>
      <trkpt lat="43.45998" lon="3.51432">
        <ele>48.200000762939</ele>
        <time>2023-12-19T14:41:50Z</time>
      </trkpt>
      <trkpt lat="43.45998" lon="3.5143">
        <ele>47.799999237061</ele>
        <time>2023-12-19T14:41:51Z</time>
      </trkpt>
      <trkpt lat="43.45998" lon="3.51427">
        <ele>47.599998474121</ele>
        <time>2023-12-19T14:41:52Z</time>
      </trkpt>
      <trkpt lat="43.45999" lon="3.51425">
        <ele>47.400001525879</ele>
        <time>2023-12-19T14:41:53Z</time>
      </trkpt>
      <trkpt lat="43.46" lon="3.51423">
        <ele>47</ele>
        <time>2023-12-19T14:41:54Z</time>
      </trkpt>
      <trkpt lat="43.46001" lon="3.51421">
        <ele>46.799999237061</ele>
        <time>2023-12-19T14:41:55Z</time>
      </trkpt>
      <trkpt lat="43.46001" lon="3.51419">
        <ele>46.200000762939</ele>
        <time>2023-12-19T14:41:56Z</time>
      </trkpt>
      <trkpt lat="43.46" lon="3.51417">
        <ele>45.799999237061</ele>
        <time>2023-12-19T14:41:57Z</time>
      </trkpt>
      <trkpt lat="43.45999" lon="3.51416">
        <ele>45.599998474121</ele>
        <time>2023-12-19T14:41:58Z</time>
      </trkpt>
      <trkpt lat="43.45998" lon="3.51416">
        <ele>45.200000762939</ele>
        <time>2023-12-19T14:41:59Z</time>
      </trkpt>
      <trkpt lat="43.45998" lon="3.51416">
        <ele>45</ele>
        <time>2023-12-19T14:42:00Z</time>
      </trkpt>
      <trkpt lat="43.45994" lon="3.51411">
        <ele>43.400001525879</ele>
        <time>2023-12-19T14:42:13Z</time>
      </trkpt>
      <trkpt lat="43.45994" lon="3.51409">
        <ele>43.400001525879</ele>
        <time>2023-12-19T14:42:14Z</time>
      </trkpt>
      <trkpt lat="43.45993" lon="3.51406">
        <ele>43.599998474121</ele>
        <time>2023-12-19T14:42:15Z</time>
      </trkpt>
      <trkpt lat="43.45993" lon="3.51405">
        <ele>43.599998474121</ele>
        <time>2023-12-19T14:42:16Z</time>
      </trkpt>
      <trkpt lat="43.45991" lon="3.51404">
        <ele>43.599998474121</ele>
        <time>2023-12-19T14:42:17Z</time>
      </trkpt>
      <trkpt lat="43.45989" lon="3.51403">
        <ele>44</ele>
        <time>2023-12-19T14:42:18Z</time>
      </trkpt>
      <trkpt lat="43.45988" lon="3.51403">
        <ele>44.200000762939</ele>
        <time>2023-12-19T14:42:19Z</time>
      </trkpt>
      <trkpt lat="43.45987" lon="3.51405">
        <ele>44.400001525879</ele>
        <time>2023-12-19T14:42:20Z</time>
      </trkpt>
      <trkpt lat="43.45985" lon="3.51405">
        <ele>44.599998474121</ele>
        <time>2023-12-19T14:42:21Z</time>
      </trkpt>
      <trkpt lat="43.45984" lon="3.51405">
        <ele>44.599998474121</ele>
        <time>2023-12-19T14:42:22Z</time>
      </trkpt>
      <trkpt lat="43.45983" lon="3.51404">
        <ele>44.799999237061</ele>
        <time>2023-12-19T14:42:23Z</time>
      </trkpt>
      <trkpt lat="43.45981" lon="3.51404">
        <ele>44.799999237061</ele>
        <time>2023-12-19T14:42:24Z</time>
      </trkpt>
      <trkpt lat="43.4598" lon="3.51404">
        <ele>44.799999237061</ele>
        <time>2023-12-19T14:42:25Z</time>
      </trkpt>
      <trkpt lat="43.45978" lon="3.51404">
        <ele>44.799999237061</ele>
        <time>2023-12-19T14:42:26Z</time>
      </trkpt>
      <trkpt lat="43.45976" lon="3.51405">
        <ele>44.799999237061</ele>
        <time>2023-12-19T14:42:27Z</time>
      </trkpt>
      <trkpt lat="43.45974" lon="3.51406">
        <ele>44.799999237061</ele>
        <time>2023-12-19T14:42:28Z</time>
      </trkpt>
      <trkpt lat="43.45973" lon="3.51406">
        <ele>44.799999237061</ele>
        <time>2023-12-19T14:42:29Z</time>
      </trkpt>
      <trkpt lat="43.45971" lon="3.51406">
        <ele>44.799999237061</ele>
        <time>2023-12-19T14:42:30Z</time>
      </trkpt>
      <trkpt lat="43.45971" lon="3.51406">
        <ele>44.799999237061</ele>
        <time>2023-12-19T14:42:31Z</time>
      </trkpt>
      <trkpt lat="43.45969" lon="3.51406">
        <ele>44.599998474121</ele>
        <time>2023-12-19T14:42:32Z</time>
      </trkpt>
      <trkpt lat="43.45967" lon="3.51405">
        <ele>44.599998474121</ele>
        <time>2023-12-19T14:42:33Z</time>
      </trkpt>
      <trkpt lat="43.45964" lon="3.51404">
        <ele>44.599998474121</ele>
        <time>2023-12-19T14:42:34Z</time>
      </trkpt>
      <trkpt lat="43.45962" lon="3.51403">
        <ele>44.599998474121</ele>
        <time>2023-12-19T14:42:35Z</time>
      </trkpt>
      <trkpt lat="43.4596" lon="3.51403">
        <ele>44.599998474121</ele>
        <time>2023-12-19T14:42:36Z</time>
      </trkpt>
      <trkpt lat="43.45959" lon="3.51404">
        <ele>44.599998474121</ele>
        <time>2023-12-19T14:42:37Z</time>
      </trkpt>
      <trkpt lat="43.45952" lon="3.514">
        <ele>44.200000762939</ele>
        <time>2023-12-19T14:43:03Z</time>
      </trkpt>
      <trkpt lat="43.45949" lon="3.51398">
        <ele>44.200000762939</ele>
        <time>2023-12-19T14:43:04Z</time>
      </trkpt>
      <trkpt lat="43.45948" lon="3.51395">
        <ele>44.200000762939</ele>
        <time>2023-12-19T14:43:05Z</time>
      </trkpt>
      <trkpt lat="43.45948" lon="3.51391">
        <ele>44</ele>
        <time>2023-12-19T14:43:06Z</time>
      </trkpt>
      <trkpt lat="43.45949" lon="3.51387">
        <ele>44</ele>
        <time>2023-12-19T14:43:07Z</time>
      </trkpt>
      <trkpt lat="43.45948" lon="3.51383">
        <ele>44</ele>
        <time>2023-12-19T14:43:08Z</time>
      </trkpt>
      <trkpt lat="43.45947" lon="3.51381">
        <ele>44.200000762939</ele>
        <time>2023-12-19T14:43:09Z</time>
      </trkpt>
      <trkpt lat="43.45946" lon="3.5138">
        <ele>44.200000762939</ele>
        <time>2023-12-19T14:43:10Z</time>
      </trkpt>
      <trkpt lat="43.45946" lon="3.5138">
        <ele>44.599998474121</ele>
        <time>2023-12-19T14:43:11Z</time>
      </trkpt>
      <trkpt lat="43.45946" lon="3.51379">
        <ele>45.400001525879</ele>
        <time>2023-12-19T14:43:12Z</time>
      </trkpt>
      <trkpt lat="43.45941" lon="3.51372">
        <ele>47.599998474121</ele>
        <time>2023-12-19T14:43:33Z</time>
      </trkpt>
      <trkpt lat="43.45939" lon="3.5137">
        <ele>47.599998474121</ele>
        <time>2023-12-19T14:43:34Z</time>
      </trkpt>
      <trkpt lat="43.45938" lon="3.51367">
        <ele>47.599998474121</ele>
        <time>2023-12-19T14:43:35Z</time>
      </trkpt>
      <trkpt lat="43.45936" lon="3.51365">
        <ele>47.599998474121</ele>
        <time>2023-12-19T14:43:36Z</time>
      </trkpt>
      <trkpt lat="43.45935" lon="3.51363">
        <ele>47.799999237061</ele>
        <time>2023-12-19T14:43:37Z</time>
      </trkpt>
      <trkpt lat="43.45935" lon="3.51359">
        <ele>48.200000762939</ele>
        <time>2023-12-19T14:43:38Z</time>
      </trkpt>
      <trkpt lat="43.45934" lon="3.51356">
        <ele>48.599998474121</ele>
        <time>2023-12-19T14:43:39Z</time>
      </trkpt>
      <trkpt lat="43.45935" lon="3.51353">
        <ele>49</ele>
        <time>2023-12-19T14:43:40Z</time>
      </trkpt>
      <trkpt lat="43.45937" lon="3.5135">
        <ele>49.400001525879</ele>
        <time>2023-12-19T14:43:41Z</time>
      </trkpt>
      <trkpt lat="43.45939" lon="3.51348">
        <ele>50</ele>
        <time>2023-12-19T14:43:42Z</time>
      </trkpt>
      <trkpt lat="43.45942" lon="3.51348">
        <ele>50.200000762939</ele>
        <time>2023-12-19T14:43:43Z</time>
      </trkpt>
      <trkpt lat="43.45945" lon="3.51346">
        <ele>50.599998474121</ele>
        <time>2023-12-19T14:43:44Z</time>
      </trkpt>
      <trkpt lat="43.45948" lon="3.51343">
        <ele>50.799999237061</ele>
        <time>2023-12-19T14:43:45Z</time>
      </trkpt>
      <trkpt lat="43.4595" lon="3.51341">
        <ele>51.200000762939</ele>
        <time>2023-12-19T14:43:46Z</time>
      </trkpt>
      <trkpt lat="43.45952" lon="3.5134">
        <ele>51.400001525879</ele>
        <time>2023-12-19T14:43:47Z</time>
      </trkpt>
      <trkpt lat="43.45954" lon="3.5134">
        <ele>51.599998474121</ele>
        <time>2023-12-19T14:43:48Z</time>
      </trkpt>
      <trkpt lat="43.45955" lon="3.51338">
        <ele>52.200000762939</ele>
        <time>2023-12-19T14:43:49Z</time>
      </trkpt>
      <trkpt lat="43.45956" lon="3.51336">
        <ele>52.799999237061</ele>
        <time>2023-12-19T14:43:50Z</time>
      </trkpt>
      <trkpt lat="43.45956" lon="3.51334">
        <ele>53.200000762939</ele>
        <time>2023-12-19T14:43:51Z</time>
      </trkpt>
      <trkpt lat="43.45956" lon="3.51332">
        <ele>53.599998474121</ele>
        <time>2023-12-19T14:43:52Z</time>
      </trkpt>
      <trkpt lat="43.45955" lon="3.51332">
        <ele>53.799999237061</ele>
        <time>2023-12-19T14:43:53Z</time>
      </trkpt>
      <trkpt lat="43.45955" lon="3.51331">
        <ele>54.200000762939</ele>
        <time>2023-12-19T14:43:54Z</time>
      </trkpt>
      <trkpt lat="43.45955" lon="3.5133">
        <ele>54.200000762939</ele>
        <time>2023-12-19T14:43:55Z</time>
      </trkpt>
      <trkpt lat="43.45947" lon="3.51328">
        <ele>53.799999237061</ele>
        <time>2023-12-19T14:48:33Z</time>
      </trkpt>
      <trkpt lat="43.45946" lon="3.51328">
        <ele>53.799999237061</ele>
        <time>2023-12-19T14:48:34Z</time>
      </trkpt>
      <trkpt lat="43.45946" lon="3.51328">
        <ele>53.799999237061</ele>
        <time>2023-12-19T14:48:35Z</time>
      </trkpt>
      <trkpt lat="43.45946" lon="3.51328">
        <ele>53.799999237061</ele>
        <time>2023-12-19T14:48:36Z</time>
      </trkpt>
      <trkpt lat="43.45943" lon="3.51326">
        <ele>54</ele>
        <time>2023-12-19T14:49:27Z</time>
      </trkpt>
      <trkpt lat="43.45941" lon="3.51324">
        <ele>54</ele>
        <time>2023-12-19T14:49:28Z</time>
      </trkpt>
      <trkpt lat="43.4594" lon="3.51322">
        <ele>54</ele>
        <time>2023-12-19T14:49:29Z</time>
      </trkpt>
      <trkpt lat="43.45938" lon="3.51321">
        <ele>54</ele>
        <time>2023-12-19T14:49:30Z</time>
      </trkpt>
      <trkpt lat="43.45937" lon="3.5132">
        <ele>54</ele>
        <time>2023-12-19T14:49:31Z</time>
      </trkpt>
      <trkpt lat="43.45935" lon="3.51318">
        <ele>54</ele>
        <time>2023-12-19T14:49:32Z</time>
      </trkpt>
      <trkpt lat="43.45933" lon="3.51317">
        <ele>54</ele>
        <time>2023-12-19T14:49:33Z</time>
      </trkpt>
      <trkpt lat="43.45931" lon="3.51315">
        <ele>54.200000762939</ele>
        <time>2023-12-19T14:49:34Z</time>
      </trkpt>
      <trkpt lat="43.45928" lon="3.51314">
        <ele>54.400001525879</ele>
        <time>2023-12-19T14:49:35Z</time>
      </trkpt>
      <trkpt lat="43.45926" lon="3.51313">
        <ele>54.400001525879</ele>
        <time>2023-12-19T14:49:36Z</time>
      </trkpt>
      <trkpt lat="43.45924" lon="3.51312">
        <ele>54.400001525879</ele>
        <time>2023-12-19T14:49:37Z</time>
      </trkpt>
      <trkpt lat="43.45921" lon="3.51311">
        <ele>54.400001525879</ele>
        <time>2023-12-19T14:49:38Z</time>
      </trkpt>
      <trkpt lat="43.45919" lon="3.51309">
        <ele>54.400001525879</ele>
        <time>2023-12-19T14:49:39Z</time>
      </trkpt>
      <trkpt lat="43.45917" lon="3.51309">
        <ele>54.400001525879</ele>
        <time>2023-12-19T14:49:40Z</time>
      </trkpt>
      <trkpt lat="43.45914" lon="3.51308">
        <ele>54.599998474121</ele>
        <time>2023-12-19T14:49:41Z</time>
      </trkpt>
      <trkpt lat="43.4591" lon="3.51307">
        <ele>54.599998474121</ele>
        <time>2023-12-19T14:49:42Z</time>
      </trkpt>
      <trkpt lat="43.45907" lon="3.51306">
        <ele>54.599998474121</ele>
        <time>2023-12-19T14:49:43Z</time>
      </trkpt>
      <trkpt lat="43.45904" lon="3.51305">
        <ele>54.599998474121</ele>
        <time>2023-12-19T14:49:44Z</time>
      </trkpt>
      <trkpt lat="43.45901" lon="3.51304">
        <ele>54.599998474121</ele>
        <time>2023-12-19T14:49:45Z</time>
      </trkpt>
      <trkpt lat="43.45898" lon="3.51303">
        <ele>54.599998474121</ele>
        <time>2023-12-19T14:49:46Z</time>
      </trkpt>
      <trkpt lat="43.45895" lon="3.51303">
        <ele>54.599998474121</ele>
        <time>2023-12-19T14:49:47Z</time>
      </trkpt>
      <trkpt lat="43.45891" lon="3.51302">
        <ele>54.599998474121</ele>
        <time>2023-12-19T14:49:48Z</time>
      </trkpt>
      <trkpt lat="43.45888" lon="3.513">
        <ele>54.599998474121</ele>
        <time>2023-12-19T14:49:49Z</time>
      </trkpt>
      <trkpt lat="43.45885" lon="3.51298">
        <ele>54.599998474121</ele>
        <time>2023-12-19T14:49:50Z</time>
      </trkpt>
      <trkpt lat="43.45882" lon="3.51297">
        <ele>54.799999237061</ele>
        <time>2023-12-19T14:49:51Z</time>
      </trkpt>
      <trkpt lat="43.45879" lon="3.51295">
        <ele>54.799999237061</ele>
        <time>2023-12-19T14:49:52Z</time>
      </trkpt>
      <trkpt lat="43.45876" lon="3.51292">
        <ele>54.799999237061</ele>
        <time>2023-12-19T14:49:53Z</time>
      </trkpt>
      <trkpt lat="43.45872" lon="3.51289">
        <ele>55</ele>
        <time>2023-12-19T14:49:54Z</time>
      </trkpt>
      <trkpt lat="43.45869" lon="3.51287">
        <ele>55</ele>
        <time>2023-12-19T14:49:55Z</time>
      </trkpt>
      <trkpt lat="43.45866" lon="3.51285">
        <ele>55.200000762939</ele>
        <time>2023-12-19T14:49:56Z</time>
      </trkpt>
      <trkpt lat="43.45863" lon="3.51283">
        <ele>55.200000762939</ele>
        <time>2023-12-19T14:49:57Z</time>
      </trkpt>
      <trkpt lat="43.45859" lon="3.51281">
        <ele>55.400001525879</ele>
        <time>2023-12-19T14:49:58Z</time>
      </trkpt>
      <trkpt lat="43.45856" lon="3.5128">
        <ele>55.599998474121</ele>
        <time>2023-12-19T14:49:59Z</time>
      </trkpt>
      <trkpt lat="43.45852" lon="3.51279">
        <ele>56</ele>
        <time>2023-12-19T14:50:00Z</time>
      </trkpt>
      <trkpt lat="43.45849" lon="3.51277">
        <ele>56.200000762939</ele>
        <time>2023-12-19T14:50:01Z</time>
      </trkpt>
      <trkpt lat="43.45845" lon="3.51275">
        <ele>56.200000762939</ele>
        <time>2023-12-19T14:50:02Z</time>
      </trkpt>
      <trkpt lat="43.45841" lon="3.51275">
        <ele>56.200000762939</ele>
        <time>2023-12-19T14:50:03Z</time>
      </trkpt>
      <trkpt lat="43.45837" lon="3.51275">
        <ele>56.200000762939</ele>
        <time>2023-12-19T14:50:04Z</time>
      </trkpt>
      <trkpt lat="43.45833" lon="3.51275">
        <ele>56.200000762939</ele>
        <time>2023-12-19T14:50:05Z</time>
      </trkpt>
      <trkpt lat="43.45828" lon="3.51275">
        <ele>56.200000762939</ele>
        <time>2023-12-19T14:50:06Z</time>
      </trkpt>
      <trkpt lat="43.45824" lon="3.51275">
        <ele>56.200000762939</ele>
        <time>2023-12-19T14:50:07Z</time>
      </trkpt>
      <trkpt lat="43.45819" lon="3.51276">
        <ele>56</ele>
        <time>2023-12-19T14:50:08Z</time>
      </trkpt>
      <trkpt lat="43.45814" lon="3.51276">
        <ele>56</ele>
        <time>2023-12-19T14:50:09Z</time>
      </trkpt>
      <trkpt lat="43.4581" lon="3.51277">
        <ele>56</ele>
        <time>2023-12-19T14:50:10Z</time>
      </trkpt>
      <trkpt lat="43.45805" lon="3.51278">
        <ele>55.799999237061</ele>
        <time>2023-12-19T14:50:11Z</time>
      </trkpt>
      <trkpt lat="43.45801" lon="3.51279">
        <ele>55.799999237061</ele>
        <time>2023-12-19T14:50:12Z</time>
      </trkpt>
      <trkpt lat="43.45797" lon="3.5128">
        <ele>55.799999237061</ele>
        <time>2023-12-19T14:50:13Z</time>
      </trkpt>
      <trkpt lat="43.45793" lon="3.51281">
        <ele>55.799999237061</ele>
        <time>2023-12-19T14:50:14Z</time>
      </trkpt>
      <trkpt lat="43.45789" lon="3.51281">
        <ele>55.799999237061</ele>
        <time>2023-12-19T14:50:15Z</time>
      </trkpt>
      <trkpt lat="43.45786" lon="3.51282">
        <ele>56</ele>
        <time>2023-12-19T14:50:16Z</time>
      </trkpt>
      <trkpt lat="43.45782" lon="3.51282">
        <ele>56.200000762939</ele>
        <time>2023-12-19T14:50:17Z</time>
      </trkpt>
      <trkpt lat="43.45779" lon="3.51283">
        <ele>56.400001525879</ele>
        <time>2023-12-19T14:50:18Z</time>
      </trkpt>
      <trkpt lat="43.45776" lon="3.51284">
        <ele>56.400001525879</ele>
        <time>2023-12-19T14:50:19Z</time>
      </trkpt>
      <trkpt lat="43.45773" lon="3.51286">
        <ele>56.400001525879</ele>
        <time>2023-12-19T14:50:20Z</time>
      </trkpt>
      <trkpt lat="43.45769" lon="3.51287">
        <ele>56.599998474121</ele>
        <time>2023-12-19T14:50:21Z</time>
      </trkpt>
      <trkpt lat="43.45765" lon="3.51287">
        <ele>56.799999237061</ele>
        <time>2023-12-19T14:50:22Z</time>
      </trkpt>
      <trkpt lat="43.45762" lon="3.51287">
        <ele>57</ele>
        <time>2023-12-19T14:50:23Z</time>
      </trkpt>
      <trkpt lat="43.45759" lon="3.51287">
        <ele>57.200000762939</ele>
        <time>2023-12-19T14:50:24Z</time>
      </trkpt>
      <trkpt lat="43.45755" lon="3.51287">
        <ele>57.400001525879</ele>
        <time>2023-12-19T14:50:25Z</time>
      </trkpt>
      <trkpt lat="43.45752" lon="3.51285">
        <ele>57.599998474121</ele>
        <time>2023-12-19T14:50:26Z</time>
      </trkpt>
      <trkpt lat="43.45749" lon="3.51284">
        <ele>58</ele>
        <time>2023-12-19T14:50:27Z</time>
      </trkpt>
      <trkpt lat="43.45745" lon="3.51283">
        <ele>58.599998474121</ele>
        <time>2023-12-19T14:50:28Z</time>
      </trkpt>
      <trkpt lat="43.45742" lon="3.51281">
        <ele>58.799999237061</ele>
        <time>2023-12-19T14:50:29Z</time>
      </trkpt>
      <trkpt lat="43.45738" lon="3.51281">
        <ele>59</ele>
        <time>2023-12-19T14:50:30Z</time>
      </trkpt>
      <trkpt lat="43.45735" lon="3.51281">
        <ele>59.400001525879</ele>
        <time>2023-12-19T14:50:31Z</time>
      </trkpt>
      <trkpt lat="43.45732" lon="3.51282">
        <ele>59.599998474121</ele>
        <time>2023-12-19T14:50:32Z</time>
      </trkpt>
      <trkpt lat="43.45729" lon="3.51284">
        <ele>59.799999237061</ele>
        <time>2023-12-19T14:50:33Z</time>
      </trkpt>
      <trkpt lat="43.45726" lon="3.51287">
        <ele>60.200000762939</ele>
        <time>2023-12-19T14:50:34Z</time>
      </trkpt>
      <trkpt lat="43.45724" lon="3.51289">
        <ele>60.400001525879</ele>
        <time>2023-12-19T14:50:35Z</time>
      </trkpt>
      <trkpt lat="43.45721" lon="3.51291">
        <ele>60.599998474121</ele>
        <time>2023-12-19T14:50:36Z</time>
      </trkpt>
      <trkpt lat="43.45718" lon="3.51292">
        <ele>60.799999237061</ele>
        <time>2023-12-19T14:50:37Z</time>
      </trkpt>
      <trkpt lat="43.45714" lon="3.51293">
        <ele>61</ele>
        <time>2023-12-19T14:50:38Z</time>
      </trkpt>
      <trkpt lat="43.4571" lon="3.51294">
        <ele>61.599998474121</ele>
        <time>2023-12-19T14:50:39Z</time>
      </trkpt>
      <trkpt lat="43.45707" lon="3.51294">
        <ele>61.799999237061</ele>
        <time>2023-12-19T14:50:40Z</time>
      </trkpt>
      <trkpt lat="43.45704" lon="3.51293">
        <ele>62.200000762939</ele>
        <time>2023-12-19T14:50:41Z</time>
      </trkpt>
      <trkpt lat="43.45701" lon="3.51293">
        <ele>62.599998474121</ele>
        <time>2023-12-19T14:50:42Z</time>
      </trkpt>
      <trkpt lat="43.45698" lon="3.51292">
        <ele>62.799999237061</ele>
        <time>2023-12-19T14:50:43Z</time>
      </trkpt>
      <trkpt lat="43.45694" lon="3.51292">
        <ele>63.200000762939</ele>
        <time>2023-12-19T14:50:44Z</time>
      </trkpt>
      <trkpt lat="43.45691" lon="3.51293">
        <ele>63.799999237061</ele>
        <time>2023-12-19T14:50:45Z</time>
      </trkpt>
      <trkpt lat="43.45687" lon="3.51293">
        <ele>64.199996948242</ele>
        <time>2023-12-19T14:50:46Z</time>
      </trkpt>
      <trkpt lat="43.45682" lon="3.51293">
        <ele>64.599998474121</ele>
        <time>2023-12-19T14:50:47Z</time>
      </trkpt>
      <trkpt lat="43.45678" lon="3.51294">
        <ele>65</ele>
        <time>2023-12-19T14:50:48Z</time>
      </trkpt>
      <trkpt lat="43.45675" lon="3.51294">
        <ele>65.400001525879</ele>
        <time>2023-12-19T14:50:49Z</time>
      </trkpt>
      <trkpt lat="43.45671" lon="3.51294">
        <ele>65.800003051758</ele>
        <time>2023-12-19T14:50:50Z</time>
      </trkpt>
      <trkpt lat="43.45668" lon="3.51294">
        <ele>66</ele>
        <time>2023-12-19T14:50:51Z</time>
      </trkpt>
      <trkpt lat="43.45665" lon="3.51292">
        <ele>66.199996948242</ele>
        <time>2023-12-19T14:50:52Z</time>
      </trkpt>
      <trkpt lat="43.45662" lon="3.51291">
        <ele>66.400001525879</ele>
        <time>2023-12-19T14:50:53Z</time>
      </trkpt>
      <trkpt lat="43.45659" lon="3.51289">
        <ele>66.800003051758</ele>
        <time>2023-12-19T14:50:54Z</time>
      </trkpt>
      <trkpt lat="43.45656" lon="3.51286">
        <ele>67</ele>
        <time>2023-12-19T14:50:55Z</time>
      </trkpt>
      <trkpt lat="43.45653" lon="3.51283">
        <ele>67.400001525879</ele>
        <time>2023-12-19T14:50:56Z</time>
      </trkpt>
      <trkpt lat="43.45649" lon="3.5128">
        <ele>67.599998474121</ele>
        <time>2023-12-19T14:50:57Z</time>
      </trkpt>
      <trkpt lat="43.45646" lon="3.51277">
        <ele>67.800003051758</ele>
        <time>2023-12-19T14:50:58Z</time>
      </trkpt>
      <trkpt lat="43.45642" lon="3.51275">
        <ele>68</ele>
        <time>2023-12-19T14:50:59Z</time>
      </trkpt>
      <trkpt lat="43.4564" lon="3.51272">
        <ele>68.199996948242</ele>
        <time>2023-12-19T14:51:00Z</time>
      </trkpt>
      <trkpt lat="43.45637" lon="3.5127">
        <ele>68.199996948242</ele>
        <time>2023-12-19T14:51:01Z</time>
      </trkpt>
      <trkpt lat="43.45634" lon="3.51267">
        <ele>68.400001525879</ele>
        <time>2023-12-19T14:51:02Z</time>
      </trkpt>
      <trkpt lat="43.4563" lon="3.51264">
        <ele>68.599998474121</ele>
        <time>2023-12-19T14:51:03Z</time>
      </trkpt>
      <trkpt lat="43.45627" lon="3.51261">
        <ele>68.800003051758</ele>
        <time>2023-12-19T14:51:04Z</time>
      </trkpt>
      <trkpt lat="43.45624" lon="3.51259">
        <ele>69</ele>
        <time>2023-12-19T14:51:05Z</time>
      </trkpt>
      <trkpt lat="43.4562" lon="3.51257">
        <ele>69.199996948242</ele>
        <time>2023-12-19T14:51:06Z</time>
      </trkpt>
      <trkpt lat="43.45616" lon="3.51256">
        <ele>69.199996948242</ele>
        <time>2023-12-19T14:51:07Z</time>
      </trkpt>
      <trkpt lat="43.45613" lon="3.51256">
        <ele>69.400001525879</ele>
        <time>2023-12-19T14:51:08Z</time>
      </trkpt>
      <trkpt lat="43.4561" lon="3.51256">
        <ele>69.400001525879</ele>
        <time>2023-12-19T14:51:09Z</time>
      </trkpt>
      <trkpt lat="43.45606" lon="3.51256">
        <ele>69.599998474121</ele>
        <time>2023-12-19T14:51:10Z</time>
      </trkpt>
      <trkpt lat="43.45603" lon="3.51255">
        <ele>70</ele>
        <time>2023-12-19T14:51:11Z</time>
      </trkpt>
      <trkpt lat="43.456" lon="3.51253">
        <ele>70.199996948242</ele>
        <time>2023-12-19T14:51:12Z</time>
      </trkpt>
      <trkpt lat="43.45597" lon="3.51251">
        <ele>70.599998474121</ele>
        <time>2023-12-19T14:51:13Z</time>
      </trkpt>
      <trkpt lat="43.45594" lon="3.51249">
        <ele>71</ele>
        <time>2023-12-19T14:51:14Z</time>
      </trkpt>
      <trkpt lat="43.45591" lon="3.51246">
        <ele>71.199996948242</ele>
        <time>2023-12-19T14:51:15Z</time>
      </trkpt>
      <trkpt lat="43.45588" lon="3.51244">
        <ele>71.400001525879</ele>
        <time>2023-12-19T14:51:16Z</time>
      </trkpt>
      <trkpt lat="43.45586" lon="3.51241">
        <ele>71.599998474121</ele>
        <time>2023-12-19T14:51:17Z</time>
      </trkpt>
      <trkpt lat="43.45583" lon="3.51238">
        <ele>71.599998474121</ele>
        <time>2023-12-19T14:51:18Z</time>
      </trkpt>
      <trkpt lat="43.45581" lon="3.51236">
        <ele>71.800003051758</ele>
        <time>2023-12-19T14:51:19Z</time>
      </trkpt>
      <trkpt lat="43.45579" lon="3.51234">
        <ele>71.800003051758</ele>
        <time>2023-12-19T14:51:20Z</time>
      </trkpt>
      <trkpt lat="43.45577" lon="3.51232">
        <ele>71.800003051758</ele>
        <time>2023-12-19T14:51:21Z</time>
      </trkpt>
      <trkpt lat="43.45575" lon="3.51229">
        <ele>71.800003051758</ele>
        <time>2023-12-19T14:51:22Z</time>
      </trkpt>
      <trkpt lat="43.45574" lon="3.51226">
        <ele>71.800003051758</ele>
        <time>2023-12-19T14:51:23Z</time>
      </trkpt>
      <trkpt lat="43.45574" lon="3.51224">
        <ele>71.800003051758</ele>
        <time>2023-12-19T14:51:24Z</time>
      </trkpt>
      <trkpt lat="43.45573" lon="3.51221">
        <ele>71.800003051758</ele>
        <time>2023-12-19T14:51:25Z</time>
      </trkpt>
      <trkpt lat="43.45572" lon="3.51218">
        <ele>71.599998474121</ele>
        <time>2023-12-19T14:51:26Z</time>
      </trkpt>
      <trkpt lat="43.45571" lon="3.51216">
        <ele>71.400001525879</ele>
        <time>2023-12-19T14:51:27Z</time>
      </trkpt>
      <trkpt lat="43.45571" lon="3.51214">
        <ele>71.199996948242</ele>
        <time>2023-12-19T14:51:28Z</time>
      </trkpt>
      <trkpt lat="43.4557" lon="3.51212">
        <ele>71</ele>
        <time>2023-12-19T14:51:29Z</time>
      </trkpt>
      <trkpt lat="43.45569" lon="3.5121">
        <ele>70.800003051758</ele>
        <time>2023-12-19T14:51:30Z</time>
      </trkpt>
      <trkpt lat="43.45569" lon="3.51208">
        <ele>70.400001525879</ele>
        <time>2023-12-19T14:51:31Z</time>
      </trkpt>
      <trkpt lat="43.45568" lon="3.51205">
        <ele>70.199996948242</ele>
        <time>2023-12-19T14:51:32Z</time>
      </trkpt>
      <trkpt lat="43.45567" lon="3.51203">
        <ele>70</ele>
        <time>2023-12-19T14:51:33Z</time>
      </trkpt>
      <trkpt lat="43.45565" lon="3.51201">
        <ele>69.800003051758</ele>
        <time>2023-12-19T14:51:34Z</time>
      </trkpt>
      <trkpt lat="43.45565" lon="3.512">
        <ele>69.599998474121</ele>
        <time>2023-12-19T14:51:35Z</time>
      </trkpt>
      <trkpt lat="43.45564" lon="3.51199">
        <ele>69.400001525879</ele>
        <time>2023-12-19T14:51:36Z</time>
      </trkpt>
      <trkpt lat="43.45564" lon="3.51199">
        <ele>68.800003051758</ele>
        <time>2023-12-19T14:51:37Z</time>
      </trkpt>
      <trkpt lat="43.45564" lon="3.51195">
        <ele>68</ele>
        <time>2023-12-19T14:51:51Z</time>
      </trkpt>
      <trkpt lat="43.45563" lon="3.51191">
        <ele>67.800003051758</ele>
        <time>2023-12-19T14:51:52Z</time>
      </trkpt>
      <trkpt lat="43.45562" lon="3.51186">
        <ele>67.800003051758</ele>
        <time>2023-12-19T14:51:53Z</time>
      </trkpt>
      <trkpt lat="43.45561" lon="3.5118">
        <ele>67.800003051758</ele>
        <time>2023-12-19T14:51:54Z</time>
      </trkpt>
      <trkpt lat="43.45559" lon="3.51175">
        <ele>67.800003051758</ele>
        <time>2023-12-19T14:51:55Z</time>
      </trkpt>
      <trkpt lat="43.45557" lon="3.51169">
        <ele>67.599998474121</ele>
        <time>2023-12-19T14:51:56Z</time>
      </trkpt>
      <trkpt lat="43.45555" lon="3.51163">
        <ele>67.400001525879</ele>
        <time>2023-12-19T14:51:57Z</time>
      </trkpt>
      <trkpt lat="43.45553" lon="3.51156">
        <ele>67.199996948242</ele>
        <time>2023-12-19T14:51:58Z</time>
      </trkpt>
      <trkpt lat="43.45551" lon="3.51149">
        <ele>66.800003051758</ele>
        <time>2023-12-19T14:51:59Z</time>
      </trkpt>
      <trkpt lat="43.4555" lon="3.51141">
        <ele>66.199996948242</ele>
        <time>2023-12-19T14:52:00Z</time>
      </trkpt>
      <trkpt lat="43.45549" lon="3.51134">
        <ele>65.599998474121</ele>
        <time>2023-12-19T14:52:01Z</time>
      </trkpt>
      <trkpt lat="43.45549" lon="3.51127">
        <ele>65</ele>
        <time>2023-12-19T14:52:02Z</time>
      </trkpt>
      <trkpt lat="43.4555" lon="3.5112">
        <ele>64.199996948242</ele>
        <time>2023-12-19T14:52:03Z</time>
      </trkpt>
      <trkpt lat="43.45551" lon="3.51112">
        <ele>63.400001525879</ele>
        <time>2023-12-19T14:52:04Z</time>
      </trkpt>
      <trkpt lat="43.45554" lon="3.51105">
        <ele>62.599998474121</ele>
        <time>2023-12-19T14:52:05Z</time>
      </trkpt>
      <trkpt lat="43.45557" lon="3.51097">
        <ele>61.599998474121</ele>
        <time>2023-12-19T14:52:06Z</time>
      </trkpt>
      <trkpt lat="43.45561" lon="3.51091">
        <ele>60.599998474121</ele>
        <time>2023-12-19T14:52:07Z</time>
      </trkpt>
      <trkpt lat="43.45563" lon="3.51083">
        <ele>59.400001525879</ele>
        <time>2023-12-19T14:52:08Z</time>
      </trkpt>
      <trkpt lat="43.45564" lon="3.51073">
        <ele>58.400001525879</ele>
        <time>2023-12-19T14:52:09Z</time>
      </trkpt>
      <trkpt lat="43.45565" lon="3.51062">
        <ele>57.599998474121</ele>
        <time>2023-12-19T14:52:10Z</time>
      </trkpt>
      <trkpt lat="43.45566" lon="3.51052">
        <ele>56.799999237061</ele>
        <time>2023-12-19T14:52:11Z</time>
      </trkpt>
      <trkpt lat="43.45568" lon="3.51041">
        <ele>56.200000762939</ele>
        <time>2023-12-19T14:52:12Z</time>
      </trkpt>
      <trkpt lat="43.4557" lon="3.51032">
        <ele>55.400001525879</ele>
        <time>2023-12-19T14:52:13Z</time>
      </trkpt>
      <trkpt lat="43.45573" lon="3.51025">
        <ele>54.599998474121</ele>
        <time>2023-12-19T14:52:14Z</time>
      </trkpt>
      <trkpt lat="43.45576" lon="3.51019">
        <ele>54.200000762939</ele>
        <time>2023-12-19T14:52:15Z</time>
      </trkpt>
      <trkpt lat="43.45579" lon="3.51013">
        <ele>54</ele>
        <time>2023-12-19T14:52:16Z</time>
      </trkpt>
      <trkpt lat="43.45581" lon="3.51008">
        <ele>54</ele>
        <time>2023-12-19T14:52:17Z</time>
      </trkpt>
      <trkpt lat="43.45583" lon="3.51003">
        <ele>54</ele>
        <time>2023-12-19T14:52:18Z</time>
      </trkpt>
      <trkpt lat="43.45585" lon="3.50998">
        <ele>54</ele>
        <time>2023-12-19T14:52:19Z</time>
      </trkpt>
      <trkpt lat="43.45587" lon="3.50994">
        <ele>54.400001525879</ele>
        <time>2023-12-19T14:52:20Z</time>
      </trkpt>
      <trkpt lat="43.45589" lon="3.50989">
        <ele>54.599998474121</ele>
        <time>2023-12-19T14:52:21Z</time>
      </trkpt>
      <trkpt lat="43.4559" lon="3.50984">
        <ele>54.799999237061</ele>
        <time>2023-12-19T14:52:22Z</time>
      </trkpt>
      <trkpt lat="43.45593" lon="3.50978">
        <ele>54.799999237061</ele>
        <time>2023-12-19T14:52:23Z</time>
      </trkpt>
      <trkpt lat="43.45594" lon="3.50973">
        <ele>54.799999237061</ele>
        <time>2023-12-19T14:52:24Z</time>
      </trkpt>
      <trkpt lat="43.45597" lon="3.50968">
        <ele>54.799999237061</ele>
        <time>2023-12-19T14:52:25Z</time>
      </trkpt>
      <trkpt lat="43.45599" lon="3.50963">
        <ele>55</ele>
        <time>2023-12-19T14:52:26Z</time>
      </trkpt>
      <trkpt lat="43.45601" lon="3.50958">
        <ele>55.200000762939</ele>
        <time>2023-12-19T14:52:27Z</time>
      </trkpt>
      <trkpt lat="43.45603" lon="3.50952">
        <ele>55.200000762939</ele>
        <time>2023-12-19T14:52:28Z</time>
      </trkpt>
      <trkpt lat="43.45606" lon="3.50947">
        <ele>55.400001525879</ele>
        <time>2023-12-19T14:52:29Z</time>
      </trkpt>
      <trkpt lat="43.45608" lon="3.50942">
        <ele>55.400001525879</ele>
        <time>2023-12-19T14:52:30Z</time>
      </trkpt>
      <trkpt lat="43.45611" lon="3.50936">
        <ele>55.599998474121</ele>
        <time>2023-12-19T14:52:31Z</time>
      </trkpt>
      <trkpt lat="43.45613" lon="3.50931">
        <ele>55.799999237061</ele>
        <time>2023-12-19T14:52:32Z</time>
      </trkpt>
      <trkpt lat="43.45614" lon="3.50929">
        <ele>56</ele>
        <time>2023-12-19T14:52:33Z</time>
      </trkpt>
      <trkpt lat="43.45614" lon="3.50928">
        <ele>56.200000762939</ele>
        <time>2023-12-19T14:52:34Z</time>
      </trkpt>
      <trkpt lat="43.45613" lon="3.50927">
        <ele>56.200000762939</ele>
        <time>2023-12-19T14:52:35Z</time>
      </trkpt>
      <trkpt lat="43.4561" lon="3.50932">
        <ele>56.799999237061</ele>
        <time>2023-12-19T14:52:46Z</time>
      </trkpt>
      <trkpt lat="43.45607" lon="3.50932">
        <ele>56.799999237061</ele>
        <time>2023-12-19T14:52:47Z</time>
      </trkpt>
      <trkpt lat="43.45604" lon="3.5093">
        <ele>56.799999237061</ele>
        <time>2023-12-19T14:52:48Z</time>
      </trkpt>
      <trkpt lat="43.45604" lon="3.50928">
        <ele>56.799999237061</ele>
        <time>2023-12-19T14:52:49Z</time>
      </trkpt>
      <trkpt lat="43.45604" lon="3.50925">
        <ele>56.599998474121</ele>
        <time>2023-12-19T14:52:50Z</time>
      </trkpt>
      <trkpt lat="43.45605" lon="3.50923">
        <ele>56.200000762939</ele>
        <time>2023-12-19T14:52:51Z</time>
      </trkpt>
      <trkpt lat="43.45606" lon="3.5092">
        <ele>55.599998474121</ele>
        <time>2023-12-19T14:52:52Z</time>
      </trkpt>
      <trkpt lat="43.45606" lon="3.50918">
        <ele>55.200000762939</ele>
        <time>2023-12-19T14:52:53Z</time>
      </trkpt>
      <trkpt lat="43.45606" lon="3.50916">
        <ele>55</ele>
        <time>2023-12-19T14:52:54Z</time>
      </trkpt>
      <trkpt lat="43.45605" lon="3.50914">
        <ele>54.799999237061</ele>
        <time>2023-12-19T14:52:55Z</time>
      </trkpt>
      <trkpt lat="43.45604" lon="3.50912">
        <ele>54.799999237061</ele>
        <time>2023-12-19T14:52:56Z</time>
      </trkpt>
      <trkpt lat="43.45601" lon="3.50912">
        <ele>54.599998474121</ele>
        <time>2023-12-19T14:52:57Z</time>
      </trkpt>
      <trkpt lat="43.456" lon="3.50913">
        <ele>54.400001525879</ele>
        <time>2023-12-19T14:52:58Z</time>
      </trkpt>
      <trkpt lat="43.45599" lon="3.50914">
        <ele>54.200000762939</ele>
        <time>2023-12-19T14:52:59Z</time>
      </trkpt>
      <trkpt lat="43.45597" lon="3.50915">
        <ele>53.599998474121</ele>
        <time>2023-12-19T14:53:00Z</time>
      </trkpt>
      <trkpt lat="43.45596" lon="3.50916">
        <ele>53</ele>
        <time>2023-12-19T14:53:01Z</time>
      </trkpt>
      <trkpt lat="43.45595" lon="3.50918">
        <ele>52.799999237061</ele>
        <time>2023-12-19T14:53:02Z</time>
      </trkpt>
      <trkpt lat="43.45594" lon="3.5092">
        <ele>52.599998474121</ele>
        <time>2023-12-19T14:53:03Z</time>
      </trkpt>
      <trkpt lat="43.45593" lon="3.50922">
        <ele>52.400001525879</ele>
        <time>2023-12-19T14:53:04Z</time>
      </trkpt>
      <trkpt lat="43.45591" lon="3.50924">
        <ele>52.400001525879</ele>
        <time>2023-12-19T14:53:05Z</time>
      </trkpt>
      <trkpt lat="43.4559" lon="3.50927">
        <ele>52.200000762939</ele>
        <time>2023-12-19T14:53:06Z</time>
      </trkpt>
      <trkpt lat="43.45589" lon="3.50929">
        <ele>52</ele>
        <time>2023-12-19T14:53:07Z</time>
      </trkpt>
      <trkpt lat="43.45588" lon="3.50932">
        <ele>51.799999237061</ele>
        <time>2023-12-19T14:53:08Z</time>
      </trkpt>
      <trkpt lat="43.45587" lon="3.50935">
        <ele>51.400001525879</ele>
        <time>2023-12-19T14:53:09Z</time>
      </trkpt>
      <trkpt lat="43.45586" lon="3.50939">
        <ele>51.200000762939</ele>
        <time>2023-12-19T14:53:10Z</time>
      </trkpt>
      <trkpt lat="43.45585" lon="3.50943">
        <ele>50.799999237061</ele>
        <time>2023-12-19T14:53:11Z</time>
      </trkpt>
      <trkpt lat="43.45584" lon="3.50947">
        <ele>50.400001525879</ele>
        <time>2023-12-19T14:53:12Z</time>
      </trkpt>
      <trkpt lat="43.45583" lon="3.50951">
        <ele>50</ele>
        <time>2023-12-19T14:53:13Z</time>
      </trkpt>
      <trkpt lat="43.45582" lon="3.50954">
        <ele>49.799999237061</ele>
        <time>2023-12-19T14:53:14Z</time>
      </trkpt>
      <trkpt lat="43.4558" lon="3.50956">
        <ele>49.400001525879</ele>
        <time>2023-12-19T14:53:15Z</time>
      </trkpt>
      <trkpt lat="43.45578" lon="3.50954">
        <ele>49.200000762939</ele>
        <time>2023-12-19T14:53:16Z</time>
      </trkpt>
      <trkpt lat="43.45575" lon="3.50954">
        <ele>49</ele>
        <time>2023-12-19T14:53:17Z</time>
      </trkpt>
      <trkpt lat="43.45571" lon="3.50954">
        <ele>48.799999237061</ele>
        <time>2023-12-19T14:53:18Z</time>
      </trkpt>
      <trkpt lat="43.45568" lon="3.50956">
        <ele>48.599998474121</ele>
        <time>2023-12-19T14:53:19Z</time>
      </trkpt>
      <trkpt lat="43.45565" lon="3.50958">
        <ele>48.599998474121</ele>
        <time>2023-12-19T14:53:20Z</time>
      </trkpt>
      <trkpt lat="43.45562" lon="3.5096">
        <ele>48.599998474121</ele>
        <time>2023-12-19T14:53:21Z</time>
      </trkpt>
      <trkpt lat="43.4556" lon="3.50962">
        <ele>48.599998474121</ele>
        <time>2023-12-19T14:53:22Z</time>
      </trkpt>
      <trkpt lat="43.45557" lon="3.50964">
        <ele>48.599998474121</ele>
        <time>2023-12-19T14:53:23Z</time>
      </trkpt>
      <trkpt lat="43.45555" lon="3.50967">
        <ele>48.799999237061</ele>
        <time>2023-12-19T14:53:24Z</time>
      </trkpt>
      <trkpt lat="43.45553" lon="3.50969">
        <ele>49.200000762939</ele>
        <time>2023-12-19T14:53:25Z</time>
      </trkpt>
      <trkpt lat="43.4555" lon="3.50971">
        <ele>49.599998474121</ele>
        <time>2023-12-19T14:53:26Z</time>
      </trkpt>
      <trkpt lat="43.45547" lon="3.50973">
        <ele>50</ele>
        <time>2023-12-19T14:53:27Z</time>
      </trkpt>
      <trkpt lat="43.45544" lon="3.50974">
        <ele>50.400001525879</ele>
        <time>2023-12-19T14:53:28Z</time>
      </trkpt>
      <trkpt lat="43.45542" lon="3.50976">
        <ele>50.799999237061</ele>
        <time>2023-12-19T14:53:29Z</time>
      </trkpt>
      <trkpt lat="43.4554" lon="3.50977">
        <ele>51.200000762939</ele>
        <time>2023-12-19T14:53:30Z</time>
      </trkpt>
      <trkpt lat="43.45539" lon="3.5098">
        <ele>51.400001525879</ele>
        <time>2023-12-19T14:53:31Z</time>
      </trkpt>
      <trkpt lat="43.45538" lon="3.50981">
        <ele>51.599998474121</ele>
        <time>2023-12-19T14:53:32Z</time>
      </trkpt>
      <trkpt lat="43.45536" lon="3.50983">
        <ele>51.799999237061</ele>
        <time>2023-12-19T14:53:33Z</time>
      </trkpt>
      <trkpt lat="43.45535" lon="3.50985">
        <ele>52.200000762939</ele>
        <time>2023-12-19T14:53:34Z</time>
      </trkpt>
      <trkpt lat="43.45533" lon="3.50986">
        <ele>52.599998474121</ele>
        <time>2023-12-19T14:53:35Z</time>
      </trkpt>
      <trkpt lat="43.45531" lon="3.50988">
        <ele>52.799999237061</ele>
        <time>2023-12-19T14:53:36Z</time>
      </trkpt>
      <trkpt lat="43.45529" lon="3.5099">
        <ele>53.200000762939</ele>
        <time>2023-12-19T14:53:37Z</time>
      </trkpt>
      <trkpt lat="43.45527" lon="3.50992">
        <ele>53.400001525879</ele>
        <time>2023-12-19T14:53:38Z</time>
      </trkpt>
      <trkpt lat="43.45524" lon="3.50993">
        <ele>53.799999237061</ele>
        <time>2023-12-19T14:53:39Z</time>
      </trkpt>
      <trkpt lat="43.45522" lon="3.50995">
        <ele>54</ele>
        <time>2023-12-19T14:53:40Z</time>
      </trkpt>
      <trkpt lat="43.4552" lon="3.50997">
        <ele>54.400001525879</ele>
        <time>2023-12-19T14:53:41Z</time>
      </trkpt>
      <trkpt lat="43.45518" lon="3.50998">
        <ele>54.599998474121</ele>
        <time>2023-12-19T14:53:42Z</time>
      </trkpt>
      <trkpt lat="43.45517" lon="3.51">
        <ele>54.799999237061</ele>
        <time>2023-12-19T14:53:43Z</time>
      </trkpt>
      <trkpt lat="43.45515" lon="3.51002">
        <ele>55.200000762939</ele>
        <time>2023-12-19T14:53:44Z</time>
      </trkpt>
      <trkpt lat="43.45513" lon="3.51004">
        <ele>55.599998474121</ele>
        <time>2023-12-19T14:53:45Z</time>
      </trkpt>
      <trkpt lat="43.45511" lon="3.51006">
        <ele>56</ele>
        <time>2023-12-19T14:53:46Z</time>
      </trkpt>
      <trkpt lat="43.45508" lon="3.51009">
        <ele>56.200000762939</ele>
        <time>2023-12-19T14:53:47Z</time>
      </trkpt>
      <trkpt lat="43.45506" lon="3.51011">
        <ele>56.599998474121</ele>
        <time>2023-12-19T14:53:48Z</time>
      </trkpt>
      <trkpt lat="43.45504" lon="3.51014">
        <ele>56.799999237061</ele>
        <time>2023-12-19T14:53:49Z</time>
      </trkpt>
      <trkpt lat="43.45501" lon="3.51015">
        <ele>57.200000762939</ele>
        <time>2023-12-19T14:53:50Z</time>
      </trkpt>
      <trkpt lat="43.45499" lon="3.51017">
        <ele>57.400001525879</ele>
        <time>2023-12-19T14:53:51Z</time>
      </trkpt>
      <trkpt lat="43.45495" lon="3.51018">
        <ele>57.599998474121</ele>
        <time>2023-12-19T14:53:52Z</time>
      </trkpt>
      <trkpt lat="43.45492" lon="3.51018">
        <ele>57.799999237061</ele>
        <time>2023-12-19T14:53:53Z</time>
      </trkpt>
      <trkpt lat="43.45489" lon="3.51017">
        <ele>58</ele>
        <time>2023-12-19T14:53:54Z</time>
      </trkpt>
      <trkpt lat="43.45486" lon="3.51017">
        <ele>58.200000762939</ele>
        <time>2023-12-19T14:53:55Z</time>
      </trkpt>
      <trkpt lat="43.45484" lon="3.51017">
        <ele>58.200000762939</ele>
        <time>2023-12-19T14:53:56Z</time>
      </trkpt>
      <trkpt lat="43.45481" lon="3.51019">
        <ele>58.200000762939</ele>
        <time>2023-12-19T14:53:57Z</time>
      </trkpt>
      <trkpt lat="43.45478" lon="3.51021">
        <ele>58.200000762939</ele>
        <time>2023-12-19T14:53:58Z</time>
      </trkpt>
      <trkpt lat="43.45475" lon="3.51023">
        <ele>58.400001525879</ele>
        <time>2023-12-19T14:53:59Z</time>
      </trkpt>
      <trkpt lat="43.45472" lon="3.51024">
        <ele>58.599998474121</ele>
        <time>2023-12-19T14:54:00Z</time>
      </trkpt>
      <trkpt lat="43.45469" lon="3.51025">
        <ele>58.799999237061</ele>
        <time>2023-12-19T14:54:01Z</time>
      </trkpt>
      <trkpt lat="43.45468" lon="3.51028">
        <ele>59.200000762939</ele>
        <time>2023-12-19T14:54:02Z</time>
      </trkpt>
      <trkpt lat="43.45466" lon="3.5103">
        <ele>59.400001525879</ele>
        <time>2023-12-19T14:54:03Z</time>
      </trkpt>
      <trkpt lat="43.45464" lon="3.51032">
        <ele>60</ele>
        <time>2023-12-19T14:54:04Z</time>
      </trkpt>
      <trkpt lat="43.45462" lon="3.51033">
        <ele>60</ele>
        <time>2023-12-19T14:54:05Z</time>
      </trkpt>
      <trkpt lat="43.4546" lon="3.51035">
        <ele>60.200000762939</ele>
        <time>2023-12-19T14:54:06Z</time>
      </trkpt>
      <trkpt lat="43.45458" lon="3.51036">
        <ele>60.799999237061</ele>
        <time>2023-12-19T14:54:07Z</time>
      </trkpt>
      <trkpt lat="43.45456" lon="3.51037">
        <ele>60.799999237061</ele>
        <time>2023-12-19T14:54:08Z</time>
      </trkpt>
      <trkpt lat="43.45453" lon="3.51038">
        <ele>61.200000762939</ele>
        <time>2023-12-19T14:54:09Z</time>
      </trkpt>
      <trkpt lat="43.45451" lon="3.51039">
        <ele>61.400001525879</ele>
        <time>2023-12-19T14:54:10Z</time>
      </trkpt>
      <trkpt lat="43.45449" lon="3.5104">
        <ele>61.599998474121</ele>
        <time>2023-12-19T14:54:11Z</time>
      </trkpt>
      <trkpt lat="43.45447" lon="3.51041">
        <ele>61.799999237061</ele>
        <time>2023-12-19T14:54:12Z</time>
      </trkpt>
      <trkpt lat="43.45445" lon="3.51042">
        <ele>62.200000762939</ele>
        <time>2023-12-19T14:54:13Z</time>
      </trkpt>
      <trkpt lat="43.45443" lon="3.51043">
        <ele>62.599998474121</ele>
        <time>2023-12-19T14:54:14Z</time>
      </trkpt>
      <trkpt lat="43.4544" lon="3.51045">
        <ele>63</ele>
        <time>2023-12-19T14:54:15Z</time>
      </trkpt>
      <trkpt lat="43.45438" lon="3.51047">
        <ele>63.400001525879</ele>
        <time>2023-12-19T14:54:16Z</time>
      </trkpt>
      <trkpt lat="43.45436" lon="3.51049">
        <ele>63.799999237061</ele>
        <time>2023-12-19T14:54:17Z</time>
      </trkpt>
      <trkpt lat="43.45434" lon="3.5105">
        <ele>64.400001525879</ele>
        <time>2023-12-19T14:54:18Z</time>
      </trkpt>
      <trkpt lat="43.45432" lon="3.51053">
        <ele>64.599998474121</ele>
        <time>2023-12-19T14:54:19Z</time>
      </trkpt>
      <trkpt lat="43.4543" lon="3.51055">
        <ele>65.199996948242</ele>
        <time>2023-12-19T14:54:20Z</time>
      </trkpt>
      <trkpt lat="43.45428" lon="3.51056">
        <ele>65.400001525879</ele>
        <time>2023-12-19T14:54:21Z</time>
      </trkpt>
      <trkpt lat="43.45426" lon="3.51058">
        <ele>65.599998474121</ele>
        <time>2023-12-19T14:54:22Z</time>
      </trkpt>
      <trkpt lat="43.45425" lon="3.51059">
        <ele>65.800003051758</ele>
        <time>2023-12-19T14:54:23Z</time>
      </trkpt>
      <trkpt lat="43.45423" lon="3.51062">
        <ele>66.199996948242</ele>
        <time>2023-12-19T14:54:24Z</time>
      </trkpt>
      <trkpt lat="43.45422" lon="3.51064">
        <ele>66.400001525879</ele>
        <time>2023-12-19T14:54:25Z</time>
      </trkpt>
      <trkpt lat="43.4542" lon="3.51067">
        <ele>66.800003051758</ele>
        <time>2023-12-19T14:54:26Z</time>
      </trkpt>
      <trkpt lat="43.45418" lon="3.51069">
        <ele>67</ele>
        <time>2023-12-19T14:54:27Z</time>
      </trkpt>
      <trkpt lat="43.45416" lon="3.51072">
        <ele>67.199996948242</ele>
        <time>2023-12-19T14:54:28Z</time>
      </trkpt>
      <trkpt lat="43.45414" lon="3.51075">
        <ele>67.199996948242</ele>
        <time>2023-12-19T14:54:29Z</time>
      </trkpt>
      <trkpt lat="43.45411" lon="3.51078">
        <ele>67.199996948242</ele>
        <time>2023-12-19T14:54:30Z</time>
      </trkpt>
      <trkpt lat="43.45408" lon="3.51081">
        <ele>67.199996948242</ele>
        <time>2023-12-19T14:54:31Z</time>
      </trkpt>
      <trkpt lat="43.45406" lon="3.51084">
        <ele>67.199996948242</ele>
        <time>2023-12-19T14:54:32Z</time>
      </trkpt>
      <trkpt lat="43.45404" lon="3.51086">
        <ele>67.199996948242</ele>
        <time>2023-12-19T14:54:33Z</time>
      </trkpt>
      <trkpt lat="43.45402" lon="3.51089">
        <ele>67.199996948242</ele>
        <time>2023-12-19T14:54:34Z</time>
      </trkpt>
      <trkpt lat="43.45398" lon="3.51091">
        <ele>67.199996948242</ele>
        <time>2023-12-19T14:54:35Z</time>
      </trkpt>
      <trkpt lat="43.45395" lon="3.51093">
        <ele>67.199996948242</ele>
        <time>2023-12-19T14:54:36Z</time>
      </trkpt>
      <trkpt lat="43.45392" lon="3.51094">
        <ele>67.199996948242</ele>
        <time>2023-12-19T14:54:37Z</time>
      </trkpt>
      <trkpt lat="43.45389" lon="3.51095">
        <ele>67.400001525879</ele>
        <time>2023-12-19T14:54:38Z</time>
      </trkpt>
      <trkpt lat="43.45386" lon="3.51096">
        <ele>67.599998474121</ele>
        <time>2023-12-19T14:54:39Z</time>
      </trkpt>
      <trkpt lat="43.45383" lon="3.51097">
        <ele>67.800003051758</ele>
        <time>2023-12-19T14:54:40Z</time>
      </trkpt>
      <trkpt lat="43.4538" lon="3.51098">
        <ele>68.199996948242</ele>
        <time>2023-12-19T14:54:41Z</time>
      </trkpt>
      <trkpt lat="43.45377" lon="3.51099">
        <ele>68.599998474121</ele>
        <time>2023-12-19T14:54:42Z</time>
      </trkpt>
      <trkpt lat="43.45374" lon="3.511">
        <ele>68.800003051758</ele>
        <time>2023-12-19T14:54:43Z</time>
      </trkpt>
      <trkpt lat="43.45371" lon="3.51101">
        <ele>69.400001525879</ele>
        <time>2023-12-19T14:54:44Z</time>
      </trkpt>
      <trkpt lat="43.45368" lon="3.51101">
        <ele>69.800003051758</ele>
        <time>2023-12-19T14:54:45Z</time>
      </trkpt>
      <trkpt lat="43.45366" lon="3.51101">
        <ele>70.199996948242</ele>
        <time>2023-12-19T14:54:46Z</time>
      </trkpt>
      <trkpt lat="43.45364" lon="3.51101">
        <ele>70.599998474121</ele>
        <time>2023-12-19T14:54:47Z</time>
      </trkpt>
      <trkpt lat="43.45361" lon="3.51101">
        <ele>71</ele>
        <time>2023-12-19T14:54:48Z</time>
      </trkpt>
      <trkpt lat="43.45359" lon="3.51101">
        <ele>71.199996948242</ele>
        <time>2023-12-19T14:54:49Z</time>
      </trkpt>
      <trkpt lat="43.45357" lon="3.51101">
        <ele>71.599998474121</ele>
        <time>2023-12-19T14:54:50Z</time>
      </trkpt>
      <trkpt lat="43.45355" lon="3.51102">
        <ele>71.800003051758</ele>
        <time>2023-12-19T14:54:51Z</time>
      </trkpt>
      <trkpt lat="43.45353" lon="3.51102">
        <ele>72.199996948242</ele>
        <time>2023-12-19T14:54:52Z</time>
      </trkpt>
      <trkpt lat="43.45351" lon="3.51103">
        <ele>72.599998474121</ele>
        <time>2023-12-19T14:54:53Z</time>
      </trkpt>
      <trkpt lat="43.45349" lon="3.51103">
        <ele>73</ele>
        <time>2023-12-19T14:54:54Z</time>
      </trkpt>
      <trkpt lat="43.45347" lon="3.51103">
        <ele>73.400001525879</ele>
        <time>2023-12-19T14:54:55Z</time>
      </trkpt>
      <trkpt lat="43.45344" lon="3.51104">
        <ele>73.800003051758</ele>
        <time>2023-12-19T14:54:56Z</time>
      </trkpt>
      <trkpt lat="43.45342" lon="3.51105">
        <ele>74.199996948242</ele>
        <time>2023-12-19T14:54:57Z</time>
      </trkpt>
      <trkpt lat="43.4534" lon="3.51105">
        <ele>74.599998474121</ele>
        <time>2023-12-19T14:54:58Z</time>
      </trkpt>
      <trkpt lat="43.45339" lon="3.51106">
        <ele>74.800003051758</ele>
        <time>2023-12-19T14:54:59Z</time>
      </trkpt>
      <trkpt lat="43.45337" lon="3.51107">
        <ele>75</ele>
        <time>2023-12-19T14:55:00Z</time>
      </trkpt>
      <trkpt lat="43.45335" lon="3.51108">
        <ele>75.199996948242</ele>
        <time>2023-12-19T14:55:01Z</time>
      </trkpt>
      <trkpt lat="43.45333" lon="3.51108">
        <ele>75.599998474121</ele>
        <time>2023-12-19T14:55:02Z</time>
      </trkpt>
      <trkpt lat="43.45331" lon="3.51108">
        <ele>75.800003051758</ele>
        <time>2023-12-19T14:55:03Z</time>
      </trkpt>
      <trkpt lat="43.45329" lon="3.51108">
        <ele>76.199996948242</ele>
        <time>2023-12-19T14:55:04Z</time>
      </trkpt>
      <trkpt lat="43.45326" lon="3.51109">
        <ele>76.599998474121</ele>
        <time>2023-12-19T14:55:05Z</time>
      </trkpt>
      <trkpt lat="43.45325" lon="3.5111">
        <ele>77</ele>
        <time>2023-12-19T14:55:06Z</time>
      </trkpt>
      <trkpt lat="43.45323" lon="3.51112">
        <ele>77.599998474121</ele>
        <time>2023-12-19T14:55:07Z</time>
      </trkpt>
      <trkpt lat="43.4532" lon="3.51113">
        <ele>78.199996948242</ele>
        <time>2023-12-19T14:55:08Z</time>
      </trkpt>
      <trkpt lat="43.45317" lon="3.51114">
        <ele>78.800003051758</ele>
        <time>2023-12-19T14:55:09Z</time>
      </trkpt>
      <trkpt lat="43.45314" lon="3.51115">
        <ele>79</ele>
        <time>2023-12-19T14:55:10Z</time>
      </trkpt>
      <trkpt lat="43.45312" lon="3.51116">
        <ele>79.400001525879</ele>
        <time>2023-12-19T14:55:11Z</time>
      </trkpt>
      <trkpt lat="43.45309" lon="3.51117">
        <ele>79.800003051758</ele>
        <time>2023-12-19T14:55:12Z</time>
      </trkpt>
      <trkpt lat="43.45308" lon="3.51117">
        <ele>80.400001525879</ele>
        <time>2023-12-19T14:55:13Z</time>
      </trkpt>
      <trkpt lat="43.45306" lon="3.51117">
        <ele>80.599998474121</ele>
        <time>2023-12-19T14:55:14Z</time>
      </trkpt>
      <trkpt lat="43.45303" lon="3.51118">
        <ele>81</ele>
        <time>2023-12-19T14:55:15Z</time>
      </trkpt>
      <trkpt lat="43.45301" lon="3.5112">
        <ele>81.400001525879</ele>
        <time>2023-12-19T14:55:16Z</time>
      </trkpt>
      <trkpt lat="43.45299" lon="3.51121">
        <ele>81.599998474121</ele>
        <time>2023-12-19T14:55:17Z</time>
      </trkpt>
      <trkpt lat="43.45297" lon="3.51122">
        <ele>81.800003051758</ele>
        <time>2023-12-19T14:55:18Z</time>
      </trkpt>
      <trkpt lat="43.45294" lon="3.51123">
        <ele>82</ele>
        <time>2023-12-19T14:55:19Z</time>
      </trkpt>
      <trkpt lat="43.45292" lon="3.51123">
        <ele>82.199996948242</ele>
        <time>2023-12-19T14:55:20Z</time>
      </trkpt>
      <trkpt lat="43.4529" lon="3.51123">
        <ele>82.400001525879</ele>
        <time>2023-12-19T14:55:21Z</time>
      </trkpt>
      <trkpt lat="43.45287" lon="3.51123">
        <ele>82.400001525879</ele>
        <time>2023-12-19T14:55:22Z</time>
      </trkpt>
      <trkpt lat="43.45286" lon="3.51123">
        <ele>82.800003051758</ele>
        <time>2023-12-19T14:55:23Z</time>
      </trkpt>
      <trkpt lat="43.45284" lon="3.51121">
        <ele>83</ele>
        <time>2023-12-19T14:55:24Z</time>
      </trkpt>
      <trkpt lat="43.45283" lon="3.5112">
        <ele>83.199996948242</ele>
        <time>2023-12-19T14:55:25Z</time>
      </trkpt>
      <trkpt lat="43.45281" lon="3.51118">
        <ele>83.599998474121</ele>
        <time>2023-12-19T14:55:26Z</time>
      </trkpt>
      <trkpt lat="43.45279" lon="3.51118">
        <ele>83.800003051758</ele>
        <time>2023-12-19T14:55:27Z</time>
      </trkpt>
      <trkpt lat="43.45277" lon="3.51116">
        <ele>84</ele>
        <time>2023-12-19T14:55:28Z</time>
      </trkpt>
      <trkpt lat="43.45275" lon="3.51115">
        <ele>84.400001525879</ele>
        <time>2023-12-19T14:55:29Z</time>
      </trkpt>
      <trkpt lat="43.45274" lon="3.51114">
        <ele>84.800003051758</ele>
        <time>2023-12-19T14:55:30Z</time>
      </trkpt>
      <trkpt lat="43.45272" lon="3.51112">
        <ele>85</ele>
        <time>2023-12-19T14:55:31Z</time>
      </trkpt>
      <trkpt lat="43.4527" lon="3.51111">
        <ele>85.599998474121</ele>
        <time>2023-12-19T14:55:32Z</time>
      </trkpt>
      <trkpt lat="43.45268" lon="3.51112">
        <ele>86</ele>
        <time>2023-12-19T14:55:33Z</time>
      </trkpt>
      <trkpt lat="43.45266" lon="3.51112">
        <ele>86.400001525879</ele>
        <time>2023-12-19T14:55:34Z</time>
      </trkpt>
      <trkpt lat="43.45264" lon="3.51111">
        <ele>86.800003051758</ele>
        <time>2023-12-19T14:55:35Z</time>
      </trkpt>
      <trkpt lat="43.45261" lon="3.5111">
        <ele>87.199996948242</ele>
        <time>2023-12-19T14:55:36Z</time>
      </trkpt>
      <trkpt lat="43.45259" lon="3.5111">
        <ele>87.599998474121</ele>
        <time>2023-12-19T14:55:37Z</time>
      </trkpt>
      <trkpt lat="43.45256" lon="3.51111">
        <ele>88</ele>
        <time>2023-12-19T14:55:38Z</time>
      </trkpt>
      <trkpt lat="43.45253" lon="3.51111">
        <ele>88.199996948242</ele>
        <time>2023-12-19T14:55:39Z</time>
      </trkpt>
      <trkpt lat="43.4525" lon="3.51111">
        <ele>88.599998474121</ele>
        <time>2023-12-19T14:55:40Z</time>
      </trkpt>
      <trkpt lat="43.45247" lon="3.51111">
        <ele>89</ele>
        <time>2023-12-19T14:55:41Z</time>
      </trkpt>
      <trkpt lat="43.45244" lon="3.5111">
        <ele>89.199996948242</ele>
        <time>2023-12-19T14:55:42Z</time>
      </trkpt>
      <trkpt lat="43.45242" lon="3.5111">
        <ele>89.400001525879</ele>
        <time>2023-12-19T14:55:43Z</time>
      </trkpt>
      <trkpt lat="43.4524" lon="3.5111">
        <ele>89.599998474121</ele>
        <time>2023-12-19T14:55:44Z</time>
      </trkpt>
      <trkpt lat="43.45238" lon="3.51109">
        <ele>89.800003051758</ele>
        <time>2023-12-19T14:55:45Z</time>
      </trkpt>
      <trkpt lat="43.45236" lon="3.51109">
        <ele>90</ele>
        <time>2023-12-19T14:55:46Z</time>
      </trkpt>
      <trkpt lat="43.45233" lon="3.5111">
        <ele>90.400001525879</ele>
        <time>2023-12-19T14:55:47Z</time>
      </trkpt>
      <trkpt lat="43.45231" lon="3.51109">
        <ele>90.599998474121</ele>
        <time>2023-12-19T14:55:48Z</time>
      </trkpt>
      <trkpt lat="43.45229" lon="3.51108">
        <ele>90.800003051758</ele>
        <time>2023-12-19T14:55:49Z</time>
      </trkpt>
      <trkpt lat="43.45227" lon="3.51107">
        <ele>91</ele>
        <time>2023-12-19T14:55:50Z</time>
      </trkpt>
      <trkpt lat="43.45224" lon="3.51107">
        <ele>91.199996948242</ele>
        <time>2023-12-19T14:55:51Z</time>
      </trkpt>
      <trkpt lat="43.45222" lon="3.51106">
        <ele>91.400001525879</ele>
        <time>2023-12-19T14:55:52Z</time>
      </trkpt>
      <trkpt lat="43.45219" lon="3.51106">
        <ele>91.800003051758</ele>
        <time>2023-12-19T14:55:53Z</time>
      </trkpt>
      <trkpt lat="43.45217" lon="3.51106">
        <ele>92</ele>
        <time>2023-12-19T14:55:54Z</time>
      </trkpt>
      <trkpt lat="43.45215" lon="3.51106">
        <ele>92.199996948242</ele>
        <time>2023-12-19T14:55:55Z</time>
      </trkpt>
      <trkpt lat="43.45213" lon="3.51108">
        <ele>92.599998474121</ele>
        <time>2023-12-19T14:55:56Z</time>
      </trkpt>
      <trkpt lat="43.45211" lon="3.51109">
        <ele>92.800003051758</ele>
        <time>2023-12-19T14:55:57Z</time>
      </trkpt>
      <trkpt lat="43.45207" lon="3.5111">
        <ele>93.199996948242</ele>
        <time>2023-12-19T14:55:58Z</time>
      </trkpt>
      <trkpt lat="43.45204" lon="3.5111">
        <ele>93.400001525879</ele>
        <time>2023-12-19T14:55:59Z</time>
      </trkpt>
      <trkpt lat="43.45201" lon="3.5111">
        <ele>93.599998474121</ele>
        <time>2023-12-19T14:56:00Z</time>
      </trkpt>
      <trkpt lat="43.45198" lon="3.5111">
        <ele>93.599998474121</ele>
        <time>2023-12-19T14:56:01Z</time>
      </trkpt>
      <trkpt lat="43.45196" lon="3.5111">
        <ele>93.599998474121</ele>
        <time>2023-12-19T14:56:02Z</time>
      </trkpt>
      <trkpt lat="43.45193" lon="3.5111">
        <ele>93.599998474121</ele>
        <time>2023-12-19T14:56:03Z</time>
      </trkpt>
      <trkpt lat="43.45189" lon="3.5111">
        <ele>93.599998474121</ele>
        <time>2023-12-19T14:56:04Z</time>
      </trkpt>
      <trkpt lat="43.45187" lon="3.5111">
        <ele>93.800003051758</ele>
        <time>2023-12-19T14:56:05Z</time>
      </trkpt>
      <trkpt lat="43.45183" lon="3.51111">
        <ele>94</ele>
        <time>2023-12-19T14:56:06Z</time>
      </trkpt>
      <trkpt lat="43.4518" lon="3.5111">
        <ele>94.199996948242</ele>
        <time>2023-12-19T14:56:07Z</time>
      </trkpt>
      <trkpt lat="43.45178" lon="3.51109">
        <ele>94.599998474121</ele>
        <time>2023-12-19T14:56:08Z</time>
      </trkpt>
      <trkpt lat="43.45174" lon="3.51108">
        <ele>94.800003051758</ele>
        <time>2023-12-19T14:56:09Z</time>
      </trkpt>
      <trkpt lat="43.45171" lon="3.51109">
        <ele>95.199996948242</ele>
        <time>2023-12-19T14:56:10Z</time>
      </trkpt>
      <trkpt lat="43.45168" lon="3.51108">
        <ele>95.599998474121</ele>
        <time>2023-12-19T14:56:11Z</time>
      </trkpt>
      <trkpt lat="43.45165" lon="3.51109">
        <ele>95.800003051758</ele>
        <time>2023-12-19T14:56:12Z</time>
      </trkpt>
      <trkpt lat="43.45162" lon="3.51109">
        <ele>96.199996948242</ele>
        <time>2023-12-19T14:56:13Z</time>
      </trkpt>
      <trkpt lat="43.45159" lon="3.5111">
        <ele>96.599998474121</ele>
        <time>2023-12-19T14:56:14Z</time>
      </trkpt>
      <trkpt lat="43.45156" lon="3.51109">
        <ele>96.800003051758</ele>
        <time>2023-12-19T14:56:15Z</time>
      </trkpt>
      <trkpt lat="43.45153" lon="3.51109">
        <ele>97</ele>
        <time>2023-12-19T14:56:16Z</time>
      </trkpt>
      <trkpt lat="43.45149" lon="3.51109">
        <ele>97.400001525879</ele>
        <time>2023-12-19T14:56:17Z</time>
      </trkpt>
      <trkpt lat="43.45146" lon="3.51111">
        <ele>97.800003051758</ele>
        <time>2023-12-19T14:56:18Z</time>
      </trkpt>
      <trkpt lat="43.45143" lon="3.51113">
        <ele>98</ele>
        <time>2023-12-19T14:56:19Z</time>
      </trkpt>
      <trkpt lat="43.4514" lon="3.51116">
        <ele>98.400001525879</ele>
        <time>2023-12-19T14:56:20Z</time>
      </trkpt>
      <trkpt lat="43.45136" lon="3.51119">
        <ele>98.800003051758</ele>
        <time>2023-12-19T14:56:21Z</time>
      </trkpt>
      <trkpt lat="43.45132" lon="3.51121">
        <ele>99.199996948242</ele>
        <time>2023-12-19T14:56:22Z</time>
      </trkpt>
      <trkpt lat="43.45128" lon="3.51122">
        <ele>99.400001525879</ele>
        <time>2023-12-19T14:56:23Z</time>
      </trkpt>
      <trkpt lat="43.45124" lon="3.51123">
        <ele>99.400001525879</ele>
        <time>2023-12-19T14:56:24Z</time>
      </trkpt>
      <trkpt lat="43.4512" lon="3.51124">
        <ele>99.400001525879</ele>
        <time>2023-12-19T14:56:25Z</time>
      </trkpt>
      <trkpt lat="43.45117" lon="3.51124">
        <ele>99.400001525879</ele>
        <time>2023-12-19T14:56:26Z</time>
      </trkpt>
      <trkpt lat="43.45114" lon="3.51123">
        <ele>99.599998474121</ele>
        <time>2023-12-19T14:56:27Z</time>
      </trkpt>
      <trkpt lat="43.45112" lon="3.51122">
        <ele>99.599998474121</ele>
        <time>2023-12-19T14:56:28Z</time>
      </trkpt>
      <trkpt lat="43.45109" lon="3.5112">
        <ele>99.599998474121</ele>
        <time>2023-12-19T14:56:29Z</time>
      </trkpt>
      <trkpt lat="43.45106" lon="3.51118">
        <ele>99.800003051758</ele>
        <time>2023-12-19T14:56:30Z</time>
      </trkpt>
      <trkpt lat="43.45103" lon="3.51114">
        <ele>100</ele>
        <time>2023-12-19T14:56:31Z</time>
      </trkpt>
      <trkpt lat="43.45101" lon="3.5111">
        <ele>100.19999694824</ele>
        <time>2023-12-19T14:56:32Z</time>
      </trkpt>
      <trkpt lat="43.45097" lon="3.51108">
        <ele>100.59999847412</ele>
        <time>2023-12-19T14:56:33Z</time>
      </trkpt>
      <trkpt lat="43.45094" lon="3.51107">
        <ele>100.80000305176</ele>
        <time>2023-12-19T14:56:34Z</time>
      </trkpt>
      <trkpt lat="43.45091" lon="3.51106">
        <ele>101</ele>
        <time>2023-12-19T14:56:35Z</time>
      </trkpt>
      <trkpt lat="43.45088" lon="3.51104">
        <ele>101</ele>
        <time>2023-12-19T14:56:36Z</time>
      </trkpt>
      <trkpt lat="43.45086" lon="3.51101">
        <ele>101</ele>
        <time>2023-12-19T14:56:37Z</time>
      </trkpt>
      <trkpt lat="43.45084" lon="3.51098">
        <ele>101</ele>
        <time>2023-12-19T14:56:38Z</time>
      </trkpt>
      <trkpt lat="43.45083" lon="3.51096">
        <ele>101</ele>
        <time>2023-12-19T14:56:39Z</time>
      </trkpt>
      <trkpt lat="43.45081" lon="3.51094">
        <ele>101</ele>
        <time>2023-12-19T14:56:40Z</time>
      </trkpt>
      <trkpt lat="43.45079" lon="3.51093">
        <ele>101</ele>
        <time>2023-12-19T14:56:41Z</time>
      </trkpt>
      <trkpt lat="43.45079" lon="3.51093">
        <ele>100.80000305176</ele>
        <time>2023-12-19T14:56:42Z</time>
      </trkpt>
      <trkpt lat="43.45078" lon="3.51092">
        <ele>100.80000305176</ele>
        <time>2023-12-19T14:56:43Z</time>
      </trkpt>
      <trkpt lat="43.45074" lon="3.51091">
        <ele>100.19999694824</ele>
        <time>2023-12-19T14:58:20Z</time>
      </trkpt>
      <trkpt lat="43.45072" lon="3.51093">
        <ele>100</ele>
        <time>2023-12-19T14:58:21Z</time>
      </trkpt>
      <trkpt lat="43.45069" lon="3.51094">
        <ele>100</ele>
        <time>2023-12-19T14:58:22Z</time>
      </trkpt>
      <trkpt lat="43.45066" lon="3.51095">
        <ele>100</ele>
        <time>2023-12-19T14:58:23Z</time>
      </trkpt>
      <trkpt lat="43.45062" lon="3.51096">
        <ele>100.19999694824</ele>
        <time>2023-12-19T14:58:24Z</time>
      </trkpt>
      <trkpt lat="43.45059" lon="3.51099">
        <ele>100.19999694824</ele>
        <time>2023-12-19T14:58:25Z</time>
      </trkpt>
      <trkpt lat="43.45055" lon="3.51102">
        <ele>100.40000152588</ele>
        <time>2023-12-19T14:58:26Z</time>
      </trkpt>
      <trkpt lat="43.45052" lon="3.51105">
        <ele>100.40000152588</ele>
        <time>2023-12-19T14:58:27Z</time>
      </trkpt>
      <trkpt lat="43.45049" lon="3.51108">
        <ele>100.40000152588</ele>
        <time>2023-12-19T14:58:28Z</time>
      </trkpt>
      <trkpt lat="43.45045" lon="3.51111">
        <ele>100.40000152588</ele>
        <time>2023-12-19T14:58:29Z</time>
      </trkpt>
      <trkpt lat="43.45042" lon="3.51114">
        <ele>100.40000152588</ele>
        <time>2023-12-19T14:58:30Z</time>
      </trkpt>
      <trkpt lat="43.45038" lon="3.51117">
        <ele>100.59999847412</ele>
        <time>2023-12-19T14:58:31Z</time>
      </trkpt>
      <trkpt lat="43.45035" lon="3.51119">
        <ele>101</ele>
        <time>2023-12-19T14:58:32Z</time>
      </trkpt>
      <trkpt lat="43.45032" lon="3.51121">
        <ele>101.40000152588</ele>
        <time>2023-12-19T14:58:33Z</time>
      </trkpt>
      <trkpt lat="43.45029" lon="3.51122">
        <ele>101.80000305176</ele>
        <time>2023-12-19T14:58:34Z</time>
      </trkpt>
      <trkpt lat="43.45026" lon="3.51123">
        <ele>102</ele>
        <time>2023-12-19T14:58:35Z</time>
      </trkpt>
      <trkpt lat="43.45022" lon="3.51125">
        <ele>102.19999694824</ele>
        <time>2023-12-19T14:58:36Z</time>
      </trkpt>
      <trkpt lat="43.45019" lon="3.51125">
        <ele>102.40000152588</ele>
        <time>2023-12-19T14:58:37Z</time>
      </trkpt>
      <trkpt lat="43.45015" lon="3.51125">
        <ele>102.59999847412</ele>
        <time>2023-12-19T14:58:38Z</time>
      </trkpt>
      <trkpt lat="43.45011" lon="3.51125">
        <ele>102.80000305176</ele>
        <time>2023-12-19T14:58:39Z</time>
      </trkpt>
      <trkpt lat="43.45008" lon="3.51124">
        <ele>102.80000305176</ele>
        <time>2023-12-19T14:58:40Z</time>
      </trkpt>
      <trkpt lat="43.45005" lon="3.51124">
        <ele>102.80000305176</ele>
        <time>2023-12-19T14:58:41Z</time>
      </trkpt>
      <trkpt lat="43.45002" lon="3.51123">
        <ele>102.80000305176</ele>
        <time>2023-12-19T14:58:42Z</time>
      </trkpt>
      <trkpt lat="43.44998" lon="3.51122">
        <ele>102.80000305176</ele>
        <time>2023-12-19T14:58:43Z</time>
      </trkpt>
      <trkpt lat="43.44995" lon="3.51121">
        <ele>102.80000305176</ele>
        <time>2023-12-19T14:58:44Z</time>
      </trkpt>
      <trkpt lat="43.44992" lon="3.51119">
        <ele>102.80000305176</ele>
        <time>2023-12-19T14:58:45Z</time>
      </trkpt>
      <trkpt lat="43.4499" lon="3.51117">
        <ele>102.80000305176</ele>
        <time>2023-12-19T14:58:46Z</time>
      </trkpt>
      <trkpt lat="43.44987" lon="3.51114">
        <ele>102.80000305176</ele>
        <time>2023-12-19T14:58:47Z</time>
      </trkpt>
      <trkpt lat="43.44984" lon="3.51112">
        <ele>102.59999847412</ele>
        <time>2023-12-19T14:58:48Z</time>
      </trkpt>
      <trkpt lat="43.44981" lon="3.5111">
        <ele>102.40000152588</ele>
        <time>2023-12-19T14:58:49Z</time>
      </trkpt>
      <trkpt lat="43.44978" lon="3.51108">
        <ele>102.19999694824</ele>
        <time>2023-12-19T14:58:50Z</time>
      </trkpt>
      <trkpt lat="43.44976" lon="3.51105">
        <ele>102</ele>
        <time>2023-12-19T14:58:51Z</time>
      </trkpt>
      <trkpt lat="43.44974" lon="3.51101">
        <ele>102</ele>
        <time>2023-12-19T14:58:52Z</time>
      </trkpt>
      <trkpt lat="43.44972" lon="3.51096">
        <ele>101.80000305176</ele>
        <time>2023-12-19T14:58:53Z</time>
      </trkpt>
      <trkpt lat="43.4497" lon="3.51092">
        <ele>101.59999847412</ele>
        <time>2023-12-19T14:58:54Z</time>
      </trkpt>
      <trkpt lat="43.44968" lon="3.51088">
        <ele>101.19999694824</ele>
        <time>2023-12-19T14:58:55Z</time>
      </trkpt>
      <trkpt lat="43.44965" lon="3.51084">
        <ele>101</ele>
        <time>2023-12-19T14:58:56Z</time>
      </trkpt>
      <trkpt lat="43.44962" lon="3.5108">
        <ele>100.59999847412</ele>
        <time>2023-12-19T14:58:57Z</time>
      </trkpt>
      <trkpt lat="43.44959" lon="3.51076">
        <ele>100.40000152588</ele>
        <time>2023-12-19T14:58:58Z</time>
      </trkpt>
      <trkpt lat="43.44957" lon="3.51072">
        <ele>100</ele>
        <time>2023-12-19T14:58:59Z</time>
      </trkpt>
      <trkpt lat="43.44954" lon="3.51069">
        <ele>99.800003051758</ele>
        <time>2023-12-19T14:59:00Z</time>
      </trkpt>
      <trkpt lat="43.44951" lon="3.51066">
        <ele>99.400001525879</ele>
        <time>2023-12-19T14:59:01Z</time>
      </trkpt>
      <trkpt lat="43.44947" lon="3.51064">
        <ele>99.199996948242</ele>
        <time>2023-12-19T14:59:02Z</time>
      </trkpt>
      <trkpt lat="43.44944" lon="3.51063">
        <ele>99</ele>
        <time>2023-12-19T14:59:03Z</time>
      </trkpt>
      <trkpt lat="43.4494" lon="3.51062">
        <ele>98.800003051758</ele>
        <time>2023-12-19T14:59:04Z</time>
      </trkpt>
      <trkpt lat="43.44937" lon="3.51059">
        <ele>98.599998474121</ele>
        <time>2023-12-19T14:59:05Z</time>
      </trkpt>
      <trkpt lat="43.44935" lon="3.51055">
        <ele>98.199996948242</ele>
        <time>2023-12-19T14:59:06Z</time>
      </trkpt>
      <trkpt lat="43.44934" lon="3.5105">
        <ele>98</ele>
        <time>2023-12-19T14:59:07Z</time>
      </trkpt>
      <trkpt lat="43.44933" lon="3.51045">
        <ele>97.800003051758</ele>
        <time>2023-12-19T14:59:08Z</time>
      </trkpt>
      <trkpt lat="43.44933" lon="3.5104">
        <ele>97.599998474121</ele>
        <time>2023-12-19T14:59:09Z</time>
      </trkpt>
      <trkpt lat="43.44933" lon="3.51037">
        <ele>97.400001525879</ele>
        <time>2023-12-19T14:59:10Z</time>
      </trkpt>
      <trkpt lat="43.44934" lon="3.51033">
        <ele>97.400001525879</ele>
        <time>2023-12-19T14:59:11Z</time>
      </trkpt>
      <trkpt lat="43.44936" lon="3.51029">
        <ele>97.400001525879</ele>
        <time>2023-12-19T14:59:12Z</time>
      </trkpt>
      <trkpt lat="43.44938" lon="3.51026">
        <ele>97.199996948242</ele>
        <time>2023-12-19T14:59:13Z</time>
      </trkpt>
      <trkpt lat="43.44941" lon="3.51022">
        <ele>97.199996948242</ele>
        <time>2023-12-19T14:59:14Z</time>
      </trkpt>
      <trkpt lat="43.44942" lon="3.51018">
        <ele>97.199996948242</ele>
        <time>2023-12-19T14:59:15Z</time>
      </trkpt>
      <trkpt lat="43.44943" lon="3.51014">
        <ele>97</ele>
        <time>2023-12-19T14:59:16Z</time>
      </trkpt>
      <trkpt lat="43.44944" lon="3.5101">
        <ele>97</ele>
        <time>2023-12-19T14:59:17Z</time>
      </trkpt>
      <trkpt lat="43.44945" lon="3.51005">
        <ele>97</ele>
        <time>2023-12-19T14:59:18Z</time>
      </trkpt>
      <trkpt lat="43.44945" lon="3.51001">
        <ele>97</ele>
        <time>2023-12-19T14:59:19Z</time>
      </trkpt>
      <trkpt lat="43.44946" lon="3.50997">
        <ele>96.800003051758</ele>
        <time>2023-12-19T14:59:20Z</time>
      </trkpt>
      <trkpt lat="43.44947" lon="3.50992">
        <ele>96.800003051758</ele>
        <time>2023-12-19T14:59:21Z</time>
      </trkpt>
      <trkpt lat="43.44948" lon="3.50988">
        <ele>96.800003051758</ele>
        <time>2023-12-19T14:59:22Z</time>
      </trkpt>
      <trkpt lat="43.44948" lon="3.50983">
        <ele>96.800003051758</ele>
        <time>2023-12-19T14:59:23Z</time>
      </trkpt>
      <trkpt lat="43.44948" lon="3.50978">
        <ele>96.800003051758</ele>
        <time>2023-12-19T14:59:24Z</time>
      </trkpt>
      <trkpt lat="43.44947" lon="3.50974">
        <ele>97</ele>
        <time>2023-12-19T14:59:25Z</time>
      </trkpt>
      <trkpt lat="43.44946" lon="3.5097">
        <ele>97</ele>
        <time>2023-12-19T14:59:26Z</time>
      </trkpt>
      <trkpt lat="43.44943" lon="3.50968">
        <ele>97</ele>
        <time>2023-12-19T14:59:27Z</time>
      </trkpt>
      <trkpt lat="43.4494" lon="3.50967">
        <ele>97</ele>
        <time>2023-12-19T14:59:28Z</time>
      </trkpt>
      <trkpt lat="43.44938" lon="3.50967">
        <ele>97</ele>
        <time>2023-12-19T14:59:29Z</time>
      </trkpt>
      <trkpt lat="43.44935" lon="3.50969">
        <ele>97</ele>
        <time>2023-12-19T14:59:30Z</time>
      </trkpt>
      <trkpt lat="43.44933" lon="3.50972">
        <ele>97.199996948242</ele>
        <time>2023-12-19T14:59:31Z</time>
      </trkpt>
      <trkpt lat="43.4493" lon="3.50975">
        <ele>97.199996948242</ele>
        <time>2023-12-19T14:59:32Z</time>
      </trkpt>
      <trkpt lat="43.44928" lon="3.50978">
        <ele>97.199996948242</ele>
        <time>2023-12-19T14:59:33Z</time>
      </trkpt>
      <trkpt lat="43.44924" lon="3.50981">
        <ele>97.199996948242</ele>
        <time>2023-12-19T14:59:34Z</time>
      </trkpt>
      <trkpt lat="43.44919" lon="3.50983">
        <ele>97.400001525879</ele>
        <time>2023-12-19T14:59:35Z</time>
      </trkpt>
      <trkpt lat="43.44915" lon="3.50983">
        <ele>97.400001525879</ele>
        <time>2023-12-19T14:59:36Z</time>
      </trkpt>
      <trkpt lat="43.44911" lon="3.50984">
        <ele>97.400001525879</ele>
        <time>2023-12-19T14:59:37Z</time>
      </trkpt>
      <trkpt lat="43.44907" lon="3.50985">
        <ele>97.599998474121</ele>
        <time>2023-12-19T14:59:38Z</time>
      </trkpt>
      <trkpt lat="43.44903" lon="3.50985">
        <ele>97.800003051758</ele>
        <time>2023-12-19T14:59:39Z</time>
      </trkpt>
      <trkpt lat="43.44899" lon="3.50986">
        <ele>98</ele>
        <time>2023-12-19T14:59:40Z</time>
      </trkpt>
      <trkpt lat="43.44895" lon="3.50986">
        <ele>98.199996948242</ele>
        <time>2023-12-19T14:59:41Z</time>
      </trkpt>
      <trkpt lat="43.44892" lon="3.50988">
        <ele>98.400001525879</ele>
        <time>2023-12-19T14:59:42Z</time>
      </trkpt>
      <trkpt lat="43.44889" lon="3.50989">
        <ele>98.800003051758</ele>
        <time>2023-12-19T14:59:43Z</time>
      </trkpt>
      <trkpt lat="43.44886" lon="3.50991">
        <ele>99</ele>
        <time>2023-12-19T14:59:44Z</time>
      </trkpt>
      <trkpt lat="43.44883" lon="3.50994">
        <ele>99.199996948242</ele>
        <time>2023-12-19T14:59:45Z</time>
      </trkpt>
      <trkpt lat="43.4488" lon="3.50996">
        <ele>99.599998474121</ele>
        <time>2023-12-19T14:59:46Z</time>
      </trkpt>
      <trkpt lat="43.44876" lon="3.50999">
        <ele>99.599998474121</ele>
        <time>2023-12-19T14:59:47Z</time>
      </trkpt>
      <trkpt lat="43.44873" lon="3.51002">
        <ele>99.800003051758</ele>
        <time>2023-12-19T14:59:48Z</time>
      </trkpt>
      <trkpt lat="43.44869" lon="3.51004">
        <ele>100</ele>
        <time>2023-12-19T14:59:49Z</time>
      </trkpt>
      <trkpt lat="43.44865" lon="3.51006">
        <ele>100.19999694824</ele>
        <time>2023-12-19T14:59:50Z</time>
      </trkpt>
      <trkpt lat="43.44861" lon="3.51007">
        <ele>100.59999847412</ele>
        <time>2023-12-19T14:59:51Z</time>
      </trkpt>
      <trkpt lat="43.44857" lon="3.51008">
        <ele>100.59999847412</ele>
        <time>2023-12-19T14:59:52Z</time>
      </trkpt>
      <trkpt lat="43.44853" lon="3.51009">
        <ele>100.80000305176</ele>
        <time>2023-12-19T14:59:53Z</time>
      </trkpt>
      <trkpt lat="43.4485" lon="3.5101">
        <ele>100.80000305176</ele>
        <time>2023-12-19T14:59:54Z</time>
      </trkpt>
      <trkpt lat="43.44847" lon="3.51011">
        <ele>100.80000305176</ele>
        <time>2023-12-19T14:59:55Z</time>
      </trkpt>
      <trkpt lat="43.44843" lon="3.51013">
        <ele>100.80000305176</ele>
        <time>2023-12-19T14:59:56Z</time>
      </trkpt>
      <trkpt lat="43.44839" lon="3.51013">
        <ele>100.80000305176</ele>
        <time>2023-12-19T14:59:57Z</time>
      </trkpt>
      <trkpt lat="43.44836" lon="3.51014">
        <ele>100.80000305176</ele>
        <time>2023-12-19T14:59:58Z</time>
      </trkpt>
      <trkpt lat="43.44832" lon="3.51014">
        <ele>101</ele>
        <time>2023-12-19T14:59:59Z</time>
      </trkpt>
      <trkpt lat="43.44828" lon="3.51014">
        <ele>101</ele>
        <time>2023-12-19T15:00:00Z</time>
      </trkpt>
      <trkpt lat="43.44824" lon="3.51014">
        <ele>101</ele>
        <time>2023-12-19T15:00:01Z</time>
      </trkpt>
      <trkpt lat="43.44821" lon="3.51014">
        <ele>101.19999694824</ele>
        <time>2023-12-19T15:00:02Z</time>
      </trkpt>
      <trkpt lat="43.44817" lon="3.51013">
        <ele>101.19999694824</ele>
        <time>2023-12-19T15:00:03Z</time>
      </trkpt>
      <trkpt lat="43.44815" lon="3.51011">
        <ele>101.19999694824</ele>
        <time>2023-12-19T15:00:04Z</time>
      </trkpt>
      <trkpt lat="43.44812" lon="3.51009">
        <ele>101.19999694824</ele>
        <time>2023-12-19T15:00:05Z</time>
      </trkpt>
      <trkpt lat="43.44811" lon="3.51007">
        <ele>101.19999694824</ele>
        <time>2023-12-19T15:00:06Z</time>
      </trkpt>
      <trkpt lat="43.44809" lon="3.51004">
        <ele>101.19999694824</ele>
        <time>2023-12-19T15:00:07Z</time>
      </trkpt>
      <trkpt lat="43.44808" lon="3.51001">
        <ele>101.19999694824</ele>
        <time>2023-12-19T15:00:08Z</time>
      </trkpt>
      <trkpt lat="43.44806" lon="3.50998">
        <ele>101.19999694824</ele>
        <time>2023-12-19T15:00:09Z</time>
      </trkpt>
      <trkpt lat="43.44805" lon="3.50995">
        <ele>101</ele>
        <time>2023-12-19T15:00:10Z</time>
      </trkpt>
      <trkpt lat="43.44805" lon="3.50991">
        <ele>101</ele>
        <time>2023-12-19T15:00:11Z</time>
      </trkpt>
      <trkpt lat="43.44804" lon="3.50986">
        <ele>101</ele>
        <time>2023-12-19T15:00:12Z</time>
      </trkpt>
      <trkpt lat="43.44804" lon="3.50981">
        <ele>101</ele>
        <time>2023-12-19T15:00:13Z</time>
      </trkpt>
      <trkpt lat="43.44803" lon="3.50976">
        <ele>101.19999694824</ele>
        <time>2023-12-19T15:00:14Z</time>
      </trkpt>
      <trkpt lat="43.44802" lon="3.50971">
        <ele>101.19999694824</ele>
        <time>2023-12-19T15:00:15Z</time>
      </trkpt>
      <trkpt lat="43.44801" lon="3.50966">
        <ele>101.19999694824</ele>
        <time>2023-12-19T15:00:16Z</time>
      </trkpt>
      <trkpt lat="43.448" lon="3.50962">
        <ele>101.19999694824</ele>
        <time>2023-12-19T15:00:17Z</time>
      </trkpt>
      <trkpt lat="43.44797" lon="3.50958">
        <ele>101.19999694824</ele>
        <time>2023-12-19T15:00:18Z</time>
      </trkpt>
      <trkpt lat="43.44794" lon="3.50956">
        <ele>101.19999694824</ele>
        <time>2023-12-19T15:00:19Z</time>
      </trkpt>
      <trkpt lat="43.44791" lon="3.50954">
        <ele>101</ele>
        <time>2023-12-19T15:00:20Z</time>
      </trkpt>
      <trkpt lat="43.44789" lon="3.5095">
        <ele>101</ele>
        <time>2023-12-19T15:00:21Z</time>
      </trkpt>
      <trkpt lat="43.44787" lon="3.50946">
        <ele>101</ele>
        <time>2023-12-19T15:00:22Z</time>
      </trkpt>
      <trkpt lat="43.44786" lon="3.50941">
        <ele>101</ele>
        <time>2023-12-19T15:00:23Z</time>
      </trkpt>
      <trkpt lat="43.44786" lon="3.50935">
        <ele>101</ele>
        <time>2023-12-19T15:00:24Z</time>
      </trkpt>
      <trkpt lat="43.44786" lon="3.5093">
        <ele>100.80000305176</ele>
        <time>2023-12-19T15:00:25Z</time>
      </trkpt>
      <trkpt lat="43.44787" lon="3.50926">
        <ele>100.59999847412</ele>
        <time>2023-12-19T15:00:26Z</time>
      </trkpt>
      <trkpt lat="43.44788" lon="3.50922">
        <ele>100.40000152588</ele>
        <time>2023-12-19T15:00:27Z</time>
      </trkpt>
      <trkpt lat="43.44789" lon="3.50918">
        <ele>100</ele>
        <time>2023-12-19T15:00:28Z</time>
      </trkpt>
      <trkpt lat="43.4479" lon="3.50914">
        <ele>99.800003051758</ele>
        <time>2023-12-19T15:00:29Z</time>
      </trkpt>
      <trkpt lat="43.4479" lon="3.5091">
        <ele>99.599998474121</ele>
        <time>2023-12-19T15:00:30Z</time>
      </trkpt>
      <trkpt lat="43.4479" lon="3.50905">
        <ele>99.400001525879</ele>
        <time>2023-12-19T15:00:31Z</time>
      </trkpt>
      <trkpt lat="43.4479" lon="3.50901">
        <ele>99.400001525879</ele>
        <time>2023-12-19T15:00:32Z</time>
      </trkpt>
      <trkpt lat="43.44789" lon="3.50897">
        <ele>99.400001525879</ele>
        <time>2023-12-19T15:00:33Z</time>
      </trkpt>
      <trkpt lat="43.44786" lon="3.50894">
        <ele>99.199996948242</ele>
        <time>2023-12-19T15:00:34Z</time>
      </trkpt>
      <trkpt lat="43.44784" lon="3.50891">
        <ele>99.199996948242</ele>
        <time>2023-12-19T15:00:35Z</time>
      </trkpt>
      <trkpt lat="43.44782" lon="3.5089">
        <ele>99.199996948242</ele>
        <time>2023-12-19T15:00:36Z</time>
      </trkpt>
      <trkpt lat="43.4478" lon="3.5089">
        <ele>99</ele>
        <time>2023-12-19T15:00:37Z</time>
      </trkpt>
      <trkpt lat="43.44779" lon="3.5089">
        <ele>98.800003051758</ele>
        <time>2023-12-19T15:00:38Z</time>
      </trkpt>
      <trkpt lat="43.44778" lon="3.50891">
        <ele>98.800003051758</ele>
        <time>2023-12-19T15:00:39Z</time>
      </trkpt>
      <trkpt lat="43.44777" lon="3.50893">
        <ele>98.800003051758</ele>
        <time>2023-12-19T15:00:40Z</time>
      </trkpt>
      <trkpt lat="43.44775" lon="3.50896">
        <ele>98.800003051758</ele>
        <time>2023-12-19T15:00:41Z</time>
      </trkpt>
      <trkpt lat="43.44773" lon="3.50898">
        <ele>98.800003051758</ele>
        <time>2023-12-19T15:00:42Z</time>
      </trkpt>
      <trkpt lat="43.4477" lon="3.509">
        <ele>98.599998474121</ele>
        <time>2023-12-19T15:00:43Z</time>
      </trkpt>
      <trkpt lat="43.44768" lon="3.50901">
        <ele>98.599998474121</ele>
        <time>2023-12-19T15:00:44Z</time>
      </trkpt>
      <trkpt lat="43.44766" lon="3.50903">
        <ele>98.400001525879</ele>
        <time>2023-12-19T15:00:45Z</time>
      </trkpt>
      <trkpt lat="43.44763" lon="3.50904">
        <ele>98.199996948242</ele>
        <time>2023-12-19T15:00:46Z</time>
      </trkpt>
      <trkpt lat="43.44762" lon="3.50906">
        <ele>98.199996948242</ele>
        <time>2023-12-19T15:00:47Z</time>
      </trkpt>
      <trkpt lat="43.4476" lon="3.50908">
        <ele>98</ele>
        <time>2023-12-19T15:00:48Z</time>
      </trkpt>
      <trkpt lat="43.44758" lon="3.50909">
        <ele>98</ele>
        <time>2023-12-19T15:00:49Z</time>
      </trkpt>
      <trkpt lat="43.44756" lon="3.50911">
        <ele>97.800003051758</ele>
        <time>2023-12-19T15:00:50Z</time>
      </trkpt>
      <trkpt lat="43.44752" lon="3.50913">
        <ele>97.800003051758</ele>
        <time>2023-12-19T15:00:51Z</time>
      </trkpt>
      <trkpt lat="43.44749" lon="3.50915">
        <ele>97.800003051758</ele>
        <time>2023-12-19T15:00:52Z</time>
      </trkpt>
      <trkpt lat="43.44746" lon="3.50917">
        <ele>97.599998474121</ele>
        <time>2023-12-19T15:00:53Z</time>
      </trkpt>
      <trkpt lat="43.44742" lon="3.5092">
        <ele>97.400001525879</ele>
        <time>2023-12-19T15:00:54Z</time>
      </trkpt>
      <trkpt lat="43.44739" lon="3.50923">
        <ele>97</ele>
        <time>2023-12-19T15:00:55Z</time>
      </trkpt>
      <trkpt lat="43.44735" lon="3.50927">
        <ele>96.599998474121</ele>
        <time>2023-12-19T15:00:56Z</time>
      </trkpt>
      <trkpt lat="43.4473" lon="3.5093">
        <ele>96.400001525879</ele>
        <time>2023-12-19T15:00:57Z</time>
      </trkpt>
      <trkpt lat="43.44726" lon="3.50934">
        <ele>96.400001525879</ele>
        <time>2023-12-19T15:00:58Z</time>
      </trkpt>
      <trkpt lat="43.44723" lon="3.50937">
        <ele>96.199996948242</ele>
        <time>2023-12-19T15:00:59Z</time>
      </trkpt>
      <trkpt lat="43.44721" lon="3.50939">
        <ele>95.800003051758</ele>
        <time>2023-12-19T15:01:00Z</time>
      </trkpt>
      <trkpt lat="43.44719" lon="3.50939">
        <ele>95.400001525879</ele>
        <time>2023-12-19T15:01:01Z</time>
      </trkpt>
      <trkpt lat="43.44718" lon="3.50938">
        <ele>95.199996948242</ele>
        <time>2023-12-19T15:01:02Z</time>
      </trkpt>
      <trkpt lat="43.44716" lon="3.50937">
        <ele>94.800003051758</ele>
        <time>2023-12-19T15:01:03Z</time>
      </trkpt>
      <trkpt lat="43.44714" lon="3.50935">
        <ele>94.400001525879</ele>
        <time>2023-12-19T15:01:04Z</time>
      </trkpt>
      <trkpt lat="43.44712" lon="3.50932">
        <ele>94.199996948242</ele>
        <time>2023-12-19T15:01:05Z</time>
      </trkpt>
      <trkpt lat="43.44709" lon="3.50929">
        <ele>94</ele>
        <time>2023-12-19T15:01:06Z</time>
      </trkpt>
      <trkpt lat="43.44705" lon="3.50927">
        <ele>93.599998474121</ele>
        <time>2023-12-19T15:01:07Z</time>
      </trkpt>
      <trkpt lat="43.44702" lon="3.50925">
        <ele>93.400001525879</ele>
        <time>2023-12-19T15:01:08Z</time>
      </trkpt>
      <trkpt lat="43.44698" lon="3.50924">
        <ele>92.800003051758</ele>
        <time>2023-12-19T15:01:09Z</time>
      </trkpt>
      <trkpt lat="43.44694" lon="3.50923">
        <ele>92.400001525879</ele>
        <time>2023-12-19T15:01:10Z</time>
      </trkpt>
      <trkpt lat="43.44691" lon="3.50923">
        <ele>92.199996948242</ele>
        <time>2023-12-19T15:01:11Z</time>
      </trkpt>
      <trkpt lat="43.44687" lon="3.50924">
        <ele>92</ele>
        <time>2023-12-19T15:01:12Z</time>
      </trkpt>
      <trkpt lat="43.44684" lon="3.50924">
        <ele>91.800003051758</ele>
        <time>2023-12-19T15:01:13Z</time>
      </trkpt>
      <trkpt lat="43.4468" lon="3.50924">
        <ele>91.800003051758</ele>
        <time>2023-12-19T15:01:14Z</time>
      </trkpt>
      <trkpt lat="43.44676" lon="3.50924">
        <ele>91.800003051758</ele>
        <time>2023-12-19T15:01:15Z</time>
      </trkpt>
      <trkpt lat="43.44671" lon="3.50924">
        <ele>91.800003051758</ele>
        <time>2023-12-19T15:01:16Z</time>
      </trkpt>
      <trkpt lat="43.44667" lon="3.50923">
        <ele>91.599998474121</ele>
        <time>2023-12-19T15:01:17Z</time>
      </trkpt>
      <trkpt lat="43.44663" lon="3.50922">
        <ele>91.599998474121</ele>
        <time>2023-12-19T15:01:18Z</time>
      </trkpt>
      <trkpt lat="43.44659" lon="3.50922">
        <ele>91.599998474121</ele>
        <time>2023-12-19T15:01:19Z</time>
      </trkpt>
      <trkpt lat="43.44654" lon="3.50921">
        <ele>91.599998474121</ele>
        <time>2023-12-19T15:01:20Z</time>
      </trkpt>
      <trkpt lat="43.4465" lon="3.50922">
        <ele>91.599998474121</ele>
        <time>2023-12-19T15:01:21Z</time>
      </trkpt>
      <trkpt lat="43.44646" lon="3.50923">
        <ele>91.599998474121</ele>
        <time>2023-12-19T15:01:22Z</time>
      </trkpt>
      <trkpt lat="43.44642" lon="3.50926">
        <ele>91.599998474121</ele>
        <time>2023-12-19T15:01:23Z</time>
      </trkpt>
      <trkpt lat="43.44639" lon="3.5093">
        <ele>91.599998474121</ele>
        <time>2023-12-19T15:01:24Z</time>
      </trkpt>
      <trkpt lat="43.44635" lon="3.50933">
        <ele>91.599998474121</ele>
        <time>2023-12-19T15:01:25Z</time>
      </trkpt>
      <trkpt lat="43.44631" lon="3.50936">
        <ele>91.599998474121</ele>
        <time>2023-12-19T15:01:26Z</time>
      </trkpt>
      <trkpt lat="43.44626" lon="3.50939">
        <ele>91.800003051758</ele>
        <time>2023-12-19T15:01:27Z</time>
      </trkpt>
      <trkpt lat="43.44621" lon="3.50942">
        <ele>91.800003051758</ele>
        <time>2023-12-19T15:01:28Z</time>
      </trkpt>
      <trkpt lat="43.44616" lon="3.50944">
        <ele>91.800003051758</ele>
        <time>2023-12-19T15:01:29Z</time>
      </trkpt>
      <trkpt lat="43.44611" lon="3.50944">
        <ele>91.800003051758</ele>
        <time>2023-12-19T15:01:30Z</time>
      </trkpt>
      <trkpt lat="43.44606" lon="3.50945">
        <ele>91.800003051758</ele>
        <time>2023-12-19T15:01:31Z</time>
      </trkpt>
      <trkpt lat="43.44602" lon="3.50946">
        <ele>91.800003051758</ele>
        <time>2023-12-19T15:01:32Z</time>
      </trkpt>
      <trkpt lat="43.44598" lon="3.50947">
        <ele>91.800003051758</ele>
        <time>2023-12-19T15:01:33Z</time>
      </trkpt>
      <trkpt lat="43.44594" lon="3.5095">
        <ele>91.800003051758</ele>
        <time>2023-12-19T15:01:34Z</time>
      </trkpt>
      <trkpt lat="43.44589" lon="3.50952">
        <ele>91.800003051758</ele>
        <time>2023-12-19T15:01:35Z</time>
      </trkpt>
      <trkpt lat="43.44584" lon="3.50954">
        <ele>91.800003051758</ele>
        <time>2023-12-19T15:01:36Z</time>
      </trkpt>
      <trkpt lat="43.44579" lon="3.50955">
        <ele>91.800003051758</ele>
        <time>2023-12-19T15:01:37Z</time>
      </trkpt>
      <trkpt lat="43.44574" lon="3.50956">
        <ele>91.800003051758</ele>
        <time>2023-12-19T15:01:38Z</time>
      </trkpt>
      <trkpt lat="43.4457" lon="3.50957">
        <ele>92</ele>
        <time>2023-12-19T15:01:39Z</time>
      </trkpt>
      <trkpt lat="43.44566" lon="3.50958">
        <ele>92</ele>
        <time>2023-12-19T15:01:40Z</time>
      </trkpt>
      <trkpt lat="43.44562" lon="3.50959">
        <ele>92</ele>
        <time>2023-12-19T15:01:41Z</time>
      </trkpt>
      <trkpt lat="43.44558" lon="3.5096">
        <ele>92</ele>
        <time>2023-12-19T15:01:42Z</time>
      </trkpt>
      <trkpt lat="43.44554" lon="3.5096">
        <ele>92.199996948242</ele>
        <time>2023-12-19T15:01:43Z</time>
      </trkpt>
      <trkpt lat="43.44549" lon="3.50961">
        <ele>92.199996948242</ele>
        <time>2023-12-19T15:01:44Z</time>
      </trkpt>
      <trkpt lat="43.44544" lon="3.50962">
        <ele>92.199996948242</ele>
        <time>2023-12-19T15:01:45Z</time>
      </trkpt>
      <trkpt lat="43.44539" lon="3.50964">
        <ele>92.400001525879</ele>
        <time>2023-12-19T15:01:46Z</time>
      </trkpt>
      <trkpt lat="43.44535" lon="3.50966">
        <ele>92.400001525879</ele>
        <time>2023-12-19T15:01:47Z</time>
      </trkpt>
      <trkpt lat="43.44532" lon="3.50969">
        <ele>92.400001525879</ele>
        <time>2023-12-19T15:01:48Z</time>
      </trkpt>
      <trkpt lat="43.44528" lon="3.50972">
        <ele>92.400001525879</ele>
        <time>2023-12-19T15:01:49Z</time>
      </trkpt>
      <trkpt lat="43.44524" lon="3.50973">
        <ele>92.199996948242</ele>
        <time>2023-12-19T15:01:50Z</time>
      </trkpt>
      <trkpt lat="43.4452" lon="3.50973">
        <ele>92.199996948242</ele>
        <time>2023-12-19T15:01:51Z</time>
      </trkpt>
      <trkpt lat="43.44516" lon="3.50972">
        <ele>92</ele>
        <time>2023-12-19T15:01:52Z</time>
      </trkpt>
      <trkpt lat="43.44513" lon="3.50972">
        <ele>92</ele>
        <time>2023-12-19T15:01:53Z</time>
      </trkpt>
      <trkpt lat="43.44509" lon="3.50972">
        <ele>92</ele>
        <time>2023-12-19T15:01:54Z</time>
      </trkpt>
      <trkpt lat="43.44504" lon="3.50971">
        <ele>92</ele>
        <time>2023-12-19T15:01:55Z</time>
      </trkpt>
      <trkpt lat="43.445" lon="3.50969">
        <ele>91.800003051758</ele>
        <time>2023-12-19T15:01:56Z</time>
      </trkpt>
      <trkpt lat="43.44497" lon="3.50967">
        <ele>91.800003051758</ele>
        <time>2023-12-19T15:01:57Z</time>
      </trkpt>
      <trkpt lat="43.44494" lon="3.50965">
        <ele>91.599998474121</ele>
        <time>2023-12-19T15:01:58Z</time>
      </trkpt>
      <trkpt lat="43.44491" lon="3.50963">
        <ele>91.599998474121</ele>
        <time>2023-12-19T15:01:59Z</time>
      </trkpt>
      <trkpt lat="43.44486" lon="3.50962">
        <ele>91.400001525879</ele>
        <time>2023-12-19T15:02:00Z</time>
      </trkpt>
      <trkpt lat="43.44482" lon="3.5096">
        <ele>91.400001525879</ele>
        <time>2023-12-19T15:02:01Z</time>
      </trkpt>
      <trkpt lat="43.44477" lon="3.50958">
        <ele>91.199996948242</ele>
        <time>2023-12-19T15:02:02Z</time>
      </trkpt>
      <trkpt lat="43.44473" lon="3.50959">
        <ele>91</ele>
        <time>2023-12-19T15:02:03Z</time>
      </trkpt>
      <trkpt lat="43.44471" lon="3.50963">
        <ele>90.800003051758</ele>
        <time>2023-12-19T15:02:04Z</time>
      </trkpt>
      <trkpt lat="43.4447" lon="3.50967">
        <ele>90.599998474121</ele>
        <time>2023-12-19T15:02:05Z</time>
      </trkpt>
      <trkpt lat="43.4447" lon="3.50972">
        <ele>90.400001525879</ele>
        <time>2023-12-19T15:02:06Z</time>
      </trkpt>
      <trkpt lat="43.44468" lon="3.50976">
        <ele>90.400001525879</ele>
        <time>2023-12-19T15:02:07Z</time>
      </trkpt>
      <trkpt lat="43.44466" lon="3.50979">
        <ele>90.400001525879</ele>
        <time>2023-12-19T15:02:08Z</time>
      </trkpt>
      <trkpt lat="43.44462" lon="3.50982">
        <ele>90.199996948242</ele>
        <time>2023-12-19T15:02:09Z</time>
      </trkpt>
      <trkpt lat="43.44459" lon="3.50986">
        <ele>90.199996948242</ele>
        <time>2023-12-19T15:02:10Z</time>
      </trkpt>
      <trkpt lat="43.44455" lon="3.5099">
        <ele>90.199996948242</ele>
        <time>2023-12-19T15:02:11Z</time>
      </trkpt>
      <trkpt lat="43.44451" lon="3.50995">
        <ele>90.199996948242</ele>
        <time>2023-12-19T15:02:12Z</time>
      </trkpt>
      <trkpt lat="43.44447" lon="3.50999">
        <ele>90.199996948242</ele>
        <time>2023-12-19T15:02:13Z</time>
      </trkpt>
      <trkpt lat="43.44442" lon="3.51004">
        <ele>90.199996948242</ele>
        <time>2023-12-19T15:02:14Z</time>
      </trkpt>
      <trkpt lat="43.44438" lon="3.51008">
        <ele>90.199996948242</ele>
        <time>2023-12-19T15:02:15Z</time>
      </trkpt>
      <trkpt lat="43.44435" lon="3.51012">
        <ele>90.199996948242</ele>
        <time>2023-12-19T15:02:16Z</time>
      </trkpt>
      <trkpt lat="43.44431" lon="3.51015">
        <ele>90.400001525879</ele>
        <time>2023-12-19T15:02:17Z</time>
      </trkpt>
      <trkpt lat="43.44428" lon="3.51018">
        <ele>90.400001525879</ele>
        <time>2023-12-19T15:02:18Z</time>
      </trkpt>
      <trkpt lat="43.44424" lon="3.5102">
        <ele>90.599998474121</ele>
        <time>2023-12-19T15:02:19Z</time>
      </trkpt>
      <trkpt lat="43.4442" lon="3.51021">
        <ele>90.800003051758</ele>
        <time>2023-12-19T15:02:20Z</time>
      </trkpt>
      <trkpt lat="43.44416" lon="3.51023">
        <ele>90.800003051758</ele>
        <time>2023-12-19T15:02:21Z</time>
      </trkpt>
      <trkpt lat="43.44412" lon="3.51024">
        <ele>91</ele>
        <time>2023-12-19T15:02:22Z</time>
      </trkpt>
      <trkpt lat="43.44407" lon="3.51026">
        <ele>91</ele>
        <time>2023-12-19T15:02:23Z</time>
      </trkpt>
      <trkpt lat="43.44402" lon="3.51027">
        <ele>91.199996948242</ele>
        <time>2023-12-19T15:02:24Z</time>
      </trkpt>
      <trkpt lat="43.44397" lon="3.51029">
        <ele>91.199996948242</ele>
        <time>2023-12-19T15:02:25Z</time>
      </trkpt>
      <trkpt lat="43.44393" lon="3.51031">
        <ele>91.199996948242</ele>
        <time>2023-12-19T15:02:26Z</time>
      </trkpt>
      <trkpt lat="43.44388" lon="3.51031">
        <ele>91.400001525879</ele>
        <time>2023-12-19T15:02:27Z</time>
      </trkpt>
      <trkpt lat="43.44384" lon="3.51032">
        <ele>91.400001525879</ele>
        <time>2023-12-19T15:02:28Z</time>
      </trkpt>
      <trkpt lat="43.4438" lon="3.51032">
        <ele>91.400001525879</ele>
        <time>2023-12-19T15:02:29Z</time>
      </trkpt>
      <trkpt lat="43.44376" lon="3.51032">
        <ele>91.599998474121</ele>
        <time>2023-12-19T15:02:30Z</time>
      </trkpt>
      <trkpt lat="43.44372" lon="3.51031">
        <ele>91.599998474121</ele>
        <time>2023-12-19T15:02:31Z</time>
      </trkpt>
      <trkpt lat="43.44368" lon="3.5103">
        <ele>91.800003051758</ele>
        <time>2023-12-19T15:02:32Z</time>
      </trkpt>
      <trkpt lat="43.44365" lon="3.5103">
        <ele>91.800003051758</ele>
        <time>2023-12-19T15:02:33Z</time>
      </trkpt>
      <trkpt lat="43.44361" lon="3.51029">
        <ele>92</ele>
        <time>2023-12-19T15:02:34Z</time>
      </trkpt>
      <trkpt lat="43.44357" lon="3.51029">
        <ele>92</ele>
        <time>2023-12-19T15:02:35Z</time>
      </trkpt>
      <trkpt lat="43.44354" lon="3.51029">
        <ele>92</ele>
        <time>2023-12-19T15:02:36Z</time>
      </trkpt>
      <trkpt lat="43.4435" lon="3.51028">
        <ele>92</ele>
        <time>2023-12-19T15:02:37Z</time>
      </trkpt>
      <trkpt lat="43.44346" lon="3.51029">
        <ele>92</ele>
        <time>2023-12-19T15:02:38Z</time>
      </trkpt>
      <trkpt lat="43.44342" lon="3.5103">
        <ele>92</ele>
        <time>2023-12-19T15:02:39Z</time>
      </trkpt>
      <trkpt lat="43.44338" lon="3.51031">
        <ele>91.800003051758</ele>
        <time>2023-12-19T15:02:40Z</time>
      </trkpt>
      <trkpt lat="43.44335" lon="3.51032">
        <ele>91.800003051758</ele>
        <time>2023-12-19T15:02:41Z</time>
      </trkpt>
      <trkpt lat="43.44331" lon="3.51033">
        <ele>91.400001525879</ele>
        <time>2023-12-19T15:02:42Z</time>
      </trkpt>
      <trkpt lat="43.44327" lon="3.51035">
        <ele>91.199996948242</ele>
        <time>2023-12-19T15:02:43Z</time>
      </trkpt>
      <trkpt lat="43.44325" lon="3.51037">
        <ele>91</ele>
        <time>2023-12-19T15:02:44Z</time>
      </trkpt>
      <trkpt lat="43.44321" lon="3.5104">
        <ele>90.800003051758</ele>
        <time>2023-12-19T15:02:45Z</time>
      </trkpt>
      <trkpt lat="43.44318" lon="3.51045">
        <ele>90.800003051758</ele>
        <time>2023-12-19T15:02:46Z</time>
      </trkpt>
      <trkpt lat="43.44314" lon="3.5105">
        <ele>90.400001525879</ele>
        <time>2023-12-19T15:02:47Z</time>
      </trkpt>
      <trkpt lat="43.4431" lon="3.51054">
        <ele>90</ele>
        <time>2023-12-19T15:02:48Z</time>
      </trkpt>
      <trkpt lat="43.44306" lon="3.51056">
        <ele>89.199996948242</ele>
        <time>2023-12-19T15:02:49Z</time>
      </trkpt>
      <trkpt lat="43.44303" lon="3.51056">
        <ele>88.199996948242</ele>
        <time>2023-12-19T15:02:50Z</time>
      </trkpt>
      <trkpt lat="43.443" lon="3.51055">
        <ele>87.199996948242</ele>
        <time>2023-12-19T15:02:51Z</time>
      </trkpt>
      <trkpt lat="43.44296" lon="3.51053">
        <ele>86.199996948242</ele>
        <time>2023-12-19T15:02:52Z</time>
      </trkpt>
      <trkpt lat="43.44293" lon="3.51052">
        <ele>85</ele>
        <time>2023-12-19T15:02:53Z</time>
      </trkpt>
      <trkpt lat="43.44289" lon="3.51051">
        <ele>84.800003051758</ele>
        <time>2023-12-19T15:02:54Z</time>
      </trkpt>
      <trkpt lat="43.44285" lon="3.51052">
        <ele>84.199996948242</ele>
        <time>2023-12-19T15:02:55Z</time>
      </trkpt>
      <trkpt lat="43.44281" lon="3.51052">
        <ele>83.199996948242</ele>
        <time>2023-12-19T15:02:56Z</time>
      </trkpt>
      <trkpt lat="43.44277" lon="3.51054">
        <ele>83.199996948242</ele>
        <time>2023-12-19T15:02:57Z</time>
      </trkpt>
      <trkpt lat="43.44272" lon="3.51056">
        <ele>82.599998474121</ele>
        <time>2023-12-19T15:02:58Z</time>
      </trkpt>
      <trkpt lat="43.44268" lon="3.51058">
        <ele>81.599998474121</ele>
        <time>2023-12-19T15:02:59Z</time>
      </trkpt>
      <trkpt lat="43.44264" lon="3.5106">
        <ele>80.800003051758</ele>
        <time>2023-12-19T15:03:00Z</time>
      </trkpt>
      <trkpt lat="43.44259" lon="3.51062">
        <ele>80</ele>
        <time>2023-12-19T15:03:01Z</time>
      </trkpt>
      <trkpt lat="43.44256" lon="3.51064">
        <ele>79.199996948242</ele>
        <time>2023-12-19T15:03:02Z</time>
      </trkpt>
      <trkpt lat="43.44251" lon="3.51066">
        <ele>79</ele>
        <time>2023-12-19T15:03:03Z</time>
      </trkpt>
      <trkpt lat="43.44247" lon="3.51068">
        <ele>79</ele>
        <time>2023-12-19T15:03:04Z</time>
      </trkpt>
      <trkpt lat="43.44243" lon="3.51069">
        <ele>79</ele>
        <time>2023-12-19T15:03:05Z</time>
      </trkpt>
      <trkpt lat="43.44239" lon="3.51072">
        <ele>79</ele>
        <time>2023-12-19T15:03:06Z</time>
      </trkpt>
      <trkpt lat="43.44234" lon="3.51074">
        <ele>79</ele>
        <time>2023-12-19T15:03:07Z</time>
      </trkpt>
      <trkpt lat="43.4423" lon="3.51076">
        <ele>79.199996948242</ele>
        <time>2023-12-19T15:03:08Z</time>
      </trkpt>
      <trkpt lat="43.44226" lon="3.51078">
        <ele>79.599998474121</ele>
        <time>2023-12-19T15:03:09Z</time>
      </trkpt>
      <trkpt lat="43.44222" lon="3.5108">
        <ele>79.800003051758</ele>
        <time>2023-12-19T15:03:10Z</time>
      </trkpt>
      <trkpt lat="43.44217" lon="3.51081">
        <ele>80</ele>
        <time>2023-12-19T15:03:11Z</time>
      </trkpt>
      <trkpt lat="43.44212" lon="3.51082">
        <ele>80.400001525879</ele>
        <time>2023-12-19T15:03:12Z</time>
      </trkpt>
      <trkpt lat="43.44206" lon="3.51084">
        <ele>80.400001525879</ele>
        <time>2023-12-19T15:03:13Z</time>
      </trkpt>
      <trkpt lat="43.44201" lon="3.51087">
        <ele>80.599998474121</ele>
        <time>2023-12-19T15:03:14Z</time>
      </trkpt>
      <trkpt lat="43.44196" lon="3.51089">
        <ele>80.599998474121</ele>
        <time>2023-12-19T15:03:15Z</time>
      </trkpt>
      <trkpt lat="43.44191" lon="3.5109">
        <ele>80.800003051758</ele>
        <time>2023-12-19T15:03:16Z</time>
      </trkpt>
      <trkpt lat="43.44185" lon="3.51091">
        <ele>81</ele>
        <time>2023-12-19T15:03:17Z</time>
      </trkpt>
      <trkpt lat="43.4418" lon="3.51092">
        <ele>81.400001525879</ele>
        <time>2023-12-19T15:03:18Z</time>
      </trkpt>
      <trkpt lat="43.44175" lon="3.51092">
        <ele>81.400001525879</ele>
        <time>2023-12-19T15:03:19Z</time>
      </trkpt>
      <trkpt lat="43.4417" lon="3.5109">
        <ele>81.599998474121</ele>
        <time>2023-12-19T15:03:20Z</time>
      </trkpt>
      <trkpt lat="43.44164" lon="3.51091">
        <ele>82</ele>
        <time>2023-12-19T15:03:21Z</time>
      </trkpt>
      <trkpt lat="43.44159" lon="3.51093">
        <ele>82.199996948242</ele>
        <time>2023-12-19T15:03:22Z</time>
      </trkpt>
      <trkpt lat="43.44154" lon="3.51093">
        <ele>82.599998474121</ele>
        <time>2023-12-19T15:03:23Z</time>
      </trkpt>
      <trkpt lat="43.44149" lon="3.51092">
        <ele>83</ele>
        <time>2023-12-19T15:03:24Z</time>
      </trkpt>
      <trkpt lat="43.44144" lon="3.51091">
        <ele>83.199996948242</ele>
        <time>2023-12-19T15:03:25Z</time>
      </trkpt>
      <trkpt lat="43.44138" lon="3.5109">
        <ele>83.400001525879</ele>
        <time>2023-12-19T15:03:26Z</time>
      </trkpt>
      <trkpt lat="43.44132" lon="3.51089">
        <ele>83.599998474121</ele>
        <time>2023-12-19T15:03:27Z</time>
      </trkpt>
      <trkpt lat="43.44126" lon="3.51088">
        <ele>83.599998474121</ele>
        <time>2023-12-19T15:03:28Z</time>
      </trkpt>
      <trkpt lat="43.44121" lon="3.5109">
        <ele>83.599998474121</ele>
        <time>2023-12-19T15:03:29Z</time>
      </trkpt>
      <trkpt lat="43.44116" lon="3.51093">
        <ele>83.599998474121</ele>
        <time>2023-12-19T15:03:30Z</time>
      </trkpt>
      <trkpt lat="43.4411" lon="3.51096">
        <ele>83.199996948242</ele>
        <time>2023-12-19T15:03:31Z</time>
      </trkpt>
      <trkpt lat="43.44103" lon="3.51098">
        <ele>83</ele>
        <time>2023-12-19T15:03:32Z</time>
      </trkpt>
      <trkpt lat="43.44096" lon="3.51099">
        <ele>82.599998474121</ele>
        <time>2023-12-19T15:03:33Z</time>
      </trkpt>
      <trkpt lat="43.4409" lon="3.511">
        <ele>82.199996948242</ele>
        <time>2023-12-19T15:03:34Z</time>
      </trkpt>
      <trkpt lat="43.44085" lon="3.51101">
        <ele>81.400001525879</ele>
        <time>2023-12-19T15:03:35Z</time>
      </trkpt>
      <trkpt lat="43.44081" lon="3.51102">
        <ele>81.199996948242</ele>
        <time>2023-12-19T15:03:36Z</time>
      </trkpt>
      <trkpt lat="43.44078" lon="3.51103">
        <ele>81.199996948242</ele>
        <time>2023-12-19T15:03:37Z</time>
      </trkpt>
      <trkpt lat="43.44075" lon="3.51104">
        <ele>81.199996948242</ele>
        <time>2023-12-19T15:03:38Z</time>
      </trkpt>
      <trkpt lat="43.44071" lon="3.51106">
        <ele>82</ele>
        <time>2023-12-19T15:03:39Z</time>
      </trkpt>
      <trkpt lat="43.44067" lon="3.51107">
        <ele>82.800003051758</ele>
        <time>2023-12-19T15:03:40Z</time>
      </trkpt>
      <trkpt lat="43.44062" lon="3.5111">
        <ele>83.400001525879</ele>
        <time>2023-12-19T15:03:41Z</time>
      </trkpt>
      <trkpt lat="43.44059" lon="3.51113">
        <ele>83.800003051758</ele>
        <time>2023-12-19T15:03:42Z</time>
      </trkpt>
      <trkpt lat="43.44055" lon="3.51117">
        <ele>84</ele>
        <time>2023-12-19T15:03:43Z</time>
      </trkpt>
      <trkpt lat="43.44052" lon="3.5112">
        <ele>84</ele>
        <time>2023-12-19T15:03:44Z</time>
      </trkpt>
      <trkpt lat="43.44049" lon="3.51124">
        <ele>84</ele>
        <time>2023-12-19T15:03:45Z</time>
      </trkpt>
      <trkpt lat="43.44046" lon="3.51127">
        <ele>84.199996948242</ele>
        <time>2023-12-19T15:03:46Z</time>
      </trkpt>
      <trkpt lat="43.44044" lon="3.5113">
        <ele>84.199996948242</ele>
        <time>2023-12-19T15:03:47Z</time>
      </trkpt>
      <trkpt lat="43.44041" lon="3.51132">
        <ele>84.199996948242</ele>
        <time>2023-12-19T15:03:48Z</time>
      </trkpt>
      <trkpt lat="43.44037" lon="3.51135">
        <ele>84.199996948242</ele>
        <time>2023-12-19T15:03:49Z</time>
      </trkpt>
      <trkpt lat="43.44032" lon="3.51138">
        <ele>84.199996948242</ele>
        <time>2023-12-19T15:03:50Z</time>
      </trkpt>
      <trkpt lat="43.44028" lon="3.51141">
        <ele>84</ele>
        <time>2023-12-19T15:03:51Z</time>
      </trkpt>
      <trkpt lat="43.44025" lon="3.51143">
        <ele>83.800003051758</ele>
        <time>2023-12-19T15:03:52Z</time>
      </trkpt>
      <trkpt lat="43.44021" lon="3.51145">
        <ele>83.599998474121</ele>
        <time>2023-12-19T15:03:53Z</time>
      </trkpt>
      <trkpt lat="43.44018" lon="3.51147">
        <ele>83.599998474121</ele>
        <time>2023-12-19T15:03:54Z</time>
      </trkpt>
      <trkpt lat="43.44015" lon="3.51148">
        <ele>83.599998474121</ele>
        <time>2023-12-19T15:03:55Z</time>
      </trkpt>
      <trkpt lat="43.44012" lon="3.51149">
        <ele>83.599998474121</ele>
        <time>2023-12-19T15:03:56Z</time>
      </trkpt>
      <trkpt lat="43.44008" lon="3.5115">
        <ele>83.599998474121</ele>
        <time>2023-12-19T15:03:57Z</time>
      </trkpt>
      <trkpt lat="43.44005" lon="3.51151">
        <ele>83.599998474121</ele>
        <time>2023-12-19T15:03:58Z</time>
      </trkpt>
      <trkpt lat="43.44003" lon="3.51152">
        <ele>83.599998474121</ele>
        <time>2023-12-19T15:03:59Z</time>
      </trkpt>
      <trkpt lat="43.44" lon="3.51153">
        <ele>83.599998474121</ele>
        <time>2023-12-19T15:04:00Z</time>
      </trkpt>
      <trkpt lat="43.43998" lon="3.51155">
        <ele>83.400001525879</ele>
        <time>2023-12-19T15:04:01Z</time>
      </trkpt>
      <trkpt lat="43.43995" lon="3.51157">
        <ele>83.400001525879</ele>
        <time>2023-12-19T15:04:02Z</time>
      </trkpt>
      <trkpt lat="43.43992" lon="3.51159">
        <ele>83.400001525879</ele>
        <time>2023-12-19T15:04:03Z</time>
      </trkpt>
      <trkpt lat="43.43989" lon="3.51161">
        <ele>83.400001525879</ele>
        <time>2023-12-19T15:04:04Z</time>
      </trkpt>
      <trkpt lat="43.43985" lon="3.51164">
        <ele>83.400001525879</ele>
        <time>2023-12-19T15:04:05Z</time>
      </trkpt>
      <trkpt lat="43.43982" lon="3.51165">
        <ele>83.400001525879</ele>
        <time>2023-12-19T15:04:06Z</time>
      </trkpt>
      <trkpt lat="43.43979" lon="3.51167">
        <ele>83.400001525879</ele>
        <time>2023-12-19T15:04:07Z</time>
      </trkpt>
      <trkpt lat="43.43976" lon="3.51169">
        <ele>83.400001525879</ele>
        <time>2023-12-19T15:04:08Z</time>
      </trkpt>
      <trkpt lat="43.43973" lon="3.51171">
        <ele>83.199996948242</ele>
        <time>2023-12-19T15:04:09Z</time>
      </trkpt>
      <trkpt lat="43.43969" lon="3.51172">
        <ele>83.199996948242</ele>
        <time>2023-12-19T15:04:10Z</time>
      </trkpt>
      <trkpt lat="43.43966" lon="3.51174">
        <ele>83</ele>
        <time>2023-12-19T15:04:11Z</time>
      </trkpt>
      <trkpt lat="43.43962" lon="3.51175">
        <ele>83</ele>
        <time>2023-12-19T15:04:12Z</time>
      </trkpt>
      <trkpt lat="43.43957" lon="3.51176">
        <ele>83</ele>
        <time>2023-12-19T15:04:13Z</time>
      </trkpt>
      <trkpt lat="43.43953" lon="3.51177">
        <ele>83</ele>
        <time>2023-12-19T15:04:14Z</time>
      </trkpt>
      <trkpt lat="43.43949" lon="3.51177">
        <ele>83</ele>
        <time>2023-12-19T15:04:15Z</time>
      </trkpt>
      <trkpt lat="43.43944" lon="3.51178">
        <ele>83</ele>
        <time>2023-12-19T15:04:16Z</time>
      </trkpt>
      <trkpt lat="43.4394" lon="3.5118">
        <ele>83</ele>
        <time>2023-12-19T15:04:17Z</time>
      </trkpt>
      <trkpt lat="43.43936" lon="3.51183">
        <ele>83</ele>
        <time>2023-12-19T15:04:18Z</time>
      </trkpt>
      <trkpt lat="43.43931" lon="3.51185">
        <ele>83.199996948242</ele>
        <time>2023-12-19T15:04:19Z</time>
      </trkpt>
      <trkpt lat="43.43927" lon="3.51186">
        <ele>83.599998474121</ele>
        <time>2023-12-19T15:04:20Z</time>
      </trkpt>
      <trkpt lat="43.43923" lon="3.51188">
        <ele>83.800003051758</ele>
        <time>2023-12-19T15:04:21Z</time>
      </trkpt>
      <trkpt lat="43.43919" lon="3.51189">
        <ele>84</ele>
        <time>2023-12-19T15:04:22Z</time>
      </trkpt>
      <trkpt lat="43.43915" lon="3.5119">
        <ele>84.400001525879</ele>
        <time>2023-12-19T15:04:23Z</time>
      </trkpt>
      <trkpt lat="43.43911" lon="3.51191">
        <ele>84.800003051758</ele>
        <time>2023-12-19T15:04:24Z</time>
      </trkpt>
      <trkpt lat="43.43908" lon="3.51192">
        <ele>85.199996948242</ele>
        <time>2023-12-19T15:04:25Z</time>
      </trkpt>
      <trkpt lat="43.43905" lon="3.51193">
        <ele>85.800003051758</ele>
        <time>2023-12-19T15:04:26Z</time>
      </trkpt>
      <trkpt lat="43.43902" lon="3.51194">
        <ele>86</ele>
        <time>2023-12-19T15:04:27Z</time>
      </trkpt>
      <trkpt lat="43.43899" lon="3.51195">
        <ele>86.599998474121</ele>
        <time>2023-12-19T15:04:28Z</time>
      </trkpt>
      <trkpt lat="43.43896" lon="3.51197">
        <ele>87</ele>
        <time>2023-12-19T15:04:29Z</time>
      </trkpt>
      <trkpt lat="43.43894" lon="3.51198">
        <ele>87.199996948242</ele>
        <time>2023-12-19T15:04:30Z</time>
      </trkpt>
      <trkpt lat="43.43891" lon="3.512">
        <ele>87.400001525879</ele>
        <time>2023-12-19T15:04:31Z</time>
      </trkpt>
      <trkpt lat="43.43888" lon="3.51202">
        <ele>87.599998474121</ele>
        <time>2023-12-19T15:04:32Z</time>
      </trkpt>
      <trkpt lat="43.43886" lon="3.51203">
        <ele>88</ele>
        <time>2023-12-19T15:04:33Z</time>
      </trkpt>
      <trkpt lat="43.43883" lon="3.51205">
        <ele>88.199996948242</ele>
        <time>2023-12-19T15:04:34Z</time>
      </trkpt>
      <trkpt lat="43.4388" lon="3.51208">
        <ele>88.400001525879</ele>
        <time>2023-12-19T15:04:35Z</time>
      </trkpt>
      <trkpt lat="43.43877" lon="3.51211">
        <ele>88.599998474121</ele>
        <time>2023-12-19T15:04:36Z</time>
      </trkpt>
      <trkpt lat="43.43874" lon="3.51213">
        <ele>88.599998474121</ele>
        <time>2023-12-19T15:04:37Z</time>
      </trkpt>
      <trkpt lat="43.43871" lon="3.51216">
        <ele>88.599998474121</ele>
        <time>2023-12-19T15:04:38Z</time>
      </trkpt>
      <trkpt lat="43.43868" lon="3.51218">
        <ele>88.400001525879</ele>
        <time>2023-12-19T15:04:39Z</time>
      </trkpt>
      <trkpt lat="43.43865" lon="3.51221">
        <ele>88.400001525879</ele>
        <time>2023-12-19T15:04:40Z</time>
      </trkpt>
      <trkpt lat="43.43861" lon="3.51223">
        <ele>88</ele>
        <time>2023-12-19T15:04:41Z</time>
      </trkpt>
      <trkpt lat="43.43858" lon="3.51224">
        <ele>88</ele>
        <time>2023-12-19T15:04:42Z</time>
      </trkpt>
      <trkpt lat="43.43854" lon="3.51227">
        <ele>87.800003051758</ele>
        <time>2023-12-19T15:04:43Z</time>
      </trkpt>
      <trkpt lat="43.43851" lon="3.51229">
        <ele>87.599998474121</ele>
        <time>2023-12-19T15:04:44Z</time>
      </trkpt>
      <trkpt lat="43.43848" lon="3.5123">
        <ele>87.400001525879</ele>
        <time>2023-12-19T15:04:45Z</time>
      </trkpt>
      <trkpt lat="43.43845" lon="3.51232">
        <ele>87.199996948242</ele>
        <time>2023-12-19T15:04:46Z</time>
      </trkpt>
      <trkpt lat="43.43843" lon="3.51234">
        <ele>87.199996948242</ele>
        <time>2023-12-19T15:04:47Z</time>
      </trkpt>
      <trkpt lat="43.4384" lon="3.51236">
        <ele>87.199996948242</ele>
        <time>2023-12-19T15:04:48Z</time>
      </trkpt>
      <trkpt lat="43.43837" lon="3.51238">
        <ele>87.199996948242</ele>
        <time>2023-12-19T15:04:49Z</time>
      </trkpt>
      <trkpt lat="43.43834" lon="3.5124">
        <ele>87.199996948242</ele>
        <time>2023-12-19T15:04:50Z</time>
      </trkpt>
      <trkpt lat="43.43831" lon="3.51242">
        <ele>87.199996948242</ele>
        <time>2023-12-19T15:04:51Z</time>
      </trkpt>
      <trkpt lat="43.43828" lon="3.51243">
        <ele>87.199996948242</ele>
        <time>2023-12-19T15:04:52Z</time>
      </trkpt>
      <trkpt lat="43.43825" lon="3.51245">
        <ele>87.199996948242</ele>
        <time>2023-12-19T15:04:53Z</time>
      </trkpt>
      <trkpt lat="43.43822" lon="3.51246">
        <ele>87.199996948242</ele>
        <time>2023-12-19T15:04:54Z</time>
      </trkpt>
      <trkpt lat="43.4382" lon="3.51248">
        <ele>87.199996948242</ele>
        <time>2023-12-19T15:04:55Z</time>
      </trkpt>
      <trkpt lat="43.43817" lon="3.5125">
        <ele>87.199996948242</ele>
        <time>2023-12-19T15:04:56Z</time>
      </trkpt>
      <trkpt lat="43.43814" lon="3.51252">
        <ele>87.199996948242</ele>
        <time>2023-12-19T15:04:57Z</time>
      </trkpt>
      <trkpt lat="43.43812" lon="3.51254">
        <ele>87.199996948242</ele>
        <time>2023-12-19T15:04:58Z</time>
      </trkpt>
      <trkpt lat="43.43808" lon="3.51256">
        <ele>87.199996948242</ele>
        <time>2023-12-19T15:04:59Z</time>
      </trkpt>
      <trkpt lat="43.43805" lon="3.51259">
        <ele>87.199996948242</ele>
        <time>2023-12-19T15:05:00Z</time>
      </trkpt>
      <trkpt lat="43.43801" lon="3.51261">
        <ele>87.199996948242</ele>
        <time>2023-12-19T15:05:01Z</time>
      </trkpt>
      <trkpt lat="43.43796" lon="3.51264">
        <ele>86.800003051758</ele>
        <time>2023-12-19T15:05:02Z</time>
      </trkpt>
      <trkpt lat="43.43792" lon="3.51265">
        <ele>86.400001525879</ele>
        <time>2023-12-19T15:05:03Z</time>
      </trkpt>
      <trkpt lat="43.43788" lon="3.51267">
        <ele>86.199996948242</ele>
        <time>2023-12-19T15:05:04Z</time>
      </trkpt>
      <trkpt lat="43.43784" lon="3.51269">
        <ele>86.199996948242</ele>
        <time>2023-12-19T15:05:05Z</time>
      </trkpt>
      <trkpt lat="43.4378" lon="3.51271">
        <ele>86</ele>
        <time>2023-12-19T15:05:06Z</time>
      </trkpt>
      <trkpt lat="43.43777" lon="3.51272">
        <ele>86</ele>
        <time>2023-12-19T15:05:07Z</time>
      </trkpt>
      <trkpt lat="43.43774" lon="3.51273">
        <ele>86</ele>
        <time>2023-12-19T15:05:08Z</time>
      </trkpt>
      <trkpt lat="43.43771" lon="3.51274">
        <ele>86</ele>
        <time>2023-12-19T15:05:09Z</time>
      </trkpt>
      <trkpt lat="43.43768" lon="3.51275">
        <ele>86</ele>
        <time>2023-12-19T15:05:10Z</time>
      </trkpt>
      <trkpt lat="43.43764" lon="3.51276">
        <ele>86</ele>
        <time>2023-12-19T15:05:11Z</time>
      </trkpt>
      <trkpt lat="43.43761" lon="3.51277">
        <ele>86</ele>
        <time>2023-12-19T15:05:12Z</time>
      </trkpt>
      <trkpt lat="43.43757" lon="3.51278">
        <ele>86</ele>
        <time>2023-12-19T15:05:13Z</time>
      </trkpt>
      <trkpt lat="43.43754" lon="3.51279">
        <ele>86</ele>
        <time>2023-12-19T15:05:14Z</time>
      </trkpt>
      <trkpt lat="43.43751" lon="3.5128">
        <ele>85.800003051758</ele>
        <time>2023-12-19T15:05:15Z</time>
      </trkpt>
      <trkpt lat="43.43748" lon="3.5128">
        <ele>85.800003051758</ele>
        <time>2023-12-19T15:05:16Z</time>
      </trkpt>
      <trkpt lat="43.43745" lon="3.5128">
        <ele>85.599998474121</ele>
        <time>2023-12-19T15:05:17Z</time>
      </trkpt>
      <trkpt lat="43.43742" lon="3.51281">
        <ele>85.599998474121</ele>
        <time>2023-12-19T15:05:18Z</time>
      </trkpt>
      <trkpt lat="43.43739" lon="3.51281">
        <ele>85.400001525879</ele>
        <time>2023-12-19T15:05:19Z</time>
      </trkpt>
      <trkpt lat="43.43735" lon="3.51281">
        <ele>85.400001525879</ele>
        <time>2023-12-19T15:05:20Z</time>
      </trkpt>
      <trkpt lat="43.43731" lon="3.51281">
        <ele>85.400001525879</ele>
        <time>2023-12-19T15:05:21Z</time>
      </trkpt>
      <trkpt lat="43.43727" lon="3.51281">
        <ele>85.400001525879</ele>
        <time>2023-12-19T15:05:22Z</time>
      </trkpt>
      <trkpt lat="43.43722" lon="3.51282">
        <ele>85.199996948242</ele>
        <time>2023-12-19T15:05:23Z</time>
      </trkpt>
      <trkpt lat="43.43718" lon="3.51283">
        <ele>84.800003051758</ele>
        <time>2023-12-19T15:05:24Z</time>
      </trkpt>
      <trkpt lat="43.43715" lon="3.51284">
        <ele>84.599998474121</ele>
        <time>2023-12-19T15:05:25Z</time>
      </trkpt>
      <trkpt lat="43.43712" lon="3.51286">
        <ele>84.199996948242</ele>
        <time>2023-12-19T15:05:26Z</time>
      </trkpt>
      <trkpt lat="43.43709" lon="3.51287">
        <ele>83.599998474121</ele>
        <time>2023-12-19T15:05:27Z</time>
      </trkpt>
      <trkpt lat="43.43708" lon="3.51288">
        <ele>83.400001525879</ele>
        <time>2023-12-19T15:05:28Z</time>
      </trkpt>
      <trkpt lat="43.43706" lon="3.51289">
        <ele>83.199996948242</ele>
        <time>2023-12-19T15:05:29Z</time>
      </trkpt>
      <trkpt lat="43.43704" lon="3.51289">
        <ele>83.199996948242</ele>
        <time>2023-12-19T15:05:30Z</time>
      </trkpt>
      <trkpt lat="43.43702" lon="3.51288">
        <ele>83.199996948242</ele>
        <time>2023-12-19T15:05:31Z</time>
      </trkpt>
      <trkpt lat="43.43702" lon="3.51286">
        <ele>83</ele>
        <time>2023-12-19T15:05:32Z</time>
      </trkpt>
      <trkpt lat="43.43702" lon="3.51283">
        <ele>83</ele>
        <time>2023-12-19T15:05:33Z</time>
      </trkpt>
      <trkpt lat="43.43704" lon="3.51281">
        <ele>83</ele>
        <time>2023-12-19T15:05:34Z</time>
      </trkpt>
      <trkpt lat="43.43705" lon="3.51278">
        <ele>83</ele>
        <time>2023-12-19T15:05:35Z</time>
      </trkpt>
      <trkpt lat="43.43706" lon="3.51275">
        <ele>83.199996948242</ele>
        <time>2023-12-19T15:05:36Z</time>
      </trkpt>
      <trkpt lat="43.43707" lon="3.51273">
        <ele>83.400001525879</ele>
        <time>2023-12-19T15:05:37Z</time>
      </trkpt>
      <trkpt lat="43.43709" lon="3.5127">
        <ele>83.800003051758</ele>
        <time>2023-12-19T15:05:38Z</time>
      </trkpt>
      <trkpt lat="43.4371" lon="3.51267">
        <ele>84.199996948242</ele>
        <time>2023-12-19T15:05:39Z</time>
      </trkpt>
      <trkpt lat="43.4371" lon="3.51264">
        <ele>84.800003051758</ele>
        <time>2023-12-19T15:05:40Z</time>
      </trkpt>
      <trkpt lat="43.43711" lon="3.51261">
        <ele>85.400001525879</ele>
        <time>2023-12-19T15:05:41Z</time>
      </trkpt>
      <trkpt lat="43.4371" lon="3.51258">
        <ele>86</ele>
        <time>2023-12-19T15:05:42Z</time>
      </trkpt>
      <trkpt lat="43.43709" lon="3.51254">
        <ele>86.599998474121</ele>
        <time>2023-12-19T15:05:43Z</time>
      </trkpt>
      <trkpt lat="43.43707" lon="3.51251">
        <ele>87</ele>
        <time>2023-12-19T15:05:44Z</time>
      </trkpt>
      <trkpt lat="43.43704" lon="3.51248">
        <ele>87.400001525879</ele>
        <time>2023-12-19T15:05:45Z</time>
      </trkpt>
      <trkpt lat="43.43702" lon="3.51246">
        <ele>87.599998474121</ele>
        <time>2023-12-19T15:05:46Z</time>
      </trkpt>
      <trkpt lat="43.43699" lon="3.51245">
        <ele>87.800003051758</ele>
        <time>2023-12-19T15:05:47Z</time>
      </trkpt>
      <trkpt lat="43.43697" lon="3.51243">
        <ele>88</ele>
        <time>2023-12-19T15:05:48Z</time>
      </trkpt>
      <trkpt lat="43.43695" lon="3.51242">
        <ele>88.199996948242</ele>
        <time>2023-12-19T15:05:49Z</time>
      </trkpt>
      <trkpt lat="43.43693" lon="3.5124">
        <ele>88.199996948242</ele>
        <time>2023-12-19T15:05:50Z</time>
      </trkpt>
      <trkpt lat="43.4369" lon="3.51238">
        <ele>88.199996948242</ele>
        <time>2023-12-19T15:05:51Z</time>
      </trkpt>
      <trkpt lat="43.43687" lon="3.51236">
        <ele>88.199996948242</ele>
        <time>2023-12-19T15:05:52Z</time>
      </trkpt>
      <trkpt lat="43.43684" lon="3.51234">
        <ele>88.199996948242</ele>
        <time>2023-12-19T15:05:53Z</time>
      </trkpt>
      <trkpt lat="43.4368" lon="3.51232">
        <ele>88.199996948242</ele>
        <time>2023-12-19T15:05:54Z</time>
      </trkpt>
      <trkpt lat="43.43676" lon="3.51229">
        <ele>88.199996948242</ele>
        <time>2023-12-19T15:05:55Z</time>
      </trkpt>
      <trkpt lat="43.43672" lon="3.51227">
        <ele>88</ele>
        <time>2023-12-19T15:05:56Z</time>
      </trkpt>
      <trkpt lat="43.43668" lon="3.51225">
        <ele>87.800003051758</ele>
        <time>2023-12-19T15:05:57Z</time>
      </trkpt>
      <trkpt lat="43.43664" lon="3.51225">
        <ele>87.400001525879</ele>
        <time>2023-12-19T15:05:58Z</time>
      </trkpt>
      <trkpt lat="43.4366" lon="3.51225">
        <ele>87.199996948242</ele>
        <time>2023-12-19T15:05:59Z</time>
      </trkpt>
      <trkpt lat="43.43656" lon="3.51226">
        <ele>87</ele>
        <time>2023-12-19T15:06:00Z</time>
      </trkpt>
      <trkpt lat="43.43653" lon="3.51229">
        <ele>86.800003051758</ele>
        <time>2023-12-19T15:06:01Z</time>
      </trkpt>
      <trkpt lat="43.43651" lon="3.51231">
        <ele>86.599998474121</ele>
        <time>2023-12-19T15:06:02Z</time>
      </trkpt>
      <trkpt lat="43.43649" lon="3.51232">
        <ele>86.199996948242</ele>
        <time>2023-12-19T15:06:03Z</time>
      </trkpt>
      <trkpt lat="43.43648" lon="3.51233">
        <ele>86</ele>
        <time>2023-12-19T15:06:04Z</time>
      </trkpt>
      <trkpt lat="43.43647" lon="3.51234">
        <ele>86</ele>
        <time>2023-12-19T15:06:05Z</time>
      </trkpt>
      <trkpt lat="43.43645" lon="3.51234">
        <ele>86</ele>
        <time>2023-12-19T15:06:06Z</time>
      </trkpt>
      <trkpt lat="43.43644" lon="3.51233">
        <ele>86</ele>
        <time>2023-12-19T15:06:07Z</time>
      </trkpt>
      <trkpt lat="43.43642" lon="3.51231">
        <ele>85.800003051758</ele>
        <time>2023-12-19T15:06:08Z</time>
      </trkpt>
      <trkpt lat="43.43641" lon="3.51228">
        <ele>85.800003051758</ele>
        <time>2023-12-19T15:06:09Z</time>
      </trkpt>
      <trkpt lat="43.4364" lon="3.51226">
        <ele>85.800003051758</ele>
        <time>2023-12-19T15:06:10Z</time>
      </trkpt>
      <trkpt lat="43.43638" lon="3.51224">
        <ele>85.800003051758</ele>
        <time>2023-12-19T15:06:11Z</time>
      </trkpt>
      <trkpt lat="43.43636" lon="3.51221">
        <ele>85.800003051758</ele>
        <time>2023-12-19T15:06:12Z</time>
      </trkpt>
      <trkpt lat="43.43634" lon="3.51219">
        <ele>85.599998474121</ele>
        <time>2023-12-19T15:06:13Z</time>
      </trkpt>
      <trkpt lat="43.43633" lon="3.51217">
        <ele>85.199996948242</ele>
        <time>2023-12-19T15:06:14Z</time>
      </trkpt>
      <trkpt lat="43.43631" lon="3.51216">
        <ele>84.800003051758</ele>
        <time>2023-12-19T15:06:15Z</time>
      </trkpt>
      <trkpt lat="43.43629" lon="3.51215">
        <ele>84.400001525879</ele>
        <time>2023-12-19T15:06:16Z</time>
      </trkpt>
      <trkpt lat="43.43627" lon="3.51215">
        <ele>84</ele>
        <time>2023-12-19T15:06:17Z</time>
      </trkpt>
      <trkpt lat="43.43624" lon="3.51213">
        <ele>83.599998474121</ele>
        <time>2023-12-19T15:06:18Z</time>
      </trkpt>
      <trkpt lat="43.43621" lon="3.5121">
        <ele>83.199996948242</ele>
        <time>2023-12-19T15:06:19Z</time>
      </trkpt>
      <trkpt lat="43.43617" lon="3.51207">
        <ele>82.800003051758</ele>
        <time>2023-12-19T15:06:20Z</time>
      </trkpt>
      <trkpt lat="43.43612" lon="3.51203">
        <ele>82.199996948242</ele>
        <time>2023-12-19T15:06:21Z</time>
      </trkpt>
      <trkpt lat="43.43606" lon="3.51199">
        <ele>81.400001525879</ele>
        <time>2023-12-19T15:06:22Z</time>
      </trkpt>
      <trkpt lat="43.43599" lon="3.51196">
        <ele>80.400001525879</ele>
        <time>2023-12-19T15:06:23Z</time>
      </trkpt>
      <trkpt lat="43.43594" lon="3.51192">
        <ele>79.199996948242</ele>
        <time>2023-12-19T15:06:24Z</time>
      </trkpt>
      <trkpt lat="43.43589" lon="3.51189">
        <ele>78.199996948242</ele>
        <time>2023-12-19T15:06:25Z</time>
      </trkpt>
      <trkpt lat="43.43586" lon="3.51187">
        <ele>78.199996948242</ele>
        <time>2023-12-19T15:06:26Z</time>
      </trkpt>
      <trkpt lat="43.43582" lon="3.51186">
        <ele>78.199996948242</ele>
        <time>2023-12-19T15:06:27Z</time>
      </trkpt>
      <trkpt lat="43.4358" lon="3.51185">
        <ele>78.199996948242</ele>
        <time>2023-12-19T15:06:28Z</time>
      </trkpt>
      <trkpt lat="43.43577" lon="3.51185">
        <ele>78.199996948242</ele>
        <time>2023-12-19T15:06:29Z</time>
      </trkpt>
      <trkpt lat="43.43574" lon="3.51185">
        <ele>78.800003051758</ele>
        <time>2023-12-19T15:06:30Z</time>
      </trkpt>
      <trkpt lat="43.43572" lon="3.51188">
        <ele>79.400001525879</ele>
        <time>2023-12-19T15:06:31Z</time>
      </trkpt>
      <trkpt lat="43.43569" lon="3.51191">
        <ele>80</ele>
        <time>2023-12-19T15:06:32Z</time>
      </trkpt>
      <trkpt lat="43.43567" lon="3.51195">
        <ele>80.400001525879</ele>
        <time>2023-12-19T15:06:33Z</time>
      </trkpt>
      <trkpt lat="43.43564" lon="3.51198">
        <ele>80.599998474121</ele>
        <time>2023-12-19T15:06:34Z</time>
      </trkpt>
      <trkpt lat="43.4356" lon="3.51202">
        <ele>80.599998474121</ele>
        <time>2023-12-19T15:06:35Z</time>
      </trkpt>
      <trkpt lat="43.43557" lon="3.51205">
        <ele>80.599998474121</ele>
        <time>2023-12-19T15:06:36Z</time>
      </trkpt>
      <trkpt lat="43.43554" lon="3.51207">
        <ele>80.599998474121</ele>
        <time>2023-12-19T15:06:37Z</time>
      </trkpt>
      <trkpt lat="43.43551" lon="3.5121">
        <ele>80.599998474121</ele>
        <time>2023-12-19T15:06:38Z</time>
      </trkpt>
      <trkpt lat="43.43549" lon="3.51212">
        <ele>80.599998474121</ele>
        <time>2023-12-19T15:06:39Z</time>
      </trkpt>
      <trkpt lat="43.43546" lon="3.51214">
        <ele>80.599998474121</ele>
        <time>2023-12-19T15:06:40Z</time>
      </trkpt>
      <trkpt lat="43.43545" lon="3.51216">
        <ele>80.400001525879</ele>
        <time>2023-12-19T15:06:41Z</time>
      </trkpt>
      <trkpt lat="43.43543" lon="3.51218">
        <ele>80.400001525879</ele>
        <time>2023-12-19T15:06:42Z</time>
      </trkpt>
      <trkpt lat="43.43541" lon="3.5122">
        <ele>80.199996948242</ele>
        <time>2023-12-19T15:06:43Z</time>
      </trkpt>
      <trkpt lat="43.43539" lon="3.51221">
        <ele>80</ele>
        <time>2023-12-19T15:06:44Z</time>
      </trkpt>
      <trkpt lat="43.43537" lon="3.51223">
        <ele>79.800003051758</ele>
        <time>2023-12-19T15:06:45Z</time>
      </trkpt>
      <trkpt lat="43.43535" lon="3.51225">
        <ele>79.800003051758</ele>
        <time>2023-12-19T15:06:46Z</time>
      </trkpt>
      <trkpt lat="43.43533" lon="3.51227">
        <ele>79.599998474121</ele>
        <time>2023-12-19T15:06:47Z</time>
      </trkpt>
      <trkpt lat="43.43532" lon="3.51229">
        <ele>79.400001525879</ele>
        <time>2023-12-19T15:06:48Z</time>
      </trkpt>
      <trkpt lat="43.4353" lon="3.5123">
        <ele>79.400001525879</ele>
        <time>2023-12-19T15:06:49Z</time>
      </trkpt>
      <trkpt lat="43.43529" lon="3.51231">
        <ele>79.400001525879</ele>
        <time>2023-12-19T15:06:50Z</time>
      </trkpt>
      <trkpt lat="43.43528" lon="3.51233">
        <ele>79.199996948242</ele>
        <time>2023-12-19T15:06:51Z</time>
      </trkpt>
      <trkpt lat="43.43526" lon="3.51235">
        <ele>79</ele>
        <time>2023-12-19T15:06:52Z</time>
      </trkpt>
      <trkpt lat="43.43523" lon="3.51238">
        <ele>79</ele>
        <time>2023-12-19T15:06:53Z</time>
      </trkpt>
      <trkpt lat="43.43519" lon="3.51241">
        <ele>79</ele>
        <time>2023-12-19T15:06:54Z</time>
      </trkpt>
      <trkpt lat="43.43516" lon="3.51244">
        <ele>79</ele>
        <time>2023-12-19T15:06:55Z</time>
      </trkpt>
      <trkpt lat="43.43512" lon="3.51246">
        <ele>78.800003051758</ele>
        <time>2023-12-19T15:06:56Z</time>
      </trkpt>
      <trkpt lat="43.43506" lon="3.51248">
        <ele>78.599998474121</ele>
        <time>2023-12-19T15:06:57Z</time>
      </trkpt>
      <trkpt lat="43.43501" lon="3.5125">
        <ele>78.599998474121</ele>
        <time>2023-12-19T15:06:58Z</time>
      </trkpt>
      <trkpt lat="43.43496" lon="3.51252">
        <ele>78.599998474121</ele>
        <time>2023-12-19T15:06:59Z</time>
      </trkpt>
      <trkpt lat="43.43491" lon="3.51253">
        <ele>78.400001525879</ele>
        <time>2023-12-19T15:07:00Z</time>
      </trkpt>
      <trkpt lat="43.43486" lon="3.51254">
        <ele>78.199996948242</ele>
        <time>2023-12-19T15:07:01Z</time>
      </trkpt>
      <trkpt lat="43.43481" lon="3.51254">
        <ele>78.199996948242</ele>
        <time>2023-12-19T15:07:02Z</time>
      </trkpt>
      <trkpt lat="43.43476" lon="3.51256">
        <ele>78</ele>
        <time>2023-12-19T15:07:03Z</time>
      </trkpt>
      <trkpt lat="43.43471" lon="3.51258">
        <ele>77.800003051758</ele>
        <time>2023-12-19T15:07:04Z</time>
      </trkpt>
      <trkpt lat="43.43469" lon="3.51262">
        <ele>77.599998474121</ele>
        <time>2023-12-19T15:07:05Z</time>
      </trkpt>
      <trkpt lat="43.43468" lon="3.51265">
        <ele>77.400001525879</ele>
        <time>2023-12-19T15:07:06Z</time>
      </trkpt>
      <trkpt lat="43.43469" lon="3.5127">
        <ele>77.400001525879</ele>
        <time>2023-12-19T15:07:07Z</time>
      </trkpt>
      <trkpt lat="43.4347" lon="3.51274">
        <ele>77.400001525879</ele>
        <time>2023-12-19T15:07:08Z</time>
      </trkpt>
      <trkpt lat="43.43468" lon="3.51279">
        <ele>77.400001525879</ele>
        <time>2023-12-19T15:07:09Z</time>
      </trkpt>
      <trkpt lat="43.43466" lon="3.51282">
        <ele>77.400001525879</ele>
        <time>2023-12-19T15:07:10Z</time>
      </trkpt>
      <trkpt lat="43.43462" lon="3.51286">
        <ele>77.400001525879</ele>
        <time>2023-12-19T15:07:11Z</time>
      </trkpt>
      <trkpt lat="43.43458" lon="3.51289">
        <ele>77.599998474121</ele>
        <time>2023-12-19T15:07:12Z</time>
      </trkpt>
      <trkpt lat="43.43454" lon="3.51293">
        <ele>77.599998474121</ele>
        <time>2023-12-19T15:07:13Z</time>
      </trkpt>
      <trkpt lat="43.43449" lon="3.51296">
        <ele>77.599998474121</ele>
        <time>2023-12-19T15:07:14Z</time>
      </trkpt>
      <trkpt lat="43.43444" lon="3.51299">
        <ele>77.599998474121</ele>
        <time>2023-12-19T15:07:15Z</time>
      </trkpt>
      <trkpt lat="43.43439" lon="3.51302">
        <ele>77.400001525879</ele>
        <time>2023-12-19T15:07:16Z</time>
      </trkpt>
      <trkpt lat="43.43436" lon="3.51304">
        <ele>77.599998474121</ele>
        <time>2023-12-19T15:07:17Z</time>
      </trkpt>
      <trkpt lat="43.43433" lon="3.51308">
        <ele>77.599998474121</ele>
        <time>2023-12-19T15:07:18Z</time>
      </trkpt>
      <trkpt lat="43.43431" lon="3.51312">
        <ele>77.599998474121</ele>
        <time>2023-12-19T15:07:19Z</time>
      </trkpt>
      <trkpt lat="43.43427" lon="3.51316">
        <ele>77.599998474121</ele>
        <time>2023-12-19T15:07:20Z</time>
      </trkpt>
      <trkpt lat="43.43425" lon="3.51322">
        <ele>77.800003051758</ele>
        <time>2023-12-19T15:07:21Z</time>
      </trkpt>
      <trkpt lat="43.43423" lon="3.51327">
        <ele>78</ele>
        <time>2023-12-19T15:07:22Z</time>
      </trkpt>
      <trkpt lat="43.43421" lon="3.51332">
        <ele>78.400001525879</ele>
        <time>2023-12-19T15:07:23Z</time>
      </trkpt>
      <trkpt lat="43.43418" lon="3.51337">
        <ele>78.599998474121</ele>
        <time>2023-12-19T15:07:24Z</time>
      </trkpt>
      <trkpt lat="43.43415" lon="3.51342">
        <ele>78.800003051758</ele>
        <time>2023-12-19T15:07:25Z</time>
      </trkpt>
      <trkpt lat="43.43412" lon="3.51347">
        <ele>78.800003051758</ele>
        <time>2023-12-19T15:07:26Z</time>
      </trkpt>
      <trkpt lat="43.43409" lon="3.51352">
        <ele>79</ele>
        <time>2023-12-19T15:07:27Z</time>
      </trkpt>
      <trkpt lat="43.43406" lon="3.51358">
        <ele>79.400001525879</ele>
        <time>2023-12-19T15:07:28Z</time>
      </trkpt>
      <trkpt lat="43.43403" lon="3.51363">
        <ele>79.599998474121</ele>
        <time>2023-12-19T15:07:29Z</time>
      </trkpt>
      <trkpt lat="43.434" lon="3.5137">
        <ele>79.800003051758</ele>
        <time>2023-12-19T15:07:30Z</time>
      </trkpt>
      <trkpt lat="43.43396" lon="3.51375">
        <ele>80.199996948242</ele>
        <time>2023-12-19T15:07:31Z</time>
      </trkpt>
      <trkpt lat="43.43392" lon="3.51378">
        <ele>80.400001525879</ele>
        <time>2023-12-19T15:07:32Z</time>
      </trkpt>
      <trkpt lat="43.43388" lon="3.51379">
        <ele>80.400001525879</ele>
        <time>2023-12-19T15:07:33Z</time>
      </trkpt>
      <trkpt lat="43.43385" lon="3.51378">
        <ele>80.599998474121</ele>
        <time>2023-12-19T15:07:34Z</time>
      </trkpt>
      <trkpt lat="43.43383" lon="3.51377">
        <ele>80.800003051758</ele>
        <time>2023-12-19T15:07:35Z</time>
      </trkpt>
      <trkpt lat="43.4338" lon="3.51375">
        <ele>80.800003051758</ele>
        <time>2023-12-19T15:07:36Z</time>
      </trkpt>
      <trkpt lat="43.43378" lon="3.51374">
        <ele>81</ele>
        <time>2023-12-19T15:07:37Z</time>
      </trkpt>
      <trkpt lat="43.43377" lon="3.51372">
        <ele>81.199996948242</ele>
        <time>2023-12-19T15:07:38Z</time>
      </trkpt>
      <trkpt lat="43.43376" lon="3.5137">
        <ele>81.400001525879</ele>
        <time>2023-12-19T15:07:39Z</time>
      </trkpt>
      <trkpt lat="43.43374" lon="3.51369">
        <ele>81.599998474121</ele>
        <time>2023-12-19T15:07:40Z</time>
      </trkpt>
      <trkpt lat="43.43372" lon="3.51366">
        <ele>81.599998474121</ele>
        <time>2023-12-19T15:07:41Z</time>
      </trkpt>
      <trkpt lat="43.4337" lon="3.51364">
        <ele>81.800003051758</ele>
        <time>2023-12-19T15:07:42Z</time>
      </trkpt>
      <trkpt lat="43.43368" lon="3.51361">
        <ele>81.800003051758</ele>
        <time>2023-12-19T15:07:43Z</time>
      </trkpt>
      <trkpt lat="43.43367" lon="3.51359">
        <ele>81.800003051758</ele>
        <time>2023-12-19T15:07:44Z</time>
      </trkpt>
      <trkpt lat="43.43365" lon="3.51356">
        <ele>81.800003051758</ele>
        <time>2023-12-19T15:07:45Z</time>
      </trkpt>
      <trkpt lat="43.43364" lon="3.51354">
        <ele>81.800003051758</ele>
        <time>2023-12-19T15:07:46Z</time>
      </trkpt>
      <trkpt lat="43.43364" lon="3.51351">
        <ele>81.800003051758</ele>
        <time>2023-12-19T15:07:47Z</time>
      </trkpt>
      <trkpt lat="43.43363" lon="3.51349">
        <ele>81.599998474121</ele>
        <time>2023-12-19T15:07:48Z</time>
      </trkpt>
      <trkpt lat="43.43363" lon="3.51346">
        <ele>81.599998474121</ele>
        <time>2023-12-19T15:07:49Z</time>
      </trkpt>
      <trkpt lat="43.43362" lon="3.51343">
        <ele>81.400001525879</ele>
        <time>2023-12-19T15:07:50Z</time>
      </trkpt>
      <trkpt lat="43.4336" lon="3.51342">
        <ele>81.400001525879</ele>
        <time>2023-12-19T15:07:51Z</time>
      </trkpt>
      <trkpt lat="43.43356" lon="3.51341">
        <ele>81.400001525879</ele>
        <time>2023-12-19T15:07:52Z</time>
      </trkpt>
      <trkpt lat="43.43354" lon="3.51343">
        <ele>81.199996948242</ele>
        <time>2023-12-19T15:07:53Z</time>
      </trkpt>
      <trkpt lat="43.43353" lon="3.51345">
        <ele>81.199996948242</ele>
        <time>2023-12-19T15:07:54Z</time>
      </trkpt>
      <trkpt lat="43.43352" lon="3.51346">
        <ele>81</ele>
        <time>2023-12-19T15:07:55Z</time>
      </trkpt>
      <trkpt lat="43.43351" lon="3.51348">
        <ele>80.800003051758</ele>
        <time>2023-12-19T15:07:56Z</time>
      </trkpt>
      <trkpt lat="43.4335" lon="3.51349">
        <ele>80.599998474121</ele>
        <time>2023-12-19T15:07:57Z</time>
      </trkpt>
      <trkpt lat="43.43348" lon="3.5135">
        <ele>80.400001525879</ele>
        <time>2023-12-19T15:07:58Z</time>
      </trkpt>
      <trkpt lat="43.43348" lon="3.51351">
        <ele>80.400001525879</ele>
        <time>2023-12-19T15:07:59Z</time>
      </trkpt>
      <trkpt lat="43.43346" lon="3.51352">
        <ele>80.400001525879</ele>
        <time>2023-12-19T15:08:00Z</time>
      </trkpt>
      <trkpt lat="43.43344" lon="3.51353">
        <ele>80.400001525879</ele>
        <time>2023-12-19T15:08:01Z</time>
      </trkpt>
      <trkpt lat="43.43342" lon="3.51354">
        <ele>80.400001525879</ele>
        <time>2023-12-19T15:08:02Z</time>
      </trkpt>
      <trkpt lat="43.4334" lon="3.51355">
        <ele>80.199996948242</ele>
        <time>2023-12-19T15:08:03Z</time>
      </trkpt>
      <trkpt lat="43.43337" lon="3.51358">
        <ele>80.199996948242</ele>
        <time>2023-12-19T15:08:04Z</time>
      </trkpt>
      <trkpt lat="43.43335" lon="3.5136">
        <ele>80.199996948242</ele>
        <time>2023-12-19T15:08:05Z</time>
      </trkpt>
      <trkpt lat="43.43332" lon="3.51362">
        <ele>80.199996948242</ele>
        <time>2023-12-19T15:08:06Z</time>
      </trkpt>
      <trkpt lat="43.43328" lon="3.51365">
        <ele>80</ele>
        <time>2023-12-19T15:08:07Z</time>
      </trkpt>
      <trkpt lat="43.43326" lon="3.51366">
        <ele>79.800003051758</ele>
        <time>2023-12-19T15:08:08Z</time>
      </trkpt>
      <trkpt lat="43.43324" lon="3.51368">
        <ele>79.400001525879</ele>
        <time>2023-12-19T15:08:09Z</time>
      </trkpt>
      <trkpt lat="43.43321" lon="3.51368">
        <ele>79.199996948242</ele>
        <time>2023-12-19T15:08:10Z</time>
      </trkpt>
      <trkpt lat="43.43318" lon="3.51368">
        <ele>79</ele>
        <time>2023-12-19T15:08:11Z</time>
      </trkpt>
      <trkpt lat="43.43314" lon="3.51368">
        <ele>78.800003051758</ele>
        <time>2023-12-19T15:08:12Z</time>
      </trkpt>
      <trkpt lat="43.43311" lon="3.51369">
        <ele>78.800003051758</ele>
        <time>2023-12-19T15:08:13Z</time>
      </trkpt>
      <trkpt lat="43.43308" lon="3.5137">
        <ele>78.599998474121</ele>
        <time>2023-12-19T15:08:14Z</time>
      </trkpt>
      <trkpt lat="43.43304" lon="3.51373">
        <ele>78.599998474121</ele>
        <time>2023-12-19T15:08:15Z</time>
      </trkpt>
      <trkpt lat="43.43301" lon="3.51376">
        <ele>78.400001525879</ele>
        <time>2023-12-19T15:08:16Z</time>
      </trkpt>
      <trkpt lat="43.43298" lon="3.51379">
        <ele>78</ele>
        <time>2023-12-19T15:08:17Z</time>
      </trkpt>
      <trkpt lat="43.43295" lon="3.51383">
        <ele>78</ele>
        <time>2023-12-19T15:08:18Z</time>
      </trkpt>
      <trkpt lat="43.43292" lon="3.51387">
        <ele>77.800003051758</ele>
        <time>2023-12-19T15:08:19Z</time>
      </trkpt>
      <trkpt lat="43.43289" lon="3.51392">
        <ele>77.599998474121</ele>
        <time>2023-12-19T15:08:20Z</time>
      </trkpt>
      <trkpt lat="43.43286" lon="3.51397">
        <ele>77.400001525879</ele>
        <time>2023-12-19T15:08:21Z</time>
      </trkpt>
      <trkpt lat="43.43283" lon="3.51402">
        <ele>77.400001525879</ele>
        <time>2023-12-19T15:08:22Z</time>
      </trkpt>
      <trkpt lat="43.4328" lon="3.51406">
        <ele>77</ele>
        <time>2023-12-19T15:08:23Z</time>
      </trkpt>
      <trkpt lat="43.43277" lon="3.51409">
        <ele>76.800003051758</ele>
        <time>2023-12-19T15:08:24Z</time>
      </trkpt>
      <trkpt lat="43.43275" lon="3.51413">
        <ele>76.599998474121</ele>
        <time>2023-12-19T15:08:25Z</time>
      </trkpt>
      <trkpt lat="43.43273" lon="3.51416">
        <ele>76.800003051758</ele>
        <time>2023-12-19T15:08:26Z</time>
      </trkpt>
      <trkpt lat="43.43271" lon="3.5142">
        <ele>76.599998474121</ele>
        <time>2023-12-19T15:08:27Z</time>
      </trkpt>
      <trkpt lat="43.4327" lon="3.51424">
        <ele>76.599998474121</ele>
        <time>2023-12-19T15:08:28Z</time>
      </trkpt>
      <trkpt lat="43.43268" lon="3.5143">
        <ele>76.599998474121</ele>
        <time>2023-12-19T15:08:29Z</time>
      </trkpt>
      <trkpt lat="43.43266" lon="3.51436">
        <ele>76.599998474121</ele>
        <time>2023-12-19T15:08:30Z</time>
      </trkpt>
      <trkpt lat="43.43264" lon="3.51441">
        <ele>76.599998474121</ele>
        <time>2023-12-19T15:08:31Z</time>
      </trkpt>
      <trkpt lat="43.43263" lon="3.51446">
        <ele>76.400001525879</ele>
        <time>2023-12-19T15:08:32Z</time>
      </trkpt>
      <trkpt lat="43.43261" lon="3.5145">
        <ele>76.199996948242</ele>
        <time>2023-12-19T15:08:33Z</time>
      </trkpt>
      <trkpt lat="43.43259" lon="3.51454">
        <ele>76</ele>
        <time>2023-12-19T15:08:34Z</time>
      </trkpt>
      <trkpt lat="43.43258" lon="3.51458">
        <ele>75.800003051758</ele>
        <time>2023-12-19T15:08:35Z</time>
      </trkpt>
      <trkpt lat="43.43257" lon="3.51461">
        <ele>75.800003051758</ele>
        <time>2023-12-19T15:08:36Z</time>
      </trkpt>
      <trkpt lat="43.43255" lon="3.51465">
        <ele>75.800003051758</ele>
        <time>2023-12-19T15:08:37Z</time>
      </trkpt>
      <trkpt lat="43.43253" lon="3.51468">
        <ele>75.800003051758</ele>
        <time>2023-12-19T15:08:38Z</time>
      </trkpt>
      <trkpt lat="43.43249" lon="3.51469">
        <ele>75.800003051758</ele>
        <time>2023-12-19T15:08:39Z</time>
      </trkpt>
      <trkpt lat="43.43246" lon="3.51469">
        <ele>75.800003051758</ele>
        <time>2023-12-19T15:08:40Z</time>
      </trkpt>
      <trkpt lat="43.43243" lon="3.51468">
        <ele>75.800003051758</ele>
        <time>2023-12-19T15:08:41Z</time>
      </trkpt>
      <trkpt lat="43.43241" lon="3.51467">
        <ele>75.800003051758</ele>
        <time>2023-12-19T15:08:42Z</time>
      </trkpt>
      <trkpt lat="43.43241" lon="3.51465">
        <ele>75.800003051758</ele>
        <time>2023-12-19T15:08:43Z</time>
      </trkpt>
      <trkpt lat="43.4324" lon="3.51464">
        <ele>75.599998474121</ele>
        <time>2023-12-19T15:08:44Z</time>
      </trkpt>
      <trkpt lat="43.43239" lon="3.51463">
        <ele>75.599998474121</ele>
        <time>2023-12-19T15:08:45Z</time>
      </trkpt>
      <trkpt lat="43.43238" lon="3.51464">
        <ele>75.599998474121</ele>
        <time>2023-12-19T15:08:46Z</time>
      </trkpt>
      <trkpt lat="43.43238" lon="3.51466">
        <ele>75.400001525879</ele>
        <time>2023-12-19T15:08:47Z</time>
      </trkpt>
      <trkpt lat="43.43238" lon="3.51468">
        <ele>75.400001525879</ele>
        <time>2023-12-19T15:08:48Z</time>
      </trkpt>
      <trkpt lat="43.4324" lon="3.5147">
        <ele>75.199996948242</ele>
        <time>2023-12-19T15:08:49Z</time>
      </trkpt>
      <trkpt lat="43.43242" lon="3.51471">
        <ele>75.199996948242</ele>
        <time>2023-12-19T15:08:50Z</time>
      </trkpt>
      <trkpt lat="43.43244" lon="3.51471">
        <ele>75.199996948242</ele>
        <time>2023-12-19T15:08:51Z</time>
      </trkpt>
      <trkpt lat="43.43248" lon="3.5147">
        <ele>75.199996948242</ele>
        <time>2023-12-19T15:08:52Z</time>
      </trkpt>
      <trkpt lat="43.43251" lon="3.5147">
        <ele>75.199996948242</ele>
        <time>2023-12-19T15:08:53Z</time>
      </trkpt>
      <trkpt lat="43.43253" lon="3.51468">
        <ele>75.199996948242</ele>
        <time>2023-12-19T15:08:54Z</time>
      </trkpt>
      <trkpt lat="43.43255" lon="3.51465">
        <ele>75.199996948242</ele>
        <time>2023-12-19T15:08:55Z</time>
      </trkpt>
      <trkpt lat="43.43255" lon="3.51461">
        <ele>75.400001525879</ele>
        <time>2023-12-19T15:08:56Z</time>
      </trkpt>
      <trkpt lat="43.43254" lon="3.51458">
        <ele>75.599998474121</ele>
        <time>2023-12-19T15:08:57Z</time>
      </trkpt>
      <trkpt lat="43.43254" lon="3.51454">
        <ele>75.599998474121</ele>
        <time>2023-12-19T15:08:58Z</time>
      </trkpt>
      <trkpt lat="43.43252" lon="3.5145">
        <ele>75.599998474121</ele>
        <time>2023-12-19T15:08:59Z</time>
      </trkpt>
      <trkpt lat="43.43251" lon="3.51448">
        <ele>75.599998474121</ele>
        <time>2023-12-19T15:09:00Z</time>
      </trkpt>
      <trkpt lat="43.43249" lon="3.51445">
        <ele>75.599998474121</ele>
        <time>2023-12-19T15:09:01Z</time>
      </trkpt>
      <trkpt lat="43.43248" lon="3.51442">
        <ele>75.599998474121</ele>
        <time>2023-12-19T15:09:02Z</time>
      </trkpt>
      <trkpt lat="43.43247" lon="3.51439">
        <ele>75.599998474121</ele>
        <time>2023-12-19T15:09:03Z</time>
      </trkpt>
      <trkpt lat="43.43246" lon="3.51436">
        <ele>75.400001525879</ele>
        <time>2023-12-19T15:09:04Z</time>
      </trkpt>
      <trkpt lat="43.43245" lon="3.51432">
        <ele>75.400001525879</ele>
        <time>2023-12-19T15:09:05Z</time>
      </trkpt>
      <trkpt lat="43.43244" lon="3.51429">
        <ele>75.400001525879</ele>
        <time>2023-12-19T15:09:06Z</time>
      </trkpt>
      <trkpt lat="43.43243" lon="3.51425">
        <ele>75.199996948242</ele>
        <time>2023-12-19T15:09:07Z</time>
      </trkpt>
      <trkpt lat="43.43241" lon="3.51421">
        <ele>75.199996948242</ele>
        <time>2023-12-19T15:09:08Z</time>
      </trkpt>
      <trkpt lat="43.43238" lon="3.51417">
        <ele>75</ele>
        <time>2023-12-19T15:09:09Z</time>
      </trkpt>
      <trkpt lat="43.43235" lon="3.51415">
        <ele>75</ele>
        <time>2023-12-19T15:09:10Z</time>
      </trkpt>
      <trkpt lat="43.43232" lon="3.51412">
        <ele>74.800003051758</ele>
        <time>2023-12-19T15:09:11Z</time>
      </trkpt>
      <trkpt lat="43.43228" lon="3.5141">
        <ele>74.599998474121</ele>
        <time>2023-12-19T15:09:12Z</time>
      </trkpt>
      <trkpt lat="43.43224" lon="3.51407">
        <ele>74.400001525879</ele>
        <time>2023-12-19T15:09:13Z</time>
      </trkpt>
      <trkpt lat="43.43219" lon="3.51405">
        <ele>74.199996948242</ele>
        <time>2023-12-19T15:09:14Z</time>
      </trkpt>
      <trkpt lat="43.43215" lon="3.51405">
        <ele>74</ele>
        <time>2023-12-19T15:09:15Z</time>
      </trkpt>
      <trkpt lat="43.43211" lon="3.51405">
        <ele>73.800003051758</ele>
        <time>2023-12-19T15:09:16Z</time>
      </trkpt>
      <trkpt lat="43.43207" lon="3.51405">
        <ele>73.599998474121</ele>
        <time>2023-12-19T15:09:17Z</time>
      </trkpt>
      <trkpt lat="43.43202" lon="3.51405">
        <ele>73.199996948242</ele>
        <time>2023-12-19T15:09:18Z</time>
      </trkpt>
      <trkpt lat="43.43197" lon="3.51404">
        <ele>73.199996948242</ele>
        <time>2023-12-19T15:09:19Z</time>
      </trkpt>
      <trkpt lat="43.43192" lon="3.51402">
        <ele>72.800003051758</ele>
        <time>2023-12-19T15:09:20Z</time>
      </trkpt>
      <trkpt lat="43.43188" lon="3.51401">
        <ele>72.400001525879</ele>
        <time>2023-12-19T15:09:21Z</time>
      </trkpt>
      <trkpt lat="43.43184" lon="3.51399">
        <ele>72</ele>
        <time>2023-12-19T15:09:22Z</time>
      </trkpt>
      <trkpt lat="43.4318" lon="3.51397">
        <ele>71.800003051758</ele>
        <time>2023-12-19T15:09:23Z</time>
      </trkpt>
      <trkpt lat="43.43176" lon="3.51394">
        <ele>71.400001525879</ele>
        <time>2023-12-19T15:09:24Z</time>
      </trkpt>
      <trkpt lat="43.43174" lon="3.51391">
        <ele>70.599998474121</ele>
        <time>2023-12-19T15:09:25Z</time>
      </trkpt>
      <trkpt lat="43.43172" lon="3.51387">
        <ele>69.800003051758</ele>
        <time>2023-12-19T15:09:26Z</time>
      </trkpt>
      <trkpt lat="43.43171" lon="3.51384">
        <ele>69.400001525879</ele>
        <time>2023-12-19T15:09:27Z</time>
      </trkpt>
      <trkpt lat="43.43169" lon="3.51382">
        <ele>68.599998474121</ele>
        <time>2023-12-19T15:09:28Z</time>
      </trkpt>
      <trkpt lat="43.43168" lon="3.51381">
        <ele>68.400001525879</ele>
        <time>2023-12-19T15:09:29Z</time>
      </trkpt>
      <trkpt lat="43.43166" lon="3.51381">
        <ele>68.199996948242</ele>
        <time>2023-12-19T15:09:30Z</time>
      </trkpt>
      <trkpt lat="43.43165" lon="3.5138">
        <ele>67.800003051758</ele>
        <time>2023-12-19T15:09:31Z</time>
      </trkpt>
      <trkpt lat="43.43162" lon="3.51379">
        <ele>67.800003051758</ele>
        <time>2023-12-19T15:09:32Z</time>
      </trkpt>
      <trkpt lat="43.4316" lon="3.51378">
        <ele>67.800003051758</ele>
        <time>2023-12-19T15:09:33Z</time>
      </trkpt>
      <trkpt lat="43.43157" lon="3.51377">
        <ele>67.800003051758</ele>
        <time>2023-12-19T15:09:34Z</time>
      </trkpt>
      <trkpt lat="43.43154" lon="3.51377">
        <ele>67.800003051758</ele>
        <time>2023-12-19T15:09:35Z</time>
      </trkpt>
      <trkpt lat="43.4315" lon="3.51376">
        <ele>67.599998474121</ele>
        <time>2023-12-19T15:09:36Z</time>
      </trkpt>
      <trkpt lat="43.43146" lon="3.51376">
        <ele>67.599998474121</ele>
        <time>2023-12-19T15:09:37Z</time>
      </trkpt>
      <trkpt lat="43.43142" lon="3.51375">
        <ele>67.199996948242</ele>
        <time>2023-12-19T15:09:38Z</time>
      </trkpt>
      <trkpt lat="43.43137" lon="3.51376">
        <ele>66.800003051758</ele>
        <time>2023-12-19T15:09:39Z</time>
      </trkpt>
      <trkpt lat="43.43133" lon="3.51376">
        <ele>66.599998474121</ele>
        <time>2023-12-19T15:09:40Z</time>
      </trkpt>
      <trkpt lat="43.43129" lon="3.51377">
        <ele>66.400001525879</ele>
        <time>2023-12-19T15:09:41Z</time>
      </trkpt>
      <trkpt lat="43.43126" lon="3.51377">
        <ele>66</ele>
        <time>2023-12-19T15:09:42Z</time>
      </trkpt>
      <trkpt lat="43.43122" lon="3.51377">
        <ele>65.800003051758</ele>
        <time>2023-12-19T15:09:43Z</time>
      </trkpt>
      <trkpt lat="43.43117" lon="3.51377">
        <ele>65.599998474121</ele>
        <time>2023-12-19T15:09:44Z</time>
      </trkpt>
      <trkpt lat="43.43111" lon="3.51376">
        <ele>65.400001525879</ele>
        <time>2023-12-19T15:09:45Z</time>
      </trkpt>
      <trkpt lat="43.43105" lon="3.51375">
        <ele>65.199996948242</ele>
        <time>2023-12-19T15:09:46Z</time>
      </trkpt>
      <trkpt lat="43.43099" lon="3.51373">
        <ele>65</ele>
        <time>2023-12-19T15:09:47Z</time>
      </trkpt>
      <trkpt lat="43.43093" lon="3.5137">
        <ele>64.800003051758</ele>
        <time>2023-12-19T15:09:48Z</time>
      </trkpt>
      <trkpt lat="43.43087" lon="3.51368">
        <ele>64.800003051758</ele>
        <time>2023-12-19T15:09:49Z</time>
      </trkpt>
      <trkpt lat="43.43081" lon="3.51366">
        <ele>64.599998474121</ele>
        <time>2023-12-19T15:09:50Z</time>
      </trkpt>
      <trkpt lat="43.43075" lon="3.51366">
        <ele>64.599998474121</ele>
        <time>2023-12-19T15:09:51Z</time>
      </trkpt>
      <trkpt lat="43.4307" lon="3.51366">
        <ele>64.400001525879</ele>
        <time>2023-12-19T15:09:52Z</time>
      </trkpt>
      <trkpt lat="43.43064" lon="3.51367">
        <ele>64.400001525879</ele>
        <time>2023-12-19T15:09:53Z</time>
      </trkpt>
      <trkpt lat="43.43058" lon="3.5137">
        <ele>64.199996948242</ele>
        <time>2023-12-19T15:09:54Z</time>
      </trkpt>
      <trkpt lat="43.43053" lon="3.51374">
        <ele>64.199996948242</ele>
        <time>2023-12-19T15:09:55Z</time>
      </trkpt>
      <trkpt lat="43.43049" lon="3.51378">
        <ele>64.199996948242</ele>
        <time>2023-12-19T15:09:56Z</time>
      </trkpt>
      <trkpt lat="43.43044" lon="3.51383">
        <ele>64.199996948242</ele>
        <time>2023-12-19T15:09:57Z</time>
      </trkpt>
      <trkpt lat="43.43039" lon="3.51388">
        <ele>64.199996948242</ele>
        <time>2023-12-19T15:09:58Z</time>
      </trkpt>
      <trkpt lat="43.43035" lon="3.51393">
        <ele>64.199996948242</ele>
        <time>2023-12-19T15:09:59Z</time>
      </trkpt>
      <trkpt lat="43.43031" lon="3.51399">
        <ele>64.199996948242</ele>
        <time>2023-12-19T15:10:00Z</time>
      </trkpt>
      <trkpt lat="43.43027" lon="3.51404">
        <ele>64.199996948242</ele>
        <time>2023-12-19T15:10:01Z</time>
      </trkpt>
      <trkpt lat="43.43022" lon="3.51409">
        <ele>64.199996948242</ele>
        <time>2023-12-19T15:10:02Z</time>
      </trkpt>
      <trkpt lat="43.43017" lon="3.51414">
        <ele>64.199996948242</ele>
        <time>2023-12-19T15:10:03Z</time>
      </trkpt>
      <trkpt lat="43.43012" lon="3.51419">
        <ele>64.199996948242</ele>
        <time>2023-12-19T15:10:04Z</time>
      </trkpt>
      <trkpt lat="43.43007" lon="3.51423">
        <ele>64</ele>
        <time>2023-12-19T15:10:05Z</time>
      </trkpt>
      <trkpt lat="43.43002" lon="3.51427">
        <ele>64</ele>
        <time>2023-12-19T15:10:06Z</time>
      </trkpt>
      <trkpt lat="43.42997" lon="3.51431">
        <ele>63.799999237061</ele>
        <time>2023-12-19T15:10:07Z</time>
      </trkpt>
      <trkpt lat="43.42991" lon="3.51434">
        <ele>63.799999237061</ele>
        <time>2023-12-19T15:10:08Z</time>
      </trkpt>
      <trkpt lat="43.42986" lon="3.51437">
        <ele>63.599998474121</ele>
        <time>2023-12-19T15:10:09Z</time>
      </trkpt>
      <trkpt lat="43.42981" lon="3.51441">
        <ele>63.599998474121</ele>
        <time>2023-12-19T15:10:10Z</time>
      </trkpt>
      <trkpt lat="43.42975" lon="3.51444">
        <ele>63.599998474121</ele>
        <time>2023-12-19T15:10:11Z</time>
      </trkpt>
      <trkpt lat="43.42969" lon="3.51447">
        <ele>63.599998474121</ele>
        <time>2023-12-19T15:10:12Z</time>
      </trkpt>
      <trkpt lat="43.42964" lon="3.5145">
        <ele>63.400001525879</ele>
        <time>2023-12-19T15:10:13Z</time>
      </trkpt>
      <trkpt lat="43.42959" lon="3.51453">
        <ele>63.400001525879</ele>
        <time>2023-12-19T15:10:14Z</time>
      </trkpt>
      <trkpt lat="43.42953" lon="3.51456">
        <ele>63.200000762939</ele>
        <time>2023-12-19T15:10:15Z</time>
      </trkpt>
      <trkpt lat="43.42947" lon="3.5146">
        <ele>63.200000762939</ele>
        <time>2023-12-19T15:10:16Z</time>
      </trkpt>
      <trkpt lat="43.42942" lon="3.51463">
        <ele>63.200000762939</ele>
        <time>2023-12-19T15:10:17Z</time>
      </trkpt>
      <trkpt lat="43.42936" lon="3.51467">
        <ele>63.200000762939</ele>
        <time>2023-12-19T15:10:18Z</time>
      </trkpt>
      <trkpt lat="43.4293" lon="3.5147">
        <ele>63</ele>
        <time>2023-12-19T15:10:19Z</time>
      </trkpt>
      <trkpt lat="43.42925" lon="3.51474">
        <ele>63</ele>
        <time>2023-12-19T15:10:20Z</time>
      </trkpt>
      <trkpt lat="43.42919" lon="3.51478">
        <ele>63</ele>
        <time>2023-12-19T15:10:21Z</time>
      </trkpt>
      <trkpt lat="43.42915" lon="3.51482">
        <ele>63</ele>
        <time>2023-12-19T15:10:22Z</time>
      </trkpt>
      <trkpt lat="43.4291" lon="3.51486">
        <ele>62.799999237061</ele>
        <time>2023-12-19T15:10:23Z</time>
      </trkpt>
      <trkpt lat="43.42905" lon="3.51489">
        <ele>62.799999237061</ele>
        <time>2023-12-19T15:10:24Z</time>
      </trkpt>
      <trkpt lat="43.42901" lon="3.51493">
        <ele>62.799999237061</ele>
        <time>2023-12-19T15:10:25Z</time>
      </trkpt>
      <trkpt lat="43.42897" lon="3.51496">
        <ele>62.799999237061</ele>
        <time>2023-12-19T15:10:26Z</time>
      </trkpt>
      <trkpt lat="43.42892" lon="3.51498">
        <ele>62.799999237061</ele>
        <time>2023-12-19T15:10:27Z</time>
      </trkpt>
      <trkpt lat="43.42888" lon="3.515">
        <ele>62.799999237061</ele>
        <time>2023-12-19T15:10:28Z</time>
      </trkpt>
      <trkpt lat="43.42883" lon="3.51502">
        <ele>62.799999237061</ele>
        <time>2023-12-19T15:10:29Z</time>
      </trkpt>
      <trkpt lat="43.42879" lon="3.51503">
        <ele>62.799999237061</ele>
        <time>2023-12-19T15:10:30Z</time>
      </trkpt>
      <trkpt lat="43.42875" lon="3.51505">
        <ele>62.599998474121</ele>
        <time>2023-12-19T15:10:31Z</time>
      </trkpt>
      <trkpt lat="43.4287" lon="3.51507">
        <ele>62.599998474121</ele>
        <time>2023-12-19T15:10:32Z</time>
      </trkpt>
      <trkpt lat="43.42865" lon="3.51508">
        <ele>62.599998474121</ele>
        <time>2023-12-19T15:10:33Z</time>
      </trkpt>
      <trkpt lat="43.4286" lon="3.5151">
        <ele>62.400001525879</ele>
        <time>2023-12-19T15:10:34Z</time>
      </trkpt>
      <trkpt lat="43.42855" lon="3.51512">
        <ele>62.200000762939</ele>
        <time>2023-12-19T15:10:35Z</time>
      </trkpt>
      <trkpt lat="43.42849" lon="3.51514">
        <ele>62</ele>
        <time>2023-12-19T15:10:36Z</time>
      </trkpt>
      <trkpt lat="43.42845" lon="3.51516">
        <ele>61.799999237061</ele>
        <time>2023-12-19T15:10:37Z</time>
      </trkpt>
      <trkpt lat="43.42839" lon="3.51518">
        <ele>61.599998474121</ele>
        <time>2023-12-19T15:10:38Z</time>
      </trkpt>
      <trkpt lat="43.42834" lon="3.5152">
        <ele>61.599998474121</ele>
        <time>2023-12-19T15:10:39Z</time>
      </trkpt>
      <trkpt lat="43.42829" lon="3.51523">
        <ele>61.599998474121</ele>
        <time>2023-12-19T15:10:40Z</time>
      </trkpt>
      <trkpt lat="43.42825" lon="3.51525">
        <ele>61.400001525879</ele>
        <time>2023-12-19T15:10:41Z</time>
      </trkpt>
      <trkpt lat="43.4282" lon="3.51528">
        <ele>61.400001525879</ele>
        <time>2023-12-19T15:10:42Z</time>
      </trkpt>
      <trkpt lat="43.42816" lon="3.51531">
        <ele>61.400001525879</ele>
        <time>2023-12-19T15:10:43Z</time>
      </trkpt>
      <trkpt lat="43.42811" lon="3.51534">
        <ele>61.400001525879</ele>
        <time>2023-12-19T15:10:44Z</time>
      </trkpt>
      <trkpt lat="43.42806" lon="3.51537">
        <ele>61.599998474121</ele>
        <time>2023-12-19T15:10:45Z</time>
      </trkpt>
      <trkpt lat="43.42802" lon="3.5154">
        <ele>61.599998474121</ele>
        <time>2023-12-19T15:10:46Z</time>
      </trkpt>
      <trkpt lat="43.42798" lon="3.51543">
        <ele>61.599998474121</ele>
        <time>2023-12-19T15:10:47Z</time>
      </trkpt>
      <trkpt lat="43.42793" lon="3.51546">
        <ele>61.599998474121</ele>
        <time>2023-12-19T15:10:48Z</time>
      </trkpt>
      <trkpt lat="43.42788" lon="3.51548">
        <ele>61.599998474121</ele>
        <time>2023-12-19T15:10:49Z</time>
      </trkpt>
      <trkpt lat="43.42784" lon="3.51551">
        <ele>61.799999237061</ele>
        <time>2023-12-19T15:10:50Z</time>
      </trkpt>
      <trkpt lat="43.4278" lon="3.51554">
        <ele>62</ele>
        <time>2023-12-19T15:10:51Z</time>
      </trkpt>
      <trkpt lat="43.42777" lon="3.51557">
        <ele>62.200000762939</ele>
        <time>2023-12-19T15:10:52Z</time>
      </trkpt>
      <trkpt lat="43.42774" lon="3.5156">
        <ele>62.400001525879</ele>
        <time>2023-12-19T15:10:53Z</time>
      </trkpt>
      <trkpt lat="43.42771" lon="3.51563">
        <ele>62.599998474121</ele>
        <time>2023-12-19T15:10:54Z</time>
      </trkpt>
      <trkpt lat="43.42769" lon="3.51567">
        <ele>63</ele>
        <time>2023-12-19T15:10:55Z</time>
      </trkpt>
      <trkpt lat="43.42766" lon="3.51572">
        <ele>63.400001525879</ele>
        <time>2023-12-19T15:10:56Z</time>
      </trkpt>
      <trkpt lat="43.42764" lon="3.51577">
        <ele>63.799999237061</ele>
        <time>2023-12-19T15:10:57Z</time>
      </trkpt>
      <trkpt lat="43.4276" lon="3.51582">
        <ele>64</ele>
        <time>2023-12-19T15:10:58Z</time>
      </trkpt>
      <trkpt lat="43.42756" lon="3.51586">
        <ele>64</ele>
        <time>2023-12-19T15:10:59Z</time>
      </trkpt>
      <trkpt lat="43.42752" lon="3.5159">
        <ele>64</ele>
        <time>2023-12-19T15:11:00Z</time>
      </trkpt>
      <trkpt lat="43.42747" lon="3.51593">
        <ele>64</ele>
        <time>2023-12-19T15:11:01Z</time>
      </trkpt>
      <trkpt lat="43.42742" lon="3.51594">
        <ele>64</ele>
        <time>2023-12-19T15:11:02Z</time>
      </trkpt>
      <trkpt lat="43.42737" lon="3.51596">
        <ele>64</ele>
        <time>2023-12-19T15:11:03Z</time>
      </trkpt>
      <trkpt lat="43.42733" lon="3.51598">
        <ele>64</ele>
        <time>2023-12-19T15:11:04Z</time>
      </trkpt>
      <trkpt lat="43.42728" lon="3.516">
        <ele>63.799999237061</ele>
        <time>2023-12-19T15:11:05Z</time>
      </trkpt>
      <trkpt lat="43.42724" lon="3.51601">
        <ele>63.799999237061</ele>
        <time>2023-12-19T15:11:06Z</time>
      </trkpt>
      <trkpt lat="43.42719" lon="3.51602">
        <ele>63.599998474121</ele>
        <time>2023-12-19T15:11:07Z</time>
      </trkpt>
      <trkpt lat="43.42714" lon="3.51604">
        <ele>63.599998474121</ele>
        <time>2023-12-19T15:11:08Z</time>
      </trkpt>
      <trkpt lat="43.42709" lon="3.51605">
        <ele>63.400001525879</ele>
        <time>2023-12-19T15:11:09Z</time>
      </trkpt>
      <trkpt lat="43.42704" lon="3.51606">
        <ele>63.400001525879</ele>
        <time>2023-12-19T15:11:10Z</time>
      </trkpt>
      <trkpt lat="43.42699" lon="3.51608">
        <ele>63.200000762939</ele>
        <time>2023-12-19T15:11:11Z</time>
      </trkpt>
      <trkpt lat="43.42694" lon="3.51609">
        <ele>63.200000762939</ele>
        <time>2023-12-19T15:11:12Z</time>
      </trkpt>
      <trkpt lat="43.4269" lon="3.5161">
        <ele>63.200000762939</ele>
        <time>2023-12-19T15:11:13Z</time>
      </trkpt>
      <trkpt lat="43.42685" lon="3.51611">
        <ele>63.200000762939</ele>
        <time>2023-12-19T15:11:14Z</time>
      </trkpt>
      <trkpt lat="43.42681" lon="3.51612">
        <ele>63.200000762939</ele>
        <time>2023-12-19T15:11:15Z</time>
      </trkpt>
      <trkpt lat="43.42678" lon="3.51615">
        <ele>63.200000762939</ele>
        <time>2023-12-19T15:11:16Z</time>
      </trkpt>
      <trkpt lat="43.42674" lon="3.51617">
        <ele>63.200000762939</ele>
        <time>2023-12-19T15:11:17Z</time>
      </trkpt>
      <trkpt lat="43.4267" lon="3.51618">
        <ele>63.200000762939</ele>
        <time>2023-12-19T15:11:18Z</time>
      </trkpt>
      <trkpt lat="43.42667" lon="3.51619">
        <ele>63.400001525879</ele>
        <time>2023-12-19T15:11:19Z</time>
      </trkpt>
      <trkpt lat="43.42663" lon="3.5162">
        <ele>63.799999237061</ele>
        <time>2023-12-19T15:11:20Z</time>
      </trkpt>
      <trkpt lat="43.42658" lon="3.5162">
        <ele>63.799999237061</ele>
        <time>2023-12-19T15:11:21Z</time>
      </trkpt>
      <trkpt lat="43.42654" lon="3.51621">
        <ele>64</ele>
        <time>2023-12-19T15:11:22Z</time>
      </trkpt>
      <trkpt lat="43.4265" lon="3.51621">
        <ele>64</ele>
        <time>2023-12-19T15:11:23Z</time>
      </trkpt>
      <trkpt lat="43.42646" lon="3.51621">
        <ele>64</ele>
        <time>2023-12-19T15:11:24Z</time>
      </trkpt>
      <trkpt lat="43.42641" lon="3.5162">
        <ele>64</ele>
        <time>2023-12-19T15:11:25Z</time>
      </trkpt>
      <trkpt lat="43.42637" lon="3.5162">
        <ele>64</ele>
        <time>2023-12-19T15:11:26Z</time>
      </trkpt>
      <trkpt lat="43.42633" lon="3.51619">
        <ele>64</ele>
        <time>2023-12-19T15:11:27Z</time>
      </trkpt>
      <trkpt lat="43.42629" lon="3.51619">
        <ele>64</ele>
        <time>2023-12-19T15:11:28Z</time>
      </trkpt>
      <trkpt lat="43.42626" lon="3.5162">
        <ele>64</ele>
        <time>2023-12-19T15:11:29Z</time>
      </trkpt>
      <trkpt lat="43.42623" lon="3.51621">
        <ele>64</ele>
        <time>2023-12-19T15:11:30Z</time>
      </trkpt>
      <trkpt lat="43.4262" lon="3.51622">
        <ele>64</ele>
        <time>2023-12-19T15:11:31Z</time>
      </trkpt>
      <trkpt lat="43.42617" lon="3.51623">
        <ele>63.799999237061</ele>
        <time>2023-12-19T15:11:32Z</time>
      </trkpt>
      <trkpt lat="43.42615" lon="3.51624">
        <ele>63.799999237061</ele>
        <time>2023-12-19T15:11:33Z</time>
      </trkpt>
      <trkpt lat="43.42613" lon="3.51625">
        <ele>63.799999237061</ele>
        <time>2023-12-19T15:11:34Z</time>
      </trkpt>
      <trkpt lat="43.4261" lon="3.51626">
        <ele>63.799999237061</ele>
        <time>2023-12-19T15:11:35Z</time>
      </trkpt>
      <trkpt lat="43.42607" lon="3.51626">
        <ele>63.599998474121</ele>
        <time>2023-12-19T15:11:36Z</time>
      </trkpt>
      <trkpt lat="43.42605" lon="3.51625">
        <ele>63.599998474121</ele>
        <time>2023-12-19T15:11:37Z</time>
      </trkpt>
      <trkpt lat="43.42604" lon="3.51623">
        <ele>63.599998474121</ele>
        <time>2023-12-19T15:11:38Z</time>
      </trkpt>
      <trkpt lat="43.42603" lon="3.51621">
        <ele>63.400001525879</ele>
        <time>2023-12-19T15:11:39Z</time>
      </trkpt>
      <trkpt lat="43.42603" lon="3.51619">
        <ele>63.200000762939</ele>
        <time>2023-12-19T15:11:40Z</time>
      </trkpt>
      <trkpt lat="43.42603" lon="3.51616">
        <ele>63.200000762939</ele>
        <time>2023-12-19T15:11:41Z</time>
      </trkpt>
      <trkpt lat="43.42603" lon="3.51613">
        <ele>63.200000762939</ele>
        <time>2023-12-19T15:11:42Z</time>
      </trkpt>
      <trkpt lat="43.42603" lon="3.5161">
        <ele>63</ele>
        <time>2023-12-19T15:11:43Z</time>
      </trkpt>
      <trkpt lat="43.42603" lon="3.51608">
        <ele>63</ele>
        <time>2023-12-19T15:11:44Z</time>
      </trkpt>
      <trkpt lat="43.42602" lon="3.51605">
        <ele>62.799999237061</ele>
        <time>2023-12-19T15:11:45Z</time>
      </trkpt>
      <trkpt lat="43.42601" lon="3.51603">
        <ele>62.599998474121</ele>
        <time>2023-12-19T15:11:46Z</time>
      </trkpt>
      <trkpt lat="43.426" lon="3.51601">
        <ele>62.400001525879</ele>
        <time>2023-12-19T15:11:47Z</time>
      </trkpt>
      <trkpt lat="43.42599" lon="3.51599">
        <ele>62.200000762939</ele>
        <time>2023-12-19T15:11:48Z</time>
      </trkpt>
      <trkpt lat="43.42599" lon="3.51597">
        <ele>62</ele>
        <time>2023-12-19T15:11:49Z</time>
      </trkpt>
      <trkpt lat="43.42598" lon="3.51595">
        <ele>61.799999237061</ele>
        <time>2023-12-19T15:11:50Z</time>
      </trkpt>
      <trkpt lat="43.42598" lon="3.51595">
        <ele>61.599998474121</ele>
        <time>2023-12-19T15:11:51Z</time>
      </trkpt>
      <trkpt lat="43.42598" lon="3.51594">
        <ele>61.400001525879</ele>
        <time>2023-12-19T15:11:52Z</time>
      </trkpt>
      <trkpt lat="43.42598" lon="3.51592">
        <ele>61.400001525879</ele>
        <time>2023-12-19T15:11:53Z</time>
      </trkpt>
      <trkpt lat="43.42598" lon="3.5159">
        <ele>61.400001525879</ele>
        <time>2023-12-19T15:11:54Z</time>
      </trkpt>
      <trkpt lat="43.42598" lon="3.51588">
        <ele>61.200000762939</ele>
        <time>2023-12-19T15:11:55Z</time>
      </trkpt>
      <trkpt lat="43.42598" lon="3.51588">
        <ele>61.200000762939</ele>
        <time>2023-12-19T15:11:56Z</time>
      </trkpt>
      <trkpt lat="43.42598" lon="3.51588">
        <ele>61</ele>
        <time>2023-12-19T15:11:57Z</time>
      </trkpt>
      <trkpt lat="43.42598" lon="3.51584">
        <ele>60.599998474121</ele>
        <time>2023-12-19T15:12:10Z</time>
      </trkpt>
      <trkpt lat="43.42598" lon="3.5158">
        <ele>60.599998474121</ele>
        <time>2023-12-19T15:12:11Z</time>
      </trkpt>
      <trkpt lat="43.42598" lon="3.51576">
        <ele>60.599998474121</ele>
        <time>2023-12-19T15:12:12Z</time>
      </trkpt>
      <trkpt lat="43.42597" lon="3.51571">
        <ele>60.599998474121</ele>
        <time>2023-12-19T15:12:13Z</time>
      </trkpt>
      <trkpt lat="43.42596" lon="3.51565">
        <ele>60.599998474121</ele>
        <time>2023-12-19T15:12:14Z</time>
      </trkpt>
      <trkpt lat="43.42595" lon="3.5156">
        <ele>60.400001525879</ele>
        <time>2023-12-19T15:12:15Z</time>
      </trkpt>
      <trkpt lat="43.42593" lon="3.51554">
        <ele>60.200000762939</ele>
        <time>2023-12-19T15:12:16Z</time>
      </trkpt>
      <trkpt lat="43.42591" lon="3.51548">
        <ele>60</ele>
        <time>2023-12-19T15:12:17Z</time>
      </trkpt>
      <trkpt lat="43.42589" lon="3.51543">
        <ele>59.799999237061</ele>
        <time>2023-12-19T15:12:18Z</time>
      </trkpt>
      <trkpt lat="43.42586" lon="3.51537">
        <ele>59.400001525879</ele>
        <time>2023-12-19T15:12:19Z</time>
      </trkpt>
      <trkpt lat="43.42583" lon="3.51531">
        <ele>59</ele>
        <time>2023-12-19T15:12:20Z</time>
      </trkpt>
      <trkpt lat="43.4258" lon="3.51525">
        <ele>58.799999237061</ele>
        <time>2023-12-19T15:12:21Z</time>
      </trkpt>
      <trkpt lat="43.42577" lon="3.51518">
        <ele>58.599998474121</ele>
        <time>2023-12-19T15:12:22Z</time>
      </trkpt>
      <trkpt lat="43.42575" lon="3.51511">
        <ele>58.200000762939</ele>
        <time>2023-12-19T15:12:23Z</time>
      </trkpt>
      <trkpt lat="43.42572" lon="3.51505">
        <ele>57.799999237061</ele>
        <time>2023-12-19T15:12:24Z</time>
      </trkpt>
      <trkpt lat="43.4257" lon="3.51498">
        <ele>57.599998474121</ele>
        <time>2023-12-19T15:12:25Z</time>
      </trkpt>
      <trkpt lat="43.42568" lon="3.5149">
        <ele>57.400001525879</ele>
        <time>2023-12-19T15:12:26Z</time>
      </trkpt>
      <trkpt lat="43.42566" lon="3.51482">
        <ele>57.200000762939</ele>
        <time>2023-12-19T15:12:27Z</time>
      </trkpt>
      <trkpt lat="43.42564" lon="3.51475">
        <ele>56.799999237061</ele>
        <time>2023-12-19T15:12:28Z</time>
      </trkpt>
      <trkpt lat="43.42561" lon="3.51467">
        <ele>56.400001525879</ele>
        <time>2023-12-19T15:12:29Z</time>
      </trkpt>
      <trkpt lat="43.42558" lon="3.5146">
        <ele>55.799999237061</ele>
        <time>2023-12-19T15:12:30Z</time>
      </trkpt>
      <trkpt lat="43.42555" lon="3.51454">
        <ele>55.599998474121</ele>
        <time>2023-12-19T15:12:31Z</time>
      </trkpt>
      <trkpt lat="43.42553" lon="3.51449">
        <ele>55.400001525879</ele>
        <time>2023-12-19T15:12:32Z</time>
      </trkpt>
      <trkpt lat="43.4255" lon="3.51444">
        <ele>55.400001525879</ele>
        <time>2023-12-19T15:12:33Z</time>
      </trkpt>
      <trkpt lat="43.42548" lon="3.51437">
        <ele>55.400001525879</ele>
        <time>2023-12-19T15:12:34Z</time>
      </trkpt>
      <trkpt lat="43.42545" lon="3.51431">
        <ele>55.400001525879</ele>
        <time>2023-12-19T15:12:35Z</time>
      </trkpt>
      <trkpt lat="43.42543" lon="3.51424">
        <ele>55.799999237061</ele>
        <time>2023-12-19T15:12:36Z</time>
      </trkpt>
      <trkpt lat="43.42541" lon="3.51418">
        <ele>56</ele>
        <time>2023-12-19T15:12:37Z</time>
      </trkpt>
      <trkpt lat="43.42539" lon="3.51411">
        <ele>56.200000762939</ele>
        <time>2023-12-19T15:12:38Z</time>
      </trkpt>
      <trkpt lat="43.42537" lon="3.51404">
        <ele>56.400001525879</ele>
        <time>2023-12-19T15:12:39Z</time>
      </trkpt>
      <trkpt lat="43.42535" lon="3.51397">
        <ele>56.599998474121</ele>
        <time>2023-12-19T15:12:40Z</time>
      </trkpt>
      <trkpt lat="43.42533" lon="3.51391">
        <ele>56.799999237061</ele>
        <time>2023-12-19T15:12:41Z</time>
      </trkpt>
      <trkpt lat="43.42531" lon="3.51385">
        <ele>56.799999237061</ele>
        <time>2023-12-19T15:12:42Z</time>
      </trkpt>
      <trkpt lat="43.42529" lon="3.5138">
        <ele>56.799999237061</ele>
        <time>2023-12-19T15:12:43Z</time>
      </trkpt>
      <trkpt lat="43.42527" lon="3.51375">
        <ele>56.799999237061</ele>
        <time>2023-12-19T15:12:44Z</time>
      </trkpt>
      <trkpt lat="43.42525" lon="3.51371">
        <ele>57</ele>
        <time>2023-12-19T15:12:45Z</time>
      </trkpt>
      <trkpt lat="43.42524" lon="3.51366">
        <ele>57.200000762939</ele>
        <time>2023-12-19T15:12:46Z</time>
      </trkpt>
      <trkpt lat="43.42522" lon="3.51361">
        <ele>57.599998474121</ele>
        <time>2023-12-19T15:12:47Z</time>
      </trkpt>
      <trkpt lat="43.4252" lon="3.51356">
        <ele>57.799999237061</ele>
        <time>2023-12-19T15:12:48Z</time>
      </trkpt>
      <trkpt lat="43.42519" lon="3.51353">
        <ele>58.200000762939</ele>
        <time>2023-12-19T15:12:49Z</time>
      </trkpt>
      <trkpt lat="43.42518" lon="3.5135">
        <ele>58.599998474121</ele>
        <time>2023-12-19T15:12:50Z</time>
      </trkpt>
      <trkpt lat="43.42517" lon="3.51346">
        <ele>58.799999237061</ele>
        <time>2023-12-19T15:12:51Z</time>
      </trkpt>
      <trkpt lat="43.42517" lon="3.51343">
        <ele>59.200000762939</ele>
        <time>2023-12-19T15:12:52Z</time>
      </trkpt>
      <trkpt lat="43.42519" lon="3.5134">
        <ele>59.599998474121</ele>
        <time>2023-12-19T15:12:53Z</time>
      </trkpt>
      <trkpt lat="43.4252" lon="3.51338">
        <ele>60</ele>
        <time>2023-12-19T15:12:54Z</time>
      </trkpt>
      <trkpt lat="43.42521" lon="3.51336">
        <ele>60.400001525879</ele>
        <time>2023-12-19T15:12:55Z</time>
      </trkpt>
      <trkpt lat="43.42523" lon="3.51334">
        <ele>60.599998474121</ele>
        <time>2023-12-19T15:12:56Z</time>
      </trkpt>
      <trkpt lat="43.42524" lon="3.51332">
        <ele>61</ele>
        <time>2023-12-19T15:12:57Z</time>
      </trkpt>
      <trkpt lat="43.42525" lon="3.51331">
        <ele>61</ele>
        <time>2023-12-19T15:12:58Z</time>
      </trkpt>
      <trkpt lat="43.42527" lon="3.5133">
        <ele>61.200000762939</ele>
        <time>2023-12-19T15:12:59Z</time>
      </trkpt>
      <trkpt lat="43.42529" lon="3.51329">
        <ele>61.200000762939</ele>
        <time>2023-12-19T15:13:00Z</time>
      </trkpt>
      <trkpt lat="43.42532" lon="3.51328">
        <ele>61.400001525879</ele>
        <time>2023-12-19T15:13:01Z</time>
      </trkpt>
      <trkpt lat="43.42535" lon="3.51326">
        <ele>61.400001525879</ele>
        <time>2023-12-19T15:13:02Z</time>
      </trkpt>
      <trkpt lat="43.42538" lon="3.51325">
        <ele>61.400001525879</ele>
        <time>2023-12-19T15:13:03Z</time>
      </trkpt>
      <trkpt lat="43.42542" lon="3.51324">
        <ele>61.400001525879</ele>
        <time>2023-12-19T15:13:04Z</time>
      </trkpt>
      <trkpt lat="43.42545" lon="3.51322">
        <ele>61.400001525879</ele>
        <time>2023-12-19T15:13:05Z</time>
      </trkpt>
      <trkpt lat="43.42549" lon="3.5132">
        <ele>61.400001525879</ele>
        <time>2023-12-19T15:13:06Z</time>
      </trkpt>
      <trkpt lat="43.42552" lon="3.51318">
        <ele>61.599998474121</ele>
        <time>2023-12-19T15:13:07Z</time>
      </trkpt>
      <trkpt lat="43.42555" lon="3.51316">
        <ele>61.599998474121</ele>
        <time>2023-12-19T15:13:08Z</time>
      </trkpt>
      <trkpt lat="43.42558" lon="3.51313">
        <ele>61.599998474121</ele>
        <time>2023-12-19T15:13:09Z</time>
      </trkpt>
      <trkpt lat="43.42561" lon="3.51311">
        <ele>61.599998474121</ele>
        <time>2023-12-19T15:13:10Z</time>
      </trkpt>
      <trkpt lat="43.42564" lon="3.5131">
        <ele>61.599998474121</ele>
        <time>2023-12-19T15:13:11Z</time>
      </trkpt>
      <trkpt lat="43.42568" lon="3.51309">
        <ele>61.599998474121</ele>
        <time>2023-12-19T15:13:12Z</time>
      </trkpt>
      <trkpt lat="43.42572" lon="3.51308">
        <ele>61.799999237061</ele>
        <time>2023-12-19T15:13:13Z</time>
      </trkpt>
      <trkpt lat="43.42576" lon="3.51306">
        <ele>61.799999237061</ele>
        <time>2023-12-19T15:13:14Z</time>
      </trkpt>
      <trkpt lat="43.42579" lon="3.51305">
        <ele>61.799999237061</ele>
        <time>2023-12-19T15:13:15Z</time>
      </trkpt>
      <trkpt lat="43.42584" lon="3.51304">
        <ele>61.799999237061</ele>
        <time>2023-12-19T15:13:16Z</time>
      </trkpt>
      <trkpt lat="43.42588" lon="3.51304">
        <ele>61.799999237061</ele>
        <time>2023-12-19T15:13:17Z</time>
      </trkpt>
      <trkpt lat="43.42592" lon="3.51303">
        <ele>61.799999237061</ele>
        <time>2023-12-19T15:13:18Z</time>
      </trkpt>
      <trkpt lat="43.42596" lon="3.51303">
        <ele>61.799999237061</ele>
        <time>2023-12-19T15:13:19Z</time>
      </trkpt>
      <trkpt lat="43.42601" lon="3.51303">
        <ele>61.799999237061</ele>
        <time>2023-12-19T15:13:20Z</time>
      </trkpt>
      <trkpt lat="43.42605" lon="3.51303">
        <ele>61.799999237061</ele>
        <time>2023-12-19T15:13:21Z</time>
      </trkpt>
      <trkpt lat="43.42609" lon="3.51303">
        <ele>62.200000762939</ele>
        <time>2023-12-19T15:13:22Z</time>
      </trkpt>
      <trkpt lat="43.42613" lon="3.51303">
        <ele>62.400001525879</ele>
        <time>2023-12-19T15:13:23Z</time>
      </trkpt>
      <trkpt lat="43.42616" lon="3.51304">
        <ele>62.400001525879</ele>
        <time>2023-12-19T15:13:24Z</time>
      </trkpt>
      <trkpt lat="43.4262" lon="3.51305">
        <ele>62.799999237061</ele>
        <time>2023-12-19T15:13:25Z</time>
      </trkpt>
      <trkpt lat="43.42624" lon="3.51307">
        <ele>63</ele>
        <time>2023-12-19T15:13:26Z</time>
      </trkpt>
      <trkpt lat="43.42628" lon="3.51308">
        <ele>63</ele>
        <time>2023-12-19T15:13:27Z</time>
      </trkpt>
      <trkpt lat="43.42632" lon="3.51311">
        <ele>63</ele>
        <time>2023-12-19T15:13:28Z</time>
      </trkpt>
      <trkpt lat="43.42636" lon="3.51312">
        <ele>63</ele>
        <time>2023-12-19T15:13:29Z</time>
      </trkpt>
      <trkpt lat="43.4264" lon="3.51314">
        <ele>63</ele>
        <time>2023-12-19T15:13:30Z</time>
      </trkpt>
      <trkpt lat="43.42644" lon="3.51317">
        <ele>63</ele>
        <time>2023-12-19T15:13:31Z</time>
      </trkpt>
      <trkpt lat="43.42647" lon="3.51321">
        <ele>62.799999237061</ele>
        <time>2023-12-19T15:13:32Z</time>
      </trkpt>
      <trkpt lat="43.42651" lon="3.51324">
        <ele>62.599998474121</ele>
        <time>2023-12-19T15:13:33Z</time>
      </trkpt>
      <trkpt lat="43.42654" lon="3.51325">
        <ele>62.599998474121</ele>
        <time>2023-12-19T15:13:34Z</time>
      </trkpt>
      <trkpt lat="43.42657" lon="3.51327">
        <ele>62.599998474121</ele>
        <time>2023-12-19T15:13:35Z</time>
      </trkpt>
      <trkpt lat="43.4266" lon="3.51326">
        <ele>62.599998474121</ele>
        <time>2023-12-19T15:13:36Z</time>
      </trkpt>
      <trkpt lat="43.42662" lon="3.51322">
        <ele>62.599998474121</ele>
        <time>2023-12-19T15:13:37Z</time>
      </trkpt>
      <trkpt lat="43.42663" lon="3.51318">
        <ele>62.599998474121</ele>
        <time>2023-12-19T15:13:38Z</time>
      </trkpt>
      <trkpt lat="43.42664" lon="3.51314">
        <ele>62.599998474121</ele>
        <time>2023-12-19T15:13:39Z</time>
      </trkpt>
      <trkpt lat="43.42665" lon="3.51311">
        <ele>63</ele>
        <time>2023-12-19T15:13:40Z</time>
      </trkpt>
      <trkpt lat="43.42665" lon="3.51308">
        <ele>63.400001525879</ele>
        <time>2023-12-19T15:13:41Z</time>
      </trkpt>
      <trkpt lat="43.42666" lon="3.51305">
        <ele>64</ele>
        <time>2023-12-19T15:13:42Z</time>
      </trkpt>
      <trkpt lat="43.42668" lon="3.51303">
        <ele>64.599998474121</ele>
        <time>2023-12-19T15:13:43Z</time>
      </trkpt>
      <trkpt lat="43.4267" lon="3.51302">
        <ele>65.199996948242</ele>
        <time>2023-12-19T15:13:44Z</time>
      </trkpt>
      <trkpt lat="43.42672" lon="3.51301">
        <ele>65.599998474121</ele>
        <time>2023-12-19T15:13:45Z</time>
      </trkpt>
      <trkpt lat="43.42674" lon="3.51301">
        <ele>66.199996948242</ele>
        <time>2023-12-19T15:13:46Z</time>
      </trkpt>
      <trkpt lat="43.42677" lon="3.51301">
        <ele>66.800003051758</ele>
        <time>2023-12-19T15:13:47Z</time>
      </trkpt>
      <trkpt lat="43.42679" lon="3.513">
        <ele>67.400001525879</ele>
        <time>2023-12-19T15:13:48Z</time>
      </trkpt>
      <trkpt lat="43.4268" lon="3.51298">
        <ele>68</ele>
        <time>2023-12-19T15:13:49Z</time>
      </trkpt>
      <trkpt lat="43.4268" lon="3.51297">
        <ele>68.800003051758</ele>
        <time>2023-12-19T15:13:50Z</time>
      </trkpt>
      <trkpt lat="43.4268" lon="3.51297">
        <ele>69.400001525879</ele>
        <time>2023-12-19T15:13:51Z</time>
      </trkpt>
      <trkpt lat="43.4268" lon="3.51297">
        <ele>70</ele>
        <time>2023-12-19T15:13:52Z</time>
      </trkpt>
      <trkpt lat="43.42684" lon="3.51301">
        <ele>71.400001525879</ele>
        <time>2023-12-19T15:14:00Z</time>
      </trkpt>
      <trkpt lat="43.42686" lon="3.51301">
        <ele>71.400001525879</ele>
        <time>2023-12-19T15:14:01Z</time>
      </trkpt>
      <trkpt lat="43.42687" lon="3.51301">
        <ele>71.400001525879</ele>
        <time>2023-12-19T15:14:02Z</time>
      </trkpt>
      <trkpt lat="43.42688" lon="3.51302">
        <ele>71.400001525879</ele>
        <time>2023-12-19T15:14:03Z</time>
      </trkpt>
      <trkpt lat="43.42689" lon="3.51303">
        <ele>71.599998474121</ele>
        <time>2023-12-19T15:14:04Z</time>
      </trkpt>
      <trkpt lat="43.42691" lon="3.51304">
        <ele>71.599998474121</ele>
        <time>2023-12-19T15:14:05Z</time>
      </trkpt>
      <trkpt lat="43.42692" lon="3.51305">
        <ele>71.800003051758</ele>
        <time>2023-12-19T15:14:06Z</time>
      </trkpt>
      <trkpt lat="43.42693" lon="3.51307">
        <ele>71.800003051758</ele>
        <time>2023-12-19T15:14:07Z</time>
      </trkpt>
      <trkpt lat="43.42695" lon="3.51309">
        <ele>71.800003051758</ele>
        <time>2023-12-19T15:14:08Z</time>
      </trkpt>
      <trkpt lat="43.42696" lon="3.51311">
        <ele>71.800003051758</ele>
        <time>2023-12-19T15:14:09Z</time>
      </trkpt>
      <trkpt lat="43.42697" lon="3.51312">
        <ele>71.800003051758</ele>
        <time>2023-12-19T15:14:10Z</time>
      </trkpt>
      <trkpt lat="43.42698" lon="3.51314">
        <ele>71.800003051758</ele>
        <time>2023-12-19T15:14:11Z</time>
      </trkpt>
      <trkpt lat="43.42699" lon="3.51315">
        <ele>71.599998474121</ele>
        <time>2023-12-19T15:14:12Z</time>
      </trkpt>
      <trkpt lat="43.427" lon="3.51317">
        <ele>71.599998474121</ele>
        <time>2023-12-19T15:14:13Z</time>
      </trkpt>
      <trkpt lat="43.427" lon="3.51319">
        <ele>71.599998474121</ele>
        <time>2023-12-19T15:14:14Z</time>
      </trkpt>
      <trkpt lat="43.42702" lon="3.51321">
        <ele>71.599998474121</ele>
        <time>2023-12-19T15:14:15Z</time>
      </trkpt>
      <trkpt lat="43.42704" lon="3.51323">
        <ele>71.599998474121</ele>
        <time>2023-12-19T15:14:16Z</time>
      </trkpt>
      <trkpt lat="43.42706" lon="3.51324">
        <ele>71.400001525879</ele>
        <time>2023-12-19T15:14:17Z</time>
      </trkpt>
      <trkpt lat="43.42708" lon="3.51323">
        <ele>71.199996948242</ele>
        <time>2023-12-19T15:14:18Z</time>
      </trkpt>
      <trkpt lat="43.42711" lon="3.51321">
        <ele>71</ele>
        <time>2023-12-19T15:14:19Z</time>
      </trkpt>
      <trkpt lat="43.42714" lon="3.51321">
        <ele>70.599998474121</ele>
        <time>2023-12-19T15:14:20Z</time>
      </trkpt>
      <trkpt lat="43.42716" lon="3.51321">
        <ele>70.199996948242</ele>
        <time>2023-12-19T15:14:21Z</time>
      </trkpt>
      <trkpt lat="43.42718" lon="3.5132">
        <ele>69.800003051758</ele>
        <time>2023-12-19T15:14:22Z</time>
      </trkpt>
      <trkpt lat="43.42719" lon="3.51319">
        <ele>69.800003051758</ele>
        <time>2023-12-19T15:14:23Z</time>
      </trkpt>
      <trkpt lat="43.42722" lon="3.51318">
        <ele>69.800003051758</ele>
        <time>2023-12-19T15:14:24Z</time>
      </trkpt>
      <trkpt lat="43.42726" lon="3.51317">
        <ele>69.800003051758</ele>
        <time>2023-12-19T15:14:25Z</time>
      </trkpt>
      <trkpt lat="43.42729" lon="3.51316">
        <ele>69.800003051758</ele>
        <time>2023-12-19T15:14:26Z</time>
      </trkpt>
      <trkpt lat="43.42732" lon="3.51315">
        <ele>70</ele>
        <time>2023-12-19T15:14:27Z</time>
      </trkpt>
      <trkpt lat="43.42734" lon="3.51314">
        <ele>70</ele>
        <time>2023-12-19T15:14:28Z</time>
      </trkpt>
      <trkpt lat="43.42737" lon="3.51313">
        <ele>70</ele>
        <time>2023-12-19T15:14:29Z</time>
      </trkpt>
      <trkpt lat="43.4274" lon="3.51312">
        <ele>69.800003051758</ele>
        <time>2023-12-19T15:14:30Z</time>
      </trkpt>
      <trkpt lat="43.42741" lon="3.5131">
        <ele>69.800003051758</ele>
        <time>2023-12-19T15:14:31Z</time>
      </trkpt>
      <trkpt lat="43.42743" lon="3.51308">
        <ele>69.800003051758</ele>
        <time>2023-12-19T15:14:32Z</time>
      </trkpt>
      <trkpt lat="43.42744" lon="3.51307">
        <ele>69.800003051758</ele>
        <time>2023-12-19T15:14:33Z</time>
      </trkpt>
      <trkpt lat="43.42746" lon="3.51307">
        <ele>69.800003051758</ele>
        <time>2023-12-19T15:14:34Z</time>
      </trkpt>
      <trkpt lat="43.42747" lon="3.51307">
        <ele>69.800003051758</ele>
        <time>2023-12-19T15:14:35Z</time>
      </trkpt>
      <trkpt lat="43.42748" lon="3.51307">
        <ele>69.800003051758</ele>
        <time>2023-12-19T15:14:36Z</time>
      </trkpt>
      <trkpt lat="43.4275" lon="3.51307">
        <ele>69.800003051758</ele>
        <time>2023-12-19T15:14:37Z</time>
      </trkpt>
      <trkpt lat="43.42751" lon="3.51306">
        <ele>69.800003051758</ele>
        <time>2023-12-19T15:14:38Z</time>
      </trkpt>
      <trkpt lat="43.42753" lon="3.51306">
        <ele>69.800003051758</ele>
        <time>2023-12-19T15:14:39Z</time>
      </trkpt>
      <trkpt lat="43.42756" lon="3.51305">
        <ele>69.599998474121</ele>
        <time>2023-12-19T15:14:40Z</time>
      </trkpt>
      <trkpt lat="43.42758" lon="3.51303">
        <ele>69.599998474121</ele>
        <time>2023-12-19T15:14:41Z</time>
      </trkpt>
      <trkpt lat="43.4276" lon="3.51302">
        <ele>69.400001525879</ele>
        <time>2023-12-19T15:14:42Z</time>
      </trkpt>
      <trkpt lat="43.42763" lon="3.51301">
        <ele>69.199996948242</ele>
        <time>2023-12-19T15:14:43Z</time>
      </trkpt>
      <trkpt lat="43.42766" lon="3.51302">
        <ele>69</ele>
        <time>2023-12-19T15:14:44Z</time>
      </trkpt>
      <trkpt lat="43.42769" lon="3.51302">
        <ele>68.800003051758</ele>
        <time>2023-12-19T15:14:45Z</time>
      </trkpt>
      <trkpt lat="43.42772" lon="3.51301">
        <ele>68.800003051758</ele>
        <time>2023-12-19T15:14:46Z</time>
      </trkpt>
      <trkpt lat="43.42774" lon="3.51299">
        <ele>68.599998474121</ele>
        <time>2023-12-19T15:14:47Z</time>
      </trkpt>
      <trkpt lat="43.42776" lon="3.51299">
        <ele>68.400001525879</ele>
        <time>2023-12-19T15:14:48Z</time>
      </trkpt>
      <trkpt lat="43.42779" lon="3.513">
        <ele>68</ele>
        <time>2023-12-19T15:14:49Z</time>
      </trkpt>
      <trkpt lat="43.42781" lon="3.51298">
        <ele>67.800003051758</ele>
        <time>2023-12-19T15:14:50Z</time>
      </trkpt>
      <trkpt lat="43.42782" lon="3.51297">
        <ele>67.800003051758</ele>
        <time>2023-12-19T15:14:51Z</time>
      </trkpt>
      <trkpt lat="43.42781" lon="3.51297">
        <ele>67.599998474121</ele>
        <time>2023-12-19T15:14:52Z</time>
      </trkpt>
      <trkpt lat="43.42781" lon="3.51297">
        <ele>67.400001525879</ele>
        <time>2023-12-19T15:14:53Z</time>
      </trkpt>
      <trkpt lat="43.42786" lon="3.5129">
        <ele>67</ele>
        <time>2023-12-19T15:15:00Z</time>
      </trkpt>
      <trkpt lat="43.42788" lon="3.51289">
        <ele>67</ele>
        <time>2023-12-19T15:15:01Z</time>
      </trkpt>
      <trkpt lat="43.42789" lon="3.51289">
        <ele>67</ele>
        <time>2023-12-19T15:15:02Z</time>
      </trkpt>
      <trkpt lat="43.42791" lon="3.51289">
        <ele>67</ele>
        <time>2023-12-19T15:15:03Z</time>
      </trkpt>
      <trkpt lat="43.42793" lon="3.51287">
        <ele>67</ele>
        <time>2023-12-19T15:15:04Z</time>
      </trkpt>
      <trkpt lat="43.42795" lon="3.51284">
        <ele>67</ele>
        <time>2023-12-19T15:15:05Z</time>
      </trkpt>
      <trkpt lat="43.42796" lon="3.51281">
        <ele>67.199996948242</ele>
        <time>2023-12-19T15:15:06Z</time>
      </trkpt>
      <trkpt lat="43.42798" lon="3.51279">
        <ele>67.400001525879</ele>
        <time>2023-12-19T15:15:07Z</time>
      </trkpt>
      <trkpt lat="43.42799" lon="3.51277">
        <ele>67.599998474121</ele>
        <time>2023-12-19T15:15:08Z</time>
      </trkpt>
      <trkpt lat="43.42801" lon="3.51275">
        <ele>67.800003051758</ele>
        <time>2023-12-19T15:15:09Z</time>
      </trkpt>
      <trkpt lat="43.42803" lon="3.51274">
        <ele>68</ele>
        <time>2023-12-19T15:15:10Z</time>
      </trkpt>
      <trkpt lat="43.42805" lon="3.51272">
        <ele>68.400001525879</ele>
        <time>2023-12-19T15:15:11Z</time>
      </trkpt>
      <trkpt lat="43.42806" lon="3.51271">
        <ele>68.599998474121</ele>
        <time>2023-12-19T15:15:12Z</time>
      </trkpt>
      <trkpt lat="43.42807" lon="3.5127">
        <ele>69</ele>
        <time>2023-12-19T15:15:13Z</time>
      </trkpt>
      <trkpt lat="43.42808" lon="3.5127">
        <ele>69</ele>
        <time>2023-12-19T15:15:14Z</time>
      </trkpt>
      <trkpt lat="43.4281" lon="3.51268">
        <ele>69.199996948242</ele>
        <time>2023-12-19T15:15:15Z</time>
      </trkpt>
      <trkpt lat="43.42812" lon="3.51266">
        <ele>69.400001525879</ele>
        <time>2023-12-19T15:15:16Z</time>
      </trkpt>
      <trkpt lat="43.42815" lon="3.51264">
        <ele>69.400001525879</ele>
        <time>2023-12-19T15:15:17Z</time>
      </trkpt>
      <trkpt lat="43.42817" lon="3.51262">
        <ele>69.400001525879</ele>
        <time>2023-12-19T15:15:18Z</time>
      </trkpt>
      <trkpt lat="43.42819" lon="3.51261">
        <ele>69.599998474121</ele>
        <time>2023-12-19T15:15:19Z</time>
      </trkpt>
      <trkpt lat="43.42821" lon="3.5126">
        <ele>69.599998474121</ele>
        <time>2023-12-19T15:15:20Z</time>
      </trkpt>
      <trkpt lat="43.42824" lon="3.51259">
        <ele>69.599998474121</ele>
        <time>2023-12-19T15:15:21Z</time>
      </trkpt>
      <trkpt lat="43.42826" lon="3.51257">
        <ele>69.599998474121</ele>
        <time>2023-12-19T15:15:22Z</time>
      </trkpt>
      <trkpt lat="43.42828" lon="3.51256">
        <ele>69.599998474121</ele>
        <time>2023-12-19T15:15:23Z</time>
      </trkpt>
      <trkpt lat="43.42829" lon="3.51254">
        <ele>69.599998474121</ele>
        <time>2023-12-19T15:15:24Z</time>
      </trkpt>
      <trkpt lat="43.4283" lon="3.51252">
        <ele>69.400001525879</ele>
        <time>2023-12-19T15:15:25Z</time>
      </trkpt>
      <trkpt lat="43.42832" lon="3.51251">
        <ele>69.199996948242</ele>
        <time>2023-12-19T15:15:26Z</time>
      </trkpt>
      <trkpt lat="43.42833" lon="3.5125">
        <ele>69.199996948242</ele>
        <time>2023-12-19T15:15:27Z</time>
      </trkpt>
      <trkpt lat="43.42834" lon="3.51248">
        <ele>69.199996948242</ele>
        <time>2023-12-19T15:15:28Z</time>
      </trkpt>
      <trkpt lat="43.42836" lon="3.51247">
        <ele>69.199996948242</ele>
        <time>2023-12-19T15:15:29Z</time>
      </trkpt>
      <trkpt lat="43.42838" lon="3.51245">
        <ele>69.199996948242</ele>
        <time>2023-12-19T15:15:30Z</time>
      </trkpt>
      <trkpt lat="43.42841" lon="3.51244">
        <ele>69.400001525879</ele>
        <time>2023-12-19T15:15:31Z</time>
      </trkpt>
      <trkpt lat="43.42843" lon="3.51243">
        <ele>69.400001525879</ele>
        <time>2023-12-19T15:15:32Z</time>
      </trkpt>
      <trkpt lat="43.42845" lon="3.51241">
        <ele>69.599998474121</ele>
        <time>2023-12-19T15:15:33Z</time>
      </trkpt>
      <trkpt lat="43.42847" lon="3.5124">
        <ele>69.800003051758</ele>
        <time>2023-12-19T15:15:34Z</time>
      </trkpt>
      <trkpt lat="43.42848" lon="3.51239">
        <ele>69.800003051758</ele>
        <time>2023-12-19T15:15:35Z</time>
      </trkpt>
      <trkpt lat="43.42849" lon="3.51238">
        <ele>69.599998474121</ele>
        <time>2023-12-19T15:15:36Z</time>
      </trkpt>
      <trkpt lat="43.42849" lon="3.51238">
        <ele>69.599998474121</ele>
        <time>2023-12-19T15:15:37Z</time>
      </trkpt>
      <trkpt lat="43.42842" lon="3.51241">
        <ele>68.800003051758</ele>
        <time>2023-12-19T15:17:34Z</time>
      </trkpt>
      <trkpt lat="43.42841" lon="3.51242">
        <ele>68.800003051758</ele>
        <time>2023-12-19T15:17:35Z</time>
      </trkpt>
      <trkpt lat="43.42839" lon="3.51244">
        <ele>68.800003051758</ele>
        <time>2023-12-19T15:17:36Z</time>
      </trkpt>
      <trkpt lat="43.42838" lon="3.51245">
        <ele>68.800003051758</ele>
        <time>2023-12-19T15:17:37Z</time>
      </trkpt>
      <trkpt lat="43.42836" lon="3.51246">
        <ele>68.800003051758</ele>
        <time>2023-12-19T15:17:38Z</time>
      </trkpt>
      <trkpt lat="43.42836" lon="3.51246">
        <ele>68.800003051758</ele>
        <time>2023-12-19T15:17:39Z</time>
      </trkpt>
      <trkpt lat="43.42836" lon="3.51246">
        <ele>69</ele>
        <time>2023-12-19T15:17:40Z</time>
      </trkpt>
      <trkpt lat="43.42833" lon="3.51251">
        <ele>69.400001525879</ele>
        <time>2023-12-19T15:17:52Z</time>
      </trkpt>
      <trkpt lat="43.42831" lon="3.51252">
        <ele>69.400001525879</ele>
        <time>2023-12-19T15:17:53Z</time>
      </trkpt>
      <trkpt lat="43.4283" lon="3.51254">
        <ele>69.400001525879</ele>
        <time>2023-12-19T15:17:54Z</time>
      </trkpt>
      <trkpt lat="43.42828" lon="3.51255">
        <ele>69.199996948242</ele>
        <time>2023-12-19T15:17:55Z</time>
      </trkpt>
      <trkpt lat="43.42827" lon="3.51256">
        <ele>69.199996948242</ele>
        <time>2023-12-19T15:17:56Z</time>
      </trkpt>
      <trkpt lat="43.42825" lon="3.51257">
        <ele>69</ele>
        <time>2023-12-19T15:17:57Z</time>
      </trkpt>
      <trkpt lat="43.42822" lon="3.51258">
        <ele>69</ele>
        <time>2023-12-19T15:17:58Z</time>
      </trkpt>
      <trkpt lat="43.4282" lon="3.51259">
        <ele>69</ele>
        <time>2023-12-19T15:17:59Z</time>
      </trkpt>
      <trkpt lat="43.42818" lon="3.51261">
        <ele>69</ele>
        <time>2023-12-19T15:18:00Z</time>
      </trkpt>
      <trkpt lat="43.42817" lon="3.51263">
        <ele>69</ele>
        <time>2023-12-19T15:18:01Z</time>
      </trkpt>
      <trkpt lat="43.42815" lon="3.51264">
        <ele>69</ele>
        <time>2023-12-19T15:18:02Z</time>
      </trkpt>
      <trkpt lat="43.42812" lon="3.51266">
        <ele>69</ele>
        <time>2023-12-19T15:18:03Z</time>
      </trkpt>
      <trkpt lat="43.4281" lon="3.51268">
        <ele>69.199996948242</ele>
        <time>2023-12-19T15:18:04Z</time>
      </trkpt>
      <trkpt lat="43.42808" lon="3.5127">
        <ele>69.199996948242</ele>
        <time>2023-12-19T15:18:05Z</time>
      </trkpt>
      <trkpt lat="43.42805" lon="3.51272">
        <ele>69.199996948242</ele>
        <time>2023-12-19T15:18:06Z</time>
      </trkpt>
      <trkpt lat="43.42803" lon="3.51274">
        <ele>69.199996948242</ele>
        <time>2023-12-19T15:18:07Z</time>
      </trkpt>
      <trkpt lat="43.42801" lon="3.51277">
        <ele>69.199996948242</ele>
        <time>2023-12-19T15:18:08Z</time>
      </trkpt>
      <trkpt lat="43.42799" lon="3.5128">
        <ele>69</ele>
        <time>2023-12-19T15:18:09Z</time>
      </trkpt>
      <trkpt lat="43.42797" lon="3.51283">
        <ele>69</ele>
        <time>2023-12-19T15:18:10Z</time>
      </trkpt>
      <trkpt lat="43.42795" lon="3.51286">
        <ele>69</ele>
        <time>2023-12-19T15:18:11Z</time>
      </trkpt>
      <trkpt lat="43.42792" lon="3.51286">
        <ele>68.800003051758</ele>
        <time>2023-12-19T15:18:12Z</time>
      </trkpt>
      <trkpt lat="43.4279" lon="3.51287">
        <ele>68.400001525879</ele>
        <time>2023-12-19T15:18:13Z</time>
      </trkpt>
      <trkpt lat="43.42788" lon="3.51288">
        <ele>68</ele>
        <time>2023-12-19T15:18:14Z</time>
      </trkpt>
      <trkpt lat="43.42785" lon="3.51291">
        <ele>67.800003051758</ele>
        <time>2023-12-19T15:18:15Z</time>
      </trkpt>
      <trkpt lat="43.42783" lon="3.51294">
        <ele>67.599998474121</ele>
        <time>2023-12-19T15:18:16Z</time>
      </trkpt>
      <trkpt lat="43.42781" lon="3.51296">
        <ele>67.400001525879</ele>
        <time>2023-12-19T15:18:17Z</time>
      </trkpt>
      <trkpt lat="43.42778" lon="3.51295">
        <ele>67</ele>
        <time>2023-12-19T15:18:18Z</time>
      </trkpt>
      <trkpt lat="43.42776" lon="3.51295">
        <ele>66.800003051758</ele>
        <time>2023-12-19T15:18:19Z</time>
      </trkpt>
      <trkpt lat="43.42774" lon="3.51297">
        <ele>66.599998474121</ele>
        <time>2023-12-19T15:18:20Z</time>
      </trkpt>
      <trkpt lat="43.42772" lon="3.51298">
        <ele>66.599998474121</ele>
        <time>2023-12-19T15:18:21Z</time>
      </trkpt>
      <trkpt lat="43.4277" lon="3.51297">
        <ele>66.599998474121</ele>
        <time>2023-12-19T15:18:22Z</time>
      </trkpt>
      <trkpt lat="43.42767" lon="3.51297">
        <ele>66.599998474121</ele>
        <time>2023-12-19T15:18:23Z</time>
      </trkpt>
      <trkpt lat="43.42765" lon="3.51298">
        <ele>66.800003051758</ele>
        <time>2023-12-19T15:18:24Z</time>
      </trkpt>
      <trkpt lat="43.42763" lon="3.51299">
        <ele>67</ele>
        <time>2023-12-19T15:18:25Z</time>
      </trkpt>
      <trkpt lat="43.4276" lon="3.51301">
        <ele>67.199996948242</ele>
        <time>2023-12-19T15:18:26Z</time>
      </trkpt>
      <trkpt lat="43.42757" lon="3.51302">
        <ele>67.400001525879</ele>
        <time>2023-12-19T15:18:27Z</time>
      </trkpt>
      <trkpt lat="43.42754" lon="3.51304">
        <ele>67.800003051758</ele>
        <time>2023-12-19T15:18:28Z</time>
      </trkpt>
      <trkpt lat="43.42752" lon="3.51304">
        <ele>68</ele>
        <time>2023-12-19T15:18:29Z</time>
      </trkpt>
      <trkpt lat="43.42749" lon="3.51304">
        <ele>68.199996948242</ele>
        <time>2023-12-19T15:18:30Z</time>
      </trkpt>
      <trkpt lat="43.42746" lon="3.51306">
        <ele>68.400001525879</ele>
        <time>2023-12-19T15:18:31Z</time>
      </trkpt>
      <trkpt lat="43.42744" lon="3.51309">
        <ele>68.599998474121</ele>
        <time>2023-12-19T15:18:32Z</time>
      </trkpt>
      <trkpt lat="43.42741" lon="3.5131">
        <ele>68.800003051758</ele>
        <time>2023-12-19T15:18:33Z</time>
      </trkpt>
      <trkpt lat="43.42737" lon="3.51312">
        <ele>69</ele>
        <time>2023-12-19T15:18:34Z</time>
      </trkpt>
      <trkpt lat="43.42734" lon="3.51313">
        <ele>69.199996948242</ele>
        <time>2023-12-19T15:18:35Z</time>
      </trkpt>
      <trkpt lat="43.4273" lon="3.51314">
        <ele>69.199996948242</ele>
        <time>2023-12-19T15:18:36Z</time>
      </trkpt>
      <trkpt lat="43.42728" lon="3.51314">
        <ele>69.199996948242</ele>
        <time>2023-12-19T15:18:37Z</time>
      </trkpt>
      <trkpt lat="43.42726" lon="3.51315">
        <ele>69.199996948242</ele>
        <time>2023-12-19T15:18:38Z</time>
      </trkpt>
      <trkpt lat="43.42723" lon="3.51315">
        <ele>69.400001525879</ele>
        <time>2023-12-19T15:18:39Z</time>
      </trkpt>
      <trkpt lat="43.42721" lon="3.51316">
        <ele>69.400001525879</ele>
        <time>2023-12-19T15:18:40Z</time>
      </trkpt>
      <trkpt lat="43.42719" lon="3.51317">
        <ele>69.400001525879</ele>
        <time>2023-12-19T15:18:41Z</time>
      </trkpt>
      <trkpt lat="43.42717" lon="3.51319">
        <ele>69.400001525879</ele>
        <time>2023-12-19T15:18:42Z</time>
      </trkpt>
      <trkpt lat="43.42714" lon="3.51319">
        <ele>69.400001525879</ele>
        <time>2023-12-19T15:18:43Z</time>
      </trkpt>
      <trkpt lat="43.42711" lon="3.51319">
        <ele>69.400001525879</ele>
        <time>2023-12-19T15:18:44Z</time>
      </trkpt>
      <trkpt lat="43.42709" lon="3.51322">
        <ele>69.599998474121</ele>
        <time>2023-12-19T15:18:45Z</time>
      </trkpt>
      <trkpt lat="43.42707" lon="3.51323">
        <ele>69.599998474121</ele>
        <time>2023-12-19T15:18:46Z</time>
      </trkpt>
      <trkpt lat="43.42704" lon="3.51324">
        <ele>69.599998474121</ele>
        <time>2023-12-19T15:18:47Z</time>
      </trkpt>
      <trkpt lat="43.42702" lon="3.51325">
        <ele>69.599998474121</ele>
        <time>2023-12-19T15:18:48Z</time>
      </trkpt>
      <trkpt lat="43.427" lon="3.51325">
        <ele>69.599998474121</ele>
        <time>2023-12-19T15:18:49Z</time>
      </trkpt>
      <trkpt lat="43.42698" lon="3.51325">
        <ele>69.599998474121</ele>
        <time>2023-12-19T15:18:50Z</time>
      </trkpt>
      <trkpt lat="43.42696" lon="3.51324">
        <ele>69.599998474121</ele>
        <time>2023-12-19T15:18:51Z</time>
      </trkpt>
      <trkpt lat="43.42693" lon="3.51323">
        <ele>69.599998474121</ele>
        <time>2023-12-19T15:18:52Z</time>
      </trkpt>
      <trkpt lat="43.42691" lon="3.51322">
        <ele>69.599998474121</ele>
        <time>2023-12-19T15:18:53Z</time>
      </trkpt>
      <trkpt lat="43.42688" lon="3.51321">
        <ele>69.400001525879</ele>
        <time>2023-12-19T15:18:54Z</time>
      </trkpt>
      <trkpt lat="43.42685" lon="3.5132">
        <ele>69.400001525879</ele>
        <time>2023-12-19T15:18:55Z</time>
      </trkpt>
      <trkpt lat="43.42681" lon="3.51319">
        <ele>69.400001525879</ele>
        <time>2023-12-19T15:18:56Z</time>
      </trkpt>
      <trkpt lat="43.42677" lon="3.51317">
        <ele>69.199996948242</ele>
        <time>2023-12-19T15:18:57Z</time>
      </trkpt>
      <trkpt lat="43.42674" lon="3.51315">
        <ele>68.800003051758</ele>
        <time>2023-12-19T15:18:58Z</time>
      </trkpt>
      <trkpt lat="43.4267" lon="3.51313">
        <ele>68.400001525879</ele>
        <time>2023-12-19T15:18:59Z</time>
      </trkpt>
      <trkpt lat="43.42667" lon="3.51311">
        <ele>67.800003051758</ele>
        <time>2023-12-19T15:19:00Z</time>
      </trkpt>
      <trkpt lat="43.42665" lon="3.51311">
        <ele>67.400001525879</ele>
        <time>2023-12-19T15:19:01Z</time>
      </trkpt>
      <trkpt lat="43.42663" lon="3.51312">
        <ele>67.199996948242</ele>
        <time>2023-12-19T15:19:02Z</time>
      </trkpt>
      <trkpt lat="43.42661" lon="3.51314">
        <ele>66.800003051758</ele>
        <time>2023-12-19T15:19:03Z</time>
      </trkpt>
      <trkpt lat="43.42661" lon="3.51315">
        <ele>66.599998474121</ele>
        <time>2023-12-19T15:19:04Z</time>
      </trkpt>
      <trkpt lat="43.42661" lon="3.51316">
        <ele>66.400001525879</ele>
        <time>2023-12-19T15:19:05Z</time>
      </trkpt>
      <trkpt lat="43.42661" lon="3.51319">
        <ele>66.199996948242</ele>
        <time>2023-12-19T15:19:06Z</time>
      </trkpt>
      <trkpt lat="43.4266" lon="3.51322">
        <ele>65.800003051758</ele>
        <time>2023-12-19T15:19:07Z</time>
      </trkpt>
      <trkpt lat="43.42658" lon="3.51325">
        <ele>65.400001525879</ele>
        <time>2023-12-19T15:19:08Z</time>
      </trkpt>
      <trkpt lat="43.42657" lon="3.51327">
        <ele>65.199996948242</ele>
        <time>2023-12-19T15:19:09Z</time>
      </trkpt>
      <trkpt lat="43.42656" lon="3.5133">
        <ele>64.800003051758</ele>
        <time>2023-12-19T15:19:10Z</time>
      </trkpt>
      <trkpt lat="43.42656" lon="3.51333">
        <ele>64.400001525879</ele>
        <time>2023-12-19T15:19:11Z</time>
      </trkpt>
      <trkpt lat="43.42658" lon="3.51335">
        <ele>64</ele>
        <time>2023-12-19T15:19:12Z</time>
      </trkpt>
      <trkpt lat="43.4266" lon="3.51338">
        <ele>63.599998474121</ele>
        <time>2023-12-19T15:19:13Z</time>
      </trkpt>
      <trkpt lat="43.42661" lon="3.51343">
        <ele>63</ele>
        <time>2023-12-19T15:19:14Z</time>
      </trkpt>
      <trkpt lat="43.42661" lon="3.51347">
        <ele>62.599998474121</ele>
        <time>2023-12-19T15:19:15Z</time>
      </trkpt>
      <trkpt lat="43.42661" lon="3.51351">
        <ele>61.799999237061</ele>
        <time>2023-12-19T15:19:16Z</time>
      </trkpt>
      <trkpt lat="43.42661" lon="3.51355">
        <ele>61.599998474121</ele>
        <time>2023-12-19T15:19:17Z</time>
      </trkpt>
      <trkpt lat="43.42661" lon="3.51359">
        <ele>61.599998474121</ele>
        <time>2023-12-19T15:19:18Z</time>
      </trkpt>
      <trkpt lat="43.42661" lon="3.51362">
        <ele>61.400001525879</ele>
        <time>2023-12-19T15:19:19Z</time>
      </trkpt>
      <trkpt lat="43.42662" lon="3.51366">
        <ele>61.400001525879</ele>
        <time>2023-12-19T15:19:20Z</time>
      </trkpt>
      <trkpt lat="43.42663" lon="3.51368">
        <ele>61.400001525879</ele>
        <time>2023-12-19T15:19:21Z</time>
      </trkpt>
      <trkpt lat="43.42664" lon="3.51371">
        <ele>61.400001525879</ele>
        <time>2023-12-19T15:19:22Z</time>
      </trkpt>
      <trkpt lat="43.42665" lon="3.51374">
        <ele>61.200000762939</ele>
        <time>2023-12-19T15:19:23Z</time>
      </trkpt>
      <trkpt lat="43.42666" lon="3.51377">
        <ele>61</ele>
        <time>2023-12-19T15:19:24Z</time>
      </trkpt>
      <trkpt lat="43.42667" lon="3.51378">
        <ele>60.799999237061</ele>
        <time>2023-12-19T15:19:25Z</time>
      </trkpt>
      <trkpt lat="43.42668" lon="3.51379">
        <ele>60.799999237061</ele>
        <time>2023-12-19T15:19:26Z</time>
      </trkpt>
      <trkpt lat="43.42669" lon="3.51381">
        <ele>60.799999237061</ele>
        <time>2023-12-19T15:19:27Z</time>
      </trkpt>
      <trkpt lat="43.42669" lon="3.51382">
        <ele>60.799999237061</ele>
        <time>2023-12-19T15:19:28Z</time>
      </trkpt>
      <trkpt lat="43.42671" lon="3.51383">
        <ele>60.799999237061</ele>
        <time>2023-12-19T15:19:29Z</time>
      </trkpt>
      <trkpt lat="43.42672" lon="3.51383">
        <ele>60.799999237061</ele>
        <time>2023-12-19T15:19:30Z</time>
      </trkpt>
      <trkpt lat="43.42673" lon="3.51384">
        <ele>60.799999237061</ele>
        <time>2023-12-19T15:19:31Z</time>
      </trkpt>
      <trkpt lat="43.42672" lon="3.51384">
        <ele>60.799999237061</ele>
        <time>2023-12-19T15:19:32Z</time>
      </trkpt>
      <trkpt lat="43.42672" lon="3.51384">
        <ele>60.799999237061</ele>
        <time>2023-12-19T15:19:33Z</time>
      </trkpt>
      <trkpt lat="43.42675" lon="3.51388">
        <ele>60.400001525879</ele>
        <time>2023-12-19T15:19:45Z</time>
      </trkpt>
      <trkpt lat="43.42676" lon="3.51391">
        <ele>60.200000762939</ele>
        <time>2023-12-19T15:19:46Z</time>
      </trkpt>
      <trkpt lat="43.42678" lon="3.51392">
        <ele>60.200000762939</ele>
        <time>2023-12-19T15:19:47Z</time>
      </trkpt>
      <trkpt lat="43.42681" lon="3.51394">
        <ele>60.200000762939</ele>
        <time>2023-12-19T15:19:48Z</time>
      </trkpt>
      <trkpt lat="43.42684" lon="3.51395">
        <ele>60.200000762939</ele>
        <time>2023-12-19T15:19:49Z</time>
      </trkpt>
      <trkpt lat="43.42687" lon="3.51395">
        <ele>60</ele>
        <time>2023-12-19T15:19:50Z</time>
      </trkpt>
      <trkpt lat="43.4269" lon="3.51394">
        <ele>60</ele>
        <time>2023-12-19T15:19:51Z</time>
      </trkpt>
      <trkpt lat="43.42693" lon="3.51393">
        <ele>60</ele>
        <time>2023-12-19T15:19:52Z</time>
      </trkpt>
      <trkpt lat="43.42696" lon="3.51392">
        <ele>60</ele>
        <time>2023-12-19T15:19:53Z</time>
      </trkpt>
      <trkpt lat="43.42699" lon="3.51392">
        <ele>60</ele>
        <time>2023-12-19T15:19:54Z</time>
      </trkpt>
      <trkpt lat="43.42703" lon="3.51391">
        <ele>60</ele>
        <time>2023-12-19T15:19:55Z</time>
      </trkpt>
      <trkpt lat="43.42706" lon="3.51389">
        <ele>60</ele>
        <time>2023-12-19T15:19:56Z</time>
      </trkpt>
      <trkpt lat="43.42709" lon="3.51388">
        <ele>60</ele>
        <time>2023-12-19T15:19:57Z</time>
      </trkpt>
      <trkpt lat="43.42711" lon="3.51387">
        <ele>60</ele>
        <time>2023-12-19T15:19:58Z</time>
      </trkpt>
      <trkpt lat="43.42713" lon="3.51386">
        <ele>60.200000762939</ele>
        <time>2023-12-19T15:19:59Z</time>
      </trkpt>
      <trkpt lat="43.42716" lon="3.51385">
        <ele>60.200000762939</ele>
        <time>2023-12-19T15:20:00Z</time>
      </trkpt>
      <trkpt lat="43.42719" lon="3.51384">
        <ele>60.200000762939</ele>
        <time>2023-12-19T15:20:01Z</time>
      </trkpt>
      <trkpt lat="43.42722" lon="3.51382">
        <ele>60.400001525879</ele>
        <time>2023-12-19T15:20:02Z</time>
      </trkpt>
      <trkpt lat="43.42725" lon="3.51381">
        <ele>60.400001525879</ele>
        <time>2023-12-19T15:20:03Z</time>
      </trkpt>
      <trkpt lat="43.42729" lon="3.51379">
        <ele>60.400001525879</ele>
        <time>2023-12-19T15:20:04Z</time>
      </trkpt>
      <trkpt lat="43.42733" lon="3.51377">
        <ele>60.400001525879</ele>
        <time>2023-12-19T15:20:05Z</time>
      </trkpt>
      <trkpt lat="43.42737" lon="3.51375">
        <ele>60.400001525879</ele>
        <time>2023-12-19T15:20:06Z</time>
      </trkpt>
      <trkpt lat="43.42741" lon="3.51373">
        <ele>60.400001525879</ele>
        <time>2023-12-19T15:20:07Z</time>
      </trkpt>
      <trkpt lat="43.42744" lon="3.5137">
        <ele>60.400001525879</ele>
        <time>2023-12-19T15:20:08Z</time>
      </trkpt>
      <trkpt lat="43.42747" lon="3.51367">
        <ele>60.200000762939</ele>
        <time>2023-12-19T15:20:09Z</time>
      </trkpt>
      <trkpt lat="43.4275" lon="3.51364">
        <ele>60.200000762939</ele>
        <time>2023-12-19T15:20:10Z</time>
      </trkpt>
      <trkpt lat="43.42752" lon="3.51362">
        <ele>60</ele>
        <time>2023-12-19T15:20:11Z</time>
      </trkpt>
      <trkpt lat="43.42754" lon="3.5136">
        <ele>60</ele>
        <time>2023-12-19T15:20:12Z</time>
      </trkpt>
      <trkpt lat="43.42755" lon="3.51358">
        <ele>60</ele>
        <time>2023-12-19T15:20:13Z</time>
      </trkpt>
      <trkpt lat="43.42757" lon="3.51356">
        <ele>60</ele>
        <time>2023-12-19T15:20:14Z</time>
      </trkpt>
      <trkpt lat="43.42758" lon="3.51353">
        <ele>60</ele>
        <time>2023-12-19T15:20:15Z</time>
      </trkpt>
      <trkpt lat="43.42759" lon="3.5135">
        <ele>60</ele>
        <time>2023-12-19T15:20:16Z</time>
      </trkpt>
      <trkpt lat="43.4276" lon="3.51348">
        <ele>60</ele>
        <time>2023-12-19T15:20:17Z</time>
      </trkpt>
      <trkpt lat="43.42761" lon="3.51347">
        <ele>60.200000762939</ele>
        <time>2023-12-19T15:20:18Z</time>
      </trkpt>
      <trkpt lat="43.42762" lon="3.51344">
        <ele>60.200000762939</ele>
        <time>2023-12-19T15:20:19Z</time>
      </trkpt>
      <trkpt lat="43.42763" lon="3.51343">
        <ele>60.400001525879</ele>
        <time>2023-12-19T15:20:20Z</time>
      </trkpt>
      <trkpt lat="43.42764" lon="3.51341">
        <ele>60.400001525879</ele>
        <time>2023-12-19T15:20:21Z</time>
      </trkpt>
      <trkpt lat="43.42765" lon="3.51338">
        <ele>60.400001525879</ele>
        <time>2023-12-19T15:20:22Z</time>
      </trkpt>
      <trkpt lat="43.42766" lon="3.51336">
        <ele>60.400001525879</ele>
        <time>2023-12-19T15:20:23Z</time>
      </trkpt>
      <trkpt lat="43.42767" lon="3.51333">
        <ele>60.599998474121</ele>
        <time>2023-12-19T15:20:24Z</time>
      </trkpt>
      <trkpt lat="43.42768" lon="3.51331">
        <ele>60.599998474121</ele>
        <time>2023-12-19T15:20:25Z</time>
      </trkpt>
      <trkpt lat="43.4277" lon="3.51329">
        <ele>60.599998474121</ele>
        <time>2023-12-19T15:20:26Z</time>
      </trkpt>
      <trkpt lat="43.42771" lon="3.51328">
        <ele>60.799999237061</ele>
        <time>2023-12-19T15:20:27Z</time>
      </trkpt>
      <trkpt lat="43.42773" lon="3.51325">
        <ele>61</ele>
        <time>2023-12-19T15:20:28Z</time>
      </trkpt>
      <trkpt lat="43.42775" lon="3.51323">
        <ele>61.200000762939</ele>
        <time>2023-12-19T15:20:29Z</time>
      </trkpt>
      <trkpt lat="43.42776" lon="3.51321">
        <ele>61.400001525879</ele>
        <time>2023-12-19T15:20:30Z</time>
      </trkpt>
      <trkpt lat="43.42778" lon="3.51319">
        <ele>61.599998474121</ele>
        <time>2023-12-19T15:20:31Z</time>
      </trkpt>
      <trkpt lat="43.42781" lon="3.51319">
        <ele>61.799999237061</ele>
        <time>2023-12-19T15:20:32Z</time>
      </trkpt>
      <trkpt lat="43.42783" lon="3.51318">
        <ele>62</ele>
        <time>2023-12-19T15:20:33Z</time>
      </trkpt>
      <trkpt lat="43.42786" lon="3.51318">
        <ele>62</ele>
        <time>2023-12-19T15:20:34Z</time>
      </trkpt>
      <trkpt lat="43.42788" lon="3.51317">
        <ele>62.200000762939</ele>
        <time>2023-12-19T15:20:35Z</time>
      </trkpt>
      <trkpt lat="43.42791" lon="3.51316">
        <ele>62.400001525879</ele>
        <time>2023-12-19T15:20:36Z</time>
      </trkpt>
      <trkpt lat="43.42794" lon="3.51314">
        <ele>62.400001525879</ele>
        <time>2023-12-19T15:20:37Z</time>
      </trkpt>
      <trkpt lat="43.42796" lon="3.51313">
        <ele>62.599998474121</ele>
        <time>2023-12-19T15:20:38Z</time>
      </trkpt>
      <trkpt lat="43.42799" lon="3.51311">
        <ele>62.599998474121</ele>
        <time>2023-12-19T15:20:39Z</time>
      </trkpt>
      <trkpt lat="43.42801" lon="3.51309">
        <ele>62.599998474121</ele>
        <time>2023-12-19T15:20:40Z</time>
      </trkpt>
      <trkpt lat="43.42804" lon="3.51307">
        <ele>62.599998474121</ele>
        <time>2023-12-19T15:20:41Z</time>
      </trkpt>
      <trkpt lat="43.42806" lon="3.51305">
        <ele>62.599998474121</ele>
        <time>2023-12-19T15:20:42Z</time>
      </trkpt>
      <trkpt lat="43.42809" lon="3.51303">
        <ele>62.599998474121</ele>
        <time>2023-12-19T15:20:43Z</time>
      </trkpt>
      <trkpt lat="43.42811" lon="3.513">
        <ele>62.599998474121</ele>
        <time>2023-12-19T15:20:44Z</time>
      </trkpt>
      <trkpt lat="43.42814" lon="3.51297">
        <ele>62.599998474121</ele>
        <time>2023-12-19T15:20:45Z</time>
      </trkpt>
      <trkpt lat="43.42817" lon="3.51294">
        <ele>62.599998474121</ele>
        <time>2023-12-19T15:20:46Z</time>
      </trkpt>
      <trkpt lat="43.42819" lon="3.51292">
        <ele>62.400001525879</ele>
        <time>2023-12-19T15:20:47Z</time>
      </trkpt>
      <trkpt lat="43.42821" lon="3.5129">
        <ele>62.400001525879</ele>
        <time>2023-12-19T15:20:48Z</time>
      </trkpt>
      <trkpt lat="43.42823" lon="3.51287">
        <ele>62.400001525879</ele>
        <time>2023-12-19T15:20:49Z</time>
      </trkpt>
      <trkpt lat="43.42825" lon="3.51284">
        <ele>62.400001525879</ele>
        <time>2023-12-19T15:20:50Z</time>
      </trkpt>
      <trkpt lat="43.42828" lon="3.51282">
        <ele>62.400001525879</ele>
        <time>2023-12-19T15:20:51Z</time>
      </trkpt>
      <trkpt lat="43.4283" lon="3.51278">
        <ele>62.599998474121</ele>
        <time>2023-12-19T15:20:52Z</time>
      </trkpt>
      <trkpt lat="43.42833" lon="3.51276">
        <ele>62.599998474121</ele>
        <time>2023-12-19T15:20:53Z</time>
      </trkpt>
      <trkpt lat="43.42835" lon="3.51273">
        <ele>62.599998474121</ele>
        <time>2023-12-19T15:20:54Z</time>
      </trkpt>
      <trkpt lat="43.42838" lon="3.5127">
        <ele>62.799999237061</ele>
        <time>2023-12-19T15:20:55Z</time>
      </trkpt>
      <trkpt lat="43.42841" lon="3.51267">
        <ele>62.799999237061</ele>
        <time>2023-12-19T15:20:56Z</time>
      </trkpt>
      <trkpt lat="43.42845" lon="3.51263">
        <ele>62.799999237061</ele>
        <time>2023-12-19T15:20:57Z</time>
      </trkpt>
      <trkpt lat="43.42848" lon="3.51259">
        <ele>62.799999237061</ele>
        <time>2023-12-19T15:20:58Z</time>
      </trkpt>
      <trkpt lat="43.42851" lon="3.51257">
        <ele>63</ele>
        <time>2023-12-19T15:20:59Z</time>
      </trkpt>
      <trkpt lat="43.42853" lon="3.51254">
        <ele>63</ele>
        <time>2023-12-19T15:21:00Z</time>
      </trkpt>
      <trkpt lat="43.42856" lon="3.5125">
        <ele>63</ele>
        <time>2023-12-19T15:21:01Z</time>
      </trkpt>
      <trkpt lat="43.42859" lon="3.51246">
        <ele>63</ele>
        <time>2023-12-19T15:21:02Z</time>
      </trkpt>
      <trkpt lat="43.42862" lon="3.51242">
        <ele>63</ele>
        <time>2023-12-19T15:21:03Z</time>
      </trkpt>
      <trkpt lat="43.42866" lon="3.51239">
        <ele>63.200000762939</ele>
        <time>2023-12-19T15:21:04Z</time>
      </trkpt>
      <trkpt lat="43.4287" lon="3.51236">
        <ele>63.400001525879</ele>
        <time>2023-12-19T15:21:05Z</time>
      </trkpt>
      <trkpt lat="43.42873" lon="3.51234">
        <ele>63.400001525879</ele>
        <time>2023-12-19T15:21:06Z</time>
      </trkpt>
      <trkpt lat="43.42877" lon="3.51233">
        <ele>63.400001525879</ele>
        <time>2023-12-19T15:21:07Z</time>
      </trkpt>
      <trkpt lat="43.42881" lon="3.51232">
        <ele>63.400001525879</ele>
        <time>2023-12-19T15:21:08Z</time>
      </trkpt>
      <trkpt lat="43.42885" lon="3.5123">
        <ele>63.400001525879</ele>
        <time>2023-12-19T15:21:09Z</time>
      </trkpt>
      <trkpt lat="43.4289" lon="3.51229">
        <ele>63.599998474121</ele>
        <time>2023-12-19T15:21:10Z</time>
      </trkpt>
      <trkpt lat="43.42895" lon="3.51228">
        <ele>63.599998474121</ele>
        <time>2023-12-19T15:21:11Z</time>
      </trkpt>
      <trkpt lat="43.429" lon="3.51226">
        <ele>63.799999237061</ele>
        <time>2023-12-19T15:21:12Z</time>
      </trkpt>
      <trkpt lat="43.42904" lon="3.51225">
        <ele>63.799999237061</ele>
        <time>2023-12-19T15:21:13Z</time>
      </trkpt>
      <trkpt lat="43.42909" lon="3.51224">
        <ele>63.799999237061</ele>
        <time>2023-12-19T15:21:14Z</time>
      </trkpt>
      <trkpt lat="43.42913" lon="3.51221">
        <ele>63.799999237061</ele>
        <time>2023-12-19T15:21:15Z</time>
      </trkpt>
      <trkpt lat="43.42916" lon="3.5122">
        <ele>63.799999237061</ele>
        <time>2023-12-19T15:21:16Z</time>
      </trkpt>
      <trkpt lat="43.4292" lon="3.51218">
        <ele>64</ele>
        <time>2023-12-19T15:21:17Z</time>
      </trkpt>
      <trkpt lat="43.42923" lon="3.51217">
        <ele>64</ele>
        <time>2023-12-19T15:21:18Z</time>
      </trkpt>
      <trkpt lat="43.42927" lon="3.51216">
        <ele>64</ele>
        <time>2023-12-19T15:21:19Z</time>
      </trkpt>
      <trkpt lat="43.42932" lon="3.51215">
        <ele>64</ele>
        <time>2023-12-19T15:21:20Z</time>
      </trkpt>
      <trkpt lat="43.42936" lon="3.51215">
        <ele>64.199996948242</ele>
        <time>2023-12-19T15:21:21Z</time>
      </trkpt>
      <trkpt lat="43.42941" lon="3.51215">
        <ele>64.199996948242</ele>
        <time>2023-12-19T15:21:22Z</time>
      </trkpt>
      <trkpt lat="43.42945" lon="3.51216">
        <ele>64.199996948242</ele>
        <time>2023-12-19T15:21:23Z</time>
      </trkpt>
      <trkpt lat="43.42949" lon="3.51215">
        <ele>64.199996948242</ele>
        <time>2023-12-19T15:21:24Z</time>
      </trkpt>
      <trkpt lat="43.42953" lon="3.51215">
        <ele>64.199996948242</ele>
        <time>2023-12-19T15:21:25Z</time>
      </trkpt>
      <trkpt lat="43.42958" lon="3.51214">
        <ele>64</ele>
        <time>2023-12-19T15:21:26Z</time>
      </trkpt>
      <trkpt lat="43.42963" lon="3.51213">
        <ele>63.799999237061</ele>
        <time>2023-12-19T15:21:27Z</time>
      </trkpt>
      <trkpt lat="43.42968" lon="3.51213">
        <ele>63.799999237061</ele>
        <time>2023-12-19T15:21:28Z</time>
      </trkpt>
      <trkpt lat="43.42972" lon="3.51212">
        <ele>63.799999237061</ele>
        <time>2023-12-19T15:21:29Z</time>
      </trkpt>
      <trkpt lat="43.42976" lon="3.5121">
        <ele>63.799999237061</ele>
        <time>2023-12-19T15:21:30Z</time>
      </trkpt>
      <trkpt lat="43.42981" lon="3.51207">
        <ele>63.799999237061</ele>
        <time>2023-12-19T15:21:31Z</time>
      </trkpt>
      <trkpt lat="43.42985" lon="3.51205">
        <ele>63.799999237061</ele>
        <time>2023-12-19T15:21:32Z</time>
      </trkpt>
      <trkpt lat="43.42988" lon="3.51202">
        <ele>63.799999237061</ele>
        <time>2023-12-19T15:21:33Z</time>
      </trkpt>
      <trkpt lat="43.42992" lon="3.512">
        <ele>63.799999237061</ele>
        <time>2023-12-19T15:21:34Z</time>
      </trkpt>
      <trkpt lat="43.42996" lon="3.51198">
        <ele>63.799999237061</ele>
        <time>2023-12-19T15:21:35Z</time>
      </trkpt>
      <trkpt lat="43.43" lon="3.51196">
        <ele>63.799999237061</ele>
        <time>2023-12-19T15:21:36Z</time>
      </trkpt>
      <trkpt lat="43.43004" lon="3.51194">
        <ele>64</ele>
        <time>2023-12-19T15:21:37Z</time>
      </trkpt>
      <trkpt lat="43.43008" lon="3.51192">
        <ele>64</ele>
        <time>2023-12-19T15:21:38Z</time>
      </trkpt>
      <trkpt lat="43.43011" lon="3.5119">
        <ele>64</ele>
        <time>2023-12-19T15:21:39Z</time>
      </trkpt>
      <trkpt lat="43.43015" lon="3.51189">
        <ele>64</ele>
        <time>2023-12-19T15:21:40Z</time>
      </trkpt>
      <trkpt lat="43.43019" lon="3.51187">
        <ele>64</ele>
        <time>2023-12-19T15:21:41Z</time>
      </trkpt>
      <trkpt lat="43.43023" lon="3.51184">
        <ele>64</ele>
        <time>2023-12-19T15:21:42Z</time>
      </trkpt>
      <trkpt lat="43.43026" lon="3.51181">
        <ele>64</ele>
        <time>2023-12-19T15:21:43Z</time>
      </trkpt>
      <trkpt lat="43.4303" lon="3.51177">
        <ele>64.199996948242</ele>
        <time>2023-12-19T15:21:44Z</time>
      </trkpt>
      <trkpt lat="43.43033" lon="3.51173">
        <ele>64.199996948242</ele>
        <time>2023-12-19T15:21:45Z</time>
      </trkpt>
      <trkpt lat="43.43037" lon="3.5117">
        <ele>64.199996948242</ele>
        <time>2023-12-19T15:21:46Z</time>
      </trkpt>
      <trkpt lat="43.43041" lon="3.51166">
        <ele>64.199996948242</ele>
        <time>2023-12-19T15:21:47Z</time>
      </trkpt>
      <trkpt lat="43.43046" lon="3.51162">
        <ele>64.199996948242</ele>
        <time>2023-12-19T15:21:48Z</time>
      </trkpt>
      <trkpt lat="43.4305" lon="3.51158">
        <ele>64.199996948242</ele>
        <time>2023-12-19T15:21:49Z</time>
      </trkpt>
      <trkpt lat="43.43054" lon="3.51153">
        <ele>64.199996948242</ele>
        <time>2023-12-19T15:21:50Z</time>
      </trkpt>
      <trkpt lat="43.43059" lon="3.51149">
        <ele>64.199996948242</ele>
        <time>2023-12-19T15:21:51Z</time>
      </trkpt>
      <trkpt lat="43.43063" lon="3.51146">
        <ele>64.199996948242</ele>
        <time>2023-12-19T15:21:52Z</time>
      </trkpt>
      <trkpt lat="43.43067" lon="3.51143">
        <ele>64.199996948242</ele>
        <time>2023-12-19T15:21:53Z</time>
      </trkpt>
      <trkpt lat="43.43072" lon="3.51139">
        <ele>64.199996948242</ele>
        <time>2023-12-19T15:21:54Z</time>
      </trkpt>
      <trkpt lat="43.43077" lon="3.51136">
        <ele>64.400001525879</ele>
        <time>2023-12-19T15:21:55Z</time>
      </trkpt>
      <trkpt lat="43.43082" lon="3.51133">
        <ele>64.400001525879</ele>
        <time>2023-12-19T15:21:56Z</time>
      </trkpt>
      <trkpt lat="43.43086" lon="3.5113">
        <ele>64.400001525879</ele>
        <time>2023-12-19T15:21:57Z</time>
      </trkpt>
      <trkpt lat="43.43089" lon="3.51126">
        <ele>64.599998474121</ele>
        <time>2023-12-19T15:21:58Z</time>
      </trkpt>
      <trkpt lat="43.43093" lon="3.51122">
        <ele>64.599998474121</ele>
        <time>2023-12-19T15:21:59Z</time>
      </trkpt>
      <trkpt lat="43.43096" lon="3.51118">
        <ele>64.599998474121</ele>
        <time>2023-12-19T15:22:00Z</time>
      </trkpt>
      <trkpt lat="43.43101" lon="3.51115">
        <ele>64.800003051758</ele>
        <time>2023-12-19T15:22:01Z</time>
      </trkpt>
      <trkpt lat="43.43105" lon="3.51112">
        <ele>64.800003051758</ele>
        <time>2023-12-19T15:22:02Z</time>
      </trkpt>
      <trkpt lat="43.43109" lon="3.51108">
        <ele>65.199996948242</ele>
        <time>2023-12-19T15:22:03Z</time>
      </trkpt>
      <trkpt lat="43.43113" lon="3.51106">
        <ele>65.400001525879</ele>
        <time>2023-12-19T15:22:04Z</time>
      </trkpt>
      <trkpt lat="43.43116" lon="3.51104">
        <ele>65.599998474121</ele>
        <time>2023-12-19T15:22:05Z</time>
      </trkpt>
      <trkpt lat="43.43118" lon="3.51102">
        <ele>65.800003051758</ele>
        <time>2023-12-19T15:22:06Z</time>
      </trkpt>
      <trkpt lat="43.4312" lon="3.51098">
        <ele>66</ele>
        <time>2023-12-19T15:22:07Z</time>
      </trkpt>
      <trkpt lat="43.43121" lon="3.51093">
        <ele>66.199996948242</ele>
        <time>2023-12-19T15:22:08Z</time>
      </trkpt>
      <trkpt lat="43.43123" lon="3.51089">
        <ele>66.400001525879</ele>
        <time>2023-12-19T15:22:09Z</time>
      </trkpt>
      <trkpt lat="43.43125" lon="3.51086">
        <ele>66.599998474121</ele>
        <time>2023-12-19T15:22:10Z</time>
      </trkpt>
      <trkpt lat="43.43127" lon="3.51083">
        <ele>67</ele>
        <time>2023-12-19T15:22:11Z</time>
      </trkpt>
      <trkpt lat="43.4313" lon="3.51082">
        <ele>67.400001525879</ele>
        <time>2023-12-19T15:22:12Z</time>
      </trkpt>
      <trkpt lat="43.43132" lon="3.5108">
        <ele>67.599998474121</ele>
        <time>2023-12-19T15:22:13Z</time>
      </trkpt>
      <trkpt lat="43.43134" lon="3.51079">
        <ele>68</ele>
        <time>2023-12-19T15:22:14Z</time>
      </trkpt>
      <trkpt lat="43.43136" lon="3.51077">
        <ele>68.400001525879</ele>
        <time>2023-12-19T15:22:15Z</time>
      </trkpt>
      <trkpt lat="43.43138" lon="3.51074">
        <ele>68.599998474121</ele>
        <time>2023-12-19T15:22:16Z</time>
      </trkpt>
      <trkpt lat="43.4314" lon="3.51071">
        <ele>68.800003051758</ele>
        <time>2023-12-19T15:22:17Z</time>
      </trkpt>
      <trkpt lat="43.43142" lon="3.51067">
        <ele>69</ele>
        <time>2023-12-19T15:22:18Z</time>
      </trkpt>
      <trkpt lat="43.43142" lon="3.51062">
        <ele>69</ele>
        <time>2023-12-19T15:22:19Z</time>
      </trkpt>
      <trkpt lat="43.43142" lon="3.51058">
        <ele>69.199996948242</ele>
        <time>2023-12-19T15:22:20Z</time>
      </trkpt>
      <trkpt lat="43.43141" lon="3.51054">
        <ele>69.400001525879</ele>
        <time>2023-12-19T15:22:21Z</time>
      </trkpt>
      <trkpt lat="43.4314" lon="3.5105">
        <ele>69.599998474121</ele>
        <time>2023-12-19T15:22:22Z</time>
      </trkpt>
      <trkpt lat="43.43138" lon="3.51046">
        <ele>69.800003051758</ele>
        <time>2023-12-19T15:22:23Z</time>
      </trkpt>
      <trkpt lat="43.43137" lon="3.51043">
        <ele>70</ele>
        <time>2023-12-19T15:22:24Z</time>
      </trkpt>
      <trkpt lat="43.43136" lon="3.51039">
        <ele>70.400001525879</ele>
        <time>2023-12-19T15:22:25Z</time>
      </trkpt>
      <trkpt lat="43.43135" lon="3.51035">
        <ele>70.599998474121</ele>
        <time>2023-12-19T15:22:26Z</time>
      </trkpt>
      <trkpt lat="43.43133" lon="3.51032">
        <ele>70.800003051758</ele>
        <time>2023-12-19T15:22:27Z</time>
      </trkpt>
      <trkpt lat="43.43131" lon="3.51029">
        <ele>71</ele>
        <time>2023-12-19T15:22:28Z</time>
      </trkpt>
      <trkpt lat="43.4313" lon="3.51027">
        <ele>71</ele>
        <time>2023-12-19T15:22:29Z</time>
      </trkpt>
      <trkpt lat="43.43129" lon="3.51025">
        <ele>71</ele>
        <time>2023-12-19T15:22:30Z</time>
      </trkpt>
      <trkpt lat="43.43129" lon="3.51022">
        <ele>71</ele>
        <time>2023-12-19T15:22:31Z</time>
      </trkpt>
      <trkpt lat="43.43128" lon="3.5102">
        <ele>71</ele>
        <time>2023-12-19T15:22:32Z</time>
      </trkpt>
      <trkpt lat="43.43128" lon="3.51019">
        <ele>71.199996948242</ele>
        <time>2023-12-19T15:22:33Z</time>
      </trkpt>
      <trkpt lat="43.43128" lon="3.51016">
        <ele>71.199996948242</ele>
        <time>2023-12-19T15:22:34Z</time>
      </trkpt>
      <trkpt lat="43.43128" lon="3.51013">
        <ele>71.199996948242</ele>
        <time>2023-12-19T15:22:35Z</time>
      </trkpt>
      <trkpt lat="43.43128" lon="3.51013">
        <ele>71.199996948242</ele>
        <time>2023-12-19T15:22:36Z</time>
      </trkpt>
      <trkpt lat="43.43128" lon="3.51012">
        <ele>71.199996948242</ele>
        <time>2023-12-19T15:22:37Z</time>
      </trkpt>
      <trkpt lat="43.43128" lon="3.51012">
        <ele>71.199996948242</ele>
        <time>2023-12-19T15:22:38Z</time>
      </trkpt>
      <trkpt lat="43.43129" lon="3.51004">
        <ele>70.199996948242</ele>
        <time>2023-12-19T15:24:28Z</time>
      </trkpt>
      <trkpt lat="43.43128" lon="3.51">
        <ele>70.199996948242</ele>
        <time>2023-12-19T15:24:29Z</time>
      </trkpt>
      <trkpt lat="43.43127" lon="3.50996">
        <ele>70.199996948242</ele>
        <time>2023-12-19T15:24:30Z</time>
      </trkpt>
      <trkpt lat="43.43126" lon="3.50994">
        <ele>70.199996948242</ele>
        <time>2023-12-19T15:24:31Z</time>
      </trkpt>
      <trkpt lat="43.43126" lon="3.50993">
        <ele>70</ele>
        <time>2023-12-19T15:24:32Z</time>
      </trkpt>
      <trkpt lat="43.43124" lon="3.50992">
        <ele>69.599998474121</ele>
        <time>2023-12-19T15:24:33Z</time>
      </trkpt>
      <trkpt lat="43.43122" lon="3.5099">
        <ele>69.400001525879</ele>
        <time>2023-12-19T15:24:34Z</time>
      </trkpt>
      <trkpt lat="43.43119" lon="3.50987">
        <ele>69.400001525879</ele>
        <time>2023-12-19T15:24:35Z</time>
      </trkpt>
      <trkpt lat="43.43116" lon="3.50985">
        <ele>69.199996948242</ele>
        <time>2023-12-19T15:24:36Z</time>
      </trkpt>
      <trkpt lat="43.43114" lon="3.50984">
        <ele>69.199996948242</ele>
        <time>2023-12-19T15:24:37Z</time>
      </trkpt>
      <trkpt lat="43.43112" lon="3.50983">
        <ele>68.800003051758</ele>
        <time>2023-12-19T15:24:38Z</time>
      </trkpt>
      <trkpt lat="43.43112" lon="3.50983">
        <ele>68.400001525879</ele>
        <time>2023-12-19T15:24:39Z</time>
      </trkpt>
      <trkpt lat="43.43112" lon="3.50983">
        <ele>68.199996948242</ele>
        <time>2023-12-19T15:24:40Z</time>
      </trkpt>
      <trkpt lat="43.43125" lon="3.50992">
        <ele>68.199996948242</ele>
        <time>2023-12-19T15:25:10Z</time>
      </trkpt>
      <trkpt lat="43.43127" lon="3.50992">
        <ele>68.599998474121</ele>
        <time>2023-12-19T15:25:11Z</time>
      </trkpt>
      <trkpt lat="43.43127" lon="3.5099">
        <ele>68.599998474121</ele>
        <time>2023-12-19T15:25:12Z</time>
      </trkpt>
      <trkpt lat="43.43128" lon="3.50987">
        <ele>68.800003051758</ele>
        <time>2023-12-19T15:25:13Z</time>
      </trkpt>
      <trkpt lat="43.43128" lon="3.50984">
        <ele>68.800003051758</ele>
        <time>2023-12-19T15:25:14Z</time>
      </trkpt>
      <trkpt lat="43.43128" lon="3.50981">
        <ele>69</ele>
        <time>2023-12-19T15:25:15Z</time>
      </trkpt>
      <trkpt lat="43.43128" lon="3.50977">
        <ele>69</ele>
        <time>2023-12-19T15:25:16Z</time>
      </trkpt>
      <trkpt lat="43.43128" lon="3.50973">
        <ele>69</ele>
        <time>2023-12-19T15:25:17Z</time>
      </trkpt>
      <trkpt lat="43.43128" lon="3.50968">
        <ele>69</ele>
        <time>2023-12-19T15:25:18Z</time>
      </trkpt>
      <trkpt lat="43.43128" lon="3.50963">
        <ele>68.800003051758</ele>
        <time>2023-12-19T15:25:19Z</time>
      </trkpt>
      <trkpt lat="43.43129" lon="3.5096">
        <ele>68.400001525879</ele>
        <time>2023-12-19T15:25:20Z</time>
      </trkpt>
      <trkpt lat="43.43131" lon="3.50957">
        <ele>68.199996948242</ele>
        <time>2023-12-19T15:25:21Z</time>
      </trkpt>
      <trkpt lat="43.43133" lon="3.50954">
        <ele>68</ele>
        <time>2023-12-19T15:25:22Z</time>
      </trkpt>
      <trkpt lat="43.43135" lon="3.50951">
        <ele>67.800003051758</ele>
        <time>2023-12-19T15:25:23Z</time>
      </trkpt>
      <trkpt lat="43.43137" lon="3.50948">
        <ele>67.599998474121</ele>
        <time>2023-12-19T15:25:24Z</time>
      </trkpt>
      <trkpt lat="43.4314" lon="3.50944">
        <ele>67.400001525879</ele>
        <time>2023-12-19T15:25:25Z</time>
      </trkpt>
      <trkpt lat="43.43143" lon="3.50941">
        <ele>67.199996948242</ele>
        <time>2023-12-19T15:25:26Z</time>
      </trkpt>
      <trkpt lat="43.43146" lon="3.50937">
        <ele>66.800003051758</ele>
        <time>2023-12-19T15:25:27Z</time>
      </trkpt>
      <trkpt lat="43.4315" lon="3.50935">
        <ele>66.400001525879</ele>
        <time>2023-12-19T15:25:28Z</time>
      </trkpt>
      <trkpt lat="43.43153" lon="3.50933">
        <ele>66.199996948242</ele>
        <time>2023-12-19T15:25:29Z</time>
      </trkpt>
      <trkpt lat="43.43156" lon="3.5093">
        <ele>66</ele>
        <time>2023-12-19T15:25:30Z</time>
      </trkpt>
      <trkpt lat="43.4316" lon="3.50925">
        <ele>65.800003051758</ele>
        <time>2023-12-19T15:25:31Z</time>
      </trkpt>
      <trkpt lat="43.43163" lon="3.5092">
        <ele>65.599998474121</ele>
        <time>2023-12-19T15:25:32Z</time>
      </trkpt>
      <trkpt lat="43.43166" lon="3.50915">
        <ele>65.199996948242</ele>
        <time>2023-12-19T15:25:33Z</time>
      </trkpt>
      <trkpt lat="43.43169" lon="3.50909">
        <ele>64.800003051758</ele>
        <time>2023-12-19T15:25:34Z</time>
      </trkpt>
      <trkpt lat="43.43172" lon="3.50904">
        <ele>64</ele>
        <time>2023-12-19T15:25:35Z</time>
      </trkpt>
      <trkpt lat="43.43176" lon="3.509">
        <ele>63.799999237061</ele>
        <time>2023-12-19T15:25:36Z</time>
      </trkpt>
      <trkpt lat="43.4318" lon="3.50899">
        <ele>63.400001525879</ele>
        <time>2023-12-19T15:25:37Z</time>
      </trkpt>
      <trkpt lat="43.43183" lon="3.50899">
        <ele>63</ele>
        <time>2023-12-19T15:25:38Z</time>
      </trkpt>
      <trkpt lat="43.43187" lon="3.50899">
        <ele>62.799999237061</ele>
        <time>2023-12-19T15:25:39Z</time>
      </trkpt>
      <trkpt lat="43.43191" lon="3.50899">
        <ele>62.799999237061</ele>
        <time>2023-12-19T15:25:40Z</time>
      </trkpt>
      <trkpt lat="43.43196" lon="3.50899">
        <ele>62.799999237061</ele>
        <time>2023-12-19T15:25:41Z</time>
      </trkpt>
      <trkpt lat="43.432" lon="3.509">
        <ele>62.599998474121</ele>
        <time>2023-12-19T15:25:42Z</time>
      </trkpt>
      <trkpt lat="43.43205" lon="3.50901">
        <ele>62.400001525879</ele>
        <time>2023-12-19T15:25:43Z</time>
      </trkpt>
      <trkpt lat="43.43209" lon="3.50903">
        <ele>62</ele>
        <time>2023-12-19T15:25:44Z</time>
      </trkpt>
      <trkpt lat="43.43212" lon="3.50905">
        <ele>61.799999237061</ele>
        <time>2023-12-19T15:25:45Z</time>
      </trkpt>
      <trkpt lat="43.43215" lon="3.50905">
        <ele>61.200000762939</ele>
        <time>2023-12-19T15:25:46Z</time>
      </trkpt>
      <trkpt lat="43.43217" lon="3.50904">
        <ele>61</ele>
        <time>2023-12-19T15:25:47Z</time>
      </trkpt>
      <trkpt lat="43.43218" lon="3.50901">
        <ele>60.799999237061</ele>
        <time>2023-12-19T15:25:48Z</time>
      </trkpt>
      <trkpt lat="43.43218" lon="3.50898">
        <ele>60.599998474121</ele>
        <time>2023-12-19T15:25:49Z</time>
      </trkpt>
      <trkpt lat="43.43218" lon="3.50893">
        <ele>60.599998474121</ele>
        <time>2023-12-19T15:25:50Z</time>
      </trkpt>
      <trkpt lat="43.43219" lon="3.50888">
        <ele>60.200000762939</ele>
        <time>2023-12-19T15:25:51Z</time>
      </trkpt>
      <trkpt lat="43.43219" lon="3.50881">
        <ele>60</ele>
        <time>2023-12-19T15:25:52Z</time>
      </trkpt>
      <trkpt lat="43.43219" lon="3.50874">
        <ele>59.599998474121</ele>
        <time>2023-12-19T15:25:53Z</time>
      </trkpt>
      <trkpt lat="43.43218" lon="3.50867">
        <ele>59.200000762939</ele>
        <time>2023-12-19T15:25:54Z</time>
      </trkpt>
      <trkpt lat="43.43218" lon="3.5086">
        <ele>58.799999237061</ele>
        <time>2023-12-19T15:25:55Z</time>
      </trkpt>
      <trkpt lat="43.43217" lon="3.50851">
        <ele>58.400001525879</ele>
        <time>2023-12-19T15:25:56Z</time>
      </trkpt>
      <trkpt lat="43.43216" lon="3.50843">
        <ele>58.200000762939</ele>
        <time>2023-12-19T15:25:57Z</time>
      </trkpt>
      <trkpt lat="43.43215" lon="3.50835">
        <ele>58</ele>
        <time>2023-12-19T15:25:58Z</time>
      </trkpt>
      <trkpt lat="43.43213" lon="3.50826">
        <ele>57.599998474121</ele>
        <time>2023-12-19T15:25:59Z</time>
      </trkpt>
      <trkpt lat="43.43212" lon="3.50817">
        <ele>57.200000762939</ele>
        <time>2023-12-19T15:26:00Z</time>
      </trkpt>
      <trkpt lat="43.4321" lon="3.50809">
        <ele>56.799999237061</ele>
        <time>2023-12-19T15:26:01Z</time>
      </trkpt>
      <trkpt lat="43.43208" lon="3.50801">
        <ele>56.200000762939</ele>
        <time>2023-12-19T15:26:02Z</time>
      </trkpt>
      <trkpt lat="43.43207" lon="3.50795">
        <ele>55.799999237061</ele>
        <time>2023-12-19T15:26:03Z</time>
      </trkpt>
      <trkpt lat="43.43206" lon="3.50791">
        <ele>55.200000762939</ele>
        <time>2023-12-19T15:26:04Z</time>
      </trkpt>
      <trkpt lat="43.43205" lon="3.50787">
        <ele>54.799999237061</ele>
        <time>2023-12-19T15:26:05Z</time>
      </trkpt>
      <trkpt lat="43.43206" lon="3.50784">
        <ele>54.599998474121</ele>
        <time>2023-12-19T15:26:06Z</time>
      </trkpt>
      <trkpt lat="43.43207" lon="3.50781">
        <ele>54.599998474121</ele>
        <time>2023-12-19T15:26:07Z</time>
      </trkpt>
      <trkpt lat="43.43209" lon="3.50779">
        <ele>54.599998474121</ele>
        <time>2023-12-19T15:26:08Z</time>
      </trkpt>
      <trkpt lat="43.43212" lon="3.50777">
        <ele>54.400001525879</ele>
        <time>2023-12-19T15:26:09Z</time>
      </trkpt>
      <trkpt lat="43.43215" lon="3.50777">
        <ele>54.400001525879</ele>
        <time>2023-12-19T15:26:10Z</time>
      </trkpt>
      <trkpt lat="43.43217" lon="3.50777">
        <ele>54.400001525879</ele>
        <time>2023-12-19T15:26:11Z</time>
      </trkpt>
      <trkpt lat="43.43218" lon="3.50777">
        <ele>54.400001525879</ele>
        <time>2023-12-19T15:26:12Z</time>
      </trkpt>
      <trkpt lat="43.4322" lon="3.50777">
        <ele>54.400001525879</ele>
        <time>2023-12-19T15:26:13Z</time>
      </trkpt>
      <trkpt lat="43.43222" lon="3.50779">
        <ele>54.599998474121</ele>
        <time>2023-12-19T15:26:14Z</time>
      </trkpt>
      <trkpt lat="43.43225" lon="3.50779">
        <ele>54.599998474121</ele>
        <time>2023-12-19T15:26:15Z</time>
      </trkpt>
      <trkpt lat="43.43227" lon="3.50779">
        <ele>54.599998474121</ele>
        <time>2023-12-19T15:26:16Z</time>
      </trkpt>
      <trkpt lat="43.4323" lon="3.50779">
        <ele>54.599998474121</ele>
        <time>2023-12-19T15:26:17Z</time>
      </trkpt>
      <trkpt lat="43.43234" lon="3.5078">
        <ele>54.799999237061</ele>
        <time>2023-12-19T15:26:18Z</time>
      </trkpt>
      <trkpt lat="43.43238" lon="3.50782">
        <ele>54.799999237061</ele>
        <time>2023-12-19T15:26:19Z</time>
      </trkpt>
      <trkpt lat="43.43242" lon="3.50783">
        <ele>54.799999237061</ele>
        <time>2023-12-19T15:26:20Z</time>
      </trkpt>
      <trkpt lat="43.43246" lon="3.50784">
        <ele>55</ele>
        <time>2023-12-19T15:26:21Z</time>
      </trkpt>
      <trkpt lat="43.4325" lon="3.50786">
        <ele>55</ele>
        <time>2023-12-19T15:26:22Z</time>
      </trkpt>
      <trkpt lat="43.43253" lon="3.50787">
        <ele>55</ele>
        <time>2023-12-19T15:26:23Z</time>
      </trkpt>
      <trkpt lat="43.43256" lon="3.50788">
        <ele>55</ele>
        <time>2023-12-19T15:26:24Z</time>
      </trkpt>
      <trkpt lat="43.43259" lon="3.50789">
        <ele>55.200000762939</ele>
        <time>2023-12-19T15:26:25Z</time>
      </trkpt>
      <trkpt lat="43.43262" lon="3.50788">
        <ele>55.200000762939</ele>
        <time>2023-12-19T15:26:26Z</time>
      </trkpt>
      <trkpt lat="43.43264" lon="3.50785">
        <ele>55.200000762939</ele>
        <time>2023-12-19T15:26:27Z</time>
      </trkpt>
      <trkpt lat="43.43266" lon="3.5078">
        <ele>55.200000762939</ele>
        <time>2023-12-19T15:26:28Z</time>
      </trkpt>
      <trkpt lat="43.43267" lon="3.50775">
        <ele>55.200000762939</ele>
        <time>2023-12-19T15:26:29Z</time>
      </trkpt>
      <trkpt lat="43.43268" lon="3.50768">
        <ele>55</ele>
        <time>2023-12-19T15:26:30Z</time>
      </trkpt>
      <trkpt lat="43.43269" lon="3.50761">
        <ele>54.799999237061</ele>
        <time>2023-12-19T15:26:31Z</time>
      </trkpt>
      <trkpt lat="43.4327" lon="3.50753">
        <ele>54.599998474121</ele>
        <time>2023-12-19T15:26:32Z</time>
      </trkpt>
      <trkpt lat="43.43272" lon="3.50746">
        <ele>54.200000762939</ele>
        <time>2023-12-19T15:26:33Z</time>
      </trkpt>
      <trkpt lat="43.43273" lon="3.50738">
        <ele>54</ele>
        <time>2023-12-19T15:26:34Z</time>
      </trkpt>
      <trkpt lat="43.43275" lon="3.5073">
        <ele>54</ele>
        <time>2023-12-19T15:26:35Z</time>
      </trkpt>
      <trkpt lat="43.43276" lon="3.50723">
        <ele>53.599998474121</ele>
        <time>2023-12-19T15:26:36Z</time>
      </trkpt>
      <trkpt lat="43.43277" lon="3.50716">
        <ele>53.400001525879</ele>
        <time>2023-12-19T15:26:37Z</time>
      </trkpt>
      <trkpt lat="43.43279" lon="3.50709">
        <ele>53.200000762939</ele>
        <time>2023-12-19T15:26:38Z</time>
      </trkpt>
      <trkpt lat="43.4328" lon="3.50702">
        <ele>53</ele>
        <time>2023-12-19T15:26:39Z</time>
      </trkpt>
      <trkpt lat="43.43281" lon="3.50695">
        <ele>52.799999237061</ele>
        <time>2023-12-19T15:26:40Z</time>
      </trkpt>
      <trkpt lat="43.43283" lon="3.50688">
        <ele>52.599998474121</ele>
        <time>2023-12-19T15:26:41Z</time>
      </trkpt>
      <trkpt lat="43.43284" lon="3.5068">
        <ele>52.599998474121</ele>
        <time>2023-12-19T15:26:42Z</time>
      </trkpt>
      <trkpt lat="43.43286" lon="3.50672">
        <ele>52.599998474121</ele>
        <time>2023-12-19T15:26:43Z</time>
      </trkpt>
      <trkpt lat="43.43287" lon="3.50665">
        <ele>52.599998474121</ele>
        <time>2023-12-19T15:26:44Z</time>
      </trkpt>
      <trkpt lat="43.43288" lon="3.50657">
        <ele>52.599998474121</ele>
        <time>2023-12-19T15:26:45Z</time>
      </trkpt>
      <trkpt lat="43.4329" lon="3.5065">
        <ele>52.400001525879</ele>
        <time>2023-12-19T15:26:46Z</time>
      </trkpt>
      <trkpt lat="43.43292" lon="3.50644">
        <ele>52.400001525879</ele>
        <time>2023-12-19T15:26:47Z</time>
      </trkpt>
      <trkpt lat="43.43293" lon="3.50637">
        <ele>52.400001525879</ele>
        <time>2023-12-19T15:26:48Z</time>
      </trkpt>
      <trkpt lat="43.43293" lon="3.5063">
        <ele>52.400001525879</ele>
        <time>2023-12-19T15:26:49Z</time>
      </trkpt>
      <trkpt lat="43.43294" lon="3.50622">
        <ele>52.200000762939</ele>
        <time>2023-12-19T15:26:50Z</time>
      </trkpt>
      <trkpt lat="43.43294" lon="3.50613">
        <ele>52.200000762939</ele>
        <time>2023-12-19T15:26:51Z</time>
      </trkpt>
      <trkpt lat="43.43295" lon="3.50605">
        <ele>52</ele>
        <time>2023-12-19T15:26:52Z</time>
      </trkpt>
      <trkpt lat="43.43295" lon="3.50597">
        <ele>52</ele>
        <time>2023-12-19T15:26:53Z</time>
      </trkpt>
      <trkpt lat="43.43295" lon="3.50589">
        <ele>52</ele>
        <time>2023-12-19T15:26:54Z</time>
      </trkpt>
      <trkpt lat="43.43295" lon="3.50582">
        <ele>52</ele>
        <time>2023-12-19T15:26:55Z</time>
      </trkpt>
      <trkpt lat="43.43295" lon="3.50573">
        <ele>52</ele>
        <time>2023-12-19T15:26:56Z</time>
      </trkpt>
      <trkpt lat="43.43296" lon="3.50566">
        <ele>52</ele>
        <time>2023-12-19T15:26:57Z</time>
      </trkpt>
      <trkpt lat="43.43296" lon="3.50558">
        <ele>52</ele>
        <time>2023-12-19T15:26:58Z</time>
      </trkpt>
      <trkpt lat="43.43297" lon="3.5055">
        <ele>52</ele>
        <time>2023-12-19T15:26:59Z</time>
      </trkpt>
      <trkpt lat="43.43297" lon="3.50542">
        <ele>52</ele>
        <time>2023-12-19T15:27:00Z</time>
      </trkpt>
      <trkpt lat="43.43297" lon="3.50535">
        <ele>52</ele>
        <time>2023-12-19T15:27:01Z</time>
      </trkpt>
      <trkpt lat="43.43298" lon="3.50528">
        <ele>52</ele>
        <time>2023-12-19T15:27:02Z</time>
      </trkpt>
      <trkpt lat="43.43298" lon="3.5052">
        <ele>52.200000762939</ele>
        <time>2023-12-19T15:27:03Z</time>
      </trkpt>
      <trkpt lat="43.43299" lon="3.50513">
        <ele>52.200000762939</ele>
        <time>2023-12-19T15:27:04Z</time>
      </trkpt>
      <trkpt lat="43.433" lon="3.50506">
        <ele>52.200000762939</ele>
        <time>2023-12-19T15:27:05Z</time>
      </trkpt>
      <trkpt lat="43.433" lon="3.50499">
        <ele>52.400001525879</ele>
        <time>2023-12-19T15:27:06Z</time>
      </trkpt>
      <trkpt lat="43.43301" lon="3.50492">
        <ele>52.400001525879</ele>
        <time>2023-12-19T15:27:07Z</time>
      </trkpt>
      <trkpt lat="43.43302" lon="3.50485">
        <ele>52.400001525879</ele>
        <time>2023-12-19T15:27:08Z</time>
      </trkpt>
      <trkpt lat="43.43304" lon="3.50479">
        <ele>52.400001525879</ele>
        <time>2023-12-19T15:27:09Z</time>
      </trkpt>
      <trkpt lat="43.43304" lon="3.50474">
        <ele>52.400001525879</ele>
        <time>2023-12-19T15:27:10Z</time>
      </trkpt>
      <trkpt lat="43.43305" lon="3.5047">
        <ele>52.400001525879</ele>
        <time>2023-12-19T15:27:11Z</time>
      </trkpt>
      <trkpt lat="43.43307" lon="3.50468">
        <ele>52.400001525879</ele>
        <time>2023-12-19T15:27:12Z</time>
      </trkpt>
      <trkpt lat="43.4331" lon="3.50467">
        <ele>52.400001525879</ele>
        <time>2023-12-19T15:27:13Z</time>
      </trkpt>
      <trkpt lat="43.43312" lon="3.50466">
        <ele>52.599998474121</ele>
        <time>2023-12-19T15:27:14Z</time>
      </trkpt>
      <trkpt lat="43.43314" lon="3.50466">
        <ele>52.599998474121</ele>
        <time>2023-12-19T15:27:15Z</time>
      </trkpt>
      <trkpt lat="43.43316" lon="3.50466">
        <ele>53</ele>
        <time>2023-12-19T15:27:16Z</time>
      </trkpt>
      <trkpt lat="43.43318" lon="3.50466">
        <ele>53.200000762939</ele>
        <time>2023-12-19T15:27:17Z</time>
      </trkpt>
      <trkpt lat="43.43318" lon="3.50465">
        <ele>53.400001525879</ele>
        <time>2023-12-19T15:27:18Z</time>
      </trkpt>
      <trkpt lat="43.43317" lon="3.50465">
        <ele>53.799999237061</ele>
        <time>2023-12-19T15:27:19Z</time>
      </trkpt>
      <trkpt lat="43.43319" lon="3.5046">
        <ele>54.400001525879</ele>
        <time>2023-12-19T15:27:26Z</time>
      </trkpt>
      <trkpt lat="43.4332" lon="3.50457">
        <ele>54.400001525879</ele>
        <time>2023-12-19T15:27:27Z</time>
      </trkpt>
      <trkpt lat="43.43321" lon="3.50454">
        <ele>54.400001525879</ele>
        <time>2023-12-19T15:27:28Z</time>
      </trkpt>
      <trkpt lat="43.43323" lon="3.50451">
        <ele>54.400001525879</ele>
        <time>2023-12-19T15:27:29Z</time>
      </trkpt>
      <trkpt lat="43.43324" lon="3.50448">
        <ele>54.400001525879</ele>
        <time>2023-12-19T15:27:30Z</time>
      </trkpt>
      <trkpt lat="43.43326" lon="3.50446">
        <ele>54.200000762939</ele>
        <time>2023-12-19T15:27:31Z</time>
      </trkpt>
      <trkpt lat="43.43328" lon="3.50445">
        <ele>54.200000762939</ele>
        <time>2023-12-19T15:27:32Z</time>
      </trkpt>
      <trkpt lat="43.43329" lon="3.50444">
        <ele>54.400001525879</ele>
        <time>2023-12-19T15:27:33Z</time>
      </trkpt>
      <trkpt lat="43.4333" lon="3.50443">
        <ele>54.400001525879</ele>
        <time>2023-12-19T15:27:34Z</time>
      </trkpt>
      <trkpt lat="43.4333" lon="3.50443">
        <ele>54.599998474121</ele>
        <time>2023-12-19T15:27:35Z</time>
      </trkpt>
      <trkpt lat="43.4333" lon="3.50443">
        <ele>54.599998474121</ele>
        <time>2023-12-19T15:27:36Z</time>
      </trkpt>
      <trkpt lat="43.43333" lon="3.50441">
        <ele>55.400001525879</ele>
        <time>2023-12-19T15:27:44Z</time>
      </trkpt>
      <trkpt lat="43.43335" lon="3.50439">
        <ele>55.400001525879</ele>
        <time>2023-12-19T15:27:45Z</time>
      </trkpt>
      <trkpt lat="43.43338" lon="3.50438">
        <ele>55.400001525879</ele>
        <time>2023-12-19T15:27:46Z</time>
      </trkpt>
      <trkpt lat="43.43341" lon="3.50439">
        <ele>55.400001525879</ele>
        <time>2023-12-19T15:27:47Z</time>
      </trkpt>
      <trkpt lat="43.43343" lon="3.50439">
        <ele>55.400001525879</ele>
        <time>2023-12-19T15:27:48Z</time>
      </trkpt>
      <trkpt lat="43.43345" lon="3.50441">
        <ele>55.599998474121</ele>
        <time>2023-12-19T15:27:49Z</time>
      </trkpt>
      <trkpt lat="43.43347" lon="3.50443">
        <ele>55.799999237061</ele>
        <time>2023-12-19T15:27:50Z</time>
      </trkpt>
      <trkpt lat="43.43349" lon="3.50444">
        <ele>56</ele>
        <time>2023-12-19T15:27:51Z</time>
      </trkpt>
      <trkpt lat="43.43351" lon="3.50444">
        <ele>56</ele>
        <time>2023-12-19T15:27:52Z</time>
      </trkpt>
      <trkpt lat="43.43353" lon="3.50443">
        <ele>56.200000762939</ele>
        <time>2023-12-19T15:27:53Z</time>
      </trkpt>
      <trkpt lat="43.43355" lon="3.50442">
        <ele>56.400001525879</ele>
        <time>2023-12-19T15:27:54Z</time>
      </trkpt>
      <trkpt lat="43.43356" lon="3.50443">
        <ele>56.799999237061</ele>
        <time>2023-12-19T15:27:55Z</time>
      </trkpt>
      <trkpt lat="43.43357" lon="3.50445">
        <ele>57</ele>
        <time>2023-12-19T15:27:56Z</time>
      </trkpt>
      <trkpt lat="43.43358" lon="3.50447">
        <ele>57.200000762939</ele>
        <time>2023-12-19T15:27:57Z</time>
      </trkpt>
      <trkpt lat="43.4336" lon="3.50449">
        <ele>57.599998474121</ele>
        <time>2023-12-19T15:27:58Z</time>
      </trkpt>
      <trkpt lat="43.43362" lon="3.50451">
        <ele>57.599998474121</ele>
        <time>2023-12-19T15:27:59Z</time>
      </trkpt>
      <trkpt lat="43.43364" lon="3.50452">
        <ele>57.799999237061</ele>
        <time>2023-12-19T15:28:00Z</time>
      </trkpt>
      <trkpt lat="43.43366" lon="3.50451">
        <ele>57.799999237061</ele>
        <time>2023-12-19T15:28:01Z</time>
      </trkpt>
      <trkpt lat="43.43368" lon="3.5045">
        <ele>57.799999237061</ele>
        <time>2023-12-19T15:28:02Z</time>
      </trkpt>
      <trkpt lat="43.43369" lon="3.5045">
        <ele>57.799999237061</ele>
        <time>2023-12-19T15:28:03Z</time>
      </trkpt>
      <trkpt lat="43.43371" lon="3.50449">
        <ele>57.799999237061</ele>
        <time>2023-12-19T15:28:04Z</time>
      </trkpt>
      <trkpt lat="43.43372" lon="3.50448">
        <ele>57.799999237061</ele>
        <time>2023-12-19T15:28:05Z</time>
      </trkpt>
      <trkpt lat="43.43373" lon="3.50447">
        <ele>57.799999237061</ele>
        <time>2023-12-19T15:28:06Z</time>
      </trkpt>
      <trkpt lat="43.43373" lon="3.50447">
        <ele>58</ele>
        <time>2023-12-19T15:28:07Z</time>
      </trkpt>
      <trkpt lat="43.43373" lon="3.50447">
        <ele>58.200000762939</ele>
        <time>2023-12-19T15:28:08Z</time>
      </trkpt>
      <trkpt lat="43.43377" lon="3.50444">
        <ele>58.400001525879</ele>
        <time>2023-12-19T15:28:42Z</time>
      </trkpt>
      <trkpt lat="43.43379" lon="3.50442">
        <ele>58.599998474121</ele>
        <time>2023-12-19T15:28:43Z</time>
      </trkpt>
      <trkpt lat="43.43381" lon="3.5044">
        <ele>58.599998474121</ele>
        <time>2023-12-19T15:28:44Z</time>
      </trkpt>
      <trkpt lat="43.43383" lon="3.50438">
        <ele>58.599998474121</ele>
        <time>2023-12-19T15:28:45Z</time>
      </trkpt>
      <trkpt lat="43.43385" lon="3.50435">
        <ele>58.599998474121</ele>
        <time>2023-12-19T15:28:46Z</time>
      </trkpt>
      <trkpt lat="43.43387" lon="3.50433">
        <ele>58.799999237061</ele>
        <time>2023-12-19T15:28:47Z</time>
      </trkpt>
      <trkpt lat="43.43389" lon="3.5043">
        <ele>58.799999237061</ele>
        <time>2023-12-19T15:28:48Z</time>
      </trkpt>
      <trkpt lat="43.4339" lon="3.50428">
        <ele>59</ele>
        <time>2023-12-19T15:28:49Z</time>
      </trkpt>
      <trkpt lat="43.43391" lon="3.50426">
        <ele>59.200000762939</ele>
        <time>2023-12-19T15:28:50Z</time>
      </trkpt>
      <trkpt lat="43.43392" lon="3.50422">
        <ele>59.599998474121</ele>
        <time>2023-12-19T15:28:51Z</time>
      </trkpt>
      <trkpt lat="43.43393" lon="3.50419">
        <ele>59.799999237061</ele>
        <time>2023-12-19T15:28:52Z</time>
      </trkpt>
      <trkpt lat="43.43394" lon="3.50415">
        <ele>60.200000762939</ele>
        <time>2023-12-19T15:28:53Z</time>
      </trkpt>
      <trkpt lat="43.43394" lon="3.50411">
        <ele>60.400001525879</ele>
        <time>2023-12-19T15:28:54Z</time>
      </trkpt>
      <trkpt lat="43.43394" lon="3.50409">
        <ele>60.599998474121</ele>
        <time>2023-12-19T15:28:55Z</time>
      </trkpt>
      <trkpt lat="43.43393" lon="3.50406">
        <ele>60.799999237061</ele>
        <time>2023-12-19T15:28:56Z</time>
      </trkpt>
      <trkpt lat="43.43391" lon="3.50403">
        <ele>61.200000762939</ele>
        <time>2023-12-19T15:28:57Z</time>
      </trkpt>
      <trkpt lat="43.43389" lon="3.50401">
        <ele>61.599998474121</ele>
        <time>2023-12-19T15:28:58Z</time>
      </trkpt>
      <trkpt lat="43.43387" lon="3.50399">
        <ele>62.400001525879</ele>
        <time>2023-12-19T15:28:59Z</time>
      </trkpt>
      <trkpt lat="43.43386" lon="3.50396">
        <ele>63</ele>
        <time>2023-12-19T15:29:00Z</time>
      </trkpt>
      <trkpt lat="43.43386" lon="3.50392">
        <ele>63.599998474121</ele>
        <time>2023-12-19T15:29:01Z</time>
      </trkpt>
      <trkpt lat="43.43385" lon="3.5039">
        <ele>64</ele>
        <time>2023-12-19T15:29:02Z</time>
      </trkpt>
      <trkpt lat="43.43385" lon="3.50387">
        <ele>64.400001525879</ele>
        <time>2023-12-19T15:29:03Z</time>
      </trkpt>
      <trkpt lat="43.43385" lon="3.50384">
        <ele>64.599998474121</ele>
        <time>2023-12-19T15:29:04Z</time>
      </trkpt>
      <trkpt lat="43.43385" lon="3.50381">
        <ele>64.800003051758</ele>
        <time>2023-12-19T15:29:05Z</time>
      </trkpt>
      <trkpt lat="43.43385" lon="3.50379">
        <ele>65</ele>
        <time>2023-12-19T15:29:06Z</time>
      </trkpt>
      <trkpt lat="43.43385" lon="3.50376">
        <ele>65.199996948242</ele>
        <time>2023-12-19T15:29:07Z</time>
      </trkpt>
      <trkpt lat="43.43386" lon="3.50373">
        <ele>65.199996948242</ele>
        <time>2023-12-19T15:29:08Z</time>
      </trkpt>
      <trkpt lat="43.43388" lon="3.5037">
        <ele>65.199996948242</ele>
        <time>2023-12-19T15:29:09Z</time>
      </trkpt>
      <trkpt lat="43.43391" lon="3.50366">
        <ele>65.199996948242</ele>
        <time>2023-12-19T15:29:10Z</time>
      </trkpt>
      <trkpt lat="43.43394" lon="3.50362">
        <ele>65.400001525879</ele>
        <time>2023-12-19T15:29:11Z</time>
      </trkpt>
      <trkpt lat="43.43397" lon="3.50359">
        <ele>65.400001525879</ele>
        <time>2023-12-19T15:29:12Z</time>
      </trkpt>
      <trkpt lat="43.434" lon="3.50356">
        <ele>65.400001525879</ele>
        <time>2023-12-19T15:29:13Z</time>
      </trkpt>
      <trkpt lat="43.43403" lon="3.50353">
        <ele>65.400001525879</ele>
        <time>2023-12-19T15:29:14Z</time>
      </trkpt>
      <trkpt lat="43.43406" lon="3.50349">
        <ele>65.400001525879</ele>
        <time>2023-12-19T15:29:15Z</time>
      </trkpt>
      <trkpt lat="43.43409" lon="3.50345">
        <ele>65.400001525879</ele>
        <time>2023-12-19T15:29:16Z</time>
      </trkpt>
      <trkpt lat="43.43411" lon="3.50342">
        <ele>65.199996948242</ele>
        <time>2023-12-19T15:29:17Z</time>
      </trkpt>
      <trkpt lat="43.43414" lon="3.50339">
        <ele>65</ele>
        <time>2023-12-19T15:29:18Z</time>
      </trkpt>
      <trkpt lat="43.43418" lon="3.50336">
        <ele>64.800003051758</ele>
        <time>2023-12-19T15:29:19Z</time>
      </trkpt>
      <trkpt lat="43.43422" lon="3.50335">
        <ele>64.599998474121</ele>
        <time>2023-12-19T15:29:20Z</time>
      </trkpt>
      <trkpt lat="43.43426" lon="3.50335">
        <ele>64.599998474121</ele>
        <time>2023-12-19T15:29:21Z</time>
      </trkpt>
      <trkpt lat="43.43431" lon="3.50334">
        <ele>64.599998474121</ele>
        <time>2023-12-19T15:29:22Z</time>
      </trkpt>
      <trkpt lat="43.43435" lon="3.50332">
        <ele>64.599998474121</ele>
        <time>2023-12-19T15:29:23Z</time>
      </trkpt>
      <trkpt lat="43.43439" lon="3.50331">
        <ele>64.599998474121</ele>
        <time>2023-12-19T15:29:24Z</time>
      </trkpt>
      <trkpt lat="43.43444" lon="3.50327">
        <ele>64.599998474121</ele>
        <time>2023-12-19T15:29:25Z</time>
      </trkpt>
      <trkpt lat="43.43448" lon="3.50323">
        <ele>64.599998474121</ele>
        <time>2023-12-19T15:29:26Z</time>
      </trkpt>
      <trkpt lat="43.43452" lon="3.50319">
        <ele>64.599998474121</ele>
        <time>2023-12-19T15:29:27Z</time>
      </trkpt>
      <trkpt lat="43.43456" lon="3.50315">
        <ele>64.599998474121</ele>
        <time>2023-12-19T15:29:28Z</time>
      </trkpt>
      <trkpt lat="43.4346" lon="3.50312">
        <ele>64.599998474121</ele>
        <time>2023-12-19T15:29:29Z</time>
      </trkpt>
      <trkpt lat="43.43464" lon="3.50309">
        <ele>64.599998474121</ele>
        <time>2023-12-19T15:29:30Z</time>
      </trkpt>
      <trkpt lat="43.43468" lon="3.50306">
        <ele>64.800003051758</ele>
        <time>2023-12-19T15:29:31Z</time>
      </trkpt>
      <trkpt lat="43.43471" lon="3.50303">
        <ele>64.800003051758</ele>
        <time>2023-12-19T15:29:32Z</time>
      </trkpt>
      <trkpt lat="43.43473" lon="3.50301">
        <ele>65</ele>
        <time>2023-12-19T15:29:33Z</time>
      </trkpt>
      <trkpt lat="43.43474" lon="3.503">
        <ele>65</ele>
        <time>2023-12-19T15:29:34Z</time>
      </trkpt>
      <trkpt lat="43.43474" lon="3.503">
        <ele>65.199996948242</ele>
        <time>2023-12-19T15:29:35Z</time>
      </trkpt>
      <trkpt lat="43.43474" lon="3.503">
        <ele>65.400001525879</ele>
        <time>2023-12-19T15:29:36Z</time>
      </trkpt>
      <trkpt lat="43.43467" lon="3.50306">
        <ele>65.800003051758</ele>
        <time>2023-12-19T15:29:54Z</time>
      </trkpt>
      <trkpt lat="43.43465" lon="3.50308">
        <ele>65.800003051758</ele>
        <time>2023-12-19T15:29:55Z</time>
      </trkpt>
      <trkpt lat="43.43464" lon="3.50311">
        <ele>65.800003051758</ele>
        <time>2023-12-19T15:29:56Z</time>
      </trkpt>
      <trkpt lat="43.43463" lon="3.50312">
        <ele>65.800003051758</ele>
        <time>2023-12-19T15:29:57Z</time>
      </trkpt>
      <trkpt lat="43.43461" lon="3.50312">
        <ele>65.599998474121</ele>
        <time>2023-12-19T15:29:58Z</time>
      </trkpt>
      <trkpt lat="43.4346" lon="3.50311">
        <ele>65.599998474121</ele>
        <time>2023-12-19T15:29:59Z</time>
      </trkpt>
      <trkpt lat="43.43459" lon="3.50309">
        <ele>65.400001525879</ele>
        <time>2023-12-19T15:30:00Z</time>
      </trkpt>
      <trkpt lat="43.43458" lon="3.50307">
        <ele>65.199996948242</ele>
        <time>2023-12-19T15:30:01Z</time>
      </trkpt>
      <trkpt lat="43.43458" lon="3.50305">
        <ele>65.199996948242</ele>
        <time>2023-12-19T15:30:02Z</time>
      </trkpt>
      <trkpt lat="43.43458" lon="3.50302">
        <ele>65.199996948242</ele>
        <time>2023-12-19T15:30:03Z</time>
      </trkpt>
      <trkpt lat="43.43459" lon="3.50298">
        <ele>65.199996948242</ele>
        <time>2023-12-19T15:30:04Z</time>
      </trkpt>
      <trkpt lat="43.4346" lon="3.50293">
        <ele>65</ele>
        <time>2023-12-19T15:30:05Z</time>
      </trkpt>
      <trkpt lat="43.4346" lon="3.5029">
        <ele>65</ele>
        <time>2023-12-19T15:30:06Z</time>
      </trkpt>
      <trkpt lat="43.43461" lon="3.50286">
        <ele>65</ele>
        <time>2023-12-19T15:30:07Z</time>
      </trkpt>
      <trkpt lat="43.43462" lon="3.50284">
        <ele>65.199996948242</ele>
        <time>2023-12-19T15:30:08Z</time>
      </trkpt>
      <trkpt lat="43.43463" lon="3.50282">
        <ele>65.199996948242</ele>
        <time>2023-12-19T15:30:09Z</time>
      </trkpt>
      <trkpt lat="43.43464" lon="3.5028">
        <ele>65.199996948242</ele>
        <time>2023-12-19T15:30:10Z</time>
      </trkpt>
      <trkpt lat="43.43464" lon="3.50279">
        <ele>65.199996948242</ele>
        <time>2023-12-19T15:30:11Z</time>
      </trkpt>
      <trkpt lat="43.43464" lon="3.50276">
        <ele>65.199996948242</ele>
        <time>2023-12-19T15:30:12Z</time>
      </trkpt>
      <trkpt lat="43.43465" lon="3.50273">
        <ele>65.400001525879</ele>
        <time>2023-12-19T15:30:13Z</time>
      </trkpt>
      <trkpt lat="43.43466" lon="3.50271">
        <ele>65.400001525879</ele>
        <time>2023-12-19T15:30:14Z</time>
      </trkpt>
      <trkpt lat="43.43467" lon="3.50269">
        <ele>65.400001525879</ele>
        <time>2023-12-19T15:30:15Z</time>
      </trkpt>
      <trkpt lat="43.43467" lon="3.50267">
        <ele>65.400001525879</ele>
        <time>2023-12-19T15:30:16Z</time>
      </trkpt>
      <trkpt lat="43.43467" lon="3.50265">
        <ele>65.199996948242</ele>
        <time>2023-12-19T15:30:17Z</time>
      </trkpt>
      <trkpt lat="43.43467" lon="3.50265">
        <ele>65</ele>
        <time>2023-12-19T15:30:18Z</time>
      </trkpt>
      <trkpt lat="43.43467" lon="3.50265">
        <ele>65</ele>
        <time>2023-12-19T15:30:19Z</time>
      </trkpt>
      <trkpt lat="43.43472" lon="3.50268">
        <ele>65.199996948242</ele>
        <time>2023-12-19T15:30:31Z</time>
      </trkpt>
      <trkpt lat="43.43474" lon="3.50269">
        <ele>65.199996948242</ele>
        <time>2023-12-19T15:30:32Z</time>
      </trkpt>
      <trkpt lat="43.43477" lon="3.5027">
        <ele>65.199996948242</ele>
        <time>2023-12-19T15:30:33Z</time>
      </trkpt>
      <trkpt lat="43.4348" lon="3.50269">
        <ele>65.400001525879</ele>
        <time>2023-12-19T15:30:34Z</time>
      </trkpt>
      <trkpt lat="43.43483" lon="3.50268">
        <ele>65.400001525879</ele>
        <time>2023-12-19T15:30:35Z</time>
      </trkpt>
      <trkpt lat="43.43486" lon="3.50267">
        <ele>65.800003051758</ele>
        <time>2023-12-19T15:30:36Z</time>
      </trkpt>
      <trkpt lat="43.43488" lon="3.50264">
        <ele>66.199996948242</ele>
        <time>2023-12-19T15:30:37Z</time>
      </trkpt>
      <trkpt lat="43.43491" lon="3.50261">
        <ele>66.599998474121</ele>
        <time>2023-12-19T15:30:38Z</time>
      </trkpt>
      <trkpt lat="43.43493" lon="3.50258">
        <ele>66.800003051758</ele>
        <time>2023-12-19T15:30:39Z</time>
      </trkpt>
      <trkpt lat="43.43496" lon="3.50254">
        <ele>67.199996948242</ele>
        <time>2023-12-19T15:30:40Z</time>
      </trkpt>
      <trkpt lat="43.43498" lon="3.50249">
        <ele>67.599998474121</ele>
        <time>2023-12-19T15:30:41Z</time>
      </trkpt>
      <trkpt lat="43.43501" lon="3.50245">
        <ele>68</ele>
        <time>2023-12-19T15:30:42Z</time>
      </trkpt>
      <trkpt lat="43.43503" lon="3.50242">
        <ele>68.400001525879</ele>
        <time>2023-12-19T15:30:43Z</time>
      </trkpt>
      <trkpt lat="43.43507" lon="3.50241">
        <ele>68.599998474121</ele>
        <time>2023-12-19T15:30:44Z</time>
      </trkpt>
      <trkpt lat="43.43509" lon="3.5024">
        <ele>68.800003051758</ele>
        <time>2023-12-19T15:30:45Z</time>
      </trkpt>
      <trkpt lat="43.43512" lon="3.50237">
        <ele>69</ele>
        <time>2023-12-19T15:30:46Z</time>
      </trkpt>
      <trkpt lat="43.43515" lon="3.50234">
        <ele>69.400001525879</ele>
        <time>2023-12-19T15:30:47Z</time>
      </trkpt>
      <trkpt lat="43.43517" lon="3.50231">
        <ele>69.599998474121</ele>
        <time>2023-12-19T15:30:48Z</time>
      </trkpt>
      <trkpt lat="43.4352" lon="3.50229">
        <ele>69.800003051758</ele>
        <time>2023-12-19T15:30:49Z</time>
      </trkpt>
      <trkpt lat="43.43522" lon="3.50226">
        <ele>70</ele>
        <time>2023-12-19T15:30:50Z</time>
      </trkpt>
      <trkpt lat="43.43524" lon="3.50225">
        <ele>70.199996948242</ele>
        <time>2023-12-19T15:30:51Z</time>
      </trkpt>
      <trkpt lat="43.43526" lon="3.50224">
        <ele>70.400001525879</ele>
        <time>2023-12-19T15:30:52Z</time>
      </trkpt>
      <trkpt lat="43.43528" lon="3.50223">
        <ele>70.800003051758</ele>
        <time>2023-12-19T15:30:53Z</time>
      </trkpt>
      <trkpt lat="43.43531" lon="3.50221">
        <ele>71</ele>
        <time>2023-12-19T15:30:54Z</time>
      </trkpt>
      <trkpt lat="43.43533" lon="3.50218">
        <ele>71.199996948242</ele>
        <time>2023-12-19T15:30:55Z</time>
      </trkpt>
      <trkpt lat="43.43535" lon="3.50215">
        <ele>71.199996948242</ele>
        <time>2023-12-19T15:30:56Z</time>
      </trkpt>
      <trkpt lat="43.43537" lon="3.50212">
        <ele>71.599998474121</ele>
        <time>2023-12-19T15:30:57Z</time>
      </trkpt>
      <trkpt lat="43.4354" lon="3.50209">
        <ele>72</ele>
        <time>2023-12-19T15:30:58Z</time>
      </trkpt>
      <trkpt lat="43.43542" lon="3.50206">
        <ele>72.199996948242</ele>
        <time>2023-12-19T15:30:59Z</time>
      </trkpt>
      <trkpt lat="43.43543" lon="3.50203">
        <ele>72.400001525879</ele>
        <time>2023-12-19T15:31:00Z</time>
      </trkpt>
      <trkpt lat="43.43545" lon="3.502">
        <ele>72.400001525879</ele>
        <time>2023-12-19T15:31:01Z</time>
      </trkpt>
      <trkpt lat="43.43546" lon="3.50197">
        <ele>72.599998474121</ele>
        <time>2023-12-19T15:31:02Z</time>
      </trkpt>
      <trkpt lat="43.43547" lon="3.50194">
        <ele>72.800003051758</ele>
        <time>2023-12-19T15:31:03Z</time>
      </trkpt>
      <trkpt lat="43.43549" lon="3.50191">
        <ele>73</ele>
        <time>2023-12-19T15:31:04Z</time>
      </trkpt>
      <trkpt lat="43.43551" lon="3.50186">
        <ele>73.199996948242</ele>
        <time>2023-12-19T15:31:05Z</time>
      </trkpt>
      <trkpt lat="43.43554" lon="3.50181">
        <ele>73.199996948242</ele>
        <time>2023-12-19T15:31:06Z</time>
      </trkpt>
      <trkpt lat="43.43557" lon="3.50175">
        <ele>73.400001525879</ele>
        <time>2023-12-19T15:31:07Z</time>
      </trkpt>
      <trkpt lat="43.4356" lon="3.5017">
        <ele>73.599998474121</ele>
        <time>2023-12-19T15:31:08Z</time>
      </trkpt>
      <trkpt lat="43.43563" lon="3.50165">
        <ele>73.599998474121</ele>
        <time>2023-12-19T15:31:09Z</time>
      </trkpt>
      <trkpt lat="43.43566" lon="3.50159">
        <ele>73.599998474121</ele>
        <time>2023-12-19T15:31:10Z</time>
      </trkpt>
      <trkpt lat="43.43568" lon="3.50152">
        <ele>73.599998474121</ele>
        <time>2023-12-19T15:31:11Z</time>
      </trkpt>
      <trkpt lat="43.43569" lon="3.50146">
        <ele>73.599998474121</ele>
        <time>2023-12-19T15:31:12Z</time>
      </trkpt>
      <trkpt lat="43.4357" lon="3.50139">
        <ele>73.599998474121</ele>
        <time>2023-12-19T15:31:13Z</time>
      </trkpt>
      <trkpt lat="43.43571" lon="3.50131">
        <ele>73.599998474121</ele>
        <time>2023-12-19T15:31:14Z</time>
      </trkpt>
      <trkpt lat="43.4357" lon="3.50123">
        <ele>73.599998474121</ele>
        <time>2023-12-19T15:31:15Z</time>
      </trkpt>
      <trkpt lat="43.43569" lon="3.50114">
        <ele>73.199996948242</ele>
        <time>2023-12-19T15:31:16Z</time>
      </trkpt>
      <trkpt lat="43.43569" lon="3.50105">
        <ele>72.599998474121</ele>
        <time>2023-12-19T15:31:17Z</time>
      </trkpt>
      <trkpt lat="43.43568" lon="3.50095">
        <ele>71.800003051758</ele>
        <time>2023-12-19T15:31:18Z</time>
      </trkpt>
      <trkpt lat="43.43569" lon="3.50085">
        <ele>71.199996948242</ele>
        <time>2023-12-19T15:31:19Z</time>
      </trkpt>
      <trkpt lat="43.43569" lon="3.50075">
        <ele>70.599998474121</ele>
        <time>2023-12-19T15:31:20Z</time>
      </trkpt>
      <trkpt lat="43.4357" lon="3.50063">
        <ele>69.599998474121</ele>
        <time>2023-12-19T15:31:21Z</time>
      </trkpt>
      <trkpt lat="43.43569" lon="3.50053">
        <ele>68.800003051758</ele>
        <time>2023-12-19T15:31:22Z</time>
      </trkpt>
      <trkpt lat="43.4357" lon="3.50043">
        <ele>67.800003051758</ele>
        <time>2023-12-19T15:31:23Z</time>
      </trkpt>
      <trkpt lat="43.43571" lon="3.50033">
        <ele>67.199996948242</ele>
        <time>2023-12-19T15:31:24Z</time>
      </trkpt>
      <trkpt lat="43.43572" lon="3.50023">
        <ele>66.599998474121</ele>
        <time>2023-12-19T15:31:25Z</time>
      </trkpt>
      <trkpt lat="43.43574" lon="3.50014">
        <ele>66.400001525879</ele>
        <time>2023-12-19T15:31:26Z</time>
      </trkpt>
      <trkpt lat="43.43575" lon="3.50003">
        <ele>66</ele>
        <time>2023-12-19T15:31:27Z</time>
      </trkpt>
      <trkpt lat="43.43578" lon="3.49993">
        <ele>65.599998474121</ele>
        <time>2023-12-19T15:31:28Z</time>
      </trkpt>
      <trkpt lat="43.43582" lon="3.49985">
        <ele>65</ele>
        <time>2023-12-19T15:31:29Z</time>
      </trkpt>
      <trkpt lat="43.43583" lon="3.49977">
        <ele>64.400001525879</ele>
        <time>2023-12-19T15:31:30Z</time>
      </trkpt>
      <trkpt lat="43.43584" lon="3.49972">
        <ele>63.599998474121</ele>
        <time>2023-12-19T15:31:31Z</time>
      </trkpt>
      <trkpt lat="43.43585" lon="3.49967">
        <ele>63.400001525879</ele>
        <time>2023-12-19T15:31:32Z</time>
      </trkpt>
      <trkpt lat="43.43588" lon="3.49962">
        <ele>63.400001525879</ele>
        <time>2023-12-19T15:31:33Z</time>
      </trkpt>
      <trkpt lat="43.43592" lon="3.49957">
        <ele>63.400001525879</ele>
        <time>2023-12-19T15:31:34Z</time>
      </trkpt>
      <trkpt lat="43.43595" lon="3.49954">
        <ele>63.400001525879</ele>
        <time>2023-12-19T15:31:35Z</time>
      </trkpt>
      <trkpt lat="43.43598" lon="3.49951">
        <ele>63.200000762939</ele>
        <time>2023-12-19T15:31:36Z</time>
      </trkpt>
      <trkpt lat="43.43601" lon="3.49946">
        <ele>62.799999237061</ele>
        <time>2023-12-19T15:31:37Z</time>
      </trkpt>
      <trkpt lat="43.43604" lon="3.4994">
        <ele>62.799999237061</ele>
        <time>2023-12-19T15:31:38Z</time>
      </trkpt>
      <trkpt lat="43.43607" lon="3.49934">
        <ele>62.599998474121</ele>
        <time>2023-12-19T15:31:39Z</time>
      </trkpt>
      <trkpt lat="43.43611" lon="3.49928">
        <ele>62.599998474121</ele>
        <time>2023-12-19T15:31:40Z</time>
      </trkpt>
      <trkpt lat="43.43616" lon="3.49924">
        <ele>62.599998474121</ele>
        <time>2023-12-19T15:31:41Z</time>
      </trkpt>
      <trkpt lat="43.4362" lon="3.4992">
        <ele>62.400001525879</ele>
        <time>2023-12-19T15:31:42Z</time>
      </trkpt>
      <trkpt lat="43.43622" lon="3.49914">
        <ele>62.200000762939</ele>
        <time>2023-12-19T15:31:43Z</time>
      </trkpt>
      <trkpt lat="43.43626" lon="3.49909">
        <ele>62</ele>
        <time>2023-12-19T15:31:44Z</time>
      </trkpt>
      <trkpt lat="43.4363" lon="3.49906">
        <ele>62</ele>
        <time>2023-12-19T15:31:45Z</time>
      </trkpt>
      <trkpt lat="43.43634" lon="3.49907">
        <ele>61.799999237061</ele>
        <time>2023-12-19T15:31:46Z</time>
      </trkpt>
      <trkpt lat="43.4364" lon="3.49908">
        <ele>61.599998474121</ele>
        <time>2023-12-19T15:31:47Z</time>
      </trkpt>
      <trkpt lat="43.43646" lon="3.49909">
        <ele>61.599998474121</ele>
        <time>2023-12-19T15:31:48Z</time>
      </trkpt>
      <trkpt lat="43.43652" lon="3.49908">
        <ele>61.599998474121</ele>
        <time>2023-12-19T15:31:49Z</time>
      </trkpt>
      <trkpt lat="43.43658" lon="3.49908">
        <ele>61.400001525879</ele>
        <time>2023-12-19T15:31:50Z</time>
      </trkpt>
      <trkpt lat="43.43662" lon="3.49908">
        <ele>61</ele>
        <time>2023-12-19T15:31:51Z</time>
      </trkpt>
      <trkpt lat="43.43665" lon="3.4991">
        <ele>60.799999237061</ele>
        <time>2023-12-19T15:31:52Z</time>
      </trkpt>
      <trkpt lat="43.43667" lon="3.49909">
        <ele>60.599998474121</ele>
        <time>2023-12-19T15:31:53Z</time>
      </trkpt>
      <trkpt lat="43.43668" lon="3.49908">
        <ele>60</ele>
        <time>2023-12-19T15:31:54Z</time>
      </trkpt>
      <trkpt lat="43.43668" lon="3.49906">
        <ele>59.599998474121</ele>
        <time>2023-12-19T15:31:55Z</time>
      </trkpt>
      <trkpt lat="43.43668" lon="3.49904">
        <ele>59.400001525879</ele>
        <time>2023-12-19T15:31:56Z</time>
      </trkpt>
      <trkpt lat="43.43668" lon="3.499">
        <ele>59</ele>
        <time>2023-12-19T15:31:57Z</time>
      </trkpt>
      <trkpt lat="43.43667" lon="3.49896">
        <ele>59</ele>
        <time>2023-12-19T15:31:58Z</time>
      </trkpt>
      <trkpt lat="43.43667" lon="3.49893">
        <ele>58.799999237061</ele>
        <time>2023-12-19T15:31:59Z</time>
      </trkpt>
      <trkpt lat="43.43667" lon="3.49889">
        <ele>58.599998474121</ele>
        <time>2023-12-19T15:32:00Z</time>
      </trkpt>
      <trkpt lat="43.43667" lon="3.49885">
        <ele>58</ele>
        <time>2023-12-19T15:32:01Z</time>
      </trkpt>
      <trkpt lat="43.43667" lon="3.49881">
        <ele>58</ele>
        <time>2023-12-19T15:32:02Z</time>
      </trkpt>
      <trkpt lat="43.43667" lon="3.49877">
        <ele>58</ele>
        <time>2023-12-19T15:32:03Z</time>
      </trkpt>
      <trkpt lat="43.43667" lon="3.49873">
        <ele>57.400001525879</ele>
        <time>2023-12-19T15:32:04Z</time>
      </trkpt>
      <trkpt lat="43.43668" lon="3.4987">
        <ele>57.200000762939</ele>
        <time>2023-12-19T15:32:05Z</time>
      </trkpt>
      <trkpt lat="43.43668" lon="3.49866">
        <ele>57</ele>
        <time>2023-12-19T15:32:06Z</time>
      </trkpt>
      <trkpt lat="43.43667" lon="3.49861">
        <ele>56.599998474121</ele>
        <time>2023-12-19T15:32:07Z</time>
      </trkpt>
      <trkpt lat="43.43667" lon="3.49858">
        <ele>56.400001525879</ele>
        <time>2023-12-19T15:32:08Z</time>
      </trkpt>
      <trkpt lat="43.43668" lon="3.49855">
        <ele>56.200000762939</ele>
        <time>2023-12-19T15:32:09Z</time>
      </trkpt>
      <trkpt lat="43.43668" lon="3.49852">
        <ele>55.799999237061</ele>
        <time>2023-12-19T15:32:10Z</time>
      </trkpt>
      <trkpt lat="43.43669" lon="3.49851">
        <ele>55.599998474121</ele>
        <time>2023-12-19T15:32:11Z</time>
      </trkpt>
      <trkpt lat="43.43668" lon="3.49849">
        <ele>55.400001525879</ele>
        <time>2023-12-19T15:32:12Z</time>
      </trkpt>
      <trkpt lat="43.43668" lon="3.49846">
        <ele>55.400001525879</ele>
        <time>2023-12-19T15:32:13Z</time>
      </trkpt>
      <trkpt lat="43.43667" lon="3.49843">
        <ele>55.200000762939</ele>
        <time>2023-12-19T15:32:14Z</time>
      </trkpt>
      <trkpt lat="43.43666" lon="3.4984">
        <ele>55.200000762939</ele>
        <time>2023-12-19T15:32:15Z</time>
      </trkpt>
      <trkpt lat="43.43665" lon="3.49837">
        <ele>55.200000762939</ele>
        <time>2023-12-19T15:32:16Z</time>
      </trkpt>
      <trkpt lat="43.43665" lon="3.49834">
        <ele>55</ele>
        <time>2023-12-19T15:32:17Z</time>
      </trkpt>
      <trkpt lat="43.43666" lon="3.49832">
        <ele>54.799999237061</ele>
        <time>2023-12-19T15:32:18Z</time>
      </trkpt>
      <trkpt lat="43.43668" lon="3.4983">
        <ele>54.599998474121</ele>
        <time>2023-12-19T15:32:19Z</time>
      </trkpt>
      <trkpt lat="43.4367" lon="3.49829">
        <ele>54.400001525879</ele>
        <time>2023-12-19T15:32:20Z</time>
      </trkpt>
      <trkpt lat="43.43672" lon="3.49826">
        <ele>54.200000762939</ele>
        <time>2023-12-19T15:32:21Z</time>
      </trkpt>
      <trkpt lat="43.43675" lon="3.49824">
        <ele>54</ele>
        <time>2023-12-19T15:32:22Z</time>
      </trkpt>
      <trkpt lat="43.43678" lon="3.49821">
        <ele>53.799999237061</ele>
        <time>2023-12-19T15:32:23Z</time>
      </trkpt>
      <trkpt lat="43.43681" lon="3.49819">
        <ele>53.400001525879</ele>
        <time>2023-12-19T15:32:24Z</time>
      </trkpt>
      <trkpt lat="43.43684" lon="3.49818">
        <ele>53.200000762939</ele>
        <time>2023-12-19T15:32:25Z</time>
      </trkpt>
      <trkpt lat="43.43688" lon="3.49817">
        <ele>53</ele>
        <time>2023-12-19T15:32:26Z</time>
      </trkpt>
      <trkpt lat="43.43693" lon="3.49815">
        <ele>53</ele>
        <time>2023-12-19T15:32:27Z</time>
      </trkpt>
      <trkpt lat="43.43697" lon="3.49813">
        <ele>53</ele>
        <time>2023-12-19T15:32:28Z</time>
      </trkpt>
      <trkpt lat="43.43702" lon="3.49809">
        <ele>53</ele>
        <time>2023-12-19T15:32:29Z</time>
      </trkpt>
      <trkpt lat="43.43707" lon="3.49807">
        <ele>53</ele>
        <time>2023-12-19T15:32:30Z</time>
      </trkpt>
      <trkpt lat="43.43713" lon="3.49807">
        <ele>52.799999237061</ele>
        <time>2023-12-19T15:32:31Z</time>
      </trkpt>
      <trkpt lat="43.43718" lon="3.49808">
        <ele>53</ele>
        <time>2023-12-19T15:32:32Z</time>
      </trkpt>
      <trkpt lat="43.43724" lon="3.49808">
        <ele>53</ele>
        <time>2023-12-19T15:32:33Z</time>
      </trkpt>
      <trkpt lat="43.4373" lon="3.49808">
        <ele>53</ele>
        <time>2023-12-19T15:32:34Z</time>
      </trkpt>
      <trkpt lat="43.43736" lon="3.49807">
        <ele>53</ele>
        <time>2023-12-19T15:32:35Z</time>
      </trkpt>
      <trkpt lat="43.43741" lon="3.49806">
        <ele>52.799999237061</ele>
        <time>2023-12-19T15:32:36Z</time>
      </trkpt>
      <trkpt lat="43.43746" lon="3.49804">
        <ele>52.799999237061</ele>
        <time>2023-12-19T15:32:37Z</time>
      </trkpt>
      <trkpt lat="43.43752" lon="3.49801">
        <ele>52.799999237061</ele>
        <time>2023-12-19T15:32:38Z</time>
      </trkpt>
      <trkpt lat="43.43757" lon="3.49798">
        <ele>52.799999237061</ele>
        <time>2023-12-19T15:32:39Z</time>
      </trkpt>
      <trkpt lat="43.43761" lon="3.49796">
        <ele>52.799999237061</ele>
        <time>2023-12-19T15:32:40Z</time>
      </trkpt>
      <trkpt lat="43.43766" lon="3.49794">
        <ele>52.799999237061</ele>
        <time>2023-12-19T15:32:41Z</time>
      </trkpt>
      <trkpt lat="43.43771" lon="3.49791">
        <ele>52.799999237061</ele>
        <time>2023-12-19T15:32:42Z</time>
      </trkpt>
      <trkpt lat="43.43776" lon="3.49787">
        <ele>52.799999237061</ele>
        <time>2023-12-19T15:32:43Z</time>
      </trkpt>
      <trkpt lat="43.4378" lon="3.49783">
        <ele>53</ele>
        <time>2023-12-19T15:32:44Z</time>
      </trkpt>
      <trkpt lat="43.43784" lon="3.49778">
        <ele>53.400001525879</ele>
        <time>2023-12-19T15:32:45Z</time>
      </trkpt>
      <trkpt lat="43.43788" lon="3.49772">
        <ele>53.799999237061</ele>
        <time>2023-12-19T15:32:46Z</time>
      </trkpt>
      <trkpt lat="43.43792" lon="3.49766">
        <ele>54.200000762939</ele>
        <time>2023-12-19T15:32:47Z</time>
      </trkpt>
      <trkpt lat="43.43796" lon="3.49762">
        <ele>54.400001525879</ele>
        <time>2023-12-19T15:32:48Z</time>
      </trkpt>
      <trkpt lat="43.438" lon="3.49757">
        <ele>54.400001525879</ele>
        <time>2023-12-19T15:32:49Z</time>
      </trkpt>
      <trkpt lat="43.43804" lon="3.49754">
        <ele>54.599998474121</ele>
        <time>2023-12-19T15:32:50Z</time>
      </trkpt>
      <trkpt lat="43.43809" lon="3.49751">
        <ele>54.599998474121</ele>
        <time>2023-12-19T15:32:51Z</time>
      </trkpt>
      <trkpt lat="43.43813" lon="3.49747">
        <ele>54.599998474121</ele>
        <time>2023-12-19T15:32:52Z</time>
      </trkpt>
      <trkpt lat="43.43816" lon="3.49742">
        <ele>54.599998474121</ele>
        <time>2023-12-19T15:32:53Z</time>
      </trkpt>
      <trkpt lat="43.4382" lon="3.49738">
        <ele>54.599998474121</ele>
        <time>2023-12-19T15:32:54Z</time>
      </trkpt>
      <trkpt lat="43.43823" lon="3.49735">
        <ele>54.599998474121</ele>
        <time>2023-12-19T15:32:55Z</time>
      </trkpt>
      <trkpt lat="43.43826" lon="3.49735">
        <ele>54.400001525879</ele>
        <time>2023-12-19T15:32:56Z</time>
      </trkpt>
      <trkpt lat="43.43829" lon="3.49736">
        <ele>54.200000762939</ele>
        <time>2023-12-19T15:32:57Z</time>
      </trkpt>
      <trkpt lat="43.43831" lon="3.49736">
        <ele>53.799999237061</ele>
        <time>2023-12-19T15:32:58Z</time>
      </trkpt>
      <trkpt lat="43.43834" lon="3.49735">
        <ele>53.599998474121</ele>
        <time>2023-12-19T15:32:59Z</time>
      </trkpt>
      <trkpt lat="43.43835" lon="3.49733">
        <ele>53.599998474121</ele>
        <time>2023-12-19T15:33:00Z</time>
      </trkpt>
      <trkpt lat="43.43837" lon="3.4973">
        <ele>53.599998474121</ele>
        <time>2023-12-19T15:33:01Z</time>
      </trkpt>
      <trkpt lat="43.43838" lon="3.49727">
        <ele>53.599998474121</ele>
        <time>2023-12-19T15:33:02Z</time>
      </trkpt>
      <trkpt lat="43.43839" lon="3.49724">
        <ele>53.400001525879</ele>
        <time>2023-12-19T15:33:03Z</time>
      </trkpt>
      <trkpt lat="43.4384" lon="3.49719">
        <ele>53.400001525879</ele>
        <time>2023-12-19T15:33:04Z</time>
      </trkpt>
      <trkpt lat="43.43842" lon="3.49715">
        <ele>53.200000762939</ele>
        <time>2023-12-19T15:33:05Z</time>
      </trkpt>
      <trkpt lat="43.43846" lon="3.4971">
        <ele>53.200000762939</ele>
        <time>2023-12-19T15:33:06Z</time>
      </trkpt>
      <trkpt lat="43.43849" lon="3.49705">
        <ele>53.200000762939</ele>
        <time>2023-12-19T15:33:07Z</time>
      </trkpt>
      <trkpt lat="43.43851" lon="3.497">
        <ele>53.200000762939</ele>
        <time>2023-12-19T15:33:08Z</time>
      </trkpt>
      <trkpt lat="43.43854" lon="3.49695">
        <ele>53.200000762939</ele>
        <time>2023-12-19T15:33:09Z</time>
      </trkpt>
      <trkpt lat="43.43855" lon="3.4969">
        <ele>53.200000762939</ele>
        <time>2023-12-19T15:33:10Z</time>
      </trkpt>
      <trkpt lat="43.43857" lon="3.49685">
        <ele>53.400001525879</ele>
        <time>2023-12-19T15:33:11Z</time>
      </trkpt>
      <trkpt lat="43.43859" lon="3.4968">
        <ele>53.799999237061</ele>
        <time>2023-12-19T15:33:12Z</time>
      </trkpt>
      <trkpt lat="43.4386" lon="3.49674">
        <ele>54</ele>
        <time>2023-12-19T15:33:13Z</time>
      </trkpt>
      <trkpt lat="43.43861" lon="3.49668">
        <ele>54.200000762939</ele>
        <time>2023-12-19T15:33:14Z</time>
      </trkpt>
      <trkpt lat="43.43862" lon="3.49661">
        <ele>54.400001525879</ele>
        <time>2023-12-19T15:33:15Z</time>
      </trkpt>
      <trkpt lat="43.43863" lon="3.49655">
        <ele>54.599998474121</ele>
        <time>2023-12-19T15:33:16Z</time>
      </trkpt>
      <trkpt lat="43.43864" lon="3.49649">
        <ele>54.799999237061</ele>
        <time>2023-12-19T15:33:17Z</time>
      </trkpt>
      <trkpt lat="43.43865" lon="3.49643">
        <ele>55</ele>
        <time>2023-12-19T15:33:18Z</time>
      </trkpt>
      <trkpt lat="43.43866" lon="3.49637">
        <ele>55</ele>
        <time>2023-12-19T15:33:19Z</time>
      </trkpt>
      <trkpt lat="43.43867" lon="3.49631">
        <ele>55</ele>
        <time>2023-12-19T15:33:20Z</time>
      </trkpt>
      <trkpt lat="43.43868" lon="3.49625">
        <ele>55</ele>
        <time>2023-12-19T15:33:21Z</time>
      </trkpt>
      <trkpt lat="43.43869" lon="3.49619">
        <ele>55</ele>
        <time>2023-12-19T15:33:22Z</time>
      </trkpt>
      <trkpt lat="43.43869" lon="3.49612">
        <ele>55</ele>
        <time>2023-12-19T15:33:23Z</time>
      </trkpt>
      <trkpt lat="43.43868" lon="3.49605">
        <ele>55</ele>
        <time>2023-12-19T15:33:24Z</time>
      </trkpt>
      <trkpt lat="43.43866" lon="3.49598">
        <ele>55</ele>
        <time>2023-12-19T15:33:25Z</time>
      </trkpt>
      <trkpt lat="43.43864" lon="3.49592">
        <ele>55</ele>
        <time>2023-12-19T15:33:26Z</time>
      </trkpt>
      <trkpt lat="43.43861" lon="3.49585">
        <ele>55</ele>
        <time>2023-12-19T15:33:27Z</time>
      </trkpt>
      <trkpt lat="43.43859" lon="3.49578">
        <ele>55</ele>
        <time>2023-12-19T15:33:28Z</time>
      </trkpt>
      <trkpt lat="43.43856" lon="3.49572">
        <ele>54.799999237061</ele>
        <time>2023-12-19T15:33:29Z</time>
      </trkpt>
      <trkpt lat="43.43853" lon="3.49566">
        <ele>54.599998474121</ele>
        <time>2023-12-19T15:33:30Z</time>
      </trkpt>
      <trkpt lat="43.43851" lon="3.4956">
        <ele>54.599998474121</ele>
        <time>2023-12-19T15:33:31Z</time>
      </trkpt>
      <trkpt lat="43.4385" lon="3.49552">
        <ele>54.400001525879</ele>
        <time>2023-12-19T15:33:32Z</time>
      </trkpt>
      <trkpt lat="43.43849" lon="3.49545">
        <ele>54.200000762939</ele>
        <time>2023-12-19T15:33:33Z</time>
      </trkpt>
      <trkpt lat="43.43848" lon="3.49538">
        <ele>54.200000762939</ele>
        <time>2023-12-19T15:33:34Z</time>
      </trkpt>
      <trkpt lat="43.43847" lon="3.4953">
        <ele>54</ele>
        <time>2023-12-19T15:33:35Z</time>
      </trkpt>
      <trkpt lat="43.43846" lon="3.49523">
        <ele>54</ele>
        <time>2023-12-19T15:33:36Z</time>
      </trkpt>
      <trkpt lat="43.43845" lon="3.49516">
        <ele>54.200000762939</ele>
        <time>2023-12-19T15:33:37Z</time>
      </trkpt>
      <trkpt lat="43.43844" lon="3.4951">
        <ele>54.200000762939</ele>
        <time>2023-12-19T15:33:38Z</time>
      </trkpt>
      <trkpt lat="43.43844" lon="3.49503">
        <ele>54.400001525879</ele>
        <time>2023-12-19T15:33:39Z</time>
      </trkpt>
      <trkpt lat="43.43843" lon="3.49496">
        <ele>54.400001525879</ele>
        <time>2023-12-19T15:33:40Z</time>
      </trkpt>
      <trkpt lat="43.43842" lon="3.49489">
        <ele>54.599998474121</ele>
        <time>2023-12-19T15:33:41Z</time>
      </trkpt>
      <trkpt lat="43.43842" lon="3.49483">
        <ele>54.799999237061</ele>
        <time>2023-12-19T15:33:42Z</time>
      </trkpt>
      <trkpt lat="43.43841" lon="3.49477">
        <ele>55.200000762939</ele>
        <time>2023-12-19T15:33:43Z</time>
      </trkpt>
      <trkpt lat="43.4384" lon="3.49471">
        <ele>55.400001525879</ele>
        <time>2023-12-19T15:33:44Z</time>
      </trkpt>
      <trkpt lat="43.43839" lon="3.49464">
        <ele>55.799999237061</ele>
        <time>2023-12-19T15:33:45Z</time>
      </trkpt>
      <trkpt lat="43.43838" lon="3.49458">
        <ele>56</ele>
        <time>2023-12-19T15:33:46Z</time>
      </trkpt>
      <trkpt lat="43.43836" lon="3.49451">
        <ele>56.200000762939</ele>
        <time>2023-12-19T15:33:47Z</time>
      </trkpt>
      <trkpt lat="43.43834" lon="3.49444">
        <ele>56.400001525879</ele>
        <time>2023-12-19T15:33:48Z</time>
      </trkpt>
      <trkpt lat="43.43832" lon="3.49438">
        <ele>56.599998474121</ele>
        <time>2023-12-19T15:33:49Z</time>
      </trkpt>
      <trkpt lat="43.43832" lon="3.49432">
        <ele>56.599998474121</ele>
        <time>2023-12-19T15:33:50Z</time>
      </trkpt>
      <trkpt lat="43.43832" lon="3.49425">
        <ele>56.799999237061</ele>
        <time>2023-12-19T15:33:51Z</time>
      </trkpt>
      <trkpt lat="43.43833" lon="3.49419">
        <ele>57</ele>
        <time>2023-12-19T15:33:52Z</time>
      </trkpt>
      <trkpt lat="43.43834" lon="3.49412">
        <ele>57.400001525879</ele>
        <time>2023-12-19T15:33:53Z</time>
      </trkpt>
      <trkpt lat="43.43836" lon="3.49406">
        <ele>57.799999237061</ele>
        <time>2023-12-19T15:33:54Z</time>
      </trkpt>
      <trkpt lat="43.43838" lon="3.49398">
        <ele>58.200000762939</ele>
        <time>2023-12-19T15:33:55Z</time>
      </trkpt>
      <trkpt lat="43.4384" lon="3.49391">
        <ele>58.599998474121</ele>
        <time>2023-12-19T15:33:56Z</time>
      </trkpt>
      <trkpt lat="43.43841" lon="3.49384">
        <ele>59</ele>
        <time>2023-12-19T15:33:57Z</time>
      </trkpt>
      <trkpt lat="43.43842" lon="3.49376">
        <ele>59.200000762939</ele>
        <time>2023-12-19T15:33:58Z</time>
      </trkpt>
      <trkpt lat="43.43844" lon="3.49369">
        <ele>59.400001525879</ele>
        <time>2023-12-19T15:33:59Z</time>
      </trkpt>
      <trkpt lat="43.43845" lon="3.49362">
        <ele>59.799999237061</ele>
        <time>2023-12-19T15:34:00Z</time>
      </trkpt>
      <trkpt lat="43.43845" lon="3.49355">
        <ele>60</ele>
        <time>2023-12-19T15:34:01Z</time>
      </trkpt>
      <trkpt lat="43.43846" lon="3.49349">
        <ele>60.200000762939</ele>
        <time>2023-12-19T15:34:02Z</time>
      </trkpt>
      <trkpt lat="43.43849" lon="3.49344">
        <ele>60.599998474121</ele>
        <time>2023-12-19T15:34:03Z</time>
      </trkpt>
      <trkpt lat="43.43851" lon="3.49338">
        <ele>60.599998474121</ele>
        <time>2023-12-19T15:34:04Z</time>
      </trkpt>
      <trkpt lat="43.43853" lon="3.49332">
        <ele>61</ele>
        <time>2023-12-19T15:34:05Z</time>
      </trkpt>
      <trkpt lat="43.43853" lon="3.49326">
        <ele>61.599998474121</ele>
        <time>2023-12-19T15:34:06Z</time>
      </trkpt>
      <trkpt lat="43.43853" lon="3.4932">
        <ele>61.799999237061</ele>
        <time>2023-12-19T15:34:07Z</time>
      </trkpt>
      <trkpt lat="43.43852" lon="3.49314">
        <ele>62</ele>
        <time>2023-12-19T15:34:08Z</time>
      </trkpt>
      <trkpt lat="43.43852" lon="3.49308">
        <ele>62.200000762939</ele>
        <time>2023-12-19T15:34:09Z</time>
      </trkpt>
      <trkpt lat="43.43851" lon="3.49303">
        <ele>62.200000762939</ele>
        <time>2023-12-19T15:34:10Z</time>
      </trkpt>
      <trkpt lat="43.43851" lon="3.49299">
        <ele>62.400001525879</ele>
        <time>2023-12-19T15:34:11Z</time>
      </trkpt>
      <trkpt lat="43.43851" lon="3.49296">
        <ele>62.400001525879</ele>
        <time>2023-12-19T15:34:12Z</time>
      </trkpt>
      <trkpt lat="43.4385" lon="3.49293">
        <ele>62.400001525879</ele>
        <time>2023-12-19T15:34:13Z</time>
      </trkpt>
      <trkpt lat="43.4385" lon="3.49291">
        <ele>62.599998474121</ele>
        <time>2023-12-19T15:34:14Z</time>
      </trkpt>
      <trkpt lat="43.43849" lon="3.49288">
        <ele>62.799999237061</ele>
        <time>2023-12-19T15:34:15Z</time>
      </trkpt>
      <trkpt lat="43.43849" lon="3.49286">
        <ele>63</ele>
        <time>2023-12-19T15:34:16Z</time>
      </trkpt>
      <trkpt lat="43.43848" lon="3.49283">
        <ele>63</ele>
        <time>2023-12-19T15:34:17Z</time>
      </trkpt>
      <trkpt lat="43.43847" lon="3.49281">
        <ele>63.200000762939</ele>
        <time>2023-12-19T15:34:18Z</time>
      </trkpt>
      <trkpt lat="43.43847" lon="3.4928">
        <ele>63.400001525879</ele>
        <time>2023-12-19T15:34:19Z</time>
      </trkpt>
      <trkpt lat="43.43846" lon="3.49278">
        <ele>63.599998474121</ele>
        <time>2023-12-19T15:34:20Z</time>
      </trkpt>
      <trkpt lat="43.43845" lon="3.49277">
        <ele>63.799999237061</ele>
        <time>2023-12-19T15:34:21Z</time>
      </trkpt>
      <trkpt lat="43.43845" lon="3.49275">
        <ele>64</ele>
        <time>2023-12-19T15:34:22Z</time>
      </trkpt>
      <trkpt lat="43.43844" lon="3.49273">
        <ele>64</ele>
        <time>2023-12-19T15:34:23Z</time>
      </trkpt>
      <trkpt lat="43.43842" lon="3.49271">
        <ele>64</ele>
        <time>2023-12-19T15:34:24Z</time>
      </trkpt>
      <trkpt lat="43.43838" lon="3.49268">
        <ele>64</ele>
        <time>2023-12-19T15:34:25Z</time>
      </trkpt>
      <trkpt lat="43.43835" lon="3.49264">
        <ele>63.799999237061</ele>
        <time>2023-12-19T15:34:26Z</time>
      </trkpt>
      <trkpt lat="43.43831" lon="3.4926">
        <ele>63.799999237061</ele>
        <time>2023-12-19T15:34:27Z</time>
      </trkpt>
      <trkpt lat="43.43827" lon="3.49255">
        <ele>63.599998474121</ele>
        <time>2023-12-19T15:34:28Z</time>
      </trkpt>
      <trkpt lat="43.43823" lon="3.49251">
        <ele>63.599998474121</ele>
        <time>2023-12-19T15:34:29Z</time>
      </trkpt>
      <trkpt lat="43.4382" lon="3.49247">
        <ele>63.599998474121</ele>
        <time>2023-12-19T15:34:30Z</time>
      </trkpt>
      <trkpt lat="43.43816" lon="3.49244">
        <ele>63.599998474121</ele>
        <time>2023-12-19T15:34:31Z</time>
      </trkpt>
      <trkpt lat="43.43813" lon="3.4924">
        <ele>63.599998474121</ele>
        <time>2023-12-19T15:34:32Z</time>
      </trkpt>
      <trkpt lat="43.4381" lon="3.49237">
        <ele>63.599998474121</ele>
        <time>2023-12-19T15:34:33Z</time>
      </trkpt>
      <trkpt lat="43.43807" lon="3.49235">
        <ele>63.799999237061</ele>
        <time>2023-12-19T15:34:34Z</time>
      </trkpt>
      <trkpt lat="43.43804" lon="3.49232">
        <ele>64</ele>
        <time>2023-12-19T15:34:35Z</time>
      </trkpt>
      <trkpt lat="43.43801" lon="3.49229">
        <ele>64.400001525879</ele>
        <time>2023-12-19T15:34:36Z</time>
      </trkpt>
      <trkpt lat="43.43797" lon="3.49227">
        <ele>64.599998474121</ele>
        <time>2023-12-19T15:34:37Z</time>
      </trkpt>
      <trkpt lat="43.43793" lon="3.49224">
        <ele>64.800003051758</ele>
        <time>2023-12-19T15:34:38Z</time>
      </trkpt>
      <trkpt lat="43.43791" lon="3.49221">
        <ele>65.199996948242</ele>
        <time>2023-12-19T15:34:39Z</time>
      </trkpt>
      <trkpt lat="43.4379" lon="3.49217">
        <ele>65.199996948242</ele>
        <time>2023-12-19T15:34:40Z</time>
      </trkpt>
      <trkpt lat="43.43791" lon="3.49213">
        <ele>65.400001525879</ele>
        <time>2023-12-19T15:34:41Z</time>
      </trkpt>
      <trkpt lat="43.43792" lon="3.49207">
        <ele>65.599998474121</ele>
        <time>2023-12-19T15:34:42Z</time>
      </trkpt>
      <trkpt lat="43.43794" lon="3.49201">
        <ele>65.800003051758</ele>
        <time>2023-12-19T15:34:43Z</time>
      </trkpt>
      <trkpt lat="43.43795" lon="3.49195">
        <ele>66</ele>
        <time>2023-12-19T15:34:44Z</time>
      </trkpt>
      <trkpt lat="43.43796" lon="3.49189">
        <ele>66</ele>
        <time>2023-12-19T15:34:45Z</time>
      </trkpt>
      <trkpt lat="43.43797" lon="3.49183">
        <ele>66.199996948242</ele>
        <time>2023-12-19T15:34:46Z</time>
      </trkpt>
      <trkpt lat="43.43799" lon="3.49177">
        <ele>66.199996948242</ele>
        <time>2023-12-19T15:34:47Z</time>
      </trkpt>
      <trkpt lat="43.438" lon="3.49171">
        <ele>66.400001525879</ele>
        <time>2023-12-19T15:34:48Z</time>
      </trkpt>
      <trkpt lat="43.43801" lon="3.49165">
        <ele>66.599998474121</ele>
        <time>2023-12-19T15:34:49Z</time>
      </trkpt>
      <trkpt lat="43.43803" lon="3.4916">
        <ele>66.599998474121</ele>
        <time>2023-12-19T15:34:50Z</time>
      </trkpt>
      <trkpt lat="43.43805" lon="3.49156">
        <ele>66.800003051758</ele>
        <time>2023-12-19T15:34:51Z</time>
      </trkpt>
      <trkpt lat="43.43807" lon="3.49151">
        <ele>67.199996948242</ele>
        <time>2023-12-19T15:34:52Z</time>
      </trkpt>
      <trkpt lat="43.43808" lon="3.49148">
        <ele>67.599998474121</ele>
        <time>2023-12-19T15:34:53Z</time>
      </trkpt>
      <trkpt lat="43.4381" lon="3.49145">
        <ele>68</ele>
        <time>2023-12-19T15:34:54Z</time>
      </trkpt>
      <trkpt lat="43.43812" lon="3.49143">
        <ele>68.599998474121</ele>
        <time>2023-12-19T15:34:55Z</time>
      </trkpt>
      <trkpt lat="43.43814" lon="3.49139">
        <ele>69</ele>
        <time>2023-12-19T15:34:56Z</time>
      </trkpt>
      <trkpt lat="43.43817" lon="3.49137">
        <ele>69.199996948242</ele>
        <time>2023-12-19T15:34:57Z</time>
      </trkpt>
      <trkpt lat="43.43819" lon="3.49134">
        <ele>69.400001525879</ele>
        <time>2023-12-19T15:34:58Z</time>
      </trkpt>
      <trkpt lat="43.43822" lon="3.49131">
        <ele>69.599998474121</ele>
        <time>2023-12-19T15:34:59Z</time>
      </trkpt>
      <trkpt lat="43.43824" lon="3.49127">
        <ele>69.599998474121</ele>
        <time>2023-12-19T15:35:00Z</time>
      </trkpt>
      <trkpt lat="43.43826" lon="3.49122">
        <ele>69.599998474121</ele>
        <time>2023-12-19T15:35:01Z</time>
      </trkpt>
      <trkpt lat="43.43828" lon="3.49117">
        <ele>69.599998474121</ele>
        <time>2023-12-19T15:35:02Z</time>
      </trkpt>
      <trkpt lat="43.43829" lon="3.49112">
        <ele>69.599998474121</ele>
        <time>2023-12-19T15:35:03Z</time>
      </trkpt>
      <trkpt lat="43.4383" lon="3.49107">
        <ele>69</ele>
        <time>2023-12-19T15:35:04Z</time>
      </trkpt>
      <trkpt lat="43.43831" lon="3.49102">
        <ele>68.599998474121</ele>
        <time>2023-12-19T15:35:05Z</time>
      </trkpt>
      <trkpt lat="43.43832" lon="3.49097">
        <ele>68.400001525879</ele>
        <time>2023-12-19T15:35:06Z</time>
      </trkpt>
      <trkpt lat="43.43833" lon="3.49091">
        <ele>68</ele>
        <time>2023-12-19T15:35:07Z</time>
      </trkpt>
      <trkpt lat="43.43834" lon="3.49087">
        <ele>68</ele>
        <time>2023-12-19T15:35:08Z</time>
      </trkpt>
      <trkpt lat="43.43836" lon="3.49083">
        <ele>67.599998474121</ele>
        <time>2023-12-19T15:35:09Z</time>
      </trkpt>
      <trkpt lat="43.43837" lon="3.49078">
        <ele>67.599998474121</ele>
        <time>2023-12-19T15:35:10Z</time>
      </trkpt>
      <trkpt lat="43.43838" lon="3.49072">
        <ele>67.599998474121</ele>
        <time>2023-12-19T15:35:11Z</time>
      </trkpt>
      <trkpt lat="43.43839" lon="3.49065">
        <ele>67.400001525879</ele>
        <time>2023-12-19T15:35:12Z</time>
      </trkpt>
      <trkpt lat="43.43841" lon="3.49057">
        <ele>67.400001525879</ele>
        <time>2023-12-19T15:35:13Z</time>
      </trkpt>
      <trkpt lat="43.43844" lon="3.49051">
        <ele>67.400001525879</ele>
        <time>2023-12-19T15:35:14Z</time>
      </trkpt>
      <trkpt lat="43.43849" lon="3.49047">
        <ele>67.400001525879</ele>
        <time>2023-12-19T15:35:15Z</time>
      </trkpt>
      <trkpt lat="43.43853" lon="3.49046">
        <ele>67</ele>
        <time>2023-12-19T15:35:16Z</time>
      </trkpt>
      <trkpt lat="43.43856" lon="3.49044">
        <ele>67</ele>
        <time>2023-12-19T15:35:17Z</time>
      </trkpt>
      <trkpt lat="43.4386" lon="3.49042">
        <ele>67</ele>
        <time>2023-12-19T15:35:18Z</time>
      </trkpt>
      <trkpt lat="43.43863" lon="3.49041">
        <ele>67</ele>
        <time>2023-12-19T15:35:19Z</time>
      </trkpt>
      <trkpt lat="43.43867" lon="3.49039">
        <ele>67</ele>
        <time>2023-12-19T15:35:20Z</time>
      </trkpt>
      <trkpt lat="43.43871" lon="3.49037">
        <ele>67</ele>
        <time>2023-12-19T15:35:21Z</time>
      </trkpt>
      <trkpt lat="43.43876" lon="3.49034">
        <ele>67</ele>
        <time>2023-12-19T15:35:22Z</time>
      </trkpt>
      <trkpt lat="43.4388" lon="3.49028">
        <ele>66.800003051758</ele>
        <time>2023-12-19T15:35:23Z</time>
      </trkpt>
      <trkpt lat="43.43882" lon="3.49023">
        <ele>66.800003051758</ele>
        <time>2023-12-19T15:35:24Z</time>
      </trkpt>
      <trkpt lat="43.43884" lon="3.49018">
        <ele>66.800003051758</ele>
        <time>2023-12-19T15:35:25Z</time>
      </trkpt>
      <trkpt lat="43.43887" lon="3.49014">
        <ele>66.800003051758</ele>
        <time>2023-12-19T15:35:26Z</time>
      </trkpt>
      <trkpt lat="43.4389" lon="3.49009">
        <ele>66.800003051758</ele>
        <time>2023-12-19T15:35:27Z</time>
      </trkpt>
      <trkpt lat="43.43893" lon="3.49005">
        <ele>66.800003051758</ele>
        <time>2023-12-19T15:35:28Z</time>
      </trkpt>
      <trkpt lat="43.43896" lon="3.48998">
        <ele>66.800003051758</ele>
        <time>2023-12-19T15:35:29Z</time>
      </trkpt>
      <trkpt lat="43.43899" lon="3.48992">
        <ele>66.800003051758</ele>
        <time>2023-12-19T15:35:30Z</time>
      </trkpt>
      <trkpt lat="43.43902" lon="3.48986">
        <ele>66.800003051758</ele>
        <time>2023-12-19T15:35:31Z</time>
      </trkpt>
      <trkpt lat="43.43905" lon="3.4898">
        <ele>67</ele>
        <time>2023-12-19T15:35:32Z</time>
      </trkpt>
      <trkpt lat="43.43907" lon="3.48973">
        <ele>67</ele>
        <time>2023-12-19T15:35:33Z</time>
      </trkpt>
      <trkpt lat="43.43909" lon="3.48968">
        <ele>67</ele>
        <time>2023-12-19T15:35:34Z</time>
      </trkpt>
      <trkpt lat="43.4391" lon="3.48963">
        <ele>67</ele>
        <time>2023-12-19T15:35:35Z</time>
      </trkpt>
      <trkpt lat="43.43912" lon="3.48957">
        <ele>66.800003051758</ele>
        <time>2023-12-19T15:35:36Z</time>
      </trkpt>
      <trkpt lat="43.43915" lon="3.4895">
        <ele>66.800003051758</ele>
        <time>2023-12-19T15:35:37Z</time>
      </trkpt>
      <trkpt lat="43.43917" lon="3.48943">
        <ele>66.800003051758</ele>
        <time>2023-12-19T15:35:38Z</time>
      </trkpt>
      <trkpt lat="43.43919" lon="3.48935">
        <ele>66.800003051758</ele>
        <time>2023-12-19T15:35:39Z</time>
      </trkpt>
      <trkpt lat="43.4392" lon="3.48927">
        <ele>66.800003051758</ele>
        <time>2023-12-19T15:35:40Z</time>
      </trkpt>
      <trkpt lat="43.43922" lon="3.4892">
        <ele>66.800003051758</ele>
        <time>2023-12-19T15:35:41Z</time>
      </trkpt>
      <trkpt lat="43.43923" lon="3.48912">
        <ele>66.599998474121</ele>
        <time>2023-12-19T15:35:42Z</time>
      </trkpt>
      <trkpt lat="43.43924" lon="3.48906">
        <ele>66.599998474121</ele>
        <time>2023-12-19T15:35:43Z</time>
      </trkpt>
      <trkpt lat="43.43925" lon="3.48899">
        <ele>66.599998474121</ele>
        <time>2023-12-19T15:35:44Z</time>
      </trkpt>
      <trkpt lat="43.43924" lon="3.48892">
        <ele>66.800003051758</ele>
        <time>2023-12-19T15:35:45Z</time>
      </trkpt>
      <trkpt lat="43.43922" lon="3.48886">
        <ele>67</ele>
        <time>2023-12-19T15:35:46Z</time>
      </trkpt>
      <trkpt lat="43.43921" lon="3.48879">
        <ele>67.199996948242</ele>
        <time>2023-12-19T15:35:47Z</time>
      </trkpt>
      <trkpt lat="43.43918" lon="3.48872">
        <ele>67.199996948242</ele>
        <time>2023-12-19T15:35:48Z</time>
      </trkpt>
      <trkpt lat="43.43915" lon="3.48866">
        <ele>67.199996948242</ele>
        <time>2023-12-19T15:35:49Z</time>
      </trkpt>
      <trkpt lat="43.43912" lon="3.4886">
        <ele>67.199996948242</ele>
        <time>2023-12-19T15:35:50Z</time>
      </trkpt>
      <trkpt lat="43.43908" lon="3.48855">
        <ele>67.199996948242</ele>
        <time>2023-12-19T15:35:51Z</time>
      </trkpt>
      <trkpt lat="43.43905" lon="3.4885">
        <ele>67.400001525879</ele>
        <time>2023-12-19T15:35:52Z</time>
      </trkpt>
      <trkpt lat="43.43902" lon="3.48844">
        <ele>67.400001525879</ele>
        <time>2023-12-19T15:35:53Z</time>
      </trkpt>
      <trkpt lat="43.43899" lon="3.48839">
        <ele>67.599998474121</ele>
        <time>2023-12-19T15:35:54Z</time>
      </trkpt>
      <trkpt lat="43.43896" lon="3.48834">
        <ele>67.800003051758</ele>
        <time>2023-12-19T15:35:55Z</time>
      </trkpt>
      <trkpt lat="43.43894" lon="3.48829">
        <ele>68.199996948242</ele>
        <time>2023-12-19T15:35:56Z</time>
      </trkpt>
      <trkpt lat="43.43892" lon="3.48823">
        <ele>68.599998474121</ele>
        <time>2023-12-19T15:35:57Z</time>
      </trkpt>
      <trkpt lat="43.43891" lon="3.48817">
        <ele>69</ele>
        <time>2023-12-19T15:35:58Z</time>
      </trkpt>
      <trkpt lat="43.43889" lon="3.48812">
        <ele>69.199996948242</ele>
        <time>2023-12-19T15:35:59Z</time>
      </trkpt>
      <trkpt lat="43.43888" lon="3.48806">
        <ele>69.800003051758</ele>
        <time>2023-12-19T15:36:00Z</time>
      </trkpt>
      <trkpt lat="43.43888" lon="3.488">
        <ele>70.599998474121</ele>
        <time>2023-12-19T15:36:01Z</time>
      </trkpt>
      <trkpt lat="43.43888" lon="3.48793">
        <ele>70.800003051758</ele>
        <time>2023-12-19T15:36:02Z</time>
      </trkpt>
      <trkpt lat="43.43887" lon="3.48786">
        <ele>71.199996948242</ele>
        <time>2023-12-19T15:36:03Z</time>
      </trkpt>
      <trkpt lat="43.43887" lon="3.48779">
        <ele>71.400001525879</ele>
        <time>2023-12-19T15:36:04Z</time>
      </trkpt>
      <trkpt lat="43.43888" lon="3.48773">
        <ele>71.599998474121</ele>
        <time>2023-12-19T15:36:05Z</time>
      </trkpt>
      <trkpt lat="43.43889" lon="3.48767">
        <ele>71.599998474121</ele>
        <time>2023-12-19T15:36:06Z</time>
      </trkpt>
      <trkpt lat="43.43889" lon="3.48762">
        <ele>71.800003051758</ele>
        <time>2023-12-19T15:36:07Z</time>
      </trkpt>
      <trkpt lat="43.43888" lon="3.48756">
        <ele>72</ele>
        <time>2023-12-19T15:36:08Z</time>
      </trkpt>
      <trkpt lat="43.43889" lon="3.48751">
        <ele>72</ele>
        <time>2023-12-19T15:36:09Z</time>
      </trkpt>
      <trkpt lat="43.43891" lon="3.48745">
        <ele>72.199996948242</ele>
        <time>2023-12-19T15:36:10Z</time>
      </trkpt>
      <trkpt lat="43.43893" lon="3.48738">
        <ele>72.400001525879</ele>
        <time>2023-12-19T15:36:11Z</time>
      </trkpt>
      <trkpt lat="43.43896" lon="3.48733">
        <ele>72.599998474121</ele>
        <time>2023-12-19T15:36:12Z</time>
      </trkpt>
      <trkpt lat="43.43898" lon="3.48727">
        <ele>72.599998474121</ele>
        <time>2023-12-19T15:36:13Z</time>
      </trkpt>
      <trkpt lat="43.439" lon="3.48722">
        <ele>72.800003051758</ele>
        <time>2023-12-19T15:36:14Z</time>
      </trkpt>
      <trkpt lat="43.43901" lon="3.48716">
        <ele>72.800003051758</ele>
        <time>2023-12-19T15:36:15Z</time>
      </trkpt>
      <trkpt lat="43.43901" lon="3.48708">
        <ele>72.800003051758</ele>
        <time>2023-12-19T15:36:16Z</time>
      </trkpt>
      <trkpt lat="43.43902" lon="3.48702">
        <ele>72.800003051758</ele>
        <time>2023-12-19T15:36:17Z</time>
      </trkpt>
      <trkpt lat="43.43903" lon="3.48696">
        <ele>73</ele>
        <time>2023-12-19T15:36:18Z</time>
      </trkpt>
      <trkpt lat="43.43904" lon="3.4869">
        <ele>73</ele>
        <time>2023-12-19T15:36:19Z</time>
      </trkpt>
      <trkpt lat="43.43906" lon="3.48684">
        <ele>73.199996948242</ele>
        <time>2023-12-19T15:36:20Z</time>
      </trkpt>
      <trkpt lat="43.43909" lon="3.4868">
        <ele>73.199996948242</ele>
        <time>2023-12-19T15:36:21Z</time>
      </trkpt>
      <trkpt lat="43.43913" lon="3.48676">
        <ele>73.400001525879</ele>
        <time>2023-12-19T15:36:22Z</time>
      </trkpt>
      <trkpt lat="43.43916" lon="3.48671">
        <ele>73.400001525879</ele>
        <time>2023-12-19T15:36:23Z</time>
      </trkpt>
      <trkpt lat="43.43919" lon="3.48667">
        <ele>73.400001525879</ele>
        <time>2023-12-19T15:36:24Z</time>
      </trkpt>
      <trkpt lat="43.43921" lon="3.48661">
        <ele>73.599998474121</ele>
        <time>2023-12-19T15:36:25Z</time>
      </trkpt>
      <trkpt lat="43.43923" lon="3.48656">
        <ele>74</ele>
        <time>2023-12-19T15:36:26Z</time>
      </trkpt>
      <trkpt lat="43.43926" lon="3.48651">
        <ele>74</ele>
        <time>2023-12-19T15:36:27Z</time>
      </trkpt>
      <trkpt lat="43.43929" lon="3.48648">
        <ele>74.400001525879</ele>
        <time>2023-12-19T15:36:28Z</time>
      </trkpt>
      <trkpt lat="43.43932" lon="3.48648">
        <ele>74.599998474121</ele>
        <time>2023-12-19T15:36:29Z</time>
      </trkpt>
      <trkpt lat="43.43935" lon="3.48647">
        <ele>74.800003051758</ele>
        <time>2023-12-19T15:36:30Z</time>
      </trkpt>
      <trkpt lat="43.43939" lon="3.48646">
        <ele>74.800003051758</ele>
        <time>2023-12-19T15:36:31Z</time>
      </trkpt>
      <trkpt lat="43.43941" lon="3.48643">
        <ele>75</ele>
        <time>2023-12-19T15:36:32Z</time>
      </trkpt>
      <trkpt lat="43.43943" lon="3.4864">
        <ele>75.199996948242</ele>
        <time>2023-12-19T15:36:33Z</time>
      </trkpt>
      <trkpt lat="43.43945" lon="3.48636">
        <ele>75.400001525879</ele>
        <time>2023-12-19T15:36:34Z</time>
      </trkpt>
      <trkpt lat="43.43948" lon="3.48632">
        <ele>75.400001525879</ele>
        <time>2023-12-19T15:36:35Z</time>
      </trkpt>
      <trkpt lat="43.4395" lon="3.48628">
        <ele>75.599998474121</ele>
        <time>2023-12-19T15:36:36Z</time>
      </trkpt>
      <trkpt lat="43.43952" lon="3.48624">
        <ele>76</ele>
        <time>2023-12-19T15:36:37Z</time>
      </trkpt>
      <trkpt lat="43.43955" lon="3.48621">
        <ele>76.599998474121</ele>
        <time>2023-12-19T15:36:38Z</time>
      </trkpt>
      <trkpt lat="43.43956" lon="3.48617">
        <ele>77.199996948242</ele>
        <time>2023-12-19T15:36:39Z</time>
      </trkpt>
      <trkpt lat="43.43958" lon="3.48612">
        <ele>77.400001525879</ele>
        <time>2023-12-19T15:36:40Z</time>
      </trkpt>
      <trkpt lat="43.43959" lon="3.48608">
        <ele>77.599998474121</ele>
        <time>2023-12-19T15:36:41Z</time>
      </trkpt>
      <trkpt lat="43.4396" lon="3.48603">
        <ele>77.599998474121</ele>
        <time>2023-12-19T15:36:42Z</time>
      </trkpt>
      <trkpt lat="43.4396" lon="3.48597">
        <ele>77.599998474121</ele>
        <time>2023-12-19T15:36:43Z</time>
      </trkpt>
      <trkpt lat="43.43961" lon="3.48592">
        <ele>77.599998474121</ele>
        <time>2023-12-19T15:36:44Z</time>
      </trkpt>
      <trkpt lat="43.43962" lon="3.48588">
        <ele>77.800003051758</ele>
        <time>2023-12-19T15:36:45Z</time>
      </trkpt>
      <trkpt lat="43.43963" lon="3.48584">
        <ele>78</ele>
        <time>2023-12-19T15:36:46Z</time>
      </trkpt>
      <trkpt lat="43.43964" lon="3.48579">
        <ele>78.199996948242</ele>
        <time>2023-12-19T15:36:47Z</time>
      </trkpt>
      <trkpt lat="43.43966" lon="3.48574">
        <ele>78.199996948242</ele>
        <time>2023-12-19T15:36:48Z</time>
      </trkpt>
      <trkpt lat="43.43969" lon="3.4857">
        <ele>78.400001525879</ele>
        <time>2023-12-19T15:36:49Z</time>
      </trkpt>
      <trkpt lat="43.43971" lon="3.48565">
        <ele>78.400001525879</ele>
        <time>2023-12-19T15:36:50Z</time>
      </trkpt>
      <trkpt lat="43.43974" lon="3.4856">
        <ele>78.400001525879</ele>
        <time>2023-12-19T15:36:51Z</time>
      </trkpt>
      <trkpt lat="43.43976" lon="3.48555">
        <ele>78.400001525879</ele>
        <time>2023-12-19T15:36:52Z</time>
      </trkpt>
      <trkpt lat="43.43978" lon="3.4855">
        <ele>78.199996948242</ele>
        <time>2023-12-19T15:36:53Z</time>
      </trkpt>
      <trkpt lat="43.4398" lon="3.48545">
        <ele>78</ele>
        <time>2023-12-19T15:36:54Z</time>
      </trkpt>
      <trkpt lat="43.43981" lon="3.4854">
        <ele>77.800003051758</ele>
        <time>2023-12-19T15:36:55Z</time>
      </trkpt>
      <trkpt lat="43.43982" lon="3.48535">
        <ele>77.800003051758</ele>
        <time>2023-12-19T15:36:56Z</time>
      </trkpt>
      <trkpt lat="43.43982" lon="3.48529">
        <ele>77.800003051758</ele>
        <time>2023-12-19T15:36:57Z</time>
      </trkpt>
      <trkpt lat="43.43981" lon="3.48523">
        <ele>77.800003051758</ele>
        <time>2023-12-19T15:36:58Z</time>
      </trkpt>
      <trkpt lat="43.43981" lon="3.48517">
        <ele>77.800003051758</ele>
        <time>2023-12-19T15:36:59Z</time>
      </trkpt>
      <trkpt lat="43.43981" lon="3.4851">
        <ele>77.800003051758</ele>
        <time>2023-12-19T15:37:00Z</time>
      </trkpt>
      <trkpt lat="43.43981" lon="3.48504">
        <ele>77.800003051758</ele>
        <time>2023-12-19T15:37:01Z</time>
      </trkpt>
      <trkpt lat="43.43981" lon="3.48498">
        <ele>77.800003051758</ele>
        <time>2023-12-19T15:37:02Z</time>
      </trkpt>
      <trkpt lat="43.43981" lon="3.48491">
        <ele>77.800003051758</ele>
        <time>2023-12-19T15:37:03Z</time>
      </trkpt>
      <trkpt lat="43.43983" lon="3.48486">
        <ele>77.800003051758</ele>
        <time>2023-12-19T15:37:04Z</time>
      </trkpt>
      <trkpt lat="43.43986" lon="3.48483">
        <ele>77.800003051758</ele>
        <time>2023-12-19T15:37:05Z</time>
      </trkpt>
      <trkpt lat="43.43989" lon="3.48481">
        <ele>77.800003051758</ele>
        <time>2023-12-19T15:37:06Z</time>
      </trkpt>
      <trkpt lat="43.43993" lon="3.48479">
        <ele>78</ele>
        <time>2023-12-19T15:37:07Z</time>
      </trkpt>
      <trkpt lat="43.43995" lon="3.48476">
        <ele>78</ele>
        <time>2023-12-19T15:37:08Z</time>
      </trkpt>
      <trkpt lat="43.43997" lon="3.48473">
        <ele>78.199996948242</ele>
        <time>2023-12-19T15:37:09Z</time>
      </trkpt>
      <trkpt lat="43.43999" lon="3.48469">
        <ele>78.400001525879</ele>
        <time>2023-12-19T15:37:10Z</time>
      </trkpt>
      <trkpt lat="43.44002" lon="3.48466">
        <ele>79</ele>
        <time>2023-12-19T15:37:11Z</time>
      </trkpt>
      <trkpt lat="43.44004" lon="3.48462">
        <ele>79.199996948242</ele>
        <time>2023-12-19T15:37:12Z</time>
      </trkpt>
      <trkpt lat="43.44008" lon="3.48459">
        <ele>79.400001525879</ele>
        <time>2023-12-19T15:37:13Z</time>
      </trkpt>
      <trkpt lat="43.4401" lon="3.48456">
        <ele>79.400001525879</ele>
        <time>2023-12-19T15:37:14Z</time>
      </trkpt>
      <trkpt lat="43.44013" lon="3.48451">
        <ele>79.400001525879</ele>
        <time>2023-12-19T15:37:15Z</time>
      </trkpt>
      <trkpt lat="43.44016" lon="3.48446">
        <ele>79.400001525879</ele>
        <time>2023-12-19T15:37:16Z</time>
      </trkpt>
      <trkpt lat="43.4402" lon="3.4844">
        <ele>79.400001525879</ele>
        <time>2023-12-19T15:37:17Z</time>
      </trkpt>
      <trkpt lat="43.44023" lon="3.48435">
        <ele>79.400001525879</ele>
        <time>2023-12-19T15:37:18Z</time>
      </trkpt>
      <trkpt lat="43.44025" lon="3.4843">
        <ele>79.599998474121</ele>
        <time>2023-12-19T15:37:19Z</time>
      </trkpt>
      <trkpt lat="43.44027" lon="3.48425">
        <ele>79.599998474121</ele>
        <time>2023-12-19T15:37:20Z</time>
      </trkpt>
      <trkpt lat="43.44029" lon="3.4842">
        <ele>79.800003051758</ele>
        <time>2023-12-19T15:37:21Z</time>
      </trkpt>
      <trkpt lat="43.44032" lon="3.48416">
        <ele>80.199996948242</ele>
        <time>2023-12-19T15:37:22Z</time>
      </trkpt>
      <trkpt lat="43.44035" lon="3.48413">
        <ele>80.599998474121</ele>
        <time>2023-12-19T15:37:23Z</time>
      </trkpt>
      <trkpt lat="43.44036" lon="3.48409">
        <ele>81</ele>
        <time>2023-12-19T15:37:24Z</time>
      </trkpt>
      <trkpt lat="43.44036" lon="3.48404">
        <ele>81.400001525879</ele>
        <time>2023-12-19T15:37:25Z</time>
      </trkpt>
      <trkpt lat="43.44035" lon="3.48399">
        <ele>82</ele>
        <time>2023-12-19T15:37:26Z</time>
      </trkpt>
      <trkpt lat="43.44034" lon="3.48393">
        <ele>82.199996948242</ele>
        <time>2023-12-19T15:37:27Z</time>
      </trkpt>
      <trkpt lat="43.44033" lon="3.48386">
        <ele>82.199996948242</ele>
        <time>2023-12-19T15:37:28Z</time>
      </trkpt>
      <trkpt lat="43.44032" lon="3.48379">
        <ele>82.400001525879</ele>
        <time>2023-12-19T15:37:29Z</time>
      </trkpt>
      <trkpt lat="43.44033" lon="3.48374">
        <ele>82.400001525879</ele>
        <time>2023-12-19T15:37:30Z</time>
      </trkpt>
      <trkpt lat="43.44036" lon="3.4837">
        <ele>82.800003051758</ele>
        <time>2023-12-19T15:37:31Z</time>
      </trkpt>
      <trkpt lat="43.44038" lon="3.48367">
        <ele>83</ele>
        <time>2023-12-19T15:37:32Z</time>
      </trkpt>
      <trkpt lat="43.44039" lon="3.48364">
        <ele>83.400001525879</ele>
        <time>2023-12-19T15:37:33Z</time>
      </trkpt>
      <trkpt lat="43.44038" lon="3.48361">
        <ele>84</ele>
        <time>2023-12-19T15:37:34Z</time>
      </trkpt>
      <trkpt lat="43.44036" lon="3.48358">
        <ele>84.599998474121</ele>
        <time>2023-12-19T15:37:35Z</time>
      </trkpt>
      <trkpt lat="43.44034" lon="3.48355">
        <ele>85.400001525879</ele>
        <time>2023-12-19T15:37:36Z</time>
      </trkpt>
      <trkpt lat="43.44033" lon="3.48351">
        <ele>85.800003051758</ele>
        <time>2023-12-19T15:37:37Z</time>
      </trkpt>
      <trkpt lat="43.44034" lon="3.48346">
        <ele>86</ele>
        <time>2023-12-19T15:37:38Z</time>
      </trkpt>
      <trkpt lat="43.44036" lon="3.48343">
        <ele>86.199996948242</ele>
        <time>2023-12-19T15:37:39Z</time>
      </trkpt>
      <trkpt lat="43.44038" lon="3.4834">
        <ele>86.199996948242</ele>
        <time>2023-12-19T15:37:40Z</time>
      </trkpt>
      <trkpt lat="43.44041" lon="3.48336">
        <ele>86.199996948242</ele>
        <time>2023-12-19T15:37:41Z</time>
      </trkpt>
      <trkpt lat="43.44042" lon="3.48332">
        <ele>86.199996948242</ele>
        <time>2023-12-19T15:37:42Z</time>
      </trkpt>
      <trkpt lat="43.44043" lon="3.48328">
        <ele>86.400001525879</ele>
        <time>2023-12-19T15:37:43Z</time>
      </trkpt>
      <trkpt lat="43.44043" lon="3.48323">
        <ele>86.800003051758</ele>
        <time>2023-12-19T15:37:44Z</time>
      </trkpt>
      <trkpt lat="43.44044" lon="3.48317">
        <ele>87.199996948242</ele>
        <time>2023-12-19T15:37:45Z</time>
      </trkpt>
      <trkpt lat="43.44046" lon="3.48312">
        <ele>87.599998474121</ele>
        <time>2023-12-19T15:37:46Z</time>
      </trkpt>
      <trkpt lat="43.44048" lon="3.48307">
        <ele>88</ele>
        <time>2023-12-19T15:37:47Z</time>
      </trkpt>
      <trkpt lat="43.4405" lon="3.48303">
        <ele>88.199996948242</ele>
        <time>2023-12-19T15:37:48Z</time>
      </trkpt>
      <trkpt lat="43.44051" lon="3.48298">
        <ele>88.400001525879</ele>
        <time>2023-12-19T15:37:49Z</time>
      </trkpt>
      <trkpt lat="43.44052" lon="3.48294">
        <ele>89</ele>
        <time>2023-12-19T15:37:50Z</time>
      </trkpt>
      <trkpt lat="43.44054" lon="3.48291">
        <ele>89</ele>
        <time>2023-12-19T15:37:51Z</time>
      </trkpt>
      <trkpt lat="43.44055" lon="3.48287">
        <ele>89.199996948242</ele>
        <time>2023-12-19T15:37:52Z</time>
      </trkpt>
      <trkpt lat="43.44057" lon="3.48283">
        <ele>89.599998474121</ele>
        <time>2023-12-19T15:37:53Z</time>
      </trkpt>
      <trkpt lat="43.44059" lon="3.4828">
        <ele>90</ele>
        <time>2023-12-19T15:37:54Z</time>
      </trkpt>
      <trkpt lat="43.44061" lon="3.48277">
        <ele>90.199996948242</ele>
        <time>2023-12-19T15:37:55Z</time>
      </trkpt>
      <trkpt lat="43.44063" lon="3.48274">
        <ele>90.400001525879</ele>
        <time>2023-12-19T15:37:56Z</time>
      </trkpt>
      <trkpt lat="43.44066" lon="3.48272">
        <ele>90.400001525879</ele>
        <time>2023-12-19T15:37:57Z</time>
      </trkpt>
      <trkpt lat="43.44068" lon="3.48271">
        <ele>90.599998474121</ele>
        <time>2023-12-19T15:37:58Z</time>
      </trkpt>
      <trkpt lat="43.44071" lon="3.48269">
        <ele>91</ele>
        <time>2023-12-19T15:37:59Z</time>
      </trkpt>
      <trkpt lat="43.44074" lon="3.48268">
        <ele>91</ele>
        <time>2023-12-19T15:38:00Z</time>
      </trkpt>
      <trkpt lat="43.44078" lon="3.48269">
        <ele>91</ele>
        <time>2023-12-19T15:38:01Z</time>
      </trkpt>
      <trkpt lat="43.44082" lon="3.48267">
        <ele>91</ele>
        <time>2023-12-19T15:38:02Z</time>
      </trkpt>
      <trkpt lat="43.44084" lon="3.48265">
        <ele>91</ele>
        <time>2023-12-19T15:38:03Z</time>
      </trkpt>
      <trkpt lat="43.44087" lon="3.48263">
        <ele>91</ele>
        <time>2023-12-19T15:38:04Z</time>
      </trkpt>
      <trkpt lat="43.4409" lon="3.4826">
        <ele>90.800003051758</ele>
        <time>2023-12-19T15:38:05Z</time>
      </trkpt>
      <trkpt lat="43.44093" lon="3.48256">
        <ele>90.599998474121</ele>
        <time>2023-12-19T15:38:06Z</time>
      </trkpt>
      <trkpt lat="43.44095" lon="3.48251">
        <ele>90.400001525879</ele>
        <time>2023-12-19T15:38:07Z</time>
      </trkpt>
      <trkpt lat="43.44097" lon="3.48247">
        <ele>90.400001525879</ele>
        <time>2023-12-19T15:38:08Z</time>
      </trkpt>
      <trkpt lat="43.44097" lon="3.48243">
        <ele>90.400001525879</ele>
        <time>2023-12-19T15:38:09Z</time>
      </trkpt>
      <trkpt lat="43.44097" lon="3.48238">
        <ele>90.400001525879</ele>
        <time>2023-12-19T15:38:10Z</time>
      </trkpt>
      <trkpt lat="43.44098" lon="3.48232">
        <ele>90.400001525879</ele>
        <time>2023-12-19T15:38:11Z</time>
      </trkpt>
      <trkpt lat="43.44099" lon="3.48224">
        <ele>90.400001525879</ele>
        <time>2023-12-19T15:38:12Z</time>
      </trkpt>
      <trkpt lat="43.44101" lon="3.48218">
        <ele>90.400001525879</ele>
        <time>2023-12-19T15:38:13Z</time>
      </trkpt>
      <trkpt lat="43.44104" lon="3.48214">
        <ele>90.199996948242</ele>
        <time>2023-12-19T15:38:14Z</time>
      </trkpt>
      <trkpt lat="43.44107" lon="3.48211">
        <ele>89.800003051758</ele>
        <time>2023-12-19T15:38:15Z</time>
      </trkpt>
      <trkpt lat="43.4411" lon="3.48208">
        <ele>89.599998474121</ele>
        <time>2023-12-19T15:38:16Z</time>
      </trkpt>
      <trkpt lat="43.44113" lon="3.48203">
        <ele>89.599998474121</ele>
        <time>2023-12-19T15:38:17Z</time>
      </trkpt>
      <trkpt lat="43.44117" lon="3.48197">
        <ele>89.599998474121</ele>
        <time>2023-12-19T15:38:18Z</time>
      </trkpt>
      <trkpt lat="43.4412" lon="3.48193">
        <ele>89.599998474121</ele>
        <time>2023-12-19T15:38:19Z</time>
      </trkpt>
      <trkpt lat="43.44122" lon="3.4819">
        <ele>89.599998474121</ele>
        <time>2023-12-19T15:38:20Z</time>
      </trkpt>
      <trkpt lat="43.44124" lon="3.48187">
        <ele>89.599998474121</ele>
        <time>2023-12-19T15:38:21Z</time>
      </trkpt>
      <trkpt lat="43.44126" lon="3.48183">
        <ele>90</ele>
        <time>2023-12-19T15:38:22Z</time>
      </trkpt>
      <trkpt lat="43.44128" lon="3.48178">
        <ele>90.800003051758</ele>
        <time>2023-12-19T15:38:23Z</time>
      </trkpt>
      <trkpt lat="43.44131" lon="3.48173">
        <ele>91.199996948242</ele>
        <time>2023-12-19T15:38:24Z</time>
      </trkpt>
      <trkpt lat="43.44133" lon="3.48168">
        <ele>91.199996948242</ele>
        <time>2023-12-19T15:38:25Z</time>
      </trkpt>
      <trkpt lat="43.44135" lon="3.48162">
        <ele>91.199996948242</ele>
        <time>2023-12-19T15:38:26Z</time>
      </trkpt>
      <trkpt lat="43.44136" lon="3.48157">
        <ele>91.199996948242</ele>
        <time>2023-12-19T15:38:27Z</time>
      </trkpt>
      <trkpt lat="43.44137" lon="3.48153">
        <ele>91</ele>
        <time>2023-12-19T15:38:28Z</time>
      </trkpt>
      <trkpt lat="43.44138" lon="3.48148">
        <ele>90.599998474121</ele>
        <time>2023-12-19T15:38:29Z</time>
      </trkpt>
      <trkpt lat="43.44138" lon="3.48142">
        <ele>90.400001525879</ele>
        <time>2023-12-19T15:38:30Z</time>
      </trkpt>
      <trkpt lat="43.44137" lon="3.48138">
        <ele>90.400001525879</ele>
        <time>2023-12-19T15:38:31Z</time>
      </trkpt>
      <trkpt lat="43.44137" lon="3.48133">
        <ele>90.199996948242</ele>
        <time>2023-12-19T15:38:32Z</time>
      </trkpt>
      <trkpt lat="43.44138" lon="3.48128">
        <ele>90</ele>
        <time>2023-12-19T15:38:33Z</time>
      </trkpt>
      <trkpt lat="43.44137" lon="3.48124">
        <ele>90</ele>
        <time>2023-12-19T15:38:34Z</time>
      </trkpt>
      <trkpt lat="43.44136" lon="3.48119">
        <ele>90</ele>
        <time>2023-12-19T15:38:35Z</time>
      </trkpt>
      <trkpt lat="43.44133" lon="3.48117">
        <ele>90</ele>
        <time>2023-12-19T15:38:36Z</time>
      </trkpt>
      <trkpt lat="43.4413" lon="3.48113">
        <ele>89.800003051758</ele>
        <time>2023-12-19T15:38:37Z</time>
      </trkpt>
      <trkpt lat="43.44127" lon="3.48108">
        <ele>89.599998474121</ele>
        <time>2023-12-19T15:38:38Z</time>
      </trkpt>
      <trkpt lat="43.44125" lon="3.48104">
        <ele>89.400001525879</ele>
        <time>2023-12-19T15:38:39Z</time>
      </trkpt>
      <trkpt lat="43.44122" lon="3.48101">
        <ele>89.400001525879</ele>
        <time>2023-12-19T15:38:40Z</time>
      </trkpt>
      <trkpt lat="43.4412" lon="3.48098">
        <ele>89.400001525879</ele>
        <time>2023-12-19T15:38:41Z</time>
      </trkpt>
      <trkpt lat="43.44118" lon="3.48094">
        <ele>89</ele>
        <time>2023-12-19T15:38:42Z</time>
      </trkpt>
      <trkpt lat="43.44116" lon="3.4809">
        <ele>88.599998474121</ele>
        <time>2023-12-19T15:38:43Z</time>
      </trkpt>
      <trkpt lat="43.44115" lon="3.48086">
        <ele>88.199996948242</ele>
        <time>2023-12-19T15:38:44Z</time>
      </trkpt>
      <trkpt lat="43.44113" lon="3.48082">
        <ele>88</ele>
        <time>2023-12-19T15:38:45Z</time>
      </trkpt>
      <trkpt lat="43.44113" lon="3.48076">
        <ele>88</ele>
        <time>2023-12-19T15:38:46Z</time>
      </trkpt>
      <trkpt lat="43.44111" lon="3.48071">
        <ele>88</ele>
        <time>2023-12-19T15:38:47Z</time>
      </trkpt>
      <trkpt lat="43.44109" lon="3.48065">
        <ele>88</ele>
        <time>2023-12-19T15:38:48Z</time>
      </trkpt>
      <trkpt lat="43.44106" lon="3.48061">
        <ele>87.800003051758</ele>
        <time>2023-12-19T15:38:49Z</time>
      </trkpt>
      <trkpt lat="43.44103" lon="3.48057">
        <ele>87.599998474121</ele>
        <time>2023-12-19T15:38:50Z</time>
      </trkpt>
      <trkpt lat="43.44099" lon="3.48053">
        <ele>87.599998474121</ele>
        <time>2023-12-19T15:38:51Z</time>
      </trkpt>
      <trkpt lat="43.44096" lon="3.48049">
        <ele>87.599998474121</ele>
        <time>2023-12-19T15:38:52Z</time>
      </trkpt>
      <trkpt lat="43.44093" lon="3.48044">
        <ele>87.599998474121</ele>
        <time>2023-12-19T15:38:53Z</time>
      </trkpt>
      <trkpt lat="43.4409" lon="3.4804">
        <ele>87.599998474121</ele>
        <time>2023-12-19T15:38:54Z</time>
      </trkpt>
      <trkpt lat="43.44088" lon="3.48035">
        <ele>87.599998474121</ele>
        <time>2023-12-19T15:38:55Z</time>
      </trkpt>
      <trkpt lat="43.4409" lon="3.48031">
        <ele>87.599998474121</ele>
        <time>2023-12-19T15:38:56Z</time>
      </trkpt>
      <trkpt lat="43.44092" lon="3.48027">
        <ele>87.599998474121</ele>
        <time>2023-12-19T15:38:57Z</time>
      </trkpt>
      <trkpt lat="43.44094" lon="3.48023">
        <ele>87.599998474121</ele>
        <time>2023-12-19T15:38:58Z</time>
      </trkpt>
      <trkpt lat="43.44095" lon="3.48017">
        <ele>87.800003051758</ele>
        <time>2023-12-19T15:38:59Z</time>
      </trkpt>
      <trkpt lat="43.44095" lon="3.48012">
        <ele>87.800003051758</ele>
        <time>2023-12-19T15:39:00Z</time>
      </trkpt>
      <trkpt lat="43.44096" lon="3.48006">
        <ele>87.800003051758</ele>
        <time>2023-12-19T15:39:01Z</time>
      </trkpt>
      <trkpt lat="43.44097" lon="3.48">
        <ele>87.800003051758</ele>
        <time>2023-12-19T15:39:02Z</time>
      </trkpt>
      <trkpt lat="43.44098" lon="3.47995">
        <ele>87.800003051758</ele>
        <time>2023-12-19T15:39:03Z</time>
      </trkpt>
      <trkpt lat="43.44099" lon="3.47991">
        <ele>87.599998474121</ele>
        <time>2023-12-19T15:39:04Z</time>
      </trkpt>
      <trkpt lat="43.44101" lon="3.47989">
        <ele>87.400001525879</ele>
        <time>2023-12-19T15:39:05Z</time>
      </trkpt>
      <trkpt lat="43.44102" lon="3.47986">
        <ele>87.199996948242</ele>
        <time>2023-12-19T15:39:06Z</time>
      </trkpt>
      <trkpt lat="43.441" lon="3.47984">
        <ele>87</ele>
        <time>2023-12-19T15:39:07Z</time>
      </trkpt>
      <trkpt lat="43.44098" lon="3.47984">
        <ele>86.800003051758</ele>
        <time>2023-12-19T15:39:08Z</time>
      </trkpt>
      <trkpt lat="43.44097" lon="3.47982">
        <ele>86.599998474121</ele>
        <time>2023-12-19T15:39:09Z</time>
      </trkpt>
      <trkpt lat="43.44096" lon="3.4798">
        <ele>86.400001525879</ele>
        <time>2023-12-19T15:39:10Z</time>
      </trkpt>
      <trkpt lat="43.44095" lon="3.47977">
        <ele>86.400001525879</ele>
        <time>2023-12-19T15:39:11Z</time>
      </trkpt>
      <trkpt lat="43.44094" lon="3.47975">
        <ele>86.400001525879</ele>
        <time>2023-12-19T15:39:12Z</time>
      </trkpt>
      <trkpt lat="43.44093" lon="3.47975">
        <ele>86.400001525879</ele>
        <time>2023-12-19T15:39:13Z</time>
      </trkpt>
      <trkpt lat="43.44094" lon="3.47975">
        <ele>86.400001525879</ele>
        <time>2023-12-19T15:39:14Z</time>
      </trkpt>
      <trkpt lat="43.44094" lon="3.47975">
        <ele>86.199996948242</ele>
        <time>2023-12-19T15:39:15Z</time>
      </trkpt>
      <trkpt lat="43.44098" lon="3.47983">
        <ele>86.599998474121</ele>
        <time>2023-12-19T15:39:37Z</time>
      </trkpt>
      <trkpt lat="43.441" lon="3.47983">
        <ele>86.599998474121</ele>
        <time>2023-12-19T15:39:38Z</time>
      </trkpt>
      <trkpt lat="43.44101" lon="3.47983">
        <ele>86.400001525879</ele>
        <time>2023-12-19T15:39:39Z</time>
      </trkpt>
      <trkpt lat="43.44102" lon="3.47984">
        <ele>86.400001525879</ele>
        <time>2023-12-19T15:39:40Z</time>
      </trkpt>
      <trkpt lat="43.44104" lon="3.47985">
        <ele>86.400001525879</ele>
        <time>2023-12-19T15:39:41Z</time>
      </trkpt>
      <trkpt lat="43.44104" lon="3.47985">
        <ele>86.400001525879</ele>
        <time>2023-12-19T15:39:42Z</time>
      </trkpt>
      <trkpt lat="43.44105" lon="3.47986">
        <ele>86.400001525879</ele>
        <time>2023-12-19T15:39:43Z</time>
      </trkpt>
      <trkpt lat="43.44106" lon="3.47985">
        <ele>86.400001525879</ele>
        <time>2023-12-19T15:39:44Z</time>
      </trkpt>
      <trkpt lat="43.44107" lon="3.47985">
        <ele>86.199996948242</ele>
        <time>2023-12-19T15:39:45Z</time>
      </trkpt>
      <trkpt lat="43.44107" lon="3.47985">
        <ele>86.199996948242</ele>
        <time>2023-12-19T15:39:46Z</time>
      </trkpt>
      <trkpt lat="43.44108" lon="3.47985">
        <ele>86.199996948242</ele>
        <time>2023-12-19T15:39:47Z</time>
      </trkpt>
      <trkpt lat="43.44108" lon="3.47985">
        <ele>86.199996948242</ele>
        <time>2023-12-19T15:39:48Z</time>
      </trkpt>
      <trkpt lat="43.44109" lon="3.47985">
        <ele>86.400001525879</ele>
        <time>2023-12-19T15:39:49Z</time>
      </trkpt>
      <trkpt lat="43.4411" lon="3.47985">
        <ele>86.599998474121</ele>
        <time>2023-12-19T15:39:50Z</time>
      </trkpt>
      <trkpt lat="43.44109" lon="3.47985">
        <ele>86.599998474121</ele>
        <time>2023-12-19T15:39:51Z</time>
      </trkpt>
      <trkpt lat="43.4411" lon="3.47985">
        <ele>86.599998474121</ele>
        <time>2023-12-19T15:39:52Z</time>
      </trkpt>
      <trkpt lat="43.44113" lon="3.47983">
        <ele>85.800003051758</ele>
        <time>2023-12-19T15:39:56Z</time>
      </trkpt>
      <trkpt lat="43.44115" lon="3.4798">
        <ele>85.800003051758</ele>
        <time>2023-12-19T15:39:57Z</time>
      </trkpt>
      <trkpt lat="43.44118" lon="3.47977">
        <ele>85.599998474121</ele>
        <time>2023-12-19T15:39:58Z</time>
      </trkpt>
      <trkpt lat="43.4412" lon="3.47973">
        <ele>85.199996948242</ele>
        <time>2023-12-19T15:39:59Z</time>
      </trkpt>
      <trkpt lat="43.44122" lon="3.4797">
        <ele>84.400001525879</ele>
        <time>2023-12-19T15:40:00Z</time>
      </trkpt>
      <trkpt lat="43.44123" lon="3.47967">
        <ele>83.199996948242</ele>
        <time>2023-12-19T15:40:01Z</time>
      </trkpt>
      <trkpt lat="43.44125" lon="3.47962">
        <ele>82.400001525879</ele>
        <time>2023-12-19T15:40:02Z</time>
      </trkpt>
      <trkpt lat="43.44127" lon="3.47958">
        <ele>81.599998474121</ele>
        <time>2023-12-19T15:40:03Z</time>
      </trkpt>
      <trkpt lat="43.4413" lon="3.47953">
        <ele>81</ele>
        <time>2023-12-19T15:40:04Z</time>
      </trkpt>
      <trkpt lat="43.44132" lon="3.47948">
        <ele>80.400001525879</ele>
        <time>2023-12-19T15:40:05Z</time>
      </trkpt>
      <trkpt lat="43.44136" lon="3.47944">
        <ele>79.800003051758</ele>
        <time>2023-12-19T15:40:06Z</time>
      </trkpt>
      <trkpt lat="43.44139" lon="3.4794">
        <ele>79.199996948242</ele>
        <time>2023-12-19T15:40:07Z</time>
      </trkpt>
      <trkpt lat="43.44143" lon="3.47937">
        <ele>78.599998474121</ele>
        <time>2023-12-19T15:40:08Z</time>
      </trkpt>
      <trkpt lat="43.44145" lon="3.47935">
        <ele>78.400001525879</ele>
        <time>2023-12-19T15:40:09Z</time>
      </trkpt>
      <trkpt lat="43.44147" lon="3.47933">
        <ele>78.199996948242</ele>
        <time>2023-12-19T15:40:10Z</time>
      </trkpt>
      <trkpt lat="43.4415" lon="3.47931">
        <ele>77.800003051758</ele>
        <time>2023-12-19T15:40:11Z</time>
      </trkpt>
      <trkpt lat="43.44153" lon="3.47929">
        <ele>77.800003051758</ele>
        <time>2023-12-19T15:40:12Z</time>
      </trkpt>
      <trkpt lat="43.44157" lon="3.47927">
        <ele>77.599998474121</ele>
        <time>2023-12-19T15:40:13Z</time>
      </trkpt>
      <trkpt lat="43.44161" lon="3.47924">
        <ele>77.599998474121</ele>
        <time>2023-12-19T15:40:14Z</time>
      </trkpt>
      <trkpt lat="43.44165" lon="3.47922">
        <ele>77.599998474121</ele>
        <time>2023-12-19T15:40:15Z</time>
      </trkpt>
      <trkpt lat="43.4417" lon="3.47919">
        <ele>77.599998474121</ele>
        <time>2023-12-19T15:40:16Z</time>
      </trkpt>
      <trkpt lat="43.44174" lon="3.47917">
        <ele>77.400001525879</ele>
        <time>2023-12-19T15:40:17Z</time>
      </trkpt>
      <trkpt lat="43.44178" lon="3.47915">
        <ele>77.199996948242</ele>
        <time>2023-12-19T15:40:18Z</time>
      </trkpt>
      <trkpt lat="43.44182" lon="3.47913">
        <ele>77</ele>
        <time>2023-12-19T15:40:19Z</time>
      </trkpt>
      <trkpt lat="43.44186" lon="3.47912">
        <ele>76.800003051758</ele>
        <time>2023-12-19T15:40:20Z</time>
      </trkpt>
      <trkpt lat="43.4419" lon="3.47914">
        <ele>76.800003051758</ele>
        <time>2023-12-19T15:40:21Z</time>
      </trkpt>
      <trkpt lat="43.44193" lon="3.47917">
        <ele>76.599998474121</ele>
        <time>2023-12-19T15:40:22Z</time>
      </trkpt>
      <trkpt lat="43.44195" lon="3.4792">
        <ele>76.599998474121</ele>
        <time>2023-12-19T15:40:23Z</time>
      </trkpt>
      <trkpt lat="43.44196" lon="3.47923">
        <ele>76.599998474121</ele>
        <time>2023-12-19T15:40:24Z</time>
      </trkpt>
      <trkpt lat="43.44197" lon="3.47925">
        <ele>76.599998474121</ele>
        <time>2023-12-19T15:40:25Z</time>
      </trkpt>
      <trkpt lat="43.44198" lon="3.47927">
        <ele>76.599998474121</ele>
        <time>2023-12-19T15:40:26Z</time>
      </trkpt>
      <trkpt lat="43.44199" lon="3.47929">
        <ele>76.599998474121</ele>
        <time>2023-12-19T15:40:27Z</time>
      </trkpt>
      <trkpt lat="43.442" lon="3.47929">
        <ele>76.599998474121</ele>
        <time>2023-12-19T15:40:28Z</time>
      </trkpt>
      <trkpt lat="43.442" lon="3.47929">
        <ele>76.599998474121</ele>
        <time>2023-12-19T15:40:29Z</time>
      </trkpt>
      <trkpt lat="43.44201" lon="3.47938">
        <ele>77.199996948242</ele>
        <time>2023-12-19T15:40:46Z</time>
      </trkpt>
      <trkpt lat="43.44203" lon="3.47941">
        <ele>77.199996948242</ele>
        <time>2023-12-19T15:40:47Z</time>
      </trkpt>
      <trkpt lat="43.44204" lon="3.47944">
        <ele>77.199996948242</ele>
        <time>2023-12-19T15:40:48Z</time>
      </trkpt>
      <trkpt lat="43.44207" lon="3.47947">
        <ele>77</ele>
        <time>2023-12-19T15:40:49Z</time>
      </trkpt>
      <trkpt lat="43.4421" lon="3.47948">
        <ele>77</ele>
        <time>2023-12-19T15:40:50Z</time>
      </trkpt>
      <trkpt lat="43.44213" lon="3.47948">
        <ele>76.800003051758</ele>
        <time>2023-12-19T15:40:51Z</time>
      </trkpt>
      <trkpt lat="43.44215" lon="3.47946">
        <ele>76.599998474121</ele>
        <time>2023-12-19T15:40:52Z</time>
      </trkpt>
      <trkpt lat="43.44218" lon="3.47943">
        <ele>76.400001525879</ele>
        <time>2023-12-19T15:40:53Z</time>
      </trkpt>
      <trkpt lat="43.44221" lon="3.47941">
        <ele>76.199996948242</ele>
        <time>2023-12-19T15:40:54Z</time>
      </trkpt>
      <trkpt lat="43.44223" lon="3.47938">
        <ele>76</ele>
        <time>2023-12-19T15:40:55Z</time>
      </trkpt>
      <trkpt lat="43.44225" lon="3.47935">
        <ele>75.800003051758</ele>
        <time>2023-12-19T15:40:56Z</time>
      </trkpt>
      <trkpt lat="43.44227" lon="3.47932">
        <ele>75.599998474121</ele>
        <time>2023-12-19T15:40:57Z</time>
      </trkpt>
      <trkpt lat="43.44229" lon="3.47928">
        <ele>75.599998474121</ele>
        <time>2023-12-19T15:40:58Z</time>
      </trkpt>
      <trkpt lat="43.4423" lon="3.47924">
        <ele>75.599998474121</ele>
        <time>2023-12-19T15:40:59Z</time>
      </trkpt>
      <trkpt lat="43.44233" lon="3.4792">
        <ele>75.599998474121</ele>
        <time>2023-12-19T15:41:00Z</time>
      </trkpt>
      <trkpt lat="43.44235" lon="3.47917">
        <ele>75.599998474121</ele>
        <time>2023-12-19T15:41:01Z</time>
      </trkpt>
      <trkpt lat="43.44236" lon="3.47914">
        <ele>75.599998474121</ele>
        <time>2023-12-19T15:41:02Z</time>
      </trkpt>
      <trkpt lat="43.44238" lon="3.4791">
        <ele>75.599998474121</ele>
        <time>2023-12-19T15:41:03Z</time>
      </trkpt>
      <trkpt lat="43.4424" lon="3.47906">
        <ele>75.800003051758</ele>
        <time>2023-12-19T15:41:04Z</time>
      </trkpt>
      <trkpt lat="43.44242" lon="3.47902">
        <ele>75.800003051758</ele>
        <time>2023-12-19T15:41:05Z</time>
      </trkpt>
      <trkpt lat="43.44244" lon="3.47898">
        <ele>76</ele>
        <time>2023-12-19T15:41:06Z</time>
      </trkpt>
      <trkpt lat="43.44246" lon="3.47894">
        <ele>76</ele>
        <time>2023-12-19T15:41:07Z</time>
      </trkpt>
      <trkpt lat="43.44247" lon="3.4789">
        <ele>76.199996948242</ele>
        <time>2023-12-19T15:41:08Z</time>
      </trkpt>
      <trkpt lat="43.44248" lon="3.47884">
        <ele>76.400001525879</ele>
        <time>2023-12-19T15:41:09Z</time>
      </trkpt>
      <trkpt lat="43.44249" lon="3.4788">
        <ele>76.599998474121</ele>
        <time>2023-12-19T15:41:10Z</time>
      </trkpt>
      <trkpt lat="43.44251" lon="3.47874">
        <ele>76.599998474121</ele>
        <time>2023-12-19T15:41:11Z</time>
      </trkpt>
      <trkpt lat="43.44253" lon="3.47869">
        <ele>76.800003051758</ele>
        <time>2023-12-19T15:41:12Z</time>
      </trkpt>
      <trkpt lat="43.44255" lon="3.47863">
        <ele>76.800003051758</ele>
        <time>2023-12-19T15:41:13Z</time>
      </trkpt>
      <trkpt lat="43.44257" lon="3.47859">
        <ele>76.599998474121</ele>
        <time>2023-12-19T15:41:14Z</time>
      </trkpt>
      <trkpt lat="43.44259" lon="3.47855">
        <ele>76.400001525879</ele>
        <time>2023-12-19T15:41:15Z</time>
      </trkpt>
      <trkpt lat="43.44262" lon="3.47852">
        <ele>76.199996948242</ele>
        <time>2023-12-19T15:41:16Z</time>
      </trkpt>
      <trkpt lat="43.44263" lon="3.47848">
        <ele>76.199996948242</ele>
        <time>2023-12-19T15:41:17Z</time>
      </trkpt>
      <trkpt lat="43.44265" lon="3.47844">
        <ele>76.199996948242</ele>
        <time>2023-12-19T15:41:18Z</time>
      </trkpt>
      <trkpt lat="43.44267" lon="3.47839">
        <ele>76.400001525879</ele>
        <time>2023-12-19T15:41:19Z</time>
      </trkpt>
      <trkpt lat="43.44268" lon="3.47834">
        <ele>76.400001525879</ele>
        <time>2023-12-19T15:41:20Z</time>
      </trkpt>
      <trkpt lat="43.4427" lon="3.47829">
        <ele>76.400001525879</ele>
        <time>2023-12-19T15:41:21Z</time>
      </trkpt>
      <trkpt lat="43.44271" lon="3.47824">
        <ele>76.599998474121</ele>
        <time>2023-12-19T15:41:22Z</time>
      </trkpt>
      <trkpt lat="43.44273" lon="3.4782">
        <ele>77</ele>
        <time>2023-12-19T15:41:23Z</time>
      </trkpt>
      <trkpt lat="43.44274" lon="3.47815">
        <ele>77.199996948242</ele>
        <time>2023-12-19T15:41:24Z</time>
      </trkpt>
      <trkpt lat="43.44274" lon="3.4781">
        <ele>77.400001525879</ele>
        <time>2023-12-19T15:41:25Z</time>
      </trkpt>
      <trkpt lat="43.44274" lon="3.47804">
        <ele>77.599998474121</ele>
        <time>2023-12-19T15:41:26Z</time>
      </trkpt>
      <trkpt lat="43.44274" lon="3.47799">
        <ele>77.800003051758</ele>
        <time>2023-12-19T15:41:27Z</time>
      </trkpt>
      <trkpt lat="43.44274" lon="3.47794">
        <ele>77.800003051758</ele>
        <time>2023-12-19T15:41:28Z</time>
      </trkpt>
      <trkpt lat="43.44274" lon="3.4779">
        <ele>78</ele>
        <time>2023-12-19T15:41:29Z</time>
      </trkpt>
      <trkpt lat="43.44275" lon="3.47786">
        <ele>78</ele>
        <time>2023-12-19T15:41:30Z</time>
      </trkpt>
      <trkpt lat="43.44276" lon="3.47782">
        <ele>78</ele>
        <time>2023-12-19T15:41:31Z</time>
      </trkpt>
      <trkpt lat="43.44278" lon="3.47779">
        <ele>78.199996948242</ele>
        <time>2023-12-19T15:41:32Z</time>
      </trkpt>
      <trkpt lat="43.4428" lon="3.47776">
        <ele>78.199996948242</ele>
        <time>2023-12-19T15:41:33Z</time>
      </trkpt>
      <trkpt lat="43.44283" lon="3.47774">
        <ele>78.400001525879</ele>
        <time>2023-12-19T15:41:34Z</time>
      </trkpt>
      <trkpt lat="43.44285" lon="3.47771">
        <ele>78.400001525879</ele>
        <time>2023-12-19T15:41:35Z</time>
      </trkpt>
      <trkpt lat="43.44287" lon="3.47767">
        <ele>78.400001525879</ele>
        <time>2023-12-19T15:41:36Z</time>
      </trkpt>
      <trkpt lat="43.44288" lon="3.47763">
        <ele>78.400001525879</ele>
        <time>2023-12-19T15:41:37Z</time>
      </trkpt>
      <trkpt lat="43.44287" lon="3.47759">
        <ele>78.199996948242</ele>
        <time>2023-12-19T15:41:38Z</time>
      </trkpt>
      <trkpt lat="43.44285" lon="3.47757">
        <ele>78.199996948242</ele>
        <time>2023-12-19T15:41:39Z</time>
      </trkpt>
      <trkpt lat="43.44284" lon="3.47755">
        <ele>78.199996948242</ele>
        <time>2023-12-19T15:41:40Z</time>
      </trkpt>
      <trkpt lat="43.44282" lon="3.47751">
        <ele>78.199996948242</ele>
        <time>2023-12-19T15:41:41Z</time>
      </trkpt>
      <trkpt lat="43.4428" lon="3.47748">
        <ele>78.199996948242</ele>
        <time>2023-12-19T15:41:42Z</time>
      </trkpt>
      <trkpt lat="43.44278" lon="3.47744">
        <ele>78.199996948242</ele>
        <time>2023-12-19T15:41:43Z</time>
      </trkpt>
      <trkpt lat="43.44277" lon="3.4774">
        <ele>78.400001525879</ele>
        <time>2023-12-19T15:41:44Z</time>
      </trkpt>
      <trkpt lat="43.44275" lon="3.47735">
        <ele>78.400001525879</ele>
        <time>2023-12-19T15:41:45Z</time>
      </trkpt>
      <trkpt lat="43.44274" lon="3.4773">
        <ele>78.400001525879</ele>
        <time>2023-12-19T15:41:46Z</time>
      </trkpt>
      <trkpt lat="43.44273" lon="3.47725">
        <ele>78.400001525879</ele>
        <time>2023-12-19T15:41:47Z</time>
      </trkpt>
      <trkpt lat="43.44272" lon="3.47719">
        <ele>78.400001525879</ele>
        <time>2023-12-19T15:41:48Z</time>
      </trkpt>
      <trkpt lat="43.44271" lon="3.47714">
        <ele>78.400001525879</ele>
        <time>2023-12-19T15:41:49Z</time>
      </trkpt>
      <trkpt lat="43.44271" lon="3.47709">
        <ele>78.400001525879</ele>
        <time>2023-12-19T15:41:50Z</time>
      </trkpt>
      <trkpt lat="43.44272" lon="3.47704">
        <ele>78.400001525879</ele>
        <time>2023-12-19T15:41:51Z</time>
      </trkpt>
      <trkpt lat="43.44273" lon="3.47699">
        <ele>78.599998474121</ele>
        <time>2023-12-19T15:41:52Z</time>
      </trkpt>
      <trkpt lat="43.44274" lon="3.47694">
        <ele>79</ele>
        <time>2023-12-19T15:41:53Z</time>
      </trkpt>
      <trkpt lat="43.44275" lon="3.47689">
        <ele>79.199996948242</ele>
        <time>2023-12-19T15:41:54Z</time>
      </trkpt>
      <trkpt lat="43.44276" lon="3.47684">
        <ele>79.199996948242</ele>
        <time>2023-12-19T15:41:55Z</time>
      </trkpt>
      <trkpt lat="43.44277" lon="3.4768">
        <ele>79.199996948242</ele>
        <time>2023-12-19T15:41:56Z</time>
      </trkpt>
      <trkpt lat="43.44279" lon="3.47675">
        <ele>79.400001525879</ele>
        <time>2023-12-19T15:41:57Z</time>
      </trkpt>
      <trkpt lat="43.44281" lon="3.4767">
        <ele>79.599998474121</ele>
        <time>2023-12-19T15:41:58Z</time>
      </trkpt>
      <trkpt lat="43.44282" lon="3.47665">
        <ele>79.599998474121</ele>
        <time>2023-12-19T15:41:59Z</time>
      </trkpt>
      <trkpt lat="43.44283" lon="3.4766">
        <ele>79.800003051758</ele>
        <time>2023-12-19T15:42:00Z</time>
      </trkpt>
      <trkpt lat="43.44285" lon="3.47654">
        <ele>80</ele>
        <time>2023-12-19T15:42:01Z</time>
      </trkpt>
      <trkpt lat="43.44287" lon="3.47649">
        <ele>80.400001525879</ele>
        <time>2023-12-19T15:42:02Z</time>
      </trkpt>
      <trkpt lat="43.44289" lon="3.47644">
        <ele>80.599998474121</ele>
        <time>2023-12-19T15:42:03Z</time>
      </trkpt>
      <trkpt lat="43.44291" lon="3.47638">
        <ele>80.800003051758</ele>
        <time>2023-12-19T15:42:04Z</time>
      </trkpt>
      <trkpt lat="43.44292" lon="3.47632">
        <ele>80.800003051758</ele>
        <time>2023-12-19T15:42:05Z</time>
      </trkpt>
      <trkpt lat="43.44295" lon="3.47625">
        <ele>80.800003051758</ele>
        <time>2023-12-19T15:42:06Z</time>
      </trkpt>
      <trkpt lat="43.44297" lon="3.47619">
        <ele>81</ele>
        <time>2023-12-19T15:42:07Z</time>
      </trkpt>
      <trkpt lat="43.44298" lon="3.47613">
        <ele>81</ele>
        <time>2023-12-19T15:42:08Z</time>
      </trkpt>
      <trkpt lat="43.443" lon="3.47607">
        <ele>81</ele>
        <time>2023-12-19T15:42:09Z</time>
      </trkpt>
      <trkpt lat="43.44301" lon="3.47601">
        <ele>81.199996948242</ele>
        <time>2023-12-19T15:42:10Z</time>
      </trkpt>
      <trkpt lat="43.44303" lon="3.47595">
        <ele>81.400001525879</ele>
        <time>2023-12-19T15:42:11Z</time>
      </trkpt>
      <trkpt lat="43.44304" lon="3.4759">
        <ele>81.800003051758</ele>
        <time>2023-12-19T15:42:12Z</time>
      </trkpt>
      <trkpt lat="43.44306" lon="3.47584">
        <ele>82</ele>
        <time>2023-12-19T15:42:13Z</time>
      </trkpt>
      <trkpt lat="43.44306" lon="3.47578">
        <ele>82.400001525879</ele>
        <time>2023-12-19T15:42:14Z</time>
      </trkpt>
      <trkpt lat="43.44307" lon="3.47572">
        <ele>83</ele>
        <time>2023-12-19T15:42:15Z</time>
      </trkpt>
      <trkpt lat="43.44308" lon="3.47566">
        <ele>83.199996948242</ele>
        <time>2023-12-19T15:42:16Z</time>
      </trkpt>
      <trkpt lat="43.44309" lon="3.4756">
        <ele>83.599998474121</ele>
        <time>2023-12-19T15:42:17Z</time>
      </trkpt>
      <trkpt lat="43.44311" lon="3.47555">
        <ele>83.800003051758</ele>
        <time>2023-12-19T15:42:18Z</time>
      </trkpt>
      <trkpt lat="43.44313" lon="3.4755">
        <ele>84</ele>
        <time>2023-12-19T15:42:19Z</time>
      </trkpt>
      <trkpt lat="43.44315" lon="3.47545">
        <ele>84.199996948242</ele>
        <time>2023-12-19T15:42:20Z</time>
      </trkpt>
      <trkpt lat="43.44317" lon="3.4754">
        <ele>84.199996948242</ele>
        <time>2023-12-19T15:42:21Z</time>
      </trkpt>
      <trkpt lat="43.4432" lon="3.47535">
        <ele>84.400001525879</ele>
        <time>2023-12-19T15:42:22Z</time>
      </trkpt>
      <trkpt lat="43.44322" lon="3.4753">
        <ele>84.400001525879</ele>
        <time>2023-12-19T15:42:23Z</time>
      </trkpt>
      <trkpt lat="43.44324" lon="3.47525">
        <ele>84.400001525879</ele>
        <time>2023-12-19T15:42:24Z</time>
      </trkpt>
      <trkpt lat="43.44325" lon="3.4752">
        <ele>84.400001525879</ele>
        <time>2023-12-19T15:42:25Z</time>
      </trkpt>
      <trkpt lat="43.44325" lon="3.47514">
        <ele>84.400001525879</ele>
        <time>2023-12-19T15:42:26Z</time>
      </trkpt>
      <trkpt lat="43.44325" lon="3.4751">
        <ele>84.599998474121</ele>
        <time>2023-12-19T15:42:27Z</time>
      </trkpt>
      <trkpt lat="43.44324" lon="3.47506">
        <ele>84.800003051758</ele>
        <time>2023-12-19T15:42:28Z</time>
      </trkpt>
      <trkpt lat="43.44323" lon="3.47501">
        <ele>85</ele>
        <time>2023-12-19T15:42:29Z</time>
      </trkpt>
      <trkpt lat="43.44322" lon="3.47496">
        <ele>85.400001525879</ele>
        <time>2023-12-19T15:42:30Z</time>
      </trkpt>
      <trkpt lat="43.44321" lon="3.47491">
        <ele>85.800003051758</ele>
        <time>2023-12-19T15:42:31Z</time>
      </trkpt>
      <trkpt lat="43.44319" lon="3.47486">
        <ele>86.199996948242</ele>
        <time>2023-12-19T15:42:32Z</time>
      </trkpt>
      <trkpt lat="43.44317" lon="3.4748">
        <ele>86.199996948242</ele>
        <time>2023-12-19T15:42:33Z</time>
      </trkpt>
      <trkpt lat="43.44316" lon="3.47474">
        <ele>86.199996948242</ele>
        <time>2023-12-19T15:42:34Z</time>
      </trkpt>
      <trkpt lat="43.44315" lon="3.47467">
        <ele>86.199996948242</ele>
        <time>2023-12-19T15:42:35Z</time>
      </trkpt>
      <trkpt lat="43.44314" lon="3.47461">
        <ele>86.199996948242</ele>
        <time>2023-12-19T15:42:36Z</time>
      </trkpt>
      <trkpt lat="43.44312" lon="3.47455">
        <ele>85.599998474121</ele>
        <time>2023-12-19T15:42:37Z</time>
      </trkpt>
      <trkpt lat="43.44309" lon="3.47449">
        <ele>85</ele>
        <time>2023-12-19T15:42:38Z</time>
      </trkpt>
      <trkpt lat="43.44307" lon="3.47444">
        <ele>84.599998474121</ele>
        <time>2023-12-19T15:42:39Z</time>
      </trkpt>
      <trkpt lat="43.44303" lon="3.47439">
        <ele>84.599998474121</ele>
        <time>2023-12-19T15:42:40Z</time>
      </trkpt>
      <trkpt lat="43.443" lon="3.47434">
        <ele>84.400001525879</ele>
        <time>2023-12-19T15:42:41Z</time>
      </trkpt>
      <trkpt lat="43.44295" lon="3.47431">
        <ele>84.400001525879</ele>
        <time>2023-12-19T15:42:42Z</time>
      </trkpt>
      <trkpt lat="43.44291" lon="3.47428">
        <ele>84.400001525879</ele>
        <time>2023-12-19T15:42:43Z</time>
      </trkpt>
      <trkpt lat="43.44286" lon="3.47426">
        <ele>84.199996948242</ele>
        <time>2023-12-19T15:42:44Z</time>
      </trkpt>
      <trkpt lat="43.44281" lon="3.47424">
        <ele>84</ele>
        <time>2023-12-19T15:42:45Z</time>
      </trkpt>
      <trkpt lat="43.44276" lon="3.47422">
        <ele>84</ele>
        <time>2023-12-19T15:42:46Z</time>
      </trkpt>
      <trkpt lat="43.44272" lon="3.47421">
        <ele>84</ele>
        <time>2023-12-19T15:42:47Z</time>
      </trkpt>
      <trkpt lat="43.44268" lon="3.47421">
        <ele>83.800003051758</ele>
        <time>2023-12-19T15:42:48Z</time>
      </trkpt>
      <trkpt lat="43.44264" lon="3.47421">
        <ele>83.800003051758</ele>
        <time>2023-12-19T15:42:49Z</time>
      </trkpt>
      <trkpt lat="43.44261" lon="3.47422">
        <ele>83.599998474121</ele>
        <time>2023-12-19T15:42:50Z</time>
      </trkpt>
      <trkpt lat="43.44257" lon="3.47423">
        <ele>83.400001525879</ele>
        <time>2023-12-19T15:42:51Z</time>
      </trkpt>
      <trkpt lat="43.44254" lon="3.47426">
        <ele>83.400001525879</ele>
        <time>2023-12-19T15:42:52Z</time>
      </trkpt>
      <trkpt lat="43.44251" lon="3.47427">
        <ele>83.199996948242</ele>
        <time>2023-12-19T15:42:53Z</time>
      </trkpt>
      <trkpt lat="43.44247" lon="3.47426">
        <ele>82.800003051758</ele>
        <time>2023-12-19T15:42:54Z</time>
      </trkpt>
      <trkpt lat="43.44242" lon="3.47424">
        <ele>82.599998474121</ele>
        <time>2023-12-19T15:42:55Z</time>
      </trkpt>
      <trkpt lat="43.44237" lon="3.4742">
        <ele>82.199996948242</ele>
        <time>2023-12-19T15:42:56Z</time>
      </trkpt>
      <trkpt lat="43.44233" lon="3.47415">
        <ele>81.800003051758</ele>
        <time>2023-12-19T15:42:57Z</time>
      </trkpt>
      <trkpt lat="43.44228" lon="3.47409">
        <ele>81.199996948242</ele>
        <time>2023-12-19T15:42:58Z</time>
      </trkpt>
      <trkpt lat="43.44224" lon="3.47405">
        <ele>80.599998474121</ele>
        <time>2023-12-19T15:42:59Z</time>
      </trkpt>
      <trkpt lat="43.44219" lon="3.47402">
        <ele>79.800003051758</ele>
        <time>2023-12-19T15:43:00Z</time>
      </trkpt>
      <trkpt lat="43.44216" lon="3.47399">
        <ele>79.199996948242</ele>
        <time>2023-12-19T15:43:01Z</time>
      </trkpt>
      <trkpt lat="43.44213" lon="3.47395">
        <ele>78.800003051758</ele>
        <time>2023-12-19T15:43:02Z</time>
      </trkpt>
      <trkpt lat="43.4421" lon="3.4739">
        <ele>78.199996948242</ele>
        <time>2023-12-19T15:43:03Z</time>
      </trkpt>
      <trkpt lat="43.44208" lon="3.47387">
        <ele>77.800003051758</ele>
        <time>2023-12-19T15:43:04Z</time>
      </trkpt>
      <trkpt lat="43.44207" lon="3.47382">
        <ele>77.599998474121</ele>
        <time>2023-12-19T15:43:05Z</time>
      </trkpt>
      <trkpt lat="43.44207" lon="3.47377">
        <ele>77.400001525879</ele>
        <time>2023-12-19T15:43:06Z</time>
      </trkpt>
      <trkpt lat="43.44207" lon="3.47373">
        <ele>77</ele>
        <time>2023-12-19T15:43:07Z</time>
      </trkpt>
      <trkpt lat="43.44207" lon="3.47369">
        <ele>77</ele>
        <time>2023-12-19T15:43:08Z</time>
      </trkpt>
      <trkpt lat="43.44207" lon="3.47365">
        <ele>76.599998474121</ele>
        <time>2023-12-19T15:43:09Z</time>
      </trkpt>
      <trkpt lat="43.44205" lon="3.4736">
        <ele>76.599998474121</ele>
        <time>2023-12-19T15:43:10Z</time>
      </trkpt>
      <trkpt lat="43.44202" lon="3.47356">
        <ele>76.599998474121</ele>
        <time>2023-12-19T15:43:11Z</time>
      </trkpt>
      <trkpt lat="43.44199" lon="3.4735">
        <ele>76.400001525879</ele>
        <time>2023-12-19T15:43:12Z</time>
      </trkpt>
      <trkpt lat="43.44198" lon="3.47344">
        <ele>76.199996948242</ele>
        <time>2023-12-19T15:43:13Z</time>
      </trkpt>
      <trkpt lat="43.44198" lon="3.47339">
        <ele>75.800003051758</ele>
        <time>2023-12-19T15:43:14Z</time>
      </trkpt>
      <trkpt lat="43.44198" lon="3.47334">
        <ele>75.599998474121</ele>
        <time>2023-12-19T15:43:15Z</time>
      </trkpt>
      <trkpt lat="43.44197" lon="3.4733">
        <ele>75.599998474121</ele>
        <time>2023-12-19T15:43:16Z</time>
      </trkpt>
      <trkpt lat="43.44196" lon="3.47327">
        <ele>75.400001525879</ele>
        <time>2023-12-19T15:43:17Z</time>
      </trkpt>
      <trkpt lat="43.44193" lon="3.47323">
        <ele>75.199996948242</ele>
        <time>2023-12-19T15:43:18Z</time>
      </trkpt>
      <trkpt lat="43.44189" lon="3.47319">
        <ele>74.800003051758</ele>
        <time>2023-12-19T15:43:19Z</time>
      </trkpt>
      <trkpt lat="43.44185" lon="3.47315">
        <ele>74.599998474121</ele>
        <time>2023-12-19T15:43:20Z</time>
      </trkpt>
      <trkpt lat="43.44183" lon="3.47311">
        <ele>74.199996948242</ele>
        <time>2023-12-19T15:43:21Z</time>
      </trkpt>
      <trkpt lat="43.44182" lon="3.47307">
        <ele>73.599998474121</ele>
        <time>2023-12-19T15:43:22Z</time>
      </trkpt>
      <trkpt lat="43.44182" lon="3.47302">
        <ele>72.800003051758</ele>
        <time>2023-12-19T15:43:23Z</time>
      </trkpt>
      <trkpt lat="43.44182" lon="3.47297">
        <ele>72.199996948242</ele>
        <time>2023-12-19T15:43:24Z</time>
      </trkpt>
      <trkpt lat="43.44185" lon="3.47293">
        <ele>71.599998474121</ele>
        <time>2023-12-19T15:43:25Z</time>
      </trkpt>
      <trkpt lat="43.44189" lon="3.4729">
        <ele>71.400001525879</ele>
        <time>2023-12-19T15:43:26Z</time>
      </trkpt>
      <trkpt lat="43.44194" lon="3.47288">
        <ele>71.199996948242</ele>
        <time>2023-12-19T15:43:27Z</time>
      </trkpt>
      <trkpt lat="43.44196" lon="3.47286">
        <ele>71</ele>
        <time>2023-12-19T15:43:28Z</time>
      </trkpt>
      <trkpt lat="43.44198" lon="3.47282">
        <ele>70.800003051758</ele>
        <time>2023-12-19T15:43:29Z</time>
      </trkpt>
      <trkpt lat="43.442" lon="3.47278">
        <ele>70.599998474121</ele>
        <time>2023-12-19T15:43:30Z</time>
      </trkpt>
      <trkpt lat="43.44202" lon="3.47275">
        <ele>70.599998474121</ele>
        <time>2023-12-19T15:43:31Z</time>
      </trkpt>
      <trkpt lat="43.44204" lon="3.47271">
        <ele>70.599998474121</ele>
        <time>2023-12-19T15:43:32Z</time>
      </trkpt>
      <trkpt lat="43.44207" lon="3.47266">
        <ele>70.599998474121</ele>
        <time>2023-12-19T15:43:33Z</time>
      </trkpt>
      <trkpt lat="43.44208" lon="3.4726">
        <ele>70.800003051758</ele>
        <time>2023-12-19T15:43:34Z</time>
      </trkpt>
      <trkpt lat="43.44209" lon="3.47255">
        <ele>71</ele>
        <time>2023-12-19T15:43:35Z</time>
      </trkpt>
      <trkpt lat="43.44208" lon="3.47249">
        <ele>71</ele>
        <time>2023-12-19T15:43:36Z</time>
      </trkpt>
      <trkpt lat="43.44208" lon="3.47243">
        <ele>71</ele>
        <time>2023-12-19T15:43:37Z</time>
      </trkpt>
      <trkpt lat="43.44208" lon="3.47238">
        <ele>71</ele>
        <time>2023-12-19T15:43:38Z</time>
      </trkpt>
      <trkpt lat="43.44209" lon="3.47234">
        <ele>70.800003051758</ele>
        <time>2023-12-19T15:43:39Z</time>
      </trkpt>
      <trkpt lat="43.44209" lon="3.47229">
        <ele>70.599998474121</ele>
        <time>2023-12-19T15:43:40Z</time>
      </trkpt>
      <trkpt lat="43.4421" lon="3.47226">
        <ele>70.400001525879</ele>
        <time>2023-12-19T15:43:41Z</time>
      </trkpt>
      <trkpt lat="43.4421" lon="3.47222">
        <ele>70.199996948242</ele>
        <time>2023-12-19T15:43:42Z</time>
      </trkpt>
      <trkpt lat="43.44209" lon="3.47218">
        <ele>70.199996948242</ele>
        <time>2023-12-19T15:43:43Z</time>
      </trkpt>
      <trkpt lat="43.44208" lon="3.47212">
        <ele>70.199996948242</ele>
        <time>2023-12-19T15:43:44Z</time>
      </trkpt>
      <trkpt lat="43.44207" lon="3.47208">
        <ele>70.199996948242</ele>
        <time>2023-12-19T15:43:45Z</time>
      </trkpt>
      <trkpt lat="43.44204" lon="3.47206">
        <ele>70.400001525879</ele>
        <time>2023-12-19T15:43:46Z</time>
      </trkpt>
      <trkpt lat="43.44202" lon="3.47204">
        <ele>70.599998474121</ele>
        <time>2023-12-19T15:43:47Z</time>
      </trkpt>
      <trkpt lat="43.442" lon="3.47203">
        <ele>71</ele>
        <time>2023-12-19T15:43:48Z</time>
      </trkpt>
      <trkpt lat="43.44198" lon="3.47201">
        <ele>71.199996948242</ele>
        <time>2023-12-19T15:43:49Z</time>
      </trkpt>
      <trkpt lat="43.44195" lon="3.47199">
        <ele>71.400001525879</ele>
        <time>2023-12-19T15:43:50Z</time>
      </trkpt>
      <trkpt lat="43.44193" lon="3.47197">
        <ele>71.400001525879</ele>
        <time>2023-12-19T15:43:51Z</time>
      </trkpt>
      <trkpt lat="43.44191" lon="3.47195">
        <ele>71.400001525879</ele>
        <time>2023-12-19T15:43:52Z</time>
      </trkpt>
      <trkpt lat="43.44189" lon="3.47192">
        <ele>71.400001525879</ele>
        <time>2023-12-19T15:43:53Z</time>
      </trkpt>
      <trkpt lat="43.44186" lon="3.47188">
        <ele>71.400001525879</ele>
        <time>2023-12-19T15:43:54Z</time>
      </trkpt>
      <trkpt lat="43.44184" lon="3.47185">
        <ele>71.400001525879</ele>
        <time>2023-12-19T15:43:55Z</time>
      </trkpt>
      <trkpt lat="43.44181" lon="3.47181">
        <ele>71.199996948242</ele>
        <time>2023-12-19T15:43:56Z</time>
      </trkpt>
      <trkpt lat="43.44178" lon="3.47176">
        <ele>70.800003051758</ele>
        <time>2023-12-19T15:43:57Z</time>
      </trkpt>
      <trkpt lat="43.44176" lon="3.47171">
        <ele>70.599998474121</ele>
        <time>2023-12-19T15:43:58Z</time>
      </trkpt>
      <trkpt lat="43.44174" lon="3.47167">
        <ele>70.400001525879</ele>
        <time>2023-12-19T15:43:59Z</time>
      </trkpt>
      <trkpt lat="43.44173" lon="3.47162">
        <ele>70.400001525879</ele>
        <time>2023-12-19T15:44:00Z</time>
      </trkpt>
      <trkpt lat="43.4417" lon="3.47157">
        <ele>70.199996948242</ele>
        <time>2023-12-19T15:44:01Z</time>
      </trkpt>
      <trkpt lat="43.44168" lon="3.47151">
        <ele>70</ele>
        <time>2023-12-19T15:44:02Z</time>
      </trkpt>
      <trkpt lat="43.44165" lon="3.47145">
        <ele>70</ele>
        <time>2023-12-19T15:44:03Z</time>
      </trkpt>
      <trkpt lat="43.44161" lon="3.4714">
        <ele>70</ele>
        <time>2023-12-19T15:44:04Z</time>
      </trkpt>
      <trkpt lat="43.44156" lon="3.47135">
        <ele>69.800003051758</ele>
        <time>2023-12-19T15:44:05Z</time>
      </trkpt>
      <trkpt lat="43.44152" lon="3.47132">
        <ele>69.599998474121</ele>
        <time>2023-12-19T15:44:06Z</time>
      </trkpt>
      <trkpt lat="43.44149" lon="3.47129">
        <ele>69.400001525879</ele>
        <time>2023-12-19T15:44:07Z</time>
      </trkpt>
      <trkpt lat="43.44146" lon="3.47127">
        <ele>69.199996948242</ele>
        <time>2023-12-19T15:44:08Z</time>
      </trkpt>
      <trkpt lat="43.44144" lon="3.47124">
        <ele>69.199996948242</ele>
        <time>2023-12-19T15:44:09Z</time>
      </trkpt>
      <trkpt lat="43.44141" lon="3.47123">
        <ele>69.199996948242</ele>
        <time>2023-12-19T15:44:10Z</time>
      </trkpt>
      <trkpt lat="43.44139" lon="3.47121">
        <ele>69.199996948242</ele>
        <time>2023-12-19T15:44:11Z</time>
      </trkpt>
      <trkpt lat="43.44137" lon="3.4712">
        <ele>69.400001525879</ele>
        <time>2023-12-19T15:44:12Z</time>
      </trkpt>
      <trkpt lat="43.44136" lon="3.47118">
        <ele>69.400001525879</ele>
        <time>2023-12-19T15:44:13Z</time>
      </trkpt>
      <trkpt lat="43.44134" lon="3.47115">
        <ele>69.599998474121</ele>
        <time>2023-12-19T15:44:14Z</time>
      </trkpt>
      <trkpt lat="43.44133" lon="3.47112">
        <ele>69.800003051758</ele>
        <time>2023-12-19T15:44:15Z</time>
      </trkpt>
      <trkpt lat="43.44133" lon="3.4711">
        <ele>69.800003051758</ele>
        <time>2023-12-19T15:44:16Z</time>
      </trkpt>
      <trkpt lat="43.44133" lon="3.47107">
        <ele>69.800003051758</ele>
        <time>2023-12-19T15:44:17Z</time>
      </trkpt>
      <trkpt lat="43.44133" lon="3.47104">
        <ele>70</ele>
        <time>2023-12-19T15:44:18Z</time>
      </trkpt>
      <trkpt lat="43.44131" lon="3.47102">
        <ele>70.199996948242</ele>
        <time>2023-12-19T15:44:19Z</time>
      </trkpt>
      <trkpt lat="43.4413" lon="3.47103">
        <ele>70.400001525879</ele>
        <time>2023-12-19T15:44:20Z</time>
      </trkpt>
      <trkpt lat="43.4413" lon="3.47105">
        <ele>70.400001525879</ele>
        <time>2023-12-19T15:44:21Z</time>
      </trkpt>
      <trkpt lat="43.4413" lon="3.47107">
        <ele>70.599998474121</ele>
        <time>2023-12-19T15:44:22Z</time>
      </trkpt>
      <trkpt lat="43.44132" lon="3.47109">
        <ele>70.599998474121</ele>
        <time>2023-12-19T15:44:23Z</time>
      </trkpt>
      <trkpt lat="43.44134" lon="3.47112">
        <ele>70.599998474121</ele>
        <time>2023-12-19T15:44:24Z</time>
      </trkpt>
      <trkpt lat="43.44135" lon="3.47115">
        <ele>70.599998474121</ele>
        <time>2023-12-19T15:44:25Z</time>
      </trkpt>
      <trkpt lat="43.44137" lon="3.47118">
        <ele>70.599998474121</ele>
        <time>2023-12-19T15:44:26Z</time>
      </trkpt>
      <trkpt lat="43.44139" lon="3.47121">
        <ele>70.400001525879</ele>
        <time>2023-12-19T15:44:27Z</time>
      </trkpt>
      <trkpt lat="43.44141" lon="3.47123">
        <ele>70.199996948242</ele>
        <time>2023-12-19T15:44:28Z</time>
      </trkpt>
      <trkpt lat="43.44143" lon="3.47124">
        <ele>70</ele>
        <time>2023-12-19T15:44:29Z</time>
      </trkpt>
      <trkpt lat="43.44144" lon="3.47126">
        <ele>69.800003051758</ele>
        <time>2023-12-19T15:44:30Z</time>
      </trkpt>
      <trkpt lat="43.44146" lon="3.47126">
        <ele>69.599998474121</ele>
        <time>2023-12-19T15:44:31Z</time>
      </trkpt>
      <trkpt lat="43.44148" lon="3.47127">
        <ele>69.599998474121</ele>
        <time>2023-12-19T15:44:32Z</time>
      </trkpt>
      <trkpt lat="43.4415" lon="3.47129">
        <ele>69.599998474121</ele>
        <time>2023-12-19T15:44:33Z</time>
      </trkpt>
      <trkpt lat="43.44151" lon="3.47131">
        <ele>69.599998474121</ele>
        <time>2023-12-19T15:44:34Z</time>
      </trkpt>
      <trkpt lat="43.44152" lon="3.47133">
        <ele>69.599998474121</ele>
        <time>2023-12-19T15:44:35Z</time>
      </trkpt>
      <trkpt lat="43.44153" lon="3.47135">
        <ele>69.599998474121</ele>
        <time>2023-12-19T15:44:36Z</time>
      </trkpt>
      <trkpt lat="43.44154" lon="3.47135">
        <ele>69.599998474121</ele>
        <time>2023-12-19T15:44:37Z</time>
      </trkpt>
      <trkpt lat="43.44156" lon="3.47133">
        <ele>69.400001525879</ele>
        <time>2023-12-19T15:44:38Z</time>
      </trkpt>
      <trkpt lat="43.44158" lon="3.47131">
        <ele>69.400001525879</ele>
        <time>2023-12-19T15:44:39Z</time>
      </trkpt>
      <trkpt lat="43.44158" lon="3.47129">
        <ele>69.400001525879</ele>
        <time>2023-12-19T15:44:40Z</time>
      </trkpt>
      <trkpt lat="43.44159" lon="3.47126">
        <ele>69.400001525879</ele>
        <time>2023-12-19T15:44:41Z</time>
      </trkpt>
      <trkpt lat="43.4416" lon="3.47123">
        <ele>69.400001525879</ele>
        <time>2023-12-19T15:44:42Z</time>
      </trkpt>
      <trkpt lat="43.4416" lon="3.47119">
        <ele>69.400001525879</ele>
        <time>2023-12-19T15:44:43Z</time>
      </trkpt>
      <trkpt lat="43.44162" lon="3.47116">
        <ele>69.400001525879</ele>
        <time>2023-12-19T15:44:44Z</time>
      </trkpt>
      <trkpt lat="43.44162" lon="3.47112">
        <ele>69.599998474121</ele>
        <time>2023-12-19T15:44:45Z</time>
      </trkpt>
      <trkpt lat="43.44162" lon="3.47109">
        <ele>69.800003051758</ele>
        <time>2023-12-19T15:44:46Z</time>
      </trkpt>
      <trkpt lat="43.4416" lon="3.47106">
        <ele>69.800003051758</ele>
        <time>2023-12-19T15:44:47Z</time>
      </trkpt>
      <trkpt lat="43.44158" lon="3.47102">
        <ele>70</ele>
        <time>2023-12-19T15:44:48Z</time>
      </trkpt>
      <trkpt lat="43.44157" lon="3.47097">
        <ele>70.199996948242</ele>
        <time>2023-12-19T15:44:49Z</time>
      </trkpt>
      <trkpt lat="43.44155" lon="3.47093">
        <ele>70.400001525879</ele>
        <time>2023-12-19T15:44:50Z</time>
      </trkpt>
      <trkpt lat="43.44152" lon="3.4709">
        <ele>70.400001525879</ele>
        <time>2023-12-19T15:44:51Z</time>
      </trkpt>
      <trkpt lat="43.44149" lon="3.47088">
        <ele>70.599998474121</ele>
        <time>2023-12-19T15:44:52Z</time>
      </trkpt>
      <trkpt lat="43.44147" lon="3.47086">
        <ele>70.800003051758</ele>
        <time>2023-12-19T15:44:53Z</time>
      </trkpt>
      <trkpt lat="43.44145" lon="3.47082">
        <ele>71</ele>
        <time>2023-12-19T15:44:54Z</time>
      </trkpt>
      <trkpt lat="43.44145" lon="3.47078">
        <ele>71.199996948242</ele>
        <time>2023-12-19T15:44:55Z</time>
      </trkpt>
      <trkpt lat="43.44146" lon="3.47075">
        <ele>71.599998474121</ele>
        <time>2023-12-19T15:44:56Z</time>
      </trkpt>
      <trkpt lat="43.44145" lon="3.47075">
        <ele>71.800003051758</ele>
        <time>2023-12-19T15:44:57Z</time>
      </trkpt>
      <trkpt lat="43.44145" lon="3.47075">
        <ele>72</ele>
        <time>2023-12-19T15:44:58Z</time>
      </trkpt>
      <trkpt lat="43.44142" lon="3.47067">
        <ele>73.199996948242</ele>
        <time>2023-12-19T15:45:17Z</time>
      </trkpt>
      <trkpt lat="43.44139" lon="3.47064">
        <ele>73.199996948242</ele>
        <time>2023-12-19T15:45:18Z</time>
      </trkpt>
      <trkpt lat="43.44136" lon="3.47062">
        <ele>73.199996948242</ele>
        <time>2023-12-19T15:45:19Z</time>
      </trkpt>
      <trkpt lat="43.44132" lon="3.47058">
        <ele>72.800003051758</ele>
        <time>2023-12-19T15:45:20Z</time>
      </trkpt>
      <trkpt lat="43.44128" lon="3.47054">
        <ele>72</ele>
        <time>2023-12-19T15:45:21Z</time>
      </trkpt>
      <trkpt lat="43.44125" lon="3.47051">
        <ele>71.199996948242</ele>
        <time>2023-12-19T15:45:22Z</time>
      </trkpt>
      <trkpt lat="43.44123" lon="3.47047">
        <ele>70.800003051758</ele>
        <time>2023-12-19T15:45:23Z</time>
      </trkpt>
      <trkpt lat="43.44121" lon="3.47044">
        <ele>70.800003051758</ele>
        <time>2023-12-19T15:45:24Z</time>
      </trkpt>
      <trkpt lat="43.4412" lon="3.47042">
        <ele>70.800003051758</ele>
        <time>2023-12-19T15:45:25Z</time>
      </trkpt>
      <trkpt lat="43.44119" lon="3.47039">
        <ele>70.800003051758</ele>
        <time>2023-12-19T15:45:26Z</time>
      </trkpt>
      <trkpt lat="43.44119" lon="3.47036">
        <ele>70.800003051758</ele>
        <time>2023-12-19T15:45:27Z</time>
      </trkpt>
      <trkpt lat="43.44117" lon="3.47033">
        <ele>70.800003051758</ele>
        <time>2023-12-19T15:45:28Z</time>
      </trkpt>
      <trkpt lat="43.44115" lon="3.4703">
        <ele>70.800003051758</ele>
        <time>2023-12-19T15:45:29Z</time>
      </trkpt>
      <trkpt lat="43.44113" lon="3.47025">
        <ele>70.800003051758</ele>
        <time>2023-12-19T15:45:30Z</time>
      </trkpt>
      <trkpt lat="43.44112" lon="3.4702">
        <ele>70.800003051758</ele>
        <time>2023-12-19T15:45:31Z</time>
      </trkpt>
      <trkpt lat="43.4411" lon="3.47016">
        <ele>70.599998474121</ele>
        <time>2023-12-19T15:45:32Z</time>
      </trkpt>
      <trkpt lat="43.44108" lon="3.47011">
        <ele>70.599998474121</ele>
        <time>2023-12-19T15:45:33Z</time>
      </trkpt>
      <trkpt lat="43.44107" lon="3.47007">
        <ele>70.599998474121</ele>
        <time>2023-12-19T15:45:34Z</time>
      </trkpt>
      <trkpt lat="43.44107" lon="3.47004">
        <ele>70.400001525879</ele>
        <time>2023-12-19T15:45:35Z</time>
      </trkpt>
      <trkpt lat="43.44107" lon="3.47003">
        <ele>70</ele>
        <time>2023-12-19T15:45:36Z</time>
      </trkpt>
      <trkpt lat="43.44107" lon="3.47003">
        <ele>69.800003051758</ele>
        <time>2023-12-19T15:45:37Z</time>
      </trkpt>
      <trkpt lat="43.44107" lon="3.47003">
        <ele>69.599998474121</ele>
        <time>2023-12-19T15:45:38Z</time>
      </trkpt>
      <trkpt lat="43.44107" lon="3.46998">
        <ele>69.400001525879</ele>
        <time>2023-12-19T15:45:52Z</time>
      </trkpt>
      <trkpt lat="43.44107" lon="3.46996">
        <ele>69.199996948242</ele>
        <time>2023-12-19T15:45:53Z</time>
      </trkpt>
      <trkpt lat="43.44107" lon="3.46995">
        <ele>69.199996948242</ele>
        <time>2023-12-19T15:45:54Z</time>
      </trkpt>
      <trkpt lat="43.44107" lon="3.46993">
        <ele>68.800003051758</ele>
        <time>2023-12-19T15:45:55Z</time>
      </trkpt>
      <trkpt lat="43.44105" lon="3.46991">
        <ele>68.400001525879</ele>
        <time>2023-12-19T15:45:56Z</time>
      </trkpt>
      <trkpt lat="43.44104" lon="3.46989">
        <ele>68.199996948242</ele>
        <time>2023-12-19T15:45:57Z</time>
      </trkpt>
      <trkpt lat="43.44103" lon="3.46986">
        <ele>68</ele>
        <time>2023-12-19T15:45:58Z</time>
      </trkpt>
      <trkpt lat="43.44104" lon="3.46983">
        <ele>67.800003051758</ele>
        <time>2023-12-19T15:45:59Z</time>
      </trkpt>
      <trkpt lat="43.44105" lon="3.46981">
        <ele>67.400001525879</ele>
        <time>2023-12-19T15:46:00Z</time>
      </trkpt>
      <trkpt lat="43.44105" lon="3.46977">
        <ele>67</ele>
        <time>2023-12-19T15:46:01Z</time>
      </trkpt>
      <trkpt lat="43.44105" lon="3.46974">
        <ele>66.400001525879</ele>
        <time>2023-12-19T15:46:02Z</time>
      </trkpt>
      <trkpt lat="43.44105" lon="3.46971">
        <ele>65.800003051758</ele>
        <time>2023-12-19T15:46:03Z</time>
      </trkpt>
      <trkpt lat="43.44105" lon="3.46968">
        <ele>65</ele>
        <time>2023-12-19T15:46:04Z</time>
      </trkpt>
      <trkpt lat="43.44106" lon="3.46964">
        <ele>64.199996948242</ele>
        <time>2023-12-19T15:46:05Z</time>
      </trkpt>
      <trkpt lat="43.44107" lon="3.4696">
        <ele>63.599998474121</ele>
        <time>2023-12-19T15:46:06Z</time>
      </trkpt>
      <trkpt lat="43.44107" lon="3.46959">
        <ele>63.200000762939</ele>
        <time>2023-12-19T15:46:07Z</time>
      </trkpt>
      <trkpt lat="43.44106" lon="3.46958">
        <ele>63</ele>
        <time>2023-12-19T15:46:08Z</time>
      </trkpt>
      <trkpt lat="43.44106" lon="3.46956">
        <ele>62.400001525879</ele>
        <time>2023-12-19T15:46:09Z</time>
      </trkpt>
      <trkpt lat="43.44105" lon="3.46955">
        <ele>62.200000762939</ele>
        <time>2023-12-19T15:46:10Z</time>
      </trkpt>
      <trkpt lat="43.44104" lon="3.46953">
        <ele>62.200000762939</ele>
        <time>2023-12-19T15:46:11Z</time>
      </trkpt>
      <trkpt lat="43.44104" lon="3.46953">
        <ele>62</ele>
        <time>2023-12-19T15:46:12Z</time>
      </trkpt>
      <trkpt lat="43.44104" lon="3.46953">
        <ele>62</ele>
        <time>2023-12-19T15:46:13Z</time>
      </trkpt>
      <trkpt lat="43.44104" lon="3.46953">
        <ele>62</ele>
        <time>2023-12-19T15:46:14Z</time>
      </trkpt>
      <trkpt lat="43.44105" lon="3.46948">
        <ele>62.200000762939</ele>
        <time>2023-12-19T15:46:36Z</time>
      </trkpt>
      <trkpt lat="43.44106" lon="3.46945">
        <ele>62.200000762939</ele>
        <time>2023-12-19T15:46:37Z</time>
      </trkpt>
      <trkpt lat="43.44108" lon="3.4694">
        <ele>62.200000762939</ele>
        <time>2023-12-19T15:46:38Z</time>
      </trkpt>
      <trkpt lat="43.44109" lon="3.46935">
        <ele>62.200000762939</ele>
        <time>2023-12-19T15:46:39Z</time>
      </trkpt>
      <trkpt lat="43.4411" lon="3.46932">
        <ele>62.200000762939</ele>
        <time>2023-12-19T15:46:40Z</time>
      </trkpt>
      <trkpt lat="43.44112" lon="3.46931">
        <ele>62.200000762939</ele>
        <time>2023-12-19T15:46:41Z</time>
      </trkpt>
      <trkpt lat="43.44114" lon="3.46927">
        <ele>61.599998474121</ele>
        <time>2023-12-19T15:46:42Z</time>
      </trkpt>
      <trkpt lat="43.44115" lon="3.46923">
        <ele>61.200000762939</ele>
        <time>2023-12-19T15:46:43Z</time>
      </trkpt>
      <trkpt lat="43.44116" lon="3.46919">
        <ele>60.799999237061</ele>
        <time>2023-12-19T15:46:44Z</time>
      </trkpt>
      <trkpt lat="43.44116" lon="3.46915">
        <ele>60.599998474121</ele>
        <time>2023-12-19T15:46:45Z</time>
      </trkpt>
      <trkpt lat="43.44115" lon="3.46912">
        <ele>60.200000762939</ele>
        <time>2023-12-19T15:46:46Z</time>
      </trkpt>
      <trkpt lat="43.44115" lon="3.46909">
        <ele>60</ele>
        <time>2023-12-19T15:46:47Z</time>
      </trkpt>
      <trkpt lat="43.44116" lon="3.46907">
        <ele>60</ele>
        <time>2023-12-19T15:46:48Z</time>
      </trkpt>
      <trkpt lat="43.44116" lon="3.46905">
        <ele>60</ele>
        <time>2023-12-19T15:46:49Z</time>
      </trkpt>
      <trkpt lat="43.44116" lon="3.46905">
        <ele>60</ele>
        <time>2023-12-19T15:46:50Z</time>
      </trkpt>
      <trkpt lat="43.44116" lon="3.46905">
        <ele>60.200000762939</ele>
        <time>2023-12-19T15:46:51Z</time>
      </trkpt>
      <trkpt lat="43.44117" lon="3.46902">
        <ele>61</ele>
        <time>2023-12-19T15:46:58Z</time>
      </trkpt>
      <trkpt lat="43.44118" lon="3.46897">
        <ele>61</ele>
        <time>2023-12-19T15:46:59Z</time>
      </trkpt>
      <trkpt lat="43.44119" lon="3.46891">
        <ele>61</ele>
        <time>2023-12-19T15:47:00Z</time>
      </trkpt>
      <trkpt lat="43.44121" lon="3.46884">
        <ele>61</ele>
        <time>2023-12-19T15:47:01Z</time>
      </trkpt>
      <trkpt lat="43.44122" lon="3.46877">
        <ele>60.799999237061</ele>
        <time>2023-12-19T15:47:02Z</time>
      </trkpt>
      <trkpt lat="43.44122" lon="3.46872">
        <ele>60</ele>
        <time>2023-12-19T15:47:03Z</time>
      </trkpt>
      <trkpt lat="43.44123" lon="3.46869">
        <ele>58.799999237061</ele>
        <time>2023-12-19T15:47:04Z</time>
      </trkpt>
      <trkpt lat="43.44123" lon="3.46866">
        <ele>57.599998474121</ele>
        <time>2023-12-19T15:47:05Z</time>
      </trkpt>
      <trkpt lat="43.44123" lon="3.46864">
        <ele>57.599998474121</ele>
        <time>2023-12-19T15:47:06Z</time>
      </trkpt>
      <trkpt lat="43.44122" lon="3.46862">
        <ele>57.599998474121</ele>
        <time>2023-12-19T15:47:07Z</time>
      </trkpt>
      <trkpt lat="43.44122" lon="3.46861">
        <ele>57.599998474121</ele>
        <time>2023-12-19T15:47:08Z</time>
      </trkpt>
      <trkpt lat="43.44122" lon="3.46862">
        <ele>57.799999237061</ele>
        <time>2023-12-19T15:47:09Z</time>
      </trkpt>
      <trkpt lat="43.44122" lon="3.46862">
        <ele>58.200000762939</ele>
        <time>2023-12-19T15:47:10Z</time>
      </trkpt>
      <trkpt lat="43.44127" lon="3.46861">
        <ele>58.400001525879</ele>
        <time>2023-12-19T15:47:13Z</time>
      </trkpt>
      <trkpt lat="43.44128" lon="3.46858">
        <ele>58.400001525879</ele>
        <time>2023-12-19T15:47:14Z</time>
      </trkpt>
      <trkpt lat="43.44129" lon="3.46855">
        <ele>58.400001525879</ele>
        <time>2023-12-19T15:47:15Z</time>
      </trkpt>
      <trkpt lat="43.44129" lon="3.46851">
        <ele>58.400001525879</ele>
        <time>2023-12-19T15:47:16Z</time>
      </trkpt>
      <trkpt lat="43.44128" lon="3.46849">
        <ele>58.400001525879</ele>
        <time>2023-12-19T15:47:17Z</time>
      </trkpt>
      <trkpt lat="43.44127" lon="3.46848">
        <ele>58.200000762939</ele>
        <time>2023-12-19T15:47:18Z</time>
      </trkpt>
      <trkpt lat="43.44126" lon="3.46846">
        <ele>57.599998474121</ele>
        <time>2023-12-19T15:47:19Z</time>
      </trkpt>
      <trkpt lat="43.44124" lon="3.46844">
        <ele>57</ele>
        <time>2023-12-19T15:47:20Z</time>
      </trkpt>
      <trkpt lat="43.44121" lon="3.46842">
        <ele>56.599998474121</ele>
        <time>2023-12-19T15:47:21Z</time>
      </trkpt>
      <trkpt lat="43.4412" lon="3.46841">
        <ele>56.200000762939</ele>
        <time>2023-12-19T15:47:22Z</time>
      </trkpt>
      <trkpt lat="43.44118" lon="3.46839">
        <ele>55.400001525879</ele>
        <time>2023-12-19T15:47:23Z</time>
      </trkpt>
      <trkpt lat="43.44117" lon="3.46837">
        <ele>55</ele>
        <time>2023-12-19T15:47:24Z</time>
      </trkpt>
      <trkpt lat="43.44117" lon="3.46836">
        <ele>55</ele>
        <time>2023-12-19T15:47:25Z</time>
      </trkpt>
      <trkpt lat="43.44117" lon="3.46835">
        <ele>55</ele>
        <time>2023-12-19T15:47:26Z</time>
      </trkpt>
      <trkpt lat="43.44117" lon="3.46835">
        <ele>55</ele>
        <time>2023-12-19T15:47:27Z</time>
      </trkpt>
      <trkpt lat="43.44117" lon="3.46835">
        <ele>55</ele>
        <time>2023-12-19T15:47:28Z</time>
      </trkpt>
      <trkpt lat="43.44118" lon="3.4683">
        <ele>55.400001525879</ele>
        <time>2023-12-19T15:48:09Z</time>
      </trkpt>
      <trkpt lat="43.44118" lon="3.46828">
        <ele>55.400001525879</ele>
        <time>2023-12-19T15:48:10Z</time>
      </trkpt>
      <trkpt lat="43.44118" lon="3.46825">
        <ele>55.400001525879</ele>
        <time>2023-12-19T15:48:11Z</time>
      </trkpt>
      <trkpt lat="43.44117" lon="3.46823">
        <ele>55.400001525879</ele>
        <time>2023-12-19T15:48:12Z</time>
      </trkpt>
      <trkpt lat="43.44118" lon="3.4682">
        <ele>55.400001525879</ele>
        <time>2023-12-19T15:48:13Z</time>
      </trkpt>
      <trkpt lat="43.44118" lon="3.46817">
        <ele>55.400001525879</ele>
        <time>2023-12-19T15:48:14Z</time>
      </trkpt>
      <trkpt lat="43.44118" lon="3.46813">
        <ele>55.400001525879</ele>
        <time>2023-12-19T15:48:15Z</time>
      </trkpt>
      <trkpt lat="43.44118" lon="3.4681">
        <ele>55.400001525879</ele>
        <time>2023-12-19T15:48:16Z</time>
      </trkpt>
      <trkpt lat="43.44118" lon="3.46806">
        <ele>55.400001525879</ele>
        <time>2023-12-19T15:48:17Z</time>
      </trkpt>
      <trkpt lat="43.44119" lon="3.46801">
        <ele>55.400001525879</ele>
        <time>2023-12-19T15:48:18Z</time>
      </trkpt>
      <trkpt lat="43.44119" lon="3.46796">
        <ele>55.400001525879</ele>
        <time>2023-12-19T15:48:19Z</time>
      </trkpt>
      <trkpt lat="43.44119" lon="3.4679">
        <ele>55.200000762939</ele>
        <time>2023-12-19T15:48:20Z</time>
      </trkpt>
      <trkpt lat="43.44119" lon="3.46785">
        <ele>55.200000762939</ele>
        <time>2023-12-19T15:48:21Z</time>
      </trkpt>
      <trkpt lat="43.44119" lon="3.46781">
        <ele>55.200000762939</ele>
        <time>2023-12-19T15:48:22Z</time>
      </trkpt>
      <trkpt lat="43.44119" lon="3.46777">
        <ele>55.200000762939</ele>
        <time>2023-12-19T15:48:23Z</time>
      </trkpt>
      <trkpt lat="43.44118" lon="3.46771">
        <ele>55.400001525879</ele>
        <time>2023-12-19T15:48:24Z</time>
      </trkpt>
      <trkpt lat="43.44116" lon="3.46765">
        <ele>56</ele>
        <time>2023-12-19T15:48:25Z</time>
      </trkpt>
      <trkpt lat="43.44115" lon="3.4676">
        <ele>56.799999237061</ele>
        <time>2023-12-19T15:48:26Z</time>
      </trkpt>
      <trkpt lat="43.44113" lon="3.46755">
        <ele>57.400001525879</ele>
        <time>2023-12-19T15:48:27Z</time>
      </trkpt>
      <trkpt lat="43.44113" lon="3.46752">
        <ele>57.599998474121</ele>
        <time>2023-12-19T15:48:28Z</time>
      </trkpt>
      <trkpt lat="43.44112" lon="3.46748">
        <ele>58</ele>
        <time>2023-12-19T15:48:29Z</time>
      </trkpt>
      <trkpt lat="43.44112" lon="3.46744">
        <ele>58</ele>
        <time>2023-12-19T15:48:30Z</time>
      </trkpt>
      <trkpt lat="43.44111" lon="3.46741">
        <ele>58.400001525879</ele>
        <time>2023-12-19T15:48:31Z</time>
      </trkpt>
      <trkpt lat="43.4411" lon="3.46735">
        <ele>58.599998474121</ele>
        <time>2023-12-19T15:48:32Z</time>
      </trkpt>
      <trkpt lat="43.4411" lon="3.4673">
        <ele>58.799999237061</ele>
        <time>2023-12-19T15:48:33Z</time>
      </trkpt>
      <trkpt lat="43.44109" lon="3.46725">
        <ele>59.200000762939</ele>
        <time>2023-12-19T15:48:34Z</time>
      </trkpt>
      <trkpt lat="43.44107" lon="3.4672">
        <ele>59.599998474121</ele>
        <time>2023-12-19T15:48:35Z</time>
      </trkpt>
      <trkpt lat="43.44105" lon="3.46716">
        <ele>60</ele>
        <time>2023-12-19T15:48:36Z</time>
      </trkpt>
      <trkpt lat="43.44104" lon="3.46712">
        <ele>60.400001525879</ele>
        <time>2023-12-19T15:48:37Z</time>
      </trkpt>
      <trkpt lat="43.44103" lon="3.46709">
        <ele>60.799999237061</ele>
        <time>2023-12-19T15:48:38Z</time>
      </trkpt>
      <trkpt lat="43.44103" lon="3.46706">
        <ele>60.799999237061</ele>
        <time>2023-12-19T15:48:39Z</time>
      </trkpt>
      <trkpt lat="43.44102" lon="3.46703">
        <ele>60.799999237061</ele>
        <time>2023-12-19T15:48:40Z</time>
      </trkpt>
      <trkpt lat="43.44103" lon="3.46698">
        <ele>61</ele>
        <time>2023-12-19T15:48:41Z</time>
      </trkpt>
      <trkpt lat="43.44102" lon="3.46693">
        <ele>61.200000762939</ele>
        <time>2023-12-19T15:48:42Z</time>
      </trkpt>
      <trkpt lat="43.44102" lon="3.46687">
        <ele>61.200000762939</ele>
        <time>2023-12-19T15:48:43Z</time>
      </trkpt>
      <trkpt lat="43.44103" lon="3.46682">
        <ele>61.200000762939</ele>
        <time>2023-12-19T15:48:44Z</time>
      </trkpt>
      <trkpt lat="43.44104" lon="3.46678">
        <ele>61.200000762939</ele>
        <time>2023-12-19T15:48:45Z</time>
      </trkpt>
      <trkpt lat="43.44103" lon="3.46675">
        <ele>61</ele>
        <time>2023-12-19T15:48:46Z</time>
      </trkpt>
      <trkpt lat="43.44102" lon="3.46671">
        <ele>60.799999237061</ele>
        <time>2023-12-19T15:48:47Z</time>
      </trkpt>
      <trkpt lat="43.44101" lon="3.46667">
        <ele>60.400001525879</ele>
        <time>2023-12-19T15:48:48Z</time>
      </trkpt>
      <trkpt lat="43.44101" lon="3.46663">
        <ele>60.200000762939</ele>
        <time>2023-12-19T15:48:49Z</time>
      </trkpt>
      <trkpt lat="43.441" lon="3.4666">
        <ele>60.200000762939</ele>
        <time>2023-12-19T15:48:50Z</time>
      </trkpt>
      <trkpt lat="43.441" lon="3.46656">
        <ele>60.200000762939</ele>
        <time>2023-12-19T15:48:51Z</time>
      </trkpt>
      <trkpt lat="43.441" lon="3.46653">
        <ele>60.200000762939</ele>
        <time>2023-12-19T15:48:52Z</time>
      </trkpt>
      <trkpt lat="43.44099" lon="3.4665">
        <ele>60.200000762939</ele>
        <time>2023-12-19T15:48:53Z</time>
      </trkpt>
      <trkpt lat="43.44099" lon="3.46646">
        <ele>60.200000762939</ele>
        <time>2023-12-19T15:48:54Z</time>
      </trkpt>
      <trkpt lat="43.44098" lon="3.46643">
        <ele>60</ele>
        <time>2023-12-19T15:48:55Z</time>
      </trkpt>
      <trkpt lat="43.44097" lon="3.46641">
        <ele>60</ele>
        <time>2023-12-19T15:48:56Z</time>
      </trkpt>
      <trkpt lat="43.44097" lon="3.46638">
        <ele>60</ele>
        <time>2023-12-19T15:48:57Z</time>
      </trkpt>
      <trkpt lat="43.44097" lon="3.46635">
        <ele>60</ele>
        <time>2023-12-19T15:48:58Z</time>
      </trkpt>
      <trkpt lat="43.44097" lon="3.46632">
        <ele>60</ele>
        <time>2023-12-19T15:48:59Z</time>
      </trkpt>
      <trkpt lat="43.44096" lon="3.4663">
        <ele>60</ele>
        <time>2023-12-19T15:49:00Z</time>
      </trkpt>
      <trkpt lat="43.44094" lon="3.46627">
        <ele>60</ele>
        <time>2023-12-19T15:49:01Z</time>
      </trkpt>
      <trkpt lat="43.44093" lon="3.46624">
        <ele>60</ele>
        <time>2023-12-19T15:49:02Z</time>
      </trkpt>
      <trkpt lat="43.44092" lon="3.46622">
        <ele>60</ele>
        <time>2023-12-19T15:49:03Z</time>
      </trkpt>
      <trkpt lat="43.4409" lon="3.4662">
        <ele>60</ele>
        <time>2023-12-19T15:49:04Z</time>
      </trkpt>
      <trkpt lat="43.44088" lon="3.46618">
        <ele>60</ele>
        <time>2023-12-19T15:49:05Z</time>
      </trkpt>
      <trkpt lat="43.44086" lon="3.46617">
        <ele>60.200000762939</ele>
        <time>2023-12-19T15:49:06Z</time>
      </trkpt>
      <trkpt lat="43.44083" lon="3.46616">
        <ele>60.400001525879</ele>
        <time>2023-12-19T15:49:07Z</time>
      </trkpt>
      <trkpt lat="43.4408" lon="3.46615">
        <ele>60.400001525879</ele>
        <time>2023-12-19T15:49:08Z</time>
      </trkpt>
      <trkpt lat="43.44076" lon="3.46615">
        <ele>60.400001525879</ele>
        <time>2023-12-19T15:49:09Z</time>
      </trkpt>
      <trkpt lat="43.44073" lon="3.46616">
        <ele>60.400001525879</ele>
        <time>2023-12-19T15:49:10Z</time>
      </trkpt>
      <trkpt lat="43.4407" lon="3.46616">
        <ele>60.200000762939</ele>
        <time>2023-12-19T15:49:11Z</time>
      </trkpt>
      <trkpt lat="43.44066" lon="3.46617">
        <ele>60</ele>
        <time>2023-12-19T15:49:12Z</time>
      </trkpt>
      <trkpt lat="43.44063" lon="3.46617">
        <ele>59.799999237061</ele>
        <time>2023-12-19T15:49:13Z</time>
      </trkpt>
      <trkpt lat="43.44059" lon="3.46617">
        <ele>59.400001525879</ele>
        <time>2023-12-19T15:49:14Z</time>
      </trkpt>
      <trkpt lat="43.44054" lon="3.46617">
        <ele>59</ele>
        <time>2023-12-19T15:49:15Z</time>
      </trkpt>
      <trkpt lat="43.44049" lon="3.4662">
        <ele>58.799999237061</ele>
        <time>2023-12-19T15:49:16Z</time>
      </trkpt>
      <trkpt lat="43.44046" lon="3.46623">
        <ele>58.400001525879</ele>
        <time>2023-12-19T15:49:17Z</time>
      </trkpt>
      <trkpt lat="43.44042" lon="3.46626">
        <ele>58.200000762939</ele>
        <time>2023-12-19T15:49:18Z</time>
      </trkpt>
      <trkpt lat="43.44037" lon="3.46626">
        <ele>57.799999237061</ele>
        <time>2023-12-19T15:49:19Z</time>
      </trkpt>
      <trkpt lat="43.44035" lon="3.46623">
        <ele>57.599998474121</ele>
        <time>2023-12-19T15:49:20Z</time>
      </trkpt>
      <trkpt lat="43.44033" lon="3.4662">
        <ele>57.400001525879</ele>
        <time>2023-12-19T15:49:21Z</time>
      </trkpt>
      <trkpt lat="43.44032" lon="3.46615">
        <ele>57.200000762939</ele>
        <time>2023-12-19T15:49:22Z</time>
      </trkpt>
      <trkpt lat="43.44031" lon="3.46611">
        <ele>57</ele>
        <time>2023-12-19T15:49:23Z</time>
      </trkpt>
      <trkpt lat="43.44029" lon="3.46606">
        <ele>57</ele>
        <time>2023-12-19T15:49:24Z</time>
      </trkpt>
      <trkpt lat="43.44027" lon="3.46602">
        <ele>57</ele>
        <time>2023-12-19T15:49:25Z</time>
      </trkpt>
      <trkpt lat="43.44026" lon="3.46598">
        <ele>56.799999237061</ele>
        <time>2023-12-19T15:49:26Z</time>
      </trkpt>
      <trkpt lat="43.44025" lon="3.46594">
        <ele>56.599998474121</ele>
        <time>2023-12-19T15:49:27Z</time>
      </trkpt>
      <trkpt lat="43.44024" lon="3.4659">
        <ele>56.599998474121</ele>
        <time>2023-12-19T15:49:28Z</time>
      </trkpt>
      <trkpt lat="43.44023" lon="3.46588">
        <ele>56.599998474121</ele>
        <time>2023-12-19T15:49:29Z</time>
      </trkpt>
      <trkpt lat="43.44022" lon="3.46587">
        <ele>56.599998474121</ele>
        <time>2023-12-19T15:49:30Z</time>
      </trkpt>
      <trkpt lat="43.4402" lon="3.46588">
        <ele>56.599998474121</ele>
        <time>2023-12-19T15:49:31Z</time>
      </trkpt>
      <trkpt lat="43.44019" lon="3.4659">
        <ele>56.599998474121</ele>
        <time>2023-12-19T15:49:32Z</time>
      </trkpt>
      <trkpt lat="43.44018" lon="3.46592">
        <ele>56.599998474121</ele>
        <time>2023-12-19T15:49:33Z</time>
      </trkpt>
      <trkpt lat="43.44018" lon="3.46594">
        <ele>56.799999237061</ele>
        <time>2023-12-19T15:49:34Z</time>
      </trkpt>
      <trkpt lat="43.44018" lon="3.46597">
        <ele>56.799999237061</ele>
        <time>2023-12-19T15:49:35Z</time>
      </trkpt>
      <trkpt lat="43.44018" lon="3.466">
        <ele>57</ele>
        <time>2023-12-19T15:49:36Z</time>
      </trkpt>
      <trkpt lat="43.44018" lon="3.46603">
        <ele>57.200000762939</ele>
        <time>2023-12-19T15:49:37Z</time>
      </trkpt>
      <trkpt lat="43.44019" lon="3.46606">
        <ele>57.400001525879</ele>
        <time>2023-12-19T15:49:38Z</time>
      </trkpt>
      <trkpt lat="43.4402" lon="3.4661">
        <ele>57.400001525879</ele>
        <time>2023-12-19T15:49:39Z</time>
      </trkpt>
      <trkpt lat="43.44022" lon="3.46614">
        <ele>57.400001525879</ele>
        <time>2023-12-19T15:49:40Z</time>
      </trkpt>
      <trkpt lat="43.44025" lon="3.46618">
        <ele>57.400001525879</ele>
        <time>2023-12-19T15:49:41Z</time>
      </trkpt>
      <trkpt lat="43.44028" lon="3.4662">
        <ele>57.400001525879</ele>
        <time>2023-12-19T15:49:42Z</time>
      </trkpt>
      <trkpt lat="43.4403" lon="3.46621">
        <ele>57.400001525879</ele>
        <time>2023-12-19T15:49:43Z</time>
      </trkpt>
      <trkpt lat="43.44032" lon="3.4662">
        <ele>57.400001525879</ele>
        <time>2023-12-19T15:49:44Z</time>
      </trkpt>
      <trkpt lat="43.44032" lon="3.46617">
        <ele>57.400001525879</ele>
        <time>2023-12-19T15:49:45Z</time>
      </trkpt>
      <trkpt lat="43.44032" lon="3.46614">
        <ele>57.400001525879</ele>
        <time>2023-12-19T15:49:46Z</time>
      </trkpt>
      <trkpt lat="43.44032" lon="3.46611">
        <ele>57.400001525879</ele>
        <time>2023-12-19T15:49:47Z</time>
      </trkpt>
      <trkpt lat="43.44032" lon="3.46608">
        <ele>57.400001525879</ele>
        <time>2023-12-19T15:49:48Z</time>
      </trkpt>
      <trkpt lat="43.44033" lon="3.46606">
        <ele>57.200000762939</ele>
        <time>2023-12-19T15:49:49Z</time>
      </trkpt>
      <trkpt lat="43.44034" lon="3.46603">
        <ele>56.799999237061</ele>
        <time>2023-12-19T15:49:50Z</time>
      </trkpt>
      <trkpt lat="43.44035" lon="3.46601">
        <ele>56.599998474121</ele>
        <time>2023-12-19T15:49:51Z</time>
      </trkpt>
      <trkpt lat="43.44035" lon="3.46598">
        <ele>56.400001525879</ele>
        <time>2023-12-19T15:49:52Z</time>
      </trkpt>
      <trkpt lat="43.44036" lon="3.46596">
        <ele>56.400001525879</ele>
        <time>2023-12-19T15:49:53Z</time>
      </trkpt>
      <trkpt lat="43.44037" lon="3.46594">
        <ele>56.400001525879</ele>
        <time>2023-12-19T15:49:54Z</time>
      </trkpt>
      <trkpt lat="43.44038" lon="3.46592">
        <ele>56.400001525879</ele>
        <time>2023-12-19T15:49:55Z</time>
      </trkpt>
      <trkpt lat="43.4404" lon="3.46592">
        <ele>56.200000762939</ele>
        <time>2023-12-19T15:49:56Z</time>
      </trkpt>
      <trkpt lat="43.44041" lon="3.46594">
        <ele>56</ele>
        <time>2023-12-19T15:49:57Z</time>
      </trkpt>
      <trkpt lat="43.44043" lon="3.46594">
        <ele>56</ele>
        <time>2023-12-19T15:49:58Z</time>
      </trkpt>
      <trkpt lat="43.44044" lon="3.46594">
        <ele>56</ele>
        <time>2023-12-19T15:49:59Z</time>
      </trkpt>
      <trkpt lat="43.44044" lon="3.46592">
        <ele>56</ele>
        <time>2023-12-19T15:50:00Z</time>
      </trkpt>
      <trkpt lat="43.44043" lon="3.4659">
        <ele>55.799999237061</ele>
        <time>2023-12-19T15:50:01Z</time>
      </trkpt>
      <trkpt lat="43.44041" lon="3.46588">
        <ele>55.799999237061</ele>
        <time>2023-12-19T15:50:02Z</time>
      </trkpt>
      <trkpt lat="43.44041" lon="3.46583">
        <ele>55.799999237061</ele>
        <time>2023-12-19T15:50:03Z</time>
      </trkpt>
      <trkpt lat="43.4404" lon="3.46579">
        <ele>55.799999237061</ele>
        <time>2023-12-19T15:50:04Z</time>
      </trkpt>
      <trkpt lat="43.4404" lon="3.46576">
        <ele>55.799999237061</ele>
        <time>2023-12-19T15:50:05Z</time>
      </trkpt>
      <trkpt lat="43.44039" lon="3.46574">
        <ele>55.599998474121</ele>
        <time>2023-12-19T15:50:06Z</time>
      </trkpt>
      <trkpt lat="43.44038" lon="3.46571">
        <ele>55.200000762939</ele>
        <time>2023-12-19T15:50:07Z</time>
      </trkpt>
      <trkpt lat="43.44038" lon="3.46568">
        <ele>55</ele>
        <time>2023-12-19T15:50:08Z</time>
      </trkpt>
      <trkpt lat="43.44039" lon="3.46565">
        <ele>54.799999237061</ele>
        <time>2023-12-19T15:50:09Z</time>
      </trkpt>
      <trkpt lat="43.4404" lon="3.46563">
        <ele>54.400001525879</ele>
        <time>2023-12-19T15:50:10Z</time>
      </trkpt>
      <trkpt lat="43.4404" lon="3.46561">
        <ele>54.200000762939</ele>
        <time>2023-12-19T15:50:11Z</time>
      </trkpt>
      <trkpt lat="43.4404" lon="3.46558">
        <ele>54</ele>
        <time>2023-12-19T15:50:12Z</time>
      </trkpt>
      <trkpt lat="43.44039" lon="3.46555">
        <ele>53.799999237061</ele>
        <time>2023-12-19T15:50:13Z</time>
      </trkpt>
      <trkpt lat="43.44039" lon="3.46552">
        <ele>53.799999237061</ele>
        <time>2023-12-19T15:50:14Z</time>
      </trkpt>
      <trkpt lat="43.44039" lon="3.46549">
        <ele>53.599998474121</ele>
        <time>2023-12-19T15:50:15Z</time>
      </trkpt>
      <trkpt lat="43.44039" lon="3.46545">
        <ele>53.599998474121</ele>
        <time>2023-12-19T15:50:16Z</time>
      </trkpt>
      <trkpt lat="43.44038" lon="3.46541">
        <ele>53.599998474121</ele>
        <time>2023-12-19T15:50:17Z</time>
      </trkpt>
      <trkpt lat="43.44037" lon="3.46537">
        <ele>53.599998474121</ele>
        <time>2023-12-19T15:50:18Z</time>
      </trkpt>
      <trkpt lat="43.44035" lon="3.46534">
        <ele>53.599998474121</ele>
        <time>2023-12-19T15:50:19Z</time>
      </trkpt>
      <trkpt lat="43.44033" lon="3.4653">
        <ele>53.599998474121</ele>
        <time>2023-12-19T15:50:20Z</time>
      </trkpt>
      <trkpt lat="43.44031" lon="3.46526">
        <ele>53.599998474121</ele>
        <time>2023-12-19T15:50:21Z</time>
      </trkpt>
      <trkpt lat="43.44029" lon="3.46523">
        <ele>53.599998474121</ele>
        <time>2023-12-19T15:50:22Z</time>
      </trkpt>
      <trkpt lat="43.44027" lon="3.46521">
        <ele>53.799999237061</ele>
        <time>2023-12-19T15:50:23Z</time>
      </trkpt>
      <trkpt lat="43.44026" lon="3.46518">
        <ele>53.799999237061</ele>
        <time>2023-12-19T15:50:24Z</time>
      </trkpt>
      <trkpt lat="43.44025" lon="3.46515">
        <ele>54</ele>
        <time>2023-12-19T15:50:25Z</time>
      </trkpt>
      <trkpt lat="43.44024" lon="3.46512">
        <ele>54.200000762939</ele>
        <time>2023-12-19T15:50:26Z</time>
      </trkpt>
      <trkpt lat="43.44024" lon="3.46509">
        <ele>54.400001525879</ele>
        <time>2023-12-19T15:50:27Z</time>
      </trkpt>
      <trkpt lat="43.44023" lon="3.46505">
        <ele>54.599998474121</ele>
        <time>2023-12-19T15:50:28Z</time>
      </trkpt>
      <trkpt lat="43.44021" lon="3.46501">
        <ele>54.599998474121</ele>
        <time>2023-12-19T15:50:29Z</time>
      </trkpt>
      <trkpt lat="43.4402" lon="3.46496">
        <ele>54.599998474121</ele>
        <time>2023-12-19T15:50:30Z</time>
      </trkpt>
      <trkpt lat="43.44019" lon="3.46491">
        <ele>54.599998474121</ele>
        <time>2023-12-19T15:50:31Z</time>
      </trkpt>
      <trkpt lat="43.44016" lon="3.46487">
        <ele>54.599998474121</ele>
        <time>2023-12-19T15:50:32Z</time>
      </trkpt>
      <trkpt lat="43.44014" lon="3.46485">
        <ele>54.599998474121</ele>
        <time>2023-12-19T15:50:33Z</time>
      </trkpt>
      <trkpt lat="43.44012" lon="3.46484">
        <ele>54.599998474121</ele>
        <time>2023-12-19T15:50:34Z</time>
      </trkpt>
      <trkpt lat="43.4401" lon="3.46483">
        <ele>54.599998474121</ele>
        <time>2023-12-19T15:50:35Z</time>
      </trkpt>
      <trkpt lat="43.4401" lon="3.4648">
        <ele>54.799999237061</ele>
        <time>2023-12-19T15:50:36Z</time>
      </trkpt>
      <trkpt lat="43.4401" lon="3.46477">
        <ele>55.200000762939</ele>
        <time>2023-12-19T15:50:37Z</time>
      </trkpt>
      <trkpt lat="43.4401" lon="3.46475">
        <ele>55.799999237061</ele>
        <time>2023-12-19T15:50:38Z</time>
      </trkpt>
      <trkpt lat="43.44009" lon="3.46473">
        <ele>56.200000762939</ele>
        <time>2023-12-19T15:50:39Z</time>
      </trkpt>
      <trkpt lat="43.44008" lon="3.4647">
        <ele>56.799999237061</ele>
        <time>2023-12-19T15:50:40Z</time>
      </trkpt>
      <trkpt lat="43.44007" lon="3.46467">
        <ele>57.200000762939</ele>
        <time>2023-12-19T15:50:41Z</time>
      </trkpt>
      <trkpt lat="43.44006" lon="3.46463">
        <ele>57.400001525879</ele>
        <time>2023-12-19T15:50:42Z</time>
      </trkpt>
      <trkpt lat="43.44006" lon="3.46461">
        <ele>57.599998474121</ele>
        <time>2023-12-19T15:50:43Z</time>
      </trkpt>
      <trkpt lat="43.44006" lon="3.46457">
        <ele>57.599998474121</ele>
        <time>2023-12-19T15:50:44Z</time>
      </trkpt>
      <trkpt lat="43.44006" lon="3.46454">
        <ele>57.799999237061</ele>
        <time>2023-12-19T15:50:45Z</time>
      </trkpt>
      <trkpt lat="43.44007" lon="3.46451">
        <ele>57.799999237061</ele>
        <time>2023-12-19T15:50:46Z</time>
      </trkpt>
      <trkpt lat="43.44007" lon="3.46449">
        <ele>57.799999237061</ele>
        <time>2023-12-19T15:50:47Z</time>
      </trkpt>
      <trkpt lat="43.44007" lon="3.46446">
        <ele>57.799999237061</ele>
        <time>2023-12-19T15:50:48Z</time>
      </trkpt>
      <trkpt lat="43.44008" lon="3.46442">
        <ele>58.200000762939</ele>
        <time>2023-12-19T15:50:49Z</time>
      </trkpt>
      <trkpt lat="43.44009" lon="3.46439">
        <ele>58.400001525879</ele>
        <time>2023-12-19T15:50:50Z</time>
      </trkpt>
      <trkpt lat="43.4401" lon="3.46436">
        <ele>58.599998474121</ele>
        <time>2023-12-19T15:50:51Z</time>
      </trkpt>
      <trkpt lat="43.44011" lon="3.46432">
        <ele>58.799999237061</ele>
        <time>2023-12-19T15:50:52Z</time>
      </trkpt>
      <trkpt lat="43.44013" lon="3.46428">
        <ele>59</ele>
        <time>2023-12-19T15:50:53Z</time>
      </trkpt>
      <trkpt lat="43.44015" lon="3.46425">
        <ele>59.200000762939</ele>
        <time>2023-12-19T15:50:54Z</time>
      </trkpt>
      <trkpt lat="43.44015" lon="3.46422">
        <ele>59.400001525879</ele>
        <time>2023-12-19T15:50:55Z</time>
      </trkpt>
      <trkpt lat="43.44015" lon="3.46418">
        <ele>59.599998474121</ele>
        <time>2023-12-19T15:50:56Z</time>
      </trkpt>
      <trkpt lat="43.44015" lon="3.46415">
        <ele>59.599998474121</ele>
        <time>2023-12-19T15:50:57Z</time>
      </trkpt>
      <trkpt lat="43.44015" lon="3.46411">
        <ele>59.599998474121</ele>
        <time>2023-12-19T15:50:58Z</time>
      </trkpt>
      <trkpt lat="43.44015" lon="3.46408">
        <ele>59.799999237061</ele>
        <time>2023-12-19T15:50:59Z</time>
      </trkpt>
      <trkpt lat="43.44015" lon="3.46404">
        <ele>59.799999237061</ele>
        <time>2023-12-19T15:51:00Z</time>
      </trkpt>
      <trkpt lat="43.44013" lon="3.464">
        <ele>59.799999237061</ele>
        <time>2023-12-19T15:51:01Z</time>
      </trkpt>
      <trkpt lat="43.44013" lon="3.46396">
        <ele>60.200000762939</ele>
        <time>2023-12-19T15:51:02Z</time>
      </trkpt>
      <trkpt lat="43.44012" lon="3.46392">
        <ele>60.400001525879</ele>
        <time>2023-12-19T15:51:03Z</time>
      </trkpt>
      <trkpt lat="43.44011" lon="3.46389">
        <ele>60.400001525879</ele>
        <time>2023-12-19T15:51:04Z</time>
      </trkpt>
      <trkpt lat="43.44009" lon="3.46387">
        <ele>60.799999237061</ele>
        <time>2023-12-19T15:51:05Z</time>
      </trkpt>
      <trkpt lat="43.44007" lon="3.46385">
        <ele>61</ele>
        <time>2023-12-19T15:51:06Z</time>
      </trkpt>
      <trkpt lat="43.44005" lon="3.46383">
        <ele>61.400001525879</ele>
        <time>2023-12-19T15:51:07Z</time>
      </trkpt>
      <trkpt lat="43.44004" lon="3.46381">
        <ele>61.799999237061</ele>
        <time>2023-12-19T15:51:08Z</time>
      </trkpt>
      <trkpt lat="43.44004" lon="3.46379">
        <ele>62.200000762939</ele>
        <time>2023-12-19T15:51:09Z</time>
      </trkpt>
      <trkpt lat="43.44002" lon="3.46378">
        <ele>62.599998474121</ele>
        <time>2023-12-19T15:51:10Z</time>
      </trkpt>
      <trkpt lat="43.44001" lon="3.46377">
        <ele>62.799999237061</ele>
        <time>2023-12-19T15:51:11Z</time>
      </trkpt>
      <trkpt lat="43.44" lon="3.46378">
        <ele>63.200000762939</ele>
        <time>2023-12-19T15:51:12Z</time>
      </trkpt>
      <trkpt lat="43.44" lon="3.46377">
        <ele>63.400001525879</ele>
        <time>2023-12-19T15:51:13Z</time>
      </trkpt>
      <trkpt lat="43.44004" lon="3.46372">
        <ele>64.400001525879</ele>
        <time>2023-12-19T15:51:23Z</time>
      </trkpt>
      <trkpt lat="43.44004" lon="3.4637">
        <ele>64.400001525879</ele>
        <time>2023-12-19T15:51:24Z</time>
      </trkpt>
      <trkpt lat="43.44004" lon="3.46367">
        <ele>64.400001525879</ele>
        <time>2023-12-19T15:51:25Z</time>
      </trkpt>
      <trkpt lat="43.44004" lon="3.46365">
        <ele>64.400001525879</ele>
        <time>2023-12-19T15:51:26Z</time>
      </trkpt>
      <trkpt lat="43.44003" lon="3.46363">
        <ele>64.400001525879</ele>
        <time>2023-12-19T15:51:27Z</time>
      </trkpt>
      <trkpt lat="43.44002" lon="3.46361">
        <ele>64.400001525879</ele>
        <time>2023-12-19T15:51:28Z</time>
      </trkpt>
      <trkpt lat="43.44001" lon="3.4636">
        <ele>64.599998474121</ele>
        <time>2023-12-19T15:51:29Z</time>
      </trkpt>
      <trkpt lat="43.44" lon="3.4636">
        <ele>64.599998474121</ele>
        <time>2023-12-19T15:51:30Z</time>
      </trkpt>
      <trkpt lat="43.44" lon="3.46359">
        <ele>64.800003051758</ele>
        <time>2023-12-19T15:51:31Z</time>
      </trkpt>
      <trkpt lat="43.43998" lon="3.46354">
        <ele>65.599998474121</ele>
        <time>2023-12-19T15:51:35Z</time>
      </trkpt>
      <trkpt lat="43.43998" lon="3.46352">
        <ele>65.599998474121</ele>
        <time>2023-12-19T15:51:36Z</time>
      </trkpt>
      <trkpt lat="43.43997" lon="3.46351">
        <ele>65.599998474121</ele>
        <time>2023-12-19T15:51:37Z</time>
      </trkpt>
      <trkpt lat="43.43996" lon="3.46348">
        <ele>65.599998474121</ele>
        <time>2023-12-19T15:51:38Z</time>
      </trkpt>
      <trkpt lat="43.43995" lon="3.46346">
        <ele>65.599998474121</ele>
        <time>2023-12-19T15:51:39Z</time>
      </trkpt>
      <trkpt lat="43.43993" lon="3.46343">
        <ele>65.599998474121</ele>
        <time>2023-12-19T15:51:40Z</time>
      </trkpt>
      <trkpt lat="43.43991" lon="3.46339">
        <ele>65.599998474121</ele>
        <time>2023-12-19T15:51:41Z</time>
      </trkpt>
      <trkpt lat="43.4399" lon="3.46336">
        <ele>65.599998474121</ele>
        <time>2023-12-19T15:51:42Z</time>
      </trkpt>
      <trkpt lat="43.43988" lon="3.46335">
        <ele>65.199996948242</ele>
        <time>2023-12-19T15:51:43Z</time>
      </trkpt>
      <trkpt lat="43.43987" lon="3.46334">
        <ele>64.800003051758</ele>
        <time>2023-12-19T15:51:44Z</time>
      </trkpt>
      <trkpt lat="43.43985" lon="3.46335">
        <ele>64.400001525879</ele>
        <time>2023-12-19T15:51:45Z</time>
      </trkpt>
      <trkpt lat="43.43984" lon="3.46334">
        <ele>64</ele>
        <time>2023-12-19T15:51:46Z</time>
      </trkpt>
      <trkpt lat="43.43983" lon="3.46333">
        <ele>63.599998474121</ele>
        <time>2023-12-19T15:51:47Z</time>
      </trkpt>
      <trkpt lat="43.43981" lon="3.46332">
        <ele>63.400001525879</ele>
        <time>2023-12-19T15:51:48Z</time>
      </trkpt>
      <trkpt lat="43.43978" lon="3.46332">
        <ele>63.200000762939</ele>
        <time>2023-12-19T15:51:49Z</time>
      </trkpt>
      <trkpt lat="43.43976" lon="3.46332">
        <ele>63</ele>
        <time>2023-12-19T15:51:50Z</time>
      </trkpt>
      <trkpt lat="43.43974" lon="3.46331">
        <ele>63</ele>
        <time>2023-12-19T15:51:51Z</time>
      </trkpt>
      <trkpt lat="43.43972" lon="3.46331">
        <ele>63</ele>
        <time>2023-12-19T15:51:52Z</time>
      </trkpt>
      <trkpt lat="43.43969" lon="3.46331">
        <ele>63</ele>
        <time>2023-12-19T15:51:53Z</time>
      </trkpt>
      <trkpt lat="43.43966" lon="3.46331">
        <ele>63</ele>
        <time>2023-12-19T15:51:54Z</time>
      </trkpt>
      <trkpt lat="43.43964" lon="3.46331">
        <ele>63</ele>
        <time>2023-12-19T15:51:55Z</time>
      </trkpt>
      <trkpt lat="43.43962" lon="3.46331">
        <ele>63</ele>
        <time>2023-12-19T15:51:56Z</time>
      </trkpt>
      <trkpt lat="43.4396" lon="3.4633">
        <ele>63</ele>
        <time>2023-12-19T15:51:57Z</time>
      </trkpt>
      <trkpt lat="43.43958" lon="3.46329">
        <ele>63</ele>
        <time>2023-12-19T15:51:58Z</time>
      </trkpt>
      <trkpt lat="43.43955" lon="3.46328">
        <ele>63</ele>
        <time>2023-12-19T15:51:59Z</time>
      </trkpt>
      <trkpt lat="43.43952" lon="3.46328">
        <ele>62.799999237061</ele>
        <time>2023-12-19T15:52:00Z</time>
      </trkpt>
      <trkpt lat="43.4395" lon="3.46329">
        <ele>62.799999237061</ele>
        <time>2023-12-19T15:52:01Z</time>
      </trkpt>
      <trkpt lat="43.43948" lon="3.4633">
        <ele>62.599998474121</ele>
        <time>2023-12-19T15:52:02Z</time>
      </trkpt>
      <trkpt lat="43.43946" lon="3.46332">
        <ele>62.200000762939</ele>
        <time>2023-12-19T15:52:03Z</time>
      </trkpt>
      <trkpt lat="43.43944" lon="3.46333">
        <ele>61</ele>
        <time>2023-12-19T15:52:04Z</time>
      </trkpt>
      <trkpt lat="43.43943" lon="3.46335">
        <ele>60.599998474121</ele>
        <time>2023-12-19T15:52:05Z</time>
      </trkpt>
      <trkpt lat="43.43942" lon="3.46338">
        <ele>60</ele>
        <time>2023-12-19T15:52:06Z</time>
      </trkpt>
      <trkpt lat="43.43941" lon="3.46341">
        <ele>59</ele>
        <time>2023-12-19T15:52:07Z</time>
      </trkpt>
      <trkpt lat="43.43941" lon="3.46344">
        <ele>58.599998474121</ele>
        <time>2023-12-19T15:52:08Z</time>
      </trkpt>
      <trkpt lat="43.43941" lon="3.46347">
        <ele>58</ele>
        <time>2023-12-19T15:52:09Z</time>
      </trkpt>
      <trkpt lat="43.43941" lon="3.46347">
        <ele>57.599998474121</ele>
        <time>2023-12-19T15:52:10Z</time>
      </trkpt>
      <trkpt lat="43.43941" lon="3.46347">
        <ele>57.200000762939</ele>
        <time>2023-12-19T15:52:11Z</time>
      </trkpt>
      <trkpt lat="43.4394" lon="3.46353">
        <ele>55.799999237061</ele>
        <time>2023-12-19T15:52:21Z</time>
      </trkpt>
      <trkpt lat="43.4394" lon="3.46357">
        <ele>55.799999237061</ele>
        <time>2023-12-19T15:52:22Z</time>
      </trkpt>
      <trkpt lat="43.43942" lon="3.46361">
        <ele>55.599998474121</ele>
        <time>2023-12-19T15:52:23Z</time>
      </trkpt>
      <trkpt lat="43.43943" lon="3.46364">
        <ele>55.599998474121</ele>
        <time>2023-12-19T15:52:24Z</time>
      </trkpt>
      <trkpt lat="43.43945" lon="3.46368">
        <ele>55.400001525879</ele>
        <time>2023-12-19T15:52:25Z</time>
      </trkpt>
      <trkpt lat="43.43946" lon="3.46373">
        <ele>55.400001525879</ele>
        <time>2023-12-19T15:52:26Z</time>
      </trkpt>
      <trkpt lat="43.43947" lon="3.46378">
        <ele>55.400001525879</ele>
        <time>2023-12-19T15:52:27Z</time>
      </trkpt>
      <trkpt lat="43.43947" lon="3.46384">
        <ele>55.400001525879</ele>
        <time>2023-12-19T15:52:28Z</time>
      </trkpt>
      <trkpt lat="43.43946" lon="3.46389">
        <ele>55.400001525879</ele>
        <time>2023-12-19T15:52:29Z</time>
      </trkpt>
      <trkpt lat="43.43944" lon="3.46395">
        <ele>55.599998474121</ele>
        <time>2023-12-19T15:52:30Z</time>
      </trkpt>
      <trkpt lat="43.43943" lon="3.464">
        <ele>56</ele>
        <time>2023-12-19T15:52:31Z</time>
      </trkpt>
      <trkpt lat="43.43942" lon="3.46405">
        <ele>56.200000762939</ele>
        <time>2023-12-19T15:52:32Z</time>
      </trkpt>
      <trkpt lat="43.43939" lon="3.46409">
        <ele>56.400001525879</ele>
        <time>2023-12-19T15:52:33Z</time>
      </trkpt>
      <trkpt lat="43.43936" lon="3.46412">
        <ele>56.400001525879</ele>
        <time>2023-12-19T15:52:34Z</time>
      </trkpt>
      <trkpt lat="43.43931" lon="3.46415">
        <ele>56.400001525879</ele>
        <time>2023-12-19T15:52:35Z</time>
      </trkpt>
      <trkpt lat="43.43926" lon="3.46416">
        <ele>56.400001525879</ele>
        <time>2023-12-19T15:52:36Z</time>
      </trkpt>
      <trkpt lat="43.43921" lon="3.46415">
        <ele>56.400001525879</ele>
        <time>2023-12-19T15:52:37Z</time>
      </trkpt>
      <trkpt lat="43.43916" lon="3.46412">
        <ele>56.400001525879</ele>
        <time>2023-12-19T15:52:38Z</time>
      </trkpt>
      <trkpt lat="43.43913" lon="3.46408">
        <ele>55.799999237061</ele>
        <time>2023-12-19T15:52:39Z</time>
      </trkpt>
      <trkpt lat="43.4391" lon="3.46404">
        <ele>55.400001525879</ele>
        <time>2023-12-19T15:52:40Z</time>
      </trkpt>
      <trkpt lat="43.43908" lon="3.464">
        <ele>54.799999237061</ele>
        <time>2023-12-19T15:52:41Z</time>
      </trkpt>
      <trkpt lat="43.43905" lon="3.46399">
        <ele>54</ele>
        <time>2023-12-19T15:52:42Z</time>
      </trkpt>
      <trkpt lat="43.43903" lon="3.46398">
        <ele>53.400001525879</ele>
        <time>2023-12-19T15:52:43Z</time>
      </trkpt>
      <trkpt lat="43.43899" lon="3.46397">
        <ele>53</ele>
        <time>2023-12-19T15:52:44Z</time>
      </trkpt>
      <trkpt lat="43.43895" lon="3.46393">
        <ele>52.799999237061</ele>
        <time>2023-12-19T15:52:45Z</time>
      </trkpt>
      <trkpt lat="43.4389" lon="3.46388">
        <ele>52.799999237061</ele>
        <time>2023-12-19T15:52:46Z</time>
      </trkpt>
      <trkpt lat="43.43885" lon="3.46383">
        <ele>52.599998474121</ele>
        <time>2023-12-19T15:52:47Z</time>
      </trkpt>
      <trkpt lat="43.4388" lon="3.46378">
        <ele>52.599998474121</ele>
        <time>2023-12-19T15:52:48Z</time>
      </trkpt>
      <trkpt lat="43.43874" lon="3.46374">
        <ele>52.200000762939</ele>
        <time>2023-12-19T15:52:49Z</time>
      </trkpt>
      <trkpt lat="43.43868" lon="3.4637">
        <ele>51.599998474121</ele>
        <time>2023-12-19T15:52:50Z</time>
      </trkpt>
      <trkpt lat="43.43863" lon="3.46366">
        <ele>50.799999237061</ele>
        <time>2023-12-19T15:52:51Z</time>
      </trkpt>
      <trkpt lat="43.43859" lon="3.46362">
        <ele>50.400001525879</ele>
        <time>2023-12-19T15:52:52Z</time>
      </trkpt>
      <trkpt lat="43.43856" lon="3.46358">
        <ele>49.599998474121</ele>
        <time>2023-12-19T15:52:53Z</time>
      </trkpt>
      <trkpt lat="43.43853" lon="3.46354">
        <ele>49.400001525879</ele>
        <time>2023-12-19T15:52:54Z</time>
      </trkpt>
      <trkpt lat="43.43851" lon="3.46352">
        <ele>49.200000762939</ele>
        <time>2023-12-19T15:52:55Z</time>
      </trkpt>
      <trkpt lat="43.43849" lon="3.46349">
        <ele>48.799999237061</ele>
        <time>2023-12-19T15:52:56Z</time>
      </trkpt>
      <trkpt lat="43.43847" lon="3.46344">
        <ele>48.799999237061</ele>
        <time>2023-12-19T15:52:57Z</time>
      </trkpt>
      <trkpt lat="43.43846" lon="3.46341">
        <ele>48.599998474121</ele>
        <time>2023-12-19T15:52:58Z</time>
      </trkpt>
      <trkpt lat="43.43845" lon="3.46337">
        <ele>48.400001525879</ele>
        <time>2023-12-19T15:52:59Z</time>
      </trkpt>
      <trkpt lat="43.43844" lon="3.46334">
        <ele>48.200000762939</ele>
        <time>2023-12-19T15:53:00Z</time>
      </trkpt>
      <trkpt lat="43.43842" lon="3.46331">
        <ele>48</ele>
        <time>2023-12-19T15:53:01Z</time>
      </trkpt>
      <trkpt lat="43.43841" lon="3.46328">
        <ele>47.599998474121</ele>
        <time>2023-12-19T15:53:02Z</time>
      </trkpt>
      <trkpt lat="43.43839" lon="3.46324">
        <ele>47.599998474121</ele>
        <time>2023-12-19T15:53:03Z</time>
      </trkpt>
      <trkpt lat="43.43837" lon="3.46322">
        <ele>47.400001525879</ele>
        <time>2023-12-19T15:53:04Z</time>
      </trkpt>
      <trkpt lat="43.43836" lon="3.46319">
        <ele>47.200000762939</ele>
        <time>2023-12-19T15:53:05Z</time>
      </trkpt>
      <trkpt lat="43.43835" lon="3.46317">
        <ele>47</ele>
        <time>2023-12-19T15:53:06Z</time>
      </trkpt>
      <trkpt lat="43.43833" lon="3.46314">
        <ele>46.799999237061</ele>
        <time>2023-12-19T15:53:07Z</time>
      </trkpt>
      <trkpt lat="43.43831" lon="3.46311">
        <ele>46.799999237061</ele>
        <time>2023-12-19T15:53:08Z</time>
      </trkpt>
      <trkpt lat="43.43829" lon="3.46307">
        <ele>46.799999237061</ele>
        <time>2023-12-19T15:53:09Z</time>
      </trkpt>
      <trkpt lat="43.43827" lon="3.46303">
        <ele>46.799999237061</ele>
        <time>2023-12-19T15:53:10Z</time>
      </trkpt>
      <trkpt lat="43.43825" lon="3.46299">
        <ele>47</ele>
        <time>2023-12-19T15:53:11Z</time>
      </trkpt>
      <trkpt lat="43.43823" lon="3.46295">
        <ele>47</ele>
        <time>2023-12-19T15:53:12Z</time>
      </trkpt>
      <trkpt lat="43.4382" lon="3.4629">
        <ele>47.200000762939</ele>
        <time>2023-12-19T15:53:13Z</time>
      </trkpt>
      <trkpt lat="43.43818" lon="3.46286">
        <ele>47.200000762939</ele>
        <time>2023-12-19T15:53:14Z</time>
      </trkpt>
      <trkpt lat="43.43815" lon="3.46283">
        <ele>47.200000762939</ele>
        <time>2023-12-19T15:53:15Z</time>
      </trkpt>
      <trkpt lat="43.43813" lon="3.4628">
        <ele>47.200000762939</ele>
        <time>2023-12-19T15:53:16Z</time>
      </trkpt>
      <trkpt lat="43.43811" lon="3.46277">
        <ele>47.400001525879</ele>
        <time>2023-12-19T15:53:17Z</time>
      </trkpt>
      <trkpt lat="43.43808" lon="3.46274">
        <ele>47.200000762939</ele>
        <time>2023-12-19T15:53:18Z</time>
      </trkpt>
      <trkpt lat="43.43805" lon="3.46271">
        <ele>47.400001525879</ele>
        <time>2023-12-19T15:53:19Z</time>
      </trkpt>
      <trkpt lat="43.43802" lon="3.46266">
        <ele>47.400001525879</ele>
        <time>2023-12-19T15:53:20Z</time>
      </trkpt>
      <trkpt lat="43.438" lon="3.46261">
        <ele>47.400001525879</ele>
        <time>2023-12-19T15:53:21Z</time>
      </trkpt>
      <trkpt lat="43.43797" lon="3.46257">
        <ele>47.200000762939</ele>
        <time>2023-12-19T15:53:22Z</time>
      </trkpt>
      <trkpt lat="43.43794" lon="3.46252">
        <ele>47.200000762939</ele>
        <time>2023-12-19T15:53:23Z</time>
      </trkpt>
      <trkpt lat="43.43792" lon="3.46248">
        <ele>47</ele>
        <time>2023-12-19T15:53:24Z</time>
      </trkpt>
      <trkpt lat="43.4379" lon="3.46244">
        <ele>46.799999237061</ele>
        <time>2023-12-19T15:53:25Z</time>
      </trkpt>
      <trkpt lat="43.43788" lon="3.4624">
        <ele>46.599998474121</ele>
        <time>2023-12-19T15:53:26Z</time>
      </trkpt>
      <trkpt lat="43.43786" lon="3.46235">
        <ele>46.400001525879</ele>
        <time>2023-12-19T15:53:27Z</time>
      </trkpt>
      <trkpt lat="43.43784" lon="3.46231">
        <ele>46.400001525879</ele>
        <time>2023-12-19T15:53:28Z</time>
      </trkpt>
      <trkpt lat="43.43781" lon="3.46226">
        <ele>46.400001525879</ele>
        <time>2023-12-19T15:53:29Z</time>
      </trkpt>
      <trkpt lat="43.43779" lon="3.46221">
        <ele>46.200000762939</ele>
        <time>2023-12-19T15:53:30Z</time>
      </trkpt>
      <trkpt lat="43.43776" lon="3.46216">
        <ele>46</ele>
        <time>2023-12-19T15:53:31Z</time>
      </trkpt>
      <trkpt lat="43.43774" lon="3.46211">
        <ele>45.599998474121</ele>
        <time>2023-12-19T15:53:32Z</time>
      </trkpt>
      <trkpt lat="43.43772" lon="3.46206">
        <ele>45.400001525879</ele>
        <time>2023-12-19T15:53:33Z</time>
      </trkpt>
      <trkpt lat="43.43769" lon="3.46199">
        <ele>45.400001525879</ele>
        <time>2023-12-19T15:53:34Z</time>
      </trkpt>
      <trkpt lat="43.43766" lon="3.46192">
        <ele>45.200000762939</ele>
        <time>2023-12-19T15:53:35Z</time>
      </trkpt>
      <trkpt lat="43.43763" lon="3.46186">
        <ele>45.200000762939</ele>
        <time>2023-12-19T15:53:36Z</time>
      </trkpt>
      <trkpt lat="43.4376" lon="3.4618">
        <ele>45.200000762939</ele>
        <time>2023-12-19T15:53:37Z</time>
      </trkpt>
      <trkpt lat="43.43758" lon="3.46174">
        <ele>45.200000762939</ele>
        <time>2023-12-19T15:53:38Z</time>
      </trkpt>
      <trkpt lat="43.43755" lon="3.46168">
        <ele>45.200000762939</ele>
        <time>2023-12-19T15:53:39Z</time>
      </trkpt>
      <trkpt lat="43.43753" lon="3.46162">
        <ele>45.200000762939</ele>
        <time>2023-12-19T15:53:40Z</time>
      </trkpt>
      <trkpt lat="43.43751" lon="3.46156">
        <ele>45.200000762939</ele>
        <time>2023-12-19T15:53:41Z</time>
      </trkpt>
      <trkpt lat="43.4375" lon="3.46151">
        <ele>45.200000762939</ele>
        <time>2023-12-19T15:53:42Z</time>
      </trkpt>
      <trkpt lat="43.43749" lon="3.46145">
        <ele>45.200000762939</ele>
        <time>2023-12-19T15:53:43Z</time>
      </trkpt>
      <trkpt lat="43.43748" lon="3.4614">
        <ele>45.200000762939</ele>
        <time>2023-12-19T15:53:44Z</time>
      </trkpt>
      <trkpt lat="43.43746" lon="3.46135">
        <ele>45.200000762939</ele>
        <time>2023-12-19T15:53:45Z</time>
      </trkpt>
      <trkpt lat="43.43744" lon="3.46131">
        <ele>45.200000762939</ele>
        <time>2023-12-19T15:53:46Z</time>
      </trkpt>
      <trkpt lat="43.4374" lon="3.46127">
        <ele>45</ele>
        <time>2023-12-19T15:53:47Z</time>
      </trkpt>
      <trkpt lat="43.43736" lon="3.46123">
        <ele>44.799999237061</ele>
        <time>2023-12-19T15:53:48Z</time>
      </trkpt>
      <trkpt lat="43.43733" lon="3.46119">
        <ele>44.599998474121</ele>
        <time>2023-12-19T15:53:49Z</time>
      </trkpt>
      <trkpt lat="43.4373" lon="3.46114">
        <ele>44.400001525879</ele>
        <time>2023-12-19T15:53:50Z</time>
      </trkpt>
      <trkpt lat="43.43727" lon="3.46109">
        <ele>44</ele>
        <time>2023-12-19T15:53:51Z</time>
      </trkpt>
      <trkpt lat="43.43725" lon="3.46104">
        <ele>44</ele>
        <time>2023-12-19T15:53:52Z</time>
      </trkpt>
      <trkpt lat="43.43723" lon="3.46098">
        <ele>43.799999237061</ele>
        <time>2023-12-19T15:53:53Z</time>
      </trkpt>
      <trkpt lat="43.43723" lon="3.46092">
        <ele>43.400001525879</ele>
        <time>2023-12-19T15:53:54Z</time>
      </trkpt>
      <trkpt lat="43.43721" lon="3.46087">
        <ele>43.200000762939</ele>
        <time>2023-12-19T15:53:55Z</time>
      </trkpt>
      <trkpt lat="43.43719" lon="3.46083">
        <ele>42.799999237061</ele>
        <time>2023-12-19T15:53:56Z</time>
      </trkpt>
      <trkpt lat="43.43718" lon="3.46078">
        <ele>42.400001525879</ele>
        <time>2023-12-19T15:53:57Z</time>
      </trkpt>
      <trkpt lat="43.43717" lon="3.46072">
        <ele>42</ele>
        <time>2023-12-19T15:53:58Z</time>
      </trkpt>
      <trkpt lat="43.43717" lon="3.46066">
        <ele>42</ele>
        <time>2023-12-19T15:53:59Z</time>
      </trkpt>
      <trkpt lat="43.43716" lon="3.46061">
        <ele>42</ele>
        <time>2023-12-19T15:54:00Z</time>
      </trkpt>
      <trkpt lat="43.43714" lon="3.46057">
        <ele>42</ele>
        <time>2023-12-19T15:54:01Z</time>
      </trkpt>
      <trkpt lat="43.43714" lon="3.46052">
        <ele>42.200000762939</ele>
        <time>2023-12-19T15:54:02Z</time>
      </trkpt>
      <trkpt lat="43.43716" lon="3.46046">
        <ele>42.400001525879</ele>
        <time>2023-12-19T15:54:03Z</time>
      </trkpt>
      <trkpt lat="43.43718" lon="3.46041">
        <ele>42.599998474121</ele>
        <time>2023-12-19T15:54:04Z</time>
      </trkpt>
      <trkpt lat="43.43719" lon="3.46035">
        <ele>43</ele>
        <time>2023-12-19T15:54:05Z</time>
      </trkpt>
      <trkpt lat="43.43719" lon="3.46029">
        <ele>43.400001525879</ele>
        <time>2023-12-19T15:54:06Z</time>
      </trkpt>
      <trkpt lat="43.43719" lon="3.46022">
        <ele>43.599998474121</ele>
        <time>2023-12-19T15:54:07Z</time>
      </trkpt>
      <trkpt lat="43.43718" lon="3.46017">
        <ele>43.599998474121</ele>
        <time>2023-12-19T15:54:08Z</time>
      </trkpt>
      <trkpt lat="43.43717" lon="3.46013">
        <ele>43.599998474121</ele>
        <time>2023-12-19T15:54:09Z</time>
      </trkpt>
      <trkpt lat="43.43716" lon="3.46008">
        <ele>43.799999237061</ele>
        <time>2023-12-19T15:54:10Z</time>
      </trkpt>
      <trkpt lat="43.43716" lon="3.46002">
        <ele>44</ele>
        <time>2023-12-19T15:54:11Z</time>
      </trkpt>
      <trkpt lat="43.43715" lon="3.45997">
        <ele>44.400001525879</ele>
        <time>2023-12-19T15:54:12Z</time>
      </trkpt>
      <trkpt lat="43.43714" lon="3.45992">
        <ele>45.200000762939</ele>
        <time>2023-12-19T15:54:13Z</time>
      </trkpt>
      <trkpt lat="43.43711" lon="3.45987">
        <ele>45.400001525879</ele>
        <time>2023-12-19T15:54:14Z</time>
      </trkpt>
      <trkpt lat="43.4371" lon="3.45982">
        <ele>45.799999237061</ele>
        <time>2023-12-19T15:54:15Z</time>
      </trkpt>
      <trkpt lat="43.43707" lon="3.45977">
        <ele>46.200000762939</ele>
        <time>2023-12-19T15:54:16Z</time>
      </trkpt>
      <trkpt lat="43.43705" lon="3.45972">
        <ele>46.400001525879</ele>
        <time>2023-12-19T15:54:17Z</time>
      </trkpt>
      <trkpt lat="43.43703" lon="3.45966">
        <ele>46.599998474121</ele>
        <time>2023-12-19T15:54:18Z</time>
      </trkpt>
      <trkpt lat="43.43702" lon="3.45961">
        <ele>46.599998474121</ele>
        <time>2023-12-19T15:54:19Z</time>
      </trkpt>
      <trkpt lat="43.43702" lon="3.45955">
        <ele>46.599998474121</ele>
        <time>2023-12-19T15:54:20Z</time>
      </trkpt>
      <trkpt lat="43.43701" lon="3.4595">
        <ele>46.599998474121</ele>
        <time>2023-12-19T15:54:21Z</time>
      </trkpt>
      <trkpt lat="43.437" lon="3.45944">
        <ele>46.599998474121</ele>
        <time>2023-12-19T15:54:22Z</time>
      </trkpt>
      <trkpt lat="43.43699" lon="3.45938">
        <ele>46.599998474121</ele>
        <time>2023-12-19T15:54:23Z</time>
      </trkpt>
      <trkpt lat="43.43698" lon="3.45933">
        <ele>46.599998474121</ele>
        <time>2023-12-19T15:54:24Z</time>
      </trkpt>
      <trkpt lat="43.43696" lon="3.45928">
        <ele>46.599998474121</ele>
        <time>2023-12-19T15:54:25Z</time>
      </trkpt>
      <trkpt lat="43.43695" lon="3.45924">
        <ele>46.599998474121</ele>
        <time>2023-12-19T15:54:26Z</time>
      </trkpt>
      <trkpt lat="43.43693" lon="3.4592">
        <ele>46.599998474121</ele>
        <time>2023-12-19T15:54:27Z</time>
      </trkpt>
      <trkpt lat="43.43692" lon="3.45915">
        <ele>46.799999237061</ele>
        <time>2023-12-19T15:54:28Z</time>
      </trkpt>
      <trkpt lat="43.4369" lon="3.4591">
        <ele>46.799999237061</ele>
        <time>2023-12-19T15:54:29Z</time>
      </trkpt>
      <trkpt lat="43.43689" lon="3.45905">
        <ele>47</ele>
        <time>2023-12-19T15:54:30Z</time>
      </trkpt>
      <trkpt lat="43.43688" lon="3.459">
        <ele>47.200000762939</ele>
        <time>2023-12-19T15:54:31Z</time>
      </trkpt>
      <trkpt lat="43.43687" lon="3.45896">
        <ele>47.400001525879</ele>
        <time>2023-12-19T15:54:32Z</time>
      </trkpt>
      <trkpt lat="43.43685" lon="3.45893">
        <ele>47.599998474121</ele>
        <time>2023-12-19T15:54:33Z</time>
      </trkpt>
      <trkpt lat="43.43684" lon="3.4589">
        <ele>47.599998474121</ele>
        <time>2023-12-19T15:54:34Z</time>
      </trkpt>
      <trkpt lat="43.43682" lon="3.45887">
        <ele>47.599998474121</ele>
        <time>2023-12-19T15:54:35Z</time>
      </trkpt>
      <trkpt lat="43.4368" lon="3.45885">
        <ele>47.599998474121</ele>
        <time>2023-12-19T15:54:36Z</time>
      </trkpt>
      <trkpt lat="43.43677" lon="3.45885">
        <ele>47.400001525879</ele>
        <time>2023-12-19T15:54:37Z</time>
      </trkpt>
      <trkpt lat="43.43674" lon="3.45886">
        <ele>47.400001525879</ele>
        <time>2023-12-19T15:54:38Z</time>
      </trkpt>
      <trkpt lat="43.43671" lon="3.45886">
        <ele>47.200000762939</ele>
        <time>2023-12-19T15:54:39Z</time>
      </trkpt>
      <trkpt lat="43.43667" lon="3.45886">
        <ele>47</ele>
        <time>2023-12-19T15:54:40Z</time>
      </trkpt>
      <trkpt lat="43.43664" lon="3.45887">
        <ele>47</ele>
        <time>2023-12-19T15:54:41Z</time>
      </trkpt>
      <trkpt lat="43.43661" lon="3.45887">
        <ele>46.799999237061</ele>
        <time>2023-12-19T15:54:42Z</time>
      </trkpt>
      <trkpt lat="43.43658" lon="3.45887">
        <ele>46.400001525879</ele>
        <time>2023-12-19T15:54:43Z</time>
      </trkpt>
      <trkpt lat="43.43654" lon="3.45887">
        <ele>45.799999237061</ele>
        <time>2023-12-19T15:54:44Z</time>
      </trkpt>
      <trkpt lat="43.43652" lon="3.45888">
        <ele>45.599998474121</ele>
        <time>2023-12-19T15:54:45Z</time>
      </trkpt>
      <trkpt lat="43.4365" lon="3.45888">
        <ele>45</ele>
        <time>2023-12-19T15:54:46Z</time>
      </trkpt>
      <trkpt lat="43.43646" lon="3.4589">
        <ele>44.200000762939</ele>
        <time>2023-12-19T15:54:47Z</time>
      </trkpt>
      <trkpt lat="43.43643" lon="3.4589">
        <ele>44</ele>
        <time>2023-12-19T15:54:48Z</time>
      </trkpt>
      <trkpt lat="43.43641" lon="3.45889">
        <ele>43.599998474121</ele>
        <time>2023-12-19T15:54:49Z</time>
      </trkpt>
      <trkpt lat="43.43639" lon="3.45888">
        <ele>43</ele>
        <time>2023-12-19T15:54:50Z</time>
      </trkpt>
      <trkpt lat="43.43637" lon="3.45887">
        <ele>42.599998474121</ele>
        <time>2023-12-19T15:54:51Z</time>
      </trkpt>
      <trkpt lat="43.43636" lon="3.45886">
        <ele>42</ele>
        <time>2023-12-19T15:54:52Z</time>
      </trkpt>
      <trkpt lat="43.43636" lon="3.45886">
        <ele>41.400001525879</ele>
        <time>2023-12-19T15:54:53Z</time>
      </trkpt>
      <trkpt lat="43.43636" lon="3.45886">
        <ele>41</ele>
        <time>2023-12-19T15:54:54Z</time>
      </trkpt>
      <trkpt lat="43.43622" lon="3.45885">
        <ele>36.200000762939</ele>
        <time>2023-12-19T15:55:13Z</time>
      </trkpt>
      <trkpt lat="43.43619" lon="3.45883">
        <ele>36</ele>
        <time>2023-12-19T15:55:14Z</time>
      </trkpt>
      <trkpt lat="43.43617" lon="3.45881">
        <ele>35.799999237061</ele>
        <time>2023-12-19T15:55:15Z</time>
      </trkpt>
      <trkpt lat="43.43615" lon="3.45879">
        <ele>35.599998474121</ele>
        <time>2023-12-19T15:55:16Z</time>
      </trkpt>
      <trkpt lat="43.43616" lon="3.45877">
        <ele>35.599998474121</ele>
        <time>2023-12-19T15:55:17Z</time>
      </trkpt>
      <trkpt lat="43.43616" lon="3.45876">
        <ele>35.599998474121</ele>
        <time>2023-12-19T15:55:18Z</time>
      </trkpt>
      <trkpt lat="43.43616" lon="3.45874">
        <ele>35.599998474121</ele>
        <time>2023-12-19T15:55:19Z</time>
      </trkpt>
      <trkpt lat="43.43617" lon="3.45873">
        <ele>35.799999237061</ele>
        <time>2023-12-19T15:55:20Z</time>
      </trkpt>
      <trkpt lat="43.43617" lon="3.45873">
        <ele>35.799999237061</ele>
        <time>2023-12-19T15:55:21Z</time>
      </trkpt>
      <trkpt lat="43.43617" lon="3.45873">
        <ele>36</ele>
        <time>2023-12-19T15:55:22Z</time>
      </trkpt>
      <trkpt lat="43.43614" lon="3.45869">
        <ele>36.400001525879</ele>
        <time>2023-12-19T15:55:42Z</time>
      </trkpt>
      <trkpt lat="43.43613" lon="3.45866">
        <ele>36.400001525879</ele>
        <time>2023-12-19T15:55:43Z</time>
      </trkpt>
      <trkpt lat="43.43613" lon="3.45863">
        <ele>36.400001525879</ele>
        <time>2023-12-19T15:55:44Z</time>
      </trkpt>
      <trkpt lat="43.43613" lon="3.45861">
        <ele>36.400001525879</ele>
        <time>2023-12-19T15:55:45Z</time>
      </trkpt>
      <trkpt lat="43.43614" lon="3.45858">
        <ele>36.400001525879</ele>
        <time>2023-12-19T15:55:46Z</time>
      </trkpt>
      <trkpt lat="43.43615" lon="3.45855">
        <ele>36.400001525879</ele>
        <time>2023-12-19T15:55:47Z</time>
      </trkpt>
      <trkpt lat="43.43616" lon="3.45853">
        <ele>36.799999237061</ele>
        <time>2023-12-19T15:55:48Z</time>
      </trkpt>
      <trkpt lat="43.43617" lon="3.4585">
        <ele>37</ele>
        <time>2023-12-19T15:55:49Z</time>
      </trkpt>
      <trkpt lat="43.43618" lon="3.45848">
        <ele>37.200000762939</ele>
        <time>2023-12-19T15:55:50Z</time>
      </trkpt>
      <trkpt lat="43.43618" lon="3.45845">
        <ele>37.400001525879</ele>
        <time>2023-12-19T15:55:51Z</time>
      </trkpt>
      <trkpt lat="43.43618" lon="3.45843">
        <ele>37.799999237061</ele>
        <time>2023-12-19T15:55:52Z</time>
      </trkpt>
      <trkpt lat="43.43619" lon="3.45842">
        <ele>38</ele>
        <time>2023-12-19T15:55:53Z</time>
      </trkpt>
      <trkpt lat="43.4362" lon="3.4584">
        <ele>38.400001525879</ele>
        <time>2023-12-19T15:55:54Z</time>
      </trkpt>
      <trkpt lat="43.4362" lon="3.45838">
        <ele>38.599998474121</ele>
        <time>2023-12-19T15:55:55Z</time>
      </trkpt>
      <trkpt lat="43.4362" lon="3.45836">
        <ele>38.799999237061</ele>
        <time>2023-12-19T15:55:56Z</time>
      </trkpt>
      <trkpt lat="43.43619" lon="3.45834">
        <ele>39.200000762939</ele>
        <time>2023-12-19T15:55:57Z</time>
      </trkpt>
      <trkpt lat="43.43618" lon="3.45833">
        <ele>39.400001525879</ele>
        <time>2023-12-19T15:55:58Z</time>
      </trkpt>
      <trkpt lat="43.43617" lon="3.45831">
        <ele>39.599998474121</ele>
        <time>2023-12-19T15:55:59Z</time>
      </trkpt>
      <trkpt lat="43.43616" lon="3.45829">
        <ele>39.799999237061</ele>
        <time>2023-12-19T15:56:00Z</time>
      </trkpt>
      <trkpt lat="43.43616" lon="3.45826">
        <ele>40</ele>
        <time>2023-12-19T15:56:01Z</time>
      </trkpt>
      <trkpt lat="43.43614" lon="3.45823">
        <ele>40.200000762939</ele>
        <time>2023-12-19T15:56:02Z</time>
      </trkpt>
      <trkpt lat="43.43613" lon="3.45821">
        <ele>40.400001525879</ele>
        <time>2023-12-19T15:56:03Z</time>
      </trkpt>
      <trkpt lat="43.43611" lon="3.45818">
        <ele>40.599998474121</ele>
        <time>2023-12-19T15:56:04Z</time>
      </trkpt>
      <trkpt lat="43.4361" lon="3.45815">
        <ele>41</ele>
        <time>2023-12-19T15:56:05Z</time>
      </trkpt>
      <trkpt lat="43.43609" lon="3.45812">
        <ele>41.200000762939</ele>
        <time>2023-12-19T15:56:06Z</time>
      </trkpt>
      <trkpt lat="43.43608" lon="3.45809">
        <ele>41.599998474121</ele>
        <time>2023-12-19T15:56:07Z</time>
      </trkpt>
      <trkpt lat="43.43607" lon="3.45806">
        <ele>41.799999237061</ele>
        <time>2023-12-19T15:56:08Z</time>
      </trkpt>
      <trkpt lat="43.43607" lon="3.45801">
        <ele>42</ele>
        <time>2023-12-19T15:56:09Z</time>
      </trkpt>
      <trkpt lat="43.43606" lon="3.45797">
        <ele>42.200000762939</ele>
        <time>2023-12-19T15:56:10Z</time>
      </trkpt>
      <trkpt lat="43.43606" lon="3.45794">
        <ele>42.400001525879</ele>
        <time>2023-12-19T15:56:11Z</time>
      </trkpt>
      <trkpt lat="43.43606" lon="3.4579">
        <ele>42.599998474121</ele>
        <time>2023-12-19T15:56:12Z</time>
      </trkpt>
      <trkpt lat="43.43606" lon="3.45786">
        <ele>43</ele>
        <time>2023-12-19T15:56:13Z</time>
      </trkpt>
      <trkpt lat="43.43606" lon="3.45782">
        <ele>43.200000762939</ele>
        <time>2023-12-19T15:56:14Z</time>
      </trkpt>
      <trkpt lat="43.43606" lon="3.45778">
        <ele>43.200000762939</ele>
        <time>2023-12-19T15:56:15Z</time>
      </trkpt>
      <trkpt lat="43.43607" lon="3.45774">
        <ele>43.400001525879</ele>
        <time>2023-12-19T15:56:16Z</time>
      </trkpt>
      <trkpt lat="43.43607" lon="3.45771">
        <ele>43.599998474121</ele>
        <time>2023-12-19T15:56:17Z</time>
      </trkpt>
      <trkpt lat="43.43606" lon="3.45768">
        <ele>43.799999237061</ele>
        <time>2023-12-19T15:56:18Z</time>
      </trkpt>
      <trkpt lat="43.43605" lon="3.45765">
        <ele>44</ele>
        <time>2023-12-19T15:56:19Z</time>
      </trkpt>
      <trkpt lat="43.43604" lon="3.45763">
        <ele>44.200000762939</ele>
        <time>2023-12-19T15:56:20Z</time>
      </trkpt>
      <trkpt lat="43.43602" lon="3.45761">
        <ele>44.400001525879</ele>
        <time>2023-12-19T15:56:21Z</time>
      </trkpt>
      <trkpt lat="43.436" lon="3.45759">
        <ele>44.599998474121</ele>
        <time>2023-12-19T15:56:22Z</time>
      </trkpt>
      <trkpt lat="43.43598" lon="3.45756">
        <ele>44.599998474121</ele>
        <time>2023-12-19T15:56:23Z</time>
      </trkpt>
      <trkpt lat="43.43596" lon="3.45754">
        <ele>44.599998474121</ele>
        <time>2023-12-19T15:56:24Z</time>
      </trkpt>
      <trkpt lat="43.43595" lon="3.45751">
        <ele>44.599998474121</ele>
        <time>2023-12-19T15:56:25Z</time>
      </trkpt>
      <trkpt lat="43.43592" lon="3.45748">
        <ele>44.599998474121</ele>
        <time>2023-12-19T15:56:26Z</time>
      </trkpt>
      <trkpt lat="43.4359" lon="3.45744">
        <ele>44.599998474121</ele>
        <time>2023-12-19T15:56:27Z</time>
      </trkpt>
      <trkpt lat="43.43588" lon="3.45742">
        <ele>44.599998474121</ele>
        <time>2023-12-19T15:56:28Z</time>
      </trkpt>
      <trkpt lat="43.43587" lon="3.45738">
        <ele>44.400001525879</ele>
        <time>2023-12-19T15:56:29Z</time>
      </trkpt>
      <trkpt lat="43.43588" lon="3.45733">
        <ele>44</ele>
        <time>2023-12-19T15:56:30Z</time>
      </trkpt>
      <trkpt lat="43.43589" lon="3.45729">
        <ele>43.599998474121</ele>
        <time>2023-12-19T15:56:31Z</time>
      </trkpt>
      <trkpt lat="43.43591" lon="3.45726">
        <ele>43.400001525879</ele>
        <time>2023-12-19T15:56:32Z</time>
      </trkpt>
      <trkpt lat="43.43592" lon="3.45721">
        <ele>43.200000762939</ele>
        <time>2023-12-19T15:56:33Z</time>
      </trkpt>
      <trkpt lat="43.43593" lon="3.45717">
        <ele>43</ele>
        <time>2023-12-19T15:56:34Z</time>
      </trkpt>
      <trkpt lat="43.43594" lon="3.45713">
        <ele>42.799999237061</ele>
        <time>2023-12-19T15:56:35Z</time>
      </trkpt>
      <trkpt lat="43.43595" lon="3.45709">
        <ele>42.599998474121</ele>
        <time>2023-12-19T15:56:36Z</time>
      </trkpt>
      <trkpt lat="43.43596" lon="3.45705">
        <ele>42.599998474121</ele>
        <time>2023-12-19T15:56:37Z</time>
      </trkpt>
      <trkpt lat="43.43598" lon="3.45702">
        <ele>42.599998474121</ele>
        <time>2023-12-19T15:56:38Z</time>
      </trkpt>
      <trkpt lat="43.43599" lon="3.45698">
        <ele>42.599998474121</ele>
        <time>2023-12-19T15:56:39Z</time>
      </trkpt>
      <trkpt lat="43.43601" lon="3.45694">
        <ele>42.599998474121</ele>
        <time>2023-12-19T15:56:40Z</time>
      </trkpt>
      <trkpt lat="43.43602" lon="3.4569">
        <ele>43</ele>
        <time>2023-12-19T15:56:41Z</time>
      </trkpt>
      <trkpt lat="43.43604" lon="3.45688">
        <ele>43.599998474121</ele>
        <time>2023-12-19T15:56:42Z</time>
      </trkpt>
      <trkpt lat="43.43605" lon="3.45686">
        <ele>43.799999237061</ele>
        <time>2023-12-19T15:56:43Z</time>
      </trkpt>
      <trkpt lat="43.43606" lon="3.45685">
        <ele>44</ele>
        <time>2023-12-19T15:56:44Z</time>
      </trkpt>
      <trkpt lat="43.43606" lon="3.45685">
        <ele>44.400001525879</ele>
        <time>2023-12-19T15:56:45Z</time>
      </trkpt>
      <trkpt lat="43.43606" lon="3.45685">
        <ele>44.599998474121</ele>
        <time>2023-12-19T15:56:46Z</time>
      </trkpt>
      <trkpt lat="43.43609" lon="3.45678">
        <ele>45.200000762939</ele>
        <time>2023-12-19T15:56:52Z</time>
      </trkpt>
      <trkpt lat="43.43609" lon="3.45674">
        <ele>45.200000762939</ele>
        <time>2023-12-19T15:56:53Z</time>
      </trkpt>
      <trkpt lat="43.43608" lon="3.4567">
        <ele>45</ele>
        <time>2023-12-19T15:56:54Z</time>
      </trkpt>
      <trkpt lat="43.43608" lon="3.45667">
        <ele>44.799999237061</ele>
        <time>2023-12-19T15:56:55Z</time>
      </trkpt>
      <trkpt lat="43.43607" lon="3.45664">
        <ele>44.400001525879</ele>
        <time>2023-12-19T15:56:56Z</time>
      </trkpt>
      <trkpt lat="43.43607" lon="3.45661">
        <ele>43.599998474121</ele>
        <time>2023-12-19T15:56:57Z</time>
      </trkpt>
      <trkpt lat="43.43607" lon="3.45658">
        <ele>43.599998474121</ele>
        <time>2023-12-19T15:56:58Z</time>
      </trkpt>
      <trkpt lat="43.43606" lon="3.45653">
        <ele>43.599998474121</ele>
        <time>2023-12-19T15:56:59Z</time>
      </trkpt>
      <trkpt lat="43.43605" lon="3.45649">
        <ele>43.599998474121</ele>
        <time>2023-12-19T15:57:00Z</time>
      </trkpt>
      <trkpt lat="43.43604" lon="3.45645">
        <ele>43.400001525879</ele>
        <time>2023-12-19T15:57:01Z</time>
      </trkpt>
      <trkpt lat="43.43603" lon="3.45642">
        <ele>43</ele>
        <time>2023-12-19T15:57:02Z</time>
      </trkpt>
      <trkpt lat="43.43602" lon="3.45639">
        <ele>42.400001525879</ele>
        <time>2023-12-19T15:57:03Z</time>
      </trkpt>
      <trkpt lat="43.43601" lon="3.45637">
        <ele>42.200000762939</ele>
        <time>2023-12-19T15:57:04Z</time>
      </trkpt>
      <trkpt lat="43.436" lon="3.45636">
        <ele>42</ele>
        <time>2023-12-19T15:57:05Z</time>
      </trkpt>
      <trkpt lat="43.43597" lon="3.45636">
        <ele>42</ele>
        <time>2023-12-19T15:57:06Z</time>
      </trkpt>
      <trkpt lat="43.43594" lon="3.45634">
        <ele>42</ele>
        <time>2023-12-19T15:57:07Z</time>
      </trkpt>
      <trkpt lat="43.43592" lon="3.45632">
        <ele>41.799999237061</ele>
        <time>2023-12-19T15:57:08Z</time>
      </trkpt>
      <trkpt lat="43.4359" lon="3.45632">
        <ele>41.799999237061</ele>
        <time>2023-12-19T15:57:09Z</time>
      </trkpt>
      <trkpt lat="43.43589" lon="3.45631">
        <ele>41.400001525879</ele>
        <time>2023-12-19T15:57:10Z</time>
      </trkpt>
      <trkpt lat="43.43588" lon="3.45628">
        <ele>40.799999237061</ele>
        <time>2023-12-19T15:57:11Z</time>
      </trkpt>
      <trkpt lat="43.43588" lon="3.45625">
        <ele>40.200000762939</ele>
        <time>2023-12-19T15:57:12Z</time>
      </trkpt>
      <trkpt lat="43.43588" lon="3.45622">
        <ele>39.799999237061</ele>
        <time>2023-12-19T15:57:13Z</time>
      </trkpt>
      <trkpt lat="43.43589" lon="3.45619">
        <ele>39.400001525879</ele>
        <time>2023-12-19T15:57:14Z</time>
      </trkpt>
      <trkpt lat="43.43591" lon="3.45617">
        <ele>39.200000762939</ele>
        <time>2023-12-19T15:57:15Z</time>
      </trkpt>
      <trkpt lat="43.43593" lon="3.45615">
        <ele>38.799999237061</ele>
        <time>2023-12-19T15:57:16Z</time>
      </trkpt>
      <trkpt lat="43.43595" lon="3.45614">
        <ele>37.799999237061</ele>
        <time>2023-12-19T15:57:17Z</time>
      </trkpt>
      <trkpt lat="43.43596" lon="3.45612">
        <ele>37.200000762939</ele>
        <time>2023-12-19T15:57:18Z</time>
      </trkpt>
      <trkpt lat="43.43597" lon="3.4561">
        <ele>36.599998474121</ele>
        <time>2023-12-19T15:57:19Z</time>
      </trkpt>
      <trkpt lat="43.43597" lon="3.45608">
        <ele>36.599998474121</ele>
        <time>2023-12-19T15:57:20Z</time>
      </trkpt>
      <trkpt lat="43.43597" lon="3.45605">
        <ele>36.400001525879</ele>
        <time>2023-12-19T15:57:21Z</time>
      </trkpt>
      <trkpt lat="43.43596" lon="3.45601">
        <ele>36.400001525879</ele>
        <time>2023-12-19T15:57:22Z</time>
      </trkpt>
      <trkpt lat="43.43595" lon="3.45598">
        <ele>36.400001525879</ele>
        <time>2023-12-19T15:57:23Z</time>
      </trkpt>
      <trkpt lat="43.43593" lon="3.45596">
        <ele>36.200000762939</ele>
        <time>2023-12-19T15:57:24Z</time>
      </trkpt>
      <trkpt lat="43.43592" lon="3.45594">
        <ele>36.400001525879</ele>
        <time>2023-12-19T15:57:25Z</time>
      </trkpt>
      <trkpt lat="43.43591" lon="3.45591">
        <ele>36.400001525879</ele>
        <time>2023-12-19T15:57:26Z</time>
      </trkpt>
      <trkpt lat="43.4359" lon="3.45589">
        <ele>36.400001525879</ele>
        <time>2023-12-19T15:57:27Z</time>
      </trkpt>
      <trkpt lat="43.43588" lon="3.45587">
        <ele>36.400001525879</ele>
        <time>2023-12-19T15:57:28Z</time>
      </trkpt>
      <trkpt lat="43.43586" lon="3.45584">
        <ele>36.400001525879</ele>
        <time>2023-12-19T15:57:29Z</time>
      </trkpt>
      <trkpt lat="43.43585" lon="3.45582">
        <ele>36.400001525879</ele>
        <time>2023-12-19T15:57:30Z</time>
      </trkpt>
      <trkpt lat="43.43583" lon="3.45579">
        <ele>36.400001525879</ele>
        <time>2023-12-19T15:57:31Z</time>
      </trkpt>
      <trkpt lat="43.43581" lon="3.45576">
        <ele>36.400001525879</ele>
        <time>2023-12-19T15:57:32Z</time>
      </trkpt>
      <trkpt lat="43.43579" lon="3.45573">
        <ele>36.400001525879</ele>
        <time>2023-12-19T15:57:33Z</time>
      </trkpt>
      <trkpt lat="43.43577" lon="3.4557">
        <ele>36.400001525879</ele>
        <time>2023-12-19T15:57:34Z</time>
      </trkpt>
      <trkpt lat="43.43575" lon="3.45567">
        <ele>36.400001525879</ele>
        <time>2023-12-19T15:57:35Z</time>
      </trkpt>
      <trkpt lat="43.43574" lon="3.45562">
        <ele>36.200000762939</ele>
        <time>2023-12-19T15:57:36Z</time>
      </trkpt>
      <trkpt lat="43.43572" lon="3.45557">
        <ele>36</ele>
        <time>2023-12-19T15:57:37Z</time>
      </trkpt>
      <trkpt lat="43.43571" lon="3.45552">
        <ele>36</ele>
        <time>2023-12-19T15:57:38Z</time>
      </trkpt>
      <trkpt lat="43.4357" lon="3.45546">
        <ele>35.799999237061</ele>
        <time>2023-12-19T15:57:39Z</time>
      </trkpt>
      <trkpt lat="43.43569" lon="3.45541">
        <ele>35.799999237061</ele>
        <time>2023-12-19T15:57:40Z</time>
      </trkpt>
      <trkpt lat="43.43568" lon="3.45535">
        <ele>35.799999237061</ele>
        <time>2023-12-19T15:57:41Z</time>
      </trkpt>
      <trkpt lat="43.43567" lon="3.45529">
        <ele>35.799999237061</ele>
        <time>2023-12-19T15:57:42Z</time>
      </trkpt>
      <trkpt lat="43.43566" lon="3.45523">
        <ele>35.799999237061</ele>
        <time>2023-12-19T15:57:43Z</time>
      </trkpt>
      <trkpt lat="43.43565" lon="3.45518">
        <ele>35.799999237061</ele>
        <time>2023-12-19T15:57:44Z</time>
      </trkpt>
      <trkpt lat="43.43564" lon="3.45512">
        <ele>35.799999237061</ele>
        <time>2023-12-19T15:57:45Z</time>
      </trkpt>
      <trkpt lat="43.43563" lon="3.45507">
        <ele>36</ele>
        <time>2023-12-19T15:57:46Z</time>
      </trkpt>
      <trkpt lat="43.43563" lon="3.45501">
        <ele>36.200000762939</ele>
        <time>2023-12-19T15:57:47Z</time>
      </trkpt>
      <trkpt lat="43.43563" lon="3.45495">
        <ele>36.599998474121</ele>
        <time>2023-12-19T15:57:48Z</time>
      </trkpt>
      <trkpt lat="43.43562" lon="3.45489">
        <ele>36.799999237061</ele>
        <time>2023-12-19T15:57:49Z</time>
      </trkpt>
      <trkpt lat="43.43562" lon="3.45482">
        <ele>36.799999237061</ele>
        <time>2023-12-19T15:57:50Z</time>
      </trkpt>
      <trkpt lat="43.43561" lon="3.45476">
        <ele>36.799999237061</ele>
        <time>2023-12-19T15:57:51Z</time>
      </trkpt>
      <trkpt lat="43.43561" lon="3.4547">
        <ele>37</ele>
        <time>2023-12-19T15:57:52Z</time>
      </trkpt>
      <trkpt lat="43.4356" lon="3.45464">
        <ele>37</ele>
        <time>2023-12-19T15:57:53Z</time>
      </trkpt>
      <trkpt lat="43.43559" lon="3.45457">
        <ele>37.200000762939</ele>
        <time>2023-12-19T15:57:54Z</time>
      </trkpt>
      <trkpt lat="43.43557" lon="3.4545">
        <ele>37.400001525879</ele>
        <time>2023-12-19T15:57:55Z</time>
      </trkpt>
      <trkpt lat="43.43556" lon="3.45445">
        <ele>37.599998474121</ele>
        <time>2023-12-19T15:57:56Z</time>
      </trkpt>
      <trkpt lat="43.43555" lon="3.45439">
        <ele>37.599998474121</ele>
        <time>2023-12-19T15:57:57Z</time>
      </trkpt>
      <trkpt lat="43.43554" lon="3.45432">
        <ele>37.799999237061</ele>
        <time>2023-12-19T15:57:58Z</time>
      </trkpt>
      <trkpt lat="43.43553" lon="3.45426">
        <ele>38.200000762939</ele>
        <time>2023-12-19T15:57:59Z</time>
      </trkpt>
      <trkpt lat="43.43552" lon="3.45419">
        <ele>38.400001525879</ele>
        <time>2023-12-19T15:58:00Z</time>
      </trkpt>
      <trkpt lat="43.4355" lon="3.45413">
        <ele>38.599998474121</ele>
        <time>2023-12-19T15:58:01Z</time>
      </trkpt>
      <trkpt lat="43.43549" lon="3.45407">
        <ele>39</ele>
        <time>2023-12-19T15:58:02Z</time>
      </trkpt>
      <trkpt lat="43.43547" lon="3.45401">
        <ele>39.400001525879</ele>
        <time>2023-12-19T15:58:03Z</time>
      </trkpt>
      <trkpt lat="43.43545" lon="3.45395">
        <ele>39.799999237061</ele>
        <time>2023-12-19T15:58:04Z</time>
      </trkpt>
      <trkpt lat="43.43545" lon="3.45388">
        <ele>40.400001525879</ele>
        <time>2023-12-19T15:58:05Z</time>
      </trkpt>
      <trkpt lat="43.43545" lon="3.45382">
        <ele>40.799999237061</ele>
        <time>2023-12-19T15:58:06Z</time>
      </trkpt>
      <trkpt lat="43.43544" lon="3.45376">
        <ele>41</ele>
        <time>2023-12-19T15:58:07Z</time>
      </trkpt>
      <trkpt lat="43.43544" lon="3.45369">
        <ele>41.200000762939</ele>
        <time>2023-12-19T15:58:08Z</time>
      </trkpt>
      <trkpt lat="43.43542" lon="3.45363">
        <ele>41.400001525879</ele>
        <time>2023-12-19T15:58:09Z</time>
      </trkpt>
      <trkpt lat="43.4354" lon="3.45357">
        <ele>41.599998474121</ele>
        <time>2023-12-19T15:58:10Z</time>
      </trkpt>
      <trkpt lat="43.43537" lon="3.45354">
        <ele>42</ele>
        <time>2023-12-19T15:58:11Z</time>
      </trkpt>
      <trkpt lat="43.43535" lon="3.45351">
        <ele>42.400001525879</ele>
        <time>2023-12-19T15:58:12Z</time>
      </trkpt>
      <trkpt lat="43.43533" lon="3.45351">
        <ele>42.799999237061</ele>
        <time>2023-12-19T15:58:13Z</time>
      </trkpt>
      <trkpt lat="43.43531" lon="3.45351">
        <ele>43.400001525879</ele>
        <time>2023-12-19T15:58:14Z</time>
      </trkpt>
      <trkpt lat="43.43529" lon="3.45352">
        <ele>43.799999237061</ele>
        <time>2023-12-19T15:58:15Z</time>
      </trkpt>
      <trkpt lat="43.43527" lon="3.45354">
        <ele>44.200000762939</ele>
        <time>2023-12-19T15:58:16Z</time>
      </trkpt>
      <trkpt lat="43.43525" lon="3.45356">
        <ele>44.599998474121</ele>
        <time>2023-12-19T15:58:17Z</time>
      </trkpt>
      <trkpt lat="43.43522" lon="3.45357">
        <ele>45</ele>
        <time>2023-12-19T15:58:18Z</time>
      </trkpt>
      <trkpt lat="43.43518" lon="3.45357">
        <ele>45.200000762939</ele>
        <time>2023-12-19T15:58:19Z</time>
      </trkpt>
      <trkpt lat="43.43514" lon="3.45357">
        <ele>45.400001525879</ele>
        <time>2023-12-19T15:58:20Z</time>
      </trkpt>
      <trkpt lat="43.4351" lon="3.45356">
        <ele>45.599998474121</ele>
        <time>2023-12-19T15:58:21Z</time>
      </trkpt>
      <trkpt lat="43.43506" lon="3.45353">
        <ele>45.799999237061</ele>
        <time>2023-12-19T15:58:22Z</time>
      </trkpt>
      <trkpt lat="43.43502" lon="3.45348">
        <ele>45.799999237061</ele>
        <time>2023-12-19T15:58:23Z</time>
      </trkpt>
      <trkpt lat="43.43499" lon="3.45343">
        <ele>45.799999237061</ele>
        <time>2023-12-19T15:58:24Z</time>
      </trkpt>
      <trkpt lat="43.43495" lon="3.45337">
        <ele>45.799999237061</ele>
        <time>2023-12-19T15:58:25Z</time>
      </trkpt>
      <trkpt lat="43.43491" lon="3.45332">
        <ele>45.200000762939</ele>
        <time>2023-12-19T15:58:26Z</time>
      </trkpt>
      <trkpt lat="43.43487" lon="3.45325">
        <ele>45.200000762939</ele>
        <time>2023-12-19T15:58:27Z</time>
      </trkpt>
      <trkpt lat="43.43483" lon="3.4532">
        <ele>45</ele>
        <time>2023-12-19T15:58:28Z</time>
      </trkpt>
      <trkpt lat="43.43478" lon="3.45314">
        <ele>44.400001525879</ele>
        <time>2023-12-19T15:58:29Z</time>
      </trkpt>
      <trkpt lat="43.43474" lon="3.45309">
        <ele>44</ele>
        <time>2023-12-19T15:58:30Z</time>
      </trkpt>
      <trkpt lat="43.43469" lon="3.45304">
        <ele>43.599998474121</ele>
        <time>2023-12-19T15:58:31Z</time>
      </trkpt>
      <trkpt lat="43.43464" lon="3.453">
        <ele>43.400001525879</ele>
        <time>2023-12-19T15:58:32Z</time>
      </trkpt>
      <trkpt lat="43.43458" lon="3.45296">
        <ele>43</ele>
        <time>2023-12-19T15:58:33Z</time>
      </trkpt>
      <trkpt lat="43.43453" lon="3.45293">
        <ele>42.599998474121</ele>
        <time>2023-12-19T15:58:34Z</time>
      </trkpt>
      <trkpt lat="43.43447" lon="3.4529">
        <ele>42.400001525879</ele>
        <time>2023-12-19T15:58:35Z</time>
      </trkpt>
      <trkpt lat="43.43442" lon="3.45286">
        <ele>42.200000762939</ele>
        <time>2023-12-19T15:58:36Z</time>
      </trkpt>
      <trkpt lat="43.43436" lon="3.45283">
        <ele>42</ele>
        <time>2023-12-19T15:58:37Z</time>
      </trkpt>
      <trkpt lat="43.43431" lon="3.45281">
        <ele>41.799999237061</ele>
        <time>2023-12-19T15:58:38Z</time>
      </trkpt>
      <trkpt lat="43.43426" lon="3.45277">
        <ele>41.799999237061</ele>
        <time>2023-12-19T15:58:39Z</time>
      </trkpt>
      <trkpt lat="43.43422" lon="3.45273">
        <ele>41.799999237061</ele>
        <time>2023-12-19T15:58:40Z</time>
      </trkpt>
      <trkpt lat="43.43419" lon="3.45267">
        <ele>41.799999237061</ele>
        <time>2023-12-19T15:58:41Z</time>
      </trkpt>
      <trkpt lat="43.43416" lon="3.45261">
        <ele>41.799999237061</ele>
        <time>2023-12-19T15:58:42Z</time>
      </trkpt>
      <trkpt lat="43.43414" lon="3.45255">
        <ele>41.799999237061</ele>
        <time>2023-12-19T15:58:43Z</time>
      </trkpt>
      <trkpt lat="43.43413" lon="3.45249">
        <ele>41.799999237061</ele>
        <time>2023-12-19T15:58:44Z</time>
      </trkpt>
      <trkpt lat="43.43413" lon="3.45243">
        <ele>41.799999237061</ele>
        <time>2023-12-19T15:58:45Z</time>
      </trkpt>
      <trkpt lat="43.43415" lon="3.45238">
        <ele>41.799999237061</ele>
        <time>2023-12-19T15:58:46Z</time>
      </trkpt>
      <trkpt lat="43.43417" lon="3.45235">
        <ele>41.799999237061</ele>
        <time>2023-12-19T15:58:47Z</time>
      </trkpt>
      <trkpt lat="43.43419" lon="3.45231">
        <ele>41.799999237061</ele>
        <time>2023-12-19T15:58:48Z</time>
      </trkpt>
      <trkpt lat="43.43421" lon="3.45227">
        <ele>41.799999237061</ele>
        <time>2023-12-19T15:58:49Z</time>
      </trkpt>
      <trkpt lat="43.43423" lon="3.45223">
        <ele>41.799999237061</ele>
        <time>2023-12-19T15:58:50Z</time>
      </trkpt>
      <trkpt lat="43.43425" lon="3.45221">
        <ele>41.799999237061</ele>
        <time>2023-12-19T15:58:51Z</time>
      </trkpt>
      <trkpt lat="43.43426" lon="3.45218">
        <ele>41.599998474121</ele>
        <time>2023-12-19T15:58:52Z</time>
      </trkpt>
      <trkpt lat="43.43428" lon="3.45215">
        <ele>41.599998474121</ele>
        <time>2023-12-19T15:58:53Z</time>
      </trkpt>
      <trkpt lat="43.43429" lon="3.45213">
        <ele>41.599998474121</ele>
        <time>2023-12-19T15:58:54Z</time>
      </trkpt>
      <trkpt lat="43.43431" lon="3.4521">
        <ele>41.599998474121</ele>
        <time>2023-12-19T15:58:55Z</time>
      </trkpt>
      <trkpt lat="43.43433" lon="3.45208">
        <ele>41.599998474121</ele>
        <time>2023-12-19T15:58:56Z</time>
      </trkpt>
      <trkpt lat="43.43435" lon="3.45205">
        <ele>41.599998474121</ele>
        <time>2023-12-19T15:58:57Z</time>
      </trkpt>
      <trkpt lat="43.43437" lon="3.45203">
        <ele>41.799999237061</ele>
        <time>2023-12-19T15:58:58Z</time>
      </trkpt>
      <trkpt lat="43.43439" lon="3.452">
        <ele>41.799999237061</ele>
        <time>2023-12-19T15:58:59Z</time>
      </trkpt>
      <trkpt lat="43.4344" lon="3.45197">
        <ele>41.799999237061</ele>
        <time>2023-12-19T15:59:00Z</time>
      </trkpt>
      <trkpt lat="43.4344" lon="3.45193">
        <ele>41.799999237061</ele>
        <time>2023-12-19T15:59:01Z</time>
      </trkpt>
      <trkpt lat="43.43441" lon="3.45188">
        <ele>41.599998474121</ele>
        <time>2023-12-19T15:59:02Z</time>
      </trkpt>
      <trkpt lat="43.43442" lon="3.45184">
        <ele>41.599998474121</ele>
        <time>2023-12-19T15:59:03Z</time>
      </trkpt>
      <trkpt lat="43.43443" lon="3.45182">
        <ele>41.400001525879</ele>
        <time>2023-12-19T15:59:04Z</time>
      </trkpt>
      <trkpt lat="43.43443" lon="3.4518">
        <ele>41.200000762939</ele>
        <time>2023-12-19T15:59:05Z</time>
      </trkpt>
      <trkpt lat="43.43444" lon="3.45178">
        <ele>41.200000762939</ele>
        <time>2023-12-19T15:59:06Z</time>
      </trkpt>
      <trkpt lat="43.43444" lon="3.45177">
        <ele>41</ele>
        <time>2023-12-19T15:59:07Z</time>
      </trkpt>
      <trkpt lat="43.43444" lon="3.45176">
        <ele>41</ele>
        <time>2023-12-19T15:59:08Z</time>
      </trkpt>
      <trkpt lat="43.43444" lon="3.45176">
        <ele>41</ele>
        <time>2023-12-19T15:59:09Z</time>
      </trkpt>
      <trkpt lat="43.43451" lon="3.4517">
        <ele>40.799999237061</ele>
        <time>2023-12-19T15:59:28Z</time>
      </trkpt>
      <trkpt lat="43.43453" lon="3.4517">
        <ele>40.799999237061</ele>
        <time>2023-12-19T15:59:29Z</time>
      </trkpt>
      <trkpt lat="43.43455" lon="3.45168">
        <ele>40.799999237061</ele>
        <time>2023-12-19T15:59:30Z</time>
      </trkpt>
      <trkpt lat="43.43456" lon="3.45165">
        <ele>40.599998474121</ele>
        <time>2023-12-19T15:59:31Z</time>
      </trkpt>
      <trkpt lat="43.43457" lon="3.45161">
        <ele>40.200000762939</ele>
        <time>2023-12-19T15:59:32Z</time>
      </trkpt>
      <trkpt lat="43.43458" lon="3.45156">
        <ele>39.799999237061</ele>
        <time>2023-12-19T15:59:33Z</time>
      </trkpt>
      <trkpt lat="43.43458" lon="3.45151">
        <ele>39.400001525879</ele>
        <time>2023-12-19T15:59:34Z</time>
      </trkpt>
      <trkpt lat="43.43459" lon="3.45146">
        <ele>39.200000762939</ele>
        <time>2023-12-19T15:59:35Z</time>
      </trkpt>
      <trkpt lat="43.4346" lon="3.45141">
        <ele>39</ele>
        <time>2023-12-19T15:59:36Z</time>
      </trkpt>
      <trkpt lat="43.43461" lon="3.45135">
        <ele>38.799999237061</ele>
        <time>2023-12-19T15:59:37Z</time>
      </trkpt>
      <trkpt lat="43.43463" lon="3.45129">
        <ele>38.599998474121</ele>
        <time>2023-12-19T15:59:38Z</time>
      </trkpt>
      <trkpt lat="43.43464" lon="3.45124">
        <ele>38.599998474121</ele>
        <time>2023-12-19T15:59:39Z</time>
      </trkpt>
      <trkpt lat="43.43464" lon="3.45118">
        <ele>38.400001525879</ele>
        <time>2023-12-19T15:59:40Z</time>
      </trkpt>
      <trkpt lat="43.43463" lon="3.45114">
        <ele>38.400001525879</ele>
        <time>2023-12-19T15:59:41Z</time>
      </trkpt>
      <trkpt lat="43.43463" lon="3.45111">
        <ele>38.400001525879</ele>
        <time>2023-12-19T15:59:42Z</time>
      </trkpt>
      <trkpt lat="43.43463" lon="3.4511">
        <ele>38.400001525879</ele>
        <time>2023-12-19T15:59:43Z</time>
      </trkpt>
      <trkpt lat="43.43463" lon="3.45111">
        <ele>38.400001525879</ele>
        <time>2023-12-19T15:59:44Z</time>
      </trkpt>
      <trkpt lat="43.43459" lon="3.45105">
        <ele>38.400001525879</ele>
        <time>2023-12-19T15:59:56Z</time>
      </trkpt>
      <trkpt lat="43.43458" lon="3.45104">
        <ele>38.400001525879</ele>
        <time>2023-12-19T15:59:57Z</time>
      </trkpt>
      <trkpt lat="43.43457" lon="3.45101">
        <ele>38.400001525879</ele>
        <time>2023-12-19T15:59:58Z</time>
      </trkpt>
      <trkpt lat="43.43456" lon="3.45098">
        <ele>38.599998474121</ele>
        <time>2023-12-19T15:59:59Z</time>
      </trkpt>
      <trkpt lat="43.43456" lon="3.45094">
        <ele>38.799999237061</ele>
        <time>2023-12-19T16:00:00Z</time>
      </trkpt>
      <trkpt lat="43.43456" lon="3.45091">
        <ele>39.200000762939</ele>
        <time>2023-12-19T16:00:01Z</time>
      </trkpt>
      <trkpt lat="43.43456" lon="3.45088">
        <ele>39.400001525879</ele>
        <time>2023-12-19T16:00:02Z</time>
      </trkpt>
      <trkpt lat="43.43455" lon="3.45084">
        <ele>39.799999237061</ele>
        <time>2023-12-19T16:00:03Z</time>
      </trkpt>
      <trkpt lat="43.43454" lon="3.4508">
        <ele>39.799999237061</ele>
        <time>2023-12-19T16:00:04Z</time>
      </trkpt>
      <trkpt lat="43.43453" lon="3.45076">
        <ele>40</ele>
        <time>2023-12-19T16:00:05Z</time>
      </trkpt>
      <trkpt lat="43.43452" lon="3.45073">
        <ele>40.200000762939</ele>
        <time>2023-12-19T16:00:06Z</time>
      </trkpt>
      <trkpt lat="43.4345" lon="3.4507">
        <ele>40.200000762939</ele>
        <time>2023-12-19T16:00:07Z</time>
      </trkpt>
      <trkpt lat="43.43449" lon="3.45068">
        <ele>40.400001525879</ele>
        <time>2023-12-19T16:00:08Z</time>
      </trkpt>
      <trkpt lat="43.43449" lon="3.45064">
        <ele>40.599998474121</ele>
        <time>2023-12-19T16:00:09Z</time>
      </trkpt>
      <trkpt lat="43.43448" lon="3.4506">
        <ele>40.799999237061</ele>
        <time>2023-12-19T16:00:10Z</time>
      </trkpt>
      <trkpt lat="43.43446" lon="3.45056">
        <ele>40.799999237061</ele>
        <time>2023-12-19T16:00:11Z</time>
      </trkpt>
      <trkpt lat="43.43444" lon="3.45051">
        <ele>40.799999237061</ele>
        <time>2023-12-19T16:00:12Z</time>
      </trkpt>
      <trkpt lat="43.43442" lon="3.45047">
        <ele>40.799999237061</ele>
        <time>2023-12-19T16:00:13Z</time>
      </trkpt>
      <trkpt lat="43.43439" lon="3.45043">
        <ele>40.799999237061</ele>
        <time>2023-12-19T16:00:14Z</time>
      </trkpt>
      <trkpt lat="43.43437" lon="3.4504">
        <ele>40.799999237061</ele>
        <time>2023-12-19T16:00:15Z</time>
      </trkpt>
      <trkpt lat="43.43434" lon="3.45037">
        <ele>40.799999237061</ele>
        <time>2023-12-19T16:00:16Z</time>
      </trkpt>
      <trkpt lat="43.43431" lon="3.45036">
        <ele>40.799999237061</ele>
        <time>2023-12-19T16:00:17Z</time>
      </trkpt>
      <trkpt lat="43.43428" lon="3.45034">
        <ele>40.599998474121</ele>
        <time>2023-12-19T16:00:18Z</time>
      </trkpt>
      <trkpt lat="43.43425" lon="3.45031">
        <ele>40.599998474121</ele>
        <time>2023-12-19T16:00:19Z</time>
      </trkpt>
      <trkpt lat="43.4342" lon="3.45029">
        <ele>40.599998474121</ele>
        <time>2023-12-19T16:00:20Z</time>
      </trkpt>
      <trkpt lat="43.43416" lon="3.45027">
        <ele>40.799999237061</ele>
        <time>2023-12-19T16:00:21Z</time>
      </trkpt>
      <trkpt lat="43.43412" lon="3.45024">
        <ele>40.799999237061</ele>
        <time>2023-12-19T16:00:22Z</time>
      </trkpt>
      <trkpt lat="43.43409" lon="3.45021">
        <ele>40.799999237061</ele>
        <time>2023-12-19T16:00:23Z</time>
      </trkpt>
      <trkpt lat="43.43406" lon="3.45017">
        <ele>40.799999237061</ele>
        <time>2023-12-19T16:00:24Z</time>
      </trkpt>
      <trkpt lat="43.43402" lon="3.45014">
        <ele>40.799999237061</ele>
        <time>2023-12-19T16:00:25Z</time>
      </trkpt>
      <trkpt lat="43.43398" lon="3.45011">
        <ele>41</ele>
        <time>2023-12-19T16:00:26Z</time>
      </trkpt>
      <trkpt lat="43.43393" lon="3.45009">
        <ele>41</ele>
        <time>2023-12-19T16:00:27Z</time>
      </trkpt>
      <trkpt lat="43.43389" lon="3.45006">
        <ele>41</ele>
        <time>2023-12-19T16:00:28Z</time>
      </trkpt>
      <trkpt lat="43.43388" lon="3.45002">
        <ele>41</ele>
        <time>2023-12-19T16:00:29Z</time>
      </trkpt>
      <trkpt lat="43.43387" lon="3.44998">
        <ele>41</ele>
        <time>2023-12-19T16:00:30Z</time>
      </trkpt>
      <trkpt lat="43.43386" lon="3.44995">
        <ele>41.200000762939</ele>
        <time>2023-12-19T16:00:31Z</time>
      </trkpt>
      <trkpt lat="43.43385" lon="3.44991">
        <ele>41.400001525879</ele>
        <time>2023-12-19T16:00:32Z</time>
      </trkpt>
      <trkpt lat="43.43384" lon="3.44988">
        <ele>41.599998474121</ele>
        <time>2023-12-19T16:00:33Z</time>
      </trkpt>
      <trkpt lat="43.43381" lon="3.44984">
        <ele>42</ele>
        <time>2023-12-19T16:00:34Z</time>
      </trkpt>
      <trkpt lat="43.43379" lon="3.44978">
        <ele>42.400001525879</ele>
        <time>2023-12-19T16:00:35Z</time>
      </trkpt>
      <trkpt lat="43.43377" lon="3.44971">
        <ele>42.599998474121</ele>
        <time>2023-12-19T16:00:36Z</time>
      </trkpt>
      <trkpt lat="43.43376" lon="3.44965">
        <ele>43</ele>
        <time>2023-12-19T16:00:37Z</time>
      </trkpt>
      <trkpt lat="43.43374" lon="3.44958">
        <ele>43.200000762939</ele>
        <time>2023-12-19T16:00:38Z</time>
      </trkpt>
      <trkpt lat="43.43373" lon="3.44952">
        <ele>43.400001525879</ele>
        <time>2023-12-19T16:00:39Z</time>
      </trkpt>
      <trkpt lat="43.43371" lon="3.44946">
        <ele>43.599998474121</ele>
        <time>2023-12-19T16:00:40Z</time>
      </trkpt>
      <trkpt lat="43.4337" lon="3.4494">
        <ele>43.799999237061</ele>
        <time>2023-12-19T16:00:41Z</time>
      </trkpt>
      <trkpt lat="43.43369" lon="3.44934">
        <ele>44</ele>
        <time>2023-12-19T16:00:42Z</time>
      </trkpt>
      <trkpt lat="43.43368" lon="3.44929">
        <ele>44.200000762939</ele>
        <time>2023-12-19T16:00:43Z</time>
      </trkpt>
      <trkpt lat="43.43367" lon="3.44924">
        <ele>44.400001525879</ele>
        <time>2023-12-19T16:00:44Z</time>
      </trkpt>
      <trkpt lat="43.43366" lon="3.44919">
        <ele>44.599998474121</ele>
        <time>2023-12-19T16:00:45Z</time>
      </trkpt>
      <trkpt lat="43.43364" lon="3.44914">
        <ele>44.799999237061</ele>
        <time>2023-12-19T16:00:46Z</time>
      </trkpt>
      <trkpt lat="43.43363" lon="3.44909">
        <ele>45.400001525879</ele>
        <time>2023-12-19T16:00:47Z</time>
      </trkpt>
      <trkpt lat="43.43361" lon="3.44904">
        <ele>45.400001525879</ele>
        <time>2023-12-19T16:00:48Z</time>
      </trkpt>
      <trkpt lat="43.4336" lon="3.44899">
        <ele>45.599998474121</ele>
        <time>2023-12-19T16:00:49Z</time>
      </trkpt>
      <trkpt lat="43.43358" lon="3.44894">
        <ele>45.599998474121</ele>
        <time>2023-12-19T16:00:50Z</time>
      </trkpt>
      <trkpt lat="43.43356" lon="3.44889">
        <ele>45.599998474121</ele>
        <time>2023-12-19T16:00:51Z</time>
      </trkpt>
      <trkpt lat="43.43354" lon="3.44885">
        <ele>45.599998474121</ele>
        <time>2023-12-19T16:00:52Z</time>
      </trkpt>
      <trkpt lat="43.43351" lon="3.4488">
        <ele>45.599998474121</ele>
        <time>2023-12-19T16:00:53Z</time>
      </trkpt>
      <trkpt lat="43.43349" lon="3.44874">
        <ele>45.599998474121</ele>
        <time>2023-12-19T16:00:54Z</time>
      </trkpt>
      <trkpt lat="43.43348" lon="3.44869">
        <ele>45.400001525879</ele>
        <time>2023-12-19T16:00:55Z</time>
      </trkpt>
      <trkpt lat="43.43347" lon="3.44863">
        <ele>45.200000762939</ele>
        <time>2023-12-19T16:00:56Z</time>
      </trkpt>
      <trkpt lat="43.43346" lon="3.44859">
        <ele>44.799999237061</ele>
        <time>2023-12-19T16:00:57Z</time>
      </trkpt>
      <trkpt lat="43.43346" lon="3.44855">
        <ele>44.599998474121</ele>
        <time>2023-12-19T16:00:58Z</time>
      </trkpt>
      <trkpt lat="43.43345" lon="3.44851">
        <ele>44.599998474121</ele>
        <time>2023-12-19T16:00:59Z</time>
      </trkpt>
      <trkpt lat="43.43343" lon="3.44846">
        <ele>44.599998474121</ele>
        <time>2023-12-19T16:01:00Z</time>
      </trkpt>
      <trkpt lat="43.43341" lon="3.4484">
        <ele>44.599998474121</ele>
        <time>2023-12-19T16:01:01Z</time>
      </trkpt>
      <trkpt lat="43.43339" lon="3.44834">
        <ele>44.799999237061</ele>
        <time>2023-12-19T16:01:02Z</time>
      </trkpt>
      <trkpt lat="43.43336" lon="3.4483">
        <ele>45</ele>
        <time>2023-12-19T16:01:03Z</time>
      </trkpt>
      <trkpt lat="43.43335" lon="3.44824">
        <ele>45</ele>
        <time>2023-12-19T16:01:04Z</time>
      </trkpt>
      <trkpt lat="43.43335" lon="3.44818">
        <ele>45.200000762939</ele>
        <time>2023-12-19T16:01:05Z</time>
      </trkpt>
      <trkpt lat="43.43334" lon="3.44811">
        <ele>45.400001525879</ele>
        <time>2023-12-19T16:01:06Z</time>
      </trkpt>
      <trkpt lat="43.43334" lon="3.44805">
        <ele>45.599998474121</ele>
        <time>2023-12-19T16:01:07Z</time>
      </trkpt>
      <trkpt lat="43.43335" lon="3.44799">
        <ele>45.799999237061</ele>
        <time>2023-12-19T16:01:08Z</time>
      </trkpt>
      <trkpt lat="43.43336" lon="3.44793">
        <ele>46</ele>
        <time>2023-12-19T16:01:09Z</time>
      </trkpt>
      <trkpt lat="43.43336" lon="3.44788">
        <ele>46</ele>
        <time>2023-12-19T16:01:10Z</time>
      </trkpt>
      <trkpt lat="43.43337" lon="3.44784">
        <ele>46</ele>
        <time>2023-12-19T16:01:11Z</time>
      </trkpt>
      <trkpt lat="43.43337" lon="3.4478">
        <ele>46</ele>
        <time>2023-12-19T16:01:12Z</time>
      </trkpt>
      <trkpt lat="43.43337" lon="3.44775">
        <ele>46</ele>
        <time>2023-12-19T16:01:13Z</time>
      </trkpt>
      <trkpt lat="43.43337" lon="3.44771">
        <ele>46</ele>
        <time>2023-12-19T16:01:14Z</time>
      </trkpt>
      <trkpt lat="43.43336" lon="3.44767">
        <ele>46.200000762939</ele>
        <time>2023-12-19T16:01:15Z</time>
      </trkpt>
      <trkpt lat="43.43335" lon="3.44762">
        <ele>46.200000762939</ele>
        <time>2023-12-19T16:01:16Z</time>
      </trkpt>
      <trkpt lat="43.43335" lon="3.44757">
        <ele>46.200000762939</ele>
        <time>2023-12-19T16:01:17Z</time>
      </trkpt>
      <trkpt lat="43.43335" lon="3.44753">
        <ele>46.200000762939</ele>
        <time>2023-12-19T16:01:18Z</time>
      </trkpt>
      <trkpt lat="43.43336" lon="3.44749">
        <ele>46</ele>
        <time>2023-12-19T16:01:19Z</time>
      </trkpt>
      <trkpt lat="43.43336" lon="3.44745">
        <ele>45.799999237061</ele>
        <time>2023-12-19T16:01:20Z</time>
      </trkpt>
      <trkpt lat="43.43335" lon="3.44738">
        <ele>45.599998474121</ele>
        <time>2023-12-19T16:01:21Z</time>
      </trkpt>
      <trkpt lat="43.43334" lon="3.44732">
        <ele>45.599998474121</ele>
        <time>2023-12-19T16:01:22Z</time>
      </trkpt>
      <trkpt lat="43.43333" lon="3.44725">
        <ele>45.400001525879</ele>
        <time>2023-12-19T16:01:23Z</time>
      </trkpt>
      <trkpt lat="43.43332" lon="3.44719">
        <ele>45.400001525879</ele>
        <time>2023-12-19T16:01:24Z</time>
      </trkpt>
      <trkpt lat="43.4333" lon="3.44713">
        <ele>45</ele>
        <time>2023-12-19T16:01:25Z</time>
      </trkpt>
      <trkpt lat="43.43328" lon="3.44706">
        <ele>44.599998474121</ele>
        <time>2023-12-19T16:01:26Z</time>
      </trkpt>
      <trkpt lat="43.43326" lon="3.44701">
        <ele>44.200000762939</ele>
        <time>2023-12-19T16:01:27Z</time>
      </trkpt>
      <trkpt lat="43.43323" lon="3.44697">
        <ele>44</ele>
        <time>2023-12-19T16:01:28Z</time>
      </trkpt>
      <trkpt lat="43.43322" lon="3.44693">
        <ele>43.799999237061</ele>
        <time>2023-12-19T16:01:29Z</time>
      </trkpt>
      <trkpt lat="43.43321" lon="3.44688">
        <ele>43.799999237061</ele>
        <time>2023-12-19T16:01:30Z</time>
      </trkpt>
      <trkpt lat="43.4332" lon="3.44683">
        <ele>43.599998474121</ele>
        <time>2023-12-19T16:01:31Z</time>
      </trkpt>
      <trkpt lat="43.43319" lon="3.44677">
        <ele>43.599998474121</ele>
        <time>2023-12-19T16:01:32Z</time>
      </trkpt>
      <trkpt lat="43.43319" lon="3.44671">
        <ele>43.400001525879</ele>
        <time>2023-12-19T16:01:33Z</time>
      </trkpt>
      <trkpt lat="43.43319" lon="3.44666">
        <ele>43</ele>
        <time>2023-12-19T16:01:34Z</time>
      </trkpt>
      <trkpt lat="43.43318" lon="3.44663">
        <ele>43.200000762939</ele>
        <time>2023-12-19T16:01:35Z</time>
      </trkpt>
      <trkpt lat="43.43317" lon="3.44658">
        <ele>43.200000762939</ele>
        <time>2023-12-19T16:01:36Z</time>
      </trkpt>
      <trkpt lat="43.43315" lon="3.44652">
        <ele>43.200000762939</ele>
        <time>2023-12-19T16:01:37Z</time>
      </trkpt>
      <trkpt lat="43.43312" lon="3.44646">
        <ele>43</ele>
        <time>2023-12-19T16:01:38Z</time>
      </trkpt>
      <trkpt lat="43.4331" lon="3.44638">
        <ele>43</ele>
        <time>2023-12-19T16:01:39Z</time>
      </trkpt>
      <trkpt lat="43.43308" lon="3.44632">
        <ele>43</ele>
        <time>2023-12-19T16:01:40Z</time>
      </trkpt>
      <trkpt lat="43.43307" lon="3.44626">
        <ele>43.200000762939</ele>
        <time>2023-12-19T16:01:41Z</time>
      </trkpt>
      <trkpt lat="43.43306" lon="3.44622">
        <ele>43.200000762939</ele>
        <time>2023-12-19T16:01:42Z</time>
      </trkpt>
      <trkpt lat="43.43306" lon="3.44617">
        <ele>43.200000762939</ele>
        <time>2023-12-19T16:01:43Z</time>
      </trkpt>
      <trkpt lat="43.43304" lon="3.44613">
        <ele>43.200000762939</ele>
        <time>2023-12-19T16:01:44Z</time>
      </trkpt>
      <trkpt lat="43.43302" lon="3.44607">
        <ele>43.200000762939</ele>
        <time>2023-12-19T16:01:45Z</time>
      </trkpt>
      <trkpt lat="43.433" lon="3.44602">
        <ele>43.200000762939</ele>
        <time>2023-12-19T16:01:46Z</time>
      </trkpt>
      <trkpt lat="43.43297" lon="3.44597">
        <ele>43.200000762939</ele>
        <time>2023-12-19T16:01:47Z</time>
      </trkpt>
      <trkpt lat="43.43294" lon="3.44592">
        <ele>43.200000762939</ele>
        <time>2023-12-19T16:01:48Z</time>
      </trkpt>
      <trkpt lat="43.43293" lon="3.44585">
        <ele>43</ele>
        <time>2023-12-19T16:01:49Z</time>
      </trkpt>
      <trkpt lat="43.4329" lon="3.44579">
        <ele>42.599998474121</ele>
        <time>2023-12-19T16:01:50Z</time>
      </trkpt>
      <trkpt lat="43.43287" lon="3.44572">
        <ele>42.200000762939</ele>
        <time>2023-12-19T16:01:51Z</time>
      </trkpt>
      <trkpt lat="43.43286" lon="3.44565">
        <ele>41.799999237061</ele>
        <time>2023-12-19T16:01:52Z</time>
      </trkpt>
      <trkpt lat="43.43285" lon="3.44558">
        <ele>41.200000762939</ele>
        <time>2023-12-19T16:01:53Z</time>
      </trkpt>
      <trkpt lat="43.43283" lon="3.44551">
        <ele>40.599998474121</ele>
        <time>2023-12-19T16:01:54Z</time>
      </trkpt>
      <trkpt lat="43.43281" lon="3.44545">
        <ele>40</ele>
        <time>2023-12-19T16:01:55Z</time>
      </trkpt>
      <trkpt lat="43.43281" lon="3.44538">
        <ele>39.599998474121</ele>
        <time>2023-12-19T16:01:56Z</time>
      </trkpt>
      <trkpt lat="43.4328" lon="3.44531">
        <ele>39.200000762939</ele>
        <time>2023-12-19T16:01:57Z</time>
      </trkpt>
      <trkpt lat="43.43279" lon="3.44526">
        <ele>39</ele>
        <time>2023-12-19T16:01:58Z</time>
      </trkpt>
      <trkpt lat="43.43278" lon="3.44521">
        <ele>38.799999237061</ele>
        <time>2023-12-19T16:01:59Z</time>
      </trkpt>
      <trkpt lat="43.43277" lon="3.44516">
        <ele>38.599998474121</ele>
        <time>2023-12-19T16:02:00Z</time>
      </trkpt>
      <trkpt lat="43.43275" lon="3.44511">
        <ele>38.400001525879</ele>
        <time>2023-12-19T16:02:01Z</time>
      </trkpt>
      <trkpt lat="43.43274" lon="3.44506">
        <ele>38</ele>
        <time>2023-12-19T16:02:02Z</time>
      </trkpt>
      <trkpt lat="43.43272" lon="3.445">
        <ele>37.599998474121</ele>
        <time>2023-12-19T16:02:03Z</time>
      </trkpt>
      <trkpt lat="43.4327" lon="3.44494">
        <ele>37.400001525879</ele>
        <time>2023-12-19T16:02:04Z</time>
      </trkpt>
      <trkpt lat="43.43268" lon="3.44489">
        <ele>37</ele>
        <time>2023-12-19T16:02:05Z</time>
      </trkpt>
      <trkpt lat="43.43265" lon="3.44484">
        <ele>36.400001525879</ele>
        <time>2023-12-19T16:02:06Z</time>
      </trkpt>
      <trkpt lat="43.43263" lon="3.44479">
        <ele>35.799999237061</ele>
        <time>2023-12-19T16:02:07Z</time>
      </trkpt>
      <trkpt lat="43.4326" lon="3.44473">
        <ele>35.599998474121</ele>
        <time>2023-12-19T16:02:08Z</time>
      </trkpt>
      <trkpt lat="43.43258" lon="3.44468">
        <ele>35.400001525879</ele>
        <time>2023-12-19T16:02:09Z</time>
      </trkpt>
      <trkpt lat="43.43255" lon="3.44464">
        <ele>35</ele>
        <time>2023-12-19T16:02:10Z</time>
      </trkpt>
      <trkpt lat="43.43251" lon="3.4446">
        <ele>34.400001525879</ele>
        <time>2023-12-19T16:02:11Z</time>
      </trkpt>
      <trkpt lat="43.43248" lon="3.44455">
        <ele>33.599998474121</ele>
        <time>2023-12-19T16:02:12Z</time>
      </trkpt>
      <trkpt lat="43.43245" lon="3.4445">
        <ele>33</ele>
        <time>2023-12-19T16:02:13Z</time>
      </trkpt>
      <trkpt lat="43.43242" lon="3.44446">
        <ele>32.200000762939</ele>
        <time>2023-12-19T16:02:14Z</time>
      </trkpt>
      <trkpt lat="43.4324" lon="3.44442">
        <ele>31.60000038147</ele>
        <time>2023-12-19T16:02:15Z</time>
      </trkpt>
      <trkpt lat="43.43238" lon="3.44438">
        <ele>31</ele>
        <time>2023-12-19T16:02:16Z</time>
      </trkpt>
      <trkpt lat="43.43236" lon="3.44434">
        <ele>30.799999237061</ele>
        <time>2023-12-19T16:02:17Z</time>
      </trkpt>
      <trkpt lat="43.43235" lon="3.44429">
        <ele>30.200000762939</ele>
        <time>2023-12-19T16:02:18Z</time>
      </trkpt>
      <trkpt lat="43.43234" lon="3.44425">
        <ele>29.799999237061</ele>
        <time>2023-12-19T16:02:19Z</time>
      </trkpt>
      <trkpt lat="43.43232" lon="3.44421">
        <ele>29.39999961853</ele>
        <time>2023-12-19T16:02:20Z</time>
      </trkpt>
      <trkpt lat="43.4323" lon="3.44418">
        <ele>28.799999237061</ele>
        <time>2023-12-19T16:02:21Z</time>
      </trkpt>
      <trkpt lat="43.43227" lon="3.44416">
        <ele>28.39999961853</ele>
        <time>2023-12-19T16:02:22Z</time>
      </trkpt>
      <trkpt lat="43.43224" lon="3.44413">
        <ele>28.200000762939</ele>
        <time>2023-12-19T16:02:23Z</time>
      </trkpt>
      <trkpt lat="43.4322" lon="3.44411">
        <ele>28</ele>
        <time>2023-12-19T16:02:24Z</time>
      </trkpt>
      <trkpt lat="43.43216" lon="3.44408">
        <ele>27.799999237061</ele>
        <time>2023-12-19T16:02:25Z</time>
      </trkpt>
      <trkpt lat="43.43212" lon="3.44405">
        <ele>27.60000038147</ele>
        <time>2023-12-19T16:02:26Z</time>
      </trkpt>
      <trkpt lat="43.43208" lon="3.44404">
        <ele>27.200000762939</ele>
        <time>2023-12-19T16:02:27Z</time>
      </trkpt>
      <trkpt lat="43.43205" lon="3.44402">
        <ele>26.60000038147</ele>
        <time>2023-12-19T16:02:28Z</time>
      </trkpt>
      <trkpt lat="43.43201" lon="3.444">
        <ele>26</ele>
        <time>2023-12-19T16:02:29Z</time>
      </trkpt>
      <trkpt lat="43.43197" lon="3.44397">
        <ele>25.799999237061</ele>
        <time>2023-12-19T16:02:30Z</time>
      </trkpt>
      <trkpt lat="43.43192" lon="3.44396">
        <ele>25.39999961853</ele>
        <time>2023-12-19T16:02:31Z</time>
      </trkpt>
      <trkpt lat="43.43186" lon="3.44396">
        <ele>25</ele>
        <time>2023-12-19T16:02:32Z</time>
      </trkpt>
      <trkpt lat="43.43181" lon="3.44395">
        <ele>24.60000038147</ele>
        <time>2023-12-19T16:02:33Z</time>
      </trkpt>
      <trkpt lat="43.43176" lon="3.44395">
        <ele>23.799999237061</ele>
        <time>2023-12-19T16:02:34Z</time>
      </trkpt>
      <trkpt lat="43.43171" lon="3.44395">
        <ele>23.200000762939</ele>
        <time>2023-12-19T16:02:35Z</time>
      </trkpt>
      <trkpt lat="43.43167" lon="3.44394">
        <ele>22.60000038147</ele>
        <time>2023-12-19T16:02:36Z</time>
      </trkpt>
      <trkpt lat="43.43163" lon="3.44393">
        <ele>22.200000762939</ele>
        <time>2023-12-19T16:02:37Z</time>
      </trkpt>
      <trkpt lat="43.43161" lon="3.44392">
        <ele>21.799999237061</ele>
        <time>2023-12-19T16:02:38Z</time>
      </trkpt>
      <trkpt lat="43.43158" lon="3.44391">
        <ele>21.799999237061</ele>
        <time>2023-12-19T16:02:39Z</time>
      </trkpt>
      <trkpt lat="43.43156" lon="3.44391">
        <ele>21.799999237061</ele>
        <time>2023-12-19T16:02:40Z</time>
      </trkpt>
      <trkpt lat="43.43155" lon="3.44391">
        <ele>21.799999237061</ele>
        <time>2023-12-19T16:02:41Z</time>
      </trkpt>
      <trkpt lat="43.43154" lon="3.44392">
        <ele>21.799999237061</ele>
        <time>2023-12-19T16:02:42Z</time>
      </trkpt>
      <trkpt lat="43.43152" lon="3.44392">
        <ele>21.799999237061</ele>
        <time>2023-12-19T16:02:43Z</time>
      </trkpt>
      <trkpt lat="43.43149" lon="3.44393">
        <ele>21.799999237061</ele>
        <time>2023-12-19T16:02:44Z</time>
      </trkpt>
      <trkpt lat="43.43147" lon="3.44395">
        <ele>21.799999237061</ele>
        <time>2023-12-19T16:02:45Z</time>
      </trkpt>
      <trkpt lat="43.43145" lon="3.44394">
        <ele>21.799999237061</ele>
        <time>2023-12-19T16:02:46Z</time>
      </trkpt>
      <trkpt lat="43.43143" lon="3.44392">
        <ele>22</ele>
        <time>2023-12-19T16:02:47Z</time>
      </trkpt>
      <trkpt lat="43.43142" lon="3.4439">
        <ele>22</ele>
        <time>2023-12-19T16:02:48Z</time>
      </trkpt>
      <trkpt lat="43.43142" lon="3.44387">
        <ele>22.200000762939</ele>
        <time>2023-12-19T16:02:49Z</time>
      </trkpt>
      <trkpt lat="43.43144" lon="3.44384">
        <ele>22.39999961853</ele>
        <time>2023-12-19T16:02:50Z</time>
      </trkpt>
      <trkpt lat="43.43145" lon="3.44381">
        <ele>22.60000038147</ele>
        <time>2023-12-19T16:02:51Z</time>
      </trkpt>
      <trkpt lat="43.43147" lon="3.44379">
        <ele>22.799999237061</ele>
        <time>2023-12-19T16:02:52Z</time>
      </trkpt>
      <trkpt lat="43.43149" lon="3.44377">
        <ele>22.799999237061</ele>
        <time>2023-12-19T16:02:53Z</time>
      </trkpt>
      <trkpt lat="43.43151" lon="3.44373">
        <ele>22.799999237061</ele>
        <time>2023-12-19T16:02:54Z</time>
      </trkpt>
      <trkpt lat="43.43153" lon="3.44369">
        <ele>22.799999237061</ele>
        <time>2023-12-19T16:02:55Z</time>
      </trkpt>
      <trkpt lat="43.43155" lon="3.44364">
        <ele>22.60000038147</ele>
        <time>2023-12-19T16:02:56Z</time>
      </trkpt>
      <trkpt lat="43.43157" lon="3.44358">
        <ele>22.39999961853</ele>
        <time>2023-12-19T16:02:57Z</time>
      </trkpt>
      <trkpt lat="43.4316" lon="3.44352">
        <ele>22.39999961853</ele>
        <time>2023-12-19T16:02:58Z</time>
      </trkpt>
      <trkpt lat="43.43163" lon="3.44347">
        <ele>22</ele>
        <time>2023-12-19T16:02:59Z</time>
      </trkpt>
      <trkpt lat="43.43166" lon="3.44342">
        <ele>21.799999237061</ele>
        <time>2023-12-19T16:03:00Z</time>
      </trkpt>
      <trkpt lat="43.43168" lon="3.44337">
        <ele>21.60000038147</ele>
        <time>2023-12-19T16:03:01Z</time>
      </trkpt>
      <trkpt lat="43.43171" lon="3.44332">
        <ele>21.39999961853</ele>
        <time>2023-12-19T16:03:02Z</time>
      </trkpt>
      <trkpt lat="43.43174" lon="3.44325">
        <ele>21.200000762939</ele>
        <time>2023-12-19T16:03:03Z</time>
      </trkpt>
      <trkpt lat="43.43177" lon="3.44318">
        <ele>21.200000762939</ele>
        <time>2023-12-19T16:03:04Z</time>
      </trkpt>
      <trkpt lat="43.43181" lon="3.44311">
        <ele>21</ele>
        <time>2023-12-19T16:03:05Z</time>
      </trkpt>
      <trkpt lat="43.43184" lon="3.44304">
        <ele>21</ele>
        <time>2023-12-19T16:03:06Z</time>
      </trkpt>
      <trkpt lat="43.43187" lon="3.44298">
        <ele>20.799999237061</ele>
        <time>2023-12-19T16:03:07Z</time>
      </trkpt>
      <trkpt lat="43.4319" lon="3.44291">
        <ele>20.60000038147</ele>
        <time>2023-12-19T16:03:08Z</time>
      </trkpt>
      <trkpt lat="43.43193" lon="3.44284">
        <ele>20.60000038147</ele>
        <time>2023-12-19T16:03:09Z</time>
      </trkpt>
      <trkpt lat="43.43197" lon="3.44277">
        <ele>20.60000038147</ele>
        <time>2023-12-19T16:03:10Z</time>
      </trkpt>
      <trkpt lat="43.432" lon="3.44269">
        <ele>20.60000038147</ele>
        <time>2023-12-19T16:03:11Z</time>
      </trkpt>
      <trkpt lat="43.43203" lon="3.44262">
        <ele>20.60000038147</ele>
        <time>2023-12-19T16:03:12Z</time>
      </trkpt>
      <trkpt lat="43.43207" lon="3.44255">
        <ele>20.39999961853</ele>
        <time>2023-12-19T16:03:13Z</time>
      </trkpt>
      <trkpt lat="43.4321" lon="3.44248">
        <ele>20.39999961853</ele>
        <time>2023-12-19T16:03:14Z</time>
      </trkpt>
      <trkpt lat="43.43214" lon="3.44241">
        <ele>20.39999961853</ele>
        <time>2023-12-19T16:03:15Z</time>
      </trkpt>
      <trkpt lat="43.43216" lon="3.44233">
        <ele>20.39999961853</ele>
        <time>2023-12-19T16:03:16Z</time>
      </trkpt>
      <trkpt lat="43.43219" lon="3.44226">
        <ele>20.39999961853</ele>
        <time>2023-12-19T16:03:17Z</time>
      </trkpt>
      <trkpt lat="43.43221" lon="3.44218">
        <ele>20.39999961853</ele>
        <time>2023-12-19T16:03:18Z</time>
      </trkpt>
      <trkpt lat="43.43222" lon="3.44211">
        <ele>20.60000038147</ele>
        <time>2023-12-19T16:03:19Z</time>
      </trkpt>
      <trkpt lat="43.43224" lon="3.44203">
        <ele>20.799999237061</ele>
        <time>2023-12-19T16:03:20Z</time>
      </trkpt>
      <trkpt lat="43.43225" lon="3.44196">
        <ele>21</ele>
        <time>2023-12-19T16:03:21Z</time>
      </trkpt>
      <trkpt lat="43.43226" lon="3.44189">
        <ele>21.200000762939</ele>
        <time>2023-12-19T16:03:22Z</time>
      </trkpt>
      <trkpt lat="43.43227" lon="3.44182">
        <ele>21.60000038147</ele>
        <time>2023-12-19T16:03:23Z</time>
      </trkpt>
      <trkpt lat="43.43229" lon="3.44176">
        <ele>21.799999237061</ele>
        <time>2023-12-19T16:03:24Z</time>
      </trkpt>
      <trkpt lat="43.4323" lon="3.44169">
        <ele>22.200000762939</ele>
        <time>2023-12-19T16:03:25Z</time>
      </trkpt>
      <trkpt lat="43.4323" lon="3.44162">
        <ele>22.39999961853</ele>
        <time>2023-12-19T16:03:26Z</time>
      </trkpt>
      <trkpt lat="43.43231" lon="3.44155">
        <ele>22.60000038147</ele>
        <time>2023-12-19T16:03:27Z</time>
      </trkpt>
      <trkpt lat="43.43232" lon="3.44147">
        <ele>22.799999237061</ele>
        <time>2023-12-19T16:03:28Z</time>
      </trkpt>
      <trkpt lat="43.43233" lon="3.44139">
        <ele>23</ele>
        <time>2023-12-19T16:03:29Z</time>
      </trkpt>
      <trkpt lat="43.43234" lon="3.44132">
        <ele>23.200000762939</ele>
        <time>2023-12-19T16:03:30Z</time>
      </trkpt>
      <trkpt lat="43.43235" lon="3.44124">
        <ele>23.200000762939</ele>
        <time>2023-12-19T16:03:31Z</time>
      </trkpt>
      <trkpt lat="43.43236" lon="3.44116">
        <ele>23.39999961853</ele>
        <time>2023-12-19T16:03:32Z</time>
      </trkpt>
      <trkpt lat="43.43237" lon="3.44108">
        <ele>23.799999237061</ele>
        <time>2023-12-19T16:03:33Z</time>
      </trkpt>
      <trkpt lat="43.43238" lon="3.441">
        <ele>24</ele>
        <time>2023-12-19T16:03:34Z</time>
      </trkpt>
      <trkpt lat="43.43239" lon="3.44092">
        <ele>24.200000762939</ele>
        <time>2023-12-19T16:03:35Z</time>
      </trkpt>
      <trkpt lat="43.4324" lon="3.44084">
        <ele>24.39999961853</ele>
        <time>2023-12-19T16:03:36Z</time>
      </trkpt>
      <trkpt lat="43.4324" lon="3.44077">
        <ele>24.799999237061</ele>
        <time>2023-12-19T16:03:37Z</time>
      </trkpt>
      <trkpt lat="43.43241" lon="3.44069">
        <ele>25</ele>
        <time>2023-12-19T16:03:38Z</time>
      </trkpt>
      <trkpt lat="43.43242" lon="3.44062">
        <ele>25.200000762939</ele>
        <time>2023-12-19T16:03:39Z</time>
      </trkpt>
      <trkpt lat="43.43242" lon="3.44054">
        <ele>25.60000038147</ele>
        <time>2023-12-19T16:03:40Z</time>
      </trkpt>
      <trkpt lat="43.43243" lon="3.44046">
        <ele>25.799999237061</ele>
        <time>2023-12-19T16:03:41Z</time>
      </trkpt>
      <trkpt lat="43.43244" lon="3.44038">
        <ele>26</ele>
        <time>2023-12-19T16:03:42Z</time>
      </trkpt>
      <trkpt lat="43.43245" lon="3.44029">
        <ele>26.200000762939</ele>
        <time>2023-12-19T16:03:43Z</time>
      </trkpt>
      <trkpt lat="43.43247" lon="3.44021">
        <ele>26.39999961853</ele>
        <time>2023-12-19T16:03:44Z</time>
      </trkpt>
      <trkpt lat="43.43248" lon="3.44014">
        <ele>26.60000038147</ele>
        <time>2023-12-19T16:03:45Z</time>
      </trkpt>
      <trkpt lat="43.43249" lon="3.44006">
        <ele>26.799999237061</ele>
        <time>2023-12-19T16:03:46Z</time>
      </trkpt>
      <trkpt lat="43.4325" lon="3.43999">
        <ele>27</ele>
        <time>2023-12-19T16:03:47Z</time>
      </trkpt>
      <trkpt lat="43.43251" lon="3.43991">
        <ele>27.200000762939</ele>
        <time>2023-12-19T16:03:48Z</time>
      </trkpt>
      <trkpt lat="43.43252" lon="3.43984">
        <ele>27.39999961853</ele>
        <time>2023-12-19T16:03:49Z</time>
      </trkpt>
      <trkpt lat="43.43253" lon="3.43977">
        <ele>27.39999961853</ele>
        <time>2023-12-19T16:03:50Z</time>
      </trkpt>
      <trkpt lat="43.43253" lon="3.4397">
        <ele>27.60000038147</ele>
        <time>2023-12-19T16:03:51Z</time>
      </trkpt>
      <trkpt lat="43.43254" lon="3.43962">
        <ele>27.60000038147</ele>
        <time>2023-12-19T16:03:52Z</time>
      </trkpt>
      <trkpt lat="43.43255" lon="3.43955">
        <ele>27.799999237061</ele>
        <time>2023-12-19T16:03:53Z</time>
      </trkpt>
      <trkpt lat="43.43256" lon="3.43947">
        <ele>27.799999237061</ele>
        <time>2023-12-19T16:03:54Z</time>
      </trkpt>
      <trkpt lat="43.43257" lon="3.43939">
        <ele>28</ele>
        <time>2023-12-19T16:03:55Z</time>
      </trkpt>
      <trkpt lat="43.43258" lon="3.43931">
        <ele>28</ele>
        <time>2023-12-19T16:03:56Z</time>
      </trkpt>
      <trkpt lat="43.4326" lon="3.43924">
        <ele>28.200000762939</ele>
        <time>2023-12-19T16:03:57Z</time>
      </trkpt>
      <trkpt lat="43.43261" lon="3.43916">
        <ele>28.200000762939</ele>
        <time>2023-12-19T16:03:58Z</time>
      </trkpt>
      <trkpt lat="43.43262" lon="3.43909">
        <ele>28.39999961853</ele>
        <time>2023-12-19T16:03:59Z</time>
      </trkpt>
      <trkpt lat="43.43263" lon="3.43902">
        <ele>28.39999961853</ele>
        <time>2023-12-19T16:04:00Z</time>
      </trkpt>
      <trkpt lat="43.43264" lon="3.43895">
        <ele>28.60000038147</ele>
        <time>2023-12-19T16:04:01Z</time>
      </trkpt>
      <trkpt lat="43.43265" lon="3.43888">
        <ele>28.799999237061</ele>
        <time>2023-12-19T16:04:02Z</time>
      </trkpt>
      <trkpt lat="43.43265" lon="3.4388">
        <ele>28.799999237061</ele>
        <time>2023-12-19T16:04:03Z</time>
      </trkpt>
      <trkpt lat="43.43267" lon="3.43872">
        <ele>28.799999237061</ele>
        <time>2023-12-19T16:04:04Z</time>
      </trkpt>
      <trkpt lat="43.43268" lon="3.43865">
        <ele>28.799999237061</ele>
        <time>2023-12-19T16:04:05Z</time>
      </trkpt>
      <trkpt lat="43.43269" lon="3.43857">
        <ele>29</ele>
        <time>2023-12-19T16:04:06Z</time>
      </trkpt>
      <trkpt lat="43.4327" lon="3.4385">
        <ele>29</ele>
        <time>2023-12-19T16:04:07Z</time>
      </trkpt>
      <trkpt lat="43.43272" lon="3.43844">
        <ele>29</ele>
        <time>2023-12-19T16:04:08Z</time>
      </trkpt>
      <trkpt lat="43.43274" lon="3.43837">
        <ele>29</ele>
        <time>2023-12-19T16:04:09Z</time>
      </trkpt>
      <trkpt lat="43.43276" lon="3.43831">
        <ele>29</ele>
        <time>2023-12-19T16:04:10Z</time>
      </trkpt>
      <trkpt lat="43.4328" lon="3.43823">
        <ele>29</ele>
        <time>2023-12-19T16:04:11Z</time>
      </trkpt>
      <trkpt lat="43.43283" lon="3.43817">
        <ele>29.200000762939</ele>
        <time>2023-12-19T16:04:12Z</time>
      </trkpt>
      <trkpt lat="43.43286" lon="3.4381">
        <ele>29.200000762939</ele>
        <time>2023-12-19T16:04:13Z</time>
      </trkpt>
      <trkpt lat="43.43289" lon="3.43804">
        <ele>29.200000762939</ele>
        <time>2023-12-19T16:04:14Z</time>
      </trkpt>
      <trkpt lat="43.43293" lon="3.43798">
        <ele>29.200000762939</ele>
        <time>2023-12-19T16:04:15Z</time>
      </trkpt>
      <trkpt lat="43.43296" lon="3.43793">
        <ele>29.200000762939</ele>
        <time>2023-12-19T16:04:16Z</time>
      </trkpt>
      <trkpt lat="43.433" lon="3.43788">
        <ele>29.39999961853</ele>
        <time>2023-12-19T16:04:17Z</time>
      </trkpt>
      <trkpt lat="43.43304" lon="3.43783">
        <ele>29.39999961853</ele>
        <time>2023-12-19T16:04:18Z</time>
      </trkpt>
      <trkpt lat="43.43308" lon="3.43779">
        <ele>29.39999961853</ele>
        <time>2023-12-19T16:04:19Z</time>
      </trkpt>
      <trkpt lat="43.43312" lon="3.43774">
        <ele>29.39999961853</ele>
        <time>2023-12-19T16:04:20Z</time>
      </trkpt>
      <trkpt lat="43.43317" lon="3.43769">
        <ele>29.39999961853</ele>
        <time>2023-12-19T16:04:21Z</time>
      </trkpt>
      <trkpt lat="43.43322" lon="3.43765">
        <ele>29.39999961853</ele>
        <time>2023-12-19T16:04:22Z</time>
      </trkpt>
      <trkpt lat="43.43327" lon="3.43761">
        <ele>29.39999961853</ele>
        <time>2023-12-19T16:04:23Z</time>
      </trkpt>
      <trkpt lat="43.43331" lon="3.43757">
        <ele>29.39999961853</ele>
        <time>2023-12-19T16:04:24Z</time>
      </trkpt>
      <trkpt lat="43.43335" lon="3.43753">
        <ele>29.39999961853</ele>
        <time>2023-12-19T16:04:25Z</time>
      </trkpt>
      <trkpt lat="43.43338" lon="3.4375">
        <ele>29.39999961853</ele>
        <time>2023-12-19T16:04:26Z</time>
      </trkpt>
      <trkpt lat="43.4334" lon="3.43747">
        <ele>29.60000038147</ele>
        <time>2023-12-19T16:04:27Z</time>
      </trkpt>
      <trkpt lat="43.43342" lon="3.43745">
        <ele>29.799999237061</ele>
        <time>2023-12-19T16:04:28Z</time>
      </trkpt>
      <trkpt lat="43.43345" lon="3.43744">
        <ele>30</ele>
        <time>2023-12-19T16:04:29Z</time>
      </trkpt>
      <trkpt lat="43.43349" lon="3.43742">
        <ele>30</ele>
        <time>2023-12-19T16:04:30Z</time>
      </trkpt>
      <trkpt lat="43.43353" lon="3.43739">
        <ele>30.200000762939</ele>
        <time>2023-12-19T16:04:31Z</time>
      </trkpt>
      <trkpt lat="43.43357" lon="3.43736">
        <ele>30.200000762939</ele>
        <time>2023-12-19T16:04:32Z</time>
      </trkpt>
      <trkpt lat="43.43361" lon="3.43732">
        <ele>30.200000762939</ele>
        <time>2023-12-19T16:04:33Z</time>
      </trkpt>
      <trkpt lat="43.43366" lon="3.43729">
        <ele>30.200000762939</ele>
        <time>2023-12-19T16:04:34Z</time>
      </trkpt>
      <trkpt lat="43.4337" lon="3.43724">
        <ele>30.200000762939</ele>
        <time>2023-12-19T16:04:35Z</time>
      </trkpt>
      <trkpt lat="43.43375" lon="3.4372">
        <ele>30.39999961853</ele>
        <time>2023-12-19T16:04:36Z</time>
      </trkpt>
      <trkpt lat="43.43379" lon="3.43716">
        <ele>30.39999961853</ele>
        <time>2023-12-19T16:04:37Z</time>
      </trkpt>
      <trkpt lat="43.43384" lon="3.43712">
        <ele>30.39999961853</ele>
        <time>2023-12-19T16:04:38Z</time>
      </trkpt>
      <trkpt lat="43.43389" lon="3.43707">
        <ele>30.39999961853</ele>
        <time>2023-12-19T16:04:39Z</time>
      </trkpt>
      <trkpt lat="43.43394" lon="3.43703">
        <ele>30.39999961853</ele>
        <time>2023-12-19T16:04:40Z</time>
      </trkpt>
      <trkpt lat="43.43399" lon="3.43698">
        <ele>30.39999961853</ele>
        <time>2023-12-19T16:04:41Z</time>
      </trkpt>
      <trkpt lat="43.43404" lon="3.43694">
        <ele>30.60000038147</ele>
        <time>2023-12-19T16:04:42Z</time>
      </trkpt>
      <trkpt lat="43.43409" lon="3.43689">
        <ele>30.799999237061</ele>
        <time>2023-12-19T16:04:43Z</time>
      </trkpt>
      <trkpt lat="43.43414" lon="3.43685">
        <ele>31</ele>
        <time>2023-12-19T16:04:44Z</time>
      </trkpt>
      <trkpt lat="43.43419" lon="3.43681">
        <ele>31.200000762939</ele>
        <time>2023-12-19T16:04:45Z</time>
      </trkpt>
      <trkpt lat="43.43424" lon="3.43677">
        <ele>31.60000038147</ele>
        <time>2023-12-19T16:04:46Z</time>
      </trkpt>
      <trkpt lat="43.43428" lon="3.43675">
        <ele>32</ele>
        <time>2023-12-19T16:04:47Z</time>
      </trkpt>
      <trkpt lat="43.43432" lon="3.43673">
        <ele>32.400001525879</ele>
        <time>2023-12-19T16:04:48Z</time>
      </trkpt>
      <trkpt lat="43.43434" lon="3.43673">
        <ele>32.799999237061</ele>
        <time>2023-12-19T16:04:49Z</time>
      </trkpt>
      <trkpt lat="43.43437" lon="3.43673">
        <ele>33.200000762939</ele>
        <time>2023-12-19T16:04:50Z</time>
      </trkpt>
      <trkpt lat="43.43439" lon="3.43674">
        <ele>33.599998474121</ele>
        <time>2023-12-19T16:04:51Z</time>
      </trkpt>
      <trkpt lat="43.43442" lon="3.43674">
        <ele>34</ele>
        <time>2023-12-19T16:04:52Z</time>
      </trkpt>
      <trkpt lat="43.43446" lon="3.43675">
        <ele>34.200000762939</ele>
        <time>2023-12-19T16:04:53Z</time>
      </trkpt>
      <trkpt lat="43.43451" lon="3.43675">
        <ele>34.599998474121</ele>
        <time>2023-12-19T16:04:54Z</time>
      </trkpt>
      <trkpt lat="43.43456" lon="3.43676">
        <ele>34.599998474121</ele>
        <time>2023-12-19T16:04:55Z</time>
      </trkpt>
      <trkpt lat="43.4346" lon="3.43678">
        <ele>34.599998474121</ele>
        <time>2023-12-19T16:04:56Z</time>
      </trkpt>
      <trkpt lat="43.43465" lon="3.43682">
        <ele>34.599998474121</ele>
        <time>2023-12-19T16:04:57Z</time>
      </trkpt>
      <trkpt lat="43.43469" lon="3.43687">
        <ele>34.400001525879</ele>
        <time>2023-12-19T16:04:58Z</time>
      </trkpt>
      <trkpt lat="43.43474" lon="3.43692">
        <ele>34.400001525879</ele>
        <time>2023-12-19T16:04:59Z</time>
      </trkpt>
      <trkpt lat="43.43478" lon="3.43697">
        <ele>34</ele>
        <time>2023-12-19T16:05:00Z</time>
      </trkpt>
      <trkpt lat="43.43482" lon="3.43702">
        <ele>33.799999237061</ele>
        <time>2023-12-19T16:05:01Z</time>
      </trkpt>
      <trkpt lat="43.43486" lon="3.43707">
        <ele>33.599998474121</ele>
        <time>2023-12-19T16:05:02Z</time>
      </trkpt>
      <trkpt lat="43.4349" lon="3.43712">
        <ele>33.400001525879</ele>
        <time>2023-12-19T16:05:03Z</time>
      </trkpt>
      <trkpt lat="43.43495" lon="3.43717">
        <ele>33.200000762939</ele>
        <time>2023-12-19T16:05:04Z</time>
      </trkpt>
      <trkpt lat="43.435" lon="3.4372">
        <ele>33.200000762939</ele>
        <time>2023-12-19T16:05:05Z</time>
      </trkpt>
      <trkpt lat="43.43506" lon="3.43722">
        <ele>33.200000762939</ele>
        <time>2023-12-19T16:05:06Z</time>
      </trkpt>
      <trkpt lat="43.4351" lon="3.43719">
        <ele>33.200000762939</ele>
        <time>2023-12-19T16:05:07Z</time>
      </trkpt>
      <trkpt lat="43.43514" lon="3.43714">
        <ele>33.200000762939</ele>
        <time>2023-12-19T16:05:08Z</time>
      </trkpt>
      <trkpt lat="43.43517" lon="3.43707">
        <ele>33.200000762939</ele>
        <time>2023-12-19T16:05:09Z</time>
      </trkpt>
      <trkpt lat="43.43521" lon="3.437">
        <ele>33.400001525879</ele>
        <time>2023-12-19T16:05:10Z</time>
      </trkpt>
      <trkpt lat="43.43527" lon="3.43697">
        <ele>33.599998474121</ele>
        <time>2023-12-19T16:05:11Z</time>
      </trkpt>
      <trkpt lat="43.43532" lon="3.43695">
        <ele>33.799999237061</ele>
        <time>2023-12-19T16:05:12Z</time>
      </trkpt>
      <trkpt lat="43.43538" lon="3.43694">
        <ele>33.799999237061</ele>
        <time>2023-12-19T16:05:13Z</time>
      </trkpt>
      <trkpt lat="43.43543" lon="3.43694">
        <ele>34</ele>
        <time>2023-12-19T16:05:14Z</time>
      </trkpt>
      <trkpt lat="43.43548" lon="3.43693">
        <ele>34.200000762939</ele>
        <time>2023-12-19T16:05:15Z</time>
      </trkpt>
      <trkpt lat="43.43552" lon="3.43692">
        <ele>34.200000762939</ele>
        <time>2023-12-19T16:05:16Z</time>
      </trkpt>
      <trkpt lat="43.43557" lon="3.43691">
        <ele>34.400001525879</ele>
        <time>2023-12-19T16:05:17Z</time>
      </trkpt>
      <trkpt lat="43.43561" lon="3.4369">
        <ele>34.599998474121</ele>
        <time>2023-12-19T16:05:18Z</time>
      </trkpt>
      <trkpt lat="43.43567" lon="3.43689">
        <ele>34.599998474121</ele>
        <time>2023-12-19T16:05:19Z</time>
      </trkpt>
      <trkpt lat="43.43573" lon="3.4369">
        <ele>34.599998474121</ele>
        <time>2023-12-19T16:05:20Z</time>
      </trkpt>
      <trkpt lat="43.43578" lon="3.43694">
        <ele>34.599998474121</ele>
        <time>2023-12-19T16:05:21Z</time>
      </trkpt>
      <trkpt lat="43.43584" lon="3.43699">
        <ele>34.400001525879</ele>
        <time>2023-12-19T16:05:22Z</time>
      </trkpt>
      <trkpt lat="43.4359" lon="3.43706">
        <ele>34</ele>
        <time>2023-12-19T16:05:23Z</time>
      </trkpt>
      <trkpt lat="43.43595" lon="3.43713">
        <ele>33.599998474121</ele>
        <time>2023-12-19T16:05:24Z</time>
      </trkpt>
      <trkpt lat="43.436" lon="3.43722">
        <ele>32.799999237061</ele>
        <time>2023-12-19T16:05:25Z</time>
      </trkpt>
      <trkpt lat="43.43605" lon="3.43731">
        <ele>32.200000762939</ele>
        <time>2023-12-19T16:05:26Z</time>
      </trkpt>
      <trkpt lat="43.43609" lon="3.4374">
        <ele>31.799999237061</ele>
        <time>2023-12-19T16:05:27Z</time>
      </trkpt>
      <trkpt lat="43.43614" lon="3.43751">
        <ele>31.39999961853</ele>
        <time>2023-12-19T16:05:28Z</time>
      </trkpt>
      <trkpt lat="43.43619" lon="3.43761">
        <ele>30.60000038147</ele>
        <time>2023-12-19T16:05:29Z</time>
      </trkpt>
      <trkpt lat="43.43622" lon="3.4377">
        <ele>30</ele>
        <time>2023-12-19T16:05:30Z</time>
      </trkpt>
      <trkpt lat="43.43625" lon="3.4378">
        <ele>29.39999961853</ele>
        <time>2023-12-19T16:05:31Z</time>
      </trkpt>
      <trkpt lat="43.43628" lon="3.43789">
        <ele>29.200000762939</ele>
        <time>2023-12-19T16:05:32Z</time>
      </trkpt>
      <trkpt lat="43.43632" lon="3.43799">
        <ele>28.799999237061</ele>
        <time>2023-12-19T16:05:33Z</time>
      </trkpt>
      <trkpt lat="43.43637" lon="3.43806">
        <ele>28.200000762939</ele>
        <time>2023-12-19T16:05:34Z</time>
      </trkpt>
      <trkpt lat="43.43643" lon="3.43812">
        <ele>27.799999237061</ele>
        <time>2023-12-19T16:05:35Z</time>
      </trkpt>
      <trkpt lat="43.4365" lon="3.43816">
        <ele>27.39999961853</ele>
        <time>2023-12-19T16:05:36Z</time>
      </trkpt>
      <trkpt lat="43.43658" lon="3.43818">
        <ele>26.60000038147</ele>
        <time>2023-12-19T16:05:37Z</time>
      </trkpt>
      <trkpt lat="43.43667" lon="3.43819">
        <ele>26</ele>
        <time>2023-12-19T16:05:38Z</time>
      </trkpt>
      <trkpt lat="43.43676" lon="3.43817">
        <ele>25.60000038147</ele>
        <time>2023-12-19T16:05:39Z</time>
      </trkpt>
      <trkpt lat="43.43684" lon="3.43815">
        <ele>25.200000762939</ele>
        <time>2023-12-19T16:05:40Z</time>
      </trkpt>
      <trkpt lat="43.43691" lon="3.43815">
        <ele>25</ele>
        <time>2023-12-19T16:05:41Z</time>
      </trkpt>
      <trkpt lat="43.43699" lon="3.43815">
        <ele>24.39999961853</ele>
        <time>2023-12-19T16:05:42Z</time>
      </trkpt>
      <trkpt lat="43.43707" lon="3.43817">
        <ele>24</ele>
        <time>2023-12-19T16:05:43Z</time>
      </trkpt>
      <trkpt lat="43.43714" lon="3.43819">
        <ele>23.200000762939</ele>
        <time>2023-12-19T16:05:44Z</time>
      </trkpt>
      <trkpt lat="43.43722" lon="3.43823">
        <ele>23</ele>
        <time>2023-12-19T16:05:45Z</time>
      </trkpt>
      <trkpt lat="43.43729" lon="3.4383">
        <ele>22.39999961853</ele>
        <time>2023-12-19T16:05:46Z</time>
      </trkpt>
      <trkpt lat="43.43736" lon="3.43836">
        <ele>21.799999237061</ele>
        <time>2023-12-19T16:05:47Z</time>
      </trkpt>
      <trkpt lat="43.43743" lon="3.43843">
        <ele>21.39999961853</ele>
        <time>2023-12-19T16:05:48Z</time>
      </trkpt>
      <trkpt lat="43.43749" lon="3.4385">
        <ele>20.799999237061</ele>
        <time>2023-12-19T16:05:49Z</time>
      </trkpt>
      <trkpt lat="43.43756" lon="3.43856">
        <ele>20.39999961853</ele>
        <time>2023-12-19T16:05:50Z</time>
      </trkpt>
      <trkpt lat="43.43764" lon="3.43862">
        <ele>19.200000762939</ele>
        <time>2023-12-19T16:05:51Z</time>
      </trkpt>
      <trkpt lat="43.43771" lon="3.43869">
        <ele>19</ele>
        <time>2023-12-19T16:05:52Z</time>
      </trkpt>
      <trkpt lat="43.43778" lon="3.43876">
        <ele>18.799999237061</ele>
        <time>2023-12-19T16:05:53Z</time>
      </trkpt>
      <trkpt lat="43.43786" lon="3.43883">
        <ele>18</ele>
        <time>2023-12-19T16:05:54Z</time>
      </trkpt>
      <trkpt lat="43.43793" lon="3.43888">
        <ele>17.799999237061</ele>
        <time>2023-12-19T16:05:55Z</time>
      </trkpt>
      <trkpt lat="43.43801" lon="3.43892">
        <ele>17.60000038147</ele>
        <time>2023-12-19T16:05:56Z</time>
      </trkpt>
      <trkpt lat="43.43809" lon="3.43895">
        <ele>17.200000762939</ele>
        <time>2023-12-19T16:05:57Z</time>
      </trkpt>
      <trkpt lat="43.43816" lon="3.43897">
        <ele>16.799999237061</ele>
        <time>2023-12-19T16:05:58Z</time>
      </trkpt>
      <trkpt lat="43.43824" lon="3.43898">
        <ele>16.60000038147</ele>
        <time>2023-12-19T16:05:59Z</time>
      </trkpt>
      <trkpt lat="43.43832" lon="3.439">
        <ele>16</ele>
        <time>2023-12-19T16:06:00Z</time>
      </trkpt>
      <trkpt lat="43.4384" lon="3.43902">
        <ele>15.800000190735</ele>
        <time>2023-12-19T16:06:01Z</time>
      </trkpt>
      <trkpt lat="43.43847" lon="3.43905">
        <ele>15.60000038147</ele>
        <time>2023-12-19T16:06:02Z</time>
      </trkpt>
      <trkpt lat="43.43854" lon="3.43909">
        <ele>15.199999809265</ele>
        <time>2023-12-19T16:06:03Z</time>
      </trkpt>
      <trkpt lat="43.4386" lon="3.43912">
        <ele>14.800000190735</ele>
        <time>2023-12-19T16:06:04Z</time>
      </trkpt>
      <trkpt lat="43.43866" lon="3.43916">
        <ele>14.60000038147</ele>
        <time>2023-12-19T16:06:05Z</time>
      </trkpt>
      <trkpt lat="43.43872" lon="3.43921">
        <ele>14.39999961853</ele>
        <time>2023-12-19T16:06:06Z</time>
      </trkpt>
      <trkpt lat="43.43878" lon="3.43925">
        <ele>14.39999961853</ele>
        <time>2023-12-19T16:06:07Z</time>
      </trkpt>
      <trkpt lat="43.43884" lon="3.43929">
        <ele>14.39999961853</ele>
        <time>2023-12-19T16:06:08Z</time>
      </trkpt>
      <trkpt lat="43.43891" lon="3.43933">
        <ele>14.199999809265</ele>
        <time>2023-12-19T16:06:09Z</time>
      </trkpt>
      <trkpt lat="43.43897" lon="3.43936">
        <ele>14</ele>
        <time>2023-12-19T16:06:10Z</time>
      </trkpt>
      <trkpt lat="43.43902" lon="3.4394">
        <ele>13.800000190735</ele>
        <time>2023-12-19T16:06:11Z</time>
      </trkpt>
      <trkpt lat="43.43908" lon="3.43944">
        <ele>13.800000190735</ele>
        <time>2023-12-19T16:06:12Z</time>
      </trkpt>
      <trkpt lat="43.43914" lon="3.43948">
        <ele>13.60000038147</ele>
        <time>2023-12-19T16:06:13Z</time>
      </trkpt>
      <trkpt lat="43.4392" lon="3.43951">
        <ele>13.60000038147</ele>
        <time>2023-12-19T16:06:14Z</time>
      </trkpt>
      <trkpt lat="43.43926" lon="3.43954">
        <ele>13.60000038147</ele>
        <time>2023-12-19T16:06:15Z</time>
      </trkpt>
      <trkpt lat="43.43932" lon="3.43957">
        <ele>13.39999961853</ele>
        <time>2023-12-19T16:06:16Z</time>
      </trkpt>
      <trkpt lat="43.43937" lon="3.4396">
        <ele>13.39999961853</ele>
        <time>2023-12-19T16:06:17Z</time>
      </trkpt>
      <trkpt lat="43.43942" lon="3.43963">
        <ele>13.39999961853</ele>
        <time>2023-12-19T16:06:18Z</time>
      </trkpt>
      <trkpt lat="43.43947" lon="3.43966">
        <ele>13.199999809265</ele>
        <time>2023-12-19T16:06:19Z</time>
      </trkpt>
      <trkpt lat="43.43952" lon="3.43967">
        <ele>13.199999809265</ele>
        <time>2023-12-19T16:06:20Z</time>
      </trkpt>
      <trkpt lat="43.43956" lon="3.43965">
        <ele>13.199999809265</ele>
        <time>2023-12-19T16:06:21Z</time>
      </trkpt>
      <trkpt lat="43.43958" lon="3.43961">
        <ele>13.199999809265</ele>
        <time>2023-12-19T16:06:22Z</time>
      </trkpt>
      <trkpt lat="43.43957" lon="3.43955">
        <ele>13.199999809265</ele>
        <time>2023-12-19T16:06:23Z</time>
      </trkpt>
      <trkpt lat="43.43954" lon="3.43951">
        <ele>13.199999809265</ele>
        <time>2023-12-19T16:06:24Z</time>
      </trkpt>
      <trkpt lat="43.4395" lon="3.43946">
        <ele>13</ele>
        <time>2023-12-19T16:06:25Z</time>
      </trkpt>
      <trkpt lat="43.43946" lon="3.4394">
        <ele>12.800000190735</ele>
        <time>2023-12-19T16:06:26Z</time>
      </trkpt>
      <trkpt lat="43.43941" lon="3.43934">
        <ele>12.60000038147</ele>
        <time>2023-12-19T16:06:27Z</time>
      </trkpt>
      <trkpt lat="43.43936" lon="3.43929">
        <ele>12.199999809265</ele>
        <time>2023-12-19T16:06:28Z</time>
      </trkpt>
      <trkpt lat="43.43931" lon="3.43924">
        <ele>12</ele>
        <time>2023-12-19T16:06:29Z</time>
      </trkpt>
      <trkpt lat="43.43926" lon="3.43919">
        <ele>11.800000190735</ele>
        <time>2023-12-19T16:06:30Z</time>
      </trkpt>
      <trkpt lat="43.43921" lon="3.43913">
        <ele>11.800000190735</ele>
        <time>2023-12-19T16:06:31Z</time>
      </trkpt>
      <trkpt lat="43.43915" lon="3.43908">
        <ele>11.800000190735</ele>
        <time>2023-12-19T16:06:32Z</time>
      </trkpt>
      <trkpt lat="43.4391" lon="3.43903">
        <ele>11.60000038147</ele>
        <time>2023-12-19T16:06:33Z</time>
      </trkpt>
      <trkpt lat="43.43904" lon="3.43898">
        <ele>11.60000038147</ele>
        <time>2023-12-19T16:06:34Z</time>
      </trkpt>
      <trkpt lat="43.43899" lon="3.43893">
        <ele>11.60000038147</ele>
        <time>2023-12-19T16:06:35Z</time>
      </trkpt>
      <trkpt lat="43.43894" lon="3.43889">
        <ele>11.39999961853</ele>
        <time>2023-12-19T16:06:36Z</time>
      </trkpt>
      <trkpt lat="43.43889" lon="3.43886">
        <ele>11.39999961853</ele>
        <time>2023-12-19T16:06:37Z</time>
      </trkpt>
      <trkpt lat="43.43884" lon="3.43882">
        <ele>11.39999961853</ele>
        <time>2023-12-19T16:06:38Z</time>
      </trkpt>
      <trkpt lat="43.43879" lon="3.43879">
        <ele>11.199999809265</ele>
        <time>2023-12-19T16:06:39Z</time>
      </trkpt>
      <trkpt lat="43.43874" lon="3.43876">
        <ele>11.199999809265</ele>
        <time>2023-12-19T16:06:40Z</time>
      </trkpt>
      <trkpt lat="43.43869" lon="3.43871">
        <ele>11.199999809265</ele>
        <time>2023-12-19T16:06:41Z</time>
      </trkpt>
      <trkpt lat="43.43864" lon="3.43866">
        <ele>11.199999809265</ele>
        <time>2023-12-19T16:06:42Z</time>
      </trkpt>
      <trkpt lat="43.43859" lon="3.4386">
        <ele>11.199999809265</ele>
        <time>2023-12-19T16:06:43Z</time>
      </trkpt>
      <trkpt lat="43.43855" lon="3.43854">
        <ele>11.199999809265</ele>
        <time>2023-12-19T16:06:44Z</time>
      </trkpt>
      <trkpt lat="43.4385" lon="3.43848">
        <ele>11.199999809265</ele>
        <time>2023-12-19T16:06:45Z</time>
      </trkpt>
      <trkpt lat="43.43846" lon="3.43841">
        <ele>11.199999809265</ele>
        <time>2023-12-19T16:06:46Z</time>
      </trkpt>
      <trkpt lat="43.43842" lon="3.43834">
        <ele>11.199999809265</ele>
        <time>2023-12-19T16:06:47Z</time>
      </trkpt>
      <trkpt lat="43.43837" lon="3.43828">
        <ele>11.199999809265</ele>
        <time>2023-12-19T16:06:48Z</time>
      </trkpt>
      <trkpt lat="43.43833" lon="3.43822">
        <ele>11.39999961853</ele>
        <time>2023-12-19T16:06:49Z</time>
      </trkpt>
      <trkpt lat="43.43829" lon="3.43816">
        <ele>11.39999961853</ele>
        <time>2023-12-19T16:06:50Z</time>
      </trkpt>
      <trkpt lat="43.43826" lon="3.43809">
        <ele>11.39999961853</ele>
        <time>2023-12-19T16:06:51Z</time>
      </trkpt>
      <trkpt lat="43.43822" lon="3.43802">
        <ele>11.39999961853</ele>
        <time>2023-12-19T16:06:52Z</time>
      </trkpt>
      <trkpt lat="43.43818" lon="3.43795">
        <ele>11.39999961853</ele>
        <time>2023-12-19T16:06:53Z</time>
      </trkpt>
      <trkpt lat="43.43814" lon="3.43787">
        <ele>11.39999961853</ele>
        <time>2023-12-19T16:06:54Z</time>
      </trkpt>
      <trkpt lat="43.43811" lon="3.43779">
        <ele>11.199999809265</ele>
        <time>2023-12-19T16:06:55Z</time>
      </trkpt>
      <trkpt lat="43.43807" lon="3.43772">
        <ele>11.199999809265</ele>
        <time>2023-12-19T16:06:56Z</time>
      </trkpt>
      <trkpt lat="43.43803" lon="3.43764">
        <ele>11.199999809265</ele>
        <time>2023-12-19T16:06:57Z</time>
      </trkpt>
      <trkpt lat="43.43799" lon="3.43757">
        <ele>11</ele>
        <time>2023-12-19T16:06:58Z</time>
      </trkpt>
      <trkpt lat="43.43795" lon="3.43749">
        <ele>11</ele>
        <time>2023-12-19T16:06:59Z</time>
      </trkpt>
      <trkpt lat="43.43792" lon="3.43741">
        <ele>11</ele>
        <time>2023-12-19T16:07:00Z</time>
      </trkpt>
      <trkpt lat="43.43788" lon="3.43734">
        <ele>11</ele>
        <time>2023-12-19T16:07:01Z</time>
      </trkpt>
      <trkpt lat="43.43785" lon="3.43727">
        <ele>11</ele>
        <time>2023-12-19T16:07:02Z</time>
      </trkpt>
      <trkpt lat="43.43781" lon="3.43719">
        <ele>11</ele>
        <time>2023-12-19T16:07:03Z</time>
      </trkpt>
      <trkpt lat="43.43778" lon="3.43713">
        <ele>11</ele>
        <time>2023-12-19T16:07:04Z</time>
      </trkpt>
      <trkpt lat="43.43775" lon="3.43706">
        <ele>11</ele>
        <time>2023-12-19T16:07:05Z</time>
      </trkpt>
      <trkpt lat="43.43772" lon="3.437">
        <ele>11</ele>
        <time>2023-12-19T16:07:06Z</time>
      </trkpt>
      <trkpt lat="43.43769" lon="3.43694">
        <ele>11</ele>
        <time>2023-12-19T16:07:07Z</time>
      </trkpt>
      <trkpt lat="43.43769" lon="3.43687">
        <ele>11</ele>
        <time>2023-12-19T16:07:08Z</time>
      </trkpt>
      <trkpt lat="43.43769" lon="3.43679">
        <ele>11</ele>
        <time>2023-12-19T16:07:09Z</time>
      </trkpt>
      <trkpt lat="43.4377" lon="3.43671">
        <ele>11</ele>
        <time>2023-12-19T16:07:10Z</time>
      </trkpt>
      <trkpt lat="43.43771" lon="3.43662">
        <ele>11</ele>
        <time>2023-12-19T16:07:11Z</time>
      </trkpt>
      <trkpt lat="43.43771" lon="3.43654">
        <ele>11</ele>
        <time>2023-12-19T16:07:12Z</time>
      </trkpt>
      <trkpt lat="43.43771" lon="3.43645">
        <ele>11</ele>
        <time>2023-12-19T16:07:13Z</time>
      </trkpt>
      <trkpt lat="43.43772" lon="3.43636">
        <ele>10.800000190735</ele>
        <time>2023-12-19T16:07:14Z</time>
      </trkpt>
      <trkpt lat="43.43774" lon="3.43627">
        <ele>10.800000190735</ele>
        <time>2023-12-19T16:07:15Z</time>
      </trkpt>
      <trkpt lat="43.43775" lon="3.43618">
        <ele>10.800000190735</ele>
        <time>2023-12-19T16:07:16Z</time>
      </trkpt>
      <trkpt lat="43.43777" lon="3.43609">
        <ele>10.800000190735</ele>
        <time>2023-12-19T16:07:17Z</time>
      </trkpt>
      <trkpt lat="43.43779" lon="3.43601">
        <ele>10.800000190735</ele>
        <time>2023-12-19T16:07:18Z</time>
      </trkpt>
      <trkpt lat="43.43781" lon="3.43593">
        <ele>10.800000190735</ele>
        <time>2023-12-19T16:07:19Z</time>
      </trkpt>
      <trkpt lat="43.43784" lon="3.43584">
        <ele>10.800000190735</ele>
        <time>2023-12-19T16:07:20Z</time>
      </trkpt>
      <trkpt lat="43.43786" lon="3.43576">
        <ele>10.60000038147</ele>
        <time>2023-12-19T16:07:21Z</time>
      </trkpt>
      <trkpt lat="43.43789" lon="3.43568">
        <ele>10.60000038147</ele>
        <time>2023-12-19T16:07:22Z</time>
      </trkpt>
      <trkpt lat="43.43792" lon="3.4356">
        <ele>10.60000038147</ele>
        <time>2023-12-19T16:07:23Z</time>
      </trkpt>
      <trkpt lat="43.43794" lon="3.43552">
        <ele>10.60000038147</ele>
        <time>2023-12-19T16:07:24Z</time>
      </trkpt>
      <trkpt lat="43.43797" lon="3.43545">
        <ele>10.60000038147</ele>
        <time>2023-12-19T16:07:25Z</time>
      </trkpt>
      <trkpt lat="43.43799" lon="3.43537">
        <ele>10.39999961853</ele>
        <time>2023-12-19T16:07:26Z</time>
      </trkpt>
      <trkpt lat="43.43802" lon="3.43529">
        <ele>10.39999961853</ele>
        <time>2023-12-19T16:07:27Z</time>
      </trkpt>
      <trkpt lat="43.43804" lon="3.43521">
        <ele>10.199999809265</ele>
        <time>2023-12-19T16:07:28Z</time>
      </trkpt>
      <trkpt lat="43.43807" lon="3.43512">
        <ele>10.199999809265</ele>
        <time>2023-12-19T16:07:29Z</time>
      </trkpt>
      <trkpt lat="43.43809" lon="3.43505">
        <ele>10.199999809265</ele>
        <time>2023-12-19T16:07:30Z</time>
      </trkpt>
      <trkpt lat="43.43812" lon="3.43497">
        <ele>9.8000001907349</ele>
        <time>2023-12-19T16:07:31Z</time>
      </trkpt>
      <trkpt lat="43.43815" lon="3.43489">
        <ele>9.8000001907349</ele>
        <time>2023-12-19T16:07:32Z</time>
      </trkpt>
      <trkpt lat="43.43818" lon="3.43481">
        <ele>9.8000001907349</ele>
        <time>2023-12-19T16:07:33Z</time>
      </trkpt>
      <trkpt lat="43.43821" lon="3.43473">
        <ele>9.6000003814697</ele>
        <time>2023-12-19T16:07:34Z</time>
      </trkpt>
      <trkpt lat="43.43824" lon="3.43466">
        <ele>9.6000003814697</ele>
        <time>2023-12-19T16:07:35Z</time>
      </trkpt>
      <trkpt lat="43.43828" lon="3.43459">
        <ele>9.6000003814697</ele>
        <time>2023-12-19T16:07:36Z</time>
      </trkpt>
      <trkpt lat="43.43831" lon="3.43452">
        <ele>9.6000003814697</ele>
        <time>2023-12-19T16:07:37Z</time>
      </trkpt>
      <trkpt lat="43.43834" lon="3.43444">
        <ele>9.6000003814697</ele>
        <time>2023-12-19T16:07:38Z</time>
      </trkpt>
      <trkpt lat="43.43837" lon="3.43436">
        <ele>9.6000003814697</ele>
        <time>2023-12-19T16:07:39Z</time>
      </trkpt>
      <trkpt lat="43.4384" lon="3.43428">
        <ele>9.6000003814697</ele>
        <time>2023-12-19T16:07:40Z</time>
      </trkpt>
      <trkpt lat="43.43843" lon="3.4342">
        <ele>9.6000003814697</ele>
        <time>2023-12-19T16:07:41Z</time>
      </trkpt>
      <trkpt lat="43.43846" lon="3.43412">
        <ele>9.6000003814697</ele>
        <time>2023-12-19T16:07:42Z</time>
      </trkpt>
      <trkpt lat="43.43849" lon="3.43405">
        <ele>9.6000003814697</ele>
        <time>2023-12-19T16:07:43Z</time>
      </trkpt>
      <trkpt lat="43.43853" lon="3.43397">
        <ele>9.6000003814697</ele>
        <time>2023-12-19T16:07:44Z</time>
      </trkpt>
      <trkpt lat="43.43856" lon="3.43389">
        <ele>9.6000003814697</ele>
        <time>2023-12-19T16:07:45Z</time>
      </trkpt>
      <trkpt lat="43.43859" lon="3.43382">
        <ele>9.6000003814697</ele>
        <time>2023-12-19T16:07:46Z</time>
      </trkpt>
      <trkpt lat="43.43862" lon="3.43374">
        <ele>9.6000003814697</ele>
        <time>2023-12-19T16:07:47Z</time>
      </trkpt>
      <trkpt lat="43.43865" lon="3.43366">
        <ele>9.6000003814697</ele>
        <time>2023-12-19T16:07:48Z</time>
      </trkpt>
      <trkpt lat="43.43868" lon="3.43359">
        <ele>9.8000001907349</ele>
        <time>2023-12-19T16:07:49Z</time>
      </trkpt>
      <trkpt lat="43.43871" lon="3.43351">
        <ele>9.8000001907349</ele>
        <time>2023-12-19T16:07:50Z</time>
      </trkpt>
      <trkpt lat="43.43874" lon="3.43343">
        <ele>9.8000001907349</ele>
        <time>2023-12-19T16:07:51Z</time>
      </trkpt>
      <trkpt lat="43.43877" lon="3.43336">
        <ele>9.8000001907349</ele>
        <time>2023-12-19T16:07:52Z</time>
      </trkpt>
      <trkpt lat="43.4388" lon="3.43328">
        <ele>9.8000001907349</ele>
        <time>2023-12-19T16:07:53Z</time>
      </trkpt>
      <trkpt lat="43.43883" lon="3.4332">
        <ele>9.8000001907349</ele>
        <time>2023-12-19T16:07:54Z</time>
      </trkpt>
      <trkpt lat="43.43886" lon="3.43312">
        <ele>9.8000001907349</ele>
        <time>2023-12-19T16:07:55Z</time>
      </trkpt>
      <trkpt lat="43.43889" lon="3.43303">
        <ele>9.8000001907349</ele>
        <time>2023-12-19T16:07:56Z</time>
      </trkpt>
      <trkpt lat="43.43892" lon="3.43295">
        <ele>9.8000001907349</ele>
        <time>2023-12-19T16:07:57Z</time>
      </trkpt>
      <trkpt lat="43.43895" lon="3.43288">
        <ele>9.8000001907349</ele>
        <time>2023-12-19T16:07:58Z</time>
      </trkpt>
      <trkpt lat="43.43897" lon="3.4328">
        <ele>9.6000003814697</ele>
        <time>2023-12-19T16:07:59Z</time>
      </trkpt>
      <trkpt lat="43.439" lon="3.43272">
        <ele>9.6000003814697</ele>
        <time>2023-12-19T16:08:00Z</time>
      </trkpt>
      <trkpt lat="43.43903" lon="3.43264">
        <ele>9.6000003814697</ele>
        <time>2023-12-19T16:08:01Z</time>
      </trkpt>
      <trkpt lat="43.43905" lon="3.43256">
        <ele>9.8000001907349</ele>
        <time>2023-12-19T16:08:02Z</time>
      </trkpt>
      <trkpt lat="43.43908" lon="3.43249">
        <ele>9.8000001907349</ele>
        <time>2023-12-19T16:08:03Z</time>
      </trkpt>
      <trkpt lat="43.43911" lon="3.43241">
        <ele>9.8000001907349</ele>
        <time>2023-12-19T16:08:04Z</time>
      </trkpt>
      <trkpt lat="43.43913" lon="3.43234">
        <ele>9.8000001907349</ele>
        <time>2023-12-19T16:08:05Z</time>
      </trkpt>
      <trkpt lat="43.43916" lon="3.43226">
        <ele>9.8000001907349</ele>
        <time>2023-12-19T16:08:06Z</time>
      </trkpt>
      <trkpt lat="43.43919" lon="3.43218">
        <ele>10</ele>
        <time>2023-12-19T16:08:07Z</time>
      </trkpt>
      <trkpt lat="43.43921" lon="3.43209">
        <ele>10</ele>
        <time>2023-12-19T16:08:08Z</time>
      </trkpt>
      <trkpt lat="43.43923" lon="3.43202">
        <ele>10</ele>
        <time>2023-12-19T16:08:09Z</time>
      </trkpt>
      <trkpt lat="43.43925" lon="3.43195">
        <ele>10</ele>
        <time>2023-12-19T16:08:10Z</time>
      </trkpt>
      <trkpt lat="43.43927" lon="3.43189">
        <ele>10.199999809265</ele>
        <time>2023-12-19T16:08:11Z</time>
      </trkpt>
      <trkpt lat="43.43929" lon="3.43183">
        <ele>10.199999809265</ele>
        <time>2023-12-19T16:08:12Z</time>
      </trkpt>
      <trkpt lat="43.43932" lon="3.43177">
        <ele>10.39999961853</ele>
        <time>2023-12-19T16:08:13Z</time>
      </trkpt>
      <trkpt lat="43.43934" lon="3.43171">
        <ele>10.39999961853</ele>
        <time>2023-12-19T16:08:14Z</time>
      </trkpt>
      <trkpt lat="43.43935" lon="3.43165">
        <ele>10.39999961853</ele>
        <time>2023-12-19T16:08:15Z</time>
      </trkpt>
      <trkpt lat="43.43937" lon="3.43159">
        <ele>10.39999961853</ele>
        <time>2023-12-19T16:08:16Z</time>
      </trkpt>
      <trkpt lat="43.43938" lon="3.43153">
        <ele>10.39999961853</ele>
        <time>2023-12-19T16:08:17Z</time>
      </trkpt>
      <trkpt lat="43.43939" lon="3.43147">
        <ele>10.39999961853</ele>
        <time>2023-12-19T16:08:18Z</time>
      </trkpt>
      <trkpt lat="43.43942" lon="3.43142">
        <ele>10.39999961853</ele>
        <time>2023-12-19T16:08:19Z</time>
      </trkpt>
      <trkpt lat="43.43939" lon="3.43127">
        <ele>13</ele>
        <time>2023-12-19T12:36:40Z</time>
      </trkpt>
      <trkpt lat="43.43939" lon="3.43127">
        <ele>13</ele>
        <time>2023-12-19T12:36:40Z</time>
      </trkpt>
      <trkpt lat="43.43935" lon="3.43124">
        <ele>12.199999809265</ele>
        <time>2023-12-19T12:36:41Z</time>
      </trkpt>
      <trkpt lat="43.43932" lon="3.43121">
        <ele>12.199999809265</ele>
        <time>2023-12-19T12:36:42Z</time>
      </trkpt>
      <trkpt lat="43.43928" lon="3.43117">
        <ele>12</ele>
        <time>2023-12-19T12:36:43Z</time>
      </trkpt>
      <trkpt lat="43.43924" lon="3.43114">
        <ele>12</ele>
        <time>2023-12-19T12:36:44Z</time>
      </trkpt>
      <trkpt lat="43.43919" lon="3.43111">
        <ele>12</ele>
        <time>2023-12-19T12:36:45Z</time>
      </trkpt>
      <trkpt lat="43.43915" lon="3.43109">
        <ele>12</ele>
        <time>2023-12-19T12:36:46Z</time>
      </trkpt>
      <trkpt lat="43.43911" lon="3.43107">
        <ele>12</ele>
        <time>2023-12-19T12:36:47Z</time>
      </trkpt>
      <trkpt lat="43.43906" lon="3.43105">
        <ele>12</ele>
        <time>2023-12-19T12:36:48Z</time>
      </trkpt>
      <trkpt lat="43.43902" lon="3.43103">
        <ele>12</ele>
        <time>2023-12-19T12:36:49Z</time>
      </trkpt>
      <trkpt lat="43.43898" lon="3.43102">
        <ele>12</ele>
        <time>2023-12-19T12:36:50Z</time>
      </trkpt>
      <trkpt lat="43.43893" lon="3.43101">
        <ele>12</ele>
        <time>2023-12-19T12:36:51Z</time>
      </trkpt>
      <trkpt lat="43.43888" lon="3.43099">
        <ele>12</ele>
        <time>2023-12-19T12:36:52Z</time>
      </trkpt>
      <trkpt lat="43.43883" lon="3.43098">
        <ele>12</ele>
        <time>2023-12-19T12:36:53Z</time>
      </trkpt>
      <trkpt lat="43.43878" lon="3.43096">
        <ele>12</ele>
        <time>2023-12-19T12:36:54Z</time>
      </trkpt>
      <trkpt lat="43.43873" lon="3.43095">
        <ele>12</ele>
        <time>2023-12-19T12:36:55Z</time>
      </trkpt>
      <trkpt lat="43.43869" lon="3.43093">
        <ele>12</ele>
        <time>2023-12-19T12:36:56Z</time>
      </trkpt>
      <trkpt lat="43.43864" lon="3.43091">
        <ele>12</ele>
        <time>2023-12-19T12:36:57Z</time>
      </trkpt>
      <trkpt lat="43.43859" lon="3.4309">
        <ele>12</ele>
        <time>2023-12-19T12:36:58Z</time>
      </trkpt>
      <trkpt lat="43.43855" lon="3.43088">
        <ele>12</ele>
        <time>2023-12-19T12:36:59Z</time>
      </trkpt>
      <trkpt lat="43.4385" lon="3.43087">
        <ele>12</ele>
        <time>2023-12-19T12:37:00Z</time>
      </trkpt>
      <trkpt lat="43.43846" lon="3.43085">
        <ele>12</ele>
        <time>2023-12-19T12:37:01Z</time>
      </trkpt>
      <trkpt lat="43.43841" lon="3.43084">
        <ele>12</ele>
        <time>2023-12-19T12:37:02Z</time>
      </trkpt>
      <trkpt lat="43.43836" lon="3.43082">
        <ele>12</ele>
        <time>2023-12-19T12:37:03Z</time>
      </trkpt>
      <trkpt lat="43.43832" lon="3.4308">
        <ele>12</ele>
        <time>2023-12-19T12:37:04Z</time>
      </trkpt>
      <trkpt lat="43.43827" lon="3.43078">
        <ele>12</ele>
        <time>2023-12-19T12:37:05Z</time>
      </trkpt>
      <trkpt lat="43.43823" lon="3.43076">
        <ele>12</ele>
        <time>2023-12-19T12:37:06Z</time>
      </trkpt>
      <trkpt lat="43.43818" lon="3.43074">
        <ele>12</ele>
        <time>2023-12-19T12:37:07Z</time>
      </trkpt>
      <trkpt lat="43.43814" lon="3.43072">
        <ele>12</ele>
        <time>2023-12-19T12:37:08Z</time>
      </trkpt>
      <trkpt lat="43.43809" lon="3.4307">
        <ele>12</ele>
        <time>2023-12-19T12:37:09Z</time>
      </trkpt>
      <trkpt lat="43.43804" lon="3.43068">
        <ele>12</ele>
        <time>2023-12-19T12:37:10Z</time>
      </trkpt>
      <trkpt lat="43.438" lon="3.43067">
        <ele>12</ele>
        <time>2023-12-19T12:37:11Z</time>
      </trkpt>
      <trkpt lat="43.43795" lon="3.43065">
        <ele>12</ele>
        <time>2023-12-19T12:37:12Z</time>
      </trkpt>
      <trkpt lat="43.43791" lon="3.43063">
        <ele>12</ele>
        <time>2023-12-19T12:37:13Z</time>
      </trkpt>
      <trkpt lat="43.43786" lon="3.43061">
        <ele>12</ele>
        <time>2023-12-19T12:37:14Z</time>
      </trkpt>
      <trkpt lat="43.43782" lon="3.43058">
        <ele>12</ele>
        <time>2023-12-19T12:37:15Z</time>
      </trkpt>
      <trkpt lat="43.43779" lon="3.43054">
        <ele>12</ele>
        <time>2023-12-19T12:37:16Z</time>
      </trkpt>
      <trkpt lat="43.43777" lon="3.4305">
        <ele>12</ele>
        <time>2023-12-19T12:37:17Z</time>
      </trkpt>
      <trkpt lat="43.43774" lon="3.43045">
        <ele>12</ele>
        <time>2023-12-19T12:37:18Z</time>
      </trkpt>
      <trkpt lat="43.43772" lon="3.4304">
        <ele>12</ele>
        <time>2023-12-19T12:37:19Z</time>
      </trkpt>
      <trkpt lat="43.4377" lon="3.43034">
        <ele>12</ele>
        <time>2023-12-19T12:37:20Z</time>
      </trkpt>
      <trkpt lat="43.43769" lon="3.43028">
        <ele>11.800000190735</ele>
        <time>2023-12-19T12:37:21Z</time>
      </trkpt>
      <trkpt lat="43.43767" lon="3.43022">
        <ele>11.800000190735</ele>
        <time>2023-12-19T12:37:22Z</time>
      </trkpt>
      <trkpt lat="43.43767" lon="3.43015">
        <ele>11.800000190735</ele>
        <time>2023-12-19T12:37:23Z</time>
      </trkpt>
      <trkpt lat="43.43766" lon="3.43009">
        <ele>11.800000190735</ele>
        <time>2023-12-19T12:37:24Z</time>
      </trkpt>
      <trkpt lat="43.43766" lon="3.43003">
        <ele>11.800000190735</ele>
        <time>2023-12-19T12:37:25Z</time>
      </trkpt>
      <trkpt lat="43.43765" lon="3.42997">
        <ele>11.800000190735</ele>
        <time>2023-12-19T12:37:26Z</time>
      </trkpt>
      <trkpt lat="43.43763" lon="3.4299">
        <ele>11.800000190735</ele>
        <time>2023-12-19T12:37:27Z</time>
      </trkpt>
      <trkpt lat="43.43762" lon="3.42984">
        <ele>11.60000038147</ele>
        <time>2023-12-19T12:37:28Z</time>
      </trkpt>
      <trkpt lat="43.4376" lon="3.42979">
        <ele>11.60000038147</ele>
        <time>2023-12-19T12:37:29Z</time>
      </trkpt>
      <trkpt lat="43.43757" lon="3.42974">
        <ele>11.60000038147</ele>
        <time>2023-12-19T12:37:30Z</time>
      </trkpt>
      <trkpt lat="43.43754" lon="3.42968">
        <ele>11.60000038147</ele>
        <time>2023-12-19T12:37:31Z</time>
      </trkpt>
      <trkpt lat="43.4375" lon="3.42963">
        <ele>11.60000038147</ele>
        <time>2023-12-19T12:37:32Z</time>
      </trkpt>
      <trkpt lat="43.43747" lon="3.42958">
        <ele>11.60000038147</ele>
        <time>2023-12-19T12:37:33Z</time>
      </trkpt>
      <trkpt lat="43.43744" lon="3.42953">
        <ele>11.60000038147</ele>
        <time>2023-12-19T12:37:34Z</time>
      </trkpt>
      <trkpt lat="43.43741" lon="3.42948">
        <ele>11.60000038147</ele>
        <time>2023-12-19T12:37:35Z</time>
      </trkpt>
      <trkpt lat="43.43738" lon="3.42942">
        <ele>11.60000038147</ele>
        <time>2023-12-19T12:37:36Z</time>
      </trkpt>
      <trkpt lat="43.43735" lon="3.42937">
        <ele>11.39999961853</ele>
        <time>2023-12-19T12:37:37Z</time>
      </trkpt>
      <trkpt lat="43.43731" lon="3.42933">
        <ele>11.39999961853</ele>
        <time>2023-12-19T12:37:38Z</time>
      </trkpt>
      <trkpt lat="43.43728" lon="3.42928">
        <ele>11.39999961853</ele>
        <time>2023-12-19T12:37:39Z</time>
      </trkpt>
      <trkpt lat="43.43725" lon="3.42924">
        <ele>11.39999961853</ele>
        <time>2023-12-19T12:37:40Z</time>
      </trkpt>
      <trkpt lat="43.43722" lon="3.42919">
        <ele>11.39999961853</ele>
        <time>2023-12-19T12:37:41Z</time>
      </trkpt>
      <trkpt lat="43.43718" lon="3.42915">
        <ele>11.39999961853</ele>
        <time>2023-12-19T12:37:42Z</time>
      </trkpt>
      <trkpt lat="43.43715" lon="3.4291">
        <ele>11.39999961853</ele>
        <time>2023-12-19T12:37:43Z</time>
      </trkpt>
      <trkpt lat="43.43712" lon="3.42905">
        <ele>11.39999961853</ele>
        <time>2023-12-19T12:37:44Z</time>
      </trkpt>
      <trkpt lat="43.43708" lon="3.429">
        <ele>11.39999961853</ele>
        <time>2023-12-19T12:37:45Z</time>
      </trkpt>
      <trkpt lat="43.43705" lon="3.42896">
        <ele>11.39999961853</ele>
        <time>2023-12-19T12:37:46Z</time>
      </trkpt>
      <trkpt lat="43.43702" lon="3.42891">
        <ele>11.39999961853</ele>
        <time>2023-12-19T12:37:47Z</time>
      </trkpt>
      <trkpt lat="43.43699" lon="3.42887">
        <ele>11.39999961853</ele>
        <time>2023-12-19T12:37:48Z</time>
      </trkpt>
      <trkpt lat="43.43695" lon="3.42882">
        <ele>11.39999961853</ele>
        <time>2023-12-19T12:37:49Z</time>
      </trkpt>
      <trkpt lat="43.43692" lon="3.42877">
        <ele>11.39999961853</ele>
        <time>2023-12-19T12:37:50Z</time>
      </trkpt>
      <trkpt lat="43.43688" lon="3.42872">
        <ele>11.39999961853</ele>
        <time>2023-12-19T12:37:51Z</time>
      </trkpt>
      <trkpt lat="43.43685" lon="3.42868">
        <ele>11.39999961853</ele>
        <time>2023-12-19T12:37:52Z</time>
      </trkpt>
      <trkpt lat="43.43682" lon="3.42863">
        <ele>11.39999961853</ele>
        <time>2023-12-19T12:37:53Z</time>
      </trkpt>
      <trkpt lat="43.43678" lon="3.42858">
        <ele>11.39999961853</ele>
        <time>2023-12-19T12:37:54Z</time>
      </trkpt>
      <trkpt lat="43.43675" lon="3.42853">
        <ele>11.39999961853</ele>
        <time>2023-12-19T12:37:55Z</time>
      </trkpt>
      <trkpt lat="43.43671" lon="3.42848">
        <ele>11.39999961853</ele>
        <time>2023-12-19T12:37:56Z</time>
      </trkpt>
      <trkpt lat="43.43668" lon="3.42843">
        <ele>11.39999961853</ele>
        <time>2023-12-19T12:37:57Z</time>
      </trkpt>
      <trkpt lat="43.43664" lon="3.42838">
        <ele>11.39999961853</ele>
        <time>2023-12-19T12:37:58Z</time>
      </trkpt>
      <trkpt lat="43.43661" lon="3.42833">
        <ele>11.39999961853</ele>
        <time>2023-12-19T12:37:59Z</time>
      </trkpt>
      <trkpt lat="43.43657" lon="3.42828">
        <ele>11.39999961853</ele>
        <time>2023-12-19T12:38:00Z</time>
      </trkpt>
      <trkpt lat="43.43654" lon="3.42823">
        <ele>11.39999961853</ele>
        <time>2023-12-19T12:38:01Z</time>
      </trkpt>
      <trkpt lat="43.4365" lon="3.42818">
        <ele>11.39999961853</ele>
        <time>2023-12-19T12:38:02Z</time>
      </trkpt>
      <trkpt lat="43.43647" lon="3.42813">
        <ele>11.39999961853</ele>
        <time>2023-12-19T12:38:03Z</time>
      </trkpt>
      <trkpt lat="43.43643" lon="3.42808">
        <ele>11.39999961853</ele>
        <time>2023-12-19T12:38:04Z</time>
      </trkpt>
      <trkpt lat="43.4364" lon="3.42803">
        <ele>11.39999961853</ele>
        <time>2023-12-19T12:38:05Z</time>
      </trkpt>
      <trkpt lat="43.43636" lon="3.42799">
        <ele>11.39999961853</ele>
        <time>2023-12-19T12:38:06Z</time>
      </trkpt>
      <trkpt lat="43.43633" lon="3.42794">
        <ele>11.39999961853</ele>
        <time>2023-12-19T12:38:07Z</time>
      </trkpt>
      <trkpt lat="43.4363" lon="3.4279">
        <ele>11.39999961853</ele>
        <time>2023-12-19T12:38:08Z</time>
      </trkpt>
      <trkpt lat="43.43626" lon="3.42786">
        <ele>11.39999961853</ele>
        <time>2023-12-19T12:38:09Z</time>
      </trkpt>
      <trkpt lat="43.43623" lon="3.42781">
        <ele>11.39999961853</ele>
        <time>2023-12-19T12:38:10Z</time>
      </trkpt>
      <trkpt lat="43.43619" lon="3.42777">
        <ele>11.39999961853</ele>
        <time>2023-12-19T12:38:11Z</time>
      </trkpt>
      <trkpt lat="43.43616" lon="3.42773">
        <ele>11.39999961853</ele>
        <time>2023-12-19T12:38:12Z</time>
      </trkpt>
      <trkpt lat="43.43612" lon="3.42769">
        <ele>11.39999961853</ele>
        <time>2023-12-19T12:38:13Z</time>
      </trkpt>
      <trkpt lat="43.43609" lon="3.42764">
        <ele>11.39999961853</ele>
        <time>2023-12-19T12:38:14Z</time>
      </trkpt>
      <trkpt lat="43.43604" lon="3.4276">
        <ele>11.39999961853</ele>
        <time>2023-12-19T12:38:15Z</time>
      </trkpt>
      <trkpt lat="43.436" lon="3.42756">
        <ele>11.39999961853</ele>
        <time>2023-12-19T12:38:16Z</time>
      </trkpt>
      <trkpt lat="43.43596" lon="3.42753">
        <ele>11.39999961853</ele>
        <time>2023-12-19T12:38:17Z</time>
      </trkpt>
      <trkpt lat="43.43592" lon="3.4275">
        <ele>11.60000038147</ele>
        <time>2023-12-19T12:38:18Z</time>
      </trkpt>
      <trkpt lat="43.43588" lon="3.42748">
        <ele>11.60000038147</ele>
        <time>2023-12-19T12:38:19Z</time>
      </trkpt>
      <trkpt lat="43.43584" lon="3.42745">
        <ele>11.60000038147</ele>
        <time>2023-12-19T12:38:20Z</time>
      </trkpt>
      <trkpt lat="43.43579" lon="3.42743">
        <ele>11.60000038147</ele>
        <time>2023-12-19T12:38:21Z</time>
      </trkpt>
      <trkpt lat="43.43575" lon="3.42741">
        <ele>11.60000038147</ele>
        <time>2023-12-19T12:38:22Z</time>
      </trkpt>
      <trkpt lat="43.43571" lon="3.42739">
        <ele>11.60000038147</ele>
        <time>2023-12-19T12:38:23Z</time>
      </trkpt>
      <trkpt lat="43.43567" lon="3.42736">
        <ele>11.800000190735</ele>
        <time>2023-12-19T12:38:24Z</time>
      </trkpt>
      <trkpt lat="43.43563" lon="3.42733">
        <ele>11.800000190735</ele>
        <time>2023-12-19T12:38:25Z</time>
      </trkpt>
      <trkpt lat="43.43558" lon="3.42731">
        <ele>11.800000190735</ele>
        <time>2023-12-19T12:38:26Z</time>
      </trkpt>
      <trkpt lat="43.43553" lon="3.42728">
        <ele>11.800000190735</ele>
        <time>2023-12-19T12:38:27Z</time>
      </trkpt>
      <trkpt lat="43.43549" lon="3.42726">
        <ele>11.800000190735</ele>
        <time>2023-12-19T12:38:28Z</time>
      </trkpt>
      <trkpt lat="43.43545" lon="3.42724">
        <ele>11.800000190735</ele>
        <time>2023-12-19T12:38:29Z</time>
      </trkpt>
      <trkpt lat="43.43541" lon="3.42721">
        <ele>11.800000190735</ele>
        <time>2023-12-19T12:38:30Z</time>
      </trkpt>
      <trkpt lat="43.43537" lon="3.42719">
        <ele>11.800000190735</ele>
        <time>2023-12-19T12:38:31Z</time>
      </trkpt>
      <trkpt lat="43.43533" lon="3.42717">
        <ele>11.800000190735</ele>
        <time>2023-12-19T12:38:32Z</time>
      </trkpt>
      <trkpt lat="43.4353" lon="3.42715">
        <ele>11.800000190735</ele>
        <time>2023-12-19T12:38:33Z</time>
      </trkpt>
      <trkpt lat="43.43527" lon="3.42712">
        <ele>11.60000038147</ele>
        <time>2023-12-19T12:38:34Z</time>
      </trkpt>
      <trkpt lat="43.43523" lon="3.4271">
        <ele>11.60000038147</ele>
        <time>2023-12-19T12:38:35Z</time>
      </trkpt>
      <trkpt lat="43.4352" lon="3.42709">
        <ele>11.60000038147</ele>
        <time>2023-12-19T12:38:36Z</time>
      </trkpt>
      <trkpt lat="43.43516" lon="3.42709">
        <ele>11.60000038147</ele>
        <time>2023-12-19T12:38:37Z</time>
      </trkpt>
      <trkpt lat="43.43512" lon="3.42709">
        <ele>11.60000038147</ele>
        <time>2023-12-19T12:38:38Z</time>
      </trkpt>
      <trkpt lat="43.43509" lon="3.4271">
        <ele>11.60000038147</ele>
        <time>2023-12-19T12:38:39Z</time>
      </trkpt>
      <trkpt lat="43.43506" lon="3.42712">
        <ele>11.60000038147</ele>
        <time>2023-12-19T12:38:40Z</time>
      </trkpt>
      <trkpt lat="43.43503" lon="3.42715">
        <ele>11.60000038147</ele>
        <time>2023-12-19T12:38:41Z</time>
      </trkpt>
      <trkpt lat="43.43501" lon="3.42719">
        <ele>11.60000038147</ele>
        <time>2023-12-19T12:38:42Z</time>
      </trkpt>
      <trkpt lat="43.43499" lon="3.42724">
        <ele>11.60000038147</ele>
        <time>2023-12-19T12:38:43Z</time>
      </trkpt>
      <trkpt lat="43.43498" lon="3.42728">
        <ele>11.60000038147</ele>
        <time>2023-12-19T12:38:44Z</time>
      </trkpt>
      <trkpt lat="43.43497" lon="3.42734">
        <ele>11.60000038147</ele>
        <time>2023-12-19T12:38:45Z</time>
      </trkpt>
      <trkpt lat="43.43495" lon="3.42739">
        <ele>11.60000038147</ele>
        <time>2023-12-19T12:38:46Z</time>
      </trkpt>
      <trkpt lat="43.43494" lon="3.42745">
        <ele>11.60000038147</ele>
        <time>2023-12-19T12:38:47Z</time>
      </trkpt>
      <trkpt lat="43.43493" lon="3.42751">
        <ele>11.60000038147</ele>
        <time>2023-12-19T12:38:48Z</time>
      </trkpt>
      <trkpt lat="43.43491" lon="3.42756">
        <ele>11.60000038147</ele>
        <time>2023-12-19T12:38:49Z</time>
      </trkpt>
      <trkpt lat="43.4349" lon="3.42762">
        <ele>11.60000038147</ele>
        <time>2023-12-19T12:38:50Z</time>
      </trkpt>
      <trkpt lat="43.43489" lon="3.42768">
        <ele>11.60000038147</ele>
        <time>2023-12-19T12:38:51Z</time>
      </trkpt>
      <trkpt lat="43.43489" lon="3.42774">
        <ele>11.60000038147</ele>
        <time>2023-12-19T12:38:52Z</time>
      </trkpt>
      <trkpt lat="43.43488" lon="3.4278">
        <ele>11.60000038147</ele>
        <time>2023-12-19T12:38:53Z</time>
      </trkpt>
      <trkpt lat="43.43487" lon="3.42787">
        <ele>11.60000038147</ele>
        <time>2023-12-19T12:38:54Z</time>
      </trkpt>
      <trkpt lat="43.43486" lon="3.42793">
        <ele>11.60000038147</ele>
        <time>2023-12-19T12:38:55Z</time>
      </trkpt>
      <trkpt lat="43.43485" lon="3.42799">
        <ele>11.60000038147</ele>
        <time>2023-12-19T12:38:56Z</time>
      </trkpt>
      <trkpt lat="43.43485" lon="3.42805">
        <ele>11.39999961853</ele>
        <time>2023-12-19T12:38:57Z</time>
      </trkpt>
      <trkpt lat="43.43484" lon="3.4281">
        <ele>11.39999961853</ele>
        <time>2023-12-19T12:38:58Z</time>
      </trkpt>
      <trkpt lat="43.43483" lon="3.42816">
        <ele>11.39999961853</ele>
        <time>2023-12-19T12:38:59Z</time>
      </trkpt>
      <trkpt lat="43.43483" lon="3.42822">
        <ele>11.39999961853</ele>
        <time>2023-12-19T12:39:00Z</time>
      </trkpt>
      <trkpt lat="43.43483" lon="3.42828">
        <ele>11.39999961853</ele>
        <time>2023-12-19T12:39:01Z</time>
      </trkpt>
      <trkpt lat="43.43482" lon="3.42833">
        <ele>11.39999961853</ele>
        <time>2023-12-19T12:39:02Z</time>
      </trkpt>
      <trkpt lat="43.43482" lon="3.4284">
        <ele>11.39999961853</ele>
        <time>2023-12-19T12:39:03Z</time>
      </trkpt>
      <trkpt lat="43.43482" lon="3.42846">
        <ele>11.39999961853</ele>
        <time>2023-12-19T12:39:04Z</time>
      </trkpt>
      <trkpt lat="43.43481" lon="3.42852">
        <ele>11.39999961853</ele>
        <time>2023-12-19T12:39:05Z</time>
      </trkpt>
      <trkpt lat="43.43481" lon="3.42859">
        <ele>11.39999961853</ele>
        <time>2023-12-19T12:39:06Z</time>
      </trkpt>
      <trkpt lat="43.43481" lon="3.42865">
        <ele>11.39999961853</ele>
        <time>2023-12-19T12:39:07Z</time>
      </trkpt>
      <trkpt lat="43.4348" lon="3.42871">
        <ele>11.39999961853</ele>
        <time>2023-12-19T12:39:08Z</time>
      </trkpt>
      <trkpt lat="43.4348" lon="3.42876">
        <ele>11.199999809265</ele>
        <time>2023-12-19T12:39:09Z</time>
      </trkpt>
      <trkpt lat="43.43479" lon="3.42882">
        <ele>11.199999809265</ele>
        <time>2023-12-19T12:39:10Z</time>
      </trkpt>
      <trkpt lat="43.43479" lon="3.42888">
        <ele>11.199999809265</ele>
        <time>2023-12-19T12:39:11Z</time>
      </trkpt>
      <trkpt lat="43.43479" lon="3.42894">
        <ele>11.199999809265</ele>
        <time>2023-12-19T12:39:12Z</time>
      </trkpt>
      <trkpt lat="43.43479" lon="3.429">
        <ele>11.199999809265</ele>
        <time>2023-12-19T12:39:13Z</time>
      </trkpt>
      <trkpt lat="43.43479" lon="3.42906">
        <ele>11.199999809265</ele>
        <time>2023-12-19T12:39:14Z</time>
      </trkpt>
      <trkpt lat="43.43479" lon="3.42912">
        <ele>11.39999961853</ele>
        <time>2023-12-19T12:39:15Z</time>
      </trkpt>
      <trkpt lat="43.43479" lon="3.42918">
        <ele>11.39999961853</ele>
        <time>2023-12-19T12:39:16Z</time>
      </trkpt>
      <trkpt lat="43.43479" lon="3.42924">
        <ele>11.60000038147</ele>
        <time>2023-12-19T12:39:17Z</time>
      </trkpt>
      <trkpt lat="43.43479" lon="3.4293">
        <ele>11.60000038147</ele>
        <time>2023-12-19T12:39:18Z</time>
      </trkpt>
      <trkpt lat="43.43479" lon="3.42937">
        <ele>11.60000038147</ele>
        <time>2023-12-19T12:39:19Z</time>
      </trkpt>
      <trkpt lat="43.43478" lon="3.42943">
        <ele>11.60000038147</ele>
        <time>2023-12-19T12:39:20Z</time>
      </trkpt>
      <trkpt lat="43.43477" lon="3.4295">
        <ele>11.60000038147</ele>
        <time>2023-12-19T12:39:21Z</time>
      </trkpt>
      <trkpt lat="43.43477" lon="3.42957">
        <ele>11.60000038147</ele>
        <time>2023-12-19T12:39:22Z</time>
      </trkpt>
      <trkpt lat="43.43476" lon="3.42963">
        <ele>11.60000038147</ele>
        <time>2023-12-19T12:39:23Z</time>
      </trkpt>
      <trkpt lat="43.43475" lon="3.42968">
        <ele>11.60000038147</ele>
        <time>2023-12-19T12:39:24Z</time>
      </trkpt>
      <trkpt lat="43.43475" lon="3.42973">
        <ele>11.60000038147</ele>
        <time>2023-12-19T12:39:25Z</time>
      </trkpt>
      <trkpt lat="43.43474" lon="3.42979">
        <ele>11.60000038147</ele>
        <time>2023-12-19T12:39:26Z</time>
      </trkpt>
      <trkpt lat="43.43472" lon="3.42983">
        <ele>11.800000190735</ele>
        <time>2023-12-19T12:39:27Z</time>
      </trkpt>
      <trkpt lat="43.43471" lon="3.42987">
        <ele>11.800000190735</ele>
        <time>2023-12-19T12:39:28Z</time>
      </trkpt>
      <trkpt lat="43.4347" lon="3.4299">
        <ele>11.800000190735</ele>
        <time>2023-12-19T12:39:29Z</time>
      </trkpt>
      <trkpt lat="43.43469" lon="3.42993">
        <ele>11.60000038147</ele>
        <time>2023-12-19T12:39:30Z</time>
      </trkpt>
      <trkpt lat="43.43467" lon="3.42997">
        <ele>11.60000038147</ele>
        <time>2023-12-19T12:39:31Z</time>
      </trkpt>
      <trkpt lat="43.43467" lon="3.43001">
        <ele>11.60000038147</ele>
        <time>2023-12-19T12:39:32Z</time>
      </trkpt>
      <trkpt lat="43.43466" lon="3.43005">
        <ele>11.60000038147</ele>
        <time>2023-12-19T12:39:33Z</time>
      </trkpt>
      <trkpt lat="43.43467" lon="3.4301">
        <ele>11.60000038147</ele>
        <time>2023-12-19T12:39:34Z</time>
      </trkpt>
      <trkpt lat="43.43468" lon="3.43015">
        <ele>11.60000038147</ele>
        <time>2023-12-19T12:39:35Z</time>
      </trkpt>
      <trkpt lat="43.43468" lon="3.4302">
        <ele>11.39999961853</ele>
        <time>2023-12-19T12:39:36Z</time>
      </trkpt>
      <trkpt lat="43.43469" lon="3.43025">
        <ele>11.39999961853</ele>
        <time>2023-12-19T12:39:37Z</time>
      </trkpt>
      <trkpt lat="43.4347" lon="3.43031">
        <ele>11.60000038147</ele>
        <time>2023-12-19T12:39:38Z</time>
      </trkpt>
      <trkpt lat="43.43471" lon="3.43037">
        <ele>11.60000038147</ele>
        <time>2023-12-19T12:39:39Z</time>
      </trkpt>
      <trkpt lat="43.43472" lon="3.43043">
        <ele>11.60000038147</ele>
        <time>2023-12-19T12:39:40Z</time>
      </trkpt>
      <trkpt lat="43.43472" lon="3.43049">
        <ele>11.60000038147</ele>
        <time>2023-12-19T12:39:41Z</time>
      </trkpt>
      <trkpt lat="43.43472" lon="3.43054">
        <ele>11.60000038147</ele>
        <time>2023-12-19T12:39:42Z</time>
      </trkpt>
      <trkpt lat="43.43473" lon="3.43059">
        <ele>11.60000038147</ele>
        <time>2023-12-19T12:39:43Z</time>
      </trkpt>
      <trkpt lat="43.43472" lon="3.43065">
        <ele>11.60000038147</ele>
        <time>2023-12-19T12:39:44Z</time>
      </trkpt>
      <trkpt lat="43.43472" lon="3.4307">
        <ele>11.60000038147</ele>
        <time>2023-12-19T12:39:45Z</time>
      </trkpt>
      <trkpt lat="43.43472" lon="3.43076">
        <ele>11.60000038147</ele>
        <time>2023-12-19T12:39:46Z</time>
      </trkpt>
      <trkpt lat="43.43471" lon="3.43082">
        <ele>11.60000038147</ele>
        <time>2023-12-19T12:39:47Z</time>
      </trkpt>
      <trkpt lat="43.43471" lon="3.43088">
        <ele>11.800000190735</ele>
        <time>2023-12-19T12:39:48Z</time>
      </trkpt>
      <trkpt lat="43.43471" lon="3.43093">
        <ele>11.800000190735</ele>
        <time>2023-12-19T12:39:49Z</time>
      </trkpt>
      <trkpt lat="43.43471" lon="3.43099">
        <ele>11.800000190735</ele>
        <time>2023-12-19T12:39:50Z</time>
      </trkpt>
      <trkpt lat="43.43471" lon="3.43105">
        <ele>11.800000190735</ele>
        <time>2023-12-19T12:39:51Z</time>
      </trkpt>
      <trkpt lat="43.43472" lon="3.43111">
        <ele>11.800000190735</ele>
        <time>2023-12-19T12:39:52Z</time>
      </trkpt>
      <trkpt lat="43.43472" lon="3.43117">
        <ele>12</ele>
        <time>2023-12-19T12:39:53Z</time>
      </trkpt>
      <trkpt lat="43.43473" lon="3.43124">
        <ele>12</ele>
        <time>2023-12-19T12:39:54Z</time>
      </trkpt>
      <trkpt lat="43.43474" lon="3.43129">
        <ele>12</ele>
        <time>2023-12-19T12:39:55Z</time>
      </trkpt>
      <trkpt lat="43.43475" lon="3.43135">
        <ele>12</ele>
        <time>2023-12-19T12:39:56Z</time>
      </trkpt>
      <trkpt lat="43.43476" lon="3.43141">
        <ele>12</ele>
        <time>2023-12-19T12:39:57Z</time>
      </trkpt>
      <trkpt lat="43.43477" lon="3.43146">
        <ele>12.199999809265</ele>
        <time>2023-12-19T12:39:58Z</time>
      </trkpt>
      <trkpt lat="43.43479" lon="3.43153">
        <ele>12.199999809265</ele>
        <time>2023-12-19T12:39:59Z</time>
      </trkpt>
      <trkpt lat="43.4348" lon="3.43158">
        <ele>12.199999809265</ele>
        <time>2023-12-19T12:40:00Z</time>
      </trkpt>
      <trkpt lat="43.43481" lon="3.43164">
        <ele>12.39999961853</ele>
        <time>2023-12-19T12:40:01Z</time>
      </trkpt>
      <trkpt lat="43.43482" lon="3.4317">
        <ele>12.39999961853</ele>
        <time>2023-12-19T12:40:02Z</time>
      </trkpt>
      <trkpt lat="43.43484" lon="3.43176">
        <ele>12.60000038147</ele>
        <time>2023-12-19T12:40:03Z</time>
      </trkpt>
      <trkpt lat="43.43485" lon="3.43182">
        <ele>12.60000038147</ele>
        <time>2023-12-19T12:40:04Z</time>
      </trkpt>
      <trkpt lat="43.43487" lon="3.43188">
        <ele>12.60000038147</ele>
        <time>2023-12-19T12:40:05Z</time>
      </trkpt>
      <trkpt lat="43.43488" lon="3.43195">
        <ele>12.60000038147</ele>
        <time>2023-12-19T12:40:06Z</time>
      </trkpt>
      <trkpt lat="43.43489" lon="3.43201">
        <ele>12.60000038147</ele>
        <time>2023-12-19T12:40:07Z</time>
      </trkpt>
      <trkpt lat="43.4349" lon="3.43207">
        <ele>12.60000038147</ele>
        <time>2023-12-19T12:40:08Z</time>
      </trkpt>
      <trkpt lat="43.43492" lon="3.43212">
        <ele>12.60000038147</ele>
        <time>2023-12-19T12:40:09Z</time>
      </trkpt>
      <trkpt lat="43.43493" lon="3.43218">
        <ele>12.60000038147</ele>
        <time>2023-12-19T12:40:10Z</time>
      </trkpt>
      <trkpt lat="43.43493" lon="3.43224">
        <ele>12.60000038147</ele>
        <time>2023-12-19T12:40:11Z</time>
      </trkpt>
      <trkpt lat="43.43494" lon="3.43229">
        <ele>12.60000038147</ele>
        <time>2023-12-19T12:40:12Z</time>
      </trkpt>
      <trkpt lat="43.43495" lon="3.43235">
        <ele>12.60000038147</ele>
        <time>2023-12-19T12:40:13Z</time>
      </trkpt>
      <trkpt lat="43.43496" lon="3.43241">
        <ele>12.60000038147</ele>
        <time>2023-12-19T12:40:14Z</time>
      </trkpt>
      <trkpt lat="43.43496" lon="3.43248">
        <ele>12.60000038147</ele>
        <time>2023-12-19T12:40:15Z</time>
      </trkpt>
      <trkpt lat="43.43497" lon="3.43254">
        <ele>12.800000190735</ele>
        <time>2023-12-19T12:40:16Z</time>
      </trkpt>
      <trkpt lat="43.43498" lon="3.4326">
        <ele>12.800000190735</ele>
        <time>2023-12-19T12:40:17Z</time>
      </trkpt>
      <trkpt lat="43.43498" lon="3.43267">
        <ele>12.800000190735</ele>
        <time>2023-12-19T12:40:18Z</time>
      </trkpt>
      <trkpt lat="43.43499" lon="3.43273">
        <ele>12.800000190735</ele>
        <time>2023-12-19T12:40:19Z</time>
      </trkpt>
      <trkpt lat="43.435" lon="3.43278">
        <ele>12.800000190735</ele>
        <time>2023-12-19T12:40:20Z</time>
      </trkpt>
      <trkpt lat="43.43501" lon="3.43284">
        <ele>12.800000190735</ele>
        <time>2023-12-19T12:40:21Z</time>
      </trkpt>
      <trkpt lat="43.43501" lon="3.4329">
        <ele>12.800000190735</ele>
        <time>2023-12-19T12:40:22Z</time>
      </trkpt>
      <trkpt lat="43.43502" lon="3.43296">
        <ele>12.800000190735</ele>
        <time>2023-12-19T12:40:23Z</time>
      </trkpt>
      <trkpt lat="43.43503" lon="3.43303">
        <ele>12.800000190735</ele>
        <time>2023-12-19T12:40:24Z</time>
      </trkpt>
      <trkpt lat="43.43504" lon="3.43308">
        <ele>12.800000190735</ele>
        <time>2023-12-19T12:40:25Z</time>
      </trkpt>
      <trkpt lat="43.43505" lon="3.43314">
        <ele>13</ele>
        <time>2023-12-19T12:40:26Z</time>
      </trkpt>
      <trkpt lat="43.43506" lon="3.43319">
        <ele>13</ele>
        <time>2023-12-19T12:40:27Z</time>
      </trkpt>
      <trkpt lat="43.43507" lon="3.43325">
        <ele>13</ele>
        <time>2023-12-19T12:40:28Z</time>
      </trkpt>
      <trkpt lat="43.43509" lon="3.43331">
        <ele>13</ele>
        <time>2023-12-19T12:40:29Z</time>
      </trkpt>
      <trkpt lat="43.43511" lon="3.43336">
        <ele>13</ele>
        <time>2023-12-19T12:40:30Z</time>
      </trkpt>
      <trkpt lat="43.43512" lon="3.43341">
        <ele>13</ele>
        <time>2023-12-19T12:40:31Z</time>
      </trkpt>
      <trkpt lat="43.43514" lon="3.43346">
        <ele>13</ele>
        <time>2023-12-19T12:40:32Z</time>
      </trkpt>
      <trkpt lat="43.43516" lon="3.43351">
        <ele>13</ele>
        <time>2023-12-19T12:40:33Z</time>
      </trkpt>
      <trkpt lat="43.43513" lon="3.4336">
        <ele>13</ele>
        <time>2023-12-19T12:41:03Z</time>
      </trkpt>
      <trkpt lat="43.43509" lon="3.43361">
        <ele>13</ele>
        <time>2023-12-19T12:41:04Z</time>
      </trkpt>
      <trkpt lat="43.43505" lon="3.43363">
        <ele>13</ele>
        <time>2023-12-19T12:41:05Z</time>
      </trkpt>
      <trkpt lat="43.43501" lon="3.43366">
        <ele>13</ele>
        <time>2023-12-19T12:41:06Z</time>
      </trkpt>
      <trkpt lat="43.43497" lon="3.4337">
        <ele>13</ele>
        <time>2023-12-19T12:41:07Z</time>
      </trkpt>
      <trkpt lat="43.43493" lon="3.43375">
        <ele>13</ele>
        <time>2023-12-19T12:41:08Z</time>
      </trkpt>
      <trkpt lat="43.4349" lon="3.4338">
        <ele>13</ele>
        <time>2023-12-19T12:41:09Z</time>
      </trkpt>
      <trkpt lat="43.43486" lon="3.43385">
        <ele>13</ele>
        <time>2023-12-19T12:41:10Z</time>
      </trkpt>
      <trkpt lat="43.43483" lon="3.43391">
        <ele>13</ele>
        <time>2023-12-19T12:41:11Z</time>
      </trkpt>
      <trkpt lat="43.4348" lon="3.43397">
        <ele>13.199999809265</ele>
        <time>2023-12-19T12:41:12Z</time>
      </trkpt>
      <trkpt lat="43.43476" lon="3.43403">
        <ele>13.39999961853</ele>
        <time>2023-12-19T12:41:13Z</time>
      </trkpt>
      <trkpt lat="43.43473" lon="3.43408">
        <ele>13.39999961853</ele>
        <time>2023-12-19T12:41:14Z</time>
      </trkpt>
      <trkpt lat="43.4347" lon="3.43412">
        <ele>13.39999961853</ele>
        <time>2023-12-19T12:41:15Z</time>
      </trkpt>
      <trkpt lat="43.43467" lon="3.43416">
        <ele>13.39999961853</ele>
        <time>2023-12-19T12:41:16Z</time>
      </trkpt>
      <trkpt lat="43.43463" lon="3.43419">
        <ele>13.39999961853</ele>
        <time>2023-12-19T12:41:17Z</time>
      </trkpt>
      <trkpt lat="43.4346" lon="3.43422">
        <ele>13.39999961853</ele>
        <time>2023-12-19T12:41:18Z</time>
      </trkpt>
      <trkpt lat="43.43456" lon="3.43425">
        <ele>13.60000038147</ele>
        <time>2023-12-19T12:41:19Z</time>
      </trkpt>
      <trkpt lat="43.43451" lon="3.43428">
        <ele>13.60000038147</ele>
        <time>2023-12-19T12:41:20Z</time>
      </trkpt>
      <trkpt lat="43.43447" lon="3.43431">
        <ele>13.800000190735</ele>
        <time>2023-12-19T12:41:21Z</time>
      </trkpt>
      <trkpt lat="43.43443" lon="3.43434">
        <ele>13.800000190735</ele>
        <time>2023-12-19T12:41:22Z</time>
      </trkpt>
      <trkpt lat="43.43439" lon="3.43435">
        <ele>14</ele>
        <time>2023-12-19T12:41:23Z</time>
      </trkpt>
      <trkpt lat="43.43435" lon="3.43437">
        <ele>14</ele>
        <time>2023-12-19T12:41:24Z</time>
      </trkpt>
      <trkpt lat="43.43431" lon="3.4344">
        <ele>14.199999809265</ele>
        <time>2023-12-19T12:41:25Z</time>
      </trkpt>
      <trkpt lat="43.43428" lon="3.43442">
        <ele>14.39999961853</ele>
        <time>2023-12-19T12:41:26Z</time>
      </trkpt>
      <trkpt lat="43.43424" lon="3.43445">
        <ele>14.39999961853</ele>
        <time>2023-12-19T12:41:27Z</time>
      </trkpt>
      <trkpt lat="43.4342" lon="3.43448">
        <ele>14.39999961853</ele>
        <time>2023-12-19T12:41:28Z</time>
      </trkpt>
      <trkpt lat="43.43416" lon="3.43451">
        <ele>14.60000038147</ele>
        <time>2023-12-19T12:41:29Z</time>
      </trkpt>
      <trkpt lat="43.43412" lon="3.43455">
        <ele>14.800000190735</ele>
        <time>2023-12-19T12:41:30Z</time>
      </trkpt>
      <trkpt lat="43.43407" lon="3.43459">
        <ele>14.800000190735</ele>
        <time>2023-12-19T12:41:31Z</time>
      </trkpt>
      <trkpt lat="43.43403" lon="3.43462">
        <ele>15</ele>
        <time>2023-12-19T12:41:32Z</time>
      </trkpt>
      <trkpt lat="43.43399" lon="3.43465">
        <ele>15.199999809265</ele>
        <time>2023-12-19T12:41:33Z</time>
      </trkpt>
      <trkpt lat="43.43395" lon="3.43468">
        <ele>15.39999961853</ele>
        <time>2023-12-19T12:41:34Z</time>
      </trkpt>
      <trkpt lat="43.43392" lon="3.43471">
        <ele>15.60000038147</ele>
        <time>2023-12-19T12:41:35Z</time>
      </trkpt>
      <trkpt lat="43.43387" lon="3.43474">
        <ele>15.800000190735</ele>
        <time>2023-12-19T12:41:36Z</time>
      </trkpt>
      <trkpt lat="43.43383" lon="3.43477">
        <ele>16</ele>
        <time>2023-12-19T12:41:37Z</time>
      </trkpt>
      <trkpt lat="43.43379" lon="3.4348">
        <ele>16.39999961853</ele>
        <time>2023-12-19T12:41:38Z</time>
      </trkpt>
      <trkpt lat="43.43376" lon="3.43482">
        <ele>16.60000038147</ele>
        <time>2023-12-19T12:41:39Z</time>
      </trkpt>
      <trkpt lat="43.43372" lon="3.43486">
        <ele>17</ele>
        <time>2023-12-19T12:41:40Z</time>
      </trkpt>
      <trkpt lat="43.43368" lon="3.43489">
        <ele>17.39999961853</ele>
        <time>2023-12-19T12:41:41Z</time>
      </trkpt>
      <trkpt lat="43.43364" lon="3.43492">
        <ele>17.60000038147</ele>
        <time>2023-12-19T12:41:42Z</time>
      </trkpt>
      <trkpt lat="43.4336" lon="3.43495">
        <ele>18</ele>
        <time>2023-12-19T12:41:43Z</time>
      </trkpt>
      <trkpt lat="43.43357" lon="3.43498">
        <ele>18.200000762939</ele>
        <time>2023-12-19T12:41:44Z</time>
      </trkpt>
      <trkpt lat="43.43353" lon="3.435">
        <ele>18.39999961853</ele>
        <time>2023-12-19T12:41:45Z</time>
      </trkpt>
      <trkpt lat="43.43349" lon="3.43503">
        <ele>18.799999237061</ele>
        <time>2023-12-19T12:41:46Z</time>
      </trkpt>
      <trkpt lat="43.43345" lon="3.43506">
        <ele>19</ele>
        <time>2023-12-19T12:41:47Z</time>
      </trkpt>
      <trkpt lat="43.43341" lon="3.43509">
        <ele>19.39999961853</ele>
        <time>2023-12-19T12:41:48Z</time>
      </trkpt>
      <trkpt lat="43.43338" lon="3.43511">
        <ele>19.799999237061</ele>
        <time>2023-12-19T12:41:49Z</time>
      </trkpt>
      <trkpt lat="43.43335" lon="3.43513">
        <ele>20.200000762939</ele>
        <time>2023-12-19T12:41:50Z</time>
      </trkpt>
      <trkpt lat="43.43331" lon="3.43516">
        <ele>20.60000038147</ele>
        <time>2023-12-19T12:41:51Z</time>
      </trkpt>
      <trkpt lat="43.43328" lon="3.43519">
        <ele>21</ele>
        <time>2023-12-19T12:41:52Z</time>
      </trkpt>
      <trkpt lat="43.43324" lon="3.43521">
        <ele>21.39999961853</ele>
        <time>2023-12-19T12:41:53Z</time>
      </trkpt>
      <trkpt lat="43.4332" lon="3.43523">
        <ele>22</ele>
        <time>2023-12-19T12:41:54Z</time>
      </trkpt>
      <trkpt lat="43.43316" lon="3.43525">
        <ele>22.60000038147</ele>
        <time>2023-12-19T12:41:55Z</time>
      </trkpt>
      <trkpt lat="43.43312" lon="3.43526">
        <ele>23</ele>
        <time>2023-12-19T12:41:56Z</time>
      </trkpt>
      <trkpt lat="43.43308" lon="3.43527">
        <ele>23.39999961853</ele>
        <time>2023-12-19T12:41:57Z</time>
      </trkpt>
      <trkpt lat="43.43305" lon="3.43528">
        <ele>23.60000038147</ele>
        <time>2023-12-19T12:41:58Z</time>
      </trkpt>
      <trkpt lat="43.43301" lon="3.43529">
        <ele>24</ele>
        <time>2023-12-19T12:41:59Z</time>
      </trkpt>
      <trkpt lat="43.43297" lon="3.4353">
        <ele>24.200000762939</ele>
        <time>2023-12-19T12:42:00Z</time>
      </trkpt>
      <trkpt lat="43.43293" lon="3.4353">
        <ele>24.60000038147</ele>
        <time>2023-12-19T12:42:01Z</time>
      </trkpt>
      <trkpt lat="43.43289" lon="3.4353">
        <ele>24.799999237061</ele>
        <time>2023-12-19T12:42:02Z</time>
      </trkpt>
      <trkpt lat="43.43286" lon="3.4353">
        <ele>25</ele>
        <time>2023-12-19T12:42:03Z</time>
      </trkpt>
      <trkpt lat="43.43282" lon="3.43531">
        <ele>25.200000762939</ele>
        <time>2023-12-19T12:42:04Z</time>
      </trkpt>
      <trkpt lat="43.43279" lon="3.43532">
        <ele>25.39999961853</ele>
        <time>2023-12-19T12:42:05Z</time>
      </trkpt>
      <trkpt lat="43.43276" lon="3.43534">
        <ele>25.60000038147</ele>
        <time>2023-12-19T12:42:06Z</time>
      </trkpt>
      <trkpt lat="43.43273" lon="3.43536">
        <ele>25.799999237061</ele>
        <time>2023-12-19T12:42:07Z</time>
      </trkpt>
      <trkpt lat="43.4327" lon="3.43539">
        <ele>25.799999237061</ele>
        <time>2023-12-19T12:42:08Z</time>
      </trkpt>
      <trkpt lat="43.43268" lon="3.43541">
        <ele>26</ele>
        <time>2023-12-19T12:42:09Z</time>
      </trkpt>
      <trkpt lat="43.43266" lon="3.43543">
        <ele>26.200000762939</ele>
        <time>2023-12-19T12:42:10Z</time>
      </trkpt>
      <trkpt lat="43.43264" lon="3.43545">
        <ele>26.39999961853</ele>
        <time>2023-12-19T12:42:11Z</time>
      </trkpt>
      <trkpt lat="43.43261" lon="3.43547">
        <ele>26.60000038147</ele>
        <time>2023-12-19T12:42:12Z</time>
      </trkpt>
      <trkpt lat="43.43259" lon="3.4355">
        <ele>26.799999237061</ele>
        <time>2023-12-19T12:42:13Z</time>
      </trkpt>
      <trkpt lat="43.43257" lon="3.43553">
        <ele>27.200000762939</ele>
        <time>2023-12-19T12:42:14Z</time>
      </trkpt>
      <trkpt lat="43.43256" lon="3.43557">
        <ele>27.39999961853</ele>
        <time>2023-12-19T12:42:15Z</time>
      </trkpt>
      <trkpt lat="43.43256" lon="3.43562">
        <ele>27.799999237061</ele>
        <time>2023-12-19T12:42:16Z</time>
      </trkpt>
      <trkpt lat="43.43256" lon="3.43567">
        <ele>28.200000762939</ele>
        <time>2023-12-19T12:42:17Z</time>
      </trkpt>
      <trkpt lat="43.43257" lon="3.43573">
        <ele>28.39999961853</ele>
        <time>2023-12-19T12:42:18Z</time>
      </trkpt>
      <trkpt lat="43.43258" lon="3.43578">
        <ele>28.60000038147</ele>
        <time>2023-12-19T12:42:19Z</time>
      </trkpt>
      <trkpt lat="43.43259" lon="3.43583">
        <ele>28.60000038147</ele>
        <time>2023-12-19T12:42:20Z</time>
      </trkpt>
      <trkpt lat="43.43261" lon="3.43588">
        <ele>28.60000038147</ele>
        <time>2023-12-19T12:42:21Z</time>
      </trkpt>
      <trkpt lat="43.43263" lon="3.43593">
        <ele>28.60000038147</ele>
        <time>2023-12-19T12:42:22Z</time>
      </trkpt>
      <trkpt lat="43.43264" lon="3.43599">
        <ele>28.39999961853</ele>
        <time>2023-12-19T12:42:23Z</time>
      </trkpt>
      <trkpt lat="43.43266" lon="3.43604">
        <ele>28.200000762939</ele>
        <time>2023-12-19T12:42:24Z</time>
      </trkpt>
      <trkpt lat="43.43268" lon="3.43609">
        <ele>28</ele>
        <time>2023-12-19T12:42:25Z</time>
      </trkpt>
      <trkpt lat="43.4327" lon="3.43614">
        <ele>27.799999237061</ele>
        <time>2023-12-19T12:42:26Z</time>
      </trkpt>
      <trkpt lat="43.43272" lon="3.43618">
        <ele>27.60000038147</ele>
        <time>2023-12-19T12:42:27Z</time>
      </trkpt>
      <trkpt lat="43.43274" lon="3.43623">
        <ele>27.60000038147</ele>
        <time>2023-12-19T12:42:28Z</time>
      </trkpt>
      <trkpt lat="43.43276" lon="3.43628">
        <ele>27.60000038147</ele>
        <time>2023-12-19T12:42:29Z</time>
      </trkpt>
      <trkpt lat="43.43279" lon="3.43633">
        <ele>27.60000038147</ele>
        <time>2023-12-19T12:42:30Z</time>
      </trkpt>
      <trkpt lat="43.43282" lon="3.43638">
        <ele>27.60000038147</ele>
        <time>2023-12-19T12:42:31Z</time>
      </trkpt>
      <trkpt lat="43.43286" lon="3.43644">
        <ele>27.60000038147</ele>
        <time>2023-12-19T12:42:32Z</time>
      </trkpt>
      <trkpt lat="43.43289" lon="3.43649">
        <ele>27.60000038147</ele>
        <time>2023-12-19T12:42:33Z</time>
      </trkpt>
      <trkpt lat="43.43292" lon="3.43654">
        <ele>27.60000038147</ele>
        <time>2023-12-19T12:42:34Z</time>
      </trkpt>
      <trkpt lat="43.43295" lon="3.43659">
        <ele>27.39999961853</ele>
        <time>2023-12-19T12:42:35Z</time>
      </trkpt>
      <trkpt lat="43.43298" lon="3.43664">
        <ele>27.39999961853</ele>
        <time>2023-12-19T12:42:36Z</time>
      </trkpt>
      <trkpt lat="43.43301" lon="3.43668">
        <ele>27.39999961853</ele>
        <time>2023-12-19T12:42:37Z</time>
      </trkpt>
      <trkpt lat="43.43304" lon="3.43673">
        <ele>27.39999961853</ele>
        <time>2023-12-19T12:42:38Z</time>
      </trkpt>
      <trkpt lat="43.43308" lon="3.43678">
        <ele>27.60000038147</ele>
        <time>2023-12-19T12:42:39Z</time>
      </trkpt>
      <trkpt lat="43.43311" lon="3.43682">
        <ele>27.60000038147</ele>
        <time>2023-12-19T12:42:40Z</time>
      </trkpt>
      <trkpt lat="43.43315" lon="3.43687">
        <ele>27.799999237061</ele>
        <time>2023-12-19T12:42:41Z</time>
      </trkpt>
      <trkpt lat="43.43318" lon="3.43692">
        <ele>27.799999237061</ele>
        <time>2023-12-19T12:42:42Z</time>
      </trkpt>
      <trkpt lat="43.43321" lon="3.43695">
        <ele>27.799999237061</ele>
        <time>2023-12-19T12:42:43Z</time>
      </trkpt>
      <trkpt lat="43.43325" lon="3.437">
        <ele>27.799999237061</ele>
        <time>2023-12-19T12:42:44Z</time>
      </trkpt>
      <trkpt lat="43.43328" lon="3.43704">
        <ele>28</ele>
        <time>2023-12-19T12:42:45Z</time>
      </trkpt>
      <trkpt lat="43.43331" lon="3.43708">
        <ele>28.200000762939</ele>
        <time>2023-12-19T12:42:46Z</time>
      </trkpt>
      <trkpt lat="43.43335" lon="3.43712">
        <ele>28.39999961853</ele>
        <time>2023-12-19T12:42:47Z</time>
      </trkpt>
      <trkpt lat="43.43338" lon="3.43716">
        <ele>28.60000038147</ele>
        <time>2023-12-19T12:42:48Z</time>
      </trkpt>
      <trkpt lat="43.43341" lon="3.4372">
        <ele>29</ele>
        <time>2023-12-19T12:42:49Z</time>
      </trkpt>
      <trkpt lat="43.43343" lon="3.43724">
        <ele>29.200000762939</ele>
        <time>2023-12-19T12:42:50Z</time>
      </trkpt>
      <trkpt lat="43.43346" lon="3.43727">
        <ele>29.60000038147</ele>
        <time>2023-12-19T12:42:51Z</time>
      </trkpt>
      <trkpt lat="43.43347" lon="3.43731">
        <ele>30.200000762939</ele>
        <time>2023-12-19T12:42:52Z</time>
      </trkpt>
      <trkpt lat="43.43345" lon="3.43735">
        <ele>30.60000038147</ele>
        <time>2023-12-19T12:42:53Z</time>
      </trkpt>
      <trkpt lat="43.43343" lon="3.43738">
        <ele>31.200000762939</ele>
        <time>2023-12-19T12:42:54Z</time>
      </trkpt>
      <trkpt lat="43.43339" lon="3.4374">
        <ele>31.799999237061</ele>
        <time>2023-12-19T12:42:55Z</time>
      </trkpt>
      <trkpt lat="43.43336" lon="3.43744">
        <ele>32.400001525879</ele>
        <time>2023-12-19T12:42:56Z</time>
      </trkpt>
      <trkpt lat="43.43332" lon="3.43749">
        <ele>32.799999237061</ele>
        <time>2023-12-19T12:42:57Z</time>
      </trkpt>
      <trkpt lat="43.43329" lon="3.43752">
        <ele>33</ele>
        <time>2023-12-19T12:42:58Z</time>
      </trkpt>
      <trkpt lat="43.43325" lon="3.43755">
        <ele>33.200000762939</ele>
        <time>2023-12-19T12:42:59Z</time>
      </trkpt>
      <trkpt lat="43.43322" lon="3.43759">
        <ele>33.200000762939</ele>
        <time>2023-12-19T12:43:00Z</time>
      </trkpt>
      <trkpt lat="43.43318" lon="3.43762">
        <ele>33.200000762939</ele>
        <time>2023-12-19T12:43:01Z</time>
      </trkpt>
      <trkpt lat="43.43315" lon="3.43765">
        <ele>33.200000762939</ele>
        <time>2023-12-19T12:43:02Z</time>
      </trkpt>
      <trkpt lat="43.43311" lon="3.4377">
        <ele>33.200000762939</ele>
        <time>2023-12-19T12:43:03Z</time>
      </trkpt>
      <trkpt lat="43.43306" lon="3.43774">
        <ele>33.200000762939</ele>
        <time>2023-12-19T12:43:04Z</time>
      </trkpt>
      <trkpt lat="43.43302" lon="3.43778">
        <ele>33.200000762939</ele>
        <time>2023-12-19T12:43:05Z</time>
      </trkpt>
      <trkpt lat="43.43298" lon="3.43783">
        <ele>33</ele>
        <time>2023-12-19T12:43:06Z</time>
      </trkpt>
      <trkpt lat="43.43295" lon="3.43787">
        <ele>33</ele>
        <time>2023-12-19T12:43:07Z</time>
      </trkpt>
      <trkpt lat="43.43292" lon="3.43791">
        <ele>33</ele>
        <time>2023-12-19T12:43:08Z</time>
      </trkpt>
      <trkpt lat="43.43289" lon="3.43795">
        <ele>32.799999237061</ele>
        <time>2023-12-19T12:43:09Z</time>
      </trkpt>
      <trkpt lat="43.43286" lon="3.43799">
        <ele>32.799999237061</ele>
        <time>2023-12-19T12:43:10Z</time>
      </trkpt>
      <trkpt lat="43.43283" lon="3.43803">
        <ele>32.799999237061</ele>
        <time>2023-12-19T12:43:11Z</time>
      </trkpt>
      <trkpt lat="43.4328" lon="3.43809">
        <ele>32.799999237061</ele>
        <time>2023-12-19T12:43:12Z</time>
      </trkpt>
      <trkpt lat="43.43277" lon="3.43814">
        <ele>32.799999237061</ele>
        <time>2023-12-19T12:43:13Z</time>
      </trkpt>
      <trkpt lat="43.43274" lon="3.4382">
        <ele>32.799999237061</ele>
        <time>2023-12-19T12:43:14Z</time>
      </trkpt>
      <trkpt lat="43.43272" lon="3.43825">
        <ele>32.799999237061</ele>
        <time>2023-12-19T12:43:15Z</time>
      </trkpt>
      <trkpt lat="43.4327" lon="3.43831">
        <ele>32.599998474121</ele>
        <time>2023-12-19T12:43:16Z</time>
      </trkpt>
      <trkpt lat="43.43268" lon="3.43838">
        <ele>32.599998474121</ele>
        <time>2023-12-19T12:43:17Z</time>
      </trkpt>
      <trkpt lat="43.43266" lon="3.43845">
        <ele>32.599998474121</ele>
        <time>2023-12-19T12:43:18Z</time>
      </trkpt>
      <trkpt lat="43.43264" lon="3.43852">
        <ele>32.599998474121</ele>
        <time>2023-12-19T12:43:19Z</time>
      </trkpt>
      <trkpt lat="43.43263" lon="3.43858">
        <ele>32.599998474121</ele>
        <time>2023-12-19T12:43:20Z</time>
      </trkpt>
      <trkpt lat="43.43262" lon="3.43864">
        <ele>32.599998474121</ele>
        <time>2023-12-19T12:43:21Z</time>
      </trkpt>
      <trkpt lat="43.43261" lon="3.43871">
        <ele>32.599998474121</ele>
        <time>2023-12-19T12:43:22Z</time>
      </trkpt>
      <trkpt lat="43.4326" lon="3.43877">
        <ele>32.599998474121</ele>
        <time>2023-12-19T12:43:23Z</time>
      </trkpt>
      <trkpt lat="43.43259" lon="3.43883">
        <ele>32.599998474121</ele>
        <time>2023-12-19T12:43:24Z</time>
      </trkpt>
      <trkpt lat="43.43258" lon="3.43889">
        <ele>32.599998474121</ele>
        <time>2023-12-19T12:43:25Z</time>
      </trkpt>
      <trkpt lat="43.43257" lon="3.43895">
        <ele>32.400001525879</ele>
        <time>2023-12-19T12:43:26Z</time>
      </trkpt>
      <trkpt lat="43.43258" lon="3.439">
        <ele>32.400001525879</ele>
        <time>2023-12-19T12:43:27Z</time>
      </trkpt>
      <trkpt lat="43.43261" lon="3.43906">
        <ele>32.400001525879</ele>
        <time>2023-12-19T12:43:28Z</time>
      </trkpt>
      <trkpt lat="43.43265" lon="3.43911">
        <ele>32.400001525879</ele>
        <time>2023-12-19T12:43:29Z</time>
      </trkpt>
      <trkpt lat="43.43269" lon="3.43916">
        <ele>32.400001525879</ele>
        <time>2023-12-19T12:43:30Z</time>
      </trkpt>
      <trkpt lat="43.43273" lon="3.43921">
        <ele>32.400001525879</ele>
        <time>2023-12-19T12:43:31Z</time>
      </trkpt>
      <trkpt lat="43.43276" lon="3.43925">
        <ele>32.400001525879</ele>
        <time>2023-12-19T12:43:32Z</time>
      </trkpt>
      <trkpt lat="43.4328" lon="3.4393">
        <ele>32.400001525879</ele>
        <time>2023-12-19T12:43:33Z</time>
      </trkpt>
      <trkpt lat="43.43284" lon="3.43935">
        <ele>32.400001525879</ele>
        <time>2023-12-19T12:43:34Z</time>
      </trkpt>
      <trkpt lat="43.43288" lon="3.43939">
        <ele>32.599998474121</ele>
        <time>2023-12-19T12:43:35Z</time>
      </trkpt>
      <trkpt lat="43.43291" lon="3.43943">
        <ele>32.799999237061</ele>
        <time>2023-12-19T12:43:36Z</time>
      </trkpt>
      <trkpt lat="43.43295" lon="3.43947">
        <ele>33</ele>
        <time>2023-12-19T12:43:37Z</time>
      </trkpt>
      <trkpt lat="43.43298" lon="3.43951">
        <ele>33.599998474121</ele>
        <time>2023-12-19T12:43:38Z</time>
      </trkpt>
      <trkpt lat="43.43301" lon="3.43955">
        <ele>34</ele>
        <time>2023-12-19T12:43:39Z</time>
      </trkpt>
      <trkpt lat="43.43305" lon="3.43959">
        <ele>34.599998474121</ele>
        <time>2023-12-19T12:43:40Z</time>
      </trkpt>
      <trkpt lat="43.43308" lon="3.43963">
        <ele>35.200000762939</ele>
        <time>2023-12-19T12:43:41Z</time>
      </trkpt>
      <trkpt lat="43.43311" lon="3.43967">
        <ele>35.599998474121</ele>
        <time>2023-12-19T12:43:42Z</time>
      </trkpt>
      <trkpt lat="43.43315" lon="3.43972">
        <ele>36</ele>
        <time>2023-12-19T12:43:43Z</time>
      </trkpt>
      <trkpt lat="43.43318" lon="3.43976">
        <ele>36.400001525879</ele>
        <time>2023-12-19T12:43:44Z</time>
      </trkpt>
      <trkpt lat="43.43322" lon="3.4398">
        <ele>36.599998474121</ele>
        <time>2023-12-19T12:43:45Z</time>
      </trkpt>
      <trkpt lat="43.43326" lon="3.43983">
        <ele>36.599998474121</ele>
        <time>2023-12-19T12:43:46Z</time>
      </trkpt>
      <trkpt lat="43.4333" lon="3.43986">
        <ele>36.799999237061</ele>
        <time>2023-12-19T12:43:47Z</time>
      </trkpt>
      <trkpt lat="43.43334" lon="3.43989">
        <ele>36.799999237061</ele>
        <time>2023-12-19T12:43:48Z</time>
      </trkpt>
      <trkpt lat="43.43338" lon="3.43991">
        <ele>37</ele>
        <time>2023-12-19T12:43:49Z</time>
      </trkpt>
      <trkpt lat="43.43342" lon="3.43992">
        <ele>37.200000762939</ele>
        <time>2023-12-19T12:43:50Z</time>
      </trkpt>
      <trkpt lat="43.43346" lon="3.43993">
        <ele>37.400001525879</ele>
        <time>2023-12-19T12:43:51Z</time>
      </trkpt>
      <trkpt lat="43.43351" lon="3.43994">
        <ele>37.599998474121</ele>
        <time>2023-12-19T12:43:52Z</time>
      </trkpt>
      <trkpt lat="43.43357" lon="3.43996">
        <ele>37.799999237061</ele>
        <time>2023-12-19T12:43:53Z</time>
      </trkpt>
      <trkpt lat="43.43361" lon="3.43997">
        <ele>37.799999237061</ele>
        <time>2023-12-19T12:43:54Z</time>
      </trkpt>
      <trkpt lat="43.43366" lon="3.43998">
        <ele>38</ele>
        <time>2023-12-19T12:43:55Z</time>
      </trkpt>
      <trkpt lat="43.43371" lon="3.43999">
        <ele>38</ele>
        <time>2023-12-19T12:43:56Z</time>
      </trkpt>
      <trkpt lat="43.43376" lon="3.44">
        <ele>38</ele>
        <time>2023-12-19T12:43:57Z</time>
      </trkpt>
      <trkpt lat="43.4338" lon="3.44001">
        <ele>38</ele>
        <time>2023-12-19T12:43:58Z</time>
      </trkpt>
      <trkpt lat="43.43385" lon="3.44002">
        <ele>38</ele>
        <time>2023-12-19T12:43:59Z</time>
      </trkpt>
      <trkpt lat="43.43389" lon="3.44004">
        <ele>38</ele>
        <time>2023-12-19T12:44:00Z</time>
      </trkpt>
      <trkpt lat="43.43393" lon="3.44005">
        <ele>38</ele>
        <time>2023-12-19T12:44:01Z</time>
      </trkpt>
      <trkpt lat="43.43398" lon="3.44006">
        <ele>38</ele>
        <time>2023-12-19T12:44:02Z</time>
      </trkpt>
      <trkpt lat="43.43402" lon="3.44007">
        <ele>38</ele>
        <time>2023-12-19T12:44:03Z</time>
      </trkpt>
      <trkpt lat="43.43408" lon="3.44008">
        <ele>38.200000762939</ele>
        <time>2023-12-19T12:44:04Z</time>
      </trkpt>
      <trkpt lat="43.43413" lon="3.44009">
        <ele>38.200000762939</ele>
        <time>2023-12-19T12:44:05Z</time>
      </trkpt>
      <trkpt lat="43.43418" lon="3.4401">
        <ele>38.400001525879</ele>
        <time>2023-12-19T12:44:06Z</time>
      </trkpt>
      <trkpt lat="43.43423" lon="3.44013">
        <ele>38.599998474121</ele>
        <time>2023-12-19T12:44:07Z</time>
      </trkpt>
      <trkpt lat="43.43427" lon="3.44016">
        <ele>39</ele>
        <time>2023-12-19T12:44:08Z</time>
      </trkpt>
      <trkpt lat="43.43432" lon="3.44019">
        <ele>39.400001525879</ele>
        <time>2023-12-19T12:44:09Z</time>
      </trkpt>
      <trkpt lat="43.43435" lon="3.44022">
        <ele>39.799999237061</ele>
        <time>2023-12-19T12:44:10Z</time>
      </trkpt>
      <trkpt lat="43.43438" lon="3.44025">
        <ele>40</ele>
        <time>2023-12-19T12:44:11Z</time>
      </trkpt>
      <trkpt lat="43.43441" lon="3.44027">
        <ele>40.400001525879</ele>
        <time>2023-12-19T12:44:12Z</time>
      </trkpt>
      <trkpt lat="43.43444" lon="3.44029">
        <ele>40.799999237061</ele>
        <time>2023-12-19T12:44:13Z</time>
      </trkpt>
      <trkpt lat="43.43446" lon="3.44031">
        <ele>41.400001525879</ele>
        <time>2023-12-19T12:44:14Z</time>
      </trkpt>
      <trkpt lat="43.43448" lon="3.44033">
        <ele>41.799999237061</ele>
        <time>2023-12-19T12:44:15Z</time>
      </trkpt>
      <trkpt lat="43.4345" lon="3.44034">
        <ele>42</ele>
        <time>2023-12-19T12:44:16Z</time>
      </trkpt>
      <trkpt lat="43.43451" lon="3.44036">
        <ele>42.400001525879</ele>
        <time>2023-12-19T12:44:17Z</time>
      </trkpt>
      <trkpt lat="43.43453" lon="3.44036">
        <ele>42.599998474121</ele>
        <time>2023-12-19T12:44:18Z</time>
      </trkpt>
      <trkpt lat="43.43454" lon="3.44037">
        <ele>43</ele>
        <time>2023-12-19T12:44:19Z</time>
      </trkpt>
      <trkpt lat="43.43455" lon="3.44038">
        <ele>43.200000762939</ele>
        <time>2023-12-19T12:44:20Z</time>
      </trkpt>
      <trkpt lat="43.43455" lon="3.44039">
        <ele>43.400001525879</ele>
        <time>2023-12-19T12:44:21Z</time>
      </trkpt>
      <trkpt lat="43.43456" lon="3.44039">
        <ele>43.599998474121</ele>
        <time>2023-12-19T12:44:22Z</time>
      </trkpt>
      <trkpt lat="43.43456" lon="3.44039">
        <ele>43.799999237061</ele>
        <time>2023-12-19T12:44:23Z</time>
      </trkpt>
      <trkpt lat="43.43455" lon="3.44042">
        <ele>44.400001525879</ele>
        <time>2023-12-19T12:46:49Z</time>
      </trkpt>
    </trkseg>
  </trk>
</gpx>